<?xml version="1.0" encoding="UTF-8" standalone="no" ?>
<gpx xmlns="http://www.topografix.com/GPX/1/1" xmlns:xsi="http://www.w3.org/2001/XMLSchema-instance" xsi:schemaLocation="http://www.topografix.com/GPX/1/1 http://www.topografix.com/GPX/1/1/gpx.xsd" version="1.1" creator="VisuGPX - https://www.visugpx.com">
  <metadata>
    <name>Col de parquetout par les Engelas</name>
    <desc><![CDATA[Bien en forme, finalement pas si dur 
Bien contente !
]]></desc>
  </metadata>
  <trk>
    <name><![CDATA[Col de Parquetou par Valbonnais]]></name>
    <trkseg>
      <trkpt lat="44.89498" lon="5.86887">
        <ele>677.2</ele>
        <time>2024-08-27T08:40:31Z</time>
      </trkpt>
      <trkpt lat="44.89498" lon="5.86887">
        <ele>677.2</ele>
        <time>2024-08-27T08:40:32Z</time>
      </trkpt>
      <trkpt lat="44.89497" lon="5.86887">
        <ele>677.2</ele>
        <time>2024-08-27T08:40:33Z</time>
      </trkpt>
      <trkpt lat="44.89497" lon="5.86888">
        <ele>677.2</ele>
        <time>2024-08-27T08:40:34Z</time>
      </trkpt>
      <trkpt lat="44.89496" lon="5.86888">
        <ele>677.2</ele>
        <time>2024-08-27T08:40:35Z</time>
      </trkpt>
      <trkpt lat="44.89495" lon="5.86888">
        <ele>677.2</ele>
        <time>2024-08-27T08:40:36Z</time>
      </trkpt>
      <trkpt lat="44.89495" lon="5.86888">
        <ele>677.2</ele>
        <time>2024-08-27T08:40:37Z</time>
      </trkpt>
      <trkpt lat="44.89495" lon="5.86888">
        <ele>677.2</ele>
        <time>2024-08-27T08:40:38Z</time>
      </trkpt>
      <trkpt lat="44.89495" lon="5.86888">
        <ele>677.2</ele>
        <time>2024-08-27T08:40:39Z</time>
      </trkpt>
      <trkpt lat="44.89495" lon="5.86888">
        <ele>677.3</ele>
        <time>2024-08-27T08:40:40Z</time>
      </trkpt>
      <trkpt lat="44.89476" lon="5.86892">
        <ele>677.4</ele>
        <time>2024-08-27T08:45:14Z</time>
      </trkpt>
      <trkpt lat="44.89476" lon="5.86891">
        <ele>677.4</ele>
        <time>2024-08-27T08:45:15Z</time>
      </trkpt>
      <trkpt lat="44.89476" lon="5.86891">
        <ele>677.4</ele>
        <time>2024-08-27T08:45:16Z</time>
      </trkpt>
      <trkpt lat="44.89475" lon="5.86891">
        <ele>677.5</ele>
        <time>2024-08-27T08:45:17Z</time>
      </trkpt>
      <trkpt lat="44.89475" lon="5.86891">
        <ele>677.5</ele>
        <time>2024-08-27T08:45:18Z</time>
      </trkpt>
      <trkpt lat="44.89475" lon="5.86891">
        <ele>677.5</ele>
        <time>2024-08-27T08:45:19Z</time>
      </trkpt>
      <trkpt lat="44.89475" lon="5.86891">
        <ele>677.5</ele>
        <time>2024-08-27T08:45:20Z</time>
      </trkpt>
      <trkpt lat="44.89474" lon="5.8689">
        <ele>677.5</ele>
        <time>2024-08-27T08:45:21Z</time>
      </trkpt>
      <trkpt lat="44.89474" lon="5.8689">
        <ele>677.5</ele>
        <time>2024-08-27T08:45:22Z</time>
      </trkpt>
      <trkpt lat="44.89474" lon="5.8689">
        <ele>677.5</ele>
        <time>2024-08-27T08:45:23Z</time>
      </trkpt>
      <trkpt lat="44.89474" lon="5.86892">
        <ele>677.5</ele>
        <time>2024-08-27T08:45:24Z</time>
      </trkpt>
      <trkpt lat="44.89476" lon="5.86894">
        <ele>677.5</ele>
        <time>2024-08-27T08:45:25Z</time>
      </trkpt>
      <trkpt lat="44.89478" lon="5.86894">
        <ele>677.5</ele>
        <time>2024-08-27T08:45:26Z</time>
      </trkpt>
      <trkpt lat="44.89478" lon="5.86894">
        <ele>677.5</ele>
        <time>2024-08-27T08:45:27Z</time>
      </trkpt>
      <trkpt lat="44.89478" lon="5.86895">
        <ele>677.5</ele>
        <time>2024-08-27T08:45:28Z</time>
      </trkpt>
      <trkpt lat="44.89478" lon="5.86895">
        <ele>677.5</ele>
        <time>2024-08-27T08:45:29Z</time>
      </trkpt>
      <trkpt lat="44.89478" lon="5.86895">
        <ele>677.5</ele>
        <time>2024-08-27T08:45:30Z</time>
      </trkpt>
      <trkpt lat="44.89478" lon="5.86896">
        <ele>677.5</ele>
        <time>2024-08-27T08:45:31Z</time>
      </trkpt>
      <trkpt lat="44.89477" lon="5.86897">
        <ele>677.6</ele>
        <time>2024-08-27T08:45:32Z</time>
      </trkpt>
      <trkpt lat="44.89477" lon="5.86899">
        <ele>677.6</ele>
        <time>2024-08-27T08:45:33Z</time>
      </trkpt>
      <trkpt lat="44.89477" lon="5.869">
        <ele>677.6</ele>
        <time>2024-08-27T08:45:34Z</time>
      </trkpt>
      <trkpt lat="44.89476" lon="5.869">
        <ele>677.6</ele>
        <time>2024-08-27T08:45:35Z</time>
      </trkpt>
      <trkpt lat="44.89474" lon="5.86901">
        <ele>677.6</ele>
        <time>2024-08-27T08:45:36Z</time>
      </trkpt>
      <trkpt lat="44.89473" lon="5.86901">
        <ele>677.6</ele>
        <time>2024-08-27T08:45:37Z</time>
      </trkpt>
      <trkpt lat="44.89471" lon="5.86902">
        <ele>677.6</ele>
        <time>2024-08-27T08:45:38Z</time>
      </trkpt>
      <trkpt lat="44.89468" lon="5.86904">
        <ele>677.7</ele>
        <time>2024-08-27T08:45:39Z</time>
      </trkpt>
      <trkpt lat="44.89467" lon="5.86905">
        <ele>677.7</ele>
        <time>2024-08-27T08:45:40Z</time>
      </trkpt>
      <trkpt lat="44.89464" lon="5.86909">
        <ele>677.7</ele>
        <time>2024-08-27T08:45:41Z</time>
      </trkpt>
      <trkpt lat="44.89464" lon="5.8691">
        <ele>677.7</ele>
        <time>2024-08-27T08:45:42Z</time>
      </trkpt>
      <trkpt lat="44.89462" lon="5.86913">
        <ele>677.7</ele>
        <time>2024-08-27T08:45:43Z</time>
      </trkpt>
      <trkpt lat="44.8946" lon="5.86916">
        <ele>677.8</ele>
        <time>2024-08-27T08:45:44Z</time>
      </trkpt>
      <trkpt lat="44.89458" lon="5.8692">
        <ele>677.8</ele>
        <time>2024-08-27T08:45:45Z</time>
      </trkpt>
      <trkpt lat="44.89456" lon="5.86924">
        <ele>677.8</ele>
        <time>2024-08-27T08:45:46Z</time>
      </trkpt>
      <trkpt lat="44.89455" lon="5.86928">
        <ele>677.8</ele>
        <time>2024-08-27T08:45:47Z</time>
      </trkpt>
      <trkpt lat="44.89453" lon="5.86931">
        <ele>677.9</ele>
        <time>2024-08-27T08:45:48Z</time>
      </trkpt>
      <trkpt lat="44.89451" lon="5.86936">
        <ele>677.9</ele>
        <time>2024-08-27T08:45:49Z</time>
      </trkpt>
      <trkpt lat="44.8945" lon="5.8694">
        <ele>677.9</ele>
        <time>2024-08-27T08:45:50Z</time>
      </trkpt>
      <trkpt lat="44.89449" lon="5.86944">
        <ele>678</ele>
        <time>2024-08-27T08:45:51Z</time>
      </trkpt>
      <trkpt lat="44.89447" lon="5.86949">
        <ele>678</ele>
        <time>2024-08-27T08:45:52Z</time>
      </trkpt>
      <trkpt lat="44.89446" lon="5.86953">
        <ele>678</ele>
        <time>2024-08-27T08:45:53Z</time>
      </trkpt>
      <trkpt lat="44.89445" lon="5.86956">
        <ele>678.1</ele>
        <time>2024-08-27T08:45:54Z</time>
      </trkpt>
      <trkpt lat="44.89443" lon="5.8696">
        <ele>678.1</ele>
        <time>2024-08-27T08:45:55Z</time>
      </trkpt>
      <trkpt lat="44.89441" lon="5.86964">
        <ele>678.1</ele>
        <time>2024-08-27T08:45:56Z</time>
      </trkpt>
      <trkpt lat="44.8944" lon="5.86968">
        <ele>678.2</ele>
        <time>2024-08-27T08:45:57Z</time>
      </trkpt>
      <trkpt lat="44.89438" lon="5.86973">
        <ele>678.2</ele>
        <time>2024-08-27T08:45:58Z</time>
      </trkpt>
      <trkpt lat="44.89435" lon="5.86977">
        <ele>678.3</ele>
        <time>2024-08-27T08:45:59Z</time>
      </trkpt>
      <trkpt lat="44.89433" lon="5.86981">
        <ele>678.3</ele>
        <time>2024-08-27T08:46:00Z</time>
      </trkpt>
      <trkpt lat="44.8943" lon="5.86986">
        <ele>678.4</ele>
        <time>2024-08-27T08:46:01Z</time>
      </trkpt>
      <trkpt lat="44.89428" lon="5.8699">
        <ele>678.4</ele>
        <time>2024-08-27T08:46:02Z</time>
      </trkpt>
      <trkpt lat="44.89425" lon="5.86994">
        <ele>678.5</ele>
        <time>2024-08-27T08:46:03Z</time>
      </trkpt>
      <trkpt lat="44.89422" lon="5.86998">
        <ele>678.6</ele>
        <time>2024-08-27T08:46:04Z</time>
      </trkpt>
      <trkpt lat="44.89419" lon="5.87002">
        <ele>678.6</ele>
        <time>2024-08-27T08:46:05Z</time>
      </trkpt>
      <trkpt lat="44.89416" lon="5.87005">
        <ele>678.7</ele>
        <time>2024-08-27T08:46:06Z</time>
      </trkpt>
      <trkpt lat="44.89414" lon="5.87009">
        <ele>678.8</ele>
        <time>2024-08-27T08:46:07Z</time>
      </trkpt>
      <trkpt lat="44.8941" lon="5.87012">
        <ele>678.9</ele>
        <time>2024-08-27T08:46:08Z</time>
      </trkpt>
      <trkpt lat="44.89407" lon="5.87016">
        <ele>678.9</ele>
        <time>2024-08-27T08:46:09Z</time>
      </trkpt>
      <trkpt lat="44.89404" lon="5.8702">
        <ele>679</ele>
        <time>2024-08-27T08:46:10Z</time>
      </trkpt>
      <trkpt lat="44.89401" lon="5.87023">
        <ele>679.1</ele>
        <time>2024-08-27T08:46:11Z</time>
      </trkpt>
      <trkpt lat="44.89398" lon="5.87027">
        <ele>679.2</ele>
        <time>2024-08-27T08:46:12Z</time>
      </trkpt>
      <trkpt lat="44.89394" lon="5.8703">
        <ele>679.3</ele>
        <time>2024-08-27T08:46:13Z</time>
      </trkpt>
      <trkpt lat="44.89391" lon="5.87033">
        <ele>679.4</ele>
        <time>2024-08-27T08:46:14Z</time>
      </trkpt>
      <trkpt lat="44.89388" lon="5.87036">
        <ele>679.6</ele>
        <time>2024-08-27T08:46:15Z</time>
      </trkpt>
      <trkpt lat="44.89384" lon="5.87039">
        <ele>679.7</ele>
        <time>2024-08-27T08:46:16Z</time>
      </trkpt>
      <trkpt lat="44.89381" lon="5.87042">
        <ele>679.8</ele>
        <time>2024-08-27T08:46:17Z</time>
      </trkpt>
      <trkpt lat="44.89378" lon="5.87044">
        <ele>680</ele>
        <time>2024-08-27T08:46:18Z</time>
      </trkpt>
      <trkpt lat="44.89375" lon="5.87047">
        <ele>680.1</ele>
        <time>2024-08-27T08:46:19Z</time>
      </trkpt>
      <trkpt lat="44.89372" lon="5.8705">
        <ele>680.2</ele>
        <time>2024-08-27T08:46:20Z</time>
      </trkpt>
      <trkpt lat="44.89369" lon="5.87052">
        <ele>680.3</ele>
        <time>2024-08-27T08:46:21Z</time>
      </trkpt>
      <trkpt lat="44.89365" lon="5.87055">
        <ele>680.5</ele>
        <time>2024-08-27T08:46:22Z</time>
      </trkpt>
      <trkpt lat="44.89362" lon="5.87058">
        <ele>680.6</ele>
        <time>2024-08-27T08:46:23Z</time>
      </trkpt>
      <trkpt lat="44.89359" lon="5.87061">
        <ele>680.7</ele>
        <time>2024-08-27T08:46:24Z</time>
      </trkpt>
      <trkpt lat="44.89356" lon="5.87063">
        <ele>680.8</ele>
        <time>2024-08-27T08:46:25Z</time>
      </trkpt>
      <trkpt lat="44.89353" lon="5.87066">
        <ele>681</ele>
        <time>2024-08-27T08:46:26Z</time>
      </trkpt>
      <trkpt lat="44.89349" lon="5.87069">
        <ele>681.1</ele>
        <time>2024-08-27T08:46:27Z</time>
      </trkpt>
      <trkpt lat="44.89346" lon="5.87072">
        <ele>681.2</ele>
        <time>2024-08-27T08:46:28Z</time>
      </trkpt>
      <trkpt lat="44.89343" lon="5.87075">
        <ele>681.3</ele>
        <time>2024-08-27T08:46:29Z</time>
      </trkpt>
      <trkpt lat="44.8934" lon="5.87078">
        <ele>681.4</ele>
        <time>2024-08-27T08:46:30Z</time>
      </trkpt>
      <trkpt lat="44.89337" lon="5.87081">
        <ele>681.6</ele>
        <time>2024-08-27T08:46:31Z</time>
      </trkpt>
      <trkpt lat="44.89334" lon="5.87085">
        <ele>681.7</ele>
        <time>2024-08-27T08:46:32Z</time>
      </trkpt>
      <trkpt lat="44.89331" lon="5.87088">
        <ele>681.8</ele>
        <time>2024-08-27T08:46:33Z</time>
      </trkpt>
      <trkpt lat="44.89329" lon="5.87093">
        <ele>681.9</ele>
        <time>2024-08-27T08:46:34Z</time>
      </trkpt>
      <trkpt lat="44.89326" lon="5.87097">
        <ele>682.1</ele>
        <time>2024-08-27T08:46:35Z</time>
      </trkpt>
      <trkpt lat="44.89324" lon="5.87102">
        <ele>682.2</ele>
        <time>2024-08-27T08:46:36Z</time>
      </trkpt>
      <trkpt lat="44.89322" lon="5.87107">
        <ele>682.4</ele>
        <time>2024-08-27T08:46:37Z</time>
      </trkpt>
      <trkpt lat="44.8932" lon="5.87111">
        <ele>682.5</ele>
        <time>2024-08-27T08:46:38Z</time>
      </trkpt>
      <trkpt lat="44.89318" lon="5.87116">
        <ele>682.6</ele>
        <time>2024-08-27T08:46:39Z</time>
      </trkpt>
      <trkpt lat="44.89316" lon="5.87121">
        <ele>682.8</ele>
        <time>2024-08-27T08:46:40Z</time>
      </trkpt>
      <trkpt lat="44.89315" lon="5.87126">
        <ele>683</ele>
        <time>2024-08-27T08:46:41Z</time>
      </trkpt>
      <trkpt lat="44.89313" lon="5.87131">
        <ele>683.1</ele>
        <time>2024-08-27T08:46:42Z</time>
      </trkpt>
      <trkpt lat="44.89311" lon="5.87136">
        <ele>683.3</ele>
        <time>2024-08-27T08:46:43Z</time>
      </trkpt>
      <trkpt lat="44.8931" lon="5.87141">
        <ele>683.4</ele>
        <time>2024-08-27T08:46:44Z</time>
      </trkpt>
      <trkpt lat="44.89308" lon="5.87146">
        <ele>683.6</ele>
        <time>2024-08-27T08:46:45Z</time>
      </trkpt>
      <trkpt lat="44.89307" lon="5.8715">
        <ele>683.7</ele>
        <time>2024-08-27T08:46:46Z</time>
      </trkpt>
      <trkpt lat="44.89305" lon="5.87155">
        <ele>683.9</ele>
        <time>2024-08-27T08:46:47Z</time>
      </trkpt>
      <trkpt lat="44.89304" lon="5.8716">
        <ele>684</ele>
        <time>2024-08-27T08:46:48Z</time>
      </trkpt>
      <trkpt lat="44.89302" lon="5.87164">
        <ele>684.2</ele>
        <time>2024-08-27T08:46:49Z</time>
      </trkpt>
      <trkpt lat="44.89301" lon="5.87169">
        <ele>684.3</ele>
        <time>2024-08-27T08:46:50Z</time>
      </trkpt>
      <trkpt lat="44.893" lon="5.87174">
        <ele>684.5</ele>
        <time>2024-08-27T08:46:51Z</time>
      </trkpt>
      <trkpt lat="44.89298" lon="5.87178">
        <ele>684.6</ele>
        <time>2024-08-27T08:46:52Z</time>
      </trkpt>
      <trkpt lat="44.89297" lon="5.87183">
        <ele>684.8</ele>
        <time>2024-08-27T08:46:53Z</time>
      </trkpt>
      <trkpt lat="44.89296" lon="5.87188">
        <ele>684.9</ele>
        <time>2024-08-27T08:46:54Z</time>
      </trkpt>
      <trkpt lat="44.89294" lon="5.87192">
        <ele>685.1</ele>
        <time>2024-08-27T08:46:55Z</time>
      </trkpt>
      <trkpt lat="44.89293" lon="5.87197">
        <ele>685.2</ele>
        <time>2024-08-27T08:46:56Z</time>
      </trkpt>
      <trkpt lat="44.89291" lon="5.87202">
        <ele>685.3</ele>
        <time>2024-08-27T08:46:57Z</time>
      </trkpt>
      <trkpt lat="44.8929" lon="5.87206">
        <ele>685.5</ele>
        <time>2024-08-27T08:46:58Z</time>
      </trkpt>
      <trkpt lat="44.89289" lon="5.87211">
        <ele>685.6</ele>
        <time>2024-08-27T08:46:59Z</time>
      </trkpt>
      <trkpt lat="44.89287" lon="5.87216">
        <ele>685.7</ele>
        <time>2024-08-27T08:47:00Z</time>
      </trkpt>
      <trkpt lat="44.89286" lon="5.87221">
        <ele>685.9</ele>
        <time>2024-08-27T08:47:01Z</time>
      </trkpt>
      <trkpt lat="44.89284" lon="5.87226">
        <ele>686</ele>
        <time>2024-08-27T08:47:02Z</time>
      </trkpt>
      <trkpt lat="44.89283" lon="5.87231">
        <ele>686.1</ele>
        <time>2024-08-27T08:47:03Z</time>
      </trkpt>
      <trkpt lat="44.89281" lon="5.87236">
        <ele>686.3</ele>
        <time>2024-08-27T08:47:04Z</time>
      </trkpt>
      <trkpt lat="44.8928" lon="5.87241">
        <ele>686.4</ele>
        <time>2024-08-27T08:47:05Z</time>
      </trkpt>
      <trkpt lat="44.89279" lon="5.87246">
        <ele>686.5</ele>
        <time>2024-08-27T08:47:06Z</time>
      </trkpt>
      <trkpt lat="44.89277" lon="5.87251">
        <ele>686.6</ele>
        <time>2024-08-27T08:47:07Z</time>
      </trkpt>
      <trkpt lat="44.89276" lon="5.87256">
        <ele>686.7</ele>
        <time>2024-08-27T08:47:08Z</time>
      </trkpt>
      <trkpt lat="44.89274" lon="5.87261">
        <ele>686.8</ele>
        <time>2024-08-27T08:47:09Z</time>
      </trkpt>
      <trkpt lat="44.89273" lon="5.87266">
        <ele>686.9</ele>
        <time>2024-08-27T08:47:10Z</time>
      </trkpt>
      <trkpt lat="44.89272" lon="5.87271">
        <ele>687</ele>
        <time>2024-08-27T08:47:11Z</time>
      </trkpt>
      <trkpt lat="44.8927" lon="5.87276">
        <ele>687.1</ele>
        <time>2024-08-27T08:47:12Z</time>
      </trkpt>
      <trkpt lat="44.89269" lon="5.87281">
        <ele>687.2</ele>
        <time>2024-08-27T08:47:13Z</time>
      </trkpt>
      <trkpt lat="44.89267" lon="5.87286">
        <ele>687.3</ele>
        <time>2024-08-27T08:47:14Z</time>
      </trkpt>
      <trkpt lat="44.89266" lon="5.87292">
        <ele>687.4</ele>
        <time>2024-08-27T08:47:15Z</time>
      </trkpt>
      <trkpt lat="44.89264" lon="5.87297">
        <ele>687.4</ele>
        <time>2024-08-27T08:47:16Z</time>
      </trkpt>
      <trkpt lat="44.89262" lon="5.87302">
        <ele>687.5</ele>
        <time>2024-08-27T08:47:17Z</time>
      </trkpt>
      <trkpt lat="44.89261" lon="5.87307">
        <ele>687.6</ele>
        <time>2024-08-27T08:47:18Z</time>
      </trkpt>
      <trkpt lat="44.89259" lon="5.87312">
        <ele>687.6</ele>
        <time>2024-08-27T08:47:19Z</time>
      </trkpt>
      <trkpt lat="44.89257" lon="5.87317">
        <ele>687.7</ele>
        <time>2024-08-27T08:47:20Z</time>
      </trkpt>
      <trkpt lat="44.89256" lon="5.87323">
        <ele>687.7</ele>
        <time>2024-08-27T08:47:21Z</time>
      </trkpt>
      <trkpt lat="44.89253" lon="5.87328">
        <ele>687.8</ele>
        <time>2024-08-27T08:47:22Z</time>
      </trkpt>
      <trkpt lat="44.89252" lon="5.87333">
        <ele>687.9</ele>
        <time>2024-08-27T08:47:23Z</time>
      </trkpt>
      <trkpt lat="44.89249" lon="5.87338">
        <ele>687.9</ele>
        <time>2024-08-27T08:47:24Z</time>
      </trkpt>
      <trkpt lat="44.89247" lon="5.87343">
        <ele>688</ele>
        <time>2024-08-27T08:47:25Z</time>
      </trkpt>
      <trkpt lat="44.89244" lon="5.87348">
        <ele>688.1</ele>
        <time>2024-08-27T08:47:26Z</time>
      </trkpt>
      <trkpt lat="44.89242" lon="5.87353">
        <ele>688.1</ele>
        <time>2024-08-27T08:47:27Z</time>
      </trkpt>
      <trkpt lat="44.89239" lon="5.87357">
        <ele>688.2</ele>
        <time>2024-08-27T08:47:28Z</time>
      </trkpt>
      <trkpt lat="44.89236" lon="5.87362">
        <ele>688.2</ele>
        <time>2024-08-27T08:47:29Z</time>
      </trkpt>
      <trkpt lat="44.89233" lon="5.87366">
        <ele>688.3</ele>
        <time>2024-08-27T08:47:30Z</time>
      </trkpt>
      <trkpt lat="44.8923" lon="5.8737">
        <ele>688.4</ele>
        <time>2024-08-27T08:47:31Z</time>
      </trkpt>
      <trkpt lat="44.89227" lon="5.87375">
        <ele>688.4</ele>
        <time>2024-08-27T08:47:32Z</time>
      </trkpt>
      <trkpt lat="44.89224" lon="5.87379">
        <ele>688.4</ele>
        <time>2024-08-27T08:47:33Z</time>
      </trkpt>
      <trkpt lat="44.89221" lon="5.87384">
        <ele>688.5</ele>
        <time>2024-08-27T08:47:34Z</time>
      </trkpt>
      <trkpt lat="44.89217" lon="5.87387">
        <ele>688.5</ele>
        <time>2024-08-27T08:47:35Z</time>
      </trkpt>
      <trkpt lat="44.89213" lon="5.87391">
        <ele>688.6</ele>
        <time>2024-08-27T08:47:36Z</time>
      </trkpt>
      <trkpt lat="44.8921" lon="5.87395">
        <ele>688.6</ele>
        <time>2024-08-27T08:47:37Z</time>
      </trkpt>
      <trkpt lat="44.89206" lon="5.874">
        <ele>688.7</ele>
        <time>2024-08-27T08:47:38Z</time>
      </trkpt>
      <trkpt lat="44.89202" lon="5.87404">
        <ele>688.7</ele>
        <time>2024-08-27T08:47:39Z</time>
      </trkpt>
      <trkpt lat="44.89199" lon="5.87408">
        <ele>688.7</ele>
        <time>2024-08-27T08:47:40Z</time>
      </trkpt>
      <trkpt lat="44.89195" lon="5.87412">
        <ele>688.8</ele>
        <time>2024-08-27T08:47:41Z</time>
      </trkpt>
      <trkpt lat="44.89191" lon="5.87417">
        <ele>688.9</ele>
        <time>2024-08-27T08:47:42Z</time>
      </trkpt>
      <trkpt lat="44.89188" lon="5.87421">
        <ele>688.9</ele>
        <time>2024-08-27T08:47:43Z</time>
      </trkpt>
      <trkpt lat="44.89184" lon="5.87425">
        <ele>689</ele>
        <time>2024-08-27T08:47:44Z</time>
      </trkpt>
      <trkpt lat="44.8918" lon="5.87429">
        <ele>689.1</ele>
        <time>2024-08-27T08:47:45Z</time>
      </trkpt>
      <trkpt lat="44.89177" lon="5.87432">
        <ele>689.1</ele>
        <time>2024-08-27T08:47:46Z</time>
      </trkpt>
      <trkpt lat="44.89173" lon="5.87437">
        <ele>689.2</ele>
        <time>2024-08-27T08:47:47Z</time>
      </trkpt>
      <trkpt lat="44.89169" lon="5.87441">
        <ele>689.2</ele>
        <time>2024-08-27T08:47:48Z</time>
      </trkpt>
      <trkpt lat="44.89166" lon="5.87445">
        <ele>689.3</ele>
        <time>2024-08-27T08:47:49Z</time>
      </trkpt>
      <trkpt lat="44.89162" lon="5.87449">
        <ele>689.4</ele>
        <time>2024-08-27T08:47:50Z</time>
      </trkpt>
      <trkpt lat="44.89159" lon="5.87454">
        <ele>689.4</ele>
        <time>2024-08-27T08:47:51Z</time>
      </trkpt>
      <trkpt lat="44.89156" lon="5.87459">
        <ele>689.5</ele>
        <time>2024-08-27T08:47:52Z</time>
      </trkpt>
      <trkpt lat="44.89153" lon="5.87464">
        <ele>689.5</ele>
        <time>2024-08-27T08:47:53Z</time>
      </trkpt>
      <trkpt lat="44.89151" lon="5.8747">
        <ele>689.6</ele>
        <time>2024-08-27T08:47:54Z</time>
      </trkpt>
      <trkpt lat="44.89148" lon="5.87476">
        <ele>689.6</ele>
        <time>2024-08-27T08:47:55Z</time>
      </trkpt>
      <trkpt lat="44.89146" lon="5.87482">
        <ele>689.7</ele>
        <time>2024-08-27T08:47:56Z</time>
      </trkpt>
      <trkpt lat="44.89144" lon="5.87488">
        <ele>689.8</ele>
        <time>2024-08-27T08:47:57Z</time>
      </trkpt>
      <trkpt lat="44.89143" lon="5.87494">
        <ele>689.8</ele>
        <time>2024-08-27T08:47:58Z</time>
      </trkpt>
      <trkpt lat="44.89142" lon="5.87501">
        <ele>689.9</ele>
        <time>2024-08-27T08:47:59Z</time>
      </trkpt>
      <trkpt lat="44.89141" lon="5.87508">
        <ele>689.9</ele>
        <time>2024-08-27T08:48:00Z</time>
      </trkpt>
      <trkpt lat="44.8914" lon="5.87515">
        <ele>690</ele>
        <time>2024-08-27T08:48:01Z</time>
      </trkpt>
      <trkpt lat="44.89141" lon="5.87522">
        <ele>690.1</ele>
        <time>2024-08-27T08:48:02Z</time>
      </trkpt>
      <trkpt lat="44.89141" lon="5.87529">
        <ele>690.1</ele>
        <time>2024-08-27T08:48:03Z</time>
      </trkpt>
      <trkpt lat="44.89141" lon="5.87536">
        <ele>690.2</ele>
        <time>2024-08-27T08:48:04Z</time>
      </trkpt>
      <trkpt lat="44.89142" lon="5.87543">
        <ele>690.2</ele>
        <time>2024-08-27T08:48:05Z</time>
      </trkpt>
      <trkpt lat="44.89142" lon="5.87549">
        <ele>690.3</ele>
        <time>2024-08-27T08:48:06Z</time>
      </trkpt>
      <trkpt lat="44.89142" lon="5.87556">
        <ele>690.4</ele>
        <time>2024-08-27T08:48:07Z</time>
      </trkpt>
      <trkpt lat="44.89142" lon="5.87563">
        <ele>690.5</ele>
        <time>2024-08-27T08:48:08Z</time>
      </trkpt>
      <trkpt lat="44.89142" lon="5.8757">
        <ele>690.5</ele>
        <time>2024-08-27T08:48:09Z</time>
      </trkpt>
      <trkpt lat="44.89143" lon="5.87576">
        <ele>690.6</ele>
        <time>2024-08-27T08:48:10Z</time>
      </trkpt>
      <trkpt lat="44.89143" lon="5.87583">
        <ele>690.7</ele>
        <time>2024-08-27T08:48:11Z</time>
      </trkpt>
      <trkpt lat="44.89144" lon="5.8759">
        <ele>690.8</ele>
        <time>2024-08-27T08:48:12Z</time>
      </trkpt>
      <trkpt lat="44.89145" lon="5.87596">
        <ele>690.9</ele>
        <time>2024-08-27T08:48:13Z</time>
      </trkpt>
      <trkpt lat="44.89145" lon="5.87603">
        <ele>691</ele>
        <time>2024-08-27T08:48:14Z</time>
      </trkpt>
      <trkpt lat="44.89146" lon="5.8761">
        <ele>691.1</ele>
        <time>2024-08-27T08:48:15Z</time>
      </trkpt>
      <trkpt lat="44.89146" lon="5.87617">
        <ele>691.2</ele>
        <time>2024-08-27T08:48:16Z</time>
      </trkpt>
      <trkpt lat="44.89147" lon="5.87624">
        <ele>691.4</ele>
        <time>2024-08-27T08:48:17Z</time>
      </trkpt>
      <trkpt lat="44.89147" lon="5.87631">
        <ele>691.5</ele>
        <time>2024-08-27T08:48:18Z</time>
      </trkpt>
      <trkpt lat="44.89148" lon="5.87638">
        <ele>691.6</ele>
        <time>2024-08-27T08:48:19Z</time>
      </trkpt>
      <trkpt lat="44.89148" lon="5.87644">
        <ele>691.8</ele>
        <time>2024-08-27T08:48:20Z</time>
      </trkpt>
      <trkpt lat="44.89149" lon="5.8765">
        <ele>691.9</ele>
        <time>2024-08-27T08:48:21Z</time>
      </trkpt>
      <trkpt lat="44.89149" lon="5.87657">
        <ele>692.1</ele>
        <time>2024-08-27T08:48:22Z</time>
      </trkpt>
      <trkpt lat="44.8915" lon="5.87663">
        <ele>692.2</ele>
        <time>2024-08-27T08:48:23Z</time>
      </trkpt>
      <trkpt lat="44.8915" lon="5.87669">
        <ele>692.4</ele>
        <time>2024-08-27T08:48:24Z</time>
      </trkpt>
      <trkpt lat="44.89151" lon="5.87675">
        <ele>692.5</ele>
        <time>2024-08-27T08:48:25Z</time>
      </trkpt>
      <trkpt lat="44.89151" lon="5.87682">
        <ele>692.6</ele>
        <time>2024-08-27T08:48:26Z</time>
      </trkpt>
      <trkpt lat="44.89152" lon="5.87688">
        <ele>692.8</ele>
        <time>2024-08-27T08:48:27Z</time>
      </trkpt>
      <trkpt lat="44.89153" lon="5.87694">
        <ele>692.9</ele>
        <time>2024-08-27T08:48:28Z</time>
      </trkpt>
      <trkpt lat="44.89153" lon="5.877">
        <ele>693.1</ele>
        <time>2024-08-27T08:48:29Z</time>
      </trkpt>
      <trkpt lat="44.89154" lon="5.87706">
        <ele>693.2</ele>
        <time>2024-08-27T08:48:30Z</time>
      </trkpt>
      <trkpt lat="44.89155" lon="5.87712">
        <ele>693.3</ele>
        <time>2024-08-27T08:48:31Z</time>
      </trkpt>
      <trkpt lat="44.89156" lon="5.87719">
        <ele>693.5</ele>
        <time>2024-08-27T08:48:32Z</time>
      </trkpt>
      <trkpt lat="44.89157" lon="5.87725">
        <ele>693.6</ele>
        <time>2024-08-27T08:48:33Z</time>
      </trkpt>
      <trkpt lat="44.89159" lon="5.8773">
        <ele>693.8</ele>
        <time>2024-08-27T08:48:34Z</time>
      </trkpt>
      <trkpt lat="44.8916" lon="5.87736">
        <ele>694</ele>
        <time>2024-08-27T08:48:35Z</time>
      </trkpt>
      <trkpt lat="44.89162" lon="5.87742">
        <ele>694.1</ele>
        <time>2024-08-27T08:48:36Z</time>
      </trkpt>
      <trkpt lat="44.89163" lon="5.87747">
        <ele>694.2</ele>
        <time>2024-08-27T08:48:37Z</time>
      </trkpt>
      <trkpt lat="44.89165" lon="5.87753">
        <ele>694.4</ele>
        <time>2024-08-27T08:48:38Z</time>
      </trkpt>
      <trkpt lat="44.89166" lon="5.87758">
        <ele>694.5</ele>
        <time>2024-08-27T08:48:39Z</time>
      </trkpt>
      <trkpt lat="44.89168" lon="5.87764">
        <ele>694.6</ele>
        <time>2024-08-27T08:48:40Z</time>
      </trkpt>
      <trkpt lat="44.8917" lon="5.8777">
        <ele>694.7</ele>
        <time>2024-08-27T08:48:41Z</time>
      </trkpt>
      <trkpt lat="44.89171" lon="5.87776">
        <ele>694.9</ele>
        <time>2024-08-27T08:48:42Z</time>
      </trkpt>
      <trkpt lat="44.89173" lon="5.87782">
        <ele>695</ele>
        <time>2024-08-27T08:48:43Z</time>
      </trkpt>
      <trkpt lat="44.89174" lon="5.87788">
        <ele>695.1</ele>
        <time>2024-08-27T08:48:44Z</time>
      </trkpt>
      <trkpt lat="44.89175" lon="5.87795">
        <ele>695.2</ele>
        <time>2024-08-27T08:48:45Z</time>
      </trkpt>
      <trkpt lat="44.89176" lon="5.87801">
        <ele>695.3</ele>
        <time>2024-08-27T08:48:46Z</time>
      </trkpt>
      <trkpt lat="44.89177" lon="5.87807">
        <ele>695.4</ele>
        <time>2024-08-27T08:48:47Z</time>
      </trkpt>
      <trkpt lat="44.89178" lon="5.87813">
        <ele>695.5</ele>
        <time>2024-08-27T08:48:48Z</time>
      </trkpt>
      <trkpt lat="44.89179" lon="5.8782">
        <ele>695.6</ele>
        <time>2024-08-27T08:48:49Z</time>
      </trkpt>
      <trkpt lat="44.8918" lon="5.87826">
        <ele>695.7</ele>
        <time>2024-08-27T08:48:50Z</time>
      </trkpt>
      <trkpt lat="44.89181" lon="5.87833">
        <ele>695.8</ele>
        <time>2024-08-27T08:48:51Z</time>
      </trkpt>
      <trkpt lat="44.89182" lon="5.87839">
        <ele>695.8</ele>
        <time>2024-08-27T08:48:52Z</time>
      </trkpt>
      <trkpt lat="44.89182" lon="5.87846">
        <ele>695.9</ele>
        <time>2024-08-27T08:48:53Z</time>
      </trkpt>
      <trkpt lat="44.89183" lon="5.87853">
        <ele>695.9</ele>
        <time>2024-08-27T08:48:54Z</time>
      </trkpt>
      <trkpt lat="44.89183" lon="5.8786">
        <ele>696</ele>
        <time>2024-08-27T08:48:55Z</time>
      </trkpt>
      <trkpt lat="44.89183" lon="5.87867">
        <ele>696</ele>
        <time>2024-08-27T08:48:56Z</time>
      </trkpt>
      <trkpt lat="44.89184" lon="5.87874">
        <ele>696.1</ele>
        <time>2024-08-27T08:48:57Z</time>
      </trkpt>
      <trkpt lat="44.89184" lon="5.8788">
        <ele>696.1</ele>
        <time>2024-08-27T08:48:58Z</time>
      </trkpt>
      <trkpt lat="44.89184" lon="5.87888">
        <ele>696.1</ele>
        <time>2024-08-27T08:48:59Z</time>
      </trkpt>
      <trkpt lat="44.89185" lon="5.87895">
        <ele>696.2</ele>
        <time>2024-08-27T08:49:00Z</time>
      </trkpt>
      <trkpt lat="44.89185" lon="5.87902">
        <ele>696.2</ele>
        <time>2024-08-27T08:49:01Z</time>
      </trkpt>
      <trkpt lat="44.89185" lon="5.87909">
        <ele>696.2</ele>
        <time>2024-08-27T08:49:02Z</time>
      </trkpt>
      <trkpt lat="44.89186" lon="5.87917">
        <ele>696.2</ele>
        <time>2024-08-27T08:49:03Z</time>
      </trkpt>
      <trkpt lat="44.89187" lon="5.87924">
        <ele>696.2</ele>
        <time>2024-08-27T08:49:04Z</time>
      </trkpt>
      <trkpt lat="44.89187" lon="5.87931">
        <ele>696.2</ele>
        <time>2024-08-27T08:49:05Z</time>
      </trkpt>
      <trkpt lat="44.89187" lon="5.87939">
        <ele>696.2</ele>
        <time>2024-08-27T08:49:06Z</time>
      </trkpt>
      <trkpt lat="44.89187" lon="5.87946">
        <ele>696.3</ele>
        <time>2024-08-27T08:49:07Z</time>
      </trkpt>
      <trkpt lat="44.89187" lon="5.87954">
        <ele>696.3</ele>
        <time>2024-08-27T08:49:08Z</time>
      </trkpt>
      <trkpt lat="44.89187" lon="5.87961">
        <ele>696.4</ele>
        <time>2024-08-27T08:49:09Z</time>
      </trkpt>
      <trkpt lat="44.89187" lon="5.87968">
        <ele>696.4</ele>
        <time>2024-08-27T08:49:10Z</time>
      </trkpt>
      <trkpt lat="44.89187" lon="5.87975">
        <ele>696.5</ele>
        <time>2024-08-27T08:49:11Z</time>
      </trkpt>
      <trkpt lat="44.89188" lon="5.87982">
        <ele>696.6</ele>
        <time>2024-08-27T08:49:12Z</time>
      </trkpt>
      <trkpt lat="44.89188" lon="5.87989">
        <ele>696.7</ele>
        <time>2024-08-27T08:49:13Z</time>
      </trkpt>
      <trkpt lat="44.89188" lon="5.87996">
        <ele>696.9</ele>
        <time>2024-08-27T08:49:14Z</time>
      </trkpt>
      <trkpt lat="44.89187" lon="5.88003">
        <ele>697</ele>
        <time>2024-08-27T08:49:15Z</time>
      </trkpt>
      <trkpt lat="44.89187" lon="5.88009">
        <ele>697.2</ele>
        <time>2024-08-27T08:49:16Z</time>
      </trkpt>
      <trkpt lat="44.89187" lon="5.88015">
        <ele>697.4</ele>
        <time>2024-08-27T08:49:17Z</time>
      </trkpt>
      <trkpt lat="44.89187" lon="5.88021">
        <ele>697.6</ele>
        <time>2024-08-27T08:49:18Z</time>
      </trkpt>
      <trkpt lat="44.89187" lon="5.88028">
        <ele>697.8</ele>
        <time>2024-08-27T08:49:19Z</time>
      </trkpt>
      <trkpt lat="44.89186" lon="5.88034">
        <ele>698</ele>
        <time>2024-08-27T08:49:20Z</time>
      </trkpt>
      <trkpt lat="44.89186" lon="5.8804">
        <ele>698.2</ele>
        <time>2024-08-27T08:49:21Z</time>
      </trkpt>
      <trkpt lat="44.89186" lon="5.88046">
        <ele>698.4</ele>
        <time>2024-08-27T08:49:22Z</time>
      </trkpt>
      <trkpt lat="44.89186" lon="5.88051">
        <ele>698.6</ele>
        <time>2024-08-27T08:49:23Z</time>
      </trkpt>
      <trkpt lat="44.89186" lon="5.88056">
        <ele>698.8</ele>
        <time>2024-08-27T08:49:24Z</time>
      </trkpt>
      <trkpt lat="44.89185" lon="5.88062">
        <ele>699</ele>
        <time>2024-08-27T08:49:25Z</time>
      </trkpt>
      <trkpt lat="44.89185" lon="5.88067">
        <ele>699.2</ele>
        <time>2024-08-27T08:49:26Z</time>
      </trkpt>
      <trkpt lat="44.89184" lon="5.88072">
        <ele>699.4</ele>
        <time>2024-08-27T08:49:27Z</time>
      </trkpt>
      <trkpt lat="44.89184" lon="5.88077">
        <ele>699.7</ele>
        <time>2024-08-27T08:49:28Z</time>
      </trkpt>
      <trkpt lat="44.89184" lon="5.88082">
        <ele>699.9</ele>
        <time>2024-08-27T08:49:29Z</time>
      </trkpt>
      <trkpt lat="44.89183" lon="5.88087">
        <ele>700.1</ele>
        <time>2024-08-27T08:49:30Z</time>
      </trkpt>
      <trkpt lat="44.89182" lon="5.88091">
        <ele>700.3</ele>
        <time>2024-08-27T08:49:31Z</time>
      </trkpt>
      <trkpt lat="44.89181" lon="5.88096">
        <ele>700.5</ele>
        <time>2024-08-27T08:49:32Z</time>
      </trkpt>
      <trkpt lat="44.89181" lon="5.88101">
        <ele>700.8</ele>
        <time>2024-08-27T08:49:33Z</time>
      </trkpt>
      <trkpt lat="44.8918" lon="5.88106">
        <ele>701</ele>
        <time>2024-08-27T08:49:34Z</time>
      </trkpt>
      <trkpt lat="44.8918" lon="5.8811">
        <ele>701.2</ele>
        <time>2024-08-27T08:49:35Z</time>
      </trkpt>
      <trkpt lat="44.89179" lon="5.88115">
        <ele>701.4</ele>
        <time>2024-08-27T08:49:36Z</time>
      </trkpt>
      <trkpt lat="44.89179" lon="5.8812">
        <ele>701.6</ele>
        <time>2024-08-27T08:49:37Z</time>
      </trkpt>
      <trkpt lat="44.89178" lon="5.88125">
        <ele>701.9</ele>
        <time>2024-08-27T08:49:38Z</time>
      </trkpt>
      <trkpt lat="44.89178" lon="5.8813">
        <ele>702.1</ele>
        <time>2024-08-27T08:49:39Z</time>
      </trkpt>
      <trkpt lat="44.89177" lon="5.88134">
        <ele>702.3</ele>
        <time>2024-08-27T08:49:40Z</time>
      </trkpt>
      <trkpt lat="44.89177" lon="5.88139">
        <ele>702.5</ele>
        <time>2024-08-27T08:49:41Z</time>
      </trkpt>
      <trkpt lat="44.89177" lon="5.88143">
        <ele>702.7</ele>
        <time>2024-08-27T08:49:42Z</time>
      </trkpt>
      <trkpt lat="44.89176" lon="5.88148">
        <ele>703</ele>
        <time>2024-08-27T08:49:43Z</time>
      </trkpt>
      <trkpt lat="44.89176" lon="5.88153">
        <ele>703.2</ele>
        <time>2024-08-27T08:49:44Z</time>
      </trkpt>
      <trkpt lat="44.89176" lon="5.88157">
        <ele>703.5</ele>
        <time>2024-08-27T08:49:45Z</time>
      </trkpt>
      <trkpt lat="44.89176" lon="5.88162">
        <ele>703.7</ele>
        <time>2024-08-27T08:49:46Z</time>
      </trkpt>
      <trkpt lat="44.89175" lon="5.88167">
        <ele>704</ele>
        <time>2024-08-27T08:49:47Z</time>
      </trkpt>
      <trkpt lat="44.89175" lon="5.88172">
        <ele>704.3</ele>
        <time>2024-08-27T08:49:48Z</time>
      </trkpt>
      <trkpt lat="44.89175" lon="5.88176">
        <ele>704.6</ele>
        <time>2024-08-27T08:49:49Z</time>
      </trkpt>
      <trkpt lat="44.89175" lon="5.88181">
        <ele>704.8</ele>
        <time>2024-08-27T08:49:50Z</time>
      </trkpt>
      <trkpt lat="44.89176" lon="5.88186">
        <ele>705.1</ele>
        <time>2024-08-27T08:49:51Z</time>
      </trkpt>
      <trkpt lat="44.89176" lon="5.8819">
        <ele>705.4</ele>
        <time>2024-08-27T08:49:52Z</time>
      </trkpt>
      <trkpt lat="44.89177" lon="5.88195">
        <ele>705.7</ele>
        <time>2024-08-27T08:49:53Z</time>
      </trkpt>
      <trkpt lat="44.89177" lon="5.882">
        <ele>705.9</ele>
        <time>2024-08-27T08:49:54Z</time>
      </trkpt>
      <trkpt lat="44.89178" lon="5.88204">
        <ele>706.2</ele>
        <time>2024-08-27T08:49:55Z</time>
      </trkpt>
      <trkpt lat="44.89179" lon="5.88209">
        <ele>706.5</ele>
        <time>2024-08-27T08:49:56Z</time>
      </trkpt>
      <trkpt lat="44.8918" lon="5.88213">
        <ele>706.8</ele>
        <time>2024-08-27T08:49:57Z</time>
      </trkpt>
      <trkpt lat="44.89181" lon="5.88218">
        <ele>707.1</ele>
        <time>2024-08-27T08:49:58Z</time>
      </trkpt>
      <trkpt lat="44.89182" lon="5.88222">
        <ele>707.3</ele>
        <time>2024-08-27T08:49:59Z</time>
      </trkpt>
      <trkpt lat="44.89183" lon="5.88226">
        <ele>707.6</ele>
        <time>2024-08-27T08:50:00Z</time>
      </trkpt>
      <trkpt lat="44.89184" lon="5.8823">
        <ele>707.9</ele>
        <time>2024-08-27T08:50:01Z</time>
      </trkpt>
      <trkpt lat="44.89185" lon="5.88234">
        <ele>708.1</ele>
        <time>2024-08-27T08:50:02Z</time>
      </trkpt>
      <trkpt lat="44.89187" lon="5.88238">
        <ele>708.4</ele>
        <time>2024-08-27T08:50:03Z</time>
      </trkpt>
      <trkpt lat="44.89188" lon="5.88242">
        <ele>708.7</ele>
        <time>2024-08-27T08:50:04Z</time>
      </trkpt>
      <trkpt lat="44.8919" lon="5.88246">
        <ele>708.9</ele>
        <time>2024-08-27T08:50:05Z</time>
      </trkpt>
      <trkpt lat="44.89192" lon="5.8825">
        <ele>709.2</ele>
        <time>2024-08-27T08:50:06Z</time>
      </trkpt>
      <trkpt lat="44.89194" lon="5.88254">
        <ele>709.5</ele>
        <time>2024-08-27T08:50:07Z</time>
      </trkpt>
      <trkpt lat="44.89196" lon="5.88257">
        <ele>709.7</ele>
        <time>2024-08-27T08:50:08Z</time>
      </trkpt>
      <trkpt lat="44.89198" lon="5.88261">
        <ele>710</ele>
        <time>2024-08-27T08:50:09Z</time>
      </trkpt>
      <trkpt lat="44.89201" lon="5.88264">
        <ele>710.2</ele>
        <time>2024-08-27T08:50:10Z</time>
      </trkpt>
      <trkpt lat="44.89203" lon="5.88267">
        <ele>710.4</ele>
        <time>2024-08-27T08:50:11Z</time>
      </trkpt>
      <trkpt lat="44.89205" lon="5.8827">
        <ele>710.7</ele>
        <time>2024-08-27T08:50:12Z</time>
      </trkpt>
      <trkpt lat="44.89208" lon="5.88273">
        <ele>710.9</ele>
        <time>2024-08-27T08:50:13Z</time>
      </trkpt>
      <trkpt lat="44.8921" lon="5.88276">
        <ele>711.1</ele>
        <time>2024-08-27T08:50:14Z</time>
      </trkpt>
      <trkpt lat="44.89212" lon="5.88278">
        <ele>711.4</ele>
        <time>2024-08-27T08:50:15Z</time>
      </trkpt>
      <trkpt lat="44.89215" lon="5.88281">
        <ele>711.6</ele>
        <time>2024-08-27T08:50:16Z</time>
      </trkpt>
      <trkpt lat="44.89217" lon="5.88283">
        <ele>711.8</ele>
        <time>2024-08-27T08:50:17Z</time>
      </trkpt>
      <trkpt lat="44.89219" lon="5.88286">
        <ele>712</ele>
        <time>2024-08-27T08:50:18Z</time>
      </trkpt>
      <trkpt lat="44.89221" lon="5.88289">
        <ele>712.2</ele>
        <time>2024-08-27T08:50:19Z</time>
      </trkpt>
      <trkpt lat="44.89223" lon="5.88292">
        <ele>712.4</ele>
        <time>2024-08-27T08:50:20Z</time>
      </trkpt>
      <trkpt lat="44.89226" lon="5.88294">
        <ele>712.6</ele>
        <time>2024-08-27T08:50:21Z</time>
      </trkpt>
      <trkpt lat="44.89228" lon="5.88297">
        <ele>712.8</ele>
        <time>2024-08-27T08:50:22Z</time>
      </trkpt>
      <trkpt lat="44.8923" lon="5.883">
        <ele>713</ele>
        <time>2024-08-27T08:50:23Z</time>
      </trkpt>
      <trkpt lat="44.89232" lon="5.88302">
        <ele>713.2</ele>
        <time>2024-08-27T08:50:24Z</time>
      </trkpt>
      <trkpt lat="44.89234" lon="5.88305">
        <ele>713.4</ele>
        <time>2024-08-27T08:50:25Z</time>
      </trkpt>
      <trkpt lat="44.89236" lon="5.88308">
        <ele>713.6</ele>
        <time>2024-08-27T08:50:26Z</time>
      </trkpt>
      <trkpt lat="44.89238" lon="5.88311">
        <ele>713.8</ele>
        <time>2024-08-27T08:50:27Z</time>
      </trkpt>
      <trkpt lat="44.8924" lon="5.88314">
        <ele>713.9</ele>
        <time>2024-08-27T08:50:28Z</time>
      </trkpt>
      <trkpt lat="44.89242" lon="5.88317">
        <ele>714.1</ele>
        <time>2024-08-27T08:50:29Z</time>
      </trkpt>
      <trkpt lat="44.89245" lon="5.88321">
        <ele>714.3</ele>
        <time>2024-08-27T08:50:30Z</time>
      </trkpt>
      <trkpt lat="44.89247" lon="5.88324">
        <ele>714.5</ele>
        <time>2024-08-27T08:50:31Z</time>
      </trkpt>
      <trkpt lat="44.89249" lon="5.88328">
        <ele>714.6</ele>
        <time>2024-08-27T08:50:32Z</time>
      </trkpt>
      <trkpt lat="44.89251" lon="5.88331">
        <ele>714.8</ele>
        <time>2024-08-27T08:50:33Z</time>
      </trkpt>
      <trkpt lat="44.89253" lon="5.88335">
        <ele>714.9</ele>
        <time>2024-08-27T08:50:34Z</time>
      </trkpt>
      <trkpt lat="44.89255" lon="5.88339">
        <ele>715.1</ele>
        <time>2024-08-27T08:50:35Z</time>
      </trkpt>
      <trkpt lat="44.89257" lon="5.88343">
        <ele>715.3</ele>
        <time>2024-08-27T08:50:36Z</time>
      </trkpt>
      <trkpt lat="44.89259" lon="5.88347">
        <ele>715.4</ele>
        <time>2024-08-27T08:50:37Z</time>
      </trkpt>
      <trkpt lat="44.89261" lon="5.88351">
        <ele>715.6</ele>
        <time>2024-08-27T08:50:38Z</time>
      </trkpt>
      <trkpt lat="44.89263" lon="5.88355">
        <ele>715.8</ele>
        <time>2024-08-27T08:50:39Z</time>
      </trkpt>
      <trkpt lat="44.89265" lon="5.8836">
        <ele>715.9</ele>
        <time>2024-08-27T08:50:40Z</time>
      </trkpt>
      <trkpt lat="44.89266" lon="5.88364">
        <ele>716.1</ele>
        <time>2024-08-27T08:50:41Z</time>
      </trkpt>
      <trkpt lat="44.89268" lon="5.88369">
        <ele>716.2</ele>
        <time>2024-08-27T08:50:42Z</time>
      </trkpt>
      <trkpt lat="44.8927" lon="5.88373">
        <ele>716.4</ele>
        <time>2024-08-27T08:50:43Z</time>
      </trkpt>
      <trkpt lat="44.89271" lon="5.88378">
        <ele>716.6</ele>
        <time>2024-08-27T08:50:44Z</time>
      </trkpt>
      <trkpt lat="44.89272" lon="5.88382">
        <ele>716.7</ele>
        <time>2024-08-27T08:50:45Z</time>
      </trkpt>
      <trkpt lat="44.89273" lon="5.88387">
        <ele>716.9</ele>
        <time>2024-08-27T08:50:46Z</time>
      </trkpt>
      <trkpt lat="44.89275" lon="5.88391">
        <ele>717</ele>
        <time>2024-08-27T08:50:47Z</time>
      </trkpt>
      <trkpt lat="44.89276" lon="5.88396">
        <ele>717.2</ele>
        <time>2024-08-27T08:50:48Z</time>
      </trkpt>
      <trkpt lat="44.89277" lon="5.88401">
        <ele>717.4</ele>
        <time>2024-08-27T08:50:49Z</time>
      </trkpt>
      <trkpt lat="44.89278" lon="5.88405">
        <ele>717.6</ele>
        <time>2024-08-27T08:50:50Z</time>
      </trkpt>
      <trkpt lat="44.89279" lon="5.88409">
        <ele>717.7</ele>
        <time>2024-08-27T08:50:51Z</time>
      </trkpt>
      <trkpt lat="44.8928" lon="5.88414">
        <ele>717.9</ele>
        <time>2024-08-27T08:50:52Z</time>
      </trkpt>
      <trkpt lat="44.8928" lon="5.88418">
        <ele>718.1</ele>
        <time>2024-08-27T08:50:53Z</time>
      </trkpt>
      <trkpt lat="44.89281" lon="5.88422">
        <ele>718.3</ele>
        <time>2024-08-27T08:50:54Z</time>
      </trkpt>
      <trkpt lat="44.89282" lon="5.88427">
        <ele>718.5</ele>
        <time>2024-08-27T08:50:55Z</time>
      </trkpt>
      <trkpt lat="44.89283" lon="5.88431">
        <ele>718.7</ele>
        <time>2024-08-27T08:50:56Z</time>
      </trkpt>
      <trkpt lat="44.89284" lon="5.88435">
        <ele>718.9</ele>
        <time>2024-08-27T08:50:57Z</time>
      </trkpt>
      <trkpt lat="44.89284" lon="5.88439">
        <ele>719.1</ele>
        <time>2024-08-27T08:50:58Z</time>
      </trkpt>
      <trkpt lat="44.89285" lon="5.88443">
        <ele>719.3</ele>
        <time>2024-08-27T08:50:59Z</time>
      </trkpt>
      <trkpt lat="44.89286" lon="5.88448">
        <ele>719.6</ele>
        <time>2024-08-27T08:51:00Z</time>
      </trkpt>
      <trkpt lat="44.89287" lon="5.88453">
        <ele>719.8</ele>
        <time>2024-08-27T08:51:01Z</time>
      </trkpt>
      <trkpt lat="44.89288" lon="5.88457">
        <ele>720</ele>
        <time>2024-08-27T08:51:02Z</time>
      </trkpt>
      <trkpt lat="44.89289" lon="5.88461">
        <ele>720.2</ele>
        <time>2024-08-27T08:51:03Z</time>
      </trkpt>
      <trkpt lat="44.8929" lon="5.88465">
        <ele>720.5</ele>
        <time>2024-08-27T08:51:04Z</time>
      </trkpt>
      <trkpt lat="44.89291" lon="5.88469">
        <ele>720.7</ele>
        <time>2024-08-27T08:51:05Z</time>
      </trkpt>
      <trkpt lat="44.89292" lon="5.88474">
        <ele>720.9</ele>
        <time>2024-08-27T08:51:06Z</time>
      </trkpt>
      <trkpt lat="44.89294" lon="5.88478">
        <ele>721.1</ele>
        <time>2024-08-27T08:51:07Z</time>
      </trkpt>
      <trkpt lat="44.89295" lon="5.88482">
        <ele>721.3</ele>
        <time>2024-08-27T08:51:08Z</time>
      </trkpt>
      <trkpt lat="44.89296" lon="5.88486">
        <ele>721.6</ele>
        <time>2024-08-27T08:51:09Z</time>
      </trkpt>
      <trkpt lat="44.89298" lon="5.8849">
        <ele>721.8</ele>
        <time>2024-08-27T08:51:10Z</time>
      </trkpt>
      <trkpt lat="44.89299" lon="5.88494">
        <ele>722</ele>
        <time>2024-08-27T08:51:11Z</time>
      </trkpt>
      <trkpt lat="44.893" lon="5.88498">
        <ele>722.2</ele>
        <time>2024-08-27T08:51:12Z</time>
      </trkpt>
      <trkpt lat="44.89301" lon="5.88502">
        <ele>722.4</ele>
        <time>2024-08-27T08:51:13Z</time>
      </trkpt>
      <trkpt lat="44.89303" lon="5.88506">
        <ele>722.6</ele>
        <time>2024-08-27T08:51:14Z</time>
      </trkpt>
      <trkpt lat="44.89304" lon="5.88511">
        <ele>722.8</ele>
        <time>2024-08-27T08:51:15Z</time>
      </trkpt>
      <trkpt lat="44.89306" lon="5.88515">
        <ele>723</ele>
        <time>2024-08-27T08:51:16Z</time>
      </trkpt>
      <trkpt lat="44.89307" lon="5.88519">
        <ele>723.3</ele>
        <time>2024-08-27T08:51:17Z</time>
      </trkpt>
      <trkpt lat="44.89309" lon="5.88524">
        <ele>723.5</ele>
        <time>2024-08-27T08:51:18Z</time>
      </trkpt>
      <trkpt lat="44.8931" lon="5.88528">
        <ele>723.7</ele>
        <time>2024-08-27T08:51:19Z</time>
      </trkpt>
      <trkpt lat="44.89312" lon="5.88532">
        <ele>723.9</ele>
        <time>2024-08-27T08:51:20Z</time>
      </trkpt>
      <trkpt lat="44.89313" lon="5.88535">
        <ele>724.1</ele>
        <time>2024-08-27T08:51:21Z</time>
      </trkpt>
      <trkpt lat="44.89315" lon="5.88539">
        <ele>724.3</ele>
        <time>2024-08-27T08:51:22Z</time>
      </trkpt>
      <trkpt lat="44.89316" lon="5.88543">
        <ele>724.5</ele>
        <time>2024-08-27T08:51:23Z</time>
      </trkpt>
      <trkpt lat="44.89318" lon="5.88546">
        <ele>724.7</ele>
        <time>2024-08-27T08:51:24Z</time>
      </trkpt>
      <trkpt lat="44.8932" lon="5.8855">
        <ele>724.9</ele>
        <time>2024-08-27T08:51:25Z</time>
      </trkpt>
      <trkpt lat="44.89321" lon="5.88554">
        <ele>725.1</ele>
        <time>2024-08-27T08:51:26Z</time>
      </trkpt>
      <trkpt lat="44.89322" lon="5.88557">
        <ele>725.3</ele>
        <time>2024-08-27T08:51:27Z</time>
      </trkpt>
      <trkpt lat="44.89324" lon="5.88561">
        <ele>725.6</ele>
        <time>2024-08-27T08:51:28Z</time>
      </trkpt>
      <trkpt lat="44.89325" lon="5.88565">
        <ele>725.8</ele>
        <time>2024-08-27T08:51:29Z</time>
      </trkpt>
      <trkpt lat="44.89327" lon="5.88569">
        <ele>726</ele>
        <time>2024-08-27T08:51:30Z</time>
      </trkpt>
      <trkpt lat="44.89328" lon="5.88573">
        <ele>726.2</ele>
        <time>2024-08-27T08:51:31Z</time>
      </trkpt>
      <trkpt lat="44.8933" lon="5.88578">
        <ele>726.5</ele>
        <time>2024-08-27T08:51:32Z</time>
      </trkpt>
      <trkpt lat="44.89332" lon="5.88582">
        <ele>726.7</ele>
        <time>2024-08-27T08:51:33Z</time>
      </trkpt>
      <trkpt lat="44.89333" lon="5.88586">
        <ele>726.9</ele>
        <time>2024-08-27T08:51:34Z</time>
      </trkpt>
      <trkpt lat="44.89335" lon="5.8859">
        <ele>727.1</ele>
        <time>2024-08-27T08:51:35Z</time>
      </trkpt>
      <trkpt lat="44.89336" lon="5.88594">
        <ele>727.4</ele>
        <time>2024-08-27T08:51:36Z</time>
      </trkpt>
      <trkpt lat="44.89338" lon="5.88597">
        <ele>727.6</ele>
        <time>2024-08-27T08:51:37Z</time>
      </trkpt>
      <trkpt lat="44.89339" lon="5.88601">
        <ele>727.8</ele>
        <time>2024-08-27T08:51:38Z</time>
      </trkpt>
      <trkpt lat="44.8934" lon="5.88605">
        <ele>728</ele>
        <time>2024-08-27T08:51:39Z</time>
      </trkpt>
      <trkpt lat="44.89342" lon="5.88609">
        <ele>728.2</ele>
        <time>2024-08-27T08:51:40Z</time>
      </trkpt>
      <trkpt lat="44.89343" lon="5.88613">
        <ele>728.4</ele>
        <time>2024-08-27T08:51:41Z</time>
      </trkpt>
      <trkpt lat="44.89345" lon="5.88617">
        <ele>728.7</ele>
        <time>2024-08-27T08:51:42Z</time>
      </trkpt>
      <trkpt lat="44.89346" lon="5.8862">
        <ele>728.9</ele>
        <time>2024-08-27T08:51:43Z</time>
      </trkpt>
      <trkpt lat="44.89348" lon="5.88624">
        <ele>729.1</ele>
        <time>2024-08-27T08:51:44Z</time>
      </trkpt>
      <trkpt lat="44.8935" lon="5.88628">
        <ele>729.3</ele>
        <time>2024-08-27T08:51:45Z</time>
      </trkpt>
      <trkpt lat="44.89351" lon="5.88632">
        <ele>729.5</ele>
        <time>2024-08-27T08:51:46Z</time>
      </trkpt>
      <trkpt lat="44.89353" lon="5.88636">
        <ele>729.8</ele>
        <time>2024-08-27T08:51:47Z</time>
      </trkpt>
      <trkpt lat="44.89354" lon="5.8864">
        <ele>730</ele>
        <time>2024-08-27T08:51:48Z</time>
      </trkpt>
      <trkpt lat="44.89356" lon="5.88644">
        <ele>730.2</ele>
        <time>2024-08-27T08:51:49Z</time>
      </trkpt>
      <trkpt lat="44.89357" lon="5.88648">
        <ele>730.4</ele>
        <time>2024-08-27T08:51:50Z</time>
      </trkpt>
      <trkpt lat="44.89359" lon="5.88651">
        <ele>730.6</ele>
        <time>2024-08-27T08:51:51Z</time>
      </trkpt>
      <trkpt lat="44.8936" lon="5.88655">
        <ele>730.9</ele>
        <time>2024-08-27T08:51:52Z</time>
      </trkpt>
      <trkpt lat="44.89362" lon="5.88659">
        <ele>731.1</ele>
        <time>2024-08-27T08:51:53Z</time>
      </trkpt>
      <trkpt lat="44.89363" lon="5.88663">
        <ele>731.3</ele>
        <time>2024-08-27T08:51:54Z</time>
      </trkpt>
      <trkpt lat="44.89365" lon="5.88667">
        <ele>731.5</ele>
        <time>2024-08-27T08:51:55Z</time>
      </trkpt>
      <trkpt lat="44.89367" lon="5.88671">
        <ele>731.8</ele>
        <time>2024-08-27T08:51:56Z</time>
      </trkpt>
      <trkpt lat="44.89368" lon="5.88675">
        <ele>732</ele>
        <time>2024-08-27T08:51:57Z</time>
      </trkpt>
      <trkpt lat="44.8937" lon="5.88678">
        <ele>732.2</ele>
        <time>2024-08-27T08:51:58Z</time>
      </trkpt>
      <trkpt lat="44.89371" lon="5.88682">
        <ele>732.4</ele>
        <time>2024-08-27T08:51:59Z</time>
      </trkpt>
      <trkpt lat="44.89373" lon="5.88686">
        <ele>732.6</ele>
        <time>2024-08-27T08:52:00Z</time>
      </trkpt>
      <trkpt lat="44.89375" lon="5.8869">
        <ele>732.8</ele>
        <time>2024-08-27T08:52:01Z</time>
      </trkpt>
      <trkpt lat="44.89376" lon="5.88694">
        <ele>733</ele>
        <time>2024-08-27T08:52:02Z</time>
      </trkpt>
      <trkpt lat="44.89378" lon="5.88698">
        <ele>733.2</ele>
        <time>2024-08-27T08:52:03Z</time>
      </trkpt>
      <trkpt lat="44.8938" lon="5.88702">
        <ele>733.4</ele>
        <time>2024-08-27T08:52:04Z</time>
      </trkpt>
      <trkpt lat="44.89381" lon="5.88706">
        <ele>733.6</ele>
        <time>2024-08-27T08:52:05Z</time>
      </trkpt>
      <trkpt lat="44.89383" lon="5.8871">
        <ele>733.8</ele>
        <time>2024-08-27T08:52:06Z</time>
      </trkpt>
      <trkpt lat="44.89385" lon="5.88714">
        <ele>734</ele>
        <time>2024-08-27T08:52:07Z</time>
      </trkpt>
      <trkpt lat="44.89386" lon="5.88718">
        <ele>734.2</ele>
        <time>2024-08-27T08:52:08Z</time>
      </trkpt>
      <trkpt lat="44.89388" lon="5.88721">
        <ele>734.4</ele>
        <time>2024-08-27T08:52:09Z</time>
      </trkpt>
      <trkpt lat="44.8939" lon="5.88725">
        <ele>734.5</ele>
        <time>2024-08-27T08:52:10Z</time>
      </trkpt>
      <trkpt lat="44.89391" lon="5.88729">
        <ele>734.7</ele>
        <time>2024-08-27T08:52:11Z</time>
      </trkpt>
      <trkpt lat="44.89393" lon="5.88733">
        <ele>734.9</ele>
        <time>2024-08-27T08:52:12Z</time>
      </trkpt>
      <trkpt lat="44.89395" lon="5.88736">
        <ele>735.1</ele>
        <time>2024-08-27T08:52:13Z</time>
      </trkpt>
      <trkpt lat="44.89396" lon="5.8874">
        <ele>735.3</ele>
        <time>2024-08-27T08:52:14Z</time>
      </trkpt>
      <trkpt lat="44.89398" lon="5.88744">
        <ele>735.5</ele>
        <time>2024-08-27T08:52:15Z</time>
      </trkpt>
      <trkpt lat="44.894" lon="5.88748">
        <ele>735.7</ele>
        <time>2024-08-27T08:52:16Z</time>
      </trkpt>
      <trkpt lat="44.89402" lon="5.88752">
        <ele>735.8</ele>
        <time>2024-08-27T08:52:17Z</time>
      </trkpt>
      <trkpt lat="44.89403" lon="5.88755">
        <ele>736</ele>
        <time>2024-08-27T08:52:18Z</time>
      </trkpt>
      <trkpt lat="44.89405" lon="5.88759">
        <ele>736.2</ele>
        <time>2024-08-27T08:52:19Z</time>
      </trkpt>
      <trkpt lat="44.89407" lon="5.88763">
        <ele>736.4</ele>
        <time>2024-08-27T08:52:20Z</time>
      </trkpt>
      <trkpt lat="44.89408" lon="5.88767">
        <ele>736.6</ele>
        <time>2024-08-27T08:52:21Z</time>
      </trkpt>
      <trkpt lat="44.8941" lon="5.88771">
        <ele>736.8</ele>
        <time>2024-08-27T08:52:22Z</time>
      </trkpt>
      <trkpt lat="44.89412" lon="5.88774">
        <ele>737</ele>
        <time>2024-08-27T08:52:23Z</time>
      </trkpt>
      <trkpt lat="44.89413" lon="5.88778">
        <ele>737.2</ele>
        <time>2024-08-27T08:52:24Z</time>
      </trkpt>
      <trkpt lat="44.89415" lon="5.88782">
        <ele>737.4</ele>
        <time>2024-08-27T08:52:25Z</time>
      </trkpt>
      <trkpt lat="44.89417" lon="5.88786">
        <ele>737.6</ele>
        <time>2024-08-27T08:52:26Z</time>
      </trkpt>
      <trkpt lat="44.89418" lon="5.8879">
        <ele>737.8</ele>
        <time>2024-08-27T08:52:27Z</time>
      </trkpt>
      <trkpt lat="44.8942" lon="5.88794">
        <ele>738</ele>
        <time>2024-08-27T08:52:28Z</time>
      </trkpt>
      <trkpt lat="44.89422" lon="5.88798">
        <ele>738.3</ele>
        <time>2024-08-27T08:52:29Z</time>
      </trkpt>
      <trkpt lat="44.89423" lon="5.88802">
        <ele>738.5</ele>
        <time>2024-08-27T08:52:30Z</time>
      </trkpt>
      <trkpt lat="44.89425" lon="5.88806">
        <ele>738.7</ele>
        <time>2024-08-27T08:52:31Z</time>
      </trkpt>
      <trkpt lat="44.89427" lon="5.8881">
        <ele>738.9</ele>
        <time>2024-08-27T08:52:32Z</time>
      </trkpt>
      <trkpt lat="44.89428" lon="5.88814">
        <ele>739.1</ele>
        <time>2024-08-27T08:52:33Z</time>
      </trkpt>
      <trkpt lat="44.8943" lon="5.88817">
        <ele>739.3</ele>
        <time>2024-08-27T08:52:34Z</time>
      </trkpt>
      <trkpt lat="44.89432" lon="5.88821">
        <ele>739.5</ele>
        <time>2024-08-27T08:52:35Z</time>
      </trkpt>
      <trkpt lat="44.89433" lon="5.88825">
        <ele>739.7</ele>
        <time>2024-08-27T08:52:36Z</time>
      </trkpt>
      <trkpt lat="44.89435" lon="5.88829">
        <ele>740</ele>
        <time>2024-08-27T08:52:37Z</time>
      </trkpt>
      <trkpt lat="44.89437" lon="5.88832">
        <ele>740.2</ele>
        <time>2024-08-27T08:52:38Z</time>
      </trkpt>
      <trkpt lat="44.89438" lon="5.88836">
        <ele>740.4</ele>
        <time>2024-08-27T08:52:39Z</time>
      </trkpt>
      <trkpt lat="44.8944" lon="5.8884">
        <ele>740.6</ele>
        <time>2024-08-27T08:52:40Z</time>
      </trkpt>
      <trkpt lat="44.89442" lon="5.88844">
        <ele>740.8</ele>
        <time>2024-08-27T08:52:41Z</time>
      </trkpt>
      <trkpt lat="44.89443" lon="5.88847">
        <ele>741</ele>
        <time>2024-08-27T08:52:42Z</time>
      </trkpt>
      <trkpt lat="44.89445" lon="5.88851">
        <ele>741.2</ele>
        <time>2024-08-27T08:52:43Z</time>
      </trkpt>
      <trkpt lat="44.89446" lon="5.88855">
        <ele>741.4</ele>
        <time>2024-08-27T08:52:44Z</time>
      </trkpt>
      <trkpt lat="44.89448" lon="5.88859">
        <ele>741.6</ele>
        <time>2024-08-27T08:52:45Z</time>
      </trkpt>
      <trkpt lat="44.8945" lon="5.88863">
        <ele>741.8</ele>
        <time>2024-08-27T08:52:46Z</time>
      </trkpt>
      <trkpt lat="44.89451" lon="5.88866">
        <ele>742.1</ele>
        <time>2024-08-27T08:52:47Z</time>
      </trkpt>
      <trkpt lat="44.89453" lon="5.8887">
        <ele>742.3</ele>
        <time>2024-08-27T08:52:48Z</time>
      </trkpt>
      <trkpt lat="44.89455" lon="5.88874">
        <ele>742.5</ele>
        <time>2024-08-27T08:52:49Z</time>
      </trkpt>
      <trkpt lat="44.89456" lon="5.88878">
        <ele>742.7</ele>
        <time>2024-08-27T08:52:50Z</time>
      </trkpt>
      <trkpt lat="44.89458" lon="5.88882">
        <ele>742.9</ele>
        <time>2024-08-27T08:52:51Z</time>
      </trkpt>
      <trkpt lat="44.8946" lon="5.88885">
        <ele>743.1</ele>
        <time>2024-08-27T08:52:52Z</time>
      </trkpt>
      <trkpt lat="44.89462" lon="5.88889">
        <ele>743.3</ele>
        <time>2024-08-27T08:52:53Z</time>
      </trkpt>
      <trkpt lat="44.89463" lon="5.88893">
        <ele>743.5</ele>
        <time>2024-08-27T08:52:54Z</time>
      </trkpt>
      <trkpt lat="44.89465" lon="5.88896">
        <ele>743.8</ele>
        <time>2024-08-27T08:52:55Z</time>
      </trkpt>
      <trkpt lat="44.89467" lon="5.889">
        <ele>744</ele>
        <time>2024-08-27T08:52:56Z</time>
      </trkpt>
      <trkpt lat="44.89468" lon="5.88904">
        <ele>744.2</ele>
        <time>2024-08-27T08:52:57Z</time>
      </trkpt>
      <trkpt lat="44.8947" lon="5.88908">
        <ele>744.4</ele>
        <time>2024-08-27T08:52:58Z</time>
      </trkpt>
      <trkpt lat="44.89471" lon="5.88912">
        <ele>744.6</ele>
        <time>2024-08-27T08:52:59Z</time>
      </trkpt>
      <trkpt lat="44.89473" lon="5.88915">
        <ele>744.9</ele>
        <time>2024-08-27T08:53:00Z</time>
      </trkpt>
      <trkpt lat="44.89475" lon="5.88919">
        <ele>745.1</ele>
        <time>2024-08-27T08:53:01Z</time>
      </trkpt>
      <trkpt lat="44.89476" lon="5.88923">
        <ele>745.3</ele>
        <time>2024-08-27T08:53:02Z</time>
      </trkpt>
      <trkpt lat="44.89478" lon="5.88926">
        <ele>745.6</ele>
        <time>2024-08-27T08:53:03Z</time>
      </trkpt>
      <trkpt lat="44.8948" lon="5.8893">
        <ele>745.8</ele>
        <time>2024-08-27T08:53:04Z</time>
      </trkpt>
      <trkpt lat="44.89481" lon="5.88934">
        <ele>746</ele>
        <time>2024-08-27T08:53:05Z</time>
      </trkpt>
      <trkpt lat="44.89483" lon="5.88937">
        <ele>746.2</ele>
        <time>2024-08-27T08:53:06Z</time>
      </trkpt>
      <trkpt lat="44.89484" lon="5.88941">
        <ele>746.4</ele>
        <time>2024-08-27T08:53:07Z</time>
      </trkpt>
      <trkpt lat="44.89486" lon="5.88945">
        <ele>746.7</ele>
        <time>2024-08-27T08:53:08Z</time>
      </trkpt>
      <trkpt lat="44.89487" lon="5.88949">
        <ele>746.9</ele>
        <time>2024-08-27T08:53:09Z</time>
      </trkpt>
      <trkpt lat="44.89489" lon="5.88952">
        <ele>747.1</ele>
        <time>2024-08-27T08:53:10Z</time>
      </trkpt>
      <trkpt lat="44.89491" lon="5.88956">
        <ele>747.3</ele>
        <time>2024-08-27T08:53:11Z</time>
      </trkpt>
      <trkpt lat="44.89492" lon="5.8896">
        <ele>747.5</ele>
        <time>2024-08-27T08:53:12Z</time>
      </trkpt>
      <trkpt lat="44.89493" lon="5.88963">
        <ele>747.8</ele>
        <time>2024-08-27T08:53:13Z</time>
      </trkpt>
      <trkpt lat="44.89495" lon="5.88967">
        <ele>748</ele>
        <time>2024-08-27T08:53:14Z</time>
      </trkpt>
      <trkpt lat="44.89497" lon="5.88971">
        <ele>748.2</ele>
        <time>2024-08-27T08:53:15Z</time>
      </trkpt>
      <trkpt lat="44.89498" lon="5.88974">
        <ele>748.4</ele>
        <time>2024-08-27T08:53:16Z</time>
      </trkpt>
      <trkpt lat="44.895" lon="5.88978">
        <ele>748.6</ele>
        <time>2024-08-27T08:53:17Z</time>
      </trkpt>
      <trkpt lat="44.89501" lon="5.88981">
        <ele>748.9</ele>
        <time>2024-08-27T08:53:18Z</time>
      </trkpt>
      <trkpt lat="44.89503" lon="5.88985">
        <ele>749.1</ele>
        <time>2024-08-27T08:53:19Z</time>
      </trkpt>
      <trkpt lat="44.89504" lon="5.88988">
        <ele>749.3</ele>
        <time>2024-08-27T08:53:20Z</time>
      </trkpt>
      <trkpt lat="44.89506" lon="5.88992">
        <ele>749.5</ele>
        <time>2024-08-27T08:53:21Z</time>
      </trkpt>
      <trkpt lat="44.89507" lon="5.88995">
        <ele>749.7</ele>
        <time>2024-08-27T08:53:22Z</time>
      </trkpt>
      <trkpt lat="44.89509" lon="5.88999">
        <ele>750</ele>
        <time>2024-08-27T08:53:23Z</time>
      </trkpt>
      <trkpt lat="44.8951" lon="5.89003">
        <ele>750.2</ele>
        <time>2024-08-27T08:53:24Z</time>
      </trkpt>
      <trkpt lat="44.89511" lon="5.89007">
        <ele>750.4</ele>
        <time>2024-08-27T08:53:25Z</time>
      </trkpt>
      <trkpt lat="44.89513" lon="5.8901">
        <ele>750.6</ele>
        <time>2024-08-27T08:53:26Z</time>
      </trkpt>
      <trkpt lat="44.89514" lon="5.89014">
        <ele>750.9</ele>
        <time>2024-08-27T08:53:27Z</time>
      </trkpt>
      <trkpt lat="44.89516" lon="5.89018">
        <ele>751.1</ele>
        <time>2024-08-27T08:53:28Z</time>
      </trkpt>
      <trkpt lat="44.89517" lon="5.89021">
        <ele>751.3</ele>
        <time>2024-08-27T08:53:29Z</time>
      </trkpt>
      <trkpt lat="44.89519" lon="5.89025">
        <ele>751.5</ele>
        <time>2024-08-27T08:53:30Z</time>
      </trkpt>
      <trkpt lat="44.8952" lon="5.89029">
        <ele>751.7</ele>
        <time>2024-08-27T08:53:31Z</time>
      </trkpt>
      <trkpt lat="44.89522" lon="5.89032">
        <ele>752</ele>
        <time>2024-08-27T08:53:32Z</time>
      </trkpt>
      <trkpt lat="44.89523" lon="5.89036">
        <ele>752.2</ele>
        <time>2024-08-27T08:53:33Z</time>
      </trkpt>
      <trkpt lat="44.89525" lon="5.8904">
        <ele>752.4</ele>
        <time>2024-08-27T08:53:34Z</time>
      </trkpt>
      <trkpt lat="44.89526" lon="5.89043">
        <ele>752.6</ele>
        <time>2024-08-27T08:53:35Z</time>
      </trkpt>
      <trkpt lat="44.89528" lon="5.89047">
        <ele>752.9</ele>
        <time>2024-08-27T08:53:36Z</time>
      </trkpt>
      <trkpt lat="44.89529" lon="5.89051">
        <ele>753.1</ele>
        <time>2024-08-27T08:53:37Z</time>
      </trkpt>
      <trkpt lat="44.89531" lon="5.89054">
        <ele>753.3</ele>
        <time>2024-08-27T08:53:38Z</time>
      </trkpt>
      <trkpt lat="44.89532" lon="5.89058">
        <ele>753.5</ele>
        <time>2024-08-27T08:53:39Z</time>
      </trkpt>
      <trkpt lat="44.89534" lon="5.89062">
        <ele>753.7</ele>
        <time>2024-08-27T08:53:40Z</time>
      </trkpt>
      <trkpt lat="44.89535" lon="5.89065">
        <ele>754</ele>
        <time>2024-08-27T08:53:41Z</time>
      </trkpt>
      <trkpt lat="44.89537" lon="5.89069">
        <ele>754.2</ele>
        <time>2024-08-27T08:53:42Z</time>
      </trkpt>
      <trkpt lat="44.89538" lon="5.89073">
        <ele>754.4</ele>
        <time>2024-08-27T08:53:43Z</time>
      </trkpt>
      <trkpt lat="44.8954" lon="5.89076">
        <ele>754.6</ele>
        <time>2024-08-27T08:53:44Z</time>
      </trkpt>
      <trkpt lat="44.89541" lon="5.8908">
        <ele>754.8</ele>
        <time>2024-08-27T08:53:45Z</time>
      </trkpt>
      <trkpt lat="44.89543" lon="5.89084">
        <ele>755</ele>
        <time>2024-08-27T08:53:46Z</time>
      </trkpt>
      <trkpt lat="44.89544" lon="5.89087">
        <ele>755.3</ele>
        <time>2024-08-27T08:53:47Z</time>
      </trkpt>
      <trkpt lat="44.89546" lon="5.89091">
        <ele>755.5</ele>
        <time>2024-08-27T08:53:48Z</time>
      </trkpt>
      <trkpt lat="44.89547" lon="5.89095">
        <ele>755.7</ele>
        <time>2024-08-27T08:53:49Z</time>
      </trkpt>
      <trkpt lat="44.89549" lon="5.89099">
        <ele>755.9</ele>
        <time>2024-08-27T08:53:50Z</time>
      </trkpt>
      <trkpt lat="44.8955" lon="5.89102">
        <ele>756.1</ele>
        <time>2024-08-27T08:53:51Z</time>
      </trkpt>
      <trkpt lat="44.89552" lon="5.89106">
        <ele>756.3</ele>
        <time>2024-08-27T08:53:52Z</time>
      </trkpt>
      <trkpt lat="44.89553" lon="5.8911">
        <ele>756.5</ele>
        <time>2024-08-27T08:53:53Z</time>
      </trkpt>
      <trkpt lat="44.89555" lon="5.89113">
        <ele>756.7</ele>
        <time>2024-08-27T08:53:54Z</time>
      </trkpt>
      <trkpt lat="44.89556" lon="5.89117">
        <ele>756.9</ele>
        <time>2024-08-27T08:53:55Z</time>
      </trkpt>
      <trkpt lat="44.89558" lon="5.89121">
        <ele>757.1</ele>
        <time>2024-08-27T08:53:56Z</time>
      </trkpt>
      <trkpt lat="44.89559" lon="5.89124">
        <ele>757.4</ele>
        <time>2024-08-27T08:53:57Z</time>
      </trkpt>
      <trkpt lat="44.89561" lon="5.89128">
        <ele>757.6</ele>
        <time>2024-08-27T08:53:58Z</time>
      </trkpt>
      <trkpt lat="44.89562" lon="5.89132">
        <ele>757.8</ele>
        <time>2024-08-27T08:53:59Z</time>
      </trkpt>
      <trkpt lat="44.89563" lon="5.89136">
        <ele>758</ele>
        <time>2024-08-27T08:54:00Z</time>
      </trkpt>
      <trkpt lat="44.89565" lon="5.89139">
        <ele>758.3</ele>
        <time>2024-08-27T08:54:01Z</time>
      </trkpt>
      <trkpt lat="44.89567" lon="5.89143">
        <ele>758.5</ele>
        <time>2024-08-27T08:54:02Z</time>
      </trkpt>
      <trkpt lat="44.89568" lon="5.89147">
        <ele>758.7</ele>
        <time>2024-08-27T08:54:03Z</time>
      </trkpt>
      <trkpt lat="44.8957" lon="5.89151">
        <ele>759</ele>
        <time>2024-08-27T08:54:04Z</time>
      </trkpt>
      <trkpt lat="44.89571" lon="5.89154">
        <ele>759.2</ele>
        <time>2024-08-27T08:54:05Z</time>
      </trkpt>
      <trkpt lat="44.89573" lon="5.89158">
        <ele>759.5</ele>
        <time>2024-08-27T08:54:06Z</time>
      </trkpt>
      <trkpt lat="44.89574" lon="5.89162">
        <ele>759.7</ele>
        <time>2024-08-27T08:54:07Z</time>
      </trkpt>
      <trkpt lat="44.89576" lon="5.89165">
        <ele>759.9</ele>
        <time>2024-08-27T08:54:08Z</time>
      </trkpt>
      <trkpt lat="44.89577" lon="5.89169">
        <ele>760.2</ele>
        <time>2024-08-27T08:54:09Z</time>
      </trkpt>
      <trkpt lat="44.89579" lon="5.89172">
        <ele>760.4</ele>
        <time>2024-08-27T08:54:10Z</time>
      </trkpt>
      <trkpt lat="44.8958" lon="5.89176">
        <ele>760.6</ele>
        <time>2024-08-27T08:54:11Z</time>
      </trkpt>
      <trkpt lat="44.89582" lon="5.89179">
        <ele>760.9</ele>
        <time>2024-08-27T08:54:12Z</time>
      </trkpt>
      <trkpt lat="44.89583" lon="5.89183">
        <ele>761.1</ele>
        <time>2024-08-27T08:54:13Z</time>
      </trkpt>
      <trkpt lat="44.89584" lon="5.89186">
        <ele>761.4</ele>
        <time>2024-08-27T08:54:14Z</time>
      </trkpt>
      <trkpt lat="44.89586" lon="5.8919">
        <ele>761.6</ele>
        <time>2024-08-27T08:54:15Z</time>
      </trkpt>
      <trkpt lat="44.89587" lon="5.89193">
        <ele>761.8</ele>
        <time>2024-08-27T08:54:16Z</time>
      </trkpt>
      <trkpt lat="44.89589" lon="5.89197">
        <ele>762.1</ele>
        <time>2024-08-27T08:54:17Z</time>
      </trkpt>
      <trkpt lat="44.8959" lon="5.892">
        <ele>762.3</ele>
        <time>2024-08-27T08:54:18Z</time>
      </trkpt>
      <trkpt lat="44.89592" lon="5.89204">
        <ele>762.5</ele>
        <time>2024-08-27T08:54:19Z</time>
      </trkpt>
      <trkpt lat="44.89594" lon="5.89208">
        <ele>762.9</ele>
        <time>2024-08-27T08:54:20Z</time>
      </trkpt>
      <trkpt lat="44.89595" lon="5.8921">
        <ele>763</ele>
        <time>2024-08-27T08:54:21Z</time>
      </trkpt>
      <trkpt lat="44.89596" lon="5.89213">
        <ele>763.2</ele>
        <time>2024-08-27T08:54:22Z</time>
      </trkpt>
      <trkpt lat="44.89597" lon="5.89217">
        <ele>763.4</ele>
        <time>2024-08-27T08:54:23Z</time>
      </trkpt>
      <trkpt lat="44.89599" lon="5.89221">
        <ele>763.7</ele>
        <time>2024-08-27T08:54:24Z</time>
      </trkpt>
      <trkpt lat="44.896" lon="5.89223">
        <ele>763.8</ele>
        <time>2024-08-27T08:54:25Z</time>
      </trkpt>
      <trkpt lat="44.89602" lon="5.89228">
        <ele>764.2</ele>
        <time>2024-08-27T08:54:26Z</time>
      </trkpt>
      <trkpt lat="44.89602" lon="5.8923">
        <ele>764.3</ele>
        <time>2024-08-27T08:54:27Z</time>
      </trkpt>
      <trkpt lat="44.89604" lon="5.89234">
        <ele>764.6</ele>
        <time>2024-08-27T08:54:28Z</time>
      </trkpt>
      <trkpt lat="44.89605" lon="5.89236">
        <ele>764.7</ele>
        <time>2024-08-27T08:54:29Z</time>
      </trkpt>
      <trkpt lat="44.89607" lon="5.89241">
        <ele>765</ele>
        <time>2024-08-27T08:54:30Z</time>
      </trkpt>
      <trkpt lat="44.89607" lon="5.89243">
        <ele>765.1</ele>
        <time>2024-08-27T08:54:31Z</time>
      </trkpt>
      <trkpt lat="44.89609" lon="5.89246">
        <ele>765.4</ele>
        <time>2024-08-27T08:54:32Z</time>
      </trkpt>
      <trkpt lat="44.8961" lon="5.8925">
        <ele>765.6</ele>
        <time>2024-08-27T08:54:33Z</time>
      </trkpt>
      <trkpt lat="44.89611" lon="5.89253">
        <ele>765.8</ele>
        <time>2024-08-27T08:54:34Z</time>
      </trkpt>
      <trkpt lat="44.89613" lon="5.89258">
        <ele>766.1</ele>
        <time>2024-08-27T08:54:35Z</time>
      </trkpt>
      <trkpt lat="44.89613" lon="5.8926">
        <ele>766.2</ele>
        <time>2024-08-27T08:54:36Z</time>
      </trkpt>
      <trkpt lat="44.89615" lon="5.89265">
        <ele>766.6</ele>
        <time>2024-08-27T08:54:37Z</time>
      </trkpt>
      <trkpt lat="44.89615" lon="5.89267">
        <ele>766.7</ele>
        <time>2024-08-27T08:54:38Z</time>
      </trkpt>
      <trkpt lat="44.89617" lon="5.89272">
        <ele>767</ele>
        <time>2024-08-27T08:54:39Z</time>
      </trkpt>
      <trkpt lat="44.89617" lon="5.89274">
        <ele>767.1</ele>
        <time>2024-08-27T08:54:40Z</time>
      </trkpt>
      <trkpt lat="44.89619" lon="5.89279">
        <ele>767.4</ele>
        <time>2024-08-27T08:54:41Z</time>
      </trkpt>
      <trkpt lat="44.89619" lon="5.89281">
        <ele>767.5</ele>
        <time>2024-08-27T08:54:42Z</time>
      </trkpt>
      <trkpt lat="44.8962" lon="5.89284">
        <ele>767.7</ele>
        <time>2024-08-27T08:54:43Z</time>
      </trkpt>
      <trkpt lat="44.89621" lon="5.89288">
        <ele>768</ele>
        <time>2024-08-27T08:54:44Z</time>
      </trkpt>
      <trkpt lat="44.89622" lon="5.89291">
        <ele>768.2</ele>
        <time>2024-08-27T08:54:45Z</time>
      </trkpt>
      <trkpt lat="44.89623" lon="5.89295">
        <ele>768.4</ele>
        <time>2024-08-27T08:54:46Z</time>
      </trkpt>
      <trkpt lat="44.89624" lon="5.89299">
        <ele>768.6</ele>
        <time>2024-08-27T08:54:47Z</time>
      </trkpt>
      <trkpt lat="44.89626" lon="5.89302">
        <ele>768.9</ele>
        <time>2024-08-27T08:54:48Z</time>
      </trkpt>
      <trkpt lat="44.89627" lon="5.89306">
        <ele>769.1</ele>
        <time>2024-08-27T08:54:49Z</time>
      </trkpt>
      <trkpt lat="44.89628" lon="5.89309">
        <ele>769.3</ele>
        <time>2024-08-27T08:54:50Z</time>
      </trkpt>
      <trkpt lat="44.89629" lon="5.89313">
        <ele>769.6</ele>
        <time>2024-08-27T08:54:51Z</time>
      </trkpt>
      <trkpt lat="44.8963" lon="5.89316">
        <ele>769.8</ele>
        <time>2024-08-27T08:54:52Z</time>
      </trkpt>
      <trkpt lat="44.89631" lon="5.89322">
        <ele>770.1</ele>
        <time>2024-08-27T08:54:53Z</time>
      </trkpt>
      <trkpt lat="44.89632" lon="5.89323">
        <ele>770.2</ele>
        <time>2024-08-27T08:54:54Z</time>
      </trkpt>
      <trkpt lat="44.89633" lon="5.89328">
        <ele>770.5</ele>
        <time>2024-08-27T08:54:55Z</time>
      </trkpt>
      <trkpt lat="44.89634" lon="5.8933">
        <ele>770.7</ele>
        <time>2024-08-27T08:54:56Z</time>
      </trkpt>
      <trkpt lat="44.89635" lon="5.89335">
        <ele>770.9</ele>
        <time>2024-08-27T08:54:57Z</time>
      </trkpt>
      <trkpt lat="44.89635" lon="5.89337">
        <ele>770.9</ele>
        <time>2024-08-27T08:54:58Z</time>
      </trkpt>
      <trkpt lat="44.89637" lon="5.89342">
        <ele>771</ele>
        <time>2024-08-27T08:54:59Z</time>
      </trkpt>
      <trkpt lat="44.89637" lon="5.89344">
        <ele>771.1</ele>
        <time>2024-08-27T08:55:00Z</time>
      </trkpt>
      <trkpt lat="44.89638" lon="5.89347">
        <ele>771.2</ele>
        <time>2024-08-27T08:55:01Z</time>
      </trkpt>
      <trkpt lat="44.8964" lon="5.89351">
        <ele>771.4</ele>
        <time>2024-08-27T08:55:02Z</time>
      </trkpt>
      <trkpt lat="44.89641" lon="5.89355">
        <ele>771.6</ele>
        <time>2024-08-27T08:55:03Z</time>
      </trkpt>
      <trkpt lat="44.89642" lon="5.89358">
        <ele>771.7</ele>
        <time>2024-08-27T08:55:04Z</time>
      </trkpt>
      <trkpt lat="44.89643" lon="5.89362">
        <ele>771.9</ele>
        <time>2024-08-27T08:55:05Z</time>
      </trkpt>
      <trkpt lat="44.89644" lon="5.89365">
        <ele>772.1</ele>
        <time>2024-08-27T08:55:06Z</time>
      </trkpt>
      <trkpt lat="44.89645" lon="5.89369">
        <ele>772.3</ele>
        <time>2024-08-27T08:55:07Z</time>
      </trkpt>
      <trkpt lat="44.89646" lon="5.89374">
        <ele>772.5</ele>
        <time>2024-08-27T08:55:08Z</time>
      </trkpt>
      <trkpt lat="44.89647" lon="5.89376">
        <ele>772.6</ele>
        <time>2024-08-27T08:55:09Z</time>
      </trkpt>
      <trkpt lat="44.89648" lon="5.89381">
        <ele>772.9</ele>
        <time>2024-08-27T08:55:10Z</time>
      </trkpt>
      <trkpt lat="44.89649" lon="5.89383">
        <ele>773</ele>
        <time>2024-08-27T08:55:11Z</time>
      </trkpt>
      <trkpt lat="44.8965" lon="5.89388">
        <ele>773.3</ele>
        <time>2024-08-27T08:55:12Z</time>
      </trkpt>
      <trkpt lat="44.8965" lon="5.8939">
        <ele>773.3</ele>
        <time>2024-08-27T08:55:13Z</time>
      </trkpt>
      <trkpt lat="44.89651" lon="5.89394">
        <ele>773.5</ele>
        <time>2024-08-27T08:55:14Z</time>
      </trkpt>
      <trkpt lat="44.89652" lon="5.89399">
        <ele>773.8</ele>
        <time>2024-08-27T08:55:15Z</time>
      </trkpt>
      <trkpt lat="44.89653" lon="5.89401">
        <ele>773.9</ele>
        <time>2024-08-27T08:55:16Z</time>
      </trkpt>
      <trkpt lat="44.89654" lon="5.89406">
        <ele>774.2</ele>
        <time>2024-08-27T08:55:17Z</time>
      </trkpt>
      <trkpt lat="44.89654" lon="5.89408">
        <ele>774.3</ele>
        <time>2024-08-27T08:55:18Z</time>
      </trkpt>
      <trkpt lat="44.89655" lon="5.89413">
        <ele>774.5</ele>
        <time>2024-08-27T08:55:19Z</time>
      </trkpt>
      <trkpt lat="44.89656" lon="5.89415">
        <ele>774.6</ele>
        <time>2024-08-27T08:55:20Z</time>
      </trkpt>
      <trkpt lat="44.89657" lon="5.8942">
        <ele>774.9</ele>
        <time>2024-08-27T08:55:21Z</time>
      </trkpt>
      <trkpt lat="44.89657" lon="5.89422">
        <ele>775</ele>
        <time>2024-08-27T08:55:22Z</time>
      </trkpt>
      <trkpt lat="44.89658" lon="5.89427">
        <ele>775.3</ele>
        <time>2024-08-27T08:55:23Z</time>
      </trkpt>
      <trkpt lat="44.89659" lon="5.89429">
        <ele>775.4</ele>
        <time>2024-08-27T08:55:24Z</time>
      </trkpt>
      <trkpt lat="44.8966" lon="5.89433">
        <ele>775.5</ele>
        <time>2024-08-27T08:55:25Z</time>
      </trkpt>
      <trkpt lat="44.89661" lon="5.89438">
        <ele>775.8</ele>
        <time>2024-08-27T08:55:26Z</time>
      </trkpt>
      <trkpt lat="44.89661" lon="5.8944">
        <ele>775.9</ele>
        <time>2024-08-27T08:55:27Z</time>
      </trkpt>
      <trkpt lat="44.89663" lon="5.89445">
        <ele>776.2</ele>
        <time>2024-08-27T08:55:28Z</time>
      </trkpt>
      <trkpt lat="44.89663" lon="5.89447">
        <ele>776.2</ele>
        <time>2024-08-27T08:55:29Z</time>
      </trkpt>
      <trkpt lat="44.89664" lon="5.89453">
        <ele>776.5</ele>
        <time>2024-08-27T08:55:30Z</time>
      </trkpt>
      <trkpt lat="44.89665" lon="5.89454">
        <ele>776.6</ele>
        <time>2024-08-27T08:55:31Z</time>
      </trkpt>
      <trkpt lat="44.89666" lon="5.89458">
        <ele>776.8</ele>
        <time>2024-08-27T08:55:32Z</time>
      </trkpt>
      <trkpt lat="44.89668" lon="5.89463">
        <ele>777.1</ele>
        <time>2024-08-27T08:55:33Z</time>
      </trkpt>
      <trkpt lat="44.89668" lon="5.89465">
        <ele>777.2</ele>
        <time>2024-08-27T08:55:34Z</time>
      </trkpt>
      <trkpt lat="44.8967" lon="5.8947">
        <ele>777.5</ele>
        <time>2024-08-27T08:55:35Z</time>
      </trkpt>
      <trkpt lat="44.8967" lon="5.89471">
        <ele>777.6</ele>
        <time>2024-08-27T08:55:36Z</time>
      </trkpt>
      <trkpt lat="44.89672" lon="5.89476">
        <ele>777.9</ele>
        <time>2024-08-27T08:55:37Z</time>
      </trkpt>
      <trkpt lat="44.89673" lon="5.89478">
        <ele>778</ele>
        <time>2024-08-27T08:55:38Z</time>
      </trkpt>
      <trkpt lat="44.89674" lon="5.89481">
        <ele>778.3</ele>
        <time>2024-08-27T08:55:39Z</time>
      </trkpt>
      <trkpt lat="44.89676" lon="5.89486">
        <ele>778.5</ele>
        <time>2024-08-27T08:55:40Z</time>
      </trkpt>
      <trkpt lat="44.89677" lon="5.89488">
        <ele>778.6</ele>
        <time>2024-08-27T08:55:41Z</time>
      </trkpt>
      <trkpt lat="44.89678" lon="5.89491">
        <ele>778.8</ele>
        <time>2024-08-27T08:55:42Z</time>
      </trkpt>
      <trkpt lat="44.8968" lon="5.89495">
        <ele>779</ele>
        <time>2024-08-27T08:55:43Z</time>
      </trkpt>
      <trkpt lat="44.89682" lon="5.89498">
        <ele>779.2</ele>
        <time>2024-08-27T08:55:44Z</time>
      </trkpt>
      <trkpt lat="44.89684" lon="5.89501">
        <ele>779.4</ele>
        <time>2024-08-27T08:55:45Z</time>
      </trkpt>
      <trkpt lat="44.89686" lon="5.89505">
        <ele>779.6</ele>
        <time>2024-08-27T08:55:46Z</time>
      </trkpt>
      <trkpt lat="44.89688" lon="5.89508">
        <ele>779.8</ele>
        <time>2024-08-27T08:55:47Z</time>
      </trkpt>
      <trkpt lat="44.8969" lon="5.89512">
        <ele>780</ele>
        <time>2024-08-27T08:55:48Z</time>
      </trkpt>
      <trkpt lat="44.89692" lon="5.89515">
        <ele>780.1</ele>
        <time>2024-08-27T08:55:49Z</time>
      </trkpt>
      <trkpt lat="44.89694" lon="5.89519">
        <ele>780.3</ele>
        <time>2024-08-27T08:55:50Z</time>
      </trkpt>
      <trkpt lat="44.89697" lon="5.89522">
        <ele>780.5</ele>
        <time>2024-08-27T08:55:51Z</time>
      </trkpt>
      <trkpt lat="44.89699" lon="5.89525">
        <ele>780.6</ele>
        <time>2024-08-27T08:55:52Z</time>
      </trkpt>
      <trkpt lat="44.89701" lon="5.89529">
        <ele>780.8</ele>
        <time>2024-08-27T08:55:53Z</time>
      </trkpt>
      <trkpt lat="44.89704" lon="5.89532">
        <ele>781</ele>
        <time>2024-08-27T08:55:54Z</time>
      </trkpt>
      <trkpt lat="44.89706" lon="5.89536">
        <ele>781.2</ele>
        <time>2024-08-27T08:55:55Z</time>
      </trkpt>
      <trkpt lat="44.89709" lon="5.89539">
        <ele>781.4</ele>
        <time>2024-08-27T08:55:56Z</time>
      </trkpt>
      <trkpt lat="44.89712" lon="5.89543">
        <ele>781.6</ele>
        <time>2024-08-27T08:55:57Z</time>
      </trkpt>
      <trkpt lat="44.89714" lon="5.89546">
        <ele>781.8</ele>
        <time>2024-08-27T08:55:58Z</time>
      </trkpt>
      <trkpt lat="44.89717" lon="5.8955">
        <ele>781.9</ele>
        <time>2024-08-27T08:55:59Z</time>
      </trkpt>
      <trkpt lat="44.89719" lon="5.89553">
        <ele>782.1</ele>
        <time>2024-08-27T08:56:00Z</time>
      </trkpt>
      <trkpt lat="44.89722" lon="5.89556">
        <ele>782.3</ele>
        <time>2024-08-27T08:56:01Z</time>
      </trkpt>
      <trkpt lat="44.89725" lon="5.89559">
        <ele>782.5</ele>
        <time>2024-08-27T08:56:02Z</time>
      </trkpt>
      <trkpt lat="44.89727" lon="5.89563">
        <ele>782.7</ele>
        <time>2024-08-27T08:56:03Z</time>
      </trkpt>
      <trkpt lat="44.8973" lon="5.89566">
        <ele>782.9</ele>
        <time>2024-08-27T08:56:04Z</time>
      </trkpt>
      <trkpt lat="44.89733" lon="5.8957">
        <ele>783.1</ele>
        <time>2024-08-27T08:56:05Z</time>
      </trkpt>
      <trkpt lat="44.89735" lon="5.89573">
        <ele>783.3</ele>
        <time>2024-08-27T08:56:06Z</time>
      </trkpt>
      <trkpt lat="44.89738" lon="5.89577">
        <ele>783.5</ele>
        <time>2024-08-27T08:56:07Z</time>
      </trkpt>
      <trkpt lat="44.89741" lon="5.8958">
        <ele>783.7</ele>
        <time>2024-08-27T08:56:08Z</time>
      </trkpt>
      <trkpt lat="44.89744" lon="5.89584">
        <ele>783.9</ele>
        <time>2024-08-27T08:56:09Z</time>
      </trkpt>
      <trkpt lat="44.89747" lon="5.89587">
        <ele>784.1</ele>
        <time>2024-08-27T08:56:10Z</time>
      </trkpt>
      <trkpt lat="44.89749" lon="5.8959">
        <ele>784.3</ele>
        <time>2024-08-27T08:56:11Z</time>
      </trkpt>
      <trkpt lat="44.89752" lon="5.89594">
        <ele>784.5</ele>
        <time>2024-08-27T08:56:12Z</time>
      </trkpt>
      <trkpt lat="44.89754" lon="5.89598">
        <ele>784.7</ele>
        <time>2024-08-27T08:56:13Z</time>
      </trkpt>
      <trkpt lat="44.89757" lon="5.89601">
        <ele>784.9</ele>
        <time>2024-08-27T08:56:14Z</time>
      </trkpt>
      <trkpt lat="44.8976" lon="5.89605">
        <ele>785.1</ele>
        <time>2024-08-27T08:56:15Z</time>
      </trkpt>
      <trkpt lat="44.89762" lon="5.89608">
        <ele>785.3</ele>
        <time>2024-08-27T08:56:16Z</time>
      </trkpt>
      <trkpt lat="44.89765" lon="5.89611">
        <ele>785.5</ele>
        <time>2024-08-27T08:56:17Z</time>
      </trkpt>
      <trkpt lat="44.89768" lon="5.89615">
        <ele>785.7</ele>
        <time>2024-08-27T08:56:18Z</time>
      </trkpt>
      <trkpt lat="44.8977" lon="5.89618">
        <ele>785.9</ele>
        <time>2024-08-27T08:56:19Z</time>
      </trkpt>
      <trkpt lat="44.89773" lon="5.89622">
        <ele>786</ele>
        <time>2024-08-27T08:56:20Z</time>
      </trkpt>
      <trkpt lat="44.89775" lon="5.89625">
        <ele>786.1</ele>
        <time>2024-08-27T08:56:21Z</time>
      </trkpt>
      <trkpt lat="44.89777" lon="5.89629">
        <ele>786.2</ele>
        <time>2024-08-27T08:56:22Z</time>
      </trkpt>
      <trkpt lat="44.8978" lon="5.89633">
        <ele>786.2</ele>
        <time>2024-08-27T08:56:23Z</time>
      </trkpt>
      <trkpt lat="44.89782" lon="5.89636">
        <ele>786.3</ele>
        <time>2024-08-27T08:56:24Z</time>
      </trkpt>
      <trkpt lat="44.89784" lon="5.8964">
        <ele>786.4</ele>
        <time>2024-08-27T08:56:25Z</time>
      </trkpt>
      <trkpt lat="44.89786" lon="5.89644">
        <ele>786.5</ele>
        <time>2024-08-27T08:56:26Z</time>
      </trkpt>
      <trkpt lat="44.89789" lon="5.89648">
        <ele>786.6</ele>
        <time>2024-08-27T08:56:27Z</time>
      </trkpt>
      <trkpt lat="44.89791" lon="5.89652">
        <ele>786.7</ele>
        <time>2024-08-27T08:56:28Z</time>
      </trkpt>
      <trkpt lat="44.89793" lon="5.89656">
        <ele>786.7</ele>
        <time>2024-08-27T08:56:29Z</time>
      </trkpt>
      <trkpt lat="44.89795" lon="5.8966">
        <ele>786.8</ele>
        <time>2024-08-27T08:56:30Z</time>
      </trkpt>
      <trkpt lat="44.89797" lon="5.89665">
        <ele>786.9</ele>
        <time>2024-08-27T08:56:31Z</time>
      </trkpt>
      <trkpt lat="44.89799" lon="5.89669">
        <ele>787</ele>
        <time>2024-08-27T08:56:32Z</time>
      </trkpt>
      <trkpt lat="44.89801" lon="5.89673">
        <ele>787.1</ele>
        <time>2024-08-27T08:56:33Z</time>
      </trkpt>
      <trkpt lat="44.89803" lon="5.89678">
        <ele>787.1</ele>
        <time>2024-08-27T08:56:34Z</time>
      </trkpt>
      <trkpt lat="44.89805" lon="5.89682">
        <ele>787.2</ele>
        <time>2024-08-27T08:56:35Z</time>
      </trkpt>
      <trkpt lat="44.89807" lon="5.89686">
        <ele>787.4</ele>
        <time>2024-08-27T08:56:36Z</time>
      </trkpt>
      <trkpt lat="44.89808" lon="5.89691">
        <ele>787.5</ele>
        <time>2024-08-27T08:56:37Z</time>
      </trkpt>
      <trkpt lat="44.8981" lon="5.89696">
        <ele>787.6</ele>
        <time>2024-08-27T08:56:38Z</time>
      </trkpt>
      <trkpt lat="44.89812" lon="5.897">
        <ele>787.8</ele>
        <time>2024-08-27T08:56:39Z</time>
      </trkpt>
      <trkpt lat="44.89814" lon="5.89705">
        <ele>787.9</ele>
        <time>2024-08-27T08:56:40Z</time>
      </trkpt>
      <trkpt lat="44.89817" lon="5.8971">
        <ele>788</ele>
        <time>2024-08-27T08:56:41Z</time>
      </trkpt>
      <trkpt lat="44.89819" lon="5.89715">
        <ele>788.2</ele>
        <time>2024-08-27T08:56:42Z</time>
      </trkpt>
      <trkpt lat="44.8982" lon="5.8972">
        <ele>788.3</ele>
        <time>2024-08-27T08:56:43Z</time>
      </trkpt>
      <trkpt lat="44.89823" lon="5.89725">
        <ele>788.4</ele>
        <time>2024-08-27T08:56:44Z</time>
      </trkpt>
      <trkpt lat="44.89825" lon="5.8973">
        <ele>788.6</ele>
        <time>2024-08-27T08:56:45Z</time>
      </trkpt>
      <trkpt lat="44.89826" lon="5.89735">
        <ele>788.7</ele>
        <time>2024-08-27T08:56:46Z</time>
      </trkpt>
      <trkpt lat="44.89828" lon="5.89741">
        <ele>788.8</ele>
        <time>2024-08-27T08:56:47Z</time>
      </trkpt>
      <trkpt lat="44.8983" lon="5.89746">
        <ele>788.9</ele>
        <time>2024-08-27T08:56:48Z</time>
      </trkpt>
      <trkpt lat="44.89832" lon="5.89752">
        <ele>789</ele>
        <time>2024-08-27T08:56:49Z</time>
      </trkpt>
      <trkpt lat="44.89834" lon="5.89758">
        <ele>789.1</ele>
        <time>2024-08-27T08:56:50Z</time>
      </trkpt>
      <trkpt lat="44.89836" lon="5.89764">
        <ele>789.2</ele>
        <time>2024-08-27T08:56:51Z</time>
      </trkpt>
      <trkpt lat="44.89838" lon="5.89769">
        <ele>789.3</ele>
        <time>2024-08-27T08:56:52Z</time>
      </trkpt>
      <trkpt lat="44.89839" lon="5.89775">
        <ele>789.5</ele>
        <time>2024-08-27T08:56:53Z</time>
      </trkpt>
      <trkpt lat="44.89841" lon="5.89781">
        <ele>789.6</ele>
        <time>2024-08-27T08:56:54Z</time>
      </trkpt>
      <trkpt lat="44.89843" lon="5.89787">
        <ele>789.7</ele>
        <time>2024-08-27T08:56:55Z</time>
      </trkpt>
      <trkpt lat="44.89845" lon="5.89793">
        <ele>789.8</ele>
        <time>2024-08-27T08:56:56Z</time>
      </trkpt>
      <trkpt lat="44.89847" lon="5.89799">
        <ele>790</ele>
        <time>2024-08-27T08:56:57Z</time>
      </trkpt>
      <trkpt lat="44.89849" lon="5.89804">
        <ele>790.1</ele>
        <time>2024-08-27T08:56:58Z</time>
      </trkpt>
      <trkpt lat="44.89851" lon="5.8981">
        <ele>790.2</ele>
        <time>2024-08-27T08:56:59Z</time>
      </trkpt>
      <trkpt lat="44.89853" lon="5.89816">
        <ele>790.3</ele>
        <time>2024-08-27T08:57:00Z</time>
      </trkpt>
      <trkpt lat="44.89855" lon="5.89822">
        <ele>790.4</ele>
        <time>2024-08-27T08:57:01Z</time>
      </trkpt>
      <trkpt lat="44.89857" lon="5.89828">
        <ele>790.5</ele>
        <time>2024-08-27T08:57:02Z</time>
      </trkpt>
      <trkpt lat="44.89859" lon="5.89834">
        <ele>790.6</ele>
        <time>2024-08-27T08:57:03Z</time>
      </trkpt>
      <trkpt lat="44.89861" lon="5.8984">
        <ele>790.7</ele>
        <time>2024-08-27T08:57:04Z</time>
      </trkpt>
      <trkpt lat="44.89863" lon="5.89846">
        <ele>790.9</ele>
        <time>2024-08-27T08:57:05Z</time>
      </trkpt>
      <trkpt lat="44.89865" lon="5.89851">
        <ele>791</ele>
        <time>2024-08-27T08:57:06Z</time>
      </trkpt>
      <trkpt lat="44.89867" lon="5.89857">
        <ele>791.1</ele>
        <time>2024-08-27T08:57:07Z</time>
      </trkpt>
      <trkpt lat="44.89869" lon="5.89864">
        <ele>791.2</ele>
        <time>2024-08-27T08:57:08Z</time>
      </trkpt>
      <trkpt lat="44.89871" lon="5.8987">
        <ele>791.4</ele>
        <time>2024-08-27T08:57:09Z</time>
      </trkpt>
      <trkpt lat="44.89872" lon="5.89876">
        <ele>791.5</ele>
        <time>2024-08-27T08:57:10Z</time>
      </trkpt>
      <trkpt lat="44.89873" lon="5.89882">
        <ele>791.6</ele>
        <time>2024-08-27T08:57:11Z</time>
      </trkpt>
      <trkpt lat="44.89875" lon="5.89888">
        <ele>791.7</ele>
        <time>2024-08-27T08:57:12Z</time>
      </trkpt>
      <trkpt lat="44.89876" lon="5.89895">
        <ele>791.8</ele>
        <time>2024-08-27T08:57:13Z</time>
      </trkpt>
      <trkpt lat="44.89878" lon="5.89901">
        <ele>791.9</ele>
        <time>2024-08-27T08:57:14Z</time>
      </trkpt>
      <trkpt lat="44.8988" lon="5.89907">
        <ele>791.9</ele>
        <time>2024-08-27T08:57:15Z</time>
      </trkpt>
      <trkpt lat="44.89882" lon="5.89913">
        <ele>791.9</ele>
        <time>2024-08-27T08:57:16Z</time>
      </trkpt>
      <trkpt lat="44.89885" lon="5.89919">
        <ele>792</ele>
        <time>2024-08-27T08:57:17Z</time>
      </trkpt>
      <trkpt lat="44.89888" lon="5.89926">
        <ele>792</ele>
        <time>2024-08-27T08:57:18Z</time>
      </trkpt>
      <trkpt lat="44.8989" lon="5.89931">
        <ele>792.1</ele>
        <time>2024-08-27T08:57:19Z</time>
      </trkpt>
      <trkpt lat="44.89893" lon="5.89937">
        <ele>792.2</ele>
        <time>2024-08-27T08:57:20Z</time>
      </trkpt>
      <trkpt lat="44.89895" lon="5.89943">
        <ele>792.2</ele>
        <time>2024-08-27T08:57:21Z</time>
      </trkpt>
      <trkpt lat="44.89898" lon="5.89949">
        <ele>792.3</ele>
        <time>2024-08-27T08:57:22Z</time>
      </trkpt>
      <trkpt lat="44.899" lon="5.89955">
        <ele>792.4</ele>
        <time>2024-08-27T08:57:23Z</time>
      </trkpt>
      <trkpt lat="44.89902" lon="5.89961">
        <ele>792.4</ele>
        <time>2024-08-27T08:57:24Z</time>
      </trkpt>
      <trkpt lat="44.89905" lon="5.89968">
        <ele>792.4</ele>
        <time>2024-08-27T08:57:25Z</time>
      </trkpt>
      <trkpt lat="44.89907" lon="5.89974">
        <ele>792.5</ele>
        <time>2024-08-27T08:57:26Z</time>
      </trkpt>
      <trkpt lat="44.89909" lon="5.89981">
        <ele>792.5</ele>
        <time>2024-08-27T08:57:27Z</time>
      </trkpt>
      <trkpt lat="44.89911" lon="5.89987">
        <ele>792.6</ele>
        <time>2024-08-27T08:57:28Z</time>
      </trkpt>
      <trkpt lat="44.89914" lon="5.89994">
        <ele>792.6</ele>
        <time>2024-08-27T08:57:29Z</time>
      </trkpt>
      <trkpt lat="44.89916" lon="5.9">
        <ele>792.6</ele>
        <time>2024-08-27T08:57:30Z</time>
      </trkpt>
      <trkpt lat="44.89918" lon="5.90007">
        <ele>792.7</ele>
        <time>2024-08-27T08:57:31Z</time>
      </trkpt>
      <trkpt lat="44.8992" lon="5.90014">
        <ele>792.7</ele>
        <time>2024-08-27T08:57:32Z</time>
      </trkpt>
      <trkpt lat="44.89923" lon="5.90021">
        <ele>792.7</ele>
        <time>2024-08-27T08:57:33Z</time>
      </trkpt>
      <trkpt lat="44.89926" lon="5.90028">
        <ele>792.8</ele>
        <time>2024-08-27T08:57:34Z</time>
      </trkpt>
      <trkpt lat="44.89928" lon="5.90035">
        <ele>792.8</ele>
        <time>2024-08-27T08:57:35Z</time>
      </trkpt>
      <trkpt lat="44.89931" lon="5.90042">
        <ele>792.8</ele>
        <time>2024-08-27T08:57:36Z</time>
      </trkpt>
      <trkpt lat="44.89933" lon="5.90049">
        <ele>792.8</ele>
        <time>2024-08-27T08:57:37Z</time>
      </trkpt>
      <trkpt lat="44.89935" lon="5.90056">
        <ele>792.8</ele>
        <time>2024-08-27T08:57:38Z</time>
      </trkpt>
      <trkpt lat="44.89937" lon="5.90064">
        <ele>792.8</ele>
        <time>2024-08-27T08:57:39Z</time>
      </trkpt>
      <trkpt lat="44.89938" lon="5.90072">
        <ele>792.7</ele>
        <time>2024-08-27T08:57:40Z</time>
      </trkpt>
      <trkpt lat="44.8994" lon="5.90081">
        <ele>792.7</ele>
        <time>2024-08-27T08:57:41Z</time>
      </trkpt>
      <trkpt lat="44.89941" lon="5.9009">
        <ele>792.6</ele>
        <time>2024-08-27T08:57:42Z</time>
      </trkpt>
      <trkpt lat="44.89942" lon="5.90098">
        <ele>792.5</ele>
        <time>2024-08-27T08:57:43Z</time>
      </trkpt>
      <trkpt lat="44.89942" lon="5.90108">
        <ele>792.4</ele>
        <time>2024-08-27T08:57:44Z</time>
      </trkpt>
      <trkpt lat="44.89943" lon="5.90116">
        <ele>792.2</ele>
        <time>2024-08-27T08:57:45Z</time>
      </trkpt>
      <trkpt lat="44.89943" lon="5.90126">
        <ele>792.1</ele>
        <time>2024-08-27T08:57:46Z</time>
      </trkpt>
      <trkpt lat="44.89943" lon="5.90135">
        <ele>792</ele>
        <time>2024-08-27T08:57:47Z</time>
      </trkpt>
      <trkpt lat="44.89942" lon="5.90144">
        <ele>791.9</ele>
        <time>2024-08-27T08:57:48Z</time>
      </trkpt>
      <trkpt lat="44.89941" lon="5.90153">
        <ele>791.9</ele>
        <time>2024-08-27T08:57:49Z</time>
      </trkpt>
      <trkpt lat="44.89941" lon="5.90162">
        <ele>791.9</ele>
        <time>2024-08-27T08:57:50Z</time>
      </trkpt>
      <trkpt lat="44.8994" lon="5.90172">
        <ele>791.9</ele>
        <time>2024-08-27T08:57:51Z</time>
      </trkpt>
      <trkpt lat="44.8994" lon="5.90181">
        <ele>791.9</ele>
        <time>2024-08-27T08:57:52Z</time>
      </trkpt>
      <trkpt lat="44.8994" lon="5.9019">
        <ele>791.9</ele>
        <time>2024-08-27T08:57:53Z</time>
      </trkpt>
      <trkpt lat="44.8994" lon="5.90199">
        <ele>791.9</ele>
        <time>2024-08-27T08:57:54Z</time>
      </trkpt>
      <trkpt lat="44.8994" lon="5.90208">
        <ele>791.9</ele>
        <time>2024-08-27T08:57:55Z</time>
      </trkpt>
      <trkpt lat="44.8994" lon="5.90218">
        <ele>791.9</ele>
        <time>2024-08-27T08:57:56Z</time>
      </trkpt>
      <trkpt lat="44.89941" lon="5.90226">
        <ele>791.9</ele>
        <time>2024-08-27T08:57:57Z</time>
      </trkpt>
      <trkpt lat="44.89942" lon="5.90235">
        <ele>791.9</ele>
        <time>2024-08-27T08:57:58Z</time>
      </trkpt>
      <trkpt lat="44.89944" lon="5.90243">
        <ele>791.9</ele>
        <time>2024-08-27T08:57:59Z</time>
      </trkpt>
      <trkpt lat="44.89945" lon="5.90252">
        <ele>791.9</ele>
        <time>2024-08-27T08:58:00Z</time>
      </trkpt>
      <trkpt lat="44.89945" lon="5.90259">
        <ele>792</ele>
        <time>2024-08-27T08:58:01Z</time>
      </trkpt>
      <trkpt lat="44.89947" lon="5.90267">
        <ele>792</ele>
        <time>2024-08-27T08:58:02Z</time>
      </trkpt>
      <trkpt lat="44.89948" lon="5.90275">
        <ele>792.1</ele>
        <time>2024-08-27T08:58:03Z</time>
      </trkpt>
      <trkpt lat="44.8995" lon="5.90282">
        <ele>792.2</ele>
        <time>2024-08-27T08:58:04Z</time>
      </trkpt>
      <trkpt lat="44.89952" lon="5.90289">
        <ele>792.3</ele>
        <time>2024-08-27T08:58:05Z</time>
      </trkpt>
      <trkpt lat="44.89954" lon="5.90295">
        <ele>792.4</ele>
        <time>2024-08-27T08:58:06Z</time>
      </trkpt>
      <trkpt lat="44.89957" lon="5.903">
        <ele>792.6</ele>
        <time>2024-08-27T08:58:07Z</time>
      </trkpt>
      <trkpt lat="44.89959" lon="5.90306">
        <ele>792.7</ele>
        <time>2024-08-27T08:58:08Z</time>
      </trkpt>
      <trkpt lat="44.89962" lon="5.90311">
        <ele>792.8</ele>
        <time>2024-08-27T08:58:09Z</time>
      </trkpt>
      <trkpt lat="44.89964" lon="5.90316">
        <ele>793</ele>
        <time>2024-08-27T08:58:10Z</time>
      </trkpt>
      <trkpt lat="44.89966" lon="5.90321">
        <ele>793.1</ele>
        <time>2024-08-27T08:58:11Z</time>
      </trkpt>
      <trkpt lat="44.89968" lon="5.90327">
        <ele>793.2</ele>
        <time>2024-08-27T08:58:12Z</time>
      </trkpt>
      <trkpt lat="44.8997" lon="5.90332">
        <ele>793.3</ele>
        <time>2024-08-27T08:58:13Z</time>
      </trkpt>
      <trkpt lat="44.89972" lon="5.90338">
        <ele>793.4</ele>
        <time>2024-08-27T08:58:14Z</time>
      </trkpt>
      <trkpt lat="44.89974" lon="5.90344">
        <ele>793.5</ele>
        <time>2024-08-27T08:58:15Z</time>
      </trkpt>
      <trkpt lat="44.89975" lon="5.90351">
        <ele>793.6</ele>
        <time>2024-08-27T08:58:16Z</time>
      </trkpt>
      <trkpt lat="44.89977" lon="5.90357">
        <ele>793.7</ele>
        <time>2024-08-27T08:58:17Z</time>
      </trkpt>
      <trkpt lat="44.89979" lon="5.90364">
        <ele>793.8</ele>
        <time>2024-08-27T08:58:18Z</time>
      </trkpt>
      <trkpt lat="44.8998" lon="5.9037">
        <ele>793.9</ele>
        <time>2024-08-27T08:58:19Z</time>
      </trkpt>
      <trkpt lat="44.89982" lon="5.90377">
        <ele>794</ele>
        <time>2024-08-27T08:58:20Z</time>
      </trkpt>
      <trkpt lat="44.89984" lon="5.90383">
        <ele>794.1</ele>
        <time>2024-08-27T08:58:21Z</time>
      </trkpt>
      <trkpt lat="44.89986" lon="5.90389">
        <ele>794.2</ele>
        <time>2024-08-27T08:58:22Z</time>
      </trkpt>
      <trkpt lat="44.89988" lon="5.90395">
        <ele>794.3</ele>
        <time>2024-08-27T08:58:23Z</time>
      </trkpt>
      <trkpt lat="44.8999" lon="5.90401">
        <ele>794.4</ele>
        <time>2024-08-27T08:58:24Z</time>
      </trkpt>
      <trkpt lat="44.89992" lon="5.90407">
        <ele>794.6</ele>
        <time>2024-08-27T08:58:25Z</time>
      </trkpt>
      <trkpt lat="44.89993" lon="5.90413">
        <ele>794.7</ele>
        <time>2024-08-27T08:58:26Z</time>
      </trkpt>
      <trkpt lat="44.89995" lon="5.90419">
        <ele>794.9</ele>
        <time>2024-08-27T08:58:27Z</time>
      </trkpt>
      <trkpt lat="44.89997" lon="5.90425">
        <ele>795</ele>
        <time>2024-08-27T08:58:28Z</time>
      </trkpt>
      <trkpt lat="44.89998" lon="5.90431">
        <ele>795.1</ele>
        <time>2024-08-27T08:58:29Z</time>
      </trkpt>
      <trkpt lat="44.9" lon="5.90437">
        <ele>795.3</ele>
        <time>2024-08-27T08:58:30Z</time>
      </trkpt>
      <trkpt lat="44.90002" lon="5.90443">
        <ele>795.4</ele>
        <time>2024-08-27T08:58:31Z</time>
      </trkpt>
      <trkpt lat="44.90003" lon="5.90449">
        <ele>795.6</ele>
        <time>2024-08-27T08:58:32Z</time>
      </trkpt>
      <trkpt lat="44.90005" lon="5.90455">
        <ele>795.7</ele>
        <time>2024-08-27T08:58:33Z</time>
      </trkpt>
      <trkpt lat="44.90006" lon="5.90461">
        <ele>795.8</ele>
        <time>2024-08-27T08:58:34Z</time>
      </trkpt>
      <trkpt lat="44.90007" lon="5.90467">
        <ele>795.9</ele>
        <time>2024-08-27T08:58:35Z</time>
      </trkpt>
      <trkpt lat="44.90009" lon="5.90473">
        <ele>796</ele>
        <time>2024-08-27T08:58:36Z</time>
      </trkpt>
      <trkpt lat="44.9001" lon="5.90479">
        <ele>796.1</ele>
        <time>2024-08-27T08:58:37Z</time>
      </trkpt>
      <trkpt lat="44.90011" lon="5.90485">
        <ele>796.2</ele>
        <time>2024-08-27T08:58:38Z</time>
      </trkpt>
      <trkpt lat="44.90012" lon="5.9049">
        <ele>796.2</ele>
        <time>2024-08-27T08:58:39Z</time>
      </trkpt>
      <trkpt lat="44.90014" lon="5.90496">
        <ele>796.2</ele>
        <time>2024-08-27T08:58:40Z</time>
      </trkpt>
      <trkpt lat="44.90014" lon="5.90502">
        <ele>796.1</ele>
        <time>2024-08-27T08:58:41Z</time>
      </trkpt>
      <trkpt lat="44.90016" lon="5.90507">
        <ele>796.1</ele>
        <time>2024-08-27T08:58:42Z</time>
      </trkpt>
      <trkpt lat="44.90016" lon="5.90513">
        <ele>796</ele>
        <time>2024-08-27T08:58:43Z</time>
      </trkpt>
      <trkpt lat="44.90018" lon="5.90518">
        <ele>796</ele>
        <time>2024-08-27T08:58:44Z</time>
      </trkpt>
      <trkpt lat="44.90019" lon="5.90524">
        <ele>795.9</ele>
        <time>2024-08-27T08:58:45Z</time>
      </trkpt>
      <trkpt lat="44.9002" lon="5.9053">
        <ele>795.9</ele>
        <time>2024-08-27T08:58:46Z</time>
      </trkpt>
      <trkpt lat="44.90021" lon="5.90535">
        <ele>795.8</ele>
        <time>2024-08-27T08:58:47Z</time>
      </trkpt>
      <trkpt lat="44.90023" lon="5.90541">
        <ele>795.7</ele>
        <time>2024-08-27T08:58:48Z</time>
      </trkpt>
      <trkpt lat="44.90024" lon="5.90547">
        <ele>795.6</ele>
        <time>2024-08-27T08:58:49Z</time>
      </trkpt>
      <trkpt lat="44.90025" lon="5.90553">
        <ele>795.5</ele>
        <time>2024-08-27T08:58:50Z</time>
      </trkpt>
      <trkpt lat="44.90025" lon="5.90559">
        <ele>795.4</ele>
        <time>2024-08-27T08:58:51Z</time>
      </trkpt>
      <trkpt lat="44.90027" lon="5.90566">
        <ele>795.3</ele>
        <time>2024-08-27T08:58:52Z</time>
      </trkpt>
      <trkpt lat="44.90028" lon="5.90573">
        <ele>795.1</ele>
        <time>2024-08-27T08:58:53Z</time>
      </trkpt>
      <trkpt lat="44.90029" lon="5.9058">
        <ele>794.9</ele>
        <time>2024-08-27T08:58:54Z</time>
      </trkpt>
      <trkpt lat="44.90031" lon="5.90588">
        <ele>794.7</ele>
        <time>2024-08-27T08:58:55Z</time>
      </trkpt>
      <trkpt lat="44.90031" lon="5.90595">
        <ele>794.6</ele>
        <time>2024-08-27T08:58:56Z</time>
      </trkpt>
      <trkpt lat="44.90031" lon="5.90603">
        <ele>794.4</ele>
        <time>2024-08-27T08:58:57Z</time>
      </trkpt>
      <trkpt lat="44.9003" lon="5.90612">
        <ele>794.2</ele>
        <time>2024-08-27T08:58:58Z</time>
      </trkpt>
      <trkpt lat="44.90029" lon="5.90621">
        <ele>794</ele>
        <time>2024-08-27T08:58:59Z</time>
      </trkpt>
      <trkpt lat="44.90029" lon="5.9063">
        <ele>793.8</ele>
        <time>2024-08-27T08:59:00Z</time>
      </trkpt>
      <trkpt lat="44.90028" lon="5.90639">
        <ele>793.7</ele>
        <time>2024-08-27T08:59:01Z</time>
      </trkpt>
      <trkpt lat="44.90028" lon="5.9065">
        <ele>793.5</ele>
        <time>2024-08-27T08:59:02Z</time>
      </trkpt>
      <trkpt lat="44.90028" lon="5.9066">
        <ele>793.3</ele>
        <time>2024-08-27T08:59:03Z</time>
      </trkpt>
      <trkpt lat="44.90028" lon="5.9067">
        <ele>793.1</ele>
        <time>2024-08-27T08:59:04Z</time>
      </trkpt>
      <trkpt lat="44.90028" lon="5.90681">
        <ele>792.9</ele>
        <time>2024-08-27T08:59:05Z</time>
      </trkpt>
      <trkpt lat="44.90027" lon="5.90691">
        <ele>792.8</ele>
        <time>2024-08-27T08:59:06Z</time>
      </trkpt>
      <trkpt lat="44.90027" lon="5.90702">
        <ele>792.6</ele>
        <time>2024-08-27T08:59:07Z</time>
      </trkpt>
      <trkpt lat="44.90027" lon="5.90713">
        <ele>792.5</ele>
        <time>2024-08-27T08:59:08Z</time>
      </trkpt>
      <trkpt lat="44.90027" lon="5.90723">
        <ele>792.4</ele>
        <time>2024-08-27T08:59:09Z</time>
      </trkpt>
      <trkpt lat="44.90027" lon="5.90733">
        <ele>792.3</ele>
        <time>2024-08-27T08:59:10Z</time>
      </trkpt>
      <trkpt lat="44.90027" lon="5.90743">
        <ele>792.2</ele>
        <time>2024-08-27T08:59:11Z</time>
      </trkpt>
      <trkpt lat="44.90027" lon="5.90753">
        <ele>792.2</ele>
        <time>2024-08-27T08:59:12Z</time>
      </trkpt>
      <trkpt lat="44.90026" lon="5.90763">
        <ele>792.1</ele>
        <time>2024-08-27T08:59:13Z</time>
      </trkpt>
      <trkpt lat="44.90026" lon="5.90773">
        <ele>792</ele>
        <time>2024-08-27T08:59:14Z</time>
      </trkpt>
      <trkpt lat="44.90026" lon="5.90783">
        <ele>791.9</ele>
        <time>2024-08-27T08:59:15Z</time>
      </trkpt>
      <trkpt lat="44.90026" lon="5.90793">
        <ele>791.8</ele>
        <time>2024-08-27T08:59:16Z</time>
      </trkpt>
      <trkpt lat="44.90026" lon="5.90803">
        <ele>791.7</ele>
        <time>2024-08-27T08:59:17Z</time>
      </trkpt>
      <trkpt lat="44.90026" lon="5.90812">
        <ele>791.7</ele>
        <time>2024-08-27T08:59:18Z</time>
      </trkpt>
      <trkpt lat="44.90026" lon="5.90822">
        <ele>791.6</ele>
        <time>2024-08-27T08:59:19Z</time>
      </trkpt>
      <trkpt lat="44.90026" lon="5.90832">
        <ele>791.5</ele>
        <time>2024-08-27T08:59:20Z</time>
      </trkpt>
      <trkpt lat="44.90025" lon="5.90842">
        <ele>791.5</ele>
        <time>2024-08-27T08:59:21Z</time>
      </trkpt>
      <trkpt lat="44.90025" lon="5.90852">
        <ele>791.4</ele>
        <time>2024-08-27T08:59:22Z</time>
      </trkpt>
      <trkpt lat="44.90025" lon="5.90861">
        <ele>791.3</ele>
        <time>2024-08-27T08:59:23Z</time>
      </trkpt>
      <trkpt lat="44.90026" lon="5.9087">
        <ele>791.2</ele>
        <time>2024-08-27T08:59:24Z</time>
      </trkpt>
      <trkpt lat="44.90026" lon="5.90879">
        <ele>791.1</ele>
        <time>2024-08-27T08:59:25Z</time>
      </trkpt>
      <trkpt lat="44.90026" lon="5.9089">
        <ele>790.9</ele>
        <time>2024-08-27T08:59:26Z</time>
      </trkpt>
      <trkpt lat="44.90025" lon="5.909">
        <ele>790.8</ele>
        <time>2024-08-27T08:59:27Z</time>
      </trkpt>
      <trkpt lat="44.90025" lon="5.9091">
        <ele>790.6</ele>
        <time>2024-08-27T08:59:28Z</time>
      </trkpt>
      <trkpt lat="44.90025" lon="5.90919">
        <ele>790.5</ele>
        <time>2024-08-27T08:59:29Z</time>
      </trkpt>
      <trkpt lat="44.90025" lon="5.90929">
        <ele>790.3</ele>
        <time>2024-08-27T08:59:30Z</time>
      </trkpt>
      <trkpt lat="44.90024" lon="5.90939">
        <ele>790.2</ele>
        <time>2024-08-27T08:59:31Z</time>
      </trkpt>
      <trkpt lat="44.90024" lon="5.90948">
        <ele>790</ele>
        <time>2024-08-27T08:59:32Z</time>
      </trkpt>
      <trkpt lat="44.90024" lon="5.90958">
        <ele>789.9</ele>
        <time>2024-08-27T08:59:33Z</time>
      </trkpt>
      <trkpt lat="44.90024" lon="5.90968">
        <ele>789.7</ele>
        <time>2024-08-27T08:59:34Z</time>
      </trkpt>
      <trkpt lat="44.90023" lon="5.90978">
        <ele>789.6</ele>
        <time>2024-08-27T08:59:35Z</time>
      </trkpt>
      <trkpt lat="44.90021" lon="5.90987">
        <ele>789.4</ele>
        <time>2024-08-27T08:59:36Z</time>
      </trkpt>
      <trkpt lat="44.90019" lon="5.90996">
        <ele>789.3</ele>
        <time>2024-08-27T08:59:37Z</time>
      </trkpt>
      <trkpt lat="44.90016" lon="5.91005">
        <ele>789.1</ele>
        <time>2024-08-27T08:59:38Z</time>
      </trkpt>
      <trkpt lat="44.90013" lon="5.91014">
        <ele>788.9</ele>
        <time>2024-08-27T08:59:39Z</time>
      </trkpt>
      <trkpt lat="44.90009" lon="5.91022">
        <ele>788.8</ele>
        <time>2024-08-27T08:59:40Z</time>
      </trkpt>
      <trkpt lat="44.90005" lon="5.91031">
        <ele>788.6</ele>
        <time>2024-08-27T08:59:41Z</time>
      </trkpt>
      <trkpt lat="44.90001" lon="5.91038">
        <ele>788.4</ele>
        <time>2024-08-27T08:59:42Z</time>
      </trkpt>
      <trkpt lat="44.89996" lon="5.91046">
        <ele>788.3</ele>
        <time>2024-08-27T08:59:43Z</time>
      </trkpt>
      <trkpt lat="44.89991" lon="5.91053">
        <ele>788.1</ele>
        <time>2024-08-27T08:59:44Z</time>
      </trkpt>
      <trkpt lat="44.89986" lon="5.9106">
        <ele>787.9</ele>
        <time>2024-08-27T08:59:45Z</time>
      </trkpt>
      <trkpt lat="44.89981" lon="5.91066">
        <ele>787.7</ele>
        <time>2024-08-27T08:59:46Z</time>
      </trkpt>
      <trkpt lat="44.89975" lon="5.91072">
        <ele>787.5</ele>
        <time>2024-08-27T08:59:47Z</time>
      </trkpt>
      <trkpt lat="44.8997" lon="5.91079">
        <ele>787.3</ele>
        <time>2024-08-27T08:59:48Z</time>
      </trkpt>
      <trkpt lat="44.89965" lon="5.91086">
        <ele>787.2</ele>
        <time>2024-08-27T08:59:49Z</time>
      </trkpt>
      <trkpt lat="44.8996" lon="5.91093">
        <ele>787</ele>
        <time>2024-08-27T08:59:50Z</time>
      </trkpt>
      <trkpt lat="44.89955" lon="5.911">
        <ele>786.8</ele>
        <time>2024-08-27T08:59:51Z</time>
      </trkpt>
      <trkpt lat="44.89949" lon="5.91105">
        <ele>786.7</ele>
        <time>2024-08-27T08:59:52Z</time>
      </trkpt>
      <trkpt lat="44.89944" lon="5.91111">
        <ele>786.5</ele>
        <time>2024-08-27T08:59:53Z</time>
      </trkpt>
      <trkpt lat="44.89938" lon="5.91117">
        <ele>786.3</ele>
        <time>2024-08-27T08:59:54Z</time>
      </trkpt>
      <trkpt lat="44.89933" lon="5.91124">
        <ele>786.1</ele>
        <time>2024-08-27T08:59:55Z</time>
      </trkpt>
      <trkpt lat="44.89928" lon="5.91131">
        <ele>785.9</ele>
        <time>2024-08-27T08:59:56Z</time>
      </trkpt>
      <trkpt lat="44.89922" lon="5.91137">
        <ele>785.7</ele>
        <time>2024-08-27T08:59:57Z</time>
      </trkpt>
      <trkpt lat="44.89916" lon="5.91143">
        <ele>785.6</ele>
        <time>2024-08-27T08:59:58Z</time>
      </trkpt>
      <trkpt lat="44.89911" lon="5.9115">
        <ele>785.4</ele>
        <time>2024-08-27T08:59:59Z</time>
      </trkpt>
      <trkpt lat="44.89906" lon="5.91156">
        <ele>785.3</ele>
        <time>2024-08-27T09:00:00Z</time>
      </trkpt>
      <trkpt lat="44.899" lon="5.91163">
        <ele>785.1</ele>
        <time>2024-08-27T09:00:01Z</time>
      </trkpt>
      <trkpt lat="44.89895" lon="5.91169">
        <ele>785</ele>
        <time>2024-08-27T09:00:02Z</time>
      </trkpt>
      <trkpt lat="44.89889" lon="5.91176">
        <ele>784.8</ele>
        <time>2024-08-27T09:00:03Z</time>
      </trkpt>
      <trkpt lat="44.89884" lon="5.91182">
        <ele>784.7</ele>
        <time>2024-08-27T09:00:04Z</time>
      </trkpt>
      <trkpt lat="44.89879" lon="5.91189">
        <ele>784.5</ele>
        <time>2024-08-27T09:00:05Z</time>
      </trkpt>
      <trkpt lat="44.89873" lon="5.91196">
        <ele>784.4</ele>
        <time>2024-08-27T09:00:06Z</time>
      </trkpt>
      <trkpt lat="44.89868" lon="5.91202">
        <ele>784.3</ele>
        <time>2024-08-27T09:00:07Z</time>
      </trkpt>
      <trkpt lat="44.89862" lon="5.91209">
        <ele>784.1</ele>
        <time>2024-08-27T09:00:08Z</time>
      </trkpt>
      <trkpt lat="44.89856" lon="5.91215">
        <ele>784</ele>
        <time>2024-08-27T09:00:09Z</time>
      </trkpt>
      <trkpt lat="44.89851" lon="5.91223">
        <ele>783.8</ele>
        <time>2024-08-27T09:00:10Z</time>
      </trkpt>
      <trkpt lat="44.89845" lon="5.9123">
        <ele>783.7</ele>
        <time>2024-08-27T09:00:11Z</time>
      </trkpt>
      <trkpt lat="44.8984" lon="5.91236">
        <ele>783.5</ele>
        <time>2024-08-27T09:00:12Z</time>
      </trkpt>
      <trkpt lat="44.89835" lon="5.91243">
        <ele>783.3</ele>
        <time>2024-08-27T09:00:13Z</time>
      </trkpt>
      <trkpt lat="44.89829" lon="5.9125">
        <ele>783.2</ele>
        <time>2024-08-27T09:00:14Z</time>
      </trkpt>
      <trkpt lat="44.89824" lon="5.91257">
        <ele>783</ele>
        <time>2024-08-27T09:00:15Z</time>
      </trkpt>
      <trkpt lat="44.89819" lon="5.91264">
        <ele>782.9</ele>
        <time>2024-08-27T09:00:16Z</time>
      </trkpt>
      <trkpt lat="44.89813" lon="5.91271">
        <ele>782.7</ele>
        <time>2024-08-27T09:00:17Z</time>
      </trkpt>
      <trkpt lat="44.89809" lon="5.91279">
        <ele>782.6</ele>
        <time>2024-08-27T09:00:18Z</time>
      </trkpt>
      <trkpt lat="44.89804" lon="5.91287">
        <ele>782.5</ele>
        <time>2024-08-27T09:00:19Z</time>
      </trkpt>
      <trkpt lat="44.898" lon="5.91295">
        <ele>782.3</ele>
        <time>2024-08-27T09:00:20Z</time>
      </trkpt>
      <trkpt lat="44.89795" lon="5.91303">
        <ele>782.2</ele>
        <time>2024-08-27T09:00:21Z</time>
      </trkpt>
      <trkpt lat="44.89791" lon="5.91312">
        <ele>782</ele>
        <time>2024-08-27T09:00:22Z</time>
      </trkpt>
      <trkpt lat="44.89787" lon="5.91321">
        <ele>781.9</ele>
        <time>2024-08-27T09:00:23Z</time>
      </trkpt>
      <trkpt lat="44.89784" lon="5.9133">
        <ele>781.7</ele>
        <time>2024-08-27T09:00:24Z</time>
      </trkpt>
      <trkpt lat="44.89781" lon="5.9134">
        <ele>781.5</ele>
        <time>2024-08-27T09:00:25Z</time>
      </trkpt>
      <trkpt lat="44.89778" lon="5.91349">
        <ele>781.4</ele>
        <time>2024-08-27T09:00:26Z</time>
      </trkpt>
      <trkpt lat="44.89776" lon="5.91359">
        <ele>781.2</ele>
        <time>2024-08-27T09:00:27Z</time>
      </trkpt>
      <trkpt lat="44.89774" lon="5.91369">
        <ele>781.1</ele>
        <time>2024-08-27T09:00:28Z</time>
      </trkpt>
      <trkpt lat="44.89772" lon="5.9138">
        <ele>780.9</ele>
        <time>2024-08-27T09:00:29Z</time>
      </trkpt>
      <trkpt lat="44.89771" lon="5.9139">
        <ele>780.8</ele>
        <time>2024-08-27T09:00:30Z</time>
      </trkpt>
      <trkpt lat="44.8977" lon="5.91401">
        <ele>780.5</ele>
        <time>2024-08-27T09:00:31Z</time>
      </trkpt>
      <trkpt lat="44.89771" lon="5.91412">
        <ele>780.2</ele>
        <time>2024-08-27T09:00:32Z</time>
      </trkpt>
      <trkpt lat="44.89771" lon="5.91424">
        <ele>779.8</ele>
        <time>2024-08-27T09:00:33Z</time>
      </trkpt>
      <trkpt lat="44.89771" lon="5.91435">
        <ele>779.4</ele>
        <time>2024-08-27T09:00:34Z</time>
      </trkpt>
      <trkpt lat="44.8977" lon="5.91447">
        <ele>779</ele>
        <time>2024-08-27T09:00:35Z</time>
      </trkpt>
      <trkpt lat="44.8977" lon="5.91459">
        <ele>778.6</ele>
        <time>2024-08-27T09:00:36Z</time>
      </trkpt>
      <trkpt lat="44.89768" lon="5.91471">
        <ele>778.2</ele>
        <time>2024-08-27T09:00:37Z</time>
      </trkpt>
      <trkpt lat="44.89765" lon="5.91483">
        <ele>777.8</ele>
        <time>2024-08-27T09:00:38Z</time>
      </trkpt>
      <trkpt lat="44.89761" lon="5.91493">
        <ele>777.5</ele>
        <time>2024-08-27T09:00:39Z</time>
      </trkpt>
      <trkpt lat="44.89754" lon="5.91502">
        <ele>777.1</ele>
        <time>2024-08-27T09:00:40Z</time>
      </trkpt>
      <trkpt lat="44.89746" lon="5.91507">
        <ele>776.7</ele>
        <time>2024-08-27T09:00:41Z</time>
      </trkpt>
      <trkpt lat="44.89737" lon="5.9151">
        <ele>776.3</ele>
        <time>2024-08-27T09:00:42Z</time>
      </trkpt>
      <trkpt lat="44.89728" lon="5.91512">
        <ele>776</ele>
        <time>2024-08-27T09:00:43Z</time>
      </trkpt>
      <trkpt lat="44.8972" lon="5.91515">
        <ele>775.7</ele>
        <time>2024-08-27T09:00:44Z</time>
      </trkpt>
      <trkpt lat="44.89711" lon="5.91517">
        <ele>775.3</ele>
        <time>2024-08-27T09:00:45Z</time>
      </trkpt>
      <trkpt lat="44.89703" lon="5.9152">
        <ele>775</ele>
        <time>2024-08-27T09:00:46Z</time>
      </trkpt>
      <trkpt lat="44.89694" lon="5.91523">
        <ele>774.7</ele>
        <time>2024-08-27T09:00:47Z</time>
      </trkpt>
      <trkpt lat="44.89686" lon="5.91527">
        <ele>774.4</ele>
        <time>2024-08-27T09:00:48Z</time>
      </trkpt>
      <trkpt lat="44.89678" lon="5.91532">
        <ele>774.2</ele>
        <time>2024-08-27T09:00:49Z</time>
      </trkpt>
      <trkpt lat="44.89672" lon="5.91541">
        <ele>773.9</ele>
        <time>2024-08-27T09:00:50Z</time>
      </trkpt>
      <trkpt lat="44.89667" lon="5.91552">
        <ele>773.5</ele>
        <time>2024-08-27T09:00:51Z</time>
      </trkpt>
      <trkpt lat="44.89666" lon="5.91564">
        <ele>773.2</ele>
        <time>2024-08-27T09:00:52Z</time>
      </trkpt>
      <trkpt lat="44.89667" lon="5.91577">
        <ele>772.8</ele>
        <time>2024-08-27T09:00:53Z</time>
      </trkpt>
      <trkpt lat="44.89669" lon="5.91589">
        <ele>772.5</ele>
        <time>2024-08-27T09:00:54Z</time>
      </trkpt>
      <trkpt lat="44.8967" lon="5.916">
        <ele>772.2</ele>
        <time>2024-08-27T09:00:55Z</time>
      </trkpt>
      <trkpt lat="44.89672" lon="5.91612">
        <ele>771.8</ele>
        <time>2024-08-27T09:00:56Z</time>
      </trkpt>
      <trkpt lat="44.89676" lon="5.91624">
        <ele>771.5</ele>
        <time>2024-08-27T09:00:57Z</time>
      </trkpt>
      <trkpt lat="44.89682" lon="5.91634">
        <ele>771.1</ele>
        <time>2024-08-27T09:00:58Z</time>
      </trkpt>
      <trkpt lat="44.89689" lon="5.91641">
        <ele>770.6</ele>
        <time>2024-08-27T09:00:59Z</time>
      </trkpt>
      <trkpt lat="44.89698" lon="5.91647">
        <ele>770.2</ele>
        <time>2024-08-27T09:01:00Z</time>
      </trkpt>
      <trkpt lat="44.89706" lon="5.91652">
        <ele>769.8</ele>
        <time>2024-08-27T09:01:01Z</time>
      </trkpt>
      <trkpt lat="44.89714" lon="5.91659">
        <ele>769.4</ele>
        <time>2024-08-27T09:01:02Z</time>
      </trkpt>
      <trkpt lat="44.89721" lon="5.91668">
        <ele>768.9</ele>
        <time>2024-08-27T09:01:03Z</time>
      </trkpt>
      <trkpt lat="44.89727" lon="5.91679">
        <ele>768.4</ele>
        <time>2024-08-27T09:01:04Z</time>
      </trkpt>
      <trkpt lat="44.89732" lon="5.9169">
        <ele>767.9</ele>
        <time>2024-08-27T09:01:05Z</time>
      </trkpt>
      <trkpt lat="44.89732" lon="5.91705">
        <ele>767.2</ele>
        <time>2024-08-27T09:01:06Z</time>
      </trkpt>
      <trkpt lat="44.8973" lon="5.9172">
        <ele>766.5</ele>
        <time>2024-08-27T09:01:07Z</time>
      </trkpt>
      <trkpt lat="44.89726" lon="5.91733">
        <ele>765.9</ele>
        <time>2024-08-27T09:01:08Z</time>
      </trkpt>
      <trkpt lat="44.89722" lon="5.91746">
        <ele>765.4</ele>
        <time>2024-08-27T09:01:09Z</time>
      </trkpt>
      <trkpt lat="44.89719" lon="5.91759">
        <ele>764.9</ele>
        <time>2024-08-27T09:01:10Z</time>
      </trkpt>
      <trkpt lat="44.8972" lon="5.91774">
        <ele>764.4</ele>
        <time>2024-08-27T09:01:11Z</time>
      </trkpt>
      <trkpt lat="44.89723" lon="5.91787">
        <ele>763.9</ele>
        <time>2024-08-27T09:01:12Z</time>
      </trkpt>
      <trkpt lat="44.89728" lon="5.918">
        <ele>763.4</ele>
        <time>2024-08-27T09:01:13Z</time>
      </trkpt>
      <trkpt lat="44.89733" lon="5.91812">
        <ele>763</ele>
        <time>2024-08-27T09:01:14Z</time>
      </trkpt>
      <trkpt lat="44.89738" lon="5.91825">
        <ele>762.5</ele>
        <time>2024-08-27T09:01:15Z</time>
      </trkpt>
      <trkpt lat="44.89743" lon="5.91837">
        <ele>762</ele>
        <time>2024-08-27T09:01:16Z</time>
      </trkpt>
      <trkpt lat="44.89747" lon="5.9185">
        <ele>761.5</ele>
        <time>2024-08-27T09:01:17Z</time>
      </trkpt>
      <trkpt lat="44.89752" lon="5.91863">
        <ele>761.1</ele>
        <time>2024-08-27T09:01:18Z</time>
      </trkpt>
      <trkpt lat="44.89756" lon="5.91875">
        <ele>760.7</ele>
        <time>2024-08-27T09:01:19Z</time>
      </trkpt>
      <trkpt lat="44.89761" lon="5.91888">
        <ele>760.3</ele>
        <time>2024-08-27T09:01:20Z</time>
      </trkpt>
      <trkpt lat="44.89765" lon="5.919">
        <ele>759.9</ele>
        <time>2024-08-27T09:01:21Z</time>
      </trkpt>
      <trkpt lat="44.8977" lon="5.91912">
        <ele>759.6</ele>
        <time>2024-08-27T09:01:22Z</time>
      </trkpt>
      <trkpt lat="44.89774" lon="5.91924">
        <ele>759.2</ele>
        <time>2024-08-27T09:01:23Z</time>
      </trkpt>
      <trkpt lat="44.8978" lon="5.91935">
        <ele>758.8</ele>
        <time>2024-08-27T09:01:24Z</time>
      </trkpt>
      <trkpt lat="44.89785" lon="5.91946">
        <ele>758.4</ele>
        <time>2024-08-27T09:01:25Z</time>
      </trkpt>
      <trkpt lat="44.89791" lon="5.91957">
        <ele>758</ele>
        <time>2024-08-27T09:01:26Z</time>
      </trkpt>
      <trkpt lat="44.89797" lon="5.91967">
        <ele>757.6</ele>
        <time>2024-08-27T09:01:27Z</time>
      </trkpt>
      <trkpt lat="44.89803" lon="5.91978">
        <ele>757.2</ele>
        <time>2024-08-27T09:01:28Z</time>
      </trkpt>
      <trkpt lat="44.89809" lon="5.9199">
        <ele>756.7</ele>
        <time>2024-08-27T09:01:29Z</time>
      </trkpt>
      <trkpt lat="44.89814" lon="5.92002">
        <ele>756.3</ele>
        <time>2024-08-27T09:01:30Z</time>
      </trkpt>
      <trkpt lat="44.89818" lon="5.92015">
        <ele>755.8</ele>
        <time>2024-08-27T09:01:31Z</time>
      </trkpt>
      <trkpt lat="44.89822" lon="5.92028">
        <ele>755.3</ele>
        <time>2024-08-27T09:01:32Z</time>
      </trkpt>
      <trkpt lat="44.89827" lon="5.92041">
        <ele>754.7</ele>
        <time>2024-08-27T09:01:33Z</time>
      </trkpt>
      <trkpt lat="44.89831" lon="5.92054">
        <ele>754.2</ele>
        <time>2024-08-27T09:01:34Z</time>
      </trkpt>
      <trkpt lat="44.89835" lon="5.92068">
        <ele>753.8</ele>
        <time>2024-08-27T09:01:35Z</time>
      </trkpt>
      <trkpt lat="44.89837" lon="5.92083">
        <ele>753.4</ele>
        <time>2024-08-27T09:01:36Z</time>
      </trkpt>
      <trkpt lat="44.89838" lon="5.92098">
        <ele>753</ele>
        <time>2024-08-27T09:01:37Z</time>
      </trkpt>
      <trkpt lat="44.89838" lon="5.92113">
        <ele>752.7</ele>
        <time>2024-08-27T09:01:38Z</time>
      </trkpt>
      <trkpt lat="44.89837" lon="5.92128">
        <ele>752.3</ele>
        <time>2024-08-27T09:01:39Z</time>
      </trkpt>
      <trkpt lat="44.89837" lon="5.92142">
        <ele>751.9</ele>
        <time>2024-08-27T09:01:40Z</time>
      </trkpt>
      <trkpt lat="44.89837" lon="5.92157">
        <ele>751.5</ele>
        <time>2024-08-27T09:01:41Z</time>
      </trkpt>
      <trkpt lat="44.89835" lon="5.92171">
        <ele>751</ele>
        <time>2024-08-27T09:01:42Z</time>
      </trkpt>
      <trkpt lat="44.89832" lon="5.92185">
        <ele>750.5</ele>
        <time>2024-08-27T09:01:43Z</time>
      </trkpt>
      <trkpt lat="44.89828" lon="5.92199">
        <ele>750</ele>
        <time>2024-08-27T09:01:44Z</time>
      </trkpt>
      <trkpt lat="44.89823" lon="5.92211">
        <ele>749.6</ele>
        <time>2024-08-27T09:01:45Z</time>
      </trkpt>
      <trkpt lat="44.89818" lon="5.92224">
        <ele>750.3</ele>
        <time>2024-08-27T09:01:46Z</time>
      </trkpt>
      <trkpt lat="44.89814" lon="5.92237">
        <ele>749.9</ele>
        <time>2024-08-27T09:01:47Z</time>
      </trkpt>
      <trkpt lat="44.8981" lon="5.92249">
        <ele>749.5</ele>
        <time>2024-08-27T09:01:48Z</time>
      </trkpt>
      <trkpt lat="44.89807" lon="5.92262">
        <ele>749.1</ele>
        <time>2024-08-27T09:01:49Z</time>
      </trkpt>
      <trkpt lat="44.89804" lon="5.92275">
        <ele>748.7</ele>
        <time>2024-08-27T09:01:50Z</time>
      </trkpt>
      <trkpt lat="44.89802" lon="5.92288">
        <ele>748.3</ele>
        <time>2024-08-27T09:01:51Z</time>
      </trkpt>
      <trkpt lat="44.89799" lon="5.92301">
        <ele>747.9</ele>
        <time>2024-08-27T09:01:52Z</time>
      </trkpt>
      <trkpt lat="44.89797" lon="5.92314">
        <ele>747.5</ele>
        <time>2024-08-27T09:01:53Z</time>
      </trkpt>
      <trkpt lat="44.89795" lon="5.92327">
        <ele>747.2</ele>
        <time>2024-08-27T09:01:54Z</time>
      </trkpt>
      <trkpt lat="44.89793" lon="5.9234">
        <ele>746.8</ele>
        <time>2024-08-27T09:01:55Z</time>
      </trkpt>
      <trkpt lat="44.89791" lon="5.92352">
        <ele>746.5</ele>
        <time>2024-08-27T09:01:56Z</time>
      </trkpt>
      <trkpt lat="44.89789" lon="5.92365">
        <ele>746.1</ele>
        <time>2024-08-27T09:01:57Z</time>
      </trkpt>
      <trkpt lat="44.89787" lon="5.92378">
        <ele>745.8</ele>
        <time>2024-08-27T09:01:58Z</time>
      </trkpt>
      <trkpt lat="44.89785" lon="5.92391">
        <ele>745.5</ele>
        <time>2024-08-27T09:01:59Z</time>
      </trkpt>
      <trkpt lat="44.89782" lon="5.92403">
        <ele>745.2</ele>
        <time>2024-08-27T09:02:00Z</time>
      </trkpt>
      <trkpt lat="44.89779" lon="5.92416">
        <ele>745</ele>
        <time>2024-08-27T09:02:01Z</time>
      </trkpt>
      <trkpt lat="44.89776" lon="5.92428">
        <ele>745.1</ele>
        <time>2024-08-27T09:02:02Z</time>
      </trkpt>
      <trkpt lat="44.89772" lon="5.9244">
        <ele>745.2</ele>
        <time>2024-08-27T09:02:03Z</time>
      </trkpt>
      <trkpt lat="44.89767" lon="5.92451">
        <ele>744.1</ele>
        <time>2024-08-27T09:02:04Z</time>
      </trkpt>
      <trkpt lat="44.89762" lon="5.9246">
        <ele>743</ele>
        <time>2024-08-27T09:02:05Z</time>
      </trkpt>
      <trkpt lat="44.89756" lon="5.9247">
        <ele>742</ele>
        <time>2024-08-27T09:02:06Z</time>
      </trkpt>
      <trkpt lat="44.8975" lon="5.92478">
        <ele>741.5</ele>
        <time>2024-08-27T09:02:07Z</time>
      </trkpt>
      <trkpt lat="44.89745" lon="5.92487">
        <ele>741.6</ele>
        <time>2024-08-27T09:02:08Z</time>
      </trkpt>
      <trkpt lat="44.8974" lon="5.92496">
        <ele>741.7</ele>
        <time>2024-08-27T09:02:09Z</time>
      </trkpt>
      <trkpt lat="44.89734" lon="5.92504">
        <ele>741.9</ele>
        <time>2024-08-27T09:02:10Z</time>
      </trkpt>
      <trkpt lat="44.89728" lon="5.92512">
        <ele>742</ele>
        <time>2024-08-27T09:02:11Z</time>
      </trkpt>
      <trkpt lat="44.89723" lon="5.9252">
        <ele>742</ele>
        <time>2024-08-27T09:02:12Z</time>
      </trkpt>
      <trkpt lat="44.89717" lon="5.92528">
        <ele>742</ele>
        <time>2024-08-27T09:02:13Z</time>
      </trkpt>
      <trkpt lat="44.89712" lon="5.92535">
        <ele>742</ele>
        <time>2024-08-27T09:02:14Z</time>
      </trkpt>
      <trkpt lat="44.89705" lon="5.92542">
        <ele>742.1</ele>
        <time>2024-08-27T09:02:15Z</time>
      </trkpt>
      <trkpt lat="44.89699" lon="5.92548">
        <ele>742.1</ele>
        <time>2024-08-27T09:02:16Z</time>
      </trkpt>
      <trkpt lat="44.89692" lon="5.92554">
        <ele>742.1</ele>
        <time>2024-08-27T09:02:17Z</time>
      </trkpt>
      <trkpt lat="44.89687" lon="5.9256">
        <ele>742.2</ele>
        <time>2024-08-27T09:02:18Z</time>
      </trkpt>
      <trkpt lat="44.89681" lon="5.92568">
        <ele>742.2</ele>
        <time>2024-08-27T09:02:19Z</time>
      </trkpt>
      <trkpt lat="44.89676" lon="5.92574">
        <ele>742.3</ele>
        <time>2024-08-27T09:02:20Z</time>
      </trkpt>
      <trkpt lat="44.89671" lon="5.92582">
        <ele>742.4</ele>
        <time>2024-08-27T09:02:21Z</time>
      </trkpt>
      <trkpt lat="44.89666" lon="5.92589">
        <ele>742.4</ele>
        <time>2024-08-27T09:02:22Z</time>
      </trkpt>
      <trkpt lat="44.89661" lon="5.92598">
        <ele>742.5</ele>
        <time>2024-08-27T09:02:23Z</time>
      </trkpt>
      <trkpt lat="44.89656" lon="5.92605">
        <ele>742.6</ele>
        <time>2024-08-27T09:02:24Z</time>
      </trkpt>
      <trkpt lat="44.89651" lon="5.92613">
        <ele>742.7</ele>
        <time>2024-08-27T09:02:25Z</time>
      </trkpt>
      <trkpt lat="44.89646" lon="5.9262">
        <ele>742.7</ele>
        <time>2024-08-27T09:02:26Z</time>
      </trkpt>
      <trkpt lat="44.8964" lon="5.92625">
        <ele>742.8</ele>
        <time>2024-08-27T09:02:27Z</time>
      </trkpt>
      <trkpt lat="44.89634" lon="5.92627">
        <ele>742.5</ele>
        <time>2024-08-27T09:02:28Z</time>
      </trkpt>
      <trkpt lat="44.89627" lon="5.92626">
        <ele>742.3</ele>
        <time>2024-08-27T09:02:29Z</time>
      </trkpt>
      <trkpt lat="44.89621" lon="5.92623">
        <ele>742.1</ele>
        <time>2024-08-27T09:02:30Z</time>
      </trkpt>
      <trkpt lat="44.89614" lon="5.92621">
        <ele>742</ele>
        <time>2024-08-27T09:02:31Z</time>
      </trkpt>
      <trkpt lat="44.89608" lon="5.92619">
        <ele>741.9</ele>
        <time>2024-08-27T09:02:32Z</time>
      </trkpt>
      <trkpt lat="44.89602" lon="5.92617">
        <ele>741.9</ele>
        <time>2024-08-27T09:02:33Z</time>
      </trkpt>
      <trkpt lat="44.89597" lon="5.92615">
        <ele>741.9</ele>
        <time>2024-08-27T09:02:34Z</time>
      </trkpt>
      <trkpt lat="44.89592" lon="5.92614">
        <ele>741.9</ele>
        <time>2024-08-27T09:02:35Z</time>
      </trkpt>
      <trkpt lat="44.89587" lon="5.92612">
        <ele>742.1</ele>
        <time>2024-08-27T09:02:36Z</time>
      </trkpt>
      <trkpt lat="44.89583" lon="5.92611">
        <ele>742.4</ele>
        <time>2024-08-27T09:02:37Z</time>
      </trkpt>
      <trkpt lat="44.89579" lon="5.92609">
        <ele>742.6</ele>
        <time>2024-08-27T09:02:38Z</time>
      </trkpt>
      <trkpt lat="44.89575" lon="5.92608">
        <ele>742.9</ele>
        <time>2024-08-27T09:02:39Z</time>
      </trkpt>
      <trkpt lat="44.89572" lon="5.92607">
        <ele>743.2</ele>
        <time>2024-08-27T09:02:40Z</time>
      </trkpt>
      <trkpt lat="44.89569" lon="5.92606">
        <ele>743.4</ele>
        <time>2024-08-27T09:02:41Z</time>
      </trkpt>
      <trkpt lat="44.89566" lon="5.92605">
        <ele>743.8</ele>
        <time>2024-08-27T09:02:42Z</time>
      </trkpt>
      <trkpt lat="44.89565" lon="5.92604">
        <ele>743.9</ele>
        <time>2024-08-27T09:02:43Z</time>
      </trkpt>
      <trkpt lat="44.89561" lon="5.92603">
        <ele>744.2</ele>
        <time>2024-08-27T09:02:44Z</time>
      </trkpt>
      <trkpt lat="44.8956" lon="5.92602">
        <ele>744.4</ele>
        <time>2024-08-27T09:02:45Z</time>
      </trkpt>
      <trkpt lat="44.89557" lon="5.926">
        <ele>744.7</ele>
        <time>2024-08-27T09:02:46Z</time>
      </trkpt>
      <trkpt lat="44.89556" lon="5.926">
        <ele>744.8</ele>
        <time>2024-08-27T09:02:47Z</time>
      </trkpt>
      <trkpt lat="44.89552" lon="5.92598">
        <ele>745.2</ele>
        <time>2024-08-27T09:02:48Z</time>
      </trkpt>
      <trkpt lat="44.89551" lon="5.92598">
        <ele>745.3</ele>
        <time>2024-08-27T09:02:49Z</time>
      </trkpt>
      <trkpt lat="44.89547" lon="5.92597">
        <ele>745.7</ele>
        <time>2024-08-27T09:02:50Z</time>
      </trkpt>
      <trkpt lat="44.89546" lon="5.92596">
        <ele>745.9</ele>
        <time>2024-08-27T09:02:51Z</time>
      </trkpt>
      <trkpt lat="44.89543" lon="5.92595">
        <ele>746.2</ele>
        <time>2024-08-27T09:02:52Z</time>
      </trkpt>
      <trkpt lat="44.8954" lon="5.92594">
        <ele>746.5</ele>
        <time>2024-08-27T09:02:53Z</time>
      </trkpt>
      <trkpt lat="44.89537" lon="5.92593">
        <ele>746.7</ele>
        <time>2024-08-27T09:02:54Z</time>
      </trkpt>
      <trkpt lat="44.89535" lon="5.92593">
        <ele>747</ele>
        <time>2024-08-27T09:02:55Z</time>
      </trkpt>
      <trkpt lat="44.89532" lon="5.92592">
        <ele>747.3</ele>
        <time>2024-08-27T09:02:56Z</time>
      </trkpt>
      <trkpt lat="44.89529" lon="5.92592">
        <ele>747.6</ele>
        <time>2024-08-27T09:02:57Z</time>
      </trkpt>
      <trkpt lat="44.89526" lon="5.92591">
        <ele>747.9</ele>
        <time>2024-08-27T09:02:58Z</time>
      </trkpt>
      <trkpt lat="44.89522" lon="5.9259">
        <ele>748.2</ele>
        <time>2024-08-27T09:02:59Z</time>
      </trkpt>
      <trkpt lat="44.89521" lon="5.9259">
        <ele>748.4</ele>
        <time>2024-08-27T09:03:00Z</time>
      </trkpt>
      <trkpt lat="44.89517" lon="5.9259">
        <ele>748.7</ele>
        <time>2024-08-27T09:03:01Z</time>
      </trkpt>
      <trkpt lat="44.89516" lon="5.9259">
        <ele>748.9</ele>
        <time>2024-08-27T09:03:02Z</time>
      </trkpt>
      <trkpt lat="44.89512" lon="5.9259">
        <ele>749.2</ele>
        <time>2024-08-27T09:03:03Z</time>
      </trkpt>
      <trkpt lat="44.89511" lon="5.9259">
        <ele>749.3</ele>
        <time>2024-08-27T09:03:04Z</time>
      </trkpt>
      <trkpt lat="44.89508" lon="5.92589">
        <ele>749.6</ele>
        <time>2024-08-27T09:03:05Z</time>
      </trkpt>
      <trkpt lat="44.89507" lon="5.92589">
        <ele>749.8</ele>
        <time>2024-08-27T09:03:06Z</time>
      </trkpt>
      <trkpt lat="44.89504" lon="5.92589">
        <ele>750</ele>
        <time>2024-08-27T09:03:07Z</time>
      </trkpt>
      <trkpt lat="44.89503" lon="5.92589">
        <ele>750.1</ele>
        <time>2024-08-27T09:03:08Z</time>
      </trkpt>
      <trkpt lat="44.895" lon="5.92588">
        <ele>750.4</ele>
        <time>2024-08-27T09:03:09Z</time>
      </trkpt>
      <trkpt lat="44.89499" lon="5.92588">
        <ele>750.5</ele>
        <time>2024-08-27T09:03:10Z</time>
      </trkpt>
      <trkpt lat="44.89495" lon="5.92588">
        <ele>750.8</ele>
        <time>2024-08-27T09:03:11Z</time>
      </trkpt>
      <trkpt lat="44.89494" lon="5.92588">
        <ele>750.9</ele>
        <time>2024-08-27T09:03:12Z</time>
      </trkpt>
      <trkpt lat="44.89491" lon="5.92589">
        <ele>751.2</ele>
        <time>2024-08-27T09:03:13Z</time>
      </trkpt>
      <trkpt lat="44.8949" lon="5.92589">
        <ele>751.3</ele>
        <time>2024-08-27T09:03:14Z</time>
      </trkpt>
      <trkpt lat="44.89487" lon="5.92589">
        <ele>751.6</ele>
        <time>2024-08-27T09:03:15Z</time>
      </trkpt>
      <trkpt lat="44.89486" lon="5.92589">
        <ele>751.7</ele>
        <time>2024-08-27T09:03:16Z</time>
      </trkpt>
      <trkpt lat="44.89482" lon="5.92588">
        <ele>752</ele>
        <time>2024-08-27T09:03:17Z</time>
      </trkpt>
      <trkpt lat="44.89481" lon="5.92588">
        <ele>752.1</ele>
        <time>2024-08-27T09:03:18Z</time>
      </trkpt>
      <trkpt lat="44.89478" lon="5.92588">
        <ele>752.4</ele>
        <time>2024-08-27T09:03:19Z</time>
      </trkpt>
      <trkpt lat="44.89477" lon="5.92588">
        <ele>752.5</ele>
        <time>2024-08-27T09:03:20Z</time>
      </trkpt>
      <trkpt lat="44.89474" lon="5.92587">
        <ele>752.8</ele>
        <time>2024-08-27T09:03:21Z</time>
      </trkpt>
      <trkpt lat="44.89473" lon="5.92587">
        <ele>752.9</ele>
        <time>2024-08-27T09:03:22Z</time>
      </trkpt>
      <trkpt lat="44.8947" lon="5.92587">
        <ele>753.3</ele>
        <time>2024-08-27T09:03:23Z</time>
      </trkpt>
      <trkpt lat="44.89469" lon="5.92587">
        <ele>753.4</ele>
        <time>2024-08-27T09:03:24Z</time>
      </trkpt>
      <trkpt lat="44.89465" lon="5.92586">
        <ele>753.7</ele>
        <time>2024-08-27T09:03:25Z</time>
      </trkpt>
      <trkpt lat="44.89464" lon="5.92586">
        <ele>753.8</ele>
        <time>2024-08-27T09:03:26Z</time>
      </trkpt>
      <trkpt lat="44.89461" lon="5.92585">
        <ele>754.1</ele>
        <time>2024-08-27T09:03:27Z</time>
      </trkpt>
      <trkpt lat="44.8946" lon="5.92585">
        <ele>754.2</ele>
        <time>2024-08-27T09:03:28Z</time>
      </trkpt>
      <trkpt lat="44.89457" lon="5.92584">
        <ele>754.5</ele>
        <time>2024-08-27T09:03:29Z</time>
      </trkpt>
      <trkpt lat="44.89456" lon="5.92584">
        <ele>754.6</ele>
        <time>2024-08-27T09:03:30Z</time>
      </trkpt>
      <trkpt lat="44.89453" lon="5.92583">
        <ele>754.9</ele>
        <time>2024-08-27T09:03:31Z</time>
      </trkpt>
      <trkpt lat="44.89452" lon="5.92583">
        <ele>755</ele>
        <time>2024-08-27T09:03:32Z</time>
      </trkpt>
      <trkpt lat="44.89449" lon="5.92582">
        <ele>755.4</ele>
        <time>2024-08-27T09:03:33Z</time>
      </trkpt>
      <trkpt lat="44.89448" lon="5.92581">
        <ele>755.5</ele>
        <time>2024-08-27T09:03:34Z</time>
      </trkpt>
      <trkpt lat="44.89445" lon="5.9258">
        <ele>755.8</ele>
        <time>2024-08-27T09:03:35Z</time>
      </trkpt>
      <trkpt lat="44.89444" lon="5.92579">
        <ele>755.9</ele>
        <time>2024-08-27T09:03:36Z</time>
      </trkpt>
      <trkpt lat="44.89441" lon="5.92578">
        <ele>756.3</ele>
        <time>2024-08-27T09:03:37Z</time>
      </trkpt>
      <trkpt lat="44.8944" lon="5.92578">
        <ele>756.4</ele>
        <time>2024-08-27T09:03:38Z</time>
      </trkpt>
      <trkpt lat="44.89437" lon="5.92576">
        <ele>756.7</ele>
        <time>2024-08-27T09:03:39Z</time>
      </trkpt>
      <trkpt lat="44.89436" lon="5.92576">
        <ele>756.8</ele>
        <time>2024-08-27T09:03:40Z</time>
      </trkpt>
      <trkpt lat="44.89433" lon="5.92574">
        <ele>757.1</ele>
        <time>2024-08-27T09:03:41Z</time>
      </trkpt>
      <trkpt lat="44.89432" lon="5.92574">
        <ele>757.2</ele>
        <time>2024-08-27T09:03:42Z</time>
      </trkpt>
      <trkpt lat="44.8943" lon="5.92572">
        <ele>757.5</ele>
        <time>2024-08-27T09:03:43Z</time>
      </trkpt>
      <trkpt lat="44.89429" lon="5.92572">
        <ele>757.6</ele>
        <time>2024-08-27T09:03:44Z</time>
      </trkpt>
      <trkpt lat="44.89426" lon="5.9257">
        <ele>757.9</ele>
        <time>2024-08-27T09:03:45Z</time>
      </trkpt>
      <trkpt lat="44.89425" lon="5.92569">
        <ele>758</ele>
        <time>2024-08-27T09:03:46Z</time>
      </trkpt>
      <trkpt lat="44.89422" lon="5.92567">
        <ele>758.3</ele>
        <time>2024-08-27T09:03:47Z</time>
      </trkpt>
      <trkpt lat="44.89421" lon="5.92566">
        <ele>758.4</ele>
        <time>2024-08-27T09:03:48Z</time>
      </trkpt>
      <trkpt lat="44.89418" lon="5.92565">
        <ele>758.8</ele>
        <time>2024-08-27T09:03:49Z</time>
      </trkpt>
      <trkpt lat="44.89417" lon="5.92564">
        <ele>758.8</ele>
        <time>2024-08-27T09:03:50Z</time>
      </trkpt>
      <trkpt lat="44.89414" lon="5.92562">
        <ele>759.1</ele>
        <time>2024-08-27T09:03:51Z</time>
      </trkpt>
      <trkpt lat="44.89413" lon="5.92562">
        <ele>759.2</ele>
        <time>2024-08-27T09:03:52Z</time>
      </trkpt>
      <trkpt lat="44.8941" lon="5.9256">
        <ele>759.5</ele>
        <time>2024-08-27T09:03:53Z</time>
      </trkpt>
      <trkpt lat="44.89409" lon="5.9256">
        <ele>759.6</ele>
        <time>2024-08-27T09:03:54Z</time>
      </trkpt>
      <trkpt lat="44.89406" lon="5.92558">
        <ele>759.9</ele>
        <time>2024-08-27T09:03:55Z</time>
      </trkpt>
      <trkpt lat="44.89405" lon="5.92557">
        <ele>760</ele>
        <time>2024-08-27T09:03:56Z</time>
      </trkpt>
      <trkpt lat="44.89402" lon="5.92555">
        <ele>760.3</ele>
        <time>2024-08-27T09:03:57Z</time>
      </trkpt>
      <trkpt lat="44.89401" lon="5.92554">
        <ele>760.4</ele>
        <time>2024-08-27T09:03:58Z</time>
      </trkpt>
      <trkpt lat="44.89398" lon="5.92552">
        <ele>760.6</ele>
        <time>2024-08-27T09:03:59Z</time>
      </trkpt>
      <trkpt lat="44.89397" lon="5.92551">
        <ele>760.7</ele>
        <time>2024-08-27T09:04:00Z</time>
      </trkpt>
      <trkpt lat="44.89394" lon="5.92549">
        <ele>761</ele>
        <time>2024-08-27T09:04:01Z</time>
      </trkpt>
      <trkpt lat="44.89393" lon="5.92548">
        <ele>761.1</ele>
        <time>2024-08-27T09:04:02Z</time>
      </trkpt>
      <trkpt lat="44.8939" lon="5.92546">
        <ele>761.4</ele>
        <time>2024-08-27T09:04:03Z</time>
      </trkpt>
      <trkpt lat="44.89389" lon="5.92545">
        <ele>761.5</ele>
        <time>2024-08-27T09:04:04Z</time>
      </trkpt>
      <trkpt lat="44.89386" lon="5.92542">
        <ele>761.8</ele>
        <time>2024-08-27T09:04:05Z</time>
      </trkpt>
      <trkpt lat="44.89385" lon="5.92542">
        <ele>761.9</ele>
        <time>2024-08-27T09:04:06Z</time>
      </trkpt>
      <trkpt lat="44.89382" lon="5.92539">
        <ele>762.2</ele>
        <time>2024-08-27T09:04:07Z</time>
      </trkpt>
      <trkpt lat="44.89381" lon="5.92539">
        <ele>762.3</ele>
        <time>2024-08-27T09:04:08Z</time>
      </trkpt>
      <trkpt lat="44.89378" lon="5.92537">
        <ele>762.5</ele>
        <time>2024-08-27T09:04:09Z</time>
      </trkpt>
      <trkpt lat="44.89377" lon="5.92536">
        <ele>762.6</ele>
        <time>2024-08-27T09:04:10Z</time>
      </trkpt>
      <trkpt lat="44.89374" lon="5.92533">
        <ele>762.9</ele>
        <time>2024-08-27T09:04:11Z</time>
      </trkpt>
      <trkpt lat="44.89373" lon="5.92533">
        <ele>763</ele>
        <time>2024-08-27T09:04:12Z</time>
      </trkpt>
      <trkpt lat="44.8937" lon="5.9253">
        <ele>763.3</ele>
        <time>2024-08-27T09:04:13Z</time>
      </trkpt>
      <trkpt lat="44.89369" lon="5.92529">
        <ele>763.4</ele>
        <time>2024-08-27T09:04:14Z</time>
      </trkpt>
      <trkpt lat="44.89366" lon="5.92526">
        <ele>763.8</ele>
        <time>2024-08-27T09:04:15Z</time>
      </trkpt>
      <trkpt lat="44.89365" lon="5.92525">
        <ele>763.9</ele>
        <time>2024-08-27T09:04:16Z</time>
      </trkpt>
      <trkpt lat="44.89362" lon="5.92523">
        <ele>764.2</ele>
        <time>2024-08-27T09:04:17Z</time>
      </trkpt>
      <trkpt lat="44.89361" lon="5.92522">
        <ele>764.3</ele>
        <time>2024-08-27T09:04:18Z</time>
      </trkpt>
      <trkpt lat="44.89358" lon="5.92519">
        <ele>764.6</ele>
        <time>2024-08-27T09:04:19Z</time>
      </trkpt>
      <trkpt lat="44.89357" lon="5.92518">
        <ele>764.7</ele>
        <time>2024-08-27T09:04:20Z</time>
      </trkpt>
      <trkpt lat="44.89355" lon="5.92515">
        <ele>765</ele>
        <time>2024-08-27T09:04:21Z</time>
      </trkpt>
      <trkpt lat="44.89354" lon="5.92514">
        <ele>765.1</ele>
        <time>2024-08-27T09:04:22Z</time>
      </trkpt>
      <trkpt lat="44.89351" lon="5.9251">
        <ele>765.5</ele>
        <time>2024-08-27T09:04:23Z</time>
      </trkpt>
      <trkpt lat="44.8935" lon="5.92509">
        <ele>765.6</ele>
        <time>2024-08-27T09:04:24Z</time>
      </trkpt>
      <trkpt lat="44.89348" lon="5.92505">
        <ele>765.9</ele>
        <time>2024-08-27T09:04:25Z</time>
      </trkpt>
      <trkpt lat="44.89348" lon="5.92504">
        <ele>766</ele>
        <time>2024-08-27T09:04:26Z</time>
      </trkpt>
      <trkpt lat="44.89346" lon="5.925">
        <ele>766.3</ele>
        <time>2024-08-27T09:04:27Z</time>
      </trkpt>
      <trkpt lat="44.89345" lon="5.92499">
        <ele>766.4</ele>
        <time>2024-08-27T09:04:28Z</time>
      </trkpt>
      <trkpt lat="44.89344" lon="5.92495">
        <ele>766.7</ele>
        <time>2024-08-27T09:04:29Z</time>
      </trkpt>
      <trkpt lat="44.89343" lon="5.92494">
        <ele>766.8</ele>
        <time>2024-08-27T09:04:30Z</time>
      </trkpt>
      <trkpt lat="44.89342" lon="5.92489">
        <ele>767.1</ele>
        <time>2024-08-27T09:04:31Z</time>
      </trkpt>
      <trkpt lat="44.89341" lon="5.92488">
        <ele>767.2</ele>
        <time>2024-08-27T09:04:32Z</time>
      </trkpt>
      <trkpt lat="44.8934" lon="5.92483">
        <ele>767.5</ele>
        <time>2024-08-27T09:04:33Z</time>
      </trkpt>
      <trkpt lat="44.89339" lon="5.92481">
        <ele>767.6</ele>
        <time>2024-08-27T09:04:34Z</time>
      </trkpt>
      <trkpt lat="44.89337" lon="5.92478">
        <ele>767.8</ele>
        <time>2024-08-27T09:04:35Z</time>
      </trkpt>
      <trkpt lat="44.89336" lon="5.92475">
        <ele>768</ele>
        <time>2024-08-27T09:04:36Z</time>
      </trkpt>
      <trkpt lat="44.89334" lon="5.92472">
        <ele>768.2</ele>
        <time>2024-08-27T09:04:37Z</time>
      </trkpt>
      <trkpt lat="44.89332" lon="5.92469">
        <ele>768.4</ele>
        <time>2024-08-27T09:04:38Z</time>
      </trkpt>
      <trkpt lat="44.8933" lon="5.92467">
        <ele>768.6</ele>
        <time>2024-08-27T09:04:39Z</time>
      </trkpt>
      <trkpt lat="44.89327" lon="5.92465">
        <ele>768.8</ele>
        <time>2024-08-27T09:04:40Z</time>
      </trkpt>
      <trkpt lat="44.89323" lon="5.92465">
        <ele>769.1</ele>
        <time>2024-08-27T09:04:41Z</time>
      </trkpt>
      <trkpt lat="44.89322" lon="5.92465">
        <ele>769.2</ele>
        <time>2024-08-27T09:04:42Z</time>
      </trkpt>
      <trkpt lat="44.89318" lon="5.92465">
        <ele>769.4</ele>
        <time>2024-08-27T09:04:43Z</time>
      </trkpt>
      <trkpt lat="44.89317" lon="5.92466">
        <ele>769.5</ele>
        <time>2024-08-27T09:04:44Z</time>
      </trkpt>
      <trkpt lat="44.89314" lon="5.92468">
        <ele>769.8</ele>
        <time>2024-08-27T09:04:45Z</time>
      </trkpt>
      <trkpt lat="44.89313" lon="5.92468">
        <ele>769.9</ele>
        <time>2024-08-27T09:04:46Z</time>
      </trkpt>
      <trkpt lat="44.89311" lon="5.92472">
        <ele>770.2</ele>
        <time>2024-08-27T09:04:47Z</time>
      </trkpt>
      <trkpt lat="44.8931" lon="5.92473">
        <ele>770.2</ele>
        <time>2024-08-27T09:04:48Z</time>
      </trkpt>
      <trkpt lat="44.89308" lon="5.92477">
        <ele>770.5</ele>
        <time>2024-08-27T09:04:49Z</time>
      </trkpt>
      <trkpt lat="44.89308" lon="5.92479">
        <ele>770.6</ele>
        <time>2024-08-27T09:04:50Z</time>
      </trkpt>
      <trkpt lat="44.89307" lon="5.92483">
        <ele>770.9</ele>
        <time>2024-08-27T09:04:51Z</time>
      </trkpt>
      <trkpt lat="44.89306" lon="5.92485">
        <ele>771</ele>
        <time>2024-08-27T09:04:52Z</time>
      </trkpt>
      <trkpt lat="44.89306" lon="5.9249">
        <ele>771.3</ele>
        <time>2024-08-27T09:04:53Z</time>
      </trkpt>
      <trkpt lat="44.89306" lon="5.92492">
        <ele>771.4</ele>
        <time>2024-08-27T09:04:54Z</time>
      </trkpt>
      <trkpt lat="44.89305" lon="5.92497">
        <ele>771.7</ele>
        <time>2024-08-27T09:04:55Z</time>
      </trkpt>
      <trkpt lat="44.89305" lon="5.92498">
        <ele>771.8</ele>
        <time>2024-08-27T09:04:56Z</time>
      </trkpt>
      <trkpt lat="44.89305" lon="5.92504">
        <ele>772.1</ele>
        <time>2024-08-27T09:04:57Z</time>
      </trkpt>
      <trkpt lat="44.89305" lon="5.92505">
        <ele>772.1</ele>
        <time>2024-08-27T09:04:58Z</time>
      </trkpt>
      <trkpt lat="44.89305" lon="5.92511">
        <ele>772.4</ele>
        <time>2024-08-27T09:04:59Z</time>
      </trkpt>
      <trkpt lat="44.89305" lon="5.92512">
        <ele>772.5</ele>
        <time>2024-08-27T09:05:00Z</time>
      </trkpt>
      <trkpt lat="44.89304" lon="5.92518">
        <ele>772.8</ele>
        <time>2024-08-27T09:05:01Z</time>
      </trkpt>
      <trkpt lat="44.89304" lon="5.92519">
        <ele>772.9</ele>
        <time>2024-08-27T09:05:02Z</time>
      </trkpt>
      <trkpt lat="44.89303" lon="5.92525">
        <ele>773.2</ele>
        <time>2024-08-27T09:05:03Z</time>
      </trkpt>
      <trkpt lat="44.89302" lon="5.92526">
        <ele>773.3</ele>
        <time>2024-08-27T09:05:04Z</time>
      </trkpt>
      <trkpt lat="44.89301" lon="5.92531">
        <ele>773.6</ele>
        <time>2024-08-27T09:05:05Z</time>
      </trkpt>
      <trkpt lat="44.893" lon="5.92533">
        <ele>773.7</ele>
        <time>2024-08-27T09:05:06Z</time>
      </trkpt>
      <trkpt lat="44.89297" lon="5.92537">
        <ele>773.9</ele>
        <time>2024-08-27T09:05:07Z</time>
      </trkpt>
      <trkpt lat="44.89296" lon="5.92537">
        <ele>774</ele>
        <time>2024-08-27T09:05:08Z</time>
      </trkpt>
      <trkpt lat="44.89293" lon="5.92538">
        <ele>774.2</ele>
        <time>2024-08-27T09:05:09Z</time>
      </trkpt>
      <trkpt lat="44.8929" lon="5.92536">
        <ele>774.5</ele>
        <time>2024-08-27T09:05:10Z</time>
      </trkpt>
      <trkpt lat="44.89289" lon="5.92536">
        <ele>774.6</ele>
        <time>2024-08-27T09:05:11Z</time>
      </trkpt>
      <trkpt lat="44.89286" lon="5.92532">
        <ele>774.8</ele>
        <time>2024-08-27T09:05:12Z</time>
      </trkpt>
      <trkpt lat="44.89285" lon="5.9253">
        <ele>774.9</ele>
        <time>2024-08-27T09:05:13Z</time>
      </trkpt>
      <trkpt lat="44.89283" lon="5.92526">
        <ele>775.2</ele>
        <time>2024-08-27T09:05:14Z</time>
      </trkpt>
      <trkpt lat="44.89282" lon="5.92524">
        <ele>775.3</ele>
        <time>2024-08-27T09:05:15Z</time>
      </trkpt>
      <trkpt lat="44.8928" lon="5.9252">
        <ele>775.5</ele>
        <time>2024-08-27T09:05:16Z</time>
      </trkpt>
      <trkpt lat="44.89279" lon="5.92518">
        <ele>775.6</ele>
        <time>2024-08-27T09:05:17Z</time>
      </trkpt>
      <trkpt lat="44.89276" lon="5.92514">
        <ele>775.9</ele>
        <time>2024-08-27T09:05:18Z</time>
      </trkpt>
      <trkpt lat="44.89275" lon="5.92513">
        <ele>775.9</ele>
        <time>2024-08-27T09:05:19Z</time>
      </trkpt>
      <trkpt lat="44.89273" lon="5.9251">
        <ele>776</ele>
        <time>2024-08-27T09:05:20Z</time>
      </trkpt>
      <trkpt lat="44.89271" lon="5.92507">
        <ele>776</ele>
        <time>2024-08-27T09:05:21Z</time>
      </trkpt>
      <trkpt lat="44.89269" lon="5.92505">
        <ele>776</ele>
        <time>2024-08-27T09:05:22Z</time>
      </trkpt>
      <trkpt lat="44.89265" lon="5.92502">
        <ele>776</ele>
        <time>2024-08-27T09:05:23Z</time>
      </trkpt>
      <trkpt lat="44.89264" lon="5.92501">
        <ele>776.1</ele>
        <time>2024-08-27T09:05:24Z</time>
      </trkpt>
      <trkpt lat="44.89262" lon="5.92498">
        <ele>776.1</ele>
        <time>2024-08-27T09:05:25Z</time>
      </trkpt>
      <trkpt lat="44.8926" lon="5.92496">
        <ele>776.1</ele>
        <time>2024-08-27T09:05:26Z</time>
      </trkpt>
      <trkpt lat="44.89257" lon="5.92494">
        <ele>776.2</ele>
        <time>2024-08-27T09:05:27Z</time>
      </trkpt>
      <trkpt lat="44.89254" lon="5.92493">
        <ele>776.2</ele>
        <time>2024-08-27T09:05:28Z</time>
      </trkpt>
      <trkpt lat="44.89251" lon="5.92491">
        <ele>776.3</ele>
        <time>2024-08-27T09:05:29Z</time>
      </trkpt>
      <trkpt lat="44.89249" lon="5.92491">
        <ele>776.4</ele>
        <time>2024-08-27T09:05:30Z</time>
      </trkpt>
      <trkpt lat="44.89246" lon="5.9249">
        <ele>776.6</ele>
        <time>2024-08-27T09:05:31Z</time>
      </trkpt>
      <trkpt lat="44.89244" lon="5.9249">
        <ele>776.7</ele>
        <time>2024-08-27T09:05:32Z</time>
      </trkpt>
      <trkpt lat="44.89242" lon="5.92489">
        <ele>776.9</ele>
        <time>2024-08-27T09:05:33Z</time>
      </trkpt>
      <trkpt lat="44.89239" lon="5.92489">
        <ele>777</ele>
        <time>2024-08-27T09:05:34Z</time>
      </trkpt>
      <trkpt lat="44.89235" lon="5.92489">
        <ele>777.3</ele>
        <time>2024-08-27T09:05:35Z</time>
      </trkpt>
      <trkpt lat="44.89234" lon="5.92489">
        <ele>777.3</ele>
        <time>2024-08-27T09:05:36Z</time>
      </trkpt>
      <trkpt lat="44.8923" lon="5.92491">
        <ele>777.6</ele>
        <time>2024-08-27T09:05:37Z</time>
      </trkpt>
      <trkpt lat="44.89229" lon="5.92491">
        <ele>777.7</ele>
        <time>2024-08-27T09:05:38Z</time>
      </trkpt>
      <trkpt lat="44.89225" lon="5.92492">
        <ele>777.9</ele>
        <time>2024-08-27T09:05:39Z</time>
      </trkpt>
      <trkpt lat="44.89224" lon="5.92493">
        <ele>778</ele>
        <time>2024-08-27T09:05:40Z</time>
      </trkpt>
      <trkpt lat="44.8922" lon="5.92494">
        <ele>778.3</ele>
        <time>2024-08-27T09:05:41Z</time>
      </trkpt>
      <trkpt lat="44.89219" lon="5.92495">
        <ele>778.4</ele>
        <time>2024-08-27T09:05:42Z</time>
      </trkpt>
      <trkpt lat="44.89215" lon="5.92497">
        <ele>778.6</ele>
        <time>2024-08-27T09:05:43Z</time>
      </trkpt>
      <trkpt lat="44.89214" lon="5.92498">
        <ele>778.7</ele>
        <time>2024-08-27T09:05:44Z</time>
      </trkpt>
      <trkpt lat="44.8921" lon="5.925">
        <ele>779</ele>
        <time>2024-08-27T09:05:45Z</time>
      </trkpt>
      <trkpt lat="44.89209" lon="5.925">
        <ele>779.1</ele>
        <time>2024-08-27T09:05:46Z</time>
      </trkpt>
      <trkpt lat="44.89206" lon="5.92502">
        <ele>779.3</ele>
        <time>2024-08-27T09:05:47Z</time>
      </trkpt>
      <trkpt lat="44.89204" lon="5.92503">
        <ele>779.4</ele>
        <time>2024-08-27T09:05:48Z</time>
      </trkpt>
      <trkpt lat="44.89201" lon="5.92505">
        <ele>779.7</ele>
        <time>2024-08-27T09:05:49Z</time>
      </trkpt>
      <trkpt lat="44.892" lon="5.92506">
        <ele>779.8</ele>
        <time>2024-08-27T09:05:50Z</time>
      </trkpt>
      <trkpt lat="44.89197" lon="5.92508">
        <ele>780.1</ele>
        <time>2024-08-27T09:05:51Z</time>
      </trkpt>
      <trkpt lat="44.89196" lon="5.92508">
        <ele>780.2</ele>
        <time>2024-08-27T09:05:52Z</time>
      </trkpt>
      <trkpt lat="44.89192" lon="5.9251">
        <ele>780.5</ele>
        <time>2024-08-27T09:05:53Z</time>
      </trkpt>
      <trkpt lat="44.89191" lon="5.92511">
        <ele>780.6</ele>
        <time>2024-08-27T09:05:54Z</time>
      </trkpt>
      <trkpt lat="44.89187" lon="5.92513">
        <ele>780.9</ele>
        <time>2024-08-27T09:05:55Z</time>
      </trkpt>
      <trkpt lat="44.89186" lon="5.92514">
        <ele>781</ele>
        <time>2024-08-27T09:05:56Z</time>
      </trkpt>
      <trkpt lat="44.89183" lon="5.92517">
        <ele>781.3</ele>
        <time>2024-08-27T09:05:57Z</time>
      </trkpt>
      <trkpt lat="44.89182" lon="5.92518">
        <ele>781.4</ele>
        <time>2024-08-27T09:05:58Z</time>
      </trkpt>
      <trkpt lat="44.89179" lon="5.9252">
        <ele>781.7</ele>
        <time>2024-08-27T09:05:59Z</time>
      </trkpt>
      <trkpt lat="44.89178" lon="5.92521">
        <ele>781.8</ele>
        <time>2024-08-27T09:06:00Z</time>
      </trkpt>
      <trkpt lat="44.89174" lon="5.92523">
        <ele>782.2</ele>
        <time>2024-08-27T09:06:01Z</time>
      </trkpt>
      <trkpt lat="44.89173" lon="5.92523">
        <ele>782.3</ele>
        <time>2024-08-27T09:06:02Z</time>
      </trkpt>
      <trkpt lat="44.8917" lon="5.92524">
        <ele>782.6</ele>
        <time>2024-08-27T09:06:03Z</time>
      </trkpt>
      <trkpt lat="44.89169" lon="5.92525">
        <ele>782.7</ele>
        <time>2024-08-27T09:06:04Z</time>
      </trkpt>
      <trkpt lat="44.89167" lon="5.92527">
        <ele>783.1</ele>
        <time>2024-08-27T09:06:05Z</time>
      </trkpt>
      <trkpt lat="44.89166" lon="5.92528">
        <ele>783.2</ele>
        <time>2024-08-27T09:06:06Z</time>
      </trkpt>
      <trkpt lat="44.89163" lon="5.9253">
        <ele>783.5</ele>
        <time>2024-08-27T09:06:07Z</time>
      </trkpt>
      <trkpt lat="44.89163" lon="5.92531">
        <ele>783.6</ele>
        <time>2024-08-27T09:06:08Z</time>
      </trkpt>
      <trkpt lat="44.89161" lon="5.92534">
        <ele>783.8</ele>
        <time>2024-08-27T09:06:09Z</time>
      </trkpt>
      <trkpt lat="44.8916" lon="5.92535">
        <ele>783.9</ele>
        <time>2024-08-27T09:06:10Z</time>
      </trkpt>
      <trkpt lat="44.89158" lon="5.92539">
        <ele>784.2</ele>
        <time>2024-08-27T09:06:11Z</time>
      </trkpt>
      <trkpt lat="44.89157" lon="5.9254">
        <ele>784.4</ele>
        <time>2024-08-27T09:06:12Z</time>
      </trkpt>
      <trkpt lat="44.89156" lon="5.92545">
        <ele>784.7</ele>
        <time>2024-08-27T09:06:13Z</time>
      </trkpt>
      <trkpt lat="44.89155" lon="5.92546">
        <ele>784.8</ele>
        <time>2024-08-27T09:06:14Z</time>
      </trkpt>
      <trkpt lat="44.89154" lon="5.9255">
        <ele>785.1</ele>
        <time>2024-08-27T09:06:15Z</time>
      </trkpt>
      <trkpt lat="44.89153" lon="5.92552">
        <ele>785.2</ele>
        <time>2024-08-27T09:06:16Z</time>
      </trkpt>
      <trkpt lat="44.89151" lon="5.92554">
        <ele>785.4</ele>
        <time>2024-08-27T09:06:17Z</time>
      </trkpt>
      <trkpt lat="44.8915" lon="5.92555">
        <ele>785.5</ele>
        <time>2024-08-27T09:06:18Z</time>
      </trkpt>
      <trkpt lat="44.89148" lon="5.92559">
        <ele>785.8</ele>
        <time>2024-08-27T09:06:19Z</time>
      </trkpt>
      <trkpt lat="44.89148" lon="5.9256">
        <ele>785.9</ele>
        <time>2024-08-27T09:06:20Z</time>
      </trkpt>
      <trkpt lat="44.89145" lon="5.92564">
        <ele>785.9</ele>
        <time>2024-08-27T09:06:21Z</time>
      </trkpt>
      <trkpt lat="44.89145" lon="5.92565">
        <ele>786</ele>
        <time>2024-08-27T09:06:22Z</time>
      </trkpt>
      <trkpt lat="44.89143" lon="5.92568">
        <ele>786</ele>
        <time>2024-08-27T09:06:23Z</time>
      </trkpt>
      <trkpt lat="44.89142" lon="5.9257">
        <ele>786</ele>
        <time>2024-08-27T09:06:24Z</time>
      </trkpt>
      <trkpt lat="44.8914" lon="5.92573">
        <ele>786.3</ele>
        <time>2024-08-27T09:06:25Z</time>
      </trkpt>
      <trkpt lat="44.89139" lon="5.92574">
        <ele>786.4</ele>
        <time>2024-08-27T09:06:26Z</time>
      </trkpt>
      <trkpt lat="44.89137" lon="5.92577">
        <ele>786.7</ele>
        <time>2024-08-27T09:06:27Z</time>
      </trkpt>
      <trkpt lat="44.89136" lon="5.92578">
        <ele>786.8</ele>
        <time>2024-08-27T09:06:28Z</time>
      </trkpt>
      <trkpt lat="44.89134" lon="5.92581">
        <ele>787.1</ele>
        <time>2024-08-27T09:06:29Z</time>
      </trkpt>
      <trkpt lat="44.89134" lon="5.92582">
        <ele>787.2</ele>
        <time>2024-08-27T09:06:30Z</time>
      </trkpt>
      <trkpt lat="44.89131" lon="5.92585">
        <ele>787.5</ele>
        <time>2024-08-27T09:06:31Z</time>
      </trkpt>
      <trkpt lat="44.89131" lon="5.92586">
        <ele>787.7</ele>
        <time>2024-08-27T09:06:32Z</time>
      </trkpt>
      <trkpt lat="44.89128" lon="5.92589">
        <ele>788</ele>
        <time>2024-08-27T09:06:33Z</time>
      </trkpt>
      <trkpt lat="44.89128" lon="5.9259">
        <ele>788.1</ele>
        <time>2024-08-27T09:06:34Z</time>
      </trkpt>
      <trkpt lat="44.89126" lon="5.92593">
        <ele>788.4</ele>
        <time>2024-08-27T09:06:35Z</time>
      </trkpt>
      <trkpt lat="44.89125" lon="5.92594">
        <ele>788.5</ele>
        <time>2024-08-27T09:06:36Z</time>
      </trkpt>
      <trkpt lat="44.89123" lon="5.92597">
        <ele>788.9</ele>
        <time>2024-08-27T09:06:37Z</time>
      </trkpt>
      <trkpt lat="44.89122" lon="5.92598">
        <ele>789</ele>
        <time>2024-08-27T09:06:38Z</time>
      </trkpt>
      <trkpt lat="44.8912" lon="5.926">
        <ele>789.3</ele>
        <time>2024-08-27T09:06:39Z</time>
      </trkpt>
      <trkpt lat="44.89119" lon="5.92601">
        <ele>789.4</ele>
        <time>2024-08-27T09:06:40Z</time>
      </trkpt>
      <trkpt lat="44.89116" lon="5.92604">
        <ele>789.8</ele>
        <time>2024-08-27T09:06:41Z</time>
      </trkpt>
      <trkpt lat="44.89116" lon="5.92605">
        <ele>789.9</ele>
        <time>2024-08-27T09:06:42Z</time>
      </trkpt>
      <trkpt lat="44.89113" lon="5.92608">
        <ele>790.3</ele>
        <time>2024-08-27T09:06:43Z</time>
      </trkpt>
      <trkpt lat="44.89112" lon="5.92609">
        <ele>790.4</ele>
        <time>2024-08-27T09:06:44Z</time>
      </trkpt>
      <trkpt lat="44.8911" lon="5.92612">
        <ele>790.8</ele>
        <time>2024-08-27T09:06:45Z</time>
      </trkpt>
      <trkpt lat="44.89109" lon="5.92613">
        <ele>790.9</ele>
        <time>2024-08-27T09:06:46Z</time>
      </trkpt>
      <trkpt lat="44.89107" lon="5.92616">
        <ele>791.2</ele>
        <time>2024-08-27T09:06:47Z</time>
      </trkpt>
      <trkpt lat="44.89106" lon="5.92617">
        <ele>791.2</ele>
        <time>2024-08-27T09:06:48Z</time>
      </trkpt>
      <trkpt lat="44.89104" lon="5.92621">
        <ele>791.2</ele>
        <time>2024-08-27T09:06:49Z</time>
      </trkpt>
      <trkpt lat="44.89103" lon="5.92622">
        <ele>791.2</ele>
        <time>2024-08-27T09:06:50Z</time>
      </trkpt>
      <trkpt lat="44.89101" lon="5.92625">
        <ele>791.3</ele>
        <time>2024-08-27T09:06:51Z</time>
      </trkpt>
      <trkpt lat="44.891" lon="5.92626">
        <ele>791.4</ele>
        <time>2024-08-27T09:06:52Z</time>
      </trkpt>
      <trkpt lat="44.89098" lon="5.92629">
        <ele>791.8</ele>
        <time>2024-08-27T09:06:53Z</time>
      </trkpt>
      <trkpt lat="44.89097" lon="5.9263">
        <ele>791.9</ele>
        <time>2024-08-27T09:06:54Z</time>
      </trkpt>
      <trkpt lat="44.89094" lon="5.92633">
        <ele>792.2</ele>
        <time>2024-08-27T09:06:55Z</time>
      </trkpt>
      <trkpt lat="44.89093" lon="5.92635">
        <ele>792.3</ele>
        <time>2024-08-27T09:06:56Z</time>
      </trkpt>
      <trkpt lat="44.89091" lon="5.92638">
        <ele>792.6</ele>
        <time>2024-08-27T09:06:57Z</time>
      </trkpt>
      <trkpt lat="44.89091" lon="5.92639">
        <ele>792.7</ele>
        <time>2024-08-27T09:06:58Z</time>
      </trkpt>
      <trkpt lat="44.89089" lon="5.92643">
        <ele>793.1</ele>
        <time>2024-08-27T09:06:59Z</time>
      </trkpt>
      <trkpt lat="44.89088" lon="5.92644">
        <ele>793.2</ele>
        <time>2024-08-27T09:07:00Z</time>
      </trkpt>
      <trkpt lat="44.89086" lon="5.92647">
        <ele>793.4</ele>
        <time>2024-08-27T09:07:01Z</time>
      </trkpt>
      <trkpt lat="44.89086" lon="5.92648">
        <ele>793.5</ele>
        <time>2024-08-27T09:07:02Z</time>
      </trkpt>
      <trkpt lat="44.89084" lon="5.92652">
        <ele>793.8</ele>
        <time>2024-08-27T09:07:03Z</time>
      </trkpt>
      <trkpt lat="44.89084" lon="5.92653">
        <ele>793.9</ele>
        <time>2024-08-27T09:07:04Z</time>
      </trkpt>
      <trkpt lat="44.89083" lon="5.92657">
        <ele>794.2</ele>
        <time>2024-08-27T09:07:05Z</time>
      </trkpt>
      <trkpt lat="44.89082" lon="5.92658">
        <ele>794.3</ele>
        <time>2024-08-27T09:07:06Z</time>
      </trkpt>
      <trkpt lat="44.89082" lon="5.92662">
        <ele>794.6</ele>
        <time>2024-08-27T09:07:07Z</time>
      </trkpt>
      <trkpt lat="44.89081" lon="5.92664">
        <ele>794.7</ele>
        <time>2024-08-27T09:07:08Z</time>
      </trkpt>
      <trkpt lat="44.89081" lon="5.92669">
        <ele>795</ele>
        <time>2024-08-27T09:07:09Z</time>
      </trkpt>
      <trkpt lat="44.89081" lon="5.9267">
        <ele>795.1</ele>
        <time>2024-08-27T09:07:10Z</time>
      </trkpt>
      <trkpt lat="44.8908" lon="5.92676">
        <ele>795.5</ele>
        <time>2024-08-27T09:07:11Z</time>
      </trkpt>
      <trkpt lat="44.8908" lon="5.92677">
        <ele>795.6</ele>
        <time>2024-08-27T09:07:12Z</time>
      </trkpt>
      <trkpt lat="44.8908" lon="5.92682">
        <ele>795.9</ele>
        <time>2024-08-27T09:07:13Z</time>
      </trkpt>
      <trkpt lat="44.8908" lon="5.92684">
        <ele>796</ele>
        <time>2024-08-27T09:07:14Z</time>
      </trkpt>
      <trkpt lat="44.8908" lon="5.92689">
        <ele>796.3</ele>
        <time>2024-08-27T09:07:15Z</time>
      </trkpt>
      <trkpt lat="44.8908" lon="5.9269">
        <ele>796.4</ele>
        <time>2024-08-27T09:07:16Z</time>
      </trkpt>
      <trkpt lat="44.8908" lon="5.92695">
        <ele>796.7</ele>
        <time>2024-08-27T09:07:17Z</time>
      </trkpt>
      <trkpt lat="44.8908" lon="5.92697">
        <ele>796.8</ele>
        <time>2024-08-27T09:07:18Z</time>
      </trkpt>
      <trkpt lat="44.89078" lon="5.92701">
        <ele>797.1</ele>
        <time>2024-08-27T09:07:19Z</time>
      </trkpt>
      <trkpt lat="44.89078" lon="5.92702">
        <ele>797.2</ele>
        <time>2024-08-27T09:07:20Z</time>
      </trkpt>
      <trkpt lat="44.89075" lon="5.92705">
        <ele>797.5</ele>
        <time>2024-08-27T09:07:21Z</time>
      </trkpt>
      <trkpt lat="44.89074" lon="5.92706">
        <ele>797.6</ele>
        <time>2024-08-27T09:07:22Z</time>
      </trkpt>
      <trkpt lat="44.89071" lon="5.92708">
        <ele>797.9</ele>
        <time>2024-08-27T09:07:23Z</time>
      </trkpt>
      <trkpt lat="44.89069" lon="5.92709">
        <ele>798</ele>
        <time>2024-08-27T09:07:24Z</time>
      </trkpt>
      <trkpt lat="44.89066" lon="5.92708">
        <ele>798.3</ele>
        <time>2024-08-27T09:07:25Z</time>
      </trkpt>
      <trkpt lat="44.89065" lon="5.92708">
        <ele>798.4</ele>
        <time>2024-08-27T09:07:26Z</time>
      </trkpt>
      <trkpt lat="44.89062" lon="5.92705">
        <ele>798.6</ele>
        <time>2024-08-27T09:07:27Z</time>
      </trkpt>
      <trkpt lat="44.89061" lon="5.92704">
        <ele>798.7</ele>
        <time>2024-08-27T09:07:28Z</time>
      </trkpt>
      <trkpt lat="44.89059" lon="5.927">
        <ele>799</ele>
        <time>2024-08-27T09:07:29Z</time>
      </trkpt>
      <trkpt lat="44.89058" lon="5.92699">
        <ele>799.1</ele>
        <time>2024-08-27T09:07:30Z</time>
      </trkpt>
      <trkpt lat="44.89057" lon="5.92694">
        <ele>799.4</ele>
        <time>2024-08-27T09:07:31Z</time>
      </trkpt>
      <trkpt lat="44.89057" lon="5.92693">
        <ele>799.5</ele>
        <time>2024-08-27T09:07:32Z</time>
      </trkpt>
      <trkpt lat="44.89056" lon="5.92688">
        <ele>799.8</ele>
        <time>2024-08-27T09:07:33Z</time>
      </trkpt>
      <trkpt lat="44.89055" lon="5.92686">
        <ele>799.9</ele>
        <time>2024-08-27T09:07:34Z</time>
      </trkpt>
      <trkpt lat="44.89055" lon="5.92681">
        <ele>800.2</ele>
        <time>2024-08-27T09:07:35Z</time>
      </trkpt>
      <trkpt lat="44.89054" lon="5.9268">
        <ele>800.3</ele>
        <time>2024-08-27T09:07:36Z</time>
      </trkpt>
      <trkpt lat="44.89053" lon="5.92675">
        <ele>800.6</ele>
        <time>2024-08-27T09:07:37Z</time>
      </trkpt>
      <trkpt lat="44.89053" lon="5.92674">
        <ele>800.7</ele>
        <time>2024-08-27T09:07:38Z</time>
      </trkpt>
      <trkpt lat="44.89052" lon="5.92669">
        <ele>801</ele>
        <time>2024-08-27T09:07:39Z</time>
      </trkpt>
      <trkpt lat="44.89051" lon="5.92668">
        <ele>801.1</ele>
        <time>2024-08-27T09:07:40Z</time>
      </trkpt>
      <trkpt lat="44.89049" lon="5.92664">
        <ele>801.4</ele>
        <time>2024-08-27T09:07:41Z</time>
      </trkpt>
      <trkpt lat="44.89049" lon="5.92662">
        <ele>801.5</ele>
        <time>2024-08-27T09:07:42Z</time>
      </trkpt>
      <trkpt lat="44.89047" lon="5.92658">
        <ele>801.8</ele>
        <time>2024-08-27T09:07:43Z</time>
      </trkpt>
      <trkpt lat="44.89047" lon="5.92657">
        <ele>801.9</ele>
        <time>2024-08-27T09:07:44Z</time>
      </trkpt>
      <trkpt lat="44.89045" lon="5.92653">
        <ele>802.1</ele>
        <time>2024-08-27T09:07:45Z</time>
      </trkpt>
      <trkpt lat="44.89044" lon="5.92652">
        <ele>802.2</ele>
        <time>2024-08-27T09:07:46Z</time>
      </trkpt>
      <trkpt lat="44.89043" lon="5.92648">
        <ele>802.5</ele>
        <time>2024-08-27T09:07:47Z</time>
      </trkpt>
      <trkpt lat="44.89042" lon="5.92646">
        <ele>802.6</ele>
        <time>2024-08-27T09:07:48Z</time>
      </trkpt>
      <trkpt lat="44.8904" lon="5.92641">
        <ele>802.8</ele>
        <time>2024-08-27T09:07:49Z</time>
      </trkpt>
      <trkpt lat="44.89039" lon="5.9264">
        <ele>802.9</ele>
        <time>2024-08-27T09:07:50Z</time>
      </trkpt>
      <trkpt lat="44.89037" lon="5.92636">
        <ele>803.1</ele>
        <time>2024-08-27T09:07:51Z</time>
      </trkpt>
      <trkpt lat="44.89036" lon="5.92634">
        <ele>803.2</ele>
        <time>2024-08-27T09:07:52Z</time>
      </trkpt>
      <trkpt lat="44.89034" lon="5.9263">
        <ele>803.4</ele>
        <time>2024-08-27T09:07:53Z</time>
      </trkpt>
      <trkpt lat="44.89033" lon="5.92629">
        <ele>803.5</ele>
        <time>2024-08-27T09:07:54Z</time>
      </trkpt>
      <trkpt lat="44.89032" lon="5.92624">
        <ele>803.6</ele>
        <time>2024-08-27T09:07:55Z</time>
      </trkpt>
      <trkpt lat="44.89031" lon="5.92622">
        <ele>803.7</ele>
        <time>2024-08-27T09:07:56Z</time>
      </trkpt>
      <trkpt lat="44.8903" lon="5.92618">
        <ele>803.8</ele>
        <time>2024-08-27T09:07:57Z</time>
      </trkpt>
      <trkpt lat="44.89029" lon="5.92613">
        <ele>803.9</ele>
        <time>2024-08-27T09:07:58Z</time>
      </trkpt>
      <trkpt lat="44.89028" lon="5.92609">
        <ele>803.9</ele>
        <time>2024-08-27T09:07:59Z</time>
      </trkpt>
      <trkpt lat="44.89027" lon="5.92604">
        <ele>804</ele>
        <time>2024-08-27T09:08:00Z</time>
      </trkpt>
      <trkpt lat="44.89026" lon="5.92598">
        <ele>804.1</ele>
        <time>2024-08-27T09:08:01Z</time>
      </trkpt>
      <trkpt lat="44.89025" lon="5.92593">
        <ele>804.2</ele>
        <time>2024-08-27T09:08:02Z</time>
      </trkpt>
      <trkpt lat="44.89024" lon="5.92588">
        <ele>804.2</ele>
        <time>2024-08-27T09:08:03Z</time>
      </trkpt>
      <trkpt lat="44.89022" lon="5.92582">
        <ele>804.3</ele>
        <time>2024-08-27T09:08:04Z</time>
      </trkpt>
      <trkpt lat="44.89021" lon="5.92577">
        <ele>804.4</ele>
        <time>2024-08-27T09:08:05Z</time>
      </trkpt>
      <trkpt lat="44.8902" lon="5.92572">
        <ele>804.5</ele>
        <time>2024-08-27T09:08:06Z</time>
      </trkpt>
      <trkpt lat="44.89017" lon="5.92567">
        <ele>804.5</ele>
        <time>2024-08-27T09:08:07Z</time>
      </trkpt>
      <trkpt lat="44.89015" lon="5.92562">
        <ele>804.6</ele>
        <time>2024-08-27T09:08:08Z</time>
      </trkpt>
      <trkpt lat="44.89014" lon="5.92556">
        <ele>804.7</ele>
        <time>2024-08-27T09:08:09Z</time>
      </trkpt>
      <trkpt lat="44.89012" lon="5.9255">
        <ele>804.6</ele>
        <time>2024-08-27T09:08:10Z</time>
      </trkpt>
      <trkpt lat="44.89011" lon="5.92544">
        <ele>804.5</ele>
        <time>2024-08-27T09:08:11Z</time>
      </trkpt>
      <trkpt lat="44.89011" lon="5.92537">
        <ele>804.5</ele>
        <time>2024-08-27T09:08:12Z</time>
      </trkpt>
      <trkpt lat="44.89011" lon="5.9253">
        <ele>804.4</ele>
        <time>2024-08-27T09:08:13Z</time>
      </trkpt>
      <trkpt lat="44.8901" lon="5.92523">
        <ele>804.3</ele>
        <time>2024-08-27T09:08:14Z</time>
      </trkpt>
      <trkpt lat="44.8901" lon="5.92516">
        <ele>804.2</ele>
        <time>2024-08-27T09:08:15Z</time>
      </trkpt>
      <trkpt lat="44.89009" lon="5.92508">
        <ele>804.1</ele>
        <time>2024-08-27T09:08:16Z</time>
      </trkpt>
      <trkpt lat="44.89009" lon="5.925">
        <ele>804</ele>
        <time>2024-08-27T09:08:17Z</time>
      </trkpt>
      <trkpt lat="44.89008" lon="5.92492">
        <ele>803.9</ele>
        <time>2024-08-27T09:08:18Z</time>
      </trkpt>
      <trkpt lat="44.89008" lon="5.92485">
        <ele>803.9</ele>
        <time>2024-08-27T09:08:19Z</time>
      </trkpt>
      <trkpt lat="44.89007" lon="5.92477">
        <ele>803.9</ele>
        <time>2024-08-27T09:08:20Z</time>
      </trkpt>
      <trkpt lat="44.89005" lon="5.9247">
        <ele>803.9</ele>
        <time>2024-08-27T09:08:21Z</time>
      </trkpt>
      <trkpt lat="44.89003" lon="5.92463">
        <ele>803.9</ele>
        <time>2024-08-27T09:08:22Z</time>
      </trkpt>
      <trkpt lat="44.89002" lon="5.92456">
        <ele>803.9</ele>
        <time>2024-08-27T09:08:23Z</time>
      </trkpt>
      <trkpt lat="44.89" lon="5.9245">
        <ele>804</ele>
        <time>2024-08-27T09:08:24Z</time>
      </trkpt>
      <trkpt lat="44.88999" lon="5.92443">
        <ele>804.1</ele>
        <time>2024-08-27T09:08:25Z</time>
      </trkpt>
      <trkpt lat="44.88997" lon="5.92438">
        <ele>804.2</ele>
        <time>2024-08-27T09:08:26Z</time>
      </trkpt>
      <trkpt lat="44.88995" lon="5.92437">
        <ele>804.2</ele>
        <time>2024-08-27T09:08:27Z</time>
      </trkpt>
      <trkpt lat="44.88992" lon="5.92439">
        <ele>804.2</ele>
        <time>2024-08-27T09:08:28Z</time>
      </trkpt>
      <trkpt lat="44.88992" lon="5.92444">
        <ele>804.1</ele>
        <time>2024-08-27T09:08:29Z</time>
      </trkpt>
      <trkpt lat="44.88994" lon="5.92448">
        <ele>804</ele>
        <time>2024-08-27T09:08:30Z</time>
      </trkpt>
      <trkpt lat="44.88996" lon="5.92451">
        <ele>804</ele>
        <time>2024-08-27T09:08:31Z</time>
      </trkpt>
      <trkpt lat="44.88999" lon="5.92455">
        <ele>803.9</ele>
        <time>2024-08-27T09:08:32Z</time>
      </trkpt>
      <trkpt lat="44.89001" lon="5.9246">
        <ele>803.9</ele>
        <time>2024-08-27T09:08:33Z</time>
      </trkpt>
      <trkpt lat="44.89003" lon="5.92465">
        <ele>803.9</ele>
        <time>2024-08-27T09:08:34Z</time>
      </trkpt>
      <trkpt lat="44.89004" lon="5.92471">
        <ele>803.9</ele>
        <time>2024-08-27T09:08:35Z</time>
      </trkpt>
      <trkpt lat="44.89005" lon="5.92477">
        <ele>803.9</ele>
        <time>2024-08-27T09:08:36Z</time>
      </trkpt>
      <trkpt lat="44.89007" lon="5.92483">
        <ele>803.9</ele>
        <time>2024-08-27T09:08:37Z</time>
      </trkpt>
      <trkpt lat="44.89007" lon="5.92489">
        <ele>803.9</ele>
        <time>2024-08-27T09:08:38Z</time>
      </trkpt>
      <trkpt lat="44.89008" lon="5.92495">
        <ele>804</ele>
        <time>2024-08-27T09:08:39Z</time>
      </trkpt>
      <trkpt lat="44.89008" lon="5.92501">
        <ele>804</ele>
        <time>2024-08-27T09:08:40Z</time>
      </trkpt>
      <trkpt lat="44.89008" lon="5.92508">
        <ele>804.1</ele>
        <time>2024-08-27T09:08:41Z</time>
      </trkpt>
      <trkpt lat="44.89009" lon="5.92513">
        <ele>804.1</ele>
        <time>2024-08-27T09:08:42Z</time>
      </trkpt>
      <trkpt lat="44.8901" lon="5.92519">
        <ele>804.2</ele>
        <time>2024-08-27T09:08:43Z</time>
      </trkpt>
      <trkpt lat="44.8901" lon="5.92524">
        <ele>804.3</ele>
        <time>2024-08-27T09:08:44Z</time>
      </trkpt>
      <trkpt lat="44.8901" lon="5.92529">
        <ele>804.4</ele>
        <time>2024-08-27T09:08:45Z</time>
      </trkpt>
      <trkpt lat="44.8901" lon="5.92534">
        <ele>804.4</ele>
        <time>2024-08-27T09:08:46Z</time>
      </trkpt>
      <trkpt lat="44.8901" lon="5.92539">
        <ele>804.5</ele>
        <time>2024-08-27T09:08:47Z</time>
      </trkpt>
      <trkpt lat="44.89011" lon="5.92544">
        <ele>804.5</ele>
        <time>2024-08-27T09:08:48Z</time>
      </trkpt>
      <trkpt lat="44.89011" lon="5.92549">
        <ele>804.6</ele>
        <time>2024-08-27T09:08:49Z</time>
      </trkpt>
      <trkpt lat="44.89012" lon="5.92555">
        <ele>804.6</ele>
        <time>2024-08-27T09:08:50Z</time>
      </trkpt>
      <trkpt lat="44.89014" lon="5.92559">
        <ele>804.7</ele>
        <time>2024-08-27T09:08:51Z</time>
      </trkpt>
      <trkpt lat="44.89014" lon="5.92562">
        <ele>804.7</ele>
        <time>2024-08-27T09:08:52Z</time>
      </trkpt>
      <trkpt lat="44.89013" lon="5.92563">
        <ele>804.7</ele>
        <time>2024-08-27T09:08:53Z</time>
      </trkpt>
      <trkpt lat="44.89011" lon="5.92563">
        <ele>804.7</ele>
        <time>2024-08-27T09:08:54Z</time>
      </trkpt>
      <trkpt lat="44.89011" lon="5.92562">
        <ele>804.7</ele>
        <time>2024-08-27T09:08:55Z</time>
      </trkpt>
      <trkpt lat="44.89011" lon="5.92562">
        <ele>804.7</ele>
        <time>2024-08-27T09:08:56Z</time>
      </trkpt>
      <trkpt lat="44.89011" lon="5.92562">
        <ele>804.7</ele>
        <time>2024-08-27T09:08:57Z</time>
      </trkpt>
      <trkpt lat="44.89011" lon="5.92562">
        <ele>804.7</ele>
        <time>2024-08-27T09:08:58Z</time>
      </trkpt>
      <trkpt lat="44.8901" lon="5.92561">
        <ele>804.7</ele>
        <time>2024-08-27T09:08:59Z</time>
      </trkpt>
      <trkpt lat="44.89009" lon="5.9256">
        <ele>804.7</ele>
        <time>2024-08-27T09:09:00Z</time>
      </trkpt>
      <trkpt lat="44.89007" lon="5.9256">
        <ele>804.7</ele>
        <time>2024-08-27T09:09:01Z</time>
      </trkpt>
      <trkpt lat="44.89007" lon="5.9256">
        <ele>804.7</ele>
        <time>2024-08-27T09:09:02Z</time>
      </trkpt>
      <trkpt lat="44.89007" lon="5.92559">
        <ele>804.7</ele>
        <time>2024-08-27T09:09:03Z</time>
      </trkpt>
      <trkpt lat="44.89007" lon="5.92559">
        <ele>804.7</ele>
        <time>2024-08-27T09:09:04Z</time>
      </trkpt>
      <trkpt lat="44.89008" lon="5.92558">
        <ele>804.7</ele>
        <time>2024-08-27T09:09:05Z</time>
      </trkpt>
      <trkpt lat="44.89008" lon="5.92557">
        <ele>804.7</ele>
        <time>2024-08-27T09:09:06Z</time>
      </trkpt>
      <trkpt lat="44.89009" lon="5.92557">
        <ele>804.6</ele>
        <time>2024-08-27T09:09:07Z</time>
      </trkpt>
      <trkpt lat="44.89009" lon="5.92556">
        <ele>804.6</ele>
        <time>2024-08-27T09:09:08Z</time>
      </trkpt>
      <trkpt lat="44.8901" lon="5.92556">
        <ele>804.6</ele>
        <time>2024-08-27T09:09:09Z</time>
      </trkpt>
      <trkpt lat="44.8901" lon="5.92555">
        <ele>804.6</ele>
        <time>2024-08-27T09:09:10Z</time>
      </trkpt>
      <trkpt lat="44.89011" lon="5.92555">
        <ele>804.6</ele>
        <time>2024-08-27T09:09:11Z</time>
      </trkpt>
      <trkpt lat="44.89011" lon="5.92554">
        <ele>804.6</ele>
        <time>2024-08-27T09:09:12Z</time>
      </trkpt>
      <trkpt lat="44.89012" lon="5.92554">
        <ele>804.6</ele>
        <time>2024-08-27T09:09:13Z</time>
      </trkpt>
      <trkpt lat="44.89012" lon="5.92553">
        <ele>804.6</ele>
        <time>2024-08-27T09:09:46Z</time>
      </trkpt>
      <trkpt lat="44.89013" lon="5.92553">
        <ele>804.6</ele>
        <time>2024-08-27T09:09:47Z</time>
      </trkpt>
      <trkpt lat="44.89013" lon="5.92552">
        <ele>804.6</ele>
        <time>2024-08-27T09:09:48Z</time>
      </trkpt>
      <trkpt lat="44.89013" lon="5.92547">
        <ele>804.6</ele>
        <time>2024-08-27T09:09:49Z</time>
      </trkpt>
      <trkpt lat="44.89013" lon="5.92541">
        <ele>804.5</ele>
        <time>2024-08-27T09:09:50Z</time>
      </trkpt>
      <trkpt lat="44.89013" lon="5.92535">
        <ele>804.4</ele>
        <time>2024-08-27T09:09:51Z</time>
      </trkpt>
      <trkpt lat="44.89011" lon="5.92528">
        <ele>804.4</ele>
        <time>2024-08-27T09:09:52Z</time>
      </trkpt>
      <trkpt lat="44.8901" lon="5.92522">
        <ele>804.3</ele>
        <time>2024-08-27T09:09:53Z</time>
      </trkpt>
      <trkpt lat="44.8901" lon="5.92515">
        <ele>804.2</ele>
        <time>2024-08-27T09:09:54Z</time>
      </trkpt>
      <trkpt lat="44.89009" lon="5.92508">
        <ele>804.1</ele>
        <time>2024-08-27T09:09:55Z</time>
      </trkpt>
      <trkpt lat="44.89009" lon="5.92501">
        <ele>804</ele>
        <time>2024-08-27T09:09:56Z</time>
      </trkpt>
      <trkpt lat="44.89008" lon="5.92493">
        <ele>803.9</ele>
        <time>2024-08-27T09:09:57Z</time>
      </trkpt>
      <trkpt lat="44.89008" lon="5.92486">
        <ele>803.9</ele>
        <time>2024-08-27T09:09:58Z</time>
      </trkpt>
      <trkpt lat="44.89007" lon="5.92478">
        <ele>803.9</ele>
        <time>2024-08-27T09:09:59Z</time>
      </trkpt>
      <trkpt lat="44.89005" lon="5.92471">
        <ele>803.9</ele>
        <time>2024-08-27T09:10:00Z</time>
      </trkpt>
      <trkpt lat="44.89002" lon="5.92465">
        <ele>803.9</ele>
        <time>2024-08-27T09:10:01Z</time>
      </trkpt>
      <trkpt lat="44.88999" lon="5.92459">
        <ele>803.9</ele>
        <time>2024-08-27T09:10:02Z</time>
      </trkpt>
      <trkpt lat="44.88997" lon="5.92452">
        <ele>804</ele>
        <time>2024-08-27T09:10:03Z</time>
      </trkpt>
      <trkpt lat="44.88995" lon="5.92445">
        <ele>804.1</ele>
        <time>2024-08-27T09:10:04Z</time>
      </trkpt>
      <trkpt lat="44.88993" lon="5.92438">
        <ele>804.3</ele>
        <time>2024-08-27T09:10:05Z</time>
      </trkpt>
      <trkpt lat="44.88991" lon="5.92431">
        <ele>804.5</ele>
        <time>2024-08-27T09:10:06Z</time>
      </trkpt>
      <trkpt lat="44.8899" lon="5.92425">
        <ele>804.7</ele>
        <time>2024-08-27T09:10:07Z</time>
      </trkpt>
      <trkpt lat="44.88988" lon="5.9242">
        <ele>804.9</ele>
        <time>2024-08-27T09:10:08Z</time>
      </trkpt>
      <trkpt lat="44.88987" lon="5.92415">
        <ele>805</ele>
        <time>2024-08-27T09:10:09Z</time>
      </trkpt>
      <trkpt lat="44.88986" lon="5.92411">
        <ele>805.2</ele>
        <time>2024-08-27T09:10:10Z</time>
      </trkpt>
      <trkpt lat="44.88984" lon="5.92407">
        <ele>805.4</ele>
        <time>2024-08-27T09:10:11Z</time>
      </trkpt>
      <trkpt lat="44.88981" lon="5.92404">
        <ele>805.6</ele>
        <time>2024-08-27T09:10:12Z</time>
      </trkpt>
      <trkpt lat="44.88979" lon="5.92402">
        <ele>805.8</ele>
        <time>2024-08-27T09:10:13Z</time>
      </trkpt>
      <trkpt lat="44.88976" lon="5.924">
        <ele>806</ele>
        <time>2024-08-27T09:10:14Z</time>
      </trkpt>
      <trkpt lat="44.88973" lon="5.92399">
        <ele>806.2</ele>
        <time>2024-08-27T09:10:15Z</time>
      </trkpt>
      <trkpt lat="44.88969" lon="5.92399">
        <ele>806.4</ele>
        <time>2024-08-27T09:10:16Z</time>
      </trkpt>
      <trkpt lat="44.88967" lon="5.92399">
        <ele>806.6</ele>
        <time>2024-08-27T09:10:17Z</time>
      </trkpt>
      <trkpt lat="44.88964" lon="5.92399">
        <ele>806.8</ele>
        <time>2024-08-27T09:10:18Z</time>
      </trkpt>
      <trkpt lat="44.8896" lon="5.92401">
        <ele>807.1</ele>
        <time>2024-08-27T09:10:19Z</time>
      </trkpt>
      <trkpt lat="44.88959" lon="5.92401">
        <ele>807.2</ele>
        <time>2024-08-27T09:10:20Z</time>
      </trkpt>
      <trkpt lat="44.88955" lon="5.92402">
        <ele>807.4</ele>
        <time>2024-08-27T09:10:21Z</time>
      </trkpt>
      <trkpt lat="44.88954" lon="5.92403">
        <ele>807.5</ele>
        <time>2024-08-27T09:10:22Z</time>
      </trkpt>
      <trkpt lat="44.88951" lon="5.92405">
        <ele>807.8</ele>
        <time>2024-08-27T09:10:23Z</time>
      </trkpt>
      <trkpt lat="44.8895" lon="5.92405">
        <ele>807.8</ele>
        <time>2024-08-27T09:10:24Z</time>
      </trkpt>
      <trkpt lat="44.88948" lon="5.92409">
        <ele>808.1</ele>
        <time>2024-08-27T09:10:25Z</time>
      </trkpt>
      <trkpt lat="44.88947" lon="5.9241">
        <ele>808.2</ele>
        <time>2024-08-27T09:10:26Z</time>
      </trkpt>
      <trkpt lat="44.88944" lon="5.92414">
        <ele>808.4</ele>
        <time>2024-08-27T09:10:27Z</time>
      </trkpt>
      <trkpt lat="44.88944" lon="5.92415">
        <ele>808.5</ele>
        <time>2024-08-27T09:10:28Z</time>
      </trkpt>
      <trkpt lat="44.88942" lon="5.9242">
        <ele>808.7</ele>
        <time>2024-08-27T09:10:29Z</time>
      </trkpt>
      <trkpt lat="44.88942" lon="5.92421">
        <ele>808.8</ele>
        <time>2024-08-27T09:10:30Z</time>
      </trkpt>
      <trkpt lat="44.88941" lon="5.92426">
        <ele>809</ele>
        <time>2024-08-27T09:10:31Z</time>
      </trkpt>
      <trkpt lat="44.88941" lon="5.92428">
        <ele>809</ele>
        <time>2024-08-27T09:10:32Z</time>
      </trkpt>
      <trkpt lat="44.88941" lon="5.92433">
        <ele>809.2</ele>
        <time>2024-08-27T09:10:33Z</time>
      </trkpt>
      <trkpt lat="44.88941" lon="5.92434">
        <ele>809.3</ele>
        <time>2024-08-27T09:10:34Z</time>
      </trkpt>
      <trkpt lat="44.88942" lon="5.92439">
        <ele>809.5</ele>
        <time>2024-08-27T09:10:35Z</time>
      </trkpt>
      <trkpt lat="44.88942" lon="5.92441">
        <ele>809.6</ele>
        <time>2024-08-27T09:10:36Z</time>
      </trkpt>
      <trkpt lat="44.88942" lon="5.92446">
        <ele>809.8</ele>
        <time>2024-08-27T09:10:37Z</time>
      </trkpt>
      <trkpt lat="44.88942" lon="5.92447">
        <ele>809.8</ele>
        <time>2024-08-27T09:10:38Z</time>
      </trkpt>
      <trkpt lat="44.88943" lon="5.92452">
        <ele>810</ele>
        <time>2024-08-27T09:10:39Z</time>
      </trkpt>
      <trkpt lat="44.88943" lon="5.92453">
        <ele>810.1</ele>
        <time>2024-08-27T09:10:40Z</time>
      </trkpt>
      <trkpt lat="44.88944" lon="5.92458">
        <ele>810.3</ele>
        <time>2024-08-27T09:10:41Z</time>
      </trkpt>
      <trkpt lat="44.88944" lon="5.92459">
        <ele>810.4</ele>
        <time>2024-08-27T09:10:42Z</time>
      </trkpt>
      <trkpt lat="44.88944" lon="5.92464">
        <ele>810.5</ele>
        <time>2024-08-27T09:10:43Z</time>
      </trkpt>
      <trkpt lat="44.88945" lon="5.92465">
        <ele>810.6</ele>
        <time>2024-08-27T09:10:44Z</time>
      </trkpt>
      <trkpt lat="44.88945" lon="5.9247">
        <ele>810.8</ele>
        <time>2024-08-27T09:10:45Z</time>
      </trkpt>
      <trkpt lat="44.88945" lon="5.92472">
        <ele>810.9</ele>
        <time>2024-08-27T09:10:46Z</time>
      </trkpt>
      <trkpt lat="44.88945" lon="5.92477">
        <ele>811.1</ele>
        <time>2024-08-27T09:10:47Z</time>
      </trkpt>
      <trkpt lat="44.88946" lon="5.92479">
        <ele>811.1</ele>
        <time>2024-08-27T09:10:48Z</time>
      </trkpt>
      <trkpt lat="44.88946" lon="5.92484">
        <ele>811.3</ele>
        <time>2024-08-27T09:10:49Z</time>
      </trkpt>
      <trkpt lat="44.88946" lon="5.92485">
        <ele>811.4</ele>
        <time>2024-08-27T09:10:50Z</time>
      </trkpt>
      <trkpt lat="44.88947" lon="5.92491">
        <ele>811.6</ele>
        <time>2024-08-27T09:10:51Z</time>
      </trkpt>
      <trkpt lat="44.88947" lon="5.92492">
        <ele>811.7</ele>
        <time>2024-08-27T09:10:52Z</time>
      </trkpt>
      <trkpt lat="44.88947" lon="5.92497">
        <ele>811.9</ele>
        <time>2024-08-27T09:10:53Z</time>
      </trkpt>
      <trkpt lat="44.88947" lon="5.92499">
        <ele>812</ele>
        <time>2024-08-27T09:10:54Z</time>
      </trkpt>
      <trkpt lat="44.88947" lon="5.92504">
        <ele>812.2</ele>
        <time>2024-08-27T09:10:55Z</time>
      </trkpt>
      <trkpt lat="44.88947" lon="5.92506">
        <ele>812.2</ele>
        <time>2024-08-27T09:10:56Z</time>
      </trkpt>
      <trkpt lat="44.88947" lon="5.92511">
        <ele>812.4</ele>
        <time>2024-08-27T09:10:57Z</time>
      </trkpt>
      <trkpt lat="44.88947" lon="5.92513">
        <ele>812.5</ele>
        <time>2024-08-27T09:10:58Z</time>
      </trkpt>
      <trkpt lat="44.88946" lon="5.92518">
        <ele>812.7</ele>
        <time>2024-08-27T09:10:59Z</time>
      </trkpt>
      <trkpt lat="44.88946" lon="5.9252">
        <ele>812.7</ele>
        <time>2024-08-27T09:11:00Z</time>
      </trkpt>
      <trkpt lat="44.88944" lon="5.92524">
        <ele>812.9</ele>
        <time>2024-08-27T09:11:01Z</time>
      </trkpt>
      <trkpt lat="44.88944" lon="5.92526">
        <ele>813</ele>
        <time>2024-08-27T09:11:02Z</time>
      </trkpt>
      <trkpt lat="44.88941" lon="5.92529">
        <ele>813.2</ele>
        <time>2024-08-27T09:11:03Z</time>
      </trkpt>
      <trkpt lat="44.8894" lon="5.9253">
        <ele>813.2</ele>
        <time>2024-08-27T09:11:04Z</time>
      </trkpt>
      <trkpt lat="44.88936" lon="5.92531">
        <ele>813.4</ele>
        <time>2024-08-27T09:11:05Z</time>
      </trkpt>
      <trkpt lat="44.88935" lon="5.92532">
        <ele>813.5</ele>
        <time>2024-08-27T09:11:06Z</time>
      </trkpt>
      <trkpt lat="44.88932" lon="5.92531">
        <ele>813.6</ele>
        <time>2024-08-27T09:11:07Z</time>
      </trkpt>
      <trkpt lat="44.88931" lon="5.92531">
        <ele>813.7</ele>
        <time>2024-08-27T09:11:08Z</time>
      </trkpt>
      <trkpt lat="44.88928" lon="5.92529">
        <ele>813.8</ele>
        <time>2024-08-27T09:11:09Z</time>
      </trkpt>
      <trkpt lat="44.88926" lon="5.92526">
        <ele>813.9</ele>
        <time>2024-08-27T09:11:10Z</time>
      </trkpt>
      <trkpt lat="44.88924" lon="5.92523">
        <ele>814</ele>
        <time>2024-08-27T09:11:11Z</time>
      </trkpt>
      <trkpt lat="44.88923" lon="5.9252">
        <ele>814.1</ele>
        <time>2024-08-27T09:11:12Z</time>
      </trkpt>
      <trkpt lat="44.88921" lon="5.92515">
        <ele>814.3</ele>
        <time>2024-08-27T09:11:13Z</time>
      </trkpt>
      <trkpt lat="44.8892" lon="5.92513">
        <ele>814.4</ele>
        <time>2024-08-27T09:11:14Z</time>
      </trkpt>
      <trkpt lat="44.88919" lon="5.92508">
        <ele>814.5</ele>
        <time>2024-08-27T09:11:15Z</time>
      </trkpt>
      <trkpt lat="44.88918" lon="5.92507">
        <ele>814.6</ele>
        <time>2024-08-27T09:11:16Z</time>
      </trkpt>
      <trkpt lat="44.88917" lon="5.92502">
        <ele>814.7</ele>
        <time>2024-08-27T09:11:17Z</time>
      </trkpt>
      <trkpt lat="44.88917" lon="5.925">
        <ele>814.8</ele>
        <time>2024-08-27T09:11:18Z</time>
      </trkpt>
      <trkpt lat="44.88915" lon="5.92495">
        <ele>814.9</ele>
        <time>2024-08-27T09:11:19Z</time>
      </trkpt>
      <trkpt lat="44.88915" lon="5.92493">
        <ele>815</ele>
        <time>2024-08-27T09:11:20Z</time>
      </trkpt>
      <trkpt lat="44.88914" lon="5.92488">
        <ele>815.1</ele>
        <time>2024-08-27T09:11:21Z</time>
      </trkpt>
      <trkpt lat="44.88913" lon="5.92486">
        <ele>815.2</ele>
        <time>2024-08-27T09:11:22Z</time>
      </trkpt>
      <trkpt lat="44.88912" lon="5.92481">
        <ele>815.4</ele>
        <time>2024-08-27T09:11:23Z</time>
      </trkpt>
      <trkpt lat="44.88912" lon="5.92479">
        <ele>815.4</ele>
        <time>2024-08-27T09:11:24Z</time>
      </trkpt>
      <trkpt lat="44.88911" lon="5.92474">
        <ele>815.6</ele>
        <time>2024-08-27T09:11:25Z</time>
      </trkpt>
      <trkpt lat="44.8891" lon="5.92472">
        <ele>815.7</ele>
        <time>2024-08-27T09:11:26Z</time>
      </trkpt>
      <trkpt lat="44.88909" lon="5.92467">
        <ele>815.9</ele>
        <time>2024-08-27T09:11:27Z</time>
      </trkpt>
      <trkpt lat="44.88908" lon="5.92466">
        <ele>816</ele>
        <time>2024-08-27T09:11:28Z</time>
      </trkpt>
      <trkpt lat="44.88907" lon="5.92461">
        <ele>816.1</ele>
        <time>2024-08-27T09:11:29Z</time>
      </trkpt>
      <trkpt lat="44.88907" lon="5.92459">
        <ele>816.2</ele>
        <time>2024-08-27T09:11:30Z</time>
      </trkpt>
      <trkpt lat="44.88905" lon="5.92454">
        <ele>816.4</ele>
        <time>2024-08-27T09:11:31Z</time>
      </trkpt>
      <trkpt lat="44.88905" lon="5.92453">
        <ele>816.5</ele>
        <time>2024-08-27T09:11:32Z</time>
      </trkpt>
      <trkpt lat="44.88904" lon="5.92447">
        <ele>816.7</ele>
        <time>2024-08-27T09:11:33Z</time>
      </trkpt>
      <trkpt lat="44.88903" lon="5.92446">
        <ele>816.7</ele>
        <time>2024-08-27T09:11:34Z</time>
      </trkpt>
      <trkpt lat="44.88902" lon="5.9244">
        <ele>816.9</ele>
        <time>2024-08-27T09:11:35Z</time>
      </trkpt>
      <trkpt lat="44.88902" lon="5.92439">
        <ele>817</ele>
        <time>2024-08-27T09:11:36Z</time>
      </trkpt>
      <trkpt lat="44.889" lon="5.92434">
        <ele>817.2</ele>
        <time>2024-08-27T09:11:37Z</time>
      </trkpt>
      <trkpt lat="44.88899" lon="5.92432">
        <ele>817.3</ele>
        <time>2024-08-27T09:11:38Z</time>
      </trkpt>
      <trkpt lat="44.88897" lon="5.92428">
        <ele>817.5</ele>
        <time>2024-08-27T09:11:39Z</time>
      </trkpt>
      <trkpt lat="44.88896" lon="5.92427">
        <ele>817.5</ele>
        <time>2024-08-27T09:11:40Z</time>
      </trkpt>
      <trkpt lat="44.88893" lon="5.92423">
        <ele>817.7</ele>
        <time>2024-08-27T09:11:41Z</time>
      </trkpt>
      <trkpt lat="44.88892" lon="5.92422">
        <ele>817.8</ele>
        <time>2024-08-27T09:11:42Z</time>
      </trkpt>
      <trkpt lat="44.88889" lon="5.92421">
        <ele>818</ele>
        <time>2024-08-27T09:11:43Z</time>
      </trkpt>
      <trkpt lat="44.88886" lon="5.92421">
        <ele>818.1</ele>
        <time>2024-08-27T09:11:44Z</time>
      </trkpt>
      <trkpt lat="44.88884" lon="5.92421">
        <ele>818.2</ele>
        <time>2024-08-27T09:11:45Z</time>
      </trkpt>
      <trkpt lat="44.88881" lon="5.92423">
        <ele>818.4</ele>
        <time>2024-08-27T09:11:46Z</time>
      </trkpt>
      <trkpt lat="44.8888" lon="5.92424">
        <ele>818.5</ele>
        <time>2024-08-27T09:11:47Z</time>
      </trkpt>
      <trkpt lat="44.88877" lon="5.92429">
        <ele>818.6</ele>
        <time>2024-08-27T09:11:48Z</time>
      </trkpt>
      <trkpt lat="44.88876" lon="5.9243">
        <ele>818.7</ele>
        <time>2024-08-27T09:11:49Z</time>
      </trkpt>
      <trkpt lat="44.88875" lon="5.92434">
        <ele>818.8</ele>
        <time>2024-08-27T09:11:50Z</time>
      </trkpt>
      <trkpt lat="44.88875" lon="5.92438">
        <ele>818.9</ele>
        <time>2024-08-27T09:11:51Z</time>
      </trkpt>
      <trkpt lat="44.88875" lon="5.92442">
        <ele>819</ele>
        <time>2024-08-27T09:11:52Z</time>
      </trkpt>
      <trkpt lat="44.88875" lon="5.92446">
        <ele>819.1</ele>
        <time>2024-08-27T09:11:53Z</time>
      </trkpt>
      <trkpt lat="44.88875" lon="5.92451">
        <ele>819.3</ele>
        <time>2024-08-27T09:11:54Z</time>
      </trkpt>
      <trkpt lat="44.88875" lon="5.92453">
        <ele>819.3</ele>
        <time>2024-08-27T09:11:55Z</time>
      </trkpt>
      <trkpt lat="44.88875" lon="5.92459">
        <ele>819.5</ele>
        <time>2024-08-27T09:11:56Z</time>
      </trkpt>
      <trkpt lat="44.88875" lon="5.9246">
        <ele>819.5</ele>
        <time>2024-08-27T09:11:57Z</time>
      </trkpt>
      <trkpt lat="44.88875" lon="5.92466">
        <ele>819.7</ele>
        <time>2024-08-27T09:11:58Z</time>
      </trkpt>
      <trkpt lat="44.88875" lon="5.92468">
        <ele>819.7</ele>
        <time>2024-08-27T09:11:59Z</time>
      </trkpt>
      <trkpt lat="44.88875" lon="5.92473">
        <ele>819.9</ele>
        <time>2024-08-27T09:12:00Z</time>
      </trkpt>
      <trkpt lat="44.88875" lon="5.92475">
        <ele>820</ele>
        <time>2024-08-27T09:12:01Z</time>
      </trkpt>
      <trkpt lat="44.88876" lon="5.9248">
        <ele>820.1</ele>
        <time>2024-08-27T09:12:02Z</time>
      </trkpt>
      <trkpt lat="44.88876" lon="5.92482">
        <ele>820.2</ele>
        <time>2024-08-27T09:12:03Z</time>
      </trkpt>
      <trkpt lat="44.88876" lon="5.92486">
        <ele>820.4</ele>
        <time>2024-08-27T09:12:04Z</time>
      </trkpt>
      <trkpt lat="44.88877" lon="5.92488">
        <ele>820.4</ele>
        <time>2024-08-27T09:12:05Z</time>
      </trkpt>
      <trkpt lat="44.88877" lon="5.92493">
        <ele>820.6</ele>
        <time>2024-08-27T09:12:06Z</time>
      </trkpt>
      <trkpt lat="44.88877" lon="5.92495">
        <ele>820.7</ele>
        <time>2024-08-27T09:12:07Z</time>
      </trkpt>
      <trkpt lat="44.88877" lon="5.925">
        <ele>820.9</ele>
        <time>2024-08-27T09:12:08Z</time>
      </trkpt>
      <trkpt lat="44.88877" lon="5.92501">
        <ele>821</ele>
        <time>2024-08-27T09:12:09Z</time>
      </trkpt>
      <trkpt lat="44.88877" lon="5.92506">
        <ele>821.2</ele>
        <time>2024-08-27T09:12:10Z</time>
      </trkpt>
      <trkpt lat="44.88877" lon="5.92508">
        <ele>821.3</ele>
        <time>2024-08-27T09:12:11Z</time>
      </trkpt>
      <trkpt lat="44.88877" lon="5.92513">
        <ele>821.5</ele>
        <time>2024-08-27T09:12:12Z</time>
      </trkpt>
      <trkpt lat="44.88877" lon="5.92515">
        <ele>821.6</ele>
        <time>2024-08-27T09:12:13Z</time>
      </trkpt>
      <trkpt lat="44.88877" lon="5.92519">
        <ele>821.8</ele>
        <time>2024-08-27T09:12:14Z</time>
      </trkpt>
      <trkpt lat="44.88877" lon="5.92521">
        <ele>821.9</ele>
        <time>2024-08-27T09:12:15Z</time>
      </trkpt>
      <trkpt lat="44.88878" lon="5.92526">
        <ele>822.2</ele>
        <time>2024-08-27T09:12:16Z</time>
      </trkpt>
      <trkpt lat="44.88878" lon="5.92528">
        <ele>822.3</ele>
        <time>2024-08-27T09:12:17Z</time>
      </trkpt>
      <trkpt lat="44.88878" lon="5.92532">
        <ele>822.5</ele>
        <time>2024-08-27T09:12:18Z</time>
      </trkpt>
      <trkpt lat="44.88878" lon="5.92534">
        <ele>822.6</ele>
        <time>2024-08-27T09:12:19Z</time>
      </trkpt>
      <trkpt lat="44.88878" lon="5.92539">
        <ele>822.8</ele>
        <time>2024-08-27T09:12:20Z</time>
      </trkpt>
      <trkpt lat="44.88878" lon="5.9254">
        <ele>822.9</ele>
        <time>2024-08-27T09:12:21Z</time>
      </trkpt>
      <trkpt lat="44.88879" lon="5.92545">
        <ele>823.3</ele>
        <time>2024-08-27T09:12:22Z</time>
      </trkpt>
      <trkpt lat="44.88879" lon="5.92547">
        <ele>823.4</ele>
        <time>2024-08-27T09:12:23Z</time>
      </trkpt>
      <trkpt lat="44.88878" lon="5.92551">
        <ele>823.7</ele>
        <time>2024-08-27T09:12:24Z</time>
      </trkpt>
      <trkpt lat="44.88878" lon="5.92552">
        <ele>823.8</ele>
        <time>2024-08-27T09:12:25Z</time>
      </trkpt>
      <trkpt lat="44.88879" lon="5.92556">
        <ele>824.1</ele>
        <time>2024-08-27T09:12:26Z</time>
      </trkpt>
      <trkpt lat="44.88879" lon="5.92558">
        <ele>824.2</ele>
        <time>2024-08-27T09:12:27Z</time>
      </trkpt>
      <trkpt lat="44.88879" lon="5.92562">
        <ele>824.5</ele>
        <time>2024-08-27T09:12:28Z</time>
      </trkpt>
      <trkpt lat="44.88879" lon="5.92563">
        <ele>824.6</ele>
        <time>2024-08-27T09:12:29Z</time>
      </trkpt>
      <trkpt lat="44.88879" lon="5.92567">
        <ele>824.9</ele>
        <time>2024-08-27T09:12:30Z</time>
      </trkpt>
      <trkpt lat="44.88879" lon="5.92569">
        <ele>825.1</ele>
        <time>2024-08-27T09:12:31Z</time>
      </trkpt>
      <trkpt lat="44.88879" lon="5.92573">
        <ele>825.4</ele>
        <time>2024-08-27T09:12:32Z</time>
      </trkpt>
      <trkpt lat="44.88879" lon="5.92574">
        <ele>825.5</ele>
        <time>2024-08-27T09:12:33Z</time>
      </trkpt>
      <trkpt lat="44.8888" lon="5.92579">
        <ele>825.8</ele>
        <time>2024-08-27T09:12:34Z</time>
      </trkpt>
      <trkpt lat="44.8888" lon="5.9258">
        <ele>825.9</ele>
        <time>2024-08-27T09:12:35Z</time>
      </trkpt>
      <trkpt lat="44.8888" lon="5.92584">
        <ele>826.3</ele>
        <time>2024-08-27T09:12:36Z</time>
      </trkpt>
      <trkpt lat="44.8888" lon="5.92586">
        <ele>826.4</ele>
        <time>2024-08-27T09:12:37Z</time>
      </trkpt>
      <trkpt lat="44.88881" lon="5.9259">
        <ele>826.7</ele>
        <time>2024-08-27T09:12:38Z</time>
      </trkpt>
      <trkpt lat="44.88881" lon="5.92591">
        <ele>826.8</ele>
        <time>2024-08-27T09:12:39Z</time>
      </trkpt>
      <trkpt lat="44.88881" lon="5.92595">
        <ele>827.1</ele>
        <time>2024-08-27T09:12:40Z</time>
      </trkpt>
      <trkpt lat="44.88881" lon="5.92597">
        <ele>827.2</ele>
        <time>2024-08-27T09:12:41Z</time>
      </trkpt>
      <trkpt lat="44.88882" lon="5.92601">
        <ele>827.5</ele>
        <time>2024-08-27T09:12:42Z</time>
      </trkpt>
      <trkpt lat="44.88882" lon="5.92603">
        <ele>827.6</ele>
        <time>2024-08-27T09:12:43Z</time>
      </trkpt>
      <trkpt lat="44.88882" lon="5.92607">
        <ele>827.9</ele>
        <time>2024-08-27T09:12:44Z</time>
      </trkpt>
      <trkpt lat="44.88883" lon="5.92608">
        <ele>828.1</ele>
        <time>2024-08-27T09:12:45Z</time>
      </trkpt>
      <trkpt lat="44.88883" lon="5.92613">
        <ele>828.4</ele>
        <time>2024-08-27T09:12:46Z</time>
      </trkpt>
      <trkpt lat="44.88883" lon="5.92614">
        <ele>828.5</ele>
        <time>2024-08-27T09:12:47Z</time>
      </trkpt>
      <trkpt lat="44.88884" lon="5.92619">
        <ele>828.8</ele>
        <time>2024-08-27T09:12:48Z</time>
      </trkpt>
      <trkpt lat="44.88885" lon="5.9262">
        <ele>828.9</ele>
        <time>2024-08-27T09:12:49Z</time>
      </trkpt>
      <trkpt lat="44.88885" lon="5.92624">
        <ele>829.2</ele>
        <time>2024-08-27T09:12:50Z</time>
      </trkpt>
      <trkpt lat="44.88885" lon="5.92626">
        <ele>829.3</ele>
        <time>2024-08-27T09:12:51Z</time>
      </trkpt>
      <trkpt lat="44.88886" lon="5.92631">
        <ele>829.6</ele>
        <time>2024-08-27T09:12:52Z</time>
      </trkpt>
      <trkpt lat="44.88886" lon="5.92632">
        <ele>829.7</ele>
        <time>2024-08-27T09:12:53Z</time>
      </trkpt>
      <trkpt lat="44.88885" lon="5.92637">
        <ele>830.1</ele>
        <time>2024-08-27T09:12:54Z</time>
      </trkpt>
      <trkpt lat="44.88885" lon="5.92639">
        <ele>830.2</ele>
        <time>2024-08-27T09:12:55Z</time>
      </trkpt>
      <trkpt lat="44.88883" lon="5.92643">
        <ele>830.5</ele>
        <time>2024-08-27T09:12:56Z</time>
      </trkpt>
      <trkpt lat="44.88882" lon="5.92644">
        <ele>830.6</ele>
        <time>2024-08-27T09:12:57Z</time>
      </trkpt>
      <trkpt lat="44.88879" lon="5.92646">
        <ele>830.8</ele>
        <time>2024-08-27T09:12:58Z</time>
      </trkpt>
      <trkpt lat="44.88878" lon="5.92646">
        <ele>830.9</ele>
        <time>2024-08-27T09:12:59Z</time>
      </trkpt>
      <trkpt lat="44.88874" lon="5.92644">
        <ele>831.1</ele>
        <time>2024-08-27T09:13:00Z</time>
      </trkpt>
      <trkpt lat="44.88873" lon="5.92644">
        <ele>831.2</ele>
        <time>2024-08-27T09:13:01Z</time>
      </trkpt>
      <trkpt lat="44.8887" lon="5.92641">
        <ele>831.4</ele>
        <time>2024-08-27T09:13:02Z</time>
      </trkpt>
      <trkpt lat="44.8887" lon="5.9264">
        <ele>831.4</ele>
        <time>2024-08-27T09:13:03Z</time>
      </trkpt>
      <trkpt lat="44.88867" lon="5.92636">
        <ele>831.6</ele>
        <time>2024-08-27T09:13:04Z</time>
      </trkpt>
      <trkpt lat="44.88866" lon="5.92635">
        <ele>831.7</ele>
        <time>2024-08-27T09:13:05Z</time>
      </trkpt>
      <trkpt lat="44.88864" lon="5.92631">
        <ele>831.8</ele>
        <time>2024-08-27T09:13:06Z</time>
      </trkpt>
      <trkpt lat="44.88863" lon="5.9263">
        <ele>831.9</ele>
        <time>2024-08-27T09:13:07Z</time>
      </trkpt>
      <trkpt lat="44.88861" lon="5.92627">
        <ele>832.1</ele>
        <time>2024-08-27T09:13:08Z</time>
      </trkpt>
      <trkpt lat="44.88861" lon="5.92626">
        <ele>832.2</ele>
        <time>2024-08-27T09:13:09Z</time>
      </trkpt>
      <trkpt lat="44.88859" lon="5.92622">
        <ele>832.4</ele>
        <time>2024-08-27T09:13:10Z</time>
      </trkpt>
      <trkpt lat="44.88858" lon="5.9262">
        <ele>832.4</ele>
        <time>2024-08-27T09:13:11Z</time>
      </trkpt>
      <trkpt lat="44.88856" lon="5.92616">
        <ele>832.6</ele>
        <time>2024-08-27T09:13:12Z</time>
      </trkpt>
      <trkpt lat="44.88856" lon="5.92615">
        <ele>832.7</ele>
        <time>2024-08-27T09:13:13Z</time>
      </trkpt>
      <trkpt lat="44.88854" lon="5.92611">
        <ele>832.9</ele>
        <time>2024-08-27T09:13:14Z</time>
      </trkpt>
      <trkpt lat="44.88853" lon="5.9261">
        <ele>833</ele>
        <time>2024-08-27T09:13:15Z</time>
      </trkpt>
      <trkpt lat="44.88852" lon="5.92606">
        <ele>833.2</ele>
        <time>2024-08-27T09:13:16Z</time>
      </trkpt>
      <trkpt lat="44.88851" lon="5.92605">
        <ele>833.3</ele>
        <time>2024-08-27T09:13:17Z</time>
      </trkpt>
      <trkpt lat="44.88849" lon="5.92602">
        <ele>833.5</ele>
        <time>2024-08-27T09:13:18Z</time>
      </trkpt>
      <trkpt lat="44.88848" lon="5.92601">
        <ele>833.6</ele>
        <time>2024-08-27T09:13:19Z</time>
      </trkpt>
      <trkpt lat="44.88846" lon="5.92598">
        <ele>833.8</ele>
        <time>2024-08-27T09:13:20Z</time>
      </trkpt>
      <trkpt lat="44.88845" lon="5.92597">
        <ele>833.9</ele>
        <time>2024-08-27T09:13:21Z</time>
      </trkpt>
      <trkpt lat="44.88842" lon="5.92595">
        <ele>834.1</ele>
        <time>2024-08-27T09:13:22Z</time>
      </trkpt>
      <trkpt lat="44.88841" lon="5.92594">
        <ele>834.2</ele>
        <time>2024-08-27T09:13:23Z</time>
      </trkpt>
      <trkpt lat="44.88839" lon="5.92592">
        <ele>834.5</ele>
        <time>2024-08-27T09:13:24Z</time>
      </trkpt>
      <trkpt lat="44.88838" lon="5.92591">
        <ele>834.6</ele>
        <time>2024-08-27T09:13:25Z</time>
      </trkpt>
      <trkpt lat="44.88835" lon="5.92589">
        <ele>834.8</ele>
        <time>2024-08-27T09:13:26Z</time>
      </trkpt>
      <trkpt lat="44.88834" lon="5.92588">
        <ele>834.9</ele>
        <time>2024-08-27T09:13:27Z</time>
      </trkpt>
      <trkpt lat="44.88832" lon="5.92586">
        <ele>835.2</ele>
        <time>2024-08-27T09:13:28Z</time>
      </trkpt>
      <trkpt lat="44.88831" lon="5.92586">
        <ele>835.3</ele>
        <time>2024-08-27T09:13:29Z</time>
      </trkpt>
      <trkpt lat="44.88828" lon="5.92584">
        <ele>835.6</ele>
        <time>2024-08-27T09:13:30Z</time>
      </trkpt>
      <trkpt lat="44.88828" lon="5.92583">
        <ele>835.7</ele>
        <time>2024-08-27T09:13:31Z</time>
      </trkpt>
      <trkpt lat="44.88825" lon="5.92581">
        <ele>836</ele>
        <time>2024-08-27T09:13:32Z</time>
      </trkpt>
      <trkpt lat="44.88824" lon="5.92581">
        <ele>836.1</ele>
        <time>2024-08-27T09:13:33Z</time>
      </trkpt>
      <trkpt lat="44.88822" lon="5.92578">
        <ele>836.4</ele>
        <time>2024-08-27T09:13:34Z</time>
      </trkpt>
      <trkpt lat="44.88821" lon="5.92578">
        <ele>836.5</ele>
        <time>2024-08-27T09:13:35Z</time>
      </trkpt>
      <trkpt lat="44.88819" lon="5.92576">
        <ele>836.8</ele>
        <time>2024-08-27T09:13:36Z</time>
      </trkpt>
      <trkpt lat="44.88818" lon="5.92575">
        <ele>836.9</ele>
        <time>2024-08-27T09:13:37Z</time>
      </trkpt>
      <trkpt lat="44.88817" lon="5.92574">
        <ele>837.1</ele>
        <time>2024-08-27T09:13:38Z</time>
      </trkpt>
      <trkpt lat="44.88815" lon="5.92573">
        <ele>837.3</ele>
        <time>2024-08-27T09:13:39Z</time>
      </trkpt>
      <trkpt lat="44.88814" lon="5.92572">
        <ele>837.5</ele>
        <time>2024-08-27T09:13:40Z</time>
      </trkpt>
      <trkpt lat="44.88812" lon="5.92571">
        <ele>837.7</ele>
        <time>2024-08-27T09:13:41Z</time>
      </trkpt>
      <trkpt lat="44.88811" lon="5.9257">
        <ele>837.9</ele>
        <time>2024-08-27T09:13:42Z</time>
      </trkpt>
      <trkpt lat="44.88809" lon="5.92569">
        <ele>838.1</ele>
        <time>2024-08-27T09:13:43Z</time>
      </trkpt>
      <trkpt lat="44.88807" lon="5.92566">
        <ele>838.5</ele>
        <time>2024-08-27T09:13:44Z</time>
      </trkpt>
      <trkpt lat="44.88806" lon="5.92566">
        <ele>838.6</ele>
        <time>2024-08-27T09:13:45Z</time>
      </trkpt>
      <trkpt lat="44.88803" lon="5.92564">
        <ele>838.9</ele>
        <time>2024-08-27T09:13:46Z</time>
      </trkpt>
      <trkpt lat="44.88803" lon="5.92563">
        <ele>839</ele>
        <time>2024-08-27T09:13:47Z</time>
      </trkpt>
      <trkpt lat="44.888" lon="5.92561">
        <ele>839.4</ele>
        <time>2024-08-27T09:13:48Z</time>
      </trkpt>
      <trkpt lat="44.88799" lon="5.92561">
        <ele>839.5</ele>
        <time>2024-08-27T09:13:49Z</time>
      </trkpt>
      <trkpt lat="44.88798" lon="5.9256">
        <ele>839.7</ele>
        <time>2024-08-27T09:13:50Z</time>
      </trkpt>
      <trkpt lat="44.88796" lon="5.92559">
        <ele>839.9</ele>
        <time>2024-08-27T09:13:51Z</time>
      </trkpt>
      <trkpt lat="44.88795" lon="5.92558">
        <ele>840.1</ele>
        <time>2024-08-27T09:13:52Z</time>
      </trkpt>
      <trkpt lat="44.88793" lon="5.92557">
        <ele>840.3</ele>
        <time>2024-08-27T09:13:53Z</time>
      </trkpt>
      <trkpt lat="44.88791" lon="5.92556">
        <ele>840.7</ele>
        <time>2024-08-27T09:13:54Z</time>
      </trkpt>
      <trkpt lat="44.8879" lon="5.92555">
        <ele>840.8</ele>
        <time>2024-08-27T09:13:55Z</time>
      </trkpt>
      <trkpt lat="44.88788" lon="5.92553">
        <ele>841.2</ele>
        <time>2024-08-27T09:13:56Z</time>
      </trkpt>
      <trkpt lat="44.88787" lon="5.92552">
        <ele>841.3</ele>
        <time>2024-08-27T09:13:57Z</time>
      </trkpt>
      <trkpt lat="44.88785" lon="5.9255">
        <ele>841.6</ele>
        <time>2024-08-27T09:13:58Z</time>
      </trkpt>
      <trkpt lat="44.88784" lon="5.92549">
        <ele>841.7</ele>
        <time>2024-08-27T09:13:59Z</time>
      </trkpt>
      <trkpt lat="44.88781" lon="5.92547">
        <ele>842.1</ele>
        <time>2024-08-27T09:14:00Z</time>
      </trkpt>
      <trkpt lat="44.88781" lon="5.92546">
        <ele>842.2</ele>
        <time>2024-08-27T09:14:01Z</time>
      </trkpt>
      <trkpt lat="44.88778" lon="5.92544">
        <ele>842.5</ele>
        <time>2024-08-27T09:14:02Z</time>
      </trkpt>
      <trkpt lat="44.88778" lon="5.92543">
        <ele>842.6</ele>
        <time>2024-08-27T09:14:03Z</time>
      </trkpt>
      <trkpt lat="44.88776" lon="5.9254">
        <ele>843</ele>
        <time>2024-08-27T09:14:04Z</time>
      </trkpt>
      <trkpt lat="44.88775" lon="5.92539">
        <ele>843.1</ele>
        <time>2024-08-27T09:14:05Z</time>
      </trkpt>
      <trkpt lat="44.88774" lon="5.92538">
        <ele>843.3</ele>
        <time>2024-08-27T09:14:06Z</time>
      </trkpt>
      <trkpt lat="44.88773" lon="5.92536">
        <ele>843.5</ele>
        <time>2024-08-27T09:14:07Z</time>
      </trkpt>
      <trkpt lat="44.88772" lon="5.92534">
        <ele>843.7</ele>
        <time>2024-08-27T09:14:08Z</time>
      </trkpt>
      <trkpt lat="44.88771" lon="5.92532">
        <ele>843.9</ele>
        <time>2024-08-27T09:14:09Z</time>
      </trkpt>
      <trkpt lat="44.8877" lon="5.92531">
        <ele>844.1</ele>
        <time>2024-08-27T09:14:10Z</time>
      </trkpt>
      <trkpt lat="44.88768" lon="5.92529">
        <ele>844.3</ele>
        <time>2024-08-27T09:14:11Z</time>
      </trkpt>
      <trkpt lat="44.88767" lon="5.92527">
        <ele>844.5</ele>
        <time>2024-08-27T09:14:12Z</time>
      </trkpt>
      <trkpt lat="44.88766" lon="5.92526">
        <ele>844.7</ele>
        <time>2024-08-27T09:14:13Z</time>
      </trkpt>
      <trkpt lat="44.88764" lon="5.92524">
        <ele>844.9</ele>
        <time>2024-08-27T09:14:14Z</time>
      </trkpt>
      <trkpt lat="44.88763" lon="5.92522">
        <ele>845.1</ele>
        <time>2024-08-27T09:14:15Z</time>
      </trkpt>
      <trkpt lat="44.88762" lon="5.92521">
        <ele>845.3</ele>
        <time>2024-08-27T09:14:16Z</time>
      </trkpt>
      <trkpt lat="44.8876" lon="5.92519">
        <ele>845.6</ele>
        <time>2024-08-27T09:14:17Z</time>
      </trkpt>
      <trkpt lat="44.88759" lon="5.92517">
        <ele>845.8</ele>
        <time>2024-08-27T09:14:18Z</time>
      </trkpt>
      <trkpt lat="44.88758" lon="5.92515">
        <ele>846</ele>
        <time>2024-08-27T09:14:19Z</time>
      </trkpt>
      <trkpt lat="44.88757" lon="5.92514">
        <ele>846.2</ele>
        <time>2024-08-27T09:14:20Z</time>
      </trkpt>
      <trkpt lat="44.88756" lon="5.92512">
        <ele>846.4</ele>
        <time>2024-08-27T09:14:21Z</time>
      </trkpt>
      <trkpt lat="44.88755" lon="5.9251">
        <ele>846.6</ele>
        <time>2024-08-27T09:14:22Z</time>
      </trkpt>
      <trkpt lat="44.88753" lon="5.92508">
        <ele>846.8</ele>
        <time>2024-08-27T09:14:23Z</time>
      </trkpt>
      <trkpt lat="44.88752" lon="5.92507">
        <ele>847</ele>
        <time>2024-08-27T09:14:24Z</time>
      </trkpt>
      <trkpt lat="44.88751" lon="5.92505">
        <ele>847.2</ele>
        <time>2024-08-27T09:14:25Z</time>
      </trkpt>
      <trkpt lat="44.8875" lon="5.92503">
        <ele>847.4</ele>
        <time>2024-08-27T09:14:26Z</time>
      </trkpt>
      <trkpt lat="44.88749" lon="5.92502">
        <ele>847.5</ele>
        <time>2024-08-27T09:14:27Z</time>
      </trkpt>
      <trkpt lat="44.88748" lon="5.925">
        <ele>847.7</ele>
        <time>2024-08-27T09:14:28Z</time>
      </trkpt>
      <trkpt lat="44.88747" lon="5.92499">
        <ele>847.9</ele>
        <time>2024-08-27T09:14:29Z</time>
      </trkpt>
      <trkpt lat="44.88745" lon="5.92497">
        <ele>848.1</ele>
        <time>2024-08-27T09:14:30Z</time>
      </trkpt>
      <trkpt lat="44.88744" lon="5.92495">
        <ele>848.3</ele>
        <time>2024-08-27T09:14:31Z</time>
      </trkpt>
      <trkpt lat="44.88743" lon="5.92493">
        <ele>848.5</ele>
        <time>2024-08-27T09:14:32Z</time>
      </trkpt>
      <trkpt lat="44.88742" lon="5.92491">
        <ele>848.8</ele>
        <time>2024-08-27T09:14:33Z</time>
      </trkpt>
      <trkpt lat="44.88741" lon="5.92489">
        <ele>849</ele>
        <time>2024-08-27T09:14:34Z</time>
      </trkpt>
      <trkpt lat="44.8874" lon="5.92488">
        <ele>849.1</ele>
        <time>2024-08-27T09:14:35Z</time>
      </trkpt>
      <trkpt lat="44.88738" lon="5.92486">
        <ele>849.3</ele>
        <time>2024-08-27T09:14:36Z</time>
      </trkpt>
      <trkpt lat="44.88737" lon="5.92484">
        <ele>849.5</ele>
        <time>2024-08-27T09:14:37Z</time>
      </trkpt>
      <trkpt lat="44.88736" lon="5.92483">
        <ele>849.7</ele>
        <time>2024-08-27T09:14:38Z</time>
      </trkpt>
      <trkpt lat="44.88735" lon="5.92481">
        <ele>849.9</ele>
        <time>2024-08-27T09:14:39Z</time>
      </trkpt>
      <trkpt lat="44.88733" lon="5.9248">
        <ele>850.1</ele>
        <time>2024-08-27T09:14:40Z</time>
      </trkpt>
      <trkpt lat="44.88732" lon="5.92479">
        <ele>850.3</ele>
        <time>2024-08-27T09:14:41Z</time>
      </trkpt>
      <trkpt lat="44.88731" lon="5.92477">
        <ele>850.5</ele>
        <time>2024-08-27T09:14:42Z</time>
      </trkpt>
      <trkpt lat="44.88729" lon="5.92476">
        <ele>850.7</ele>
        <time>2024-08-27T09:14:43Z</time>
      </trkpt>
      <trkpt lat="44.88728" lon="5.92475">
        <ele>850.9</ele>
        <time>2024-08-27T09:14:44Z</time>
      </trkpt>
      <trkpt lat="44.88726" lon="5.92473">
        <ele>851.1</ele>
        <time>2024-08-27T09:14:45Z</time>
      </trkpt>
      <trkpt lat="44.88725" lon="5.92471">
        <ele>851.3</ele>
        <time>2024-08-27T09:14:46Z</time>
      </trkpt>
      <trkpt lat="44.88724" lon="5.9247">
        <ele>851.5</ele>
        <time>2024-08-27T09:14:47Z</time>
      </trkpt>
      <trkpt lat="44.88722" lon="5.92469">
        <ele>851.7</ele>
        <time>2024-08-27T09:14:48Z</time>
      </trkpt>
      <trkpt lat="44.88721" lon="5.92467">
        <ele>851.9</ele>
        <time>2024-08-27T09:14:49Z</time>
      </trkpt>
      <trkpt lat="44.88719" lon="5.92464">
        <ele>852.3</ele>
        <time>2024-08-27T09:14:50Z</time>
      </trkpt>
      <trkpt lat="44.88718" lon="5.92463">
        <ele>852.4</ele>
        <time>2024-08-27T09:14:51Z</time>
      </trkpt>
      <trkpt lat="44.88716" lon="5.92461">
        <ele>852.7</ele>
        <time>2024-08-27T09:14:52Z</time>
      </trkpt>
      <trkpt lat="44.88715" lon="5.9246">
        <ele>852.9</ele>
        <time>2024-08-27T09:14:53Z</time>
      </trkpt>
      <trkpt lat="44.88714" lon="5.92459">
        <ele>853.1</ele>
        <time>2024-08-27T09:14:54Z</time>
      </trkpt>
      <trkpt lat="44.88712" lon="5.92457">
        <ele>853.3</ele>
        <time>2024-08-27T09:14:55Z</time>
      </trkpt>
      <trkpt lat="44.88711" lon="5.92456">
        <ele>853.5</ele>
        <time>2024-08-27T09:14:56Z</time>
      </trkpt>
      <trkpt lat="44.88709" lon="5.92455">
        <ele>853.7</ele>
        <time>2024-08-27T09:14:57Z</time>
      </trkpt>
      <trkpt lat="44.88707" lon="5.92452">
        <ele>854.1</ele>
        <time>2024-08-27T09:14:58Z</time>
      </trkpt>
      <trkpt lat="44.88706" lon="5.92451">
        <ele>854.2</ele>
        <time>2024-08-27T09:14:59Z</time>
      </trkpt>
      <trkpt lat="44.88704" lon="5.92449">
        <ele>854.6</ele>
        <time>2024-08-27T09:15:00Z</time>
      </trkpt>
      <trkpt lat="44.88704" lon="5.92448">
        <ele>854.7</ele>
        <time>2024-08-27T09:15:01Z</time>
      </trkpt>
      <trkpt lat="44.88702" lon="5.92445">
        <ele>855.1</ele>
        <time>2024-08-27T09:15:02Z</time>
      </trkpt>
      <trkpt lat="44.88701" lon="5.92444">
        <ele>855.3</ele>
        <time>2024-08-27T09:15:03Z</time>
      </trkpt>
      <trkpt lat="44.88699" lon="5.92442">
        <ele>855.7</ele>
        <time>2024-08-27T09:15:04Z</time>
      </trkpt>
      <trkpt lat="44.88698" lon="5.92441">
        <ele>855.8</ele>
        <time>2024-08-27T09:15:05Z</time>
      </trkpt>
      <trkpt lat="44.88697" lon="5.92439">
        <ele>856.1</ele>
        <time>2024-08-27T09:15:06Z</time>
      </trkpt>
      <trkpt lat="44.88695" lon="5.92438">
        <ele>856.3</ele>
        <time>2024-08-27T09:15:07Z</time>
      </trkpt>
      <trkpt lat="44.88694" lon="5.92436">
        <ele>856.6</ele>
        <time>2024-08-27T09:15:08Z</time>
      </trkpt>
      <trkpt lat="44.88693" lon="5.92434">
        <ele>856.9</ele>
        <time>2024-08-27T09:15:09Z</time>
      </trkpt>
      <trkpt lat="44.88691" lon="5.92433">
        <ele>857.1</ele>
        <time>2024-08-27T09:15:10Z</time>
      </trkpt>
      <trkpt lat="44.8869" lon="5.92431">
        <ele>857.4</ele>
        <time>2024-08-27T09:15:11Z</time>
      </trkpt>
      <trkpt lat="44.88689" lon="5.9243">
        <ele>857.7</ele>
        <time>2024-08-27T09:15:12Z</time>
      </trkpt>
      <trkpt lat="44.88687" lon="5.92429">
        <ele>858</ele>
        <time>2024-08-27T09:15:13Z</time>
      </trkpt>
      <trkpt lat="44.88685" lon="5.92428">
        <ele>858.3</ele>
        <time>2024-08-27T09:15:14Z</time>
      </trkpt>
      <trkpt lat="44.88682" lon="5.92427">
        <ele>858.9</ele>
        <time>2024-08-27T09:15:16Z</time>
      </trkpt>
      <trkpt lat="44.8868" lon="5.92427">
        <ele>859.1</ele>
        <time>2024-08-27T09:15:17Z</time>
      </trkpt>
      <trkpt lat="44.88679" lon="5.92428">
        <ele>859.4</ele>
        <time>2024-08-27T09:15:18Z</time>
      </trkpt>
      <trkpt lat="44.88678" lon="5.92428">
        <ele>859.7</ele>
        <time>2024-08-27T09:15:19Z</time>
      </trkpt>
      <trkpt lat="44.88676" lon="5.92428">
        <ele>859.9</ele>
        <time>2024-08-27T09:15:20Z</time>
      </trkpt>
      <trkpt lat="44.88675" lon="5.92429">
        <ele>860.2</ele>
        <time>2024-08-27T09:15:21Z</time>
      </trkpt>
      <trkpt lat="44.88673" lon="5.92432">
        <ele>860.6</ele>
        <time>2024-08-27T09:15:22Z</time>
      </trkpt>
      <trkpt lat="44.88672" lon="5.92433">
        <ele>860.8</ele>
        <time>2024-08-27T09:15:23Z</time>
      </trkpt>
      <trkpt lat="44.88671" lon="5.92437">
        <ele>861.3</ele>
        <time>2024-08-27T09:15:24Z</time>
      </trkpt>
      <trkpt lat="44.8867" lon="5.92439">
        <ele>861.4</ele>
        <time>2024-08-27T09:15:25Z</time>
      </trkpt>
      <trkpt lat="44.8867" lon="5.92443">
        <ele>861.8</ele>
        <time>2024-08-27T09:15:26Z</time>
      </trkpt>
      <trkpt lat="44.8867" lon="5.92444">
        <ele>862</ele>
        <time>2024-08-27T09:15:27Z</time>
      </trkpt>
      <trkpt lat="44.88671" lon="5.92448">
        <ele>862.3</ele>
        <time>2024-08-27T09:15:28Z</time>
      </trkpt>
      <trkpt lat="44.88671" lon="5.92449">
        <ele>862.4</ele>
        <time>2024-08-27T09:15:29Z</time>
      </trkpt>
      <trkpt lat="44.88671" lon="5.92453">
        <ele>862.7</ele>
        <time>2024-08-27T09:15:30Z</time>
      </trkpt>
      <trkpt lat="44.88672" lon="5.92455">
        <ele>862.8</ele>
        <time>2024-08-27T09:15:31Z</time>
      </trkpt>
      <trkpt lat="44.88672" lon="5.92457">
        <ele>863</ele>
        <time>2024-08-27T09:15:32Z</time>
      </trkpt>
      <trkpt lat="44.88672" lon="5.92459">
        <ele>863.2</ele>
        <time>2024-08-27T09:15:33Z</time>
      </trkpt>
      <trkpt lat="44.88673" lon="5.92462">
        <ele>863.3</ele>
        <time>2024-08-27T09:15:34Z</time>
      </trkpt>
      <trkpt lat="44.88673" lon="5.92464">
        <ele>863.5</ele>
        <time>2024-08-27T09:15:35Z</time>
      </trkpt>
      <trkpt lat="44.88674" lon="5.92466">
        <ele>863.7</ele>
        <time>2024-08-27T09:15:36Z</time>
      </trkpt>
      <trkpt lat="44.88674" lon="5.92469">
        <ele>863.9</ele>
        <time>2024-08-27T09:15:37Z</time>
      </trkpt>
      <trkpt lat="44.88674" lon="5.92471">
        <ele>864</ele>
        <time>2024-08-27T09:15:38Z</time>
      </trkpt>
      <trkpt lat="44.88674" lon="5.92474">
        <ele>864.2</ele>
        <time>2024-08-27T09:15:39Z</time>
      </trkpt>
      <trkpt lat="44.88674" lon="5.92476">
        <ele>864.4</ele>
        <time>2024-08-27T09:15:40Z</time>
      </trkpt>
      <trkpt lat="44.88674" lon="5.92479">
        <ele>864.6</ele>
        <time>2024-08-27T09:15:41Z</time>
      </trkpt>
      <trkpt lat="44.88675" lon="5.92481">
        <ele>864.7</ele>
        <time>2024-08-27T09:15:42Z</time>
      </trkpt>
      <trkpt lat="44.88675" lon="5.92483">
        <ele>864.9</ele>
        <time>2024-08-27T09:15:43Z</time>
      </trkpt>
      <trkpt lat="44.88676" lon="5.92485">
        <ele>865.1</ele>
        <time>2024-08-27T09:15:44Z</time>
      </trkpt>
      <trkpt lat="44.88676" lon="5.92487">
        <ele>865.3</ele>
        <time>2024-08-27T09:15:45Z</time>
      </trkpt>
      <trkpt lat="44.88676" lon="5.92489">
        <ele>865.5</ele>
        <time>2024-08-27T09:15:46Z</time>
      </trkpt>
      <trkpt lat="44.88677" lon="5.92492">
        <ele>865.6</ele>
        <time>2024-08-27T09:15:47Z</time>
      </trkpt>
      <trkpt lat="44.88677" lon="5.92494">
        <ele>865.8</ele>
        <time>2024-08-27T09:15:48Z</time>
      </trkpt>
      <trkpt lat="44.88677" lon="5.92496">
        <ele>866</ele>
        <time>2024-08-27T09:15:49Z</time>
      </trkpt>
      <trkpt lat="44.88677" lon="5.92498">
        <ele>866.2</ele>
        <time>2024-08-27T09:15:50Z</time>
      </trkpt>
      <trkpt lat="44.88677" lon="5.92501">
        <ele>866.4</ele>
        <time>2024-08-27T09:15:51Z</time>
      </trkpt>
      <trkpt lat="44.88677" lon="5.92503">
        <ele>866.6</ele>
        <time>2024-08-27T09:15:52Z</time>
      </trkpt>
      <trkpt lat="44.88677" lon="5.92505">
        <ele>866.8</ele>
        <time>2024-08-27T09:15:53Z</time>
      </trkpt>
      <trkpt lat="44.88677" lon="5.92508">
        <ele>867</ele>
        <time>2024-08-27T09:15:54Z</time>
      </trkpt>
      <trkpt lat="44.88677" lon="5.9251">
        <ele>867.2</ele>
        <time>2024-08-27T09:15:55Z</time>
      </trkpt>
      <trkpt lat="44.88676" lon="5.92512">
        <ele>867.4</ele>
        <time>2024-08-27T09:15:56Z</time>
      </trkpt>
      <trkpt lat="44.88675" lon="5.92514">
        <ele>867.7</ele>
        <time>2024-08-27T09:15:57Z</time>
      </trkpt>
      <trkpt lat="44.88675" lon="5.92517">
        <ele>867.9</ele>
        <time>2024-08-27T09:15:58Z</time>
      </trkpt>
      <trkpt lat="44.88674" lon="5.92519">
        <ele>868.1</ele>
        <time>2024-08-27T09:15:59Z</time>
      </trkpt>
      <trkpt lat="44.88673" lon="5.92521">
        <ele>868.3</ele>
        <time>2024-08-27T09:16:00Z</time>
      </trkpt>
      <trkpt lat="44.88672" lon="5.92524">
        <ele>868.5</ele>
        <time>2024-08-27T09:16:01Z</time>
      </trkpt>
      <trkpt lat="44.88672" lon="5.92526">
        <ele>868.7</ele>
        <time>2024-08-27T09:16:02Z</time>
      </trkpt>
      <trkpt lat="44.88671" lon="5.92528">
        <ele>868.9</ele>
        <time>2024-08-27T09:16:03Z</time>
      </trkpt>
      <trkpt lat="44.8867" lon="5.9253">
        <ele>869.2</ele>
        <time>2024-08-27T09:16:04Z</time>
      </trkpt>
      <trkpt lat="44.88669" lon="5.92532">
        <ele>869.4</ele>
        <time>2024-08-27T09:16:05Z</time>
      </trkpt>
      <trkpt lat="44.88668" lon="5.92534">
        <ele>869.6</ele>
        <time>2024-08-27T09:16:06Z</time>
      </trkpt>
      <trkpt lat="44.88667" lon="5.92535">
        <ele>869.8</ele>
        <time>2024-08-27T09:16:07Z</time>
      </trkpt>
      <trkpt lat="44.88666" lon="5.92537">
        <ele>870</ele>
        <time>2024-08-27T09:16:08Z</time>
      </trkpt>
      <trkpt lat="44.88665" lon="5.92539">
        <ele>870.2</ele>
        <time>2024-08-27T09:16:09Z</time>
      </trkpt>
      <trkpt lat="44.88664" lon="5.92541">
        <ele>870.4</ele>
        <time>2024-08-27T09:16:10Z</time>
      </trkpt>
      <trkpt lat="44.88663" lon="5.92543">
        <ele>870.6</ele>
        <time>2024-08-27T09:16:11Z</time>
      </trkpt>
      <trkpt lat="44.88662" lon="5.92545">
        <ele>870.8</ele>
        <time>2024-08-27T09:16:12Z</time>
      </trkpt>
      <trkpt lat="44.88661" lon="5.92546">
        <ele>871</ele>
        <time>2024-08-27T09:16:13Z</time>
      </trkpt>
      <trkpt lat="44.8866" lon="5.92548">
        <ele>871.2</ele>
        <time>2024-08-27T09:16:14Z</time>
      </trkpt>
      <trkpt lat="44.88658" lon="5.92549">
        <ele>871.4</ele>
        <time>2024-08-27T09:16:15Z</time>
      </trkpt>
      <trkpt lat="44.88657" lon="5.92551">
        <ele>871.6</ele>
        <time>2024-08-27T09:16:16Z</time>
      </trkpt>
      <trkpt lat="44.88656" lon="5.92553">
        <ele>871.8</ele>
        <time>2024-08-27T09:16:17Z</time>
      </trkpt>
      <trkpt lat="44.88655" lon="5.92554">
        <ele>872</ele>
        <time>2024-08-27T09:16:18Z</time>
      </trkpt>
      <trkpt lat="44.88654" lon="5.92556">
        <ele>872.2</ele>
        <time>2024-08-27T09:16:19Z</time>
      </trkpt>
      <trkpt lat="44.88653" lon="5.92558">
        <ele>872.4</ele>
        <time>2024-08-27T09:16:20Z</time>
      </trkpt>
      <trkpt lat="44.88652" lon="5.92559">
        <ele>872.6</ele>
        <time>2024-08-27T09:16:21Z</time>
      </trkpt>
      <trkpt lat="44.88651" lon="5.92561">
        <ele>872.8</ele>
        <time>2024-08-27T09:16:22Z</time>
      </trkpt>
      <trkpt lat="44.8865" lon="5.92563">
        <ele>873</ele>
        <time>2024-08-27T09:16:23Z</time>
      </trkpt>
      <trkpt lat="44.88649" lon="5.92564">
        <ele>873.2</ele>
        <time>2024-08-27T09:16:24Z</time>
      </trkpt>
      <trkpt lat="44.88648" lon="5.92566">
        <ele>873.4</ele>
        <time>2024-08-27T09:16:25Z</time>
      </trkpt>
      <trkpt lat="44.88647" lon="5.92568">
        <ele>873.6</ele>
        <time>2024-08-27T09:16:26Z</time>
      </trkpt>
      <trkpt lat="44.88646" lon="5.9257">
        <ele>873.8</ele>
        <time>2024-08-27T09:16:27Z</time>
      </trkpt>
      <trkpt lat="44.88645" lon="5.92572">
        <ele>874</ele>
        <time>2024-08-27T09:16:28Z</time>
      </trkpt>
      <trkpt lat="44.88644" lon="5.92574">
        <ele>874.2</ele>
        <time>2024-08-27T09:16:29Z</time>
      </trkpt>
      <trkpt lat="44.88643" lon="5.92576">
        <ele>874.4</ele>
        <time>2024-08-27T09:16:30Z</time>
      </trkpt>
      <trkpt lat="44.88642" lon="5.92577">
        <ele>874.6</ele>
        <time>2024-08-27T09:16:31Z</time>
      </trkpt>
      <trkpt lat="44.8864" lon="5.92578">
        <ele>874.8</ele>
        <time>2024-08-27T09:16:32Z</time>
      </trkpt>
      <trkpt lat="44.88639" lon="5.9258">
        <ele>875</ele>
        <time>2024-08-27T09:16:33Z</time>
      </trkpt>
      <trkpt lat="44.88638" lon="5.92581">
        <ele>875.2</ele>
        <time>2024-08-27T09:16:34Z</time>
      </trkpt>
      <trkpt lat="44.88637" lon="5.92583">
        <ele>875.3</ele>
        <time>2024-08-27T09:16:35Z</time>
      </trkpt>
      <trkpt lat="44.88636" lon="5.92585">
        <ele>875.5</ele>
        <time>2024-08-27T09:16:36Z</time>
      </trkpt>
      <trkpt lat="44.88635" lon="5.92586">
        <ele>875.7</ele>
        <time>2024-08-27T09:16:37Z</time>
      </trkpt>
      <trkpt lat="44.88634" lon="5.92588">
        <ele>875.9</ele>
        <time>2024-08-27T09:16:38Z</time>
      </trkpt>
      <trkpt lat="44.88633" lon="5.9259">
        <ele>876.1</ele>
        <time>2024-08-27T09:16:39Z</time>
      </trkpt>
      <trkpt lat="44.88631" lon="5.92592">
        <ele>876.3</ele>
        <time>2024-08-27T09:16:40Z</time>
      </trkpt>
      <trkpt lat="44.8863" lon="5.92594">
        <ele>876.5</ele>
        <time>2024-08-27T09:16:41Z</time>
      </trkpt>
      <trkpt lat="44.88629" lon="5.92596">
        <ele>876.8</ele>
        <time>2024-08-27T09:16:42Z</time>
      </trkpt>
      <trkpt lat="44.88628" lon="5.92598">
        <ele>877</ele>
        <time>2024-08-27T09:16:43Z</time>
      </trkpt>
      <trkpt lat="44.88627" lon="5.92599">
        <ele>877.2</ele>
        <time>2024-08-27T09:16:44Z</time>
      </trkpt>
      <trkpt lat="44.88626" lon="5.92601">
        <ele>877.4</ele>
        <time>2024-08-27T09:16:45Z</time>
      </trkpt>
      <trkpt lat="44.88625" lon="5.92603">
        <ele>877.7</ele>
        <time>2024-08-27T09:16:46Z</time>
      </trkpt>
      <trkpt lat="44.88624" lon="5.92606">
        <ele>877.9</ele>
        <time>2024-08-27T09:16:47Z</time>
      </trkpt>
      <trkpt lat="44.88623" lon="5.92607">
        <ele>878.1</ele>
        <time>2024-08-27T09:16:48Z</time>
      </trkpt>
      <trkpt lat="44.88622" lon="5.92609">
        <ele>878.4</ele>
        <time>2024-08-27T09:16:49Z</time>
      </trkpt>
      <trkpt lat="44.88621" lon="5.92611">
        <ele>878.6</ele>
        <time>2024-08-27T09:16:50Z</time>
      </trkpt>
      <trkpt lat="44.88619" lon="5.92613">
        <ele>878.8</ele>
        <time>2024-08-27T09:16:51Z</time>
      </trkpt>
      <trkpt lat="44.88618" lon="5.92614">
        <ele>879.1</ele>
        <time>2024-08-27T09:16:52Z</time>
      </trkpt>
      <trkpt lat="44.88617" lon="5.92616">
        <ele>879.3</ele>
        <time>2024-08-27T09:16:53Z</time>
      </trkpt>
      <trkpt lat="44.88616" lon="5.92619">
        <ele>879.6</ele>
        <time>2024-08-27T09:16:54Z</time>
      </trkpt>
      <trkpt lat="44.88615" lon="5.9262">
        <ele>879.9</ele>
        <time>2024-08-27T09:16:55Z</time>
      </trkpt>
      <trkpt lat="44.88614" lon="5.92622">
        <ele>880.1</ele>
        <time>2024-08-27T09:16:56Z</time>
      </trkpt>
      <trkpt lat="44.88612" lon="5.92624">
        <ele>880.4</ele>
        <time>2024-08-27T09:16:57Z</time>
      </trkpt>
      <trkpt lat="44.88611" lon="5.92626">
        <ele>880.6</ele>
        <time>2024-08-27T09:16:58Z</time>
      </trkpt>
      <trkpt lat="44.8861" lon="5.92627">
        <ele>880.9</ele>
        <time>2024-08-27T09:16:59Z</time>
      </trkpt>
      <trkpt lat="44.88609" lon="5.92629">
        <ele>881.2</ele>
        <time>2024-08-27T09:17:00Z</time>
      </trkpt>
      <trkpt lat="44.88608" lon="5.92631">
        <ele>881.4</ele>
        <time>2024-08-27T09:17:01Z</time>
      </trkpt>
      <trkpt lat="44.88607" lon="5.92634">
        <ele>881.7</ele>
        <time>2024-08-27T09:17:02Z</time>
      </trkpt>
      <trkpt lat="44.88607" lon="5.92636">
        <ele>881.9</ele>
        <time>2024-08-27T09:17:03Z</time>
      </trkpt>
      <trkpt lat="44.88606" lon="5.92638">
        <ele>882.2</ele>
        <time>2024-08-27T09:17:04Z</time>
      </trkpt>
      <trkpt lat="44.88606" lon="5.9264">
        <ele>882.4</ele>
        <time>2024-08-27T09:17:05Z</time>
      </trkpt>
      <trkpt lat="44.88605" lon="5.92642">
        <ele>882.7</ele>
        <time>2024-08-27T09:17:06Z</time>
      </trkpt>
      <trkpt lat="44.88605" lon="5.92644">
        <ele>882.9</ele>
        <time>2024-08-27T09:17:07Z</time>
      </trkpt>
      <trkpt lat="44.88605" lon="5.92646">
        <ele>883.1</ele>
        <time>2024-08-27T09:17:08Z</time>
      </trkpt>
      <trkpt lat="44.88605" lon="5.92648">
        <ele>883.4</ele>
        <time>2024-08-27T09:17:09Z</time>
      </trkpt>
      <trkpt lat="44.88605" lon="5.92651">
        <ele>883.6</ele>
        <time>2024-08-27T09:17:10Z</time>
      </trkpt>
      <trkpt lat="44.88605" lon="5.92653">
        <ele>883.9</ele>
        <time>2024-08-27T09:17:11Z</time>
      </trkpt>
      <trkpt lat="44.88606" lon="5.92654">
        <ele>884.1</ele>
        <time>2024-08-27T09:17:12Z</time>
      </trkpt>
      <trkpt lat="44.88606" lon="5.92657">
        <ele>884.3</ele>
        <time>2024-08-27T09:17:13Z</time>
      </trkpt>
      <trkpt lat="44.88606" lon="5.92659">
        <ele>884.6</ele>
        <time>2024-08-27T09:17:14Z</time>
      </trkpt>
      <trkpt lat="44.88607" lon="5.92661">
        <ele>884.9</ele>
        <time>2024-08-27T09:17:15Z</time>
      </trkpt>
      <trkpt lat="44.88607" lon="5.92664">
        <ele>885.1</ele>
        <time>2024-08-27T09:17:16Z</time>
      </trkpt>
      <trkpt lat="44.88608" lon="5.92665">
        <ele>885.3</ele>
        <time>2024-08-27T09:17:17Z</time>
      </trkpt>
      <trkpt lat="44.88608" lon="5.92667">
        <ele>885.5</ele>
        <time>2024-08-27T09:17:18Z</time>
      </trkpt>
      <trkpt lat="44.88608" lon="5.92668">
        <ele>885.6</ele>
        <time>2024-08-27T09:17:19Z</time>
      </trkpt>
      <trkpt lat="44.88609" lon="5.9267">
        <ele>885.8</ele>
        <time>2024-08-27T09:17:20Z</time>
      </trkpt>
      <trkpt lat="44.8861" lon="5.92671">
        <ele>886</ele>
        <time>2024-08-27T09:17:21Z</time>
      </trkpt>
      <trkpt lat="44.88611" lon="5.92672">
        <ele>886.2</ele>
        <time>2024-08-27T09:17:22Z</time>
      </trkpt>
      <trkpt lat="44.88612" lon="5.92674">
        <ele>886.5</ele>
        <time>2024-08-27T09:17:23Z</time>
      </trkpt>
      <trkpt lat="44.88613" lon="5.92675">
        <ele>886.6</ele>
        <time>2024-08-27T09:17:24Z</time>
      </trkpt>
      <trkpt lat="44.88613" lon="5.92676">
        <ele>886.7</ele>
        <time>2024-08-27T09:17:25Z</time>
      </trkpt>
      <trkpt lat="44.88614" lon="5.92679">
        <ele>887</ele>
        <time>2024-08-27T09:17:26Z</time>
      </trkpt>
      <trkpt lat="44.88615" lon="5.9268">
        <ele>887.2</ele>
        <time>2024-08-27T09:17:27Z</time>
      </trkpt>
      <trkpt lat="44.88615" lon="5.92681">
        <ele>887.3</ele>
        <time>2024-08-27T09:17:28Z</time>
      </trkpt>
      <trkpt lat="44.88617" lon="5.92683">
        <ele>887.5</ele>
        <time>2024-08-27T09:17:29Z</time>
      </trkpt>
      <trkpt lat="44.88618" lon="5.92684">
        <ele>887.7</ele>
        <time>2024-08-27T09:17:30Z</time>
      </trkpt>
      <trkpt lat="44.88619" lon="5.92685">
        <ele>887.9</ele>
        <time>2024-08-27T09:17:31Z</time>
      </trkpt>
      <trkpt lat="44.8862" lon="5.92686">
        <ele>888.1</ele>
        <time>2024-08-27T09:17:32Z</time>
      </trkpt>
      <trkpt lat="44.88621" lon="5.92688">
        <ele>888.3</ele>
        <time>2024-08-27T09:17:33Z</time>
      </trkpt>
      <trkpt lat="44.88621" lon="5.9269">
        <ele>888.5</ele>
        <time>2024-08-27T09:17:34Z</time>
      </trkpt>
      <trkpt lat="44.88622" lon="5.92692">
        <ele>888.7</ele>
        <time>2024-08-27T09:17:35Z</time>
      </trkpt>
      <trkpt lat="44.88622" lon="5.92694">
        <ele>888.9</ele>
        <time>2024-08-27T09:17:36Z</time>
      </trkpt>
      <trkpt lat="44.88623" lon="5.92697">
        <ele>889.3</ele>
        <time>2024-08-27T09:17:37Z</time>
      </trkpt>
      <trkpt lat="44.88623" lon="5.92699">
        <ele>889.4</ele>
        <time>2024-08-27T09:17:38Z</time>
      </trkpt>
      <trkpt lat="44.88623" lon="5.927">
        <ele>889.5</ele>
        <time>2024-08-27T09:17:39Z</time>
      </trkpt>
      <trkpt lat="44.88624" lon="5.92702">
        <ele>889.7</ele>
        <time>2024-08-27T09:17:40Z</time>
      </trkpt>
      <trkpt lat="44.88624" lon="5.92704">
        <ele>889.9</ele>
        <time>2024-08-27T09:17:41Z</time>
      </trkpt>
      <trkpt lat="44.88625" lon="5.92706">
        <ele>890.1</ele>
        <time>2024-08-27T09:17:42Z</time>
      </trkpt>
      <trkpt lat="44.88626" lon="5.92707">
        <ele>890.3</ele>
        <time>2024-08-27T09:17:43Z</time>
      </trkpt>
      <trkpt lat="44.88626" lon="5.92709">
        <ele>890.5</ele>
        <time>2024-08-27T09:17:44Z</time>
      </trkpt>
      <trkpt lat="44.88627" lon="5.92712">
        <ele>890.8</ele>
        <time>2024-08-27T09:17:45Z</time>
      </trkpt>
      <trkpt lat="44.88628" lon="5.92714">
        <ele>891</ele>
        <time>2024-08-27T09:17:46Z</time>
      </trkpt>
      <trkpt lat="44.88629" lon="5.92715">
        <ele>891.2</ele>
        <time>2024-08-27T09:17:47Z</time>
      </trkpt>
      <trkpt lat="44.8863" lon="5.92717">
        <ele>891.4</ele>
        <time>2024-08-27T09:17:48Z</time>
      </trkpt>
      <trkpt lat="44.88631" lon="5.92719">
        <ele>891.6</ele>
        <time>2024-08-27T09:17:49Z</time>
      </trkpt>
      <trkpt lat="44.88632" lon="5.92721">
        <ele>891.8</ele>
        <time>2024-08-27T09:17:50Z</time>
      </trkpt>
      <trkpt lat="44.88633" lon="5.92723">
        <ele>892.1</ele>
        <time>2024-08-27T09:17:51Z</time>
      </trkpt>
      <trkpt lat="44.88635" lon="5.92727">
        <ele>892.4</ele>
        <time>2024-08-27T09:17:52Z</time>
      </trkpt>
      <trkpt lat="44.88636" lon="5.92728">
        <ele>892.6</ele>
        <time>2024-08-27T09:17:53Z</time>
      </trkpt>
      <trkpt lat="44.88637" lon="5.92731">
        <ele>892.9</ele>
        <time>2024-08-27T09:17:54Z</time>
      </trkpt>
      <trkpt lat="44.88638" lon="5.92732">
        <ele>893</ele>
        <time>2024-08-27T09:17:55Z</time>
      </trkpt>
      <trkpt lat="44.88639" lon="5.92736">
        <ele>893.3</ele>
        <time>2024-08-27T09:17:56Z</time>
      </trkpt>
      <trkpt lat="44.8864" lon="5.92737">
        <ele>893.5</ele>
        <time>2024-08-27T09:17:57Z</time>
      </trkpt>
      <trkpt lat="44.88641" lon="5.92739">
        <ele>893.7</ele>
        <time>2024-08-27T09:17:58Z</time>
      </trkpt>
      <trkpt lat="44.88642" lon="5.92741">
        <ele>893.9</ele>
        <time>2024-08-27T09:17:59Z</time>
      </trkpt>
      <trkpt lat="44.88644" lon="5.92744">
        <ele>894.2</ele>
        <time>2024-08-27T09:18:00Z</time>
      </trkpt>
      <trkpt lat="44.88644" lon="5.92745">
        <ele>894.3</ele>
        <time>2024-08-27T09:18:01Z</time>
      </trkpt>
      <trkpt lat="44.88646" lon="5.92747">
        <ele>894.6</ele>
        <time>2024-08-27T09:18:02Z</time>
      </trkpt>
      <trkpt lat="44.88647" lon="5.92749">
        <ele>894.8</ele>
        <time>2024-08-27T09:18:03Z</time>
      </trkpt>
      <trkpt lat="44.88649" lon="5.92751">
        <ele>895.2</ele>
        <time>2024-08-27T09:18:04Z</time>
      </trkpt>
      <trkpt lat="44.8865" lon="5.92752">
        <ele>895.3</ele>
        <time>2024-08-27T09:18:05Z</time>
      </trkpt>
      <trkpt lat="44.88653" lon="5.92754">
        <ele>895.7</ele>
        <time>2024-08-27T09:18:06Z</time>
      </trkpt>
      <trkpt lat="44.88653" lon="5.92755">
        <ele>895.8</ele>
        <time>2024-08-27T09:18:07Z</time>
      </trkpt>
      <trkpt lat="44.88656" lon="5.92758">
        <ele>896.3</ele>
        <time>2024-08-27T09:18:08Z</time>
      </trkpt>
      <trkpt lat="44.88657" lon="5.92758">
        <ele>896.4</ele>
        <time>2024-08-27T09:18:09Z</time>
      </trkpt>
      <trkpt lat="44.8866" lon="5.92761">
        <ele>896.9</ele>
        <time>2024-08-27T09:18:10Z</time>
      </trkpt>
      <trkpt lat="44.8866" lon="5.92762">
        <ele>897</ele>
        <time>2024-08-27T09:18:11Z</time>
      </trkpt>
      <trkpt lat="44.88662" lon="5.92764">
        <ele>897.2</ele>
        <time>2024-08-27T09:18:12Z</time>
      </trkpt>
      <trkpt lat="44.88663" lon="5.92765">
        <ele>897.5</ele>
        <time>2024-08-27T09:18:13Z</time>
      </trkpt>
      <trkpt lat="44.88664" lon="5.92768">
        <ele>897.8</ele>
        <time>2024-08-27T09:18:14Z</time>
      </trkpt>
      <trkpt lat="44.88665" lon="5.92769">
        <ele>898</ele>
        <time>2024-08-27T09:18:15Z</time>
      </trkpt>
      <trkpt lat="44.88666" lon="5.92773">
        <ele>898.5</ele>
        <time>2024-08-27T09:18:16Z</time>
      </trkpt>
      <trkpt lat="44.88667" lon="5.92774">
        <ele>898.6</ele>
        <time>2024-08-27T09:18:17Z</time>
      </trkpt>
      <trkpt lat="44.88667" lon="5.92776">
        <ele>898.9</ele>
        <time>2024-08-27T09:18:18Z</time>
      </trkpt>
      <trkpt lat="44.88667" lon="5.92779">
        <ele>899.2</ele>
        <time>2024-08-27T09:18:19Z</time>
      </trkpt>
      <trkpt lat="44.88666" lon="5.92781">
        <ele>899.6</ele>
        <time>2024-08-27T09:18:20Z</time>
      </trkpt>
      <trkpt lat="44.88665" lon="5.92783">
        <ele>899.8</ele>
        <time>2024-08-27T09:18:21Z</time>
      </trkpt>
      <trkpt lat="44.88664" lon="5.92785">
        <ele>900</ele>
        <time>2024-08-27T09:18:22Z</time>
      </trkpt>
      <trkpt lat="44.88662" lon="5.92785">
        <ele>900.3</ele>
        <time>2024-08-27T09:18:23Z</time>
      </trkpt>
      <trkpt lat="44.8866" lon="5.92785">
        <ele>900.5</ele>
        <time>2024-08-27T09:18:24Z</time>
      </trkpt>
      <trkpt lat="44.88659" lon="5.92784">
        <ele>900.8</ele>
        <time>2024-08-27T09:18:25Z</time>
      </trkpt>
      <trkpt lat="44.88656" lon="5.92783">
        <ele>901.1</ele>
        <time>2024-08-27T09:18:26Z</time>
      </trkpt>
      <trkpt lat="44.88655" lon="5.92782">
        <ele>901.3</ele>
        <time>2024-08-27T09:18:27Z</time>
      </trkpt>
      <trkpt lat="44.88654" lon="5.92781">
        <ele>901.5</ele>
        <time>2024-08-27T09:18:28Z</time>
      </trkpt>
      <trkpt lat="44.88652" lon="5.92779">
        <ele>901.7</ele>
        <time>2024-08-27T09:18:29Z</time>
      </trkpt>
      <trkpt lat="44.88651" lon="5.92778">
        <ele>901.9</ele>
        <time>2024-08-27T09:18:30Z</time>
      </trkpt>
      <trkpt lat="44.8865" lon="5.92776">
        <ele>902.1</ele>
        <time>2024-08-27T09:18:31Z</time>
      </trkpt>
      <trkpt lat="44.88649" lon="5.92775">
        <ele>902.3</ele>
        <time>2024-08-27T09:18:32Z</time>
      </trkpt>
      <trkpt lat="44.88647" lon="5.92773">
        <ele>902.5</ele>
        <time>2024-08-27T09:18:33Z</time>
      </trkpt>
      <trkpt lat="44.88646" lon="5.92772">
        <ele>902.7</ele>
        <time>2024-08-27T09:18:34Z</time>
      </trkpt>
      <trkpt lat="44.88645" lon="5.92771">
        <ele>902.9</ele>
        <time>2024-08-27T09:18:35Z</time>
      </trkpt>
      <trkpt lat="44.88643" lon="5.92769">
        <ele>903.2</ele>
        <time>2024-08-27T09:18:36Z</time>
      </trkpt>
      <trkpt lat="44.88642" lon="5.92768">
        <ele>903.4</ele>
        <time>2024-08-27T09:18:37Z</time>
      </trkpt>
      <trkpt lat="44.88641" lon="5.92766">
        <ele>903.5</ele>
        <time>2024-08-27T09:18:38Z</time>
      </trkpt>
      <trkpt lat="44.8864" lon="5.92765">
        <ele>903.7</ele>
        <time>2024-08-27T09:18:39Z</time>
      </trkpt>
      <trkpt lat="44.88639" lon="5.92763">
        <ele>903.9</ele>
        <time>2024-08-27T09:18:40Z</time>
      </trkpt>
      <trkpt lat="44.88638" lon="5.92762">
        <ele>904.1</ele>
        <time>2024-08-27T09:18:41Z</time>
      </trkpt>
      <trkpt lat="44.88637" lon="5.9276">
        <ele>904.3</ele>
        <time>2024-08-27T09:18:42Z</time>
      </trkpt>
      <trkpt lat="44.88635" lon="5.92759">
        <ele>904.6</ele>
        <time>2024-08-27T09:18:43Z</time>
      </trkpt>
      <trkpt lat="44.88634" lon="5.92757">
        <ele>904.8</ele>
        <time>2024-08-27T09:18:44Z</time>
      </trkpt>
      <trkpt lat="44.88633" lon="5.92755">
        <ele>905</ele>
        <time>2024-08-27T09:18:45Z</time>
      </trkpt>
      <trkpt lat="44.88632" lon="5.92754">
        <ele>905.2</ele>
        <time>2024-08-27T09:18:46Z</time>
      </trkpt>
      <trkpt lat="44.88631" lon="5.92753">
        <ele>905.4</ele>
        <time>2024-08-27T09:18:47Z</time>
      </trkpt>
      <trkpt lat="44.88629" lon="5.92751">
        <ele>905.7</ele>
        <time>2024-08-27T09:18:48Z</time>
      </trkpt>
      <trkpt lat="44.88629" lon="5.9275">
        <ele>905.8</ele>
        <time>2024-08-27T09:18:49Z</time>
      </trkpt>
      <trkpt lat="44.88628" lon="5.92749">
        <ele>905.9</ele>
        <time>2024-08-27T09:18:50Z</time>
      </trkpt>
      <trkpt lat="44.88627" lon="5.92748">
        <ele>906.1</ele>
        <time>2024-08-27T09:18:51Z</time>
      </trkpt>
      <trkpt lat="44.88626" lon="5.92747">
        <ele>906.3</ele>
        <time>2024-08-27T09:18:52Z</time>
      </trkpt>
      <trkpt lat="44.88624" lon="5.92745">
        <ele>906.6</ele>
        <time>2024-08-27T09:18:53Z</time>
      </trkpt>
      <trkpt lat="44.88624" lon="5.92744">
        <ele>906.7</ele>
        <time>2024-08-27T09:18:54Z</time>
      </trkpt>
      <trkpt lat="44.88623" lon="5.92743">
        <ele>906.9</ele>
        <time>2024-08-27T09:18:55Z</time>
      </trkpt>
      <trkpt lat="44.88622" lon="5.92741">
        <ele>907.1</ele>
        <time>2024-08-27T09:18:56Z</time>
      </trkpt>
      <trkpt lat="44.88621" lon="5.92739">
        <ele>907.4</ele>
        <time>2024-08-27T09:18:57Z</time>
      </trkpt>
      <trkpt lat="44.88619" lon="5.92738">
        <ele>907.6</ele>
        <time>2024-08-27T09:18:58Z</time>
      </trkpt>
      <trkpt lat="44.88618" lon="5.92737">
        <ele>907.8</ele>
        <time>2024-08-27T09:18:59Z</time>
      </trkpt>
      <trkpt lat="44.88616" lon="5.92736">
        <ele>908</ele>
        <time>2024-08-27T09:19:00Z</time>
      </trkpt>
      <trkpt lat="44.88615" lon="5.92735">
        <ele>908.2</ele>
        <time>2024-08-27T09:19:01Z</time>
      </trkpt>
      <trkpt lat="44.88614" lon="5.92733">
        <ele>908.5</ele>
        <time>2024-08-27T09:19:02Z</time>
      </trkpt>
      <trkpt lat="44.88612" lon="5.92732">
        <ele>908.7</ele>
        <time>2024-08-27T09:19:03Z</time>
      </trkpt>
      <trkpt lat="44.88611" lon="5.92731">
        <ele>908.9</ele>
        <time>2024-08-27T09:19:04Z</time>
      </trkpt>
      <trkpt lat="44.8861" lon="5.92729">
        <ele>909.1</ele>
        <time>2024-08-27T09:19:05Z</time>
      </trkpt>
      <trkpt lat="44.88608" lon="5.92728">
        <ele>909.4</ele>
        <time>2024-08-27T09:19:06Z</time>
      </trkpt>
      <trkpt lat="44.88607" lon="5.92727">
        <ele>909.6</ele>
        <time>2024-08-27T09:19:07Z</time>
      </trkpt>
      <trkpt lat="44.88605" lon="5.92726">
        <ele>909.8</ele>
        <time>2024-08-27T09:19:08Z</time>
      </trkpt>
      <trkpt lat="44.88604" lon="5.92724">
        <ele>910</ele>
        <time>2024-08-27T09:19:09Z</time>
      </trkpt>
      <trkpt lat="44.88603" lon="5.92723">
        <ele>910.2</ele>
        <time>2024-08-27T09:19:10Z</time>
      </trkpt>
      <trkpt lat="44.88601" lon="5.92721">
        <ele>910.4</ele>
        <time>2024-08-27T09:19:11Z</time>
      </trkpt>
      <trkpt lat="44.886" lon="5.9272">
        <ele>910.7</ele>
        <time>2024-08-27T09:19:12Z</time>
      </trkpt>
      <trkpt lat="44.88599" lon="5.92718">
        <ele>910.9</ele>
        <time>2024-08-27T09:19:13Z</time>
      </trkpt>
      <trkpt lat="44.88598" lon="5.92717">
        <ele>911</ele>
        <time>2024-08-27T09:19:14Z</time>
      </trkpt>
      <trkpt lat="44.88597" lon="5.92715">
        <ele>911.2</ele>
        <time>2024-08-27T09:19:15Z</time>
      </trkpt>
      <trkpt lat="44.88595" lon="5.92712">
        <ele>911.6</ele>
        <time>2024-08-27T09:19:16Z</time>
      </trkpt>
      <trkpt lat="44.88595" lon="5.92711">
        <ele>911.7</ele>
        <time>2024-08-27T09:19:17Z</time>
      </trkpt>
      <trkpt lat="44.88594" lon="5.92709">
        <ele>911.9</ele>
        <time>2024-08-27T09:19:18Z</time>
      </trkpt>
      <trkpt lat="44.88592" lon="5.92707">
        <ele>912.2</ele>
        <time>2024-08-27T09:19:19Z</time>
      </trkpt>
      <trkpt lat="44.88591" lon="5.92706">
        <ele>912.3</ele>
        <time>2024-08-27T09:19:20Z</time>
      </trkpt>
      <trkpt lat="44.8859" lon="5.92705">
        <ele>912.5</ele>
        <time>2024-08-27T09:19:21Z</time>
      </trkpt>
      <trkpt lat="44.88589" lon="5.92703">
        <ele>912.8</ele>
        <time>2024-08-27T09:19:22Z</time>
      </trkpt>
      <trkpt lat="44.88588" lon="5.92701">
        <ele>913</ele>
        <time>2024-08-27T09:19:23Z</time>
      </trkpt>
      <trkpt lat="44.88587" lon="5.92699">
        <ele>913.2</ele>
        <time>2024-08-27T09:19:24Z</time>
      </trkpt>
      <trkpt lat="44.88585" lon="5.92698">
        <ele>913.4</ele>
        <time>2024-08-27T09:19:25Z</time>
      </trkpt>
      <trkpt lat="44.88584" lon="5.92696">
        <ele>913.6</ele>
        <time>2024-08-27T09:19:26Z</time>
      </trkpt>
      <trkpt lat="44.88584" lon="5.92695">
        <ele>913.8</ele>
        <time>2024-08-27T09:19:27Z</time>
      </trkpt>
      <trkpt lat="44.88583" lon="5.92694">
        <ele>913.9</ele>
        <time>2024-08-27T09:19:28Z</time>
      </trkpt>
      <trkpt lat="44.88582" lon="5.9269">
        <ele>914.2</ele>
        <time>2024-08-27T09:19:29Z</time>
      </trkpt>
      <trkpt lat="44.88582" lon="5.92689">
        <ele>914.3</ele>
        <time>2024-08-27T09:19:30Z</time>
      </trkpt>
      <trkpt lat="44.8858" lon="5.92686">
        <ele>914.7</ele>
        <time>2024-08-27T09:19:31Z</time>
      </trkpt>
      <trkpt lat="44.88579" lon="5.92685">
        <ele>914.8</ele>
        <time>2024-08-27T09:19:32Z</time>
      </trkpt>
      <trkpt lat="44.88577" lon="5.92682">
        <ele>915.2</ele>
        <time>2024-08-27T09:19:33Z</time>
      </trkpt>
      <trkpt lat="44.88577" lon="5.92681">
        <ele>915.3</ele>
        <time>2024-08-27T09:19:34Z</time>
      </trkpt>
      <trkpt lat="44.88576" lon="5.92679">
        <ele>915.6</ele>
        <time>2024-08-27T09:19:35Z</time>
      </trkpt>
      <trkpt lat="44.88575" lon="5.92677">
        <ele>915.8</ele>
        <time>2024-08-27T09:19:36Z</time>
      </trkpt>
      <trkpt lat="44.88573" lon="5.92674">
        <ele>916.1</ele>
        <time>2024-08-27T09:19:37Z</time>
      </trkpt>
      <trkpt lat="44.88572" lon="5.92673">
        <ele>916.2</ele>
        <time>2024-08-27T09:19:38Z</time>
      </trkpt>
      <trkpt lat="44.88571" lon="5.92672">
        <ele>916.5</ele>
        <time>2024-08-27T09:19:39Z</time>
      </trkpt>
      <trkpt lat="44.8857" lon="5.9267">
        <ele>916.6</ele>
        <time>2024-08-27T09:19:40Z</time>
      </trkpt>
      <trkpt lat="44.88569" lon="5.92669">
        <ele>916.8</ele>
        <time>2024-08-27T09:19:41Z</time>
      </trkpt>
      <trkpt lat="44.88567" lon="5.92668">
        <ele>917</ele>
        <time>2024-08-27T09:19:42Z</time>
      </trkpt>
      <trkpt lat="44.88566" lon="5.92666">
        <ele>917.2</ele>
        <time>2024-08-27T09:19:43Z</time>
      </trkpt>
      <trkpt lat="44.88565" lon="5.92664">
        <ele>917.5</ele>
        <time>2024-08-27T09:19:44Z</time>
      </trkpt>
      <trkpt lat="44.88564" lon="5.92663">
        <ele>917.6</ele>
        <time>2024-08-27T09:19:45Z</time>
      </trkpt>
      <trkpt lat="44.88562" lon="5.92661">
        <ele>917.9</ele>
        <time>2024-08-27T09:19:46Z</time>
      </trkpt>
      <trkpt lat="44.88561" lon="5.9266">
        <ele>918.1</ele>
        <time>2024-08-27T09:19:47Z</time>
      </trkpt>
      <trkpt lat="44.8856" lon="5.92658">
        <ele>918.3</ele>
        <time>2024-08-27T09:19:48Z</time>
      </trkpt>
      <trkpt lat="44.88559" lon="5.92657">
        <ele>918.5</ele>
        <time>2024-08-27T09:19:49Z</time>
      </trkpt>
      <trkpt lat="44.88557" lon="5.92655">
        <ele>918.7</ele>
        <time>2024-08-27T09:19:50Z</time>
      </trkpt>
      <trkpt lat="44.88555" lon="5.92653">
        <ele>919.1</ele>
        <time>2024-08-27T09:19:51Z</time>
      </trkpt>
      <trkpt lat="44.88555" lon="5.92652">
        <ele>919.2</ele>
        <time>2024-08-27T09:19:52Z</time>
      </trkpt>
      <trkpt lat="44.88552" lon="5.92649">
        <ele>919.6</ele>
        <time>2024-08-27T09:19:53Z</time>
      </trkpt>
      <trkpt lat="44.88552" lon="5.92648">
        <ele>919.7</ele>
        <time>2024-08-27T09:19:54Z</time>
      </trkpt>
      <trkpt lat="44.88549" lon="5.92646">
        <ele>920.1</ele>
        <time>2024-08-27T09:19:55Z</time>
      </trkpt>
      <trkpt lat="44.88549" lon="5.92645">
        <ele>920.2</ele>
        <time>2024-08-27T09:19:56Z</time>
      </trkpt>
      <trkpt lat="44.88547" lon="5.92642">
        <ele>920.6</ele>
        <time>2024-08-27T09:19:57Z</time>
      </trkpt>
      <trkpt lat="44.88546" lon="5.92641">
        <ele>920.7</ele>
        <time>2024-08-27T09:19:58Z</time>
      </trkpt>
      <trkpt lat="44.88544" lon="5.92639">
        <ele>921</ele>
        <time>2024-08-27T09:19:59Z</time>
      </trkpt>
      <trkpt lat="44.88543" lon="5.92638">
        <ele>921.2</ele>
        <time>2024-08-27T09:20:00Z</time>
      </trkpt>
      <trkpt lat="44.88542" lon="5.92636">
        <ele>921.4</ele>
        <time>2024-08-27T09:20:01Z</time>
      </trkpt>
      <trkpt lat="44.88541" lon="5.92634">
        <ele>921.6</ele>
        <time>2024-08-27T09:20:02Z</time>
      </trkpt>
      <trkpt lat="44.88538" lon="5.92631">
        <ele>921.9</ele>
        <time>2024-08-27T09:20:03Z</time>
      </trkpt>
      <trkpt lat="44.88538" lon="5.9263">
        <ele>922</ele>
        <time>2024-08-27T09:20:04Z</time>
      </trkpt>
      <trkpt lat="44.88535" lon="5.92628">
        <ele>922.4</ele>
        <time>2024-08-27T09:20:05Z</time>
      </trkpt>
      <trkpt lat="44.88535" lon="5.92627">
        <ele>922.5</ele>
        <time>2024-08-27T09:20:06Z</time>
      </trkpt>
      <trkpt lat="44.88533" lon="5.92624">
        <ele>922.8</ele>
        <time>2024-08-27T09:20:07Z</time>
      </trkpt>
      <trkpt lat="44.88532" lon="5.92622">
        <ele>923</ele>
        <time>2024-08-27T09:20:08Z</time>
      </trkpt>
      <trkpt lat="44.8853" lon="5.92619">
        <ele>923.3</ele>
        <time>2024-08-27T09:20:09Z</time>
      </trkpt>
      <trkpt lat="44.88529" lon="5.92618">
        <ele>923.4</ele>
        <time>2024-08-27T09:20:10Z</time>
      </trkpt>
      <trkpt lat="44.88528" lon="5.92616">
        <ele>923.6</ele>
        <time>2024-08-27T09:20:11Z</time>
      </trkpt>
      <trkpt lat="44.88527" lon="5.92614">
        <ele>923.9</ele>
        <time>2024-08-27T09:20:12Z</time>
      </trkpt>
      <trkpt lat="44.88526" lon="5.92612">
        <ele>924.1</ele>
        <time>2024-08-27T09:20:13Z</time>
      </trkpt>
      <trkpt lat="44.88525" lon="5.9261">
        <ele>924.3</ele>
        <time>2024-08-27T09:20:14Z</time>
      </trkpt>
      <trkpt lat="44.88524" lon="5.92609">
        <ele>924.5</ele>
        <time>2024-08-27T09:20:15Z</time>
      </trkpt>
      <trkpt lat="44.88522" lon="5.92608">
        <ele>924.7</ele>
        <time>2024-08-27T09:20:16Z</time>
      </trkpt>
      <trkpt lat="44.88521" lon="5.92607">
        <ele>925</ele>
        <time>2024-08-27T09:20:17Z</time>
      </trkpt>
      <trkpt lat="44.8852" lon="5.92606">
        <ele>925.1</ele>
        <time>2024-08-27T09:20:18Z</time>
      </trkpt>
      <trkpt lat="44.88519" lon="5.92605">
        <ele>925.2</ele>
        <time>2024-08-27T09:20:19Z</time>
      </trkpt>
      <trkpt lat="44.88518" lon="5.92604">
        <ele>925.4</ele>
        <time>2024-08-27T09:20:20Z</time>
      </trkpt>
      <trkpt lat="44.88517" lon="5.92603">
        <ele>925.6</ele>
        <time>2024-08-27T09:20:21Z</time>
      </trkpt>
      <trkpt lat="44.88514" lon="5.92602">
        <ele>926</ele>
        <time>2024-08-27T09:20:22Z</time>
      </trkpt>
      <trkpt lat="44.88513" lon="5.92602">
        <ele>926.1</ele>
        <time>2024-08-27T09:20:23Z</time>
      </trkpt>
      <trkpt lat="44.88511" lon="5.92601">
        <ele>926.3</ele>
        <time>2024-08-27T09:20:24Z</time>
      </trkpt>
      <trkpt lat="44.8851" lon="5.92601">
        <ele>926.5</ele>
        <time>2024-08-27T09:20:25Z</time>
      </trkpt>
      <trkpt lat="44.88508" lon="5.926">
        <ele>926.8</ele>
        <time>2024-08-27T09:20:26Z</time>
      </trkpt>
      <trkpt lat="44.88507" lon="5.926">
        <ele>927</ele>
        <time>2024-08-27T09:20:27Z</time>
      </trkpt>
      <trkpt lat="44.88505" lon="5.92599">
        <ele>927.2</ele>
        <time>2024-08-27T09:20:28Z</time>
      </trkpt>
      <trkpt lat="44.88503" lon="5.92599">
        <ele>927.5</ele>
        <time>2024-08-27T09:20:29Z</time>
      </trkpt>
      <trkpt lat="44.88502" lon="5.92599">
        <ele>927.7</ele>
        <time>2024-08-27T09:20:30Z</time>
      </trkpt>
      <trkpt lat="44.885" lon="5.92598">
        <ele>928</ele>
        <time>2024-08-27T09:20:31Z</time>
      </trkpt>
      <trkpt lat="44.88498" lon="5.92598">
        <ele>928.2</ele>
        <time>2024-08-27T09:20:32Z</time>
      </trkpt>
      <trkpt lat="44.88497" lon="5.92598">
        <ele>928.4</ele>
        <time>2024-08-27T09:20:33Z</time>
      </trkpt>
      <trkpt lat="44.88495" lon="5.92597">
        <ele>928.6</ele>
        <time>2024-08-27T09:20:34Z</time>
      </trkpt>
      <trkpt lat="44.88494" lon="5.92597">
        <ele>928.8</ele>
        <time>2024-08-27T09:20:35Z</time>
      </trkpt>
      <trkpt lat="44.88492" lon="5.92596">
        <ele>929.1</ele>
        <time>2024-08-27T09:20:36Z</time>
      </trkpt>
      <trkpt lat="44.8849" lon="5.92595">
        <ele>929.3</ele>
        <time>2024-08-27T09:20:37Z</time>
      </trkpt>
      <trkpt lat="44.88489" lon="5.92594">
        <ele>929.5</ele>
        <time>2024-08-27T09:20:38Z</time>
      </trkpt>
      <trkpt lat="44.88487" lon="5.92593">
        <ele>929.7</ele>
        <time>2024-08-27T09:20:39Z</time>
      </trkpt>
      <trkpt lat="44.88486" lon="5.92592">
        <ele>929.9</ele>
        <time>2024-08-27T09:20:40Z</time>
      </trkpt>
      <trkpt lat="44.88484" lon="5.9259">
        <ele>930.1</ele>
        <time>2024-08-27T09:20:41Z</time>
      </trkpt>
      <trkpt lat="44.88483" lon="5.92589">
        <ele>930.4</ele>
        <time>2024-08-27T09:20:42Z</time>
      </trkpt>
      <trkpt lat="44.88481" lon="5.92588">
        <ele>930.6</ele>
        <time>2024-08-27T09:20:43Z</time>
      </trkpt>
      <trkpt lat="44.8848" lon="5.92587">
        <ele>930.8</ele>
        <time>2024-08-27T09:20:44Z</time>
      </trkpt>
      <trkpt lat="44.88478" lon="5.92586">
        <ele>931</ele>
        <time>2024-08-27T09:20:45Z</time>
      </trkpt>
      <trkpt lat="44.88476" lon="5.92584">
        <ele>931.3</ele>
        <time>2024-08-27T09:20:46Z</time>
      </trkpt>
      <trkpt lat="44.88475" lon="5.92584">
        <ele>931.4</ele>
        <time>2024-08-27T09:20:47Z</time>
      </trkpt>
      <trkpt lat="44.88472" lon="5.92582">
        <ele>931.8</ele>
        <time>2024-08-27T09:20:48Z</time>
      </trkpt>
      <trkpt lat="44.88471" lon="5.92581">
        <ele>931.9</ele>
        <time>2024-08-27T09:20:49Z</time>
      </trkpt>
      <trkpt lat="44.8847" lon="5.9258">
        <ele>932.1</ele>
        <time>2024-08-27T09:20:50Z</time>
      </trkpt>
      <trkpt lat="44.88468" lon="5.92579">
        <ele>932.3</ele>
        <time>2024-08-27T09:20:51Z</time>
      </trkpt>
      <trkpt lat="44.88466" lon="5.92577">
        <ele>932.6</ele>
        <time>2024-08-27T09:20:52Z</time>
      </trkpt>
      <trkpt lat="44.88465" lon="5.92576">
        <ele>932.8</ele>
        <time>2024-08-27T09:20:53Z</time>
      </trkpt>
      <trkpt lat="44.88463" lon="5.92574">
        <ele>933.1</ele>
        <time>2024-08-27T09:20:54Z</time>
      </trkpt>
      <trkpt lat="44.88462" lon="5.92573">
        <ele>933.2</ele>
        <time>2024-08-27T09:20:55Z</time>
      </trkpt>
      <trkpt lat="44.8846" lon="5.9257">
        <ele>933.5</ele>
        <time>2024-08-27T09:20:56Z</time>
      </trkpt>
      <trkpt lat="44.8846" lon="5.92569">
        <ele>933.7</ele>
        <time>2024-08-27T09:20:57Z</time>
      </trkpt>
      <trkpt lat="44.88458" lon="5.92566">
        <ele>934</ele>
        <time>2024-08-27T09:20:58Z</time>
      </trkpt>
      <trkpt lat="44.88457" lon="5.92565">
        <ele>934.1</ele>
        <time>2024-08-27T09:20:59Z</time>
      </trkpt>
      <trkpt lat="44.88456" lon="5.92562">
        <ele>934.5</ele>
        <time>2024-08-27T09:21:00Z</time>
      </trkpt>
      <trkpt lat="44.88455" lon="5.9256">
        <ele>934.6</ele>
        <time>2024-08-27T09:21:01Z</time>
      </trkpt>
      <trkpt lat="44.88453" lon="5.92558">
        <ele>935</ele>
        <time>2024-08-27T09:21:02Z</time>
      </trkpt>
      <trkpt lat="44.88452" lon="5.92557">
        <ele>935.1</ele>
        <time>2024-08-27T09:21:03Z</time>
      </trkpt>
      <trkpt lat="44.88451" lon="5.92555">
        <ele>935.4</ele>
        <time>2024-08-27T09:21:04Z</time>
      </trkpt>
      <trkpt lat="44.8845" lon="5.92554">
        <ele>935.6</ele>
        <time>2024-08-27T09:21:05Z</time>
      </trkpt>
      <trkpt lat="44.88448" lon="5.92553">
        <ele>935.9</ele>
        <time>2024-08-27T09:21:06Z</time>
      </trkpt>
      <trkpt lat="44.88447" lon="5.92551">
        <ele>936.1</ele>
        <time>2024-08-27T09:21:07Z</time>
      </trkpt>
      <trkpt lat="44.88445" lon="5.92551">
        <ele>936.4</ele>
        <time>2024-08-27T09:21:08Z</time>
      </trkpt>
      <trkpt lat="44.88443" lon="5.9255">
        <ele>936.7</ele>
        <time>2024-08-27T09:21:09Z</time>
      </trkpt>
      <trkpt lat="44.88442" lon="5.9255">
        <ele>936.9</ele>
        <time>2024-08-27T09:21:10Z</time>
      </trkpt>
      <trkpt lat="44.8844" lon="5.9255">
        <ele>937.2</ele>
        <time>2024-08-27T09:21:11Z</time>
      </trkpt>
      <trkpt lat="44.88439" lon="5.92551">
        <ele>937.4</ele>
        <time>2024-08-27T09:21:12Z</time>
      </trkpt>
      <trkpt lat="44.88437" lon="5.92552">
        <ele>937.7</ele>
        <time>2024-08-27T09:21:13Z</time>
      </trkpt>
      <trkpt lat="44.88437" lon="5.92552">
        <ele>937.7</ele>
        <time>2024-08-27T09:21:14Z</time>
      </trkpt>
      <trkpt lat="44.88436" lon="5.92553">
        <ele>937.9</ele>
        <time>2024-08-27T09:21:15Z</time>
      </trkpt>
      <trkpt lat="44.88434" lon="5.92552">
        <ele>938.2</ele>
        <time>2024-08-27T09:21:16Z</time>
      </trkpt>
      <trkpt lat="44.88432" lon="5.92554">
        <ele>938.3</ele>
        <time>2024-08-27T09:21:17Z</time>
      </trkpt>
      <trkpt lat="44.88431" lon="5.92554">
        <ele>938.3</ele>
        <time>2024-08-27T09:21:18Z</time>
      </trkpt>
      <trkpt lat="44.88428" lon="5.92554">
        <ele>938.3</ele>
        <time>2024-08-27T09:21:19Z</time>
      </trkpt>
      <trkpt lat="44.88427" lon="5.92554">
        <ele>938.3</ele>
        <time>2024-08-27T09:21:20Z</time>
      </trkpt>
      <trkpt lat="44.88427" lon="5.92557">
        <ele>938.5</ele>
        <time>2024-08-27T09:21:21Z</time>
      </trkpt>
      <trkpt lat="44.88428" lon="5.92559">
        <ele>938.6</ele>
        <time>2024-08-27T09:21:22Z</time>
      </trkpt>
      <trkpt lat="44.88429" lon="5.92561">
        <ele>938.9</ele>
        <time>2024-08-27T09:21:23Z</time>
      </trkpt>
      <trkpt lat="44.88429" lon="5.92563">
        <ele>939.1</ele>
        <time>2024-08-27T09:21:24Z</time>
      </trkpt>
      <trkpt lat="44.8843" lon="5.92565">
        <ele>939.3</ele>
        <time>2024-08-27T09:21:25Z</time>
      </trkpt>
      <trkpt lat="44.8843" lon="5.92568">
        <ele>939.5</ele>
        <time>2024-08-27T09:21:26Z</time>
      </trkpt>
      <trkpt lat="44.8843" lon="5.92572">
        <ele>939.8</ele>
        <time>2024-08-27T09:21:27Z</time>
      </trkpt>
      <trkpt lat="44.88431" lon="5.92573">
        <ele>939.9</ele>
        <time>2024-08-27T09:21:28Z</time>
      </trkpt>
      <trkpt lat="44.88431" lon="5.92578">
        <ele>940.3</ele>
        <time>2024-08-27T09:21:29Z</time>
      </trkpt>
      <trkpt lat="44.88431" lon="5.92579">
        <ele>940.4</ele>
        <time>2024-08-27T09:21:30Z</time>
      </trkpt>
      <trkpt lat="44.88432" lon="5.92583">
        <ele>940.8</ele>
        <time>2024-08-27T09:21:31Z</time>
      </trkpt>
      <trkpt lat="44.88432" lon="5.92585">
        <ele>940.9</ele>
        <time>2024-08-27T09:21:32Z</time>
      </trkpt>
      <trkpt lat="44.88433" lon="5.92589">
        <ele>941.3</ele>
        <time>2024-08-27T09:21:33Z</time>
      </trkpt>
      <trkpt lat="44.88434" lon="5.9259">
        <ele>941.4</ele>
        <time>2024-08-27T09:21:34Z</time>
      </trkpt>
      <trkpt lat="44.88435" lon="5.92594">
        <ele>941.8</ele>
        <time>2024-08-27T09:21:35Z</time>
      </trkpt>
      <trkpt lat="44.88435" lon="5.92595">
        <ele>941.9</ele>
        <time>2024-08-27T09:21:36Z</time>
      </trkpt>
      <trkpt lat="44.88433" lon="5.92599">
        <ele>942.3</ele>
        <time>2024-08-27T09:21:37Z</time>
      </trkpt>
      <trkpt lat="44.88432" lon="5.92601">
        <ele>942.6</ele>
        <time>2024-08-27T09:21:38Z</time>
      </trkpt>
      <trkpt lat="44.88432" lon="5.92603">
        <ele>942.8</ele>
        <time>2024-08-27T09:21:39Z</time>
      </trkpt>
      <trkpt lat="44.88434" lon="5.92606">
        <ele>943.1</ele>
        <time>2024-08-27T09:21:40Z</time>
      </trkpt>
      <trkpt lat="44.88435" lon="5.92607">
        <ele>943.3</ele>
        <time>2024-08-27T09:21:41Z</time>
      </trkpt>
      <trkpt lat="44.88437" lon="5.9261">
        <ele>943.7</ele>
        <time>2024-08-27T09:21:42Z</time>
      </trkpt>
      <trkpt lat="44.88438" lon="5.92611">
        <ele>943.8</ele>
        <time>2024-08-27T09:21:43Z</time>
      </trkpt>
      <trkpt lat="44.88439" lon="5.92613">
        <ele>944</ele>
        <time>2024-08-27T09:21:44Z</time>
      </trkpt>
      <trkpt lat="44.8844" lon="5.92615">
        <ele>944.3</ele>
        <time>2024-08-27T09:21:45Z</time>
      </trkpt>
      <trkpt lat="44.88441" lon="5.92616">
        <ele>944.5</ele>
        <time>2024-08-27T09:21:46Z</time>
      </trkpt>
      <trkpt lat="44.88442" lon="5.92618">
        <ele>944.7</ele>
        <time>2024-08-27T09:21:47Z</time>
      </trkpt>
      <trkpt lat="44.88444" lon="5.92619">
        <ele>944.9</ele>
        <time>2024-08-27T09:21:48Z</time>
      </trkpt>
      <trkpt lat="44.88445" lon="5.9262">
        <ele>945.2</ele>
        <time>2024-08-27T09:21:49Z</time>
      </trkpt>
      <trkpt lat="44.88451" lon="5.92624">
        <ele>946.1</ele>
        <time>2024-08-27T09:21:50Z</time>
      </trkpt>
      <trkpt lat="44.88455" lon="5.92626">
        <ele>946.7</ele>
        <time>2024-08-27T09:21:51Z</time>
      </trkpt>
      <trkpt lat="44.88458" lon="5.92628">
        <ele>947.2</ele>
        <time>2024-08-27T09:21:52Z</time>
      </trkpt>
      <trkpt lat="44.88459" lon="5.92628">
        <ele>947.3</ele>
        <time>2024-08-27T09:21:53Z</time>
      </trkpt>
      <trkpt lat="44.8846" lon="5.92629">
        <ele>947.5</ele>
        <time>2024-08-27T09:21:54Z</time>
      </trkpt>
      <trkpt lat="44.88462" lon="5.92629">
        <ele>947.7</ele>
        <time>2024-08-27T09:21:55Z</time>
      </trkpt>
      <trkpt lat="44.88463" lon="5.9263">
        <ele>947.9</ele>
        <time>2024-08-27T09:21:56Z</time>
      </trkpt>
      <trkpt lat="44.88465" lon="5.92631">
        <ele>948.1</ele>
        <time>2024-08-27T09:21:57Z</time>
      </trkpt>
      <trkpt lat="44.88466" lon="5.92631">
        <ele>948.3</ele>
        <time>2024-08-27T09:21:58Z</time>
      </trkpt>
      <trkpt lat="44.88468" lon="5.92631">
        <ele>948.5</ele>
        <time>2024-08-27T09:21:59Z</time>
      </trkpt>
      <trkpt lat="44.88469" lon="5.92631">
        <ele>948.7</ele>
        <time>2024-08-27T09:22:00Z</time>
      </trkpt>
      <trkpt lat="44.88471" lon="5.92631">
        <ele>948.9</ele>
        <time>2024-08-27T09:22:01Z</time>
      </trkpt>
      <trkpt lat="44.88473" lon="5.92632">
        <ele>949.1</ele>
        <time>2024-08-27T09:22:02Z</time>
      </trkpt>
      <trkpt lat="44.88474" lon="5.92632">
        <ele>949.2</ele>
        <time>2024-08-27T09:22:03Z</time>
      </trkpt>
      <trkpt lat="44.88475" lon="5.92632">
        <ele>949.4</ele>
        <time>2024-08-27T09:22:04Z</time>
      </trkpt>
      <trkpt lat="44.88477" lon="5.92633">
        <ele>949.6</ele>
        <time>2024-08-27T09:22:05Z</time>
      </trkpt>
      <trkpt lat="44.88478" lon="5.92633">
        <ele>949.8</ele>
        <time>2024-08-27T09:22:06Z</time>
      </trkpt>
      <trkpt lat="44.8848" lon="5.92633">
        <ele>950</ele>
        <time>2024-08-27T09:22:07Z</time>
      </trkpt>
      <trkpt lat="44.88483" lon="5.92634">
        <ele>950.3</ele>
        <time>2024-08-27T09:22:08Z</time>
      </trkpt>
      <trkpt lat="44.88484" lon="5.92634">
        <ele>950.4</ele>
        <time>2024-08-27T09:22:09Z</time>
      </trkpt>
      <trkpt lat="44.88486" lon="5.92636">
        <ele>950.8</ele>
        <time>2024-08-27T09:22:10Z</time>
      </trkpt>
      <trkpt lat="44.88487" lon="5.92637">
        <ele>950.9</ele>
        <time>2024-08-27T09:22:11Z</time>
      </trkpt>
      <trkpt lat="44.88489" lon="5.9264">
        <ele>951.2</ele>
        <time>2024-08-27T09:22:12Z</time>
      </trkpt>
      <trkpt lat="44.8849" lon="5.92641">
        <ele>951.3</ele>
        <time>2024-08-27T09:22:13Z</time>
      </trkpt>
      <trkpt lat="44.88492" lon="5.92643">
        <ele>951.6</ele>
        <time>2024-08-27T09:22:14Z</time>
      </trkpt>
      <trkpt lat="44.88493" lon="5.92644">
        <ele>951.7</ele>
        <time>2024-08-27T09:22:15Z</time>
      </trkpt>
      <trkpt lat="44.88494" lon="5.92646">
        <ele>951.9</ele>
        <time>2024-08-27T09:22:16Z</time>
      </trkpt>
      <trkpt lat="44.88495" lon="5.92647">
        <ele>952.1</ele>
        <time>2024-08-27T09:22:17Z</time>
      </trkpt>
      <trkpt lat="44.88496" lon="5.92649">
        <ele>952.3</ele>
        <time>2024-08-27T09:22:18Z</time>
      </trkpt>
      <trkpt lat="44.88497" lon="5.92651">
        <ele>952.5</ele>
        <time>2024-08-27T09:22:19Z</time>
      </trkpt>
      <trkpt lat="44.88498" lon="5.92652">
        <ele>952.6</ele>
        <time>2024-08-27T09:22:20Z</time>
      </trkpt>
      <trkpt lat="44.88499" lon="5.92654">
        <ele>952.8</ele>
        <time>2024-08-27T09:22:21Z</time>
      </trkpt>
      <trkpt lat="44.885" lon="5.92655">
        <ele>953</ele>
        <time>2024-08-27T09:22:22Z</time>
      </trkpt>
      <trkpt lat="44.88501" lon="5.92657">
        <ele>953.2</ele>
        <time>2024-08-27T09:22:23Z</time>
      </trkpt>
      <trkpt lat="44.88502" lon="5.92659">
        <ele>953.4</ele>
        <time>2024-08-27T09:22:24Z</time>
      </trkpt>
      <trkpt lat="44.88503" lon="5.92661">
        <ele>953.6</ele>
        <time>2024-08-27T09:22:25Z</time>
      </trkpt>
      <trkpt lat="44.88504" lon="5.92663">
        <ele>953.8</ele>
        <time>2024-08-27T09:22:26Z</time>
      </trkpt>
      <trkpt lat="44.88505" lon="5.92665">
        <ele>953.9</ele>
        <time>2024-08-27T09:22:27Z</time>
      </trkpt>
      <trkpt lat="44.88505" lon="5.92667">
        <ele>954.1</ele>
        <time>2024-08-27T09:22:28Z</time>
      </trkpt>
      <trkpt lat="44.88506" lon="5.92669">
        <ele>954.3</ele>
        <time>2024-08-27T09:22:29Z</time>
      </trkpt>
      <trkpt lat="44.88507" lon="5.92671">
        <ele>954.5</ele>
        <time>2024-08-27T09:22:30Z</time>
      </trkpt>
      <trkpt lat="44.88508" lon="5.92673">
        <ele>954.7</ele>
        <time>2024-08-27T09:22:31Z</time>
      </trkpt>
      <trkpt lat="44.88509" lon="5.92677">
        <ele>955.1</ele>
        <time>2024-08-27T09:22:32Z</time>
      </trkpt>
      <trkpt lat="44.88509" lon="5.92678">
        <ele>955.2</ele>
        <time>2024-08-27T09:22:33Z</time>
      </trkpt>
      <trkpt lat="44.8851" lon="5.9268">
        <ele>955.4</ele>
        <time>2024-08-27T09:22:34Z</time>
      </trkpt>
      <trkpt lat="44.8851" lon="5.92683">
        <ele>955.6</ele>
        <time>2024-08-27T09:22:35Z</time>
      </trkpt>
      <trkpt lat="44.88511" lon="5.92685">
        <ele>955.8</ele>
        <time>2024-08-27T09:22:36Z</time>
      </trkpt>
      <trkpt lat="44.88512" lon="5.92687">
        <ele>956.1</ele>
        <time>2024-08-27T09:22:37Z</time>
      </trkpt>
      <trkpt lat="44.88512" lon="5.92689">
        <ele>956.3</ele>
        <time>2024-08-27T09:22:38Z</time>
      </trkpt>
      <trkpt lat="44.88513" lon="5.92691">
        <ele>956.5</ele>
        <time>2024-08-27T09:22:39Z</time>
      </trkpt>
      <trkpt lat="44.88513" lon="5.92694">
        <ele>956.8</ele>
        <time>2024-08-27T09:22:40Z</time>
      </trkpt>
      <trkpt lat="44.88514" lon="5.92696">
        <ele>957</ele>
        <time>2024-08-27T09:22:41Z</time>
      </trkpt>
      <trkpt lat="44.88515" lon="5.92698">
        <ele>957.2</ele>
        <time>2024-08-27T09:22:42Z</time>
      </trkpt>
      <trkpt lat="44.88516" lon="5.927">
        <ele>957.4</ele>
        <time>2024-08-27T09:22:43Z</time>
      </trkpt>
      <trkpt lat="44.88517" lon="5.92702">
        <ele>957.6</ele>
        <time>2024-08-27T09:22:44Z</time>
      </trkpt>
      <trkpt lat="44.88517" lon="5.92704">
        <ele>957.8</ele>
        <time>2024-08-27T09:22:45Z</time>
      </trkpt>
      <trkpt lat="44.88518" lon="5.92706">
        <ele>958</ele>
        <time>2024-08-27T09:22:46Z</time>
      </trkpt>
      <trkpt lat="44.88518" lon="5.92708">
        <ele>958.2</ele>
        <time>2024-08-27T09:22:47Z</time>
      </trkpt>
      <trkpt lat="44.88518" lon="5.92711">
        <ele>958.5</ele>
        <time>2024-08-27T09:22:48Z</time>
      </trkpt>
      <trkpt lat="44.88519" lon="5.92713">
        <ele>958.7</ele>
        <time>2024-08-27T09:22:49Z</time>
      </trkpt>
      <trkpt lat="44.88519" lon="5.92715">
        <ele>958.9</ele>
        <time>2024-08-27T09:22:50Z</time>
      </trkpt>
      <trkpt lat="44.88519" lon="5.92717">
        <ele>959.1</ele>
        <time>2024-08-27T09:22:51Z</time>
      </trkpt>
      <trkpt lat="44.8852" lon="5.92719">
        <ele>959.3</ele>
        <time>2024-08-27T09:22:52Z</time>
      </trkpt>
      <trkpt lat="44.88521" lon="5.92721">
        <ele>959.5</ele>
        <time>2024-08-27T09:22:53Z</time>
      </trkpt>
      <trkpt lat="44.88522" lon="5.92723">
        <ele>959.7</ele>
        <time>2024-08-27T09:22:54Z</time>
      </trkpt>
      <trkpt lat="44.88522" lon="5.92725">
        <ele>959.8</ele>
        <time>2024-08-27T09:22:55Z</time>
      </trkpt>
      <trkpt lat="44.88522" lon="5.92726">
        <ele>960</ele>
        <time>2024-08-27T09:22:56Z</time>
      </trkpt>
      <trkpt lat="44.88523" lon="5.92728">
        <ele>960.2</ele>
        <time>2024-08-27T09:22:57Z</time>
      </trkpt>
      <trkpt lat="44.88524" lon="5.9273">
        <ele>960.4</ele>
        <time>2024-08-27T09:22:58Z</time>
      </trkpt>
      <trkpt lat="44.88525" lon="5.92732">
        <ele>960.6</ele>
        <time>2024-08-27T09:22:59Z</time>
      </trkpt>
      <trkpt lat="44.88526" lon="5.92734">
        <ele>960.9</ele>
        <time>2024-08-27T09:23:00Z</time>
      </trkpt>
      <trkpt lat="44.88527" lon="5.92736">
        <ele>961.1</ele>
        <time>2024-08-27T09:23:01Z</time>
      </trkpt>
      <trkpt lat="44.88527" lon="5.92737">
        <ele>961.3</ele>
        <time>2024-08-27T09:23:02Z</time>
      </trkpt>
      <trkpt lat="44.88528" lon="5.92739">
        <ele>961.5</ele>
        <time>2024-08-27T09:23:03Z</time>
      </trkpt>
      <trkpt lat="44.88529" lon="5.92742">
        <ele>961.8</ele>
        <time>2024-08-27T09:23:04Z</time>
      </trkpt>
      <trkpt lat="44.8853" lon="5.92744">
        <ele>962</ele>
        <time>2024-08-27T09:23:05Z</time>
      </trkpt>
      <trkpt lat="44.88531" lon="5.92746">
        <ele>962.2</ele>
        <time>2024-08-27T09:23:06Z</time>
      </trkpt>
      <trkpt lat="44.88531" lon="5.92748">
        <ele>962.5</ele>
        <time>2024-08-27T09:23:07Z</time>
      </trkpt>
      <trkpt lat="44.88532" lon="5.9275">
        <ele>962.7</ele>
        <time>2024-08-27T09:23:08Z</time>
      </trkpt>
      <trkpt lat="44.88532" lon="5.92753">
        <ele>962.9</ele>
        <time>2024-08-27T09:23:09Z</time>
      </trkpt>
      <trkpt lat="44.88533" lon="5.92755">
        <ele>963.2</ele>
        <time>2024-08-27T09:23:10Z</time>
      </trkpt>
      <trkpt lat="44.88534" lon="5.92757">
        <ele>963.4</ele>
        <time>2024-08-27T09:23:11Z</time>
      </trkpt>
      <trkpt lat="44.88535" lon="5.92759">
        <ele>963.6</ele>
        <time>2024-08-27T09:23:12Z</time>
      </trkpt>
      <trkpt lat="44.88535" lon="5.92761">
        <ele>963.8</ele>
        <time>2024-08-27T09:23:13Z</time>
      </trkpt>
      <trkpt lat="44.88536" lon="5.92763">
        <ele>964</ele>
        <time>2024-08-27T09:23:14Z</time>
      </trkpt>
      <trkpt lat="44.88536" lon="5.92765">
        <ele>964.3</ele>
        <time>2024-08-27T09:23:15Z</time>
      </trkpt>
      <trkpt lat="44.88537" lon="5.92767">
        <ele>964.5</ele>
        <time>2024-08-27T09:23:16Z</time>
      </trkpt>
      <trkpt lat="44.88537" lon="5.92769">
        <ele>964.7</ele>
        <time>2024-08-27T09:23:17Z</time>
      </trkpt>
      <trkpt lat="44.88538" lon="5.92771">
        <ele>964.9</ele>
        <time>2024-08-27T09:23:18Z</time>
      </trkpt>
      <trkpt lat="44.88538" lon="5.92773">
        <ele>965.1</ele>
        <time>2024-08-27T09:23:19Z</time>
      </trkpt>
      <trkpt lat="44.88538" lon="5.92775">
        <ele>965.3</ele>
        <time>2024-08-27T09:23:20Z</time>
      </trkpt>
      <trkpt lat="44.88539" lon="5.92777">
        <ele>965.5</ele>
        <time>2024-08-27T09:23:21Z</time>
      </trkpt>
      <trkpt lat="44.88539" lon="5.92779">
        <ele>965.7</ele>
        <time>2024-08-27T09:23:22Z</time>
      </trkpt>
      <trkpt lat="44.88539" lon="5.92781">
        <ele>965.9</ele>
        <time>2024-08-27T09:23:23Z</time>
      </trkpt>
      <trkpt lat="44.8854" lon="5.92783">
        <ele>966.2</ele>
        <time>2024-08-27T09:23:24Z</time>
      </trkpt>
      <trkpt lat="44.8854" lon="5.92786">
        <ele>966.4</ele>
        <time>2024-08-27T09:23:25Z</time>
      </trkpt>
      <trkpt lat="44.88541" lon="5.92788">
        <ele>966.6</ele>
        <time>2024-08-27T09:23:26Z</time>
      </trkpt>
      <trkpt lat="44.88541" lon="5.9279">
        <ele>966.8</ele>
        <time>2024-08-27T09:23:27Z</time>
      </trkpt>
      <trkpt lat="44.88541" lon="5.92792">
        <ele>967.1</ele>
        <time>2024-08-27T09:23:28Z</time>
      </trkpt>
      <trkpt lat="44.88542" lon="5.92794">
        <ele>967.3</ele>
        <time>2024-08-27T09:23:29Z</time>
      </trkpt>
      <trkpt lat="44.88543" lon="5.92797">
        <ele>967.5</ele>
        <time>2024-08-27T09:23:30Z</time>
      </trkpt>
      <trkpt lat="44.88543" lon="5.92799">
        <ele>967.8</ele>
        <time>2024-08-27T09:23:31Z</time>
      </trkpt>
      <trkpt lat="44.88544" lon="5.92801">
        <ele>968</ele>
        <time>2024-08-27T09:23:32Z</time>
      </trkpt>
      <trkpt lat="44.88544" lon="5.92803">
        <ele>968.2</ele>
        <time>2024-08-27T09:23:33Z</time>
      </trkpt>
      <trkpt lat="44.88544" lon="5.92805">
        <ele>968.4</ele>
        <time>2024-08-27T09:23:34Z</time>
      </trkpt>
      <trkpt lat="44.88545" lon="5.92807">
        <ele>968.7</ele>
        <time>2024-08-27T09:23:35Z</time>
      </trkpt>
      <trkpt lat="44.88545" lon="5.92809">
        <ele>968.9</ele>
        <time>2024-08-27T09:23:36Z</time>
      </trkpt>
      <trkpt lat="44.88546" lon="5.92811">
        <ele>969.1</ele>
        <time>2024-08-27T09:23:37Z</time>
      </trkpt>
      <trkpt lat="44.88547" lon="5.92814">
        <ele>969.4</ele>
        <time>2024-08-27T09:23:38Z</time>
      </trkpt>
      <trkpt lat="44.88547" lon="5.92816">
        <ele>969.6</ele>
        <time>2024-08-27T09:23:39Z</time>
      </trkpt>
      <trkpt lat="44.88547" lon="5.92818">
        <ele>969.8</ele>
        <time>2024-08-27T09:23:40Z</time>
      </trkpt>
      <trkpt lat="44.88547" lon="5.9282">
        <ele>970</ele>
        <time>2024-08-27T09:23:41Z</time>
      </trkpt>
      <trkpt lat="44.88548" lon="5.92822">
        <ele>970.3</ele>
        <time>2024-08-27T09:23:42Z</time>
      </trkpt>
      <trkpt lat="44.88548" lon="5.92824">
        <ele>970.5</ele>
        <time>2024-08-27T09:23:43Z</time>
      </trkpt>
      <trkpt lat="44.88549" lon="5.92826">
        <ele>970.7</ele>
        <time>2024-08-27T09:23:44Z</time>
      </trkpt>
      <trkpt lat="44.8855" lon="5.92828">
        <ele>970.9</ele>
        <time>2024-08-27T09:23:45Z</time>
      </trkpt>
      <trkpt lat="44.8855" lon="5.9283">
        <ele>971.1</ele>
        <time>2024-08-27T09:23:46Z</time>
      </trkpt>
      <trkpt lat="44.8855" lon="5.92833">
        <ele>971.4</ele>
        <time>2024-08-27T09:23:47Z</time>
      </trkpt>
      <trkpt lat="44.88551" lon="5.92835">
        <ele>971.6</ele>
        <time>2024-08-27T09:23:48Z</time>
      </trkpt>
      <trkpt lat="44.88551" lon="5.92837">
        <ele>971.8</ele>
        <time>2024-08-27T09:23:49Z</time>
      </trkpt>
      <trkpt lat="44.88552" lon="5.92839">
        <ele>972</ele>
        <time>2024-08-27T09:23:50Z</time>
      </trkpt>
      <trkpt lat="44.88552" lon="5.92842">
        <ele>972.3</ele>
        <time>2024-08-27T09:23:51Z</time>
      </trkpt>
      <trkpt lat="44.88553" lon="5.92844">
        <ele>972.5</ele>
        <time>2024-08-27T09:23:52Z</time>
      </trkpt>
      <trkpt lat="44.88553" lon="5.92846">
        <ele>972.8</ele>
        <time>2024-08-27T09:23:53Z</time>
      </trkpt>
      <trkpt lat="44.88554" lon="5.92849">
        <ele>973</ele>
        <time>2024-08-27T09:23:54Z</time>
      </trkpt>
      <trkpt lat="44.88554" lon="5.92851">
        <ele>973.3</ele>
        <time>2024-08-27T09:23:55Z</time>
      </trkpt>
      <trkpt lat="44.88554" lon="5.92853">
        <ele>973.5</ele>
        <time>2024-08-27T09:23:56Z</time>
      </trkpt>
      <trkpt lat="44.88554" lon="5.92856">
        <ele>973.7</ele>
        <time>2024-08-27T09:23:57Z</time>
      </trkpt>
      <trkpt lat="44.88555" lon="5.92858">
        <ele>974</ele>
        <time>2024-08-27T09:23:58Z</time>
      </trkpt>
      <trkpt lat="44.88555" lon="5.9286">
        <ele>974.2</ele>
        <time>2024-08-27T09:23:59Z</time>
      </trkpt>
      <trkpt lat="44.88555" lon="5.92863">
        <ele>974.4</ele>
        <time>2024-08-27T09:24:00Z</time>
      </trkpt>
      <trkpt lat="44.88556" lon="5.92865">
        <ele>974.7</ele>
        <time>2024-08-27T09:24:01Z</time>
      </trkpt>
      <trkpt lat="44.88556" lon="5.92867">
        <ele>974.9</ele>
        <time>2024-08-27T09:24:02Z</time>
      </trkpt>
      <trkpt lat="44.88556" lon="5.92869">
        <ele>975.1</ele>
        <time>2024-08-27T09:24:03Z</time>
      </trkpt>
      <trkpt lat="44.88556" lon="5.92871">
        <ele>975.3</ele>
        <time>2024-08-27T09:24:04Z</time>
      </trkpt>
      <trkpt lat="44.88557" lon="5.92873">
        <ele>975.5</ele>
        <time>2024-08-27T09:24:05Z</time>
      </trkpt>
      <trkpt lat="44.88557" lon="5.92875">
        <ele>975.7</ele>
        <time>2024-08-27T09:24:06Z</time>
      </trkpt>
      <trkpt lat="44.88558" lon="5.92877">
        <ele>976</ele>
        <time>2024-08-27T09:24:07Z</time>
      </trkpt>
      <trkpt lat="44.88559" lon="5.9288">
        <ele>976.3</ele>
        <time>2024-08-27T09:24:08Z</time>
      </trkpt>
      <trkpt lat="44.88559" lon="5.92882">
        <ele>976.5</ele>
        <time>2024-08-27T09:24:09Z</time>
      </trkpt>
      <trkpt lat="44.8856" lon="5.92884">
        <ele>976.7</ele>
        <time>2024-08-27T09:24:10Z</time>
      </trkpt>
      <trkpt lat="44.8856" lon="5.92886">
        <ele>976.9</ele>
        <time>2024-08-27T09:24:11Z</time>
      </trkpt>
      <trkpt lat="44.8856" lon="5.92888">
        <ele>977.1</ele>
        <time>2024-08-27T09:24:12Z</time>
      </trkpt>
      <trkpt lat="44.8856" lon="5.9289">
        <ele>977.4</ele>
        <time>2024-08-27T09:24:13Z</time>
      </trkpt>
      <trkpt lat="44.8856" lon="5.92893">
        <ele>977.6</ele>
        <time>2024-08-27T09:24:14Z</time>
      </trkpt>
      <trkpt lat="44.88561" lon="5.92895">
        <ele>977.9</ele>
        <time>2024-08-27T09:24:15Z</time>
      </trkpt>
      <trkpt lat="44.88561" lon="5.92897">
        <ele>978.1</ele>
        <time>2024-08-27T09:24:16Z</time>
      </trkpt>
      <trkpt lat="44.88561" lon="5.92899">
        <ele>978.3</ele>
        <time>2024-08-27T09:24:17Z</time>
      </trkpt>
      <trkpt lat="44.88562" lon="5.92901">
        <ele>978.5</ele>
        <time>2024-08-27T09:24:18Z</time>
      </trkpt>
      <trkpt lat="44.88562" lon="5.92903">
        <ele>978.8</ele>
        <time>2024-08-27T09:24:19Z</time>
      </trkpt>
      <trkpt lat="44.88563" lon="5.92906">
        <ele>979</ele>
        <time>2024-08-27T09:24:20Z</time>
      </trkpt>
      <trkpt lat="44.88563" lon="5.92907">
        <ele>979.2</ele>
        <time>2024-08-27T09:24:21Z</time>
      </trkpt>
      <trkpt lat="44.88564" lon="5.92909">
        <ele>979.5</ele>
        <time>2024-08-27T09:24:22Z</time>
      </trkpt>
      <trkpt lat="44.88565" lon="5.92912">
        <ele>979.7</ele>
        <time>2024-08-27T09:24:23Z</time>
      </trkpt>
      <trkpt lat="44.88565" lon="5.92914">
        <ele>980</ele>
        <time>2024-08-27T09:24:24Z</time>
      </trkpt>
      <trkpt lat="44.88566" lon="5.92916">
        <ele>980.2</ele>
        <time>2024-08-27T09:24:25Z</time>
      </trkpt>
      <trkpt lat="44.88566" lon="5.92918">
        <ele>980.5</ele>
        <time>2024-08-27T09:24:26Z</time>
      </trkpt>
      <trkpt lat="44.88567" lon="5.9292">
        <ele>980.7</ele>
        <time>2024-08-27T09:24:27Z</time>
      </trkpt>
      <trkpt lat="44.88567" lon="5.92923">
        <ele>980.9</ele>
        <time>2024-08-27T09:24:28Z</time>
      </trkpt>
      <trkpt lat="44.88568" lon="5.92925">
        <ele>981.2</ele>
        <time>2024-08-27T09:24:29Z</time>
      </trkpt>
      <trkpt lat="44.88568" lon="5.92926">
        <ele>981.4</ele>
        <time>2024-08-27T09:24:30Z</time>
      </trkpt>
      <trkpt lat="44.88569" lon="5.92928">
        <ele>981.6</ele>
        <time>2024-08-27T09:24:31Z</time>
      </trkpt>
      <trkpt lat="44.88569" lon="5.92931">
        <ele>981.8</ele>
        <time>2024-08-27T09:24:32Z</time>
      </trkpt>
      <trkpt lat="44.8857" lon="5.92933">
        <ele>982</ele>
        <time>2024-08-27T09:24:33Z</time>
      </trkpt>
      <trkpt lat="44.8857" lon="5.92935">
        <ele>982.2</ele>
        <time>2024-08-27T09:24:34Z</time>
      </trkpt>
      <trkpt lat="44.88571" lon="5.92937">
        <ele>982.5</ele>
        <time>2024-08-27T09:24:35Z</time>
      </trkpt>
      <trkpt lat="44.88571" lon="5.92939">
        <ele>982.7</ele>
        <time>2024-08-27T09:24:36Z</time>
      </trkpt>
      <trkpt lat="44.88572" lon="5.92941">
        <ele>982.9</ele>
        <time>2024-08-27T09:24:37Z</time>
      </trkpt>
      <trkpt lat="44.88572" lon="5.92943">
        <ele>983.1</ele>
        <time>2024-08-27T09:24:38Z</time>
      </trkpt>
      <trkpt lat="44.88573" lon="5.92945">
        <ele>983.4</ele>
        <time>2024-08-27T09:24:39Z</time>
      </trkpt>
      <trkpt lat="44.88574" lon="5.92948">
        <ele>983.7</ele>
        <time>2024-08-27T09:24:40Z</time>
      </trkpt>
      <trkpt lat="44.88574" lon="5.9295">
        <ele>983.9</ele>
        <time>2024-08-27T09:24:41Z</time>
      </trkpt>
      <trkpt lat="44.88575" lon="5.92952">
        <ele>984.1</ele>
        <time>2024-08-27T09:24:42Z</time>
      </trkpt>
      <trkpt lat="44.88575" lon="5.92954">
        <ele>984.4</ele>
        <time>2024-08-27T09:24:43Z</time>
      </trkpt>
      <trkpt lat="44.88576" lon="5.92957">
        <ele>984.5</ele>
        <time>2024-08-27T09:24:44Z</time>
      </trkpt>
      <trkpt lat="44.88577" lon="5.92959">
        <ele>984.6</ele>
        <time>2024-08-27T09:24:45Z</time>
      </trkpt>
      <trkpt lat="44.88578" lon="5.92961">
        <ele>984.6</ele>
        <time>2024-08-27T09:24:46Z</time>
      </trkpt>
      <trkpt lat="44.88578" lon="5.92963">
        <ele>984.7</ele>
        <time>2024-08-27T09:24:47Z</time>
      </trkpt>
      <trkpt lat="44.88579" lon="5.92965">
        <ele>984.8</ele>
        <time>2024-08-27T09:24:48Z</time>
      </trkpt>
      <trkpt lat="44.8858" lon="5.92967">
        <ele>985</ele>
        <time>2024-08-27T09:24:49Z</time>
      </trkpt>
      <trkpt lat="44.88581" lon="5.92969">
        <ele>985.2</ele>
        <time>2024-08-27T09:24:50Z</time>
      </trkpt>
      <trkpt lat="44.88582" lon="5.92971">
        <ele>985.4</ele>
        <time>2024-08-27T09:24:51Z</time>
      </trkpt>
      <trkpt lat="44.88583" lon="5.92974">
        <ele>985.6</ele>
        <time>2024-08-27T09:24:52Z</time>
      </trkpt>
      <trkpt lat="44.88584" lon="5.92976">
        <ele>985.8</ele>
        <time>2024-08-27T09:24:53Z</time>
      </trkpt>
      <trkpt lat="44.88585" lon="5.92978">
        <ele>986.1</ele>
        <time>2024-08-27T09:24:54Z</time>
      </trkpt>
      <trkpt lat="44.88585" lon="5.9298">
        <ele>986.3</ele>
        <time>2024-08-27T09:24:55Z</time>
      </trkpt>
      <trkpt lat="44.88586" lon="5.92982">
        <ele>986.5</ele>
        <time>2024-08-27T09:24:56Z</time>
      </trkpt>
      <trkpt lat="44.88587" lon="5.92984">
        <ele>986.7</ele>
        <time>2024-08-27T09:24:57Z</time>
      </trkpt>
      <trkpt lat="44.88587" lon="5.92986">
        <ele>986.9</ele>
        <time>2024-08-27T09:24:58Z</time>
      </trkpt>
      <trkpt lat="44.88588" lon="5.92988">
        <ele>987.1</ele>
        <time>2024-08-27T09:24:59Z</time>
      </trkpt>
      <trkpt lat="44.88588" lon="5.92991">
        <ele>987.4</ele>
        <time>2024-08-27T09:25:00Z</time>
      </trkpt>
      <trkpt lat="44.88589" lon="5.92992">
        <ele>987.5</ele>
        <time>2024-08-27T09:25:01Z</time>
      </trkpt>
      <trkpt lat="44.88589" lon="5.92994">
        <ele>987.7</ele>
        <time>2024-08-27T09:25:02Z</time>
      </trkpt>
      <trkpt lat="44.88589" lon="5.92997">
        <ele>987.9</ele>
        <time>2024-08-27T09:25:03Z</time>
      </trkpt>
      <trkpt lat="44.88589" lon="5.92999">
        <ele>988.1</ele>
        <time>2024-08-27T09:25:04Z</time>
      </trkpt>
      <trkpt lat="44.88589" lon="5.93001">
        <ele>988.3</ele>
        <time>2024-08-27T09:25:05Z</time>
      </trkpt>
      <trkpt lat="44.88589" lon="5.93003">
        <ele>988.6</ele>
        <time>2024-08-27T09:25:06Z</time>
      </trkpt>
      <trkpt lat="44.8859" lon="5.93005">
        <ele>988.7</ele>
        <time>2024-08-27T09:25:07Z</time>
      </trkpt>
      <trkpt lat="44.8859" lon="5.93008">
        <ele>989.1</ele>
        <time>2024-08-27T09:25:08Z</time>
      </trkpt>
      <trkpt lat="44.8859" lon="5.93009">
        <ele>989.2</ele>
        <time>2024-08-27T09:25:09Z</time>
      </trkpt>
      <trkpt lat="44.8859" lon="5.93011">
        <ele>989.3</ele>
        <time>2024-08-27T09:25:10Z</time>
      </trkpt>
      <trkpt lat="44.8859" lon="5.93013">
        <ele>989.5</ele>
        <time>2024-08-27T09:25:11Z</time>
      </trkpt>
      <trkpt lat="44.88591" lon="5.93015">
        <ele>989.8</ele>
        <time>2024-08-27T09:25:12Z</time>
      </trkpt>
      <trkpt lat="44.88591" lon="5.93017">
        <ele>990</ele>
        <time>2024-08-27T09:25:13Z</time>
      </trkpt>
      <trkpt lat="44.88591" lon="5.93019">
        <ele>990.2</ele>
        <time>2024-08-27T09:25:14Z</time>
      </trkpt>
      <trkpt lat="44.88592" lon="5.93021">
        <ele>990.4</ele>
        <time>2024-08-27T09:25:15Z</time>
      </trkpt>
      <trkpt lat="44.88592" lon="5.93023">
        <ele>990.6</ele>
        <time>2024-08-27T09:25:16Z</time>
      </trkpt>
      <trkpt lat="44.88592" lon="5.93025">
        <ele>990.8</ele>
        <time>2024-08-27T09:25:17Z</time>
      </trkpt>
      <trkpt lat="44.88592" lon="5.93027">
        <ele>991</ele>
        <time>2024-08-27T09:25:18Z</time>
      </trkpt>
      <trkpt lat="44.88591" lon="5.9303">
        <ele>991.2</ele>
        <time>2024-08-27T09:25:19Z</time>
      </trkpt>
      <trkpt lat="44.88592" lon="5.93035">
        <ele>991.7</ele>
        <time>2024-08-27T09:25:21Z</time>
      </trkpt>
      <trkpt lat="44.88592" lon="5.93037">
        <ele>992</ele>
        <time>2024-08-27T09:25:22Z</time>
      </trkpt>
      <trkpt lat="44.88592" lon="5.9304">
        <ele>992.3</ele>
        <time>2024-08-27T09:25:23Z</time>
      </trkpt>
      <trkpt lat="44.88592" lon="5.93042">
        <ele>992.5</ele>
        <time>2024-08-27T09:25:24Z</time>
      </trkpt>
      <trkpt lat="44.88592" lon="5.93044">
        <ele>992.7</ele>
        <time>2024-08-27T09:25:25Z</time>
      </trkpt>
      <trkpt lat="44.88592" lon="5.93047">
        <ele>993</ele>
        <time>2024-08-27T09:25:26Z</time>
      </trkpt>
      <trkpt lat="44.88592" lon="5.9305">
        <ele>993.2</ele>
        <time>2024-08-27T09:25:27Z</time>
      </trkpt>
      <trkpt lat="44.88592" lon="5.93052">
        <ele>993.5</ele>
        <time>2024-08-27T09:25:28Z</time>
      </trkpt>
      <trkpt lat="44.88592" lon="5.93054">
        <ele>993.7</ele>
        <time>2024-08-27T09:25:29Z</time>
      </trkpt>
      <trkpt lat="44.88592" lon="5.93057">
        <ele>993.9</ele>
        <time>2024-08-27T09:25:30Z</time>
      </trkpt>
      <trkpt lat="44.88592" lon="5.93059">
        <ele>994.2</ele>
        <time>2024-08-27T09:25:31Z</time>
      </trkpt>
      <trkpt lat="44.88592" lon="5.93061">
        <ele>994.4</ele>
        <time>2024-08-27T09:25:32Z</time>
      </trkpt>
      <trkpt lat="44.88593" lon="5.93064">
        <ele>994.6</ele>
        <time>2024-08-27T09:25:33Z</time>
      </trkpt>
      <trkpt lat="44.88593" lon="5.93066">
        <ele>994.9</ele>
        <time>2024-08-27T09:25:34Z</time>
      </trkpt>
      <trkpt lat="44.88592" lon="5.93068">
        <ele>995.1</ele>
        <time>2024-08-27T09:25:35Z</time>
      </trkpt>
      <trkpt lat="44.88592" lon="5.9307">
        <ele>995.3</ele>
        <time>2024-08-27T09:25:36Z</time>
      </trkpt>
      <trkpt lat="44.88592" lon="5.93072">
        <ele>995.5</ele>
        <time>2024-08-27T09:25:37Z</time>
      </trkpt>
      <trkpt lat="44.88592" lon="5.93074">
        <ele>995.7</ele>
        <time>2024-08-27T09:25:38Z</time>
      </trkpt>
      <trkpt lat="44.88592" lon="5.93077">
        <ele>995.9</ele>
        <time>2024-08-27T09:25:39Z</time>
      </trkpt>
      <trkpt lat="44.88592" lon="5.93079">
        <ele>996.2</ele>
        <time>2024-08-27T09:25:40Z</time>
      </trkpt>
      <trkpt lat="44.88592" lon="5.93082">
        <ele>996.4</ele>
        <time>2024-08-27T09:25:41Z</time>
      </trkpt>
      <trkpt lat="44.88592" lon="5.93084">
        <ele>996.6</ele>
        <time>2024-08-27T09:25:42Z</time>
      </trkpt>
      <trkpt lat="44.88591" lon="5.93086">
        <ele>996.8</ele>
        <time>2024-08-27T09:25:43Z</time>
      </trkpt>
      <trkpt lat="44.88591" lon="5.93088">
        <ele>997.1</ele>
        <time>2024-08-27T09:25:44Z</time>
      </trkpt>
      <trkpt lat="44.8859" lon="5.93092">
        <ele>997.5</ele>
        <time>2024-08-27T09:25:45Z</time>
      </trkpt>
      <trkpt lat="44.8859" lon="5.93093">
        <ele>997.6</ele>
        <time>2024-08-27T09:25:46Z</time>
      </trkpt>
      <trkpt lat="44.88589" lon="5.93096">
        <ele>997.8</ele>
        <time>2024-08-27T09:25:47Z</time>
      </trkpt>
      <trkpt lat="44.88589" lon="5.93098">
        <ele>998.1</ele>
        <time>2024-08-27T09:25:48Z</time>
      </trkpt>
      <trkpt lat="44.88589" lon="5.93101">
        <ele>998.3</ele>
        <time>2024-08-27T09:25:49Z</time>
      </trkpt>
      <trkpt lat="44.88589" lon="5.93103">
        <ele>998.6</ele>
        <time>2024-08-27T09:25:50Z</time>
      </trkpt>
      <trkpt lat="44.88589" lon="5.93105">
        <ele>998.8</ele>
        <time>2024-08-27T09:25:51Z</time>
      </trkpt>
      <trkpt lat="44.88589" lon="5.93107">
        <ele>999</ele>
        <time>2024-08-27T09:25:52Z</time>
      </trkpt>
      <trkpt lat="44.88589" lon="5.9311">
        <ele>999.3</ele>
        <time>2024-08-27T09:25:53Z</time>
      </trkpt>
      <trkpt lat="44.88589" lon="5.93112">
        <ele>999.5</ele>
        <time>2024-08-27T09:25:54Z</time>
      </trkpt>
      <trkpt lat="44.88589" lon="5.93114">
        <ele>999.7</ele>
        <time>2024-08-27T09:25:55Z</time>
      </trkpt>
      <trkpt lat="44.88589" lon="5.93116">
        <ele>999.9</ele>
        <time>2024-08-27T09:25:56Z</time>
      </trkpt>
      <trkpt lat="44.88589" lon="5.93118">
        <ele>1000.2</ele>
        <time>2024-08-27T09:25:57Z</time>
      </trkpt>
      <trkpt lat="44.88588" lon="5.9312">
        <ele>1000.4</ele>
        <time>2024-08-27T09:25:58Z</time>
      </trkpt>
      <trkpt lat="44.88588" lon="5.93122">
        <ele>1000.7</ele>
        <time>2024-08-27T09:25:59Z</time>
      </trkpt>
      <trkpt lat="44.88588" lon="5.93125">
        <ele>1000.9</ele>
        <time>2024-08-27T09:26:00Z</time>
      </trkpt>
      <trkpt lat="44.88588" lon="5.93127">
        <ele>1001.2</ele>
        <time>2024-08-27T09:26:01Z</time>
      </trkpt>
      <trkpt lat="44.88588" lon="5.9313">
        <ele>1001.5</ele>
        <time>2024-08-27T09:26:02Z</time>
      </trkpt>
      <trkpt lat="44.88588" lon="5.93132">
        <ele>1001.7</ele>
        <time>2024-08-27T09:26:03Z</time>
      </trkpt>
      <trkpt lat="44.88588" lon="5.93134">
        <ele>1002</ele>
        <time>2024-08-27T09:26:04Z</time>
      </trkpt>
      <trkpt lat="44.88589" lon="5.93136">
        <ele>1002.3</ele>
        <time>2024-08-27T09:26:05Z</time>
      </trkpt>
      <trkpt lat="44.8859" lon="5.93138">
        <ele>1002.5</ele>
        <time>2024-08-27T09:26:06Z</time>
      </trkpt>
      <trkpt lat="44.88591" lon="5.9314">
        <ele>1002.8</ele>
        <time>2024-08-27T09:26:07Z</time>
      </trkpt>
      <trkpt lat="44.88591" lon="5.93142">
        <ele>1003</ele>
        <time>2024-08-27T09:26:08Z</time>
      </trkpt>
      <trkpt lat="44.88592" lon="5.93143">
        <ele>1003.3</ele>
        <time>2024-08-27T09:26:09Z</time>
      </trkpt>
      <trkpt lat="44.88593" lon="5.93145">
        <ele>1003.5</ele>
        <time>2024-08-27T09:26:10Z</time>
      </trkpt>
      <trkpt lat="44.88596" lon="5.93146">
        <ele>1004</ele>
        <time>2024-08-27T09:26:11Z</time>
      </trkpt>
      <trkpt lat="44.88597" lon="5.93147">
        <ele>1004.2</ele>
        <time>2024-08-27T09:26:12Z</time>
      </trkpt>
      <trkpt lat="44.88601" lon="5.93148">
        <ele>1004.7</ele>
        <time>2024-08-27T09:26:13Z</time>
      </trkpt>
      <trkpt lat="44.88602" lon="5.93148">
        <ele>1004.9</ele>
        <time>2024-08-27T09:26:14Z</time>
      </trkpt>
      <trkpt lat="44.88605" lon="5.93147">
        <ele>1005.4</ele>
        <time>2024-08-27T09:26:15Z</time>
      </trkpt>
      <trkpt lat="44.88605" lon="5.93147">
        <ele>1005.5</ele>
        <time>2024-08-27T09:26:16Z</time>
      </trkpt>
      <trkpt lat="44.88608" lon="5.93145">
        <ele>1005.9</ele>
        <time>2024-08-27T09:26:17Z</time>
      </trkpt>
      <trkpt lat="44.88609" lon="5.93145">
        <ele>1006.1</ele>
        <time>2024-08-27T09:26:18Z</time>
      </trkpt>
      <trkpt lat="44.8861" lon="5.93144">
        <ele>1006.3</ele>
        <time>2024-08-27T09:26:19Z</time>
      </trkpt>
      <trkpt lat="44.88612" lon="5.93143">
        <ele>1006.5</ele>
        <time>2024-08-27T09:26:20Z</time>
      </trkpt>
      <trkpt lat="44.88614" lon="5.93142">
        <ele>1006.7</ele>
        <time>2024-08-27T09:26:21Z</time>
      </trkpt>
      <trkpt lat="44.88615" lon="5.93141">
        <ele>1007</ele>
        <time>2024-08-27T09:26:22Z</time>
      </trkpt>
      <trkpt lat="44.88617" lon="5.9314">
        <ele>1007.2</ele>
        <time>2024-08-27T09:26:23Z</time>
      </trkpt>
      <trkpt lat="44.88618" lon="5.93139">
        <ele>1007.4</ele>
        <time>2024-08-27T09:26:24Z</time>
      </trkpt>
      <trkpt lat="44.8862" lon="5.93138">
        <ele>1007.6</ele>
        <time>2024-08-27T09:26:25Z</time>
      </trkpt>
      <trkpt lat="44.88622" lon="5.93138">
        <ele>1007.8</ele>
        <time>2024-08-27T09:26:26Z</time>
      </trkpt>
      <trkpt lat="44.88623" lon="5.93137">
        <ele>1008</ele>
        <time>2024-08-27T09:26:27Z</time>
      </trkpt>
      <trkpt lat="44.88625" lon="5.93137">
        <ele>1008.2</ele>
        <time>2024-08-27T09:26:28Z</time>
      </trkpt>
      <trkpt lat="44.88627" lon="5.93136">
        <ele>1008.4</ele>
        <time>2024-08-27T09:26:29Z</time>
      </trkpt>
      <trkpt lat="44.88628" lon="5.93136">
        <ele>1008.6</ele>
        <time>2024-08-27T09:26:30Z</time>
      </trkpt>
      <trkpt lat="44.8863" lon="5.93136">
        <ele>1008.8</ele>
        <time>2024-08-27T09:26:31Z</time>
      </trkpt>
      <trkpt lat="44.88631" lon="5.93136">
        <ele>1009</ele>
        <time>2024-08-27T09:26:32Z</time>
      </trkpt>
      <trkpt lat="44.88633" lon="5.93135">
        <ele>1009.2</ele>
        <time>2024-08-27T09:26:33Z</time>
      </trkpt>
      <trkpt lat="44.88635" lon="5.93135">
        <ele>1009.4</ele>
        <time>2024-08-27T09:26:34Z</time>
      </trkpt>
      <trkpt lat="44.88636" lon="5.93135">
        <ele>1009.6</ele>
        <time>2024-08-27T09:26:35Z</time>
      </trkpt>
      <trkpt lat="44.88638" lon="5.93135">
        <ele>1009.8</ele>
        <time>2024-08-27T09:26:36Z</time>
      </trkpt>
      <trkpt lat="44.8864" lon="5.93135">
        <ele>1010</ele>
        <time>2024-08-27T09:26:37Z</time>
      </trkpt>
      <trkpt lat="44.88642" lon="5.93134">
        <ele>1010.3</ele>
        <time>2024-08-27T09:26:38Z</time>
      </trkpt>
      <trkpt lat="44.88643" lon="5.93134">
        <ele>1010.4</ele>
        <time>2024-08-27T09:26:39Z</time>
      </trkpt>
      <trkpt lat="44.88644" lon="5.93134">
        <ele>1010.6</ele>
        <time>2024-08-27T09:26:40Z</time>
      </trkpt>
      <trkpt lat="44.88646" lon="5.93134">
        <ele>1010.8</ele>
        <time>2024-08-27T09:26:41Z</time>
      </trkpt>
      <trkpt lat="44.88647" lon="5.93133">
        <ele>1011</ele>
        <time>2024-08-27T09:26:42Z</time>
      </trkpt>
      <trkpt lat="44.88649" lon="5.93133">
        <ele>1011.2</ele>
        <time>2024-08-27T09:26:43Z</time>
      </trkpt>
      <trkpt lat="44.88651" lon="5.93133">
        <ele>1011.4</ele>
        <time>2024-08-27T09:26:44Z</time>
      </trkpt>
      <trkpt lat="44.88652" lon="5.93132">
        <ele>1011.6</ele>
        <time>2024-08-27T09:26:45Z</time>
      </trkpt>
      <trkpt lat="44.88654" lon="5.93132">
        <ele>1011.8</ele>
        <time>2024-08-27T09:26:46Z</time>
      </trkpt>
      <trkpt lat="44.88655" lon="5.93131">
        <ele>1012</ele>
        <time>2024-08-27T09:26:47Z</time>
      </trkpt>
      <trkpt lat="44.88657" lon="5.9313">
        <ele>1012.2</ele>
        <time>2024-08-27T09:26:48Z</time>
      </trkpt>
      <trkpt lat="44.88658" lon="5.93129">
        <ele>1012.4</ele>
        <time>2024-08-27T09:26:49Z</time>
      </trkpt>
      <trkpt lat="44.8866" lon="5.93128">
        <ele>1012.6</ele>
        <time>2024-08-27T09:26:50Z</time>
      </trkpt>
      <trkpt lat="44.88661" lon="5.93127">
        <ele>1012.8</ele>
        <time>2024-08-27T09:26:51Z</time>
      </trkpt>
      <trkpt lat="44.88663" lon="5.93126">
        <ele>1013</ele>
        <time>2024-08-27T09:26:52Z</time>
      </trkpt>
      <trkpt lat="44.88664" lon="5.93125">
        <ele>1013.2</ele>
        <time>2024-08-27T09:26:53Z</time>
      </trkpt>
      <trkpt lat="44.88666" lon="5.93124">
        <ele>1013.4</ele>
        <time>2024-08-27T09:26:54Z</time>
      </trkpt>
      <trkpt lat="44.88667" lon="5.93123">
        <ele>1013.6</ele>
        <time>2024-08-27T09:26:55Z</time>
      </trkpt>
      <trkpt lat="44.88669" lon="5.93122">
        <ele>1013.8</ele>
        <time>2024-08-27T09:26:56Z</time>
      </trkpt>
      <trkpt lat="44.8867" lon="5.93121">
        <ele>1014</ele>
        <time>2024-08-27T09:26:57Z</time>
      </trkpt>
      <trkpt lat="44.88672" lon="5.9312">
        <ele>1014.2</ele>
        <time>2024-08-27T09:26:58Z</time>
      </trkpt>
      <trkpt lat="44.88674" lon="5.9312">
        <ele>1014.4</ele>
        <time>2024-08-27T09:26:59Z</time>
      </trkpt>
      <trkpt lat="44.88675" lon="5.93119">
        <ele>1014.7</ele>
        <time>2024-08-27T09:27:00Z</time>
      </trkpt>
      <trkpt lat="44.88677" lon="5.93117">
        <ele>1014.9</ele>
        <time>2024-08-27T09:27:01Z</time>
      </trkpt>
      <trkpt lat="44.88678" lon="5.93116">
        <ele>1015.1</ele>
        <time>2024-08-27T09:27:02Z</time>
      </trkpt>
      <trkpt lat="44.88679" lon="5.93115">
        <ele>1015.3</ele>
        <time>2024-08-27T09:27:03Z</time>
      </trkpt>
      <trkpt lat="44.88681" lon="5.93114">
        <ele>1015.5</ele>
        <time>2024-08-27T09:27:04Z</time>
      </trkpt>
      <trkpt lat="44.88682" lon="5.93112">
        <ele>1015.7</ele>
        <time>2024-08-27T09:27:05Z</time>
      </trkpt>
      <trkpt lat="44.88683" lon="5.93111">
        <ele>1015.9</ele>
        <time>2024-08-27T09:27:06Z</time>
      </trkpt>
      <trkpt lat="44.88684" lon="5.93109">
        <ele>1016.1</ele>
        <time>2024-08-27T09:27:07Z</time>
      </trkpt>
      <trkpt lat="44.88685" lon="5.93108">
        <ele>1016.3</ele>
        <time>2024-08-27T09:27:08Z</time>
      </trkpt>
      <trkpt lat="44.88687" lon="5.93107">
        <ele>1016.5</ele>
        <time>2024-08-27T09:27:09Z</time>
      </trkpt>
      <trkpt lat="44.88688" lon="5.93107">
        <ele>1016.8</ele>
        <time>2024-08-27T09:27:10Z</time>
      </trkpt>
      <trkpt lat="44.8869" lon="5.93106">
        <ele>1017</ele>
        <time>2024-08-27T09:27:11Z</time>
      </trkpt>
      <trkpt lat="44.88692" lon="5.93106">
        <ele>1017.2</ele>
        <time>2024-08-27T09:27:12Z</time>
      </trkpt>
      <trkpt lat="44.88693" lon="5.93105">
        <ele>1017.4</ele>
        <time>2024-08-27T09:27:13Z</time>
      </trkpt>
      <trkpt lat="44.88694" lon="5.93103">
        <ele>1017.6</ele>
        <time>2024-08-27T09:27:14Z</time>
      </trkpt>
      <trkpt lat="44.88696" lon="5.93102">
        <ele>1017.9</ele>
        <time>2024-08-27T09:27:15Z</time>
      </trkpt>
      <trkpt lat="44.88697" lon="5.93102">
        <ele>1018.1</ele>
        <time>2024-08-27T09:27:16Z</time>
      </trkpt>
      <trkpt lat="44.88699" lon="5.93101">
        <ele>1018.3</ele>
        <time>2024-08-27T09:27:17Z</time>
      </trkpt>
      <trkpt lat="44.88701" lon="5.93101">
        <ele>1018.6</ele>
        <time>2024-08-27T09:27:18Z</time>
      </trkpt>
      <trkpt lat="44.88702" lon="5.93101">
        <ele>1018.8</ele>
        <time>2024-08-27T09:27:19Z</time>
      </trkpt>
      <trkpt lat="44.88704" lon="5.931">
        <ele>1019.1</ele>
        <time>2024-08-27T09:27:20Z</time>
      </trkpt>
      <trkpt lat="44.88706" lon="5.931">
        <ele>1019.3</ele>
        <time>2024-08-27T09:27:21Z</time>
      </trkpt>
      <trkpt lat="44.88707" lon="5.931">
        <ele>1019.5</ele>
        <time>2024-08-27T09:27:22Z</time>
      </trkpt>
      <trkpt lat="44.88709" lon="5.93099">
        <ele>1019.7</ele>
        <time>2024-08-27T09:27:23Z</time>
      </trkpt>
      <trkpt lat="44.8871" lon="5.93098">
        <ele>1020</ele>
        <time>2024-08-27T09:27:24Z</time>
      </trkpt>
      <trkpt lat="44.88712" lon="5.93098">
        <ele>1020.2</ele>
        <time>2024-08-27T09:27:25Z</time>
      </trkpt>
      <trkpt lat="44.88714" lon="5.93098">
        <ele>1020.5</ele>
        <time>2024-08-27T09:27:26Z</time>
      </trkpt>
      <trkpt lat="44.88715" lon="5.93098">
        <ele>1020.7</ele>
        <time>2024-08-27T09:27:27Z</time>
      </trkpt>
      <trkpt lat="44.88717" lon="5.93098">
        <ele>1020.9</ele>
        <time>2024-08-27T09:27:28Z</time>
      </trkpt>
      <trkpt lat="44.88719" lon="5.93098">
        <ele>1021.2</ele>
        <time>2024-08-27T09:27:29Z</time>
      </trkpt>
      <trkpt lat="44.8872" lon="5.93099">
        <ele>1021.5</ele>
        <time>2024-08-27T09:27:30Z</time>
      </trkpt>
      <trkpt lat="44.88722" lon="5.93099">
        <ele>1021.7</ele>
        <time>2024-08-27T09:27:31Z</time>
      </trkpt>
      <trkpt lat="44.88724" lon="5.93099">
        <ele>1022</ele>
        <time>2024-08-27T09:27:32Z</time>
      </trkpt>
      <trkpt lat="44.88725" lon="5.931">
        <ele>1022.3</ele>
        <time>2024-08-27T09:27:33Z</time>
      </trkpt>
      <trkpt lat="44.88727" lon="5.93101">
        <ele>1022.5</ele>
        <time>2024-08-27T09:27:34Z</time>
      </trkpt>
      <trkpt lat="44.88728" lon="5.93102">
        <ele>1022.8</ele>
        <time>2024-08-27T09:27:35Z</time>
      </trkpt>
      <trkpt lat="44.8873" lon="5.93103">
        <ele>1023</ele>
        <time>2024-08-27T09:27:36Z</time>
      </trkpt>
      <trkpt lat="44.88731" lon="5.93104">
        <ele>1023.3</ele>
        <time>2024-08-27T09:27:37Z</time>
      </trkpt>
      <trkpt lat="44.88733" lon="5.93105">
        <ele>1023.5</ele>
        <time>2024-08-27T09:27:38Z</time>
      </trkpt>
      <trkpt lat="44.88734" lon="5.93106">
        <ele>1023.7</ele>
        <time>2024-08-27T09:27:39Z</time>
      </trkpt>
      <trkpt lat="44.88735" lon="5.93107">
        <ele>1024</ele>
        <time>2024-08-27T09:27:40Z</time>
      </trkpt>
      <trkpt lat="44.88736" lon="5.93108">
        <ele>1024.2</ele>
        <time>2024-08-27T09:27:41Z</time>
      </trkpt>
      <trkpt lat="44.88737" lon="5.9311">
        <ele>1024.5</ele>
        <time>2024-08-27T09:27:42Z</time>
      </trkpt>
      <trkpt lat="44.88738" lon="5.93112">
        <ele>1024.7</ele>
        <time>2024-08-27T09:27:43Z</time>
      </trkpt>
      <trkpt lat="44.88739" lon="5.93113">
        <ele>1024.9</ele>
        <time>2024-08-27T09:27:44Z</time>
      </trkpt>
      <trkpt lat="44.88741" lon="5.93114">
        <ele>1025.1</ele>
        <time>2024-08-27T09:27:45Z</time>
      </trkpt>
      <trkpt lat="44.88742" lon="5.93115">
        <ele>1025.3</ele>
        <time>2024-08-27T09:27:46Z</time>
      </trkpt>
      <trkpt lat="44.88743" lon="5.93115">
        <ele>1025.5</ele>
        <time>2024-08-27T09:27:47Z</time>
      </trkpt>
      <trkpt lat="44.88745" lon="5.93116">
        <ele>1025.8</ele>
        <time>2024-08-27T09:27:48Z</time>
      </trkpt>
      <trkpt lat="44.88747" lon="5.93117">
        <ele>1026.1</ele>
        <time>2024-08-27T09:27:49Z</time>
      </trkpt>
      <trkpt lat="44.88747" lon="5.93118">
        <ele>1026.2</ele>
        <time>2024-08-27T09:27:50Z</time>
      </trkpt>
      <trkpt lat="44.88748" lon="5.93118">
        <ele>1026.3</ele>
        <time>2024-08-27T09:27:51Z</time>
      </trkpt>
      <trkpt lat="44.88749" lon="5.93119">
        <ele>1026.5</ele>
        <time>2024-08-27T09:27:52Z</time>
      </trkpt>
      <trkpt lat="44.88751" lon="5.9312">
        <ele>1026.8</ele>
        <time>2024-08-27T09:27:53Z</time>
      </trkpt>
      <trkpt lat="44.88752" lon="5.9312">
        <ele>1027</ele>
        <time>2024-08-27T09:27:54Z</time>
      </trkpt>
      <trkpt lat="44.88754" lon="5.93121">
        <ele>1027.2</ele>
        <time>2024-08-27T09:27:55Z</time>
      </trkpt>
      <trkpt lat="44.88756" lon="5.93121">
        <ele>1027.5</ele>
        <time>2024-08-27T09:27:56Z</time>
      </trkpt>
      <trkpt lat="44.88757" lon="5.93121">
        <ele>1027.6</ele>
        <time>2024-08-27T09:27:57Z</time>
      </trkpt>
      <trkpt lat="44.88758" lon="5.93121">
        <ele>1027.8</ele>
        <time>2024-08-27T09:27:58Z</time>
      </trkpt>
      <trkpt lat="44.88761" lon="5.9312">
        <ele>1028.2</ele>
        <time>2024-08-27T09:27:59Z</time>
      </trkpt>
      <trkpt lat="44.88762" lon="5.9312">
        <ele>1028.3</ele>
        <time>2024-08-27T09:28:00Z</time>
      </trkpt>
      <trkpt lat="44.88765" lon="5.9312">
        <ele>1028.7</ele>
        <time>2024-08-27T09:28:01Z</time>
      </trkpt>
      <trkpt lat="44.88766" lon="5.9312">
        <ele>1028.9</ele>
        <time>2024-08-27T09:28:02Z</time>
      </trkpt>
      <trkpt lat="44.88768" lon="5.9312">
        <ele>1029.1</ele>
        <time>2024-08-27T09:28:03Z</time>
      </trkpt>
      <trkpt lat="44.88769" lon="5.9312">
        <ele>1029.3</ele>
        <time>2024-08-27T09:28:04Z</time>
      </trkpt>
      <trkpt lat="44.88772" lon="5.93119">
        <ele>1029.6</ele>
        <time>2024-08-27T09:28:05Z</time>
      </trkpt>
      <trkpt lat="44.88773" lon="5.93118">
        <ele>1029.7</ele>
        <time>2024-08-27T09:28:06Z</time>
      </trkpt>
      <trkpt lat="44.88775" lon="5.93117">
        <ele>1030</ele>
        <time>2024-08-27T09:28:07Z</time>
      </trkpt>
      <trkpt lat="44.88776" lon="5.93116">
        <ele>1030.1</ele>
        <time>2024-08-27T09:28:08Z</time>
      </trkpt>
      <trkpt lat="44.88777" lon="5.93115">
        <ele>1030.3</ele>
        <time>2024-08-27T09:28:09Z</time>
      </trkpt>
      <trkpt lat="44.88778" lon="5.93114">
        <ele>1030.5</ele>
        <time>2024-08-27T09:28:10Z</time>
      </trkpt>
      <trkpt lat="44.88779" lon="5.93113">
        <ele>1030.7</ele>
        <time>2024-08-27T09:28:11Z</time>
      </trkpt>
      <trkpt lat="44.88781" lon="5.93111">
        <ele>1030.9</ele>
        <time>2024-08-27T09:28:12Z</time>
      </trkpt>
      <trkpt lat="44.88782" lon="5.9311">
        <ele>1031</ele>
        <time>2024-08-27T09:28:13Z</time>
      </trkpt>
      <trkpt lat="44.88783" lon="5.93108">
        <ele>1031.2</ele>
        <time>2024-08-27T09:28:14Z</time>
      </trkpt>
      <trkpt lat="44.88784" lon="5.93107">
        <ele>1031.5</ele>
        <time>2024-08-27T09:28:15Z</time>
      </trkpt>
      <trkpt lat="44.88786" lon="5.93105">
        <ele>1031.7</ele>
        <time>2024-08-27T09:28:16Z</time>
      </trkpt>
      <trkpt lat="44.88787" lon="5.93104">
        <ele>1031.8</ele>
        <time>2024-08-27T09:28:17Z</time>
      </trkpt>
      <trkpt lat="44.88788" lon="5.93103">
        <ele>1032</ele>
        <time>2024-08-27T09:28:18Z</time>
      </trkpt>
      <trkpt lat="44.8879" lon="5.93101">
        <ele>1032.3</ele>
        <time>2024-08-27T09:28:19Z</time>
      </trkpt>
      <trkpt lat="44.88791" lon="5.931">
        <ele>1032.5</ele>
        <time>2024-08-27T09:28:20Z</time>
      </trkpt>
      <trkpt lat="44.88792" lon="5.93099">
        <ele>1032.7</ele>
        <time>2024-08-27T09:28:21Z</time>
      </trkpt>
      <trkpt lat="44.88794" lon="5.93098">
        <ele>1032.9</ele>
        <time>2024-08-27T09:28:22Z</time>
      </trkpt>
      <trkpt lat="44.88796" lon="5.93097">
        <ele>1033.1</ele>
        <time>2024-08-27T09:28:23Z</time>
      </trkpt>
      <trkpt lat="44.88797" lon="5.93096">
        <ele>1033.3</ele>
        <time>2024-08-27T09:28:24Z</time>
      </trkpt>
      <trkpt lat="44.88799" lon="5.93095">
        <ele>1033.5</ele>
        <time>2024-08-27T09:28:25Z</time>
      </trkpt>
      <trkpt lat="44.888" lon="5.93094">
        <ele>1033.7</ele>
        <time>2024-08-27T09:28:26Z</time>
      </trkpt>
      <trkpt lat="44.88802" lon="5.93094">
        <ele>1033.9</ele>
        <time>2024-08-27T09:28:27Z</time>
      </trkpt>
      <trkpt lat="44.88804" lon="5.93093">
        <ele>1034.1</ele>
        <time>2024-08-27T09:28:28Z</time>
      </trkpt>
      <trkpt lat="44.88805" lon="5.93092">
        <ele>1034.3</ele>
        <time>2024-08-27T09:28:29Z</time>
      </trkpt>
      <trkpt lat="44.88807" lon="5.93091">
        <ele>1034.5</ele>
        <time>2024-08-27T09:28:30Z</time>
      </trkpt>
      <trkpt lat="44.88808" lon="5.93091">
        <ele>1034.7</ele>
        <time>2024-08-27T09:28:31Z</time>
      </trkpt>
      <trkpt lat="44.8881" lon="5.9309">
        <ele>1034.9</ele>
        <time>2024-08-27T09:28:32Z</time>
      </trkpt>
      <trkpt lat="44.88811" lon="5.93089">
        <ele>1035.1</ele>
        <time>2024-08-27T09:28:33Z</time>
      </trkpt>
      <trkpt lat="44.88813" lon="5.93089">
        <ele>1035.3</ele>
        <time>2024-08-27T09:28:34Z</time>
      </trkpt>
      <trkpt lat="44.88816" lon="5.93088">
        <ele>1035.7</ele>
        <time>2024-08-27T09:28:35Z</time>
      </trkpt>
      <trkpt lat="44.88817" lon="5.93087">
        <ele>1035.8</ele>
        <time>2024-08-27T09:28:36Z</time>
      </trkpt>
      <trkpt lat="44.88818" lon="5.93087">
        <ele>1036.1</ele>
        <time>2024-08-27T09:28:37Z</time>
      </trkpt>
      <trkpt lat="44.8882" lon="5.93086">
        <ele>1036.3</ele>
        <time>2024-08-27T09:28:38Z</time>
      </trkpt>
      <trkpt lat="44.88822" lon="5.93085">
        <ele>1036.5</ele>
        <time>2024-08-27T09:28:39Z</time>
      </trkpt>
      <trkpt lat="44.88823" lon="5.93084">
        <ele>1036.7</ele>
        <time>2024-08-27T09:28:40Z</time>
      </trkpt>
      <trkpt lat="44.88824" lon="5.93084">
        <ele>1036.9</ele>
        <time>2024-08-27T09:28:41Z</time>
      </trkpt>
      <trkpt lat="44.88826" lon="5.93083">
        <ele>1037.1</ele>
        <time>2024-08-27T09:28:42Z</time>
      </trkpt>
      <trkpt lat="44.88827" lon="5.93082">
        <ele>1037.3</ele>
        <time>2024-08-27T09:28:43Z</time>
      </trkpt>
      <trkpt lat="44.88829" lon="5.9308">
        <ele>1037.5</ele>
        <time>2024-08-27T09:28:44Z</time>
      </trkpt>
      <trkpt lat="44.8883" lon="5.93079">
        <ele>1037.8</ele>
        <time>2024-08-27T09:28:45Z</time>
      </trkpt>
      <trkpt lat="44.88832" lon="5.93078">
        <ele>1038</ele>
        <time>2024-08-27T09:28:46Z</time>
      </trkpt>
      <trkpt lat="44.88833" lon="5.93077">
        <ele>1038.2</ele>
        <time>2024-08-27T09:28:47Z</time>
      </trkpt>
      <trkpt lat="44.88835" lon="5.93076">
        <ele>1038.5</ele>
        <time>2024-08-27T09:28:48Z</time>
      </trkpt>
      <trkpt lat="44.88836" lon="5.93075">
        <ele>1038.7</ele>
        <time>2024-08-27T09:28:49Z</time>
      </trkpt>
      <trkpt lat="44.88837" lon="5.93074">
        <ele>1038.9</ele>
        <time>2024-08-27T09:28:50Z</time>
      </trkpt>
      <trkpt lat="44.88839" lon="5.93073">
        <ele>1039.1</ele>
        <time>2024-08-27T09:28:51Z</time>
      </trkpt>
      <trkpt lat="44.8884" lon="5.93071">
        <ele>1039.4</ele>
        <time>2024-08-27T09:28:52Z</time>
      </trkpt>
      <trkpt lat="44.88842" lon="5.9307">
        <ele>1039.6</ele>
        <time>2024-08-27T09:28:53Z</time>
      </trkpt>
      <trkpt lat="44.88843" lon="5.93069">
        <ele>1039.8</ele>
        <time>2024-08-27T09:28:54Z</time>
      </trkpt>
      <trkpt lat="44.88844" lon="5.93068">
        <ele>1040.1</ele>
        <time>2024-08-27T09:28:55Z</time>
      </trkpt>
      <trkpt lat="44.88846" lon="5.93066">
        <ele>1040.3</ele>
        <time>2024-08-27T09:28:56Z</time>
      </trkpt>
      <trkpt lat="44.88847" lon="5.93065">
        <ele>1040.5</ele>
        <time>2024-08-27T09:28:57Z</time>
      </trkpt>
      <trkpt lat="44.88849" lon="5.93064">
        <ele>1040.8</ele>
        <time>2024-08-27T09:28:58Z</time>
      </trkpt>
      <trkpt lat="44.8885" lon="5.93063">
        <ele>1041</ele>
        <time>2024-08-27T09:28:59Z</time>
      </trkpt>
      <trkpt lat="44.88852" lon="5.93062">
        <ele>1041.3</ele>
        <time>2024-08-27T09:29:00Z</time>
      </trkpt>
      <trkpt lat="44.88853" lon="5.93061">
        <ele>1041.5</ele>
        <time>2024-08-27T09:29:01Z</time>
      </trkpt>
      <trkpt lat="44.88854" lon="5.9306">
        <ele>1041.7</ele>
        <time>2024-08-27T09:29:02Z</time>
      </trkpt>
      <trkpt lat="44.88856" lon="5.93059">
        <ele>1042</ele>
        <time>2024-08-27T09:29:03Z</time>
      </trkpt>
      <trkpt lat="44.88857" lon="5.93058">
        <ele>1042.2</ele>
        <time>2024-08-27T09:29:04Z</time>
      </trkpt>
      <trkpt lat="44.88859" lon="5.93057">
        <ele>1042.5</ele>
        <time>2024-08-27T09:29:05Z</time>
      </trkpt>
      <trkpt lat="44.8886" lon="5.93055">
        <ele>1042.7</ele>
        <time>2024-08-27T09:29:06Z</time>
      </trkpt>
      <trkpt lat="44.88862" lon="5.93055">
        <ele>1043</ele>
        <time>2024-08-27T09:29:07Z</time>
      </trkpt>
      <trkpt lat="44.88863" lon="5.93054">
        <ele>1043.2</ele>
        <time>2024-08-27T09:29:08Z</time>
      </trkpt>
      <trkpt lat="44.88865" lon="5.93053">
        <ele>1043.4</ele>
        <time>2024-08-27T09:29:09Z</time>
      </trkpt>
      <trkpt lat="44.88867" lon="5.93052">
        <ele>1043.7</ele>
        <time>2024-08-27T09:29:10Z</time>
      </trkpt>
      <trkpt lat="44.88868" lon="5.93051">
        <ele>1043.9</ele>
        <time>2024-08-27T09:29:11Z</time>
      </trkpt>
      <trkpt lat="44.8887" lon="5.93051">
        <ele>1044.2</ele>
        <time>2024-08-27T09:29:12Z</time>
      </trkpt>
      <trkpt lat="44.88871" lon="5.93051">
        <ele>1044.4</ele>
        <time>2024-08-27T09:29:13Z</time>
      </trkpt>
      <trkpt lat="44.88873" lon="5.93052">
        <ele>1044.7</ele>
        <time>2024-08-27T09:29:14Z</time>
      </trkpt>
      <trkpt lat="44.88876" lon="5.93053">
        <ele>1045</ele>
        <time>2024-08-27T09:29:15Z</time>
      </trkpt>
      <trkpt lat="44.88877" lon="5.93053">
        <ele>1045.2</ele>
        <time>2024-08-27T09:29:16Z</time>
      </trkpt>
      <trkpt lat="44.88879" lon="5.93054">
        <ele>1045.6</ele>
        <time>2024-08-27T09:29:17Z</time>
      </trkpt>
      <trkpt lat="44.8888" lon="5.93055">
        <ele>1045.7</ele>
        <time>2024-08-27T09:29:18Z</time>
      </trkpt>
      <trkpt lat="44.88882" lon="5.93057">
        <ele>1046.1</ele>
        <time>2024-08-27T09:29:19Z</time>
      </trkpt>
      <trkpt lat="44.88883" lon="5.93058">
        <ele>1046.3</ele>
        <time>2024-08-27T09:29:20Z</time>
      </trkpt>
      <trkpt lat="44.88884" lon="5.9306">
        <ele>1046.5</ele>
        <time>2024-08-27T09:29:21Z</time>
      </trkpt>
      <trkpt lat="44.88886" lon="5.93061">
        <ele>1046.8</ele>
        <time>2024-08-27T09:29:22Z</time>
      </trkpt>
      <trkpt lat="44.88887" lon="5.93063">
        <ele>1047</ele>
        <time>2024-08-27T09:29:23Z</time>
      </trkpt>
      <trkpt lat="44.88888" lon="5.93065">
        <ele>1047.2</ele>
        <time>2024-08-27T09:29:24Z</time>
      </trkpt>
      <trkpt lat="44.88889" lon="5.93066">
        <ele>1047.5</ele>
        <time>2024-08-27T09:29:25Z</time>
      </trkpt>
      <trkpt lat="44.8889" lon="5.93068">
        <ele>1047.7</ele>
        <time>2024-08-27T09:29:26Z</time>
      </trkpt>
      <trkpt lat="44.88891" lon="5.9307">
        <ele>1047.9</ele>
        <time>2024-08-27T09:29:27Z</time>
      </trkpt>
      <trkpt lat="44.88892" lon="5.93072">
        <ele>1048.1</ele>
        <time>2024-08-27T09:29:28Z</time>
      </trkpt>
      <trkpt lat="44.88893" lon="5.93074">
        <ele>1048.3</ele>
        <time>2024-08-27T09:29:29Z</time>
      </trkpt>
      <trkpt lat="44.88894" lon="5.93076">
        <ele>1048.6</ele>
        <time>2024-08-27T09:29:30Z</time>
      </trkpt>
      <trkpt lat="44.88895" lon="5.93078">
        <ele>1048.8</ele>
        <time>2024-08-27T09:29:31Z</time>
      </trkpt>
      <trkpt lat="44.88895" lon="5.9308">
        <ele>1049</ele>
        <time>2024-08-27T09:29:32Z</time>
      </trkpt>
      <trkpt lat="44.88896" lon="5.93082">
        <ele>1049.2</ele>
        <time>2024-08-27T09:29:33Z</time>
      </trkpt>
      <trkpt lat="44.88897" lon="5.93084">
        <ele>1049.4</ele>
        <time>2024-08-27T09:29:34Z</time>
      </trkpt>
      <trkpt lat="44.88898" lon="5.93086">
        <ele>1049.6</ele>
        <time>2024-08-27T09:29:35Z</time>
      </trkpt>
      <trkpt lat="44.88899" lon="5.93087">
        <ele>1049.8</ele>
        <time>2024-08-27T09:29:36Z</time>
      </trkpt>
      <trkpt lat="44.889" lon="5.93089">
        <ele>1050</ele>
        <time>2024-08-27T09:29:37Z</time>
      </trkpt>
      <trkpt lat="44.88901" lon="5.93091">
        <ele>1050.2</ele>
        <time>2024-08-27T09:29:38Z</time>
      </trkpt>
      <trkpt lat="44.88902" lon="5.93093">
        <ele>1050.4</ele>
        <time>2024-08-27T09:29:39Z</time>
      </trkpt>
      <trkpt lat="44.88903" lon="5.93095">
        <ele>1050.6</ele>
        <time>2024-08-27T09:29:40Z</time>
      </trkpt>
      <trkpt lat="44.88904" lon="5.93097">
        <ele>1050.8</ele>
        <time>2024-08-27T09:29:41Z</time>
      </trkpt>
      <trkpt lat="44.88905" lon="5.93099">
        <ele>1051</ele>
        <time>2024-08-27T09:29:42Z</time>
      </trkpt>
      <trkpt lat="44.88906" lon="5.931">
        <ele>1051.2</ele>
        <time>2024-08-27T09:29:43Z</time>
      </trkpt>
      <trkpt lat="44.88907" lon="5.93102">
        <ele>1051.4</ele>
        <time>2024-08-27T09:29:44Z</time>
      </trkpt>
      <trkpt lat="44.88908" lon="5.93104">
        <ele>1051.6</ele>
        <time>2024-08-27T09:29:45Z</time>
      </trkpt>
      <trkpt lat="44.88909" lon="5.93105">
        <ele>1051.8</ele>
        <time>2024-08-27T09:29:46Z</time>
      </trkpt>
      <trkpt lat="44.8891" lon="5.93106">
        <ele>1051.9</ele>
        <time>2024-08-27T09:29:47Z</time>
      </trkpt>
      <trkpt lat="44.88911" lon="5.93108">
        <ele>1052.1</ele>
        <time>2024-08-27T09:29:48Z</time>
      </trkpt>
      <trkpt lat="44.88913" lon="5.93109">
        <ele>1052.3</ele>
        <time>2024-08-27T09:29:49Z</time>
      </trkpt>
      <trkpt lat="44.88914" lon="5.9311">
        <ele>1052.5</ele>
        <time>2024-08-27T09:29:50Z</time>
      </trkpt>
      <trkpt lat="44.88916" lon="5.93111">
        <ele>1052.7</ele>
        <time>2024-08-27T09:29:51Z</time>
      </trkpt>
      <trkpt lat="44.88917" lon="5.93113">
        <ele>1052.9</ele>
        <time>2024-08-27T09:29:52Z</time>
      </trkpt>
      <trkpt lat="44.88918" lon="5.93114">
        <ele>1053.1</ele>
        <time>2024-08-27T09:29:53Z</time>
      </trkpt>
      <trkpt lat="44.88919" lon="5.93115">
        <ele>1053.2</ele>
        <time>2024-08-27T09:29:54Z</time>
      </trkpt>
      <trkpt lat="44.8892" lon="5.93117">
        <ele>1053.4</ele>
        <time>2024-08-27T09:29:55Z</time>
      </trkpt>
      <trkpt lat="44.88921" lon="5.93118">
        <ele>1053.6</ele>
        <time>2024-08-27T09:29:56Z</time>
      </trkpt>
      <trkpt lat="44.88922" lon="5.9312">
        <ele>1053.8</ele>
        <time>2024-08-27T09:29:57Z</time>
      </trkpt>
      <trkpt lat="44.88923" lon="5.93121">
        <ele>1054</ele>
        <time>2024-08-27T09:29:58Z</time>
      </trkpt>
      <trkpt lat="44.88924" lon="5.93123">
        <ele>1054.1</ele>
        <time>2024-08-27T09:29:59Z</time>
      </trkpt>
      <trkpt lat="44.88926" lon="5.93124">
        <ele>1054.3</ele>
        <time>2024-08-27T09:30:00Z</time>
      </trkpt>
      <trkpt lat="44.88927" lon="5.93125">
        <ele>1054.5</ele>
        <time>2024-08-27T09:30:01Z</time>
      </trkpt>
      <trkpt lat="44.88928" lon="5.93127">
        <ele>1054.7</ele>
        <time>2024-08-27T09:30:02Z</time>
      </trkpt>
      <trkpt lat="44.8893" lon="5.93128">
        <ele>1054.9</ele>
        <time>2024-08-27T09:30:03Z</time>
      </trkpt>
      <trkpt lat="44.88931" lon="5.9313">
        <ele>1055.2</ele>
        <time>2024-08-27T09:30:04Z</time>
      </trkpt>
      <trkpt lat="44.88932" lon="5.93131">
        <ele>1055.4</ele>
        <time>2024-08-27T09:30:05Z</time>
      </trkpt>
      <trkpt lat="44.88933" lon="5.93133">
        <ele>1055.6</ele>
        <time>2024-08-27T09:30:06Z</time>
      </trkpt>
      <trkpt lat="44.88934" lon="5.93134">
        <ele>1055.8</ele>
        <time>2024-08-27T09:30:07Z</time>
      </trkpt>
      <trkpt lat="44.88935" lon="5.93136">
        <ele>1056</ele>
        <time>2024-08-27T09:30:08Z</time>
      </trkpt>
      <trkpt lat="44.88936" lon="5.93138">
        <ele>1056.2</ele>
        <time>2024-08-27T09:30:09Z</time>
      </trkpt>
      <trkpt lat="44.88937" lon="5.93139">
        <ele>1056.4</ele>
        <time>2024-08-27T09:30:10Z</time>
      </trkpt>
      <trkpt lat="44.88938" lon="5.93141">
        <ele>1056.6</ele>
        <time>2024-08-27T09:30:11Z</time>
      </trkpt>
      <trkpt lat="44.88939" lon="5.93142">
        <ele>1056.8</ele>
        <time>2024-08-27T09:30:12Z</time>
      </trkpt>
      <trkpt lat="44.88941" lon="5.93144">
        <ele>1057</ele>
        <time>2024-08-27T09:30:13Z</time>
      </trkpt>
      <trkpt lat="44.88942" lon="5.93145">
        <ele>1057.2</ele>
        <time>2024-08-27T09:30:14Z</time>
      </trkpt>
      <trkpt lat="44.88943" lon="5.93147">
        <ele>1057.5</ele>
        <time>2024-08-27T09:30:15Z</time>
      </trkpt>
      <trkpt lat="44.88944" lon="5.93149">
        <ele>1057.7</ele>
        <time>2024-08-27T09:30:16Z</time>
      </trkpt>
      <trkpt lat="44.88945" lon="5.93151">
        <ele>1057.9</ele>
        <time>2024-08-27T09:30:17Z</time>
      </trkpt>
      <trkpt lat="44.88946" lon="5.93153">
        <ele>1058.1</ele>
        <time>2024-08-27T09:30:18Z</time>
      </trkpt>
      <trkpt lat="44.88947" lon="5.93155">
        <ele>1058.3</ele>
        <time>2024-08-27T09:30:19Z</time>
      </trkpt>
      <trkpt lat="44.88947" lon="5.93157">
        <ele>1058.6</ele>
        <time>2024-08-27T09:30:20Z</time>
      </trkpt>
      <trkpt lat="44.88948" lon="5.93159">
        <ele>1058.8</ele>
        <time>2024-08-27T09:30:21Z</time>
      </trkpt>
      <trkpt lat="44.88949" lon="5.93161">
        <ele>1059</ele>
        <time>2024-08-27T09:30:22Z</time>
      </trkpt>
      <trkpt lat="44.8895" lon="5.93162">
        <ele>1059.2</ele>
        <time>2024-08-27T09:30:23Z</time>
      </trkpt>
      <trkpt lat="44.88951" lon="5.93164">
        <ele>1059.4</ele>
        <time>2024-08-27T09:30:24Z</time>
      </trkpt>
      <trkpt lat="44.88952" lon="5.93166">
        <ele>1059.6</ele>
        <time>2024-08-27T09:30:25Z</time>
      </trkpt>
      <trkpt lat="44.88952" lon="5.93168">
        <ele>1059.8</ele>
        <time>2024-08-27T09:30:26Z</time>
      </trkpt>
      <trkpt lat="44.88952" lon="5.9317">
        <ele>1060</ele>
        <time>2024-08-27T09:30:27Z</time>
      </trkpt>
      <trkpt lat="44.88953" lon="5.93172">
        <ele>1060.2</ele>
        <time>2024-08-27T09:30:28Z</time>
      </trkpt>
      <trkpt lat="44.88953" lon="5.93174">
        <ele>1060.4</ele>
        <time>2024-08-27T09:30:29Z</time>
      </trkpt>
      <trkpt lat="44.88954" lon="5.93176">
        <ele>1060.6</ele>
        <time>2024-08-27T09:30:30Z</time>
      </trkpt>
      <trkpt lat="44.88954" lon="5.93178">
        <ele>1060.8</ele>
        <time>2024-08-27T09:30:31Z</time>
      </trkpt>
      <trkpt lat="44.88955" lon="5.9318">
        <ele>1061.1</ele>
        <time>2024-08-27T09:30:32Z</time>
      </trkpt>
      <trkpt lat="44.88956" lon="5.93182">
        <ele>1061.3</ele>
        <time>2024-08-27T09:30:33Z</time>
      </trkpt>
      <trkpt lat="44.88956" lon="5.93184">
        <ele>1061.5</ele>
        <time>2024-08-27T09:30:34Z</time>
      </trkpt>
      <trkpt lat="44.88956" lon="5.93186">
        <ele>1061.7</ele>
        <time>2024-08-27T09:30:35Z</time>
      </trkpt>
      <trkpt lat="44.88956" lon="5.93189">
        <ele>1062</ele>
        <time>2024-08-27T09:30:36Z</time>
      </trkpt>
      <trkpt lat="44.88957" lon="5.93191">
        <ele>1062.2</ele>
        <time>2024-08-27T09:30:37Z</time>
      </trkpt>
      <trkpt lat="44.88957" lon="5.93193">
        <ele>1062.4</ele>
        <time>2024-08-27T09:30:38Z</time>
      </trkpt>
      <trkpt lat="44.88958" lon="5.93195">
        <ele>1062.6</ele>
        <time>2024-08-27T09:30:39Z</time>
      </trkpt>
      <trkpt lat="44.88958" lon="5.93197">
        <ele>1062.8</ele>
        <time>2024-08-27T09:30:40Z</time>
      </trkpt>
      <trkpt lat="44.88958" lon="5.93199">
        <ele>1063</ele>
        <time>2024-08-27T09:30:41Z</time>
      </trkpt>
      <trkpt lat="44.88958" lon="5.93201">
        <ele>1063.2</ele>
        <time>2024-08-27T09:30:42Z</time>
      </trkpt>
      <trkpt lat="44.88958" lon="5.93203">
        <ele>1063.4</ele>
        <time>2024-08-27T09:30:43Z</time>
      </trkpt>
      <trkpt lat="44.88958" lon="5.93206">
        <ele>1063.6</ele>
        <time>2024-08-27T09:30:44Z</time>
      </trkpt>
      <trkpt lat="44.88959" lon="5.93208">
        <ele>1063.8</ele>
        <time>2024-08-27T09:30:45Z</time>
      </trkpt>
      <trkpt lat="44.88959" lon="5.9321">
        <ele>1064</ele>
        <time>2024-08-27T09:30:46Z</time>
      </trkpt>
      <trkpt lat="44.88959" lon="5.93212">
        <ele>1064.1</ele>
        <time>2024-08-27T09:30:47Z</time>
      </trkpt>
      <trkpt lat="44.88959" lon="5.93214">
        <ele>1064.4</ele>
        <time>2024-08-27T09:30:48Z</time>
      </trkpt>
      <trkpt lat="44.88959" lon="5.93216">
        <ele>1064.6</ele>
        <time>2024-08-27T09:30:49Z</time>
      </trkpt>
      <trkpt lat="44.88959" lon="5.93219">
        <ele>1064.7</ele>
        <time>2024-08-27T09:30:50Z</time>
      </trkpt>
      <trkpt lat="44.88959" lon="5.93221">
        <ele>1065</ele>
        <time>2024-08-27T09:30:51Z</time>
      </trkpt>
      <trkpt lat="44.88959" lon="5.93223">
        <ele>1065.2</ele>
        <time>2024-08-27T09:30:52Z</time>
      </trkpt>
      <trkpt lat="44.88959" lon="5.93226">
        <ele>1065.4</ele>
        <time>2024-08-27T09:30:53Z</time>
      </trkpt>
      <trkpt lat="44.88958" lon="5.93228">
        <ele>1065.6</ele>
        <time>2024-08-27T09:30:54Z</time>
      </trkpt>
      <trkpt lat="44.88958" lon="5.9323">
        <ele>1065.8</ele>
        <time>2024-08-27T09:30:55Z</time>
      </trkpt>
      <trkpt lat="44.88958" lon="5.93232">
        <ele>1066</ele>
        <time>2024-08-27T09:30:56Z</time>
      </trkpt>
      <trkpt lat="44.88958" lon="5.93235">
        <ele>1066.2</ele>
        <time>2024-08-27T09:30:57Z</time>
      </trkpt>
      <trkpt lat="44.88958" lon="5.93237">
        <ele>1066.4</ele>
        <time>2024-08-27T09:30:58Z</time>
      </trkpt>
      <trkpt lat="44.88958" lon="5.93239">
        <ele>1066.6</ele>
        <time>2024-08-27T09:30:59Z</time>
      </trkpt>
      <trkpt lat="44.88957" lon="5.93241">
        <ele>1066.8</ele>
        <time>2024-08-27T09:31:00Z</time>
      </trkpt>
      <trkpt lat="44.88956" lon="5.93243">
        <ele>1067</ele>
        <time>2024-08-27T09:31:01Z</time>
      </trkpt>
      <trkpt lat="44.88956" lon="5.93245">
        <ele>1067.2</ele>
        <time>2024-08-27T09:31:02Z</time>
      </trkpt>
      <trkpt lat="44.88955" lon="5.93247">
        <ele>1067.4</ele>
        <time>2024-08-27T09:31:03Z</time>
      </trkpt>
      <trkpt lat="44.88955" lon="5.93249">
        <ele>1067.7</ele>
        <time>2024-08-27T09:31:04Z</time>
      </trkpt>
      <trkpt lat="44.88955" lon="5.93252">
        <ele>1067.9</ele>
        <time>2024-08-27T09:31:05Z</time>
      </trkpt>
      <trkpt lat="44.88955" lon="5.93254">
        <ele>1068.1</ele>
        <time>2024-08-27T09:31:06Z</time>
      </trkpt>
      <trkpt lat="44.88955" lon="5.93256">
        <ele>1068.3</ele>
        <time>2024-08-27T09:31:07Z</time>
      </trkpt>
      <trkpt lat="44.88954" lon="5.93258">
        <ele>1068.6</ele>
        <time>2024-08-27T09:31:08Z</time>
      </trkpt>
      <trkpt lat="44.88954" lon="5.9326">
        <ele>1068.8</ele>
        <time>2024-08-27T09:31:09Z</time>
      </trkpt>
      <trkpt lat="44.88953" lon="5.93262">
        <ele>1069</ele>
        <time>2024-08-27T09:31:10Z</time>
      </trkpt>
      <trkpt lat="44.88952" lon="5.93265">
        <ele>1069.2</ele>
        <time>2024-08-27T09:31:11Z</time>
      </trkpt>
      <trkpt lat="44.88951" lon="5.93267">
        <ele>1069.5</ele>
        <time>2024-08-27T09:31:12Z</time>
      </trkpt>
      <trkpt lat="44.88951" lon="5.93269">
        <ele>1069.7</ele>
        <time>2024-08-27T09:31:13Z</time>
      </trkpt>
      <trkpt lat="44.8895" lon="5.93271">
        <ele>1069.9</ele>
        <time>2024-08-27T09:31:14Z</time>
      </trkpt>
      <trkpt lat="44.8895" lon="5.93273">
        <ele>1070.2</ele>
        <time>2024-08-27T09:31:15Z</time>
      </trkpt>
      <trkpt lat="44.88949" lon="5.93275">
        <ele>1070.4</ele>
        <time>2024-08-27T09:31:16Z</time>
      </trkpt>
      <trkpt lat="44.88949" lon="5.93277">
        <ele>1070.6</ele>
        <time>2024-08-27T09:31:17Z</time>
      </trkpt>
      <trkpt lat="44.88949" lon="5.9328">
        <ele>1070.9</ele>
        <time>2024-08-27T09:31:18Z</time>
      </trkpt>
      <trkpt lat="44.88948" lon="5.93282">
        <ele>1071.1</ele>
        <time>2024-08-27T09:31:19Z</time>
      </trkpt>
      <trkpt lat="44.88948" lon="5.93284">
        <ele>1071.3</ele>
        <time>2024-08-27T09:31:20Z</time>
      </trkpt>
      <trkpt lat="44.88948" lon="5.93286">
        <ele>1071.6</ele>
        <time>2024-08-27T09:31:21Z</time>
      </trkpt>
      <trkpt lat="44.88948" lon="5.93289">
        <ele>1071.8</ele>
        <time>2024-08-27T09:31:22Z</time>
      </trkpt>
      <trkpt lat="44.88948" lon="5.93291">
        <ele>1072</ele>
        <time>2024-08-27T09:31:23Z</time>
      </trkpt>
      <trkpt lat="44.88949" lon="5.93293">
        <ele>1072.2</ele>
        <time>2024-08-27T09:31:24Z</time>
      </trkpt>
      <trkpt lat="44.88949" lon="5.93295">
        <ele>1072.5</ele>
        <time>2024-08-27T09:31:25Z</time>
      </trkpt>
      <trkpt lat="44.8895" lon="5.93297">
        <ele>1072.7</ele>
        <time>2024-08-27T09:31:26Z</time>
      </trkpt>
      <trkpt lat="44.8895" lon="5.933">
        <ele>1072.9</ele>
        <time>2024-08-27T09:31:27Z</time>
      </trkpt>
      <trkpt lat="44.8895" lon="5.93302">
        <ele>1073.1</ele>
        <time>2024-08-27T09:31:28Z</time>
      </trkpt>
      <trkpt lat="44.88951" lon="5.93304">
        <ele>1073.3</ele>
        <time>2024-08-27T09:31:29Z</time>
      </trkpt>
      <trkpt lat="44.88951" lon="5.93306">
        <ele>1073.5</ele>
        <time>2024-08-27T09:31:30Z</time>
      </trkpt>
      <trkpt lat="44.88952" lon="5.93309">
        <ele>1073.8</ele>
        <time>2024-08-27T09:31:31Z</time>
      </trkpt>
      <trkpt lat="44.88952" lon="5.9331">
        <ele>1073.9</ele>
        <time>2024-08-27T09:31:32Z</time>
      </trkpt>
      <trkpt lat="44.88952" lon="5.93312">
        <ele>1074</ele>
        <time>2024-08-27T09:31:33Z</time>
      </trkpt>
      <trkpt lat="44.88953" lon="5.93314">
        <ele>1074.2</ele>
        <time>2024-08-27T09:31:34Z</time>
      </trkpt>
      <trkpt lat="44.88953" lon="5.93316">
        <ele>1074.4</ele>
        <time>2024-08-27T09:31:35Z</time>
      </trkpt>
      <trkpt lat="44.88954" lon="5.93318">
        <ele>1074.6</ele>
        <time>2024-08-27T09:31:36Z</time>
      </trkpt>
      <trkpt lat="44.88954" lon="5.93321">
        <ele>1074.8</ele>
        <time>2024-08-27T09:31:37Z</time>
      </trkpt>
      <trkpt lat="44.88954" lon="5.93323">
        <ele>1075</ele>
        <time>2024-08-27T09:31:38Z</time>
      </trkpt>
      <trkpt lat="44.88954" lon="5.93326">
        <ele>1075.2</ele>
        <time>2024-08-27T09:31:39Z</time>
      </trkpt>
      <trkpt lat="44.88955" lon="5.93328">
        <ele>1075.5</ele>
        <time>2024-08-27T09:31:40Z</time>
      </trkpt>
      <trkpt lat="44.88955" lon="5.9333">
        <ele>1075.6</ele>
        <time>2024-08-27T09:31:41Z</time>
      </trkpt>
      <trkpt lat="44.88956" lon="5.93332">
        <ele>1075.8</ele>
        <time>2024-08-27T09:31:42Z</time>
      </trkpt>
      <trkpt lat="44.88956" lon="5.93334">
        <ele>1076</ele>
        <time>2024-08-27T09:31:43Z</time>
      </trkpt>
      <trkpt lat="44.88957" lon="5.93336">
        <ele>1076.2</ele>
        <time>2024-08-27T09:31:44Z</time>
      </trkpt>
      <trkpt lat="44.88958" lon="5.93338">
        <ele>1076.4</ele>
        <time>2024-08-27T09:31:45Z</time>
      </trkpt>
      <trkpt lat="44.88958" lon="5.9334">
        <ele>1076.6</ele>
        <time>2024-08-27T09:31:46Z</time>
      </trkpt>
      <trkpt lat="44.88959" lon="5.93342">
        <ele>1076.8</ele>
        <time>2024-08-27T09:31:47Z</time>
      </trkpt>
      <trkpt lat="44.88959" lon="5.93345">
        <ele>1077</ele>
        <time>2024-08-27T09:31:48Z</time>
      </trkpt>
      <trkpt lat="44.88959" lon="5.93347">
        <ele>1077.2</ele>
        <time>2024-08-27T09:31:49Z</time>
      </trkpt>
      <trkpt lat="44.8896" lon="5.9335">
        <ele>1077.4</ele>
        <time>2024-08-27T09:31:50Z</time>
      </trkpt>
      <trkpt lat="44.8896" lon="5.93352">
        <ele>1077.6</ele>
        <time>2024-08-27T09:31:51Z</time>
      </trkpt>
      <trkpt lat="44.88961" lon="5.93354">
        <ele>1077.8</ele>
        <time>2024-08-27T09:31:52Z</time>
      </trkpt>
      <trkpt lat="44.88961" lon="5.93356">
        <ele>1078</ele>
        <time>2024-08-27T09:31:53Z</time>
      </trkpt>
      <trkpt lat="44.88962" lon="5.93358">
        <ele>1078.2</ele>
        <time>2024-08-27T09:31:54Z</time>
      </trkpt>
      <trkpt lat="44.88962" lon="5.9336">
        <ele>1078.4</ele>
        <time>2024-08-27T09:31:55Z</time>
      </trkpt>
      <trkpt lat="44.88963" lon="5.93362">
        <ele>1078.5</ele>
        <time>2024-08-27T09:31:56Z</time>
      </trkpt>
      <trkpt lat="44.88963" lon="5.93365">
        <ele>1078.7</ele>
        <time>2024-08-27T09:31:57Z</time>
      </trkpt>
      <trkpt lat="44.88963" lon="5.93367">
        <ele>1078.9</ele>
        <time>2024-08-27T09:31:58Z</time>
      </trkpt>
      <trkpt lat="44.88963" lon="5.93369">
        <ele>1079.1</ele>
        <time>2024-08-27T09:31:59Z</time>
      </trkpt>
      <trkpt lat="44.88963" lon="5.93373">
        <ele>1079.4</ele>
        <time>2024-08-27T09:32:00Z</time>
      </trkpt>
      <trkpt lat="44.88963" lon="5.93374">
        <ele>1079.5</ele>
        <time>2024-08-27T09:32:01Z</time>
      </trkpt>
      <trkpt lat="44.88963" lon="5.93377">
        <ele>1079.7</ele>
        <time>2024-08-27T09:32:02Z</time>
      </trkpt>
      <trkpt lat="44.88963" lon="5.93379">
        <ele>1079.9</ele>
        <time>2024-08-27T09:32:03Z</time>
      </trkpt>
      <trkpt lat="44.88963" lon="5.93382">
        <ele>1080.1</ele>
        <time>2024-08-27T09:32:04Z</time>
      </trkpt>
      <trkpt lat="44.88963" lon="5.93384">
        <ele>1080.3</ele>
        <time>2024-08-27T09:32:05Z</time>
      </trkpt>
      <trkpt lat="44.88962" lon="5.93388">
        <ele>1080.7</ele>
        <time>2024-08-27T09:32:06Z</time>
      </trkpt>
      <trkpt lat="44.88962" lon="5.93389">
        <ele>1080.8</ele>
        <time>2024-08-27T09:32:07Z</time>
      </trkpt>
      <trkpt lat="44.88961" lon="5.93392">
        <ele>1081</ele>
        <time>2024-08-27T09:32:08Z</time>
      </trkpt>
      <trkpt lat="44.8896" lon="5.93394">
        <ele>1081.1</ele>
        <time>2024-08-27T09:32:09Z</time>
      </trkpt>
      <trkpt lat="44.8896" lon="5.93396">
        <ele>1081.3</ele>
        <time>2024-08-27T09:32:10Z</time>
      </trkpt>
      <trkpt lat="44.88959" lon="5.93398">
        <ele>1081.5</ele>
        <time>2024-08-27T09:32:11Z</time>
      </trkpt>
      <trkpt lat="44.88958" lon="5.93402">
        <ele>1081.8</ele>
        <time>2024-08-27T09:32:12Z</time>
      </trkpt>
      <trkpt lat="44.88957" lon="5.93403">
        <ele>1081.9</ele>
        <time>2024-08-27T09:32:13Z</time>
      </trkpt>
      <trkpt lat="44.88956" lon="5.93405">
        <ele>1082.1</ele>
        <time>2024-08-27T09:32:14Z</time>
      </trkpt>
      <trkpt lat="44.88955" lon="5.93407">
        <ele>1082.2</ele>
        <time>2024-08-27T09:32:15Z</time>
      </trkpt>
      <trkpt lat="44.88955" lon="5.93409">
        <ele>1082.4</ele>
        <time>2024-08-27T09:32:16Z</time>
      </trkpt>
      <trkpt lat="44.88954" lon="5.93411">
        <ele>1082.6</ele>
        <time>2024-08-27T09:32:17Z</time>
      </trkpt>
      <trkpt lat="44.88952" lon="5.93414">
        <ele>1082.9</ele>
        <time>2024-08-27T09:32:18Z</time>
      </trkpt>
      <trkpt lat="44.88951" lon="5.93415">
        <ele>1083</ele>
        <time>2024-08-27T09:32:19Z</time>
      </trkpt>
      <trkpt lat="44.88951" lon="5.93417">
        <ele>1083.1</ele>
        <time>2024-08-27T09:32:20Z</time>
      </trkpt>
      <trkpt lat="44.8895" lon="5.93419">
        <ele>1083.3</ele>
        <time>2024-08-27T09:32:21Z</time>
      </trkpt>
      <trkpt lat="44.88949" lon="5.93421">
        <ele>1083.5</ele>
        <time>2024-08-27T09:32:22Z</time>
      </trkpt>
      <trkpt lat="44.88948" lon="5.93423">
        <ele>1083.7</ele>
        <time>2024-08-27T09:32:23Z</time>
      </trkpt>
      <trkpt lat="44.88947" lon="5.93425">
        <ele>1083.9</ele>
        <time>2024-08-27T09:32:24Z</time>
      </trkpt>
      <trkpt lat="44.88946" lon="5.93427">
        <ele>1084</ele>
        <time>2024-08-27T09:32:25Z</time>
      </trkpt>
      <trkpt lat="44.88944" lon="5.9343">
        <ele>1084.3</ele>
        <time>2024-08-27T09:32:26Z</time>
      </trkpt>
      <trkpt lat="44.88944" lon="5.93431">
        <ele>1084.5</ele>
        <time>2024-08-27T09:32:27Z</time>
      </trkpt>
      <trkpt lat="44.88943" lon="5.93434">
        <ele>1084.7</ele>
        <time>2024-08-27T09:32:28Z</time>
      </trkpt>
      <trkpt lat="44.88942" lon="5.93436">
        <ele>1084.9</ele>
        <time>2024-08-27T09:32:29Z</time>
      </trkpt>
      <trkpt lat="44.88942" lon="5.93438">
        <ele>1085</ele>
        <time>2024-08-27T09:32:30Z</time>
      </trkpt>
      <trkpt lat="44.88941" lon="5.9344">
        <ele>1085.2</ele>
        <time>2024-08-27T09:32:31Z</time>
      </trkpt>
      <trkpt lat="44.88941" lon="5.93443">
        <ele>1085.4</ele>
        <time>2024-08-27T09:32:32Z</time>
      </trkpt>
      <trkpt lat="44.88941" lon="5.93445">
        <ele>1085.6</ele>
        <time>2024-08-27T09:32:33Z</time>
      </trkpt>
      <trkpt lat="44.88941" lon="5.93447">
        <ele>1085.8</ele>
        <time>2024-08-27T09:32:34Z</time>
      </trkpt>
      <trkpt lat="44.88941" lon="5.93449">
        <ele>1086</ele>
        <time>2024-08-27T09:32:35Z</time>
      </trkpt>
      <trkpt lat="44.88942" lon="5.93452">
        <ele>1086.2</ele>
        <time>2024-08-27T09:32:36Z</time>
      </trkpt>
      <trkpt lat="44.88942" lon="5.93454">
        <ele>1086.4</ele>
        <time>2024-08-27T09:32:37Z</time>
      </trkpt>
      <trkpt lat="44.88943" lon="5.93458">
        <ele>1086.7</ele>
        <time>2024-08-27T09:32:38Z</time>
      </trkpt>
      <trkpt lat="44.88943" lon="5.93459">
        <ele>1086.8</ele>
        <time>2024-08-27T09:32:39Z</time>
      </trkpt>
      <trkpt lat="44.88944" lon="5.93463">
        <ele>1087.1</ele>
        <time>2024-08-27T09:32:40Z</time>
      </trkpt>
      <trkpt lat="44.88944" lon="5.93465">
        <ele>1087.2</ele>
        <time>2024-08-27T09:32:41Z</time>
      </trkpt>
      <trkpt lat="44.88946" lon="5.93468">
        <ele>1087.6</ele>
        <time>2024-08-27T09:32:42Z</time>
      </trkpt>
      <trkpt lat="44.88946" lon="5.93469">
        <ele>1087.7</ele>
        <time>2024-08-27T09:32:43Z</time>
      </trkpt>
      <trkpt lat="44.88947" lon="5.93472">
        <ele>1087.9</ele>
        <time>2024-08-27T09:32:44Z</time>
      </trkpt>
      <trkpt lat="44.88948" lon="5.93474">
        <ele>1088.1</ele>
        <time>2024-08-27T09:32:45Z</time>
      </trkpt>
      <trkpt lat="44.88948" lon="5.93476">
        <ele>1088.2</ele>
        <time>2024-08-27T09:32:46Z</time>
      </trkpt>
      <trkpt lat="44.88949" lon="5.93478">
        <ele>1088.4</ele>
        <time>2024-08-27T09:32:47Z</time>
      </trkpt>
      <trkpt lat="44.8895" lon="5.9348">
        <ele>1088.6</ele>
        <time>2024-08-27T09:32:48Z</time>
      </trkpt>
      <trkpt lat="44.88951" lon="5.93481">
        <ele>1088.8</ele>
        <time>2024-08-27T09:32:49Z</time>
      </trkpt>
      <trkpt lat="44.88952" lon="5.93482">
        <ele>1088.9</ele>
        <time>2024-08-27T09:32:50Z</time>
      </trkpt>
      <trkpt lat="44.88954" lon="5.93483">
        <ele>1089.1</ele>
        <time>2024-08-27T09:32:51Z</time>
      </trkpt>
      <trkpt lat="44.88957" lon="5.93485">
        <ele>1089.4</ele>
        <time>2024-08-27T09:32:52Z</time>
      </trkpt>
      <trkpt lat="44.88957" lon="5.93486">
        <ele>1089.5</ele>
        <time>2024-08-27T09:32:53Z</time>
      </trkpt>
      <trkpt lat="44.88959" lon="5.93487">
        <ele>1089.7</ele>
        <time>2024-08-27T09:32:54Z</time>
      </trkpt>
      <trkpt lat="44.8896" lon="5.93489">
        <ele>1089.9</ele>
        <time>2024-08-27T09:32:55Z</time>
      </trkpt>
      <trkpt lat="44.88961" lon="5.9349">
        <ele>1090.1</ele>
        <time>2024-08-27T09:32:56Z</time>
      </trkpt>
      <trkpt lat="44.88963" lon="5.93492">
        <ele>1090.3</ele>
        <time>2024-08-27T09:32:57Z</time>
      </trkpt>
      <trkpt lat="44.88964" lon="5.93494">
        <ele>1090.4</ele>
        <time>2024-08-27T09:32:58Z</time>
      </trkpt>
      <trkpt lat="44.88965" lon="5.93495">
        <ele>1090.6</ele>
        <time>2024-08-27T09:32:59Z</time>
      </trkpt>
      <trkpt lat="44.88966" lon="5.93497">
        <ele>1090.8</ele>
        <time>2024-08-27T09:33:00Z</time>
      </trkpt>
      <trkpt lat="44.88967" lon="5.93499">
        <ele>1091</ele>
        <time>2024-08-27T09:33:01Z</time>
      </trkpt>
      <trkpt lat="44.88967" lon="5.93502">
        <ele>1091.2</ele>
        <time>2024-08-27T09:33:02Z</time>
      </trkpt>
      <trkpt lat="44.88968" lon="5.93504">
        <ele>1091.4</ele>
        <time>2024-08-27T09:33:03Z</time>
      </trkpt>
      <trkpt lat="44.88968" lon="5.93506">
        <ele>1091.6</ele>
        <time>2024-08-27T09:33:04Z</time>
      </trkpt>
      <trkpt lat="44.88968" lon="5.93508">
        <ele>1091.7</ele>
        <time>2024-08-27T09:33:05Z</time>
      </trkpt>
      <trkpt lat="44.88968" lon="5.93511">
        <ele>1091.9</ele>
        <time>2024-08-27T09:33:06Z</time>
      </trkpt>
      <trkpt lat="44.88968" lon="5.93513">
        <ele>1092.1</ele>
        <time>2024-08-27T09:33:07Z</time>
      </trkpt>
      <trkpt lat="44.88968" lon="5.93516">
        <ele>1092.3</ele>
        <time>2024-08-27T09:33:08Z</time>
      </trkpt>
      <trkpt lat="44.88968" lon="5.93518">
        <ele>1092.5</ele>
        <time>2024-08-27T09:33:09Z</time>
      </trkpt>
      <trkpt lat="44.88967" lon="5.93521">
        <ele>1092.7</ele>
        <time>2024-08-27T09:33:10Z</time>
      </trkpt>
      <trkpt lat="44.88967" lon="5.93523">
        <ele>1092.9</ele>
        <time>2024-08-27T09:33:11Z</time>
      </trkpt>
      <trkpt lat="44.88966" lon="5.93525">
        <ele>1093</ele>
        <time>2024-08-27T09:33:12Z</time>
      </trkpt>
      <trkpt lat="44.88966" lon="5.93527">
        <ele>1093.2</ele>
        <time>2024-08-27T09:33:13Z</time>
      </trkpt>
      <trkpt lat="44.88965" lon="5.9353">
        <ele>1093.4</ele>
        <time>2024-08-27T09:33:14Z</time>
      </trkpt>
      <trkpt lat="44.88965" lon="5.93532">
        <ele>1093.6</ele>
        <time>2024-08-27T09:33:15Z</time>
      </trkpt>
      <trkpt lat="44.88965" lon="5.93534">
        <ele>1093.8</ele>
        <time>2024-08-27T09:33:16Z</time>
      </trkpt>
      <trkpt lat="44.88964" lon="5.93536">
        <ele>1093.9</ele>
        <time>2024-08-27T09:33:17Z</time>
      </trkpt>
      <trkpt lat="44.88963" lon="5.9354">
        <ele>1094.2</ele>
        <time>2024-08-27T09:33:18Z</time>
      </trkpt>
      <trkpt lat="44.88963" lon="5.93541">
        <ele>1094.3</ele>
        <time>2024-08-27T09:33:19Z</time>
      </trkpt>
      <trkpt lat="44.88963" lon="5.93545">
        <ele>1094.6</ele>
        <time>2024-08-27T09:33:20Z</time>
      </trkpt>
      <trkpt lat="44.88963" lon="5.93546">
        <ele>1094.7</ele>
        <time>2024-08-27T09:33:21Z</time>
      </trkpt>
      <trkpt lat="44.88962" lon="5.93548">
        <ele>1094.9</ele>
        <time>2024-08-27T09:33:22Z</time>
      </trkpt>
      <trkpt lat="44.88962" lon="5.9355">
        <ele>1095.1</ele>
        <time>2024-08-27T09:33:23Z</time>
      </trkpt>
      <trkpt lat="44.88961" lon="5.93553">
        <ele>1095.3</ele>
        <time>2024-08-27T09:33:24Z</time>
      </trkpt>
      <trkpt lat="44.88961" lon="5.93555">
        <ele>1095.5</ele>
        <time>2024-08-27T09:33:25Z</time>
      </trkpt>
      <trkpt lat="44.8896" lon="5.93558">
        <ele>1095.7</ele>
        <time>2024-08-27T09:33:26Z</time>
      </trkpt>
      <trkpt lat="44.8896" lon="5.9356">
        <ele>1095.8</ele>
        <time>2024-08-27T09:33:27Z</time>
      </trkpt>
      <trkpt lat="44.88959" lon="5.93563">
        <ele>1096.1</ele>
        <time>2024-08-27T09:33:28Z</time>
      </trkpt>
      <trkpt lat="44.88959" lon="5.93565">
        <ele>1096.2</ele>
        <time>2024-08-27T09:33:29Z</time>
      </trkpt>
      <trkpt lat="44.88959" lon="5.93569">
        <ele>1096.6</ele>
        <time>2024-08-27T09:33:30Z</time>
      </trkpt>
      <trkpt lat="44.88959" lon="5.9357">
        <ele>1096.7</ele>
        <time>2024-08-27T09:33:31Z</time>
      </trkpt>
      <trkpt lat="44.8896" lon="5.93574">
        <ele>1097</ele>
        <time>2024-08-27T09:33:32Z</time>
      </trkpt>
      <trkpt lat="44.8896" lon="5.93576">
        <ele>1097.1</ele>
        <time>2024-08-27T09:33:33Z</time>
      </trkpt>
      <trkpt lat="44.8896" lon="5.9358">
        <ele>1097.5</ele>
        <time>2024-08-27T09:33:34Z</time>
      </trkpt>
      <trkpt lat="44.88961" lon="5.93581">
        <ele>1097.6</ele>
        <time>2024-08-27T09:33:35Z</time>
      </trkpt>
      <trkpt lat="44.88961" lon="5.93584">
        <ele>1097.8</ele>
        <time>2024-08-27T09:33:36Z</time>
      </trkpt>
      <trkpt lat="44.88962" lon="5.93586">
        <ele>1098</ele>
        <time>2024-08-27T09:33:37Z</time>
      </trkpt>
      <trkpt lat="44.88963" lon="5.93588">
        <ele>1098.2</ele>
        <time>2024-08-27T09:33:38Z</time>
      </trkpt>
      <trkpt lat="44.88963" lon="5.9359">
        <ele>1098.3</ele>
        <time>2024-08-27T09:33:39Z</time>
      </trkpt>
      <trkpt lat="44.88964" lon="5.93594">
        <ele>1098.7</ele>
        <time>2024-08-27T09:33:40Z</time>
      </trkpt>
      <trkpt lat="44.88964" lon="5.93595">
        <ele>1098.8</ele>
        <time>2024-08-27T09:33:41Z</time>
      </trkpt>
      <trkpt lat="44.88965" lon="5.93597">
        <ele>1099</ele>
        <time>2024-08-27T09:33:42Z</time>
      </trkpt>
      <trkpt lat="44.88966" lon="5.93599">
        <ele>1099.2</ele>
        <time>2024-08-27T09:33:43Z</time>
      </trkpt>
      <trkpt lat="44.88968" lon="5.93601">
        <ele>1099.4</ele>
        <time>2024-08-27T09:33:44Z</time>
      </trkpt>
      <trkpt lat="44.88968" lon="5.93602">
        <ele>1099.6</ele>
        <time>2024-08-27T09:33:45Z</time>
      </trkpt>
      <trkpt lat="44.88969" lon="5.93604">
        <ele>1099.8</ele>
        <time>2024-08-27T09:33:46Z</time>
      </trkpt>
      <trkpt lat="44.88971" lon="5.93606">
        <ele>1100</ele>
        <time>2024-08-27T09:33:47Z</time>
      </trkpt>
      <trkpt lat="44.88972" lon="5.93608">
        <ele>1100.2</ele>
        <time>2024-08-27T09:33:48Z</time>
      </trkpt>
      <trkpt lat="44.88973" lon="5.9361">
        <ele>1100.4</ele>
        <time>2024-08-27T09:33:49Z</time>
      </trkpt>
      <trkpt lat="44.88975" lon="5.93613">
        <ele>1100.7</ele>
        <time>2024-08-27T09:33:50Z</time>
      </trkpt>
      <trkpt lat="44.88975" lon="5.93614">
        <ele>1100.8</ele>
        <time>2024-08-27T09:33:51Z</time>
      </trkpt>
      <trkpt lat="44.88976" lon="5.93618">
        <ele>1101.2</ele>
        <time>2024-08-27T09:33:52Z</time>
      </trkpt>
      <trkpt lat="44.88977" lon="5.93619">
        <ele>1101.3</ele>
        <time>2024-08-27T09:33:53Z</time>
      </trkpt>
      <trkpt lat="44.88977" lon="5.93621">
        <ele>1101.5</ele>
        <time>2024-08-27T09:33:54Z</time>
      </trkpt>
      <trkpt lat="44.88978" lon="5.93623">
        <ele>1101.7</ele>
        <time>2024-08-27T09:33:55Z</time>
      </trkpt>
      <trkpt lat="44.88978" lon="5.93626">
        <ele>1101.9</ele>
        <time>2024-08-27T09:33:56Z</time>
      </trkpt>
      <trkpt lat="44.88979" lon="5.93628">
        <ele>1102.1</ele>
        <time>2024-08-27T09:33:57Z</time>
      </trkpt>
      <trkpt lat="44.88979" lon="5.93632">
        <ele>1102.4</ele>
        <time>2024-08-27T09:33:58Z</time>
      </trkpt>
      <trkpt lat="44.88978" lon="5.93633">
        <ele>1102.5</ele>
        <time>2024-08-27T09:33:59Z</time>
      </trkpt>
      <trkpt lat="44.88978" lon="5.93637">
        <ele>1102.8</ele>
        <time>2024-08-27T09:34:00Z</time>
      </trkpt>
      <trkpt lat="44.88978" lon="5.93638">
        <ele>1102.9</ele>
        <time>2024-08-27T09:34:01Z</time>
      </trkpt>
      <trkpt lat="44.88977" lon="5.93642">
        <ele>1103.2</ele>
        <time>2024-08-27T09:34:02Z</time>
      </trkpt>
      <trkpt lat="44.88977" lon="5.93643">
        <ele>1103.4</ele>
        <time>2024-08-27T09:34:03Z</time>
      </trkpt>
      <trkpt lat="44.88976" lon="5.93647">
        <ele>1103.7</ele>
        <time>2024-08-27T09:34:04Z</time>
      </trkpt>
      <trkpt lat="44.88976" lon="5.93648">
        <ele>1103.8</ele>
        <time>2024-08-27T09:34:05Z</time>
      </trkpt>
      <trkpt lat="44.88974" lon="5.93652">
        <ele>1104.1</ele>
        <time>2024-08-27T09:34:06Z</time>
      </trkpt>
      <trkpt lat="44.88974" lon="5.93653">
        <ele>1104.1</ele>
        <time>2024-08-27T09:34:07Z</time>
      </trkpt>
      <trkpt lat="44.88973" lon="5.93654">
        <ele>1104.3</ele>
        <time>2024-08-27T09:34:08Z</time>
      </trkpt>
      <trkpt lat="44.88971" lon="5.93656">
        <ele>1104.5</ele>
        <time>2024-08-27T09:34:09Z</time>
      </trkpt>
      <trkpt lat="44.88969" lon="5.93658">
        <ele>1104.8</ele>
        <time>2024-08-27T09:34:10Z</time>
      </trkpt>
      <trkpt lat="44.88968" lon="5.93659">
        <ele>1104.9</ele>
        <time>2024-08-27T09:34:11Z</time>
      </trkpt>
      <trkpt lat="44.88967" lon="5.9366">
        <ele>1105</ele>
        <time>2024-08-27T09:34:12Z</time>
      </trkpt>
      <trkpt lat="44.88965" lon="5.93661">
        <ele>1105.2</ele>
        <time>2024-08-27T09:34:13Z</time>
      </trkpt>
      <trkpt lat="44.88962" lon="5.93662">
        <ele>1105.5</ele>
        <time>2024-08-27T09:34:14Z</time>
      </trkpt>
      <trkpt lat="44.88962" lon="5.93662">
        <ele>1105.6</ele>
        <time>2024-08-27T09:34:15Z</time>
      </trkpt>
      <trkpt lat="44.8896" lon="5.93663">
        <ele>1105.7</ele>
        <time>2024-08-27T09:34:16Z</time>
      </trkpt>
      <trkpt lat="44.88958" lon="5.93664">
        <ele>1105.9</ele>
        <time>2024-08-27T09:34:17Z</time>
      </trkpt>
      <trkpt lat="44.88956" lon="5.93665">
        <ele>1106.1</ele>
        <time>2024-08-27T09:34:18Z</time>
      </trkpt>
      <trkpt lat="44.88955" lon="5.93666">
        <ele>1106.2</ele>
        <time>2024-08-27T09:34:19Z</time>
      </trkpt>
      <trkpt lat="44.88953" lon="5.93666">
        <ele>1106.4</ele>
        <time>2024-08-27T09:34:20Z</time>
      </trkpt>
      <trkpt lat="44.88952" lon="5.93667">
        <ele>1106.5</ele>
        <time>2024-08-27T09:34:21Z</time>
      </trkpt>
      <trkpt lat="44.8895" lon="5.93668">
        <ele>1106.7</ele>
        <time>2024-08-27T09:34:22Z</time>
      </trkpt>
      <trkpt lat="44.88948" lon="5.93669">
        <ele>1106.8</ele>
        <time>2024-08-27T09:34:23Z</time>
      </trkpt>
      <trkpt lat="44.88946" lon="5.9367">
        <ele>1107.1</ele>
        <time>2024-08-27T09:34:24Z</time>
      </trkpt>
      <trkpt lat="44.88945" lon="5.93671">
        <ele>1107.1</ele>
        <time>2024-08-27T09:34:25Z</time>
      </trkpt>
      <trkpt lat="44.88943" lon="5.93672">
        <ele>1107.3</ele>
        <time>2024-08-27T09:34:26Z</time>
      </trkpt>
      <trkpt lat="44.88942" lon="5.93673">
        <ele>1107.4</ele>
        <time>2024-08-27T09:34:27Z</time>
      </trkpt>
      <trkpt lat="44.8894" lon="5.93674">
        <ele>1107.6</ele>
        <time>2024-08-27T09:34:28Z</time>
      </trkpt>
      <trkpt lat="44.88939" lon="5.93676">
        <ele>1107.7</ele>
        <time>2024-08-27T09:34:29Z</time>
      </trkpt>
      <trkpt lat="44.88937" lon="5.93677">
        <ele>1107.9</ele>
        <time>2024-08-27T09:34:30Z</time>
      </trkpt>
      <trkpt lat="44.88936" lon="5.93678">
        <ele>1108.1</ele>
        <time>2024-08-27T09:34:31Z</time>
      </trkpt>
      <trkpt lat="44.88934" lon="5.9368">
        <ele>1108.3</ele>
        <time>2024-08-27T09:34:32Z</time>
      </trkpt>
      <trkpt lat="44.88933" lon="5.93681">
        <ele>1108.4</ele>
        <time>2024-08-27T09:34:33Z</time>
      </trkpt>
      <trkpt lat="44.8893" lon="5.93683">
        <ele>1108.7</ele>
        <time>2024-08-27T09:34:34Z</time>
      </trkpt>
      <trkpt lat="44.8893" lon="5.93684">
        <ele>1108.8</ele>
        <time>2024-08-27T09:34:35Z</time>
      </trkpt>
      <trkpt lat="44.88928" lon="5.93686">
        <ele>1108.9</ele>
        <time>2024-08-27T09:34:36Z</time>
      </trkpt>
      <trkpt lat="44.88927" lon="5.93687">
        <ele>1109.1</ele>
        <time>2024-08-27T09:34:37Z</time>
      </trkpt>
      <trkpt lat="44.88926" lon="5.93689">
        <ele>1109.2</ele>
        <time>2024-08-27T09:34:38Z</time>
      </trkpt>
      <trkpt lat="44.88925" lon="5.93691">
        <ele>1109.4</ele>
        <time>2024-08-27T09:34:39Z</time>
      </trkpt>
      <trkpt lat="44.88923" lon="5.93694">
        <ele>1109.6</ele>
        <time>2024-08-27T09:34:40Z</time>
      </trkpt>
      <trkpt lat="44.88922" lon="5.93695">
        <ele>1109.7</ele>
        <time>2024-08-27T09:34:41Z</time>
      </trkpt>
      <trkpt lat="44.8892" lon="5.93698">
        <ele>1109.9</ele>
        <time>2024-08-27T09:34:42Z</time>
      </trkpt>
      <trkpt lat="44.88919" lon="5.93699">
        <ele>1110</ele>
        <time>2024-08-27T09:34:43Z</time>
      </trkpt>
      <trkpt lat="44.88917" lon="5.93702">
        <ele>1110.3</ele>
        <time>2024-08-27T09:34:44Z</time>
      </trkpt>
      <trkpt lat="44.88916" lon="5.93703">
        <ele>1110.4</ele>
        <time>2024-08-27T09:34:45Z</time>
      </trkpt>
      <trkpt lat="44.88914" lon="5.93706">
        <ele>1110.6</ele>
        <time>2024-08-27T09:34:46Z</time>
      </trkpt>
      <trkpt lat="44.88913" lon="5.93707">
        <ele>1110.7</ele>
        <time>2024-08-27T09:34:47Z</time>
      </trkpt>
      <trkpt lat="44.8891" lon="5.93711">
        <ele>1111</ele>
        <time>2024-08-27T09:34:48Z</time>
      </trkpt>
      <trkpt lat="44.8891" lon="5.93712">
        <ele>1111</ele>
        <time>2024-08-27T09:34:49Z</time>
      </trkpt>
      <trkpt lat="44.88907" lon="5.93715">
        <ele>1111.3</ele>
        <time>2024-08-27T09:34:50Z</time>
      </trkpt>
      <trkpt lat="44.88907" lon="5.93716">
        <ele>1111.3</ele>
        <time>2024-08-27T09:34:51Z</time>
      </trkpt>
      <trkpt lat="44.88904" lon="5.9372">
        <ele>1111.6</ele>
        <time>2024-08-27T09:34:52Z</time>
      </trkpt>
      <trkpt lat="44.88904" lon="5.93721">
        <ele>1111.7</ele>
        <time>2024-08-27T09:34:53Z</time>
      </trkpt>
      <trkpt lat="44.88901" lon="5.93725">
        <ele>1111.9</ele>
        <time>2024-08-27T09:34:54Z</time>
      </trkpt>
      <trkpt lat="44.889" lon="5.93726">
        <ele>1112</ele>
        <time>2024-08-27T09:34:55Z</time>
      </trkpt>
      <trkpt lat="44.88897" lon="5.9373">
        <ele>1112.3</ele>
        <time>2024-08-27T09:34:56Z</time>
      </trkpt>
      <trkpt lat="44.88896" lon="5.93731">
        <ele>1112.4</ele>
        <time>2024-08-27T09:34:57Z</time>
      </trkpt>
      <trkpt lat="44.88894" lon="5.93735">
        <ele>1112.6</ele>
        <time>2024-08-27T09:34:58Z</time>
      </trkpt>
      <trkpt lat="44.88893" lon="5.93736">
        <ele>1112.7</ele>
        <time>2024-08-27T09:34:59Z</time>
      </trkpt>
      <trkpt lat="44.8889" lon="5.93739">
        <ele>1112.9</ele>
        <time>2024-08-27T09:35:00Z</time>
      </trkpt>
      <trkpt lat="44.88889" lon="5.9374">
        <ele>1113</ele>
        <time>2024-08-27T09:35:01Z</time>
      </trkpt>
      <trkpt lat="44.88887" lon="5.93744">
        <ele>1113.3</ele>
        <time>2024-08-27T09:35:02Z</time>
      </trkpt>
      <trkpt lat="44.88886" lon="5.93745">
        <ele>1113.4</ele>
        <time>2024-08-27T09:35:03Z</time>
      </trkpt>
      <trkpt lat="44.88884" lon="5.93748">
        <ele>1113.6</ele>
        <time>2024-08-27T09:35:04Z</time>
      </trkpt>
      <trkpt lat="44.88883" lon="5.93749">
        <ele>1113.7</ele>
        <time>2024-08-27T09:35:05Z</time>
      </trkpt>
      <trkpt lat="44.8888" lon="5.93753">
        <ele>1114</ele>
        <time>2024-08-27T09:35:06Z</time>
      </trkpt>
      <trkpt lat="44.88879" lon="5.93754">
        <ele>1114.1</ele>
        <time>2024-08-27T09:35:07Z</time>
      </trkpt>
      <trkpt lat="44.88877" lon="5.93758">
        <ele>1114.4</ele>
        <time>2024-08-27T09:35:08Z</time>
      </trkpt>
      <trkpt lat="44.88877" lon="5.93759">
        <ele>1114.5</ele>
        <time>2024-08-27T09:35:09Z</time>
      </trkpt>
      <trkpt lat="44.88875" lon="5.93763">
        <ele>1114.8</ele>
        <time>2024-08-27T09:35:10Z</time>
      </trkpt>
      <trkpt lat="44.88874" lon="5.93765">
        <ele>1114.9</ele>
        <time>2024-08-27T09:35:11Z</time>
      </trkpt>
      <trkpt lat="44.88872" lon="5.93769">
        <ele>1115.2</ele>
        <time>2024-08-27T09:35:12Z</time>
      </trkpt>
      <trkpt lat="44.88872" lon="5.9377">
        <ele>1115.3</ele>
        <time>2024-08-27T09:35:13Z</time>
      </trkpt>
      <trkpt lat="44.8887" lon="5.93774">
        <ele>1115.6</ele>
        <time>2024-08-27T09:35:14Z</time>
      </trkpt>
      <trkpt lat="44.88869" lon="5.93775">
        <ele>1115.7</ele>
        <time>2024-08-27T09:35:15Z</time>
      </trkpt>
      <trkpt lat="44.88868" lon="5.9378">
        <ele>1116.1</ele>
        <time>2024-08-27T09:35:16Z</time>
      </trkpt>
      <trkpt lat="44.88868" lon="5.93781">
        <ele>1116.2</ele>
        <time>2024-08-27T09:35:17Z</time>
      </trkpt>
      <trkpt lat="44.88867" lon="5.93786">
        <ele>1116.5</ele>
        <time>2024-08-27T09:35:18Z</time>
      </trkpt>
      <trkpt lat="44.88867" lon="5.93787">
        <ele>1116.6</ele>
        <time>2024-08-27T09:35:19Z</time>
      </trkpt>
      <trkpt lat="44.88866" lon="5.93792">
        <ele>1116.9</ele>
        <time>2024-08-27T09:35:20Z</time>
      </trkpt>
      <trkpt lat="44.88865" lon="5.93793">
        <ele>1117.1</ele>
        <time>2024-08-27T09:35:21Z</time>
      </trkpt>
      <trkpt lat="44.88864" lon="5.93797">
        <ele>1117.4</ele>
        <time>2024-08-27T09:35:22Z</time>
      </trkpt>
      <trkpt lat="44.88863" lon="5.93799">
        <ele>1117.5</ele>
        <time>2024-08-27T09:35:23Z</time>
      </trkpt>
      <trkpt lat="44.88862" lon="5.93803">
        <ele>1117.9</ele>
        <time>2024-08-27T09:35:24Z</time>
      </trkpt>
      <trkpt lat="44.88862" lon="5.93805">
        <ele>1118</ele>
        <time>2024-08-27T09:35:25Z</time>
      </trkpt>
      <trkpt lat="44.88862" lon="5.93809">
        <ele>1118.3</ele>
        <time>2024-08-27T09:35:26Z</time>
      </trkpt>
      <trkpt lat="44.88861" lon="5.9381">
        <ele>1118.4</ele>
        <time>2024-08-27T09:35:27Z</time>
      </trkpt>
      <trkpt lat="44.88861" lon="5.93814">
        <ele>1118.7</ele>
        <time>2024-08-27T09:35:28Z</time>
      </trkpt>
      <trkpt lat="44.88861" lon="5.93816">
        <ele>1118.8</ele>
        <time>2024-08-27T09:35:29Z</time>
      </trkpt>
      <trkpt lat="44.8886" lon="5.9382">
        <ele>1119.2</ele>
        <time>2024-08-27T09:35:30Z</time>
      </trkpt>
      <trkpt lat="44.8886" lon="5.93821">
        <ele>1119.3</ele>
        <time>2024-08-27T09:35:31Z</time>
      </trkpt>
      <trkpt lat="44.88859" lon="5.93825">
        <ele>1119.6</ele>
        <time>2024-08-27T09:35:32Z</time>
      </trkpt>
      <trkpt lat="44.88859" lon="5.93826">
        <ele>1119.7</ele>
        <time>2024-08-27T09:35:33Z</time>
      </trkpt>
      <trkpt lat="44.88858" lon="5.9383">
        <ele>1120</ele>
        <time>2024-08-27T09:35:34Z</time>
      </trkpt>
      <trkpt lat="44.88858" lon="5.93832">
        <ele>1120.1</ele>
        <time>2024-08-27T09:35:35Z</time>
      </trkpt>
      <trkpt lat="44.88857" lon="5.93835">
        <ele>1120.3</ele>
        <time>2024-08-27T09:35:36Z</time>
      </trkpt>
      <trkpt lat="44.88857" lon="5.93837">
        <ele>1120.4</ele>
        <time>2024-08-27T09:35:37Z</time>
      </trkpt>
      <trkpt lat="44.88857" lon="5.93839">
        <ele>1120.6</ele>
        <time>2024-08-27T09:35:38Z</time>
      </trkpt>
      <trkpt lat="44.88857" lon="5.93842">
        <ele>1120.8</ele>
        <time>2024-08-27T09:35:39Z</time>
      </trkpt>
      <trkpt lat="44.88857" lon="5.93846">
        <ele>1121.1</ele>
        <time>2024-08-27T09:35:40Z</time>
      </trkpt>
      <trkpt lat="44.88856" lon="5.93847">
        <ele>1121.2</ele>
        <time>2024-08-27T09:35:41Z</time>
      </trkpt>
      <trkpt lat="44.88856" lon="5.93851">
        <ele>1121.5</ele>
        <time>2024-08-27T09:35:42Z</time>
      </trkpt>
      <trkpt lat="44.88856" lon="5.93853">
        <ele>1121.6</ele>
        <time>2024-08-27T09:35:43Z</time>
      </trkpt>
      <trkpt lat="44.88856" lon="5.93856">
        <ele>1121.9</ele>
        <time>2024-08-27T09:35:44Z</time>
      </trkpt>
      <trkpt lat="44.88856" lon="5.93858">
        <ele>1122</ele>
        <time>2024-08-27T09:35:45Z</time>
      </trkpt>
      <trkpt lat="44.88856" lon="5.93862">
        <ele>1122.3</ele>
        <time>2024-08-27T09:35:46Z</time>
      </trkpt>
      <trkpt lat="44.88856" lon="5.93863">
        <ele>1122.4</ele>
        <time>2024-08-27T09:35:47Z</time>
      </trkpt>
      <trkpt lat="44.88855" lon="5.93867">
        <ele>1122.7</ele>
        <time>2024-08-27T09:35:48Z</time>
      </trkpt>
      <trkpt lat="44.88855" lon="5.93868">
        <ele>1122.8</ele>
        <time>2024-08-27T09:35:49Z</time>
      </trkpt>
      <trkpt lat="44.88855" lon="5.93873">
        <ele>1123.1</ele>
        <time>2024-08-27T09:35:50Z</time>
      </trkpt>
      <trkpt lat="44.88855" lon="5.93874">
        <ele>1123.2</ele>
        <time>2024-08-27T09:35:51Z</time>
      </trkpt>
      <trkpt lat="44.88855" lon="5.93878">
        <ele>1123.5</ele>
        <time>2024-08-27T09:35:52Z</time>
      </trkpt>
      <trkpt lat="44.88855" lon="5.93879">
        <ele>1123.6</ele>
        <time>2024-08-27T09:35:53Z</time>
      </trkpt>
      <trkpt lat="44.88856" lon="5.93883">
        <ele>1123.9</ele>
        <time>2024-08-27T09:35:54Z</time>
      </trkpt>
      <trkpt lat="44.88856" lon="5.93884">
        <ele>1124</ele>
        <time>2024-08-27T09:35:55Z</time>
      </trkpt>
      <trkpt lat="44.88855" lon="5.93889">
        <ele>1124.3</ele>
        <time>2024-08-27T09:35:56Z</time>
      </trkpt>
      <trkpt lat="44.88855" lon="5.9389">
        <ele>1124.4</ele>
        <time>2024-08-27T09:35:57Z</time>
      </trkpt>
      <trkpt lat="44.88855" lon="5.93894">
        <ele>1124.8</ele>
        <time>2024-08-27T09:35:58Z</time>
      </trkpt>
      <trkpt lat="44.88855" lon="5.93896">
        <ele>1124.9</ele>
        <time>2024-08-27T09:35:59Z</time>
      </trkpt>
      <trkpt lat="44.88855" lon="5.939">
        <ele>1125.2</ele>
        <time>2024-08-27T09:36:00Z</time>
      </trkpt>
      <trkpt lat="44.88855" lon="5.93901">
        <ele>1125.3</ele>
        <time>2024-08-27T09:36:01Z</time>
      </trkpt>
      <trkpt lat="44.88856" lon="5.93905">
        <ele>1125.6</ele>
        <time>2024-08-27T09:36:02Z</time>
      </trkpt>
      <trkpt lat="44.88856" lon="5.93907">
        <ele>1125.7</ele>
        <time>2024-08-27T09:36:03Z</time>
      </trkpt>
      <trkpt lat="44.88856" lon="5.93911">
        <ele>1126</ele>
        <time>2024-08-27T09:36:04Z</time>
      </trkpt>
      <trkpt lat="44.88856" lon="5.93912">
        <ele>1126.1</ele>
        <time>2024-08-27T09:36:05Z</time>
      </trkpt>
      <trkpt lat="44.88856" lon="5.93916">
        <ele>1126.4</ele>
        <time>2024-08-27T09:36:06Z</time>
      </trkpt>
      <trkpt lat="44.88856" lon="5.93918">
        <ele>1126.5</ele>
        <time>2024-08-27T09:36:07Z</time>
      </trkpt>
      <trkpt lat="44.88856" lon="5.93922">
        <ele>1126.7</ele>
        <time>2024-08-27T09:36:08Z</time>
      </trkpt>
      <trkpt lat="44.88857" lon="5.93923">
        <ele>1126.8</ele>
        <time>2024-08-27T09:36:09Z</time>
      </trkpt>
      <trkpt lat="44.88857" lon="5.93927">
        <ele>1127.1</ele>
        <time>2024-08-27T09:36:10Z</time>
      </trkpt>
      <trkpt lat="44.88857" lon="5.93929">
        <ele>1127.2</ele>
        <time>2024-08-27T09:36:11Z</time>
      </trkpt>
      <trkpt lat="44.88857" lon="5.93933">
        <ele>1127.4</ele>
        <time>2024-08-27T09:36:12Z</time>
      </trkpt>
      <trkpt lat="44.88857" lon="5.93934">
        <ele>1127.5</ele>
        <time>2024-08-27T09:36:13Z</time>
      </trkpt>
      <trkpt lat="44.88858" lon="5.93939">
        <ele>1127.8</ele>
        <time>2024-08-27T09:36:14Z</time>
      </trkpt>
      <trkpt lat="44.88858" lon="5.9394">
        <ele>1127.9</ele>
        <time>2024-08-27T09:36:15Z</time>
      </trkpt>
      <trkpt lat="44.88858" lon="5.93944">
        <ele>1128.1</ele>
        <time>2024-08-27T09:36:16Z</time>
      </trkpt>
      <trkpt lat="44.88859" lon="5.93945">
        <ele>1128.2</ele>
        <time>2024-08-27T09:36:17Z</time>
      </trkpt>
      <trkpt lat="44.88859" lon="5.9395">
        <ele>1128.4</ele>
        <time>2024-08-27T09:36:18Z</time>
      </trkpt>
      <trkpt lat="44.88859" lon="5.93951">
        <ele>1128.5</ele>
        <time>2024-08-27T09:36:19Z</time>
      </trkpt>
      <trkpt lat="44.8886" lon="5.93955">
        <ele>1128.8</ele>
        <time>2024-08-27T09:36:20Z</time>
      </trkpt>
      <trkpt lat="44.8886" lon="5.93956">
        <ele>1128.8</ele>
        <time>2024-08-27T09:36:21Z</time>
      </trkpt>
      <trkpt lat="44.88861" lon="5.9396">
        <ele>1129.1</ele>
        <time>2024-08-27T09:36:22Z</time>
      </trkpt>
      <trkpt lat="44.88862" lon="5.93961">
        <ele>1129.2</ele>
        <time>2024-08-27T09:36:23Z</time>
      </trkpt>
      <trkpt lat="44.88863" lon="5.93965">
        <ele>1129.4</ele>
        <time>2024-08-27T09:36:24Z</time>
      </trkpt>
      <trkpt lat="44.88863" lon="5.93966">
        <ele>1129.5</ele>
        <time>2024-08-27T09:36:25Z</time>
      </trkpt>
      <trkpt lat="44.88865" lon="5.9397">
        <ele>1129.8</ele>
        <time>2024-08-27T09:36:26Z</time>
      </trkpt>
      <trkpt lat="44.88865" lon="5.93971">
        <ele>1129.9</ele>
        <time>2024-08-27T09:36:27Z</time>
      </trkpt>
      <trkpt lat="44.88867" lon="5.93975">
        <ele>1130.2</ele>
        <time>2024-08-27T09:36:28Z</time>
      </trkpt>
      <trkpt lat="44.88868" lon="5.93976">
        <ele>1130.2</ele>
        <time>2024-08-27T09:36:29Z</time>
      </trkpt>
      <trkpt lat="44.88869" lon="5.93979">
        <ele>1130.5</ele>
        <time>2024-08-27T09:36:30Z</time>
      </trkpt>
      <trkpt lat="44.8887" lon="5.9398">
        <ele>1130.6</ele>
        <time>2024-08-27T09:36:31Z</time>
      </trkpt>
      <trkpt lat="44.88871" lon="5.93984">
        <ele>1130.9</ele>
        <time>2024-08-27T09:36:32Z</time>
      </trkpt>
      <trkpt lat="44.88872" lon="5.93985">
        <ele>1131</ele>
        <time>2024-08-27T09:36:33Z</time>
      </trkpt>
      <trkpt lat="44.88874" lon="5.93988">
        <ele>1131.3</ele>
        <time>2024-08-27T09:36:34Z</time>
      </trkpt>
      <trkpt lat="44.88875" lon="5.93989">
        <ele>1131.4</ele>
        <time>2024-08-27T09:36:35Z</time>
      </trkpt>
      <trkpt lat="44.88876" lon="5.93991">
        <ele>1131.6</ele>
        <time>2024-08-27T09:36:36Z</time>
      </trkpt>
      <trkpt lat="44.88877" lon="5.93993">
        <ele>1131.8</ele>
        <time>2024-08-27T09:36:37Z</time>
      </trkpt>
      <trkpt lat="44.88879" lon="5.93996">
        <ele>1132.1</ele>
        <time>2024-08-27T09:36:38Z</time>
      </trkpt>
      <trkpt lat="44.88879" lon="5.93997">
        <ele>1132.2</ele>
        <time>2024-08-27T09:36:39Z</time>
      </trkpt>
      <trkpt lat="44.88882" lon="5.94">
        <ele>1132.6</ele>
        <time>2024-08-27T09:36:40Z</time>
      </trkpt>
      <trkpt lat="44.88882" lon="5.94001">
        <ele>1132.7</ele>
        <time>2024-08-27T09:36:41Z</time>
      </trkpt>
      <trkpt lat="44.88884" lon="5.94002">
        <ele>1132.9</ele>
        <time>2024-08-27T09:36:42Z</time>
      </trkpt>
      <trkpt lat="44.88885" lon="5.94004">
        <ele>1133.1</ele>
        <time>2024-08-27T09:36:43Z</time>
      </trkpt>
      <trkpt lat="44.88886" lon="5.94006">
        <ele>1133.3</ele>
        <time>2024-08-27T09:36:44Z</time>
      </trkpt>
      <trkpt lat="44.88887" lon="5.94008">
        <ele>1133.5</ele>
        <time>2024-08-27T09:36:45Z</time>
      </trkpt>
      <trkpt lat="44.88888" lon="5.9401">
        <ele>1133.7</ele>
        <time>2024-08-27T09:36:46Z</time>
      </trkpt>
      <trkpt lat="44.88888" lon="5.94011">
        <ele>1133.8</ele>
        <time>2024-08-27T09:36:47Z</time>
      </trkpt>
      <trkpt lat="44.88889" lon="5.94012">
        <ele>1133.9</ele>
        <time>2024-08-27T09:36:48Z</time>
      </trkpt>
      <trkpt lat="44.88889" lon="5.94014">
        <ele>1134.1</ele>
        <time>2024-08-27T09:36:49Z</time>
      </trkpt>
      <trkpt lat="44.8889" lon="5.94017">
        <ele>1134.4</ele>
        <time>2024-08-27T09:36:50Z</time>
      </trkpt>
      <trkpt lat="44.88892" lon="5.94021">
        <ele>1134.8</ele>
        <time>2024-08-27T09:36:51Z</time>
      </trkpt>
      <trkpt lat="44.88892" lon="5.94022">
        <ele>1134.9</ele>
        <time>2024-08-27T09:36:52Z</time>
      </trkpt>
      <trkpt lat="44.88894" lon="5.94026">
        <ele>1135.2</ele>
        <time>2024-08-27T09:36:53Z</time>
      </trkpt>
      <trkpt lat="44.88894" lon="5.94027">
        <ele>1135.3</ele>
        <time>2024-08-27T09:36:54Z</time>
      </trkpt>
      <trkpt lat="44.88896" lon="5.94031">
        <ele>1135.6</ele>
        <time>2024-08-27T09:36:55Z</time>
      </trkpt>
      <trkpt lat="44.88896" lon="5.94032">
        <ele>1135.7</ele>
        <time>2024-08-27T09:36:56Z</time>
      </trkpt>
      <trkpt lat="44.88898" lon="5.94036">
        <ele>1136.1</ele>
        <time>2024-08-27T09:36:57Z</time>
      </trkpt>
      <trkpt lat="44.88898" lon="5.94037">
        <ele>1136.2</ele>
        <time>2024-08-27T09:36:58Z</time>
      </trkpt>
      <trkpt lat="44.88898" lon="5.94041">
        <ele>1136.5</ele>
        <time>2024-08-27T09:36:59Z</time>
      </trkpt>
      <trkpt lat="44.88899" lon="5.94042">
        <ele>1136.6</ele>
        <time>2024-08-27T09:37:00Z</time>
      </trkpt>
      <trkpt lat="44.88899" lon="5.94046">
        <ele>1136.9</ele>
        <time>2024-08-27T09:37:01Z</time>
      </trkpt>
      <trkpt lat="44.88899" lon="5.94048">
        <ele>1137</ele>
        <time>2024-08-27T09:37:02Z</time>
      </trkpt>
      <trkpt lat="44.889" lon="5.9405">
        <ele>1137.2</ele>
        <time>2024-08-27T09:37:03Z</time>
      </trkpt>
      <trkpt lat="44.88899" lon="5.94053">
        <ele>1137.3</ele>
        <time>2024-08-27T09:37:04Z</time>
      </trkpt>
      <trkpt lat="44.88899" lon="5.94056">
        <ele>1137.6</ele>
        <time>2024-08-27T09:37:05Z</time>
      </trkpt>
      <trkpt lat="44.88898" lon="5.94058">
        <ele>1137.7</ele>
        <time>2024-08-27T09:37:06Z</time>
      </trkpt>
      <trkpt lat="44.88897" lon="5.9406">
        <ele>1137.9</ele>
        <time>2024-08-27T09:37:07Z</time>
      </trkpt>
      <trkpt lat="44.88897" lon="5.94062">
        <ele>1138.1</ele>
        <time>2024-08-27T09:37:08Z</time>
      </trkpt>
      <trkpt lat="44.88896" lon="5.94066">
        <ele>1138.3</ele>
        <time>2024-08-27T09:37:09Z</time>
      </trkpt>
      <trkpt lat="44.88895" lon="5.94067">
        <ele>1138.4</ele>
        <time>2024-08-27T09:37:10Z</time>
      </trkpt>
      <trkpt lat="44.88894" lon="5.94071">
        <ele>1138.7</ele>
        <time>2024-08-27T09:37:11Z</time>
      </trkpt>
      <trkpt lat="44.88893" lon="5.94072">
        <ele>1138.9</ele>
        <time>2024-08-27T09:37:12Z</time>
      </trkpt>
      <trkpt lat="44.88892" lon="5.94075">
        <ele>1139.2</ele>
        <time>2024-08-27T09:37:13Z</time>
      </trkpt>
      <trkpt lat="44.88891" lon="5.94076">
        <ele>1139.3</ele>
        <time>2024-08-27T09:37:14Z</time>
      </trkpt>
      <trkpt lat="44.88889" lon="5.94079">
        <ele>1139.5</ele>
        <time>2024-08-27T09:37:15Z</time>
      </trkpt>
      <trkpt lat="44.88889" lon="5.9408">
        <ele>1139.6</ele>
        <time>2024-08-27T09:37:16Z</time>
      </trkpt>
      <trkpt lat="44.88886" lon="5.94084">
        <ele>1140</ele>
        <time>2024-08-27T09:37:17Z</time>
      </trkpt>
      <trkpt lat="44.88886" lon="5.94085">
        <ele>1140.1</ele>
        <time>2024-08-27T09:37:18Z</time>
      </trkpt>
      <trkpt lat="44.88884" lon="5.94088">
        <ele>1140.4</ele>
        <time>2024-08-27T09:37:19Z</time>
      </trkpt>
      <trkpt lat="44.88883" lon="5.94089">
        <ele>1140.5</ele>
        <time>2024-08-27T09:37:20Z</time>
      </trkpt>
      <trkpt lat="44.88881" lon="5.94092">
        <ele>1140.8</ele>
        <time>2024-08-27T09:37:21Z</time>
      </trkpt>
      <trkpt lat="44.8888" lon="5.94093">
        <ele>1140.9</ele>
        <time>2024-08-27T09:37:22Z</time>
      </trkpt>
      <trkpt lat="44.88878" lon="5.94096">
        <ele>1141.2</ele>
        <time>2024-08-27T09:37:23Z</time>
      </trkpt>
      <trkpt lat="44.88878" lon="5.94097">
        <ele>1141.3</ele>
        <time>2024-08-27T09:37:24Z</time>
      </trkpt>
      <trkpt lat="44.88877" lon="5.94101">
        <ele>1141.5</ele>
        <time>2024-08-27T09:37:25Z</time>
      </trkpt>
      <trkpt lat="44.88877" lon="5.94102">
        <ele>1141.6</ele>
        <time>2024-08-27T09:37:26Z</time>
      </trkpt>
      <trkpt lat="44.88877" lon="5.94105">
        <ele>1141.8</ele>
        <time>2024-08-27T09:37:27Z</time>
      </trkpt>
      <trkpt lat="44.88876" lon="5.94107">
        <ele>1141.9</ele>
        <time>2024-08-27T09:37:28Z</time>
      </trkpt>
      <trkpt lat="44.88876" lon="5.94111">
        <ele>1142.2</ele>
        <time>2024-08-27T09:37:29Z</time>
      </trkpt>
      <trkpt lat="44.88876" lon="5.94112">
        <ele>1142.3</ele>
        <time>2024-08-27T09:37:30Z</time>
      </trkpt>
      <trkpt lat="44.88876" lon="5.94116">
        <ele>1142.5</ele>
        <time>2024-08-27T09:37:31Z</time>
      </trkpt>
      <trkpt lat="44.88876" lon="5.94117">
        <ele>1142.6</ele>
        <time>2024-08-27T09:37:32Z</time>
      </trkpt>
      <trkpt lat="44.88877" lon="5.94121">
        <ele>1142.9</ele>
        <time>2024-08-27T09:37:33Z</time>
      </trkpt>
      <trkpt lat="44.88877" lon="5.94123">
        <ele>1143</ele>
        <time>2024-08-27T09:37:34Z</time>
      </trkpt>
      <trkpt lat="44.88877" lon="5.94125">
        <ele>1143.2</ele>
        <time>2024-08-27T09:37:35Z</time>
      </trkpt>
      <trkpt lat="44.88878" lon="5.94127">
        <ele>1143.3</ele>
        <time>2024-08-27T09:37:36Z</time>
      </trkpt>
      <trkpt lat="44.88879" lon="5.94131">
        <ele>1143.6</ele>
        <time>2024-08-27T09:37:37Z</time>
      </trkpt>
      <trkpt lat="44.8888" lon="5.94132">
        <ele>1143.7</ele>
        <time>2024-08-27T09:37:38Z</time>
      </trkpt>
      <trkpt lat="44.88881" lon="5.94134">
        <ele>1143.8</ele>
        <time>2024-08-27T09:37:39Z</time>
      </trkpt>
      <trkpt lat="44.88881" lon="5.94136">
        <ele>1144</ele>
        <time>2024-08-27T09:37:40Z</time>
      </trkpt>
      <trkpt lat="44.88883" lon="5.9414">
        <ele>1144.2</ele>
        <time>2024-08-27T09:37:41Z</time>
      </trkpt>
      <trkpt lat="44.88883" lon="5.94141">
        <ele>1144.3</ele>
        <time>2024-08-27T09:37:42Z</time>
      </trkpt>
      <trkpt lat="44.88884" lon="5.94142">
        <ele>1144.5</ele>
        <time>2024-08-27T09:37:43Z</time>
      </trkpt>
      <trkpt lat="44.88885" lon="5.94144">
        <ele>1144.6</ele>
        <time>2024-08-27T09:37:44Z</time>
      </trkpt>
      <trkpt lat="44.88886" lon="5.94146">
        <ele>1144.8</ele>
        <time>2024-08-27T09:37:45Z</time>
      </trkpt>
      <trkpt lat="44.88887" lon="5.94148">
        <ele>1145</ele>
        <time>2024-08-27T09:37:46Z</time>
      </trkpt>
      <trkpt lat="44.88889" lon="5.9415">
        <ele>1145.2</ele>
        <time>2024-08-27T09:37:47Z</time>
      </trkpt>
      <trkpt lat="44.8889" lon="5.94151">
        <ele>1145.3</ele>
        <time>2024-08-27T09:37:48Z</time>
      </trkpt>
      <trkpt lat="44.88892" lon="5.94153">
        <ele>1145.6</ele>
        <time>2024-08-27T09:37:49Z</time>
      </trkpt>
      <trkpt lat="44.88893" lon="5.94154">
        <ele>1145.7</ele>
        <time>2024-08-27T09:37:50Z</time>
      </trkpt>
      <trkpt lat="44.88894" lon="5.94155">
        <ele>1145.8</ele>
        <time>2024-08-27T09:37:51Z</time>
      </trkpt>
      <trkpt lat="44.88895" lon="5.94157">
        <ele>1146</ele>
        <time>2024-08-27T09:37:52Z</time>
      </trkpt>
      <trkpt lat="44.88898" lon="5.94159">
        <ele>1146.3</ele>
        <time>2024-08-27T09:37:53Z</time>
      </trkpt>
      <trkpt lat="44.88899" lon="5.9416">
        <ele>1146.5</ele>
        <time>2024-08-27T09:37:54Z</time>
      </trkpt>
      <trkpt lat="44.88901" lon="5.94162">
        <ele>1146.8</ele>
        <time>2024-08-27T09:37:55Z</time>
      </trkpt>
      <trkpt lat="44.88902" lon="5.94162">
        <ele>1146.9</ele>
        <time>2024-08-27T09:37:56Z</time>
      </trkpt>
      <trkpt lat="44.88904" lon="5.94163">
        <ele>1147</ele>
        <time>2024-08-27T09:37:57Z</time>
      </trkpt>
      <trkpt lat="44.88905" lon="5.94164">
        <ele>1147.2</ele>
        <time>2024-08-27T09:37:58Z</time>
      </trkpt>
      <trkpt lat="44.88907" lon="5.94165">
        <ele>1147.4</ele>
        <time>2024-08-27T09:37:59Z</time>
      </trkpt>
      <trkpt lat="44.88908" lon="5.94166">
        <ele>1147.5</ele>
        <time>2024-08-27T09:38:00Z</time>
      </trkpt>
      <trkpt lat="44.88911" lon="5.94168">
        <ele>1147.8</ele>
        <time>2024-08-27T09:38:01Z</time>
      </trkpt>
      <trkpt lat="44.88912" lon="5.94168">
        <ele>1147.9</ele>
        <time>2024-08-27T09:38:02Z</time>
      </trkpt>
      <trkpt lat="44.88914" lon="5.94169">
        <ele>1148.1</ele>
        <time>2024-08-27T09:38:03Z</time>
      </trkpt>
      <trkpt lat="44.88915" lon="5.9417">
        <ele>1148.2</ele>
        <time>2024-08-27T09:38:04Z</time>
      </trkpt>
      <trkpt lat="44.88917" lon="5.94172">
        <ele>1148.4</ele>
        <time>2024-08-27T09:38:05Z</time>
      </trkpt>
      <trkpt lat="44.88918" lon="5.94172">
        <ele>1148.5</ele>
        <time>2024-08-27T09:38:06Z</time>
      </trkpt>
      <trkpt lat="44.88922" lon="5.94174">
        <ele>1148.9</ele>
        <time>2024-08-27T09:38:07Z</time>
      </trkpt>
      <trkpt lat="44.88923" lon="5.94175">
        <ele>1149</ele>
        <time>2024-08-27T09:38:08Z</time>
      </trkpt>
      <trkpt lat="44.88925" lon="5.94175">
        <ele>1149.2</ele>
        <time>2024-08-27T09:38:09Z</time>
      </trkpt>
      <trkpt lat="44.88926" lon="5.94175">
        <ele>1149.3</ele>
        <time>2024-08-27T09:38:10Z</time>
      </trkpt>
      <trkpt lat="44.8893" lon="5.94176">
        <ele>1149.6</ele>
        <time>2024-08-27T09:38:11Z</time>
      </trkpt>
      <trkpt lat="44.88931" lon="5.94176">
        <ele>1149.7</ele>
        <time>2024-08-27T09:38:12Z</time>
      </trkpt>
      <trkpt lat="44.88934" lon="5.94178">
        <ele>1150</ele>
        <time>2024-08-27T09:38:13Z</time>
      </trkpt>
      <trkpt lat="44.88935" lon="5.94178">
        <ele>1150.1</ele>
        <time>2024-08-27T09:38:14Z</time>
      </trkpt>
      <trkpt lat="44.88939" lon="5.94178">
        <ele>1150.4</ele>
        <time>2024-08-27T09:38:15Z</time>
      </trkpt>
      <trkpt lat="44.8894" lon="5.94178">
        <ele>1150.5</ele>
        <time>2024-08-27T09:38:16Z</time>
      </trkpt>
      <trkpt lat="44.88943" lon="5.94179">
        <ele>1150.7</ele>
        <time>2024-08-27T09:38:17Z</time>
      </trkpt>
      <trkpt lat="44.88944" lon="5.94179">
        <ele>1150.8</ele>
        <time>2024-08-27T09:38:18Z</time>
      </trkpt>
      <trkpt lat="44.88948" lon="5.9418">
        <ele>1151.1</ele>
        <time>2024-08-27T09:38:19Z</time>
      </trkpt>
      <trkpt lat="44.88948" lon="5.9418">
        <ele>1151.2</ele>
        <time>2024-08-27T09:38:20Z</time>
      </trkpt>
      <trkpt lat="44.88952" lon="5.94181">
        <ele>1151.4</ele>
        <time>2024-08-27T09:38:21Z</time>
      </trkpt>
      <trkpt lat="44.88953" lon="5.94181">
        <ele>1151.5</ele>
        <time>2024-08-27T09:38:22Z</time>
      </trkpt>
      <trkpt lat="44.88956" lon="5.94181">
        <ele>1151.8</ele>
        <time>2024-08-27T09:38:23Z</time>
      </trkpt>
      <trkpt lat="44.88958" lon="5.94182">
        <ele>1151.9</ele>
        <time>2024-08-27T09:38:24Z</time>
      </trkpt>
      <trkpt lat="44.88961" lon="5.94183">
        <ele>1152.2</ele>
        <time>2024-08-27T09:38:25Z</time>
      </trkpt>
      <trkpt lat="44.88962" lon="5.94183">
        <ele>1152.3</ele>
        <time>2024-08-27T09:38:26Z</time>
      </trkpt>
      <trkpt lat="44.88964" lon="5.94185">
        <ele>1152.5</ele>
        <time>2024-08-27T09:38:27Z</time>
      </trkpt>
      <trkpt lat="44.88965" lon="5.94185">
        <ele>1152.6</ele>
        <time>2024-08-27T09:38:28Z</time>
      </trkpt>
      <trkpt lat="44.88969" lon="5.94186">
        <ele>1152.9</ele>
        <time>2024-08-27T09:38:29Z</time>
      </trkpt>
      <trkpt lat="44.8897" lon="5.94186">
        <ele>1153</ele>
        <time>2024-08-27T09:38:30Z</time>
      </trkpt>
      <trkpt lat="44.88973" lon="5.94187">
        <ele>1153.2</ele>
        <time>2024-08-27T09:38:31Z</time>
      </trkpt>
      <trkpt lat="44.88975" lon="5.94187">
        <ele>1153.3</ele>
        <time>2024-08-27T09:38:32Z</time>
      </trkpt>
      <trkpt lat="44.88978" lon="5.94187">
        <ele>1153.5</ele>
        <time>2024-08-27T09:38:33Z</time>
      </trkpt>
      <trkpt lat="44.88979" lon="5.94187">
        <ele>1153.6</ele>
        <time>2024-08-27T09:38:34Z</time>
      </trkpt>
      <trkpt lat="44.88982" lon="5.94187">
        <ele>1153.8</ele>
        <time>2024-08-27T09:38:35Z</time>
      </trkpt>
      <trkpt lat="44.88984" lon="5.94187">
        <ele>1153.9</ele>
        <time>2024-08-27T09:38:36Z</time>
      </trkpt>
      <trkpt lat="44.88986" lon="5.94188">
        <ele>1154.1</ele>
        <time>2024-08-27T09:38:37Z</time>
      </trkpt>
      <trkpt lat="44.88989" lon="5.94188">
        <ele>1154.3</ele>
        <time>2024-08-27T09:38:38Z</time>
      </trkpt>
      <trkpt lat="44.88992" lon="5.94189">
        <ele>1154.4</ele>
        <time>2024-08-27T09:38:39Z</time>
      </trkpt>
      <trkpt lat="44.88995" lon="5.94189">
        <ele>1154.6</ele>
        <time>2024-08-27T09:38:40Z</time>
      </trkpt>
      <trkpt lat="44.88997" lon="5.94189">
        <ele>1154.7</ele>
        <time>2024-08-27T09:38:41Z</time>
      </trkpt>
      <trkpt lat="44.89" lon="5.94188">
        <ele>1154.9</ele>
        <time>2024-08-27T09:38:42Z</time>
      </trkpt>
      <trkpt lat="44.89003" lon="5.94187">
        <ele>1155.1</ele>
        <time>2024-08-27T09:38:43Z</time>
      </trkpt>
      <trkpt lat="44.89006" lon="5.94186">
        <ele>1155.2</ele>
        <time>2024-08-27T09:38:44Z</time>
      </trkpt>
      <trkpt lat="44.89009" lon="5.94185">
        <ele>1155.5</ele>
        <time>2024-08-27T09:38:45Z</time>
      </trkpt>
      <trkpt lat="44.89012" lon="5.94183">
        <ele>1155.7</ele>
        <time>2024-08-27T09:38:46Z</time>
      </trkpt>
      <trkpt lat="44.89013" lon="5.94183">
        <ele>1155.8</ele>
        <time>2024-08-27T09:38:47Z</time>
      </trkpt>
      <trkpt lat="44.89017" lon="5.94182">
        <ele>1156.1</ele>
        <time>2024-08-27T09:38:48Z</time>
      </trkpt>
      <trkpt lat="44.89018" lon="5.94182">
        <ele>1156.3</ele>
        <time>2024-08-27T09:38:49Z</time>
      </trkpt>
      <trkpt lat="44.89022" lon="5.94181">
        <ele>1156.6</ele>
        <time>2024-08-27T09:38:50Z</time>
      </trkpt>
      <trkpt lat="44.89024" lon="5.94182">
        <ele>1156.8</ele>
        <time>2024-08-27T09:38:51Z</time>
      </trkpt>
      <trkpt lat="44.89026" lon="5.94185">
        <ele>1157.1</ele>
        <time>2024-08-27T09:38:52Z</time>
      </trkpt>
      <trkpt lat="44.89027" lon="5.94186">
        <ele>1157.2</ele>
        <time>2024-08-27T09:38:53Z</time>
      </trkpt>
      <trkpt lat="44.89027" lon="5.94192">
        <ele>1157.6</ele>
        <time>2024-08-27T09:38:54Z</time>
      </trkpt>
      <trkpt lat="44.89027" lon="5.94193">
        <ele>1157.7</ele>
        <time>2024-08-27T09:38:55Z</time>
      </trkpt>
      <trkpt lat="44.89025" lon="5.94197">
        <ele>1158.1</ele>
        <time>2024-08-27T09:38:56Z</time>
      </trkpt>
      <trkpt lat="44.89024" lon="5.94198">
        <ele>1158.2</ele>
        <time>2024-08-27T09:38:57Z</time>
      </trkpt>
      <trkpt lat="44.89021" lon="5.942">
        <ele>1158.5</ele>
        <time>2024-08-27T09:38:58Z</time>
      </trkpt>
      <trkpt lat="44.89018" lon="5.94202">
        <ele>1158.8</ele>
        <time>2024-08-27T09:38:59Z</time>
      </trkpt>
      <trkpt lat="44.89015" lon="5.94204">
        <ele>1159.1</ele>
        <time>2024-08-27T09:39:00Z</time>
      </trkpt>
      <trkpt lat="44.89013" lon="5.94204">
        <ele>1159.2</ele>
        <time>2024-08-27T09:39:01Z</time>
      </trkpt>
      <trkpt lat="44.8901" lon="5.94205">
        <ele>1159.5</ele>
        <time>2024-08-27T09:39:02Z</time>
      </trkpt>
      <trkpt lat="44.89006" lon="5.94206">
        <ele>1159.8</ele>
        <time>2024-08-27T09:39:03Z</time>
      </trkpt>
      <trkpt lat="44.89005" lon="5.94206">
        <ele>1159.9</ele>
        <time>2024-08-27T09:39:04Z</time>
      </trkpt>
      <trkpt lat="44.89002" lon="5.94206">
        <ele>1160.2</ele>
        <time>2024-08-27T09:39:05Z</time>
      </trkpt>
      <trkpt lat="44.88998" lon="5.94206">
        <ele>1160.5</ele>
        <time>2024-08-27T09:39:06Z</time>
      </trkpt>
      <trkpt lat="44.88997" lon="5.94207">
        <ele>1160.6</ele>
        <time>2024-08-27T09:39:07Z</time>
      </trkpt>
      <trkpt lat="44.88994" lon="5.94207">
        <ele>1160.9</ele>
        <time>2024-08-27T09:39:08Z</time>
      </trkpt>
      <trkpt lat="44.88992" lon="5.94207">
        <ele>1161</ele>
        <time>2024-08-27T09:39:09Z</time>
      </trkpt>
      <trkpt lat="44.88989" lon="5.94206">
        <ele>1161.3</ele>
        <time>2024-08-27T09:39:10Z</time>
      </trkpt>
      <trkpt lat="44.88987" lon="5.94206">
        <ele>1161.4</ele>
        <time>2024-08-27T09:39:11Z</time>
      </trkpt>
      <trkpt lat="44.88984" lon="5.94206">
        <ele>1161.7</ele>
        <time>2024-08-27T09:39:12Z</time>
      </trkpt>
      <trkpt lat="44.88982" lon="5.94206">
        <ele>1161.8</ele>
        <time>2024-08-27T09:39:13Z</time>
      </trkpt>
      <trkpt lat="44.88979" lon="5.94207">
        <ele>1162.1</ele>
        <time>2024-08-27T09:39:14Z</time>
      </trkpt>
      <trkpt lat="44.88978" lon="5.94207">
        <ele>1162.2</ele>
        <time>2024-08-27T09:39:15Z</time>
      </trkpt>
      <trkpt lat="44.88975" lon="5.94206">
        <ele>1162.4</ele>
        <time>2024-08-27T09:39:16Z</time>
      </trkpt>
      <trkpt lat="44.88974" lon="5.94206">
        <ele>1162.5</ele>
        <time>2024-08-27T09:39:17Z</time>
      </trkpt>
      <trkpt lat="44.88971" lon="5.94205">
        <ele>1162.8</ele>
        <time>2024-08-27T09:39:18Z</time>
      </trkpt>
      <trkpt lat="44.8897" lon="5.94205">
        <ele>1162.9</ele>
        <time>2024-08-27T09:39:19Z</time>
      </trkpt>
      <trkpt lat="44.88967" lon="5.94204">
        <ele>1163.2</ele>
        <time>2024-08-27T09:39:20Z</time>
      </trkpt>
      <trkpt lat="44.88966" lon="5.94204">
        <ele>1163.3</ele>
        <time>2024-08-27T09:39:21Z</time>
      </trkpt>
      <trkpt lat="44.88963" lon="5.94204">
        <ele>1163.6</ele>
        <time>2024-08-27T09:39:22Z</time>
      </trkpt>
      <trkpt lat="44.88962" lon="5.94204">
        <ele>1163.7</ele>
        <time>2024-08-27T09:39:23Z</time>
      </trkpt>
      <trkpt lat="44.8896" lon="5.94204">
        <ele>1163.9</ele>
        <time>2024-08-27T09:39:24Z</time>
      </trkpt>
      <trkpt lat="44.88959" lon="5.94204">
        <ele>1164.1</ele>
        <time>2024-08-27T09:39:25Z</time>
      </trkpt>
      <trkpt lat="44.88956" lon="5.94204">
        <ele>1164.4</ele>
        <time>2024-08-27T09:39:26Z</time>
      </trkpt>
      <trkpt lat="44.88955" lon="5.94204">
        <ele>1164.5</ele>
        <time>2024-08-27T09:39:27Z</time>
      </trkpt>
      <trkpt lat="44.88952" lon="5.94204">
        <ele>1164.8</ele>
        <time>2024-08-27T09:39:28Z</time>
      </trkpt>
      <trkpt lat="44.88951" lon="5.94205">
        <ele>1164.9</ele>
        <time>2024-08-27T09:39:29Z</time>
      </trkpt>
      <trkpt lat="44.88948" lon="5.94205">
        <ele>1165.2</ele>
        <time>2024-08-27T09:39:30Z</time>
      </trkpt>
      <trkpt lat="44.88947" lon="5.94205">
        <ele>1165.3</ele>
        <time>2024-08-27T09:39:31Z</time>
      </trkpt>
      <trkpt lat="44.88944" lon="5.94205">
        <ele>1165.6</ele>
        <time>2024-08-27T09:39:32Z</time>
      </trkpt>
      <trkpt lat="44.88943" lon="5.94206">
        <ele>1165.7</ele>
        <time>2024-08-27T09:39:33Z</time>
      </trkpt>
      <trkpt lat="44.8894" lon="5.94205">
        <ele>1166</ele>
        <time>2024-08-27T09:39:34Z</time>
      </trkpt>
      <trkpt lat="44.88939" lon="5.94205">
        <ele>1166.2</ele>
        <time>2024-08-27T09:39:35Z</time>
      </trkpt>
      <trkpt lat="44.88936" lon="5.94205">
        <ele>1166.5</ele>
        <time>2024-08-27T09:39:36Z</time>
      </trkpt>
      <trkpt lat="44.88935" lon="5.94204">
        <ele>1166.6</ele>
        <time>2024-08-27T09:39:37Z</time>
      </trkpt>
      <trkpt lat="44.88933" lon="5.94204">
        <ele>1166.8</ele>
        <time>2024-08-27T09:39:38Z</time>
      </trkpt>
      <trkpt lat="44.88932" lon="5.94204">
        <ele>1166.9</ele>
        <time>2024-08-27T09:39:39Z</time>
      </trkpt>
      <trkpt lat="44.8893" lon="5.94205">
        <ele>1167.1</ele>
        <time>2024-08-27T09:39:40Z</time>
      </trkpt>
      <trkpt lat="44.88928" lon="5.94205">
        <ele>1167.3</ele>
        <time>2024-08-27T09:39:41Z</time>
      </trkpt>
      <trkpt lat="44.88925" lon="5.94205">
        <ele>1167.6</ele>
        <time>2024-08-27T09:39:42Z</time>
      </trkpt>
      <trkpt lat="44.88924" lon="5.94205">
        <ele>1167.7</ele>
        <time>2024-08-27T09:39:43Z</time>
      </trkpt>
      <trkpt lat="44.88922" lon="5.94206">
        <ele>1168.1</ele>
        <time>2024-08-27T09:39:44Z</time>
      </trkpt>
      <trkpt lat="44.88921" lon="5.94206">
        <ele>1168.2</ele>
        <time>2024-08-27T09:39:45Z</time>
      </trkpt>
      <trkpt lat="44.88918" lon="5.94206">
        <ele>1168.5</ele>
        <time>2024-08-27T09:39:46Z</time>
      </trkpt>
      <trkpt lat="44.88917" lon="5.94206">
        <ele>1168.6</ele>
        <time>2024-08-27T09:39:47Z</time>
      </trkpt>
      <trkpt lat="44.88914" lon="5.94206">
        <ele>1168.9</ele>
        <time>2024-08-27T09:39:48Z</time>
      </trkpt>
      <trkpt lat="44.88913" lon="5.94207">
        <ele>1169</ele>
        <time>2024-08-27T09:39:49Z</time>
      </trkpt>
      <trkpt lat="44.8891" lon="5.94207">
        <ele>1169.3</ele>
        <time>2024-08-27T09:39:50Z</time>
      </trkpt>
      <trkpt lat="44.88909" lon="5.94207">
        <ele>1169.5</ele>
        <time>2024-08-27T09:39:51Z</time>
      </trkpt>
      <trkpt lat="44.88906" lon="5.94207">
        <ele>1169.8</ele>
        <time>2024-08-27T09:39:52Z</time>
      </trkpt>
      <trkpt lat="44.88905" lon="5.94207">
        <ele>1169.9</ele>
        <time>2024-08-27T09:39:53Z</time>
      </trkpt>
      <trkpt lat="44.88902" lon="5.94207">
        <ele>1170.2</ele>
        <time>2024-08-27T09:39:54Z</time>
      </trkpt>
      <trkpt lat="44.88901" lon="5.94207">
        <ele>1170.3</ele>
        <time>2024-08-27T09:39:55Z</time>
      </trkpt>
      <trkpt lat="44.88899" lon="5.94206">
        <ele>1170.5</ele>
        <time>2024-08-27T09:39:56Z</time>
      </trkpt>
      <trkpt lat="44.88898" lon="5.94206">
        <ele>1170.7</ele>
        <time>2024-08-27T09:39:57Z</time>
      </trkpt>
      <trkpt lat="44.88895" lon="5.94206">
        <ele>1171</ele>
        <time>2024-08-27T09:39:58Z</time>
      </trkpt>
      <trkpt lat="44.88894" lon="5.94206">
        <ele>1171.1</ele>
        <time>2024-08-27T09:39:59Z</time>
      </trkpt>
      <trkpt lat="44.88892" lon="5.94205">
        <ele>1171.4</ele>
        <time>2024-08-27T09:40:00Z</time>
      </trkpt>
      <trkpt lat="44.88891" lon="5.94205">
        <ele>1171.5</ele>
        <time>2024-08-27T09:40:01Z</time>
      </trkpt>
      <trkpt lat="44.88889" lon="5.94205">
        <ele>1171.7</ele>
        <time>2024-08-27T09:40:02Z</time>
      </trkpt>
      <trkpt lat="44.88887" lon="5.94204">
        <ele>1172</ele>
        <time>2024-08-27T09:40:03Z</time>
      </trkpt>
      <trkpt lat="44.88884" lon="5.94204">
        <ele>1172.3</ele>
        <time>2024-08-27T09:40:04Z</time>
      </trkpt>
      <trkpt lat="44.88883" lon="5.94203">
        <ele>1172.4</ele>
        <time>2024-08-27T09:40:05Z</time>
      </trkpt>
      <trkpt lat="44.8888" lon="5.94203">
        <ele>1172.8</ele>
        <time>2024-08-27T09:40:06Z</time>
      </trkpt>
      <trkpt lat="44.88879" lon="5.94203">
        <ele>1172.9</ele>
        <time>2024-08-27T09:40:07Z</time>
      </trkpt>
      <trkpt lat="44.88877" lon="5.94203">
        <ele>1173.2</ele>
        <time>2024-08-27T09:40:08Z</time>
      </trkpt>
      <trkpt lat="44.88876" lon="5.94203">
        <ele>1173.3</ele>
        <time>2024-08-27T09:40:09Z</time>
      </trkpt>
      <trkpt lat="44.88873" lon="5.94203">
        <ele>1173.7</ele>
        <time>2024-08-27T09:40:10Z</time>
      </trkpt>
      <trkpt lat="44.88872" lon="5.94203">
        <ele>1173.8</ele>
        <time>2024-08-27T09:40:11Z</time>
      </trkpt>
      <trkpt lat="44.88869" lon="5.94203">
        <ele>1174.1</ele>
        <time>2024-08-27T09:40:12Z</time>
      </trkpt>
      <trkpt lat="44.88868" lon="5.94203">
        <ele>1174.2</ele>
        <time>2024-08-27T09:40:13Z</time>
      </trkpt>
      <trkpt lat="44.88865" lon="5.94202">
        <ele>1174.6</ele>
        <time>2024-08-27T09:40:14Z</time>
      </trkpt>
      <trkpt lat="44.88864" lon="5.94202">
        <ele>1174.7</ele>
        <time>2024-08-27T09:40:15Z</time>
      </trkpt>
      <trkpt lat="44.88861" lon="5.94201">
        <ele>1175</ele>
        <time>2024-08-27T09:40:16Z</time>
      </trkpt>
      <trkpt lat="44.8886" lon="5.94201">
        <ele>1175.2</ele>
        <time>2024-08-27T09:40:17Z</time>
      </trkpt>
      <trkpt lat="44.88857" lon="5.942">
        <ele>1175.5</ele>
        <time>2024-08-27T09:40:18Z</time>
      </trkpt>
      <trkpt lat="44.88856" lon="5.942">
        <ele>1175.7</ele>
        <time>2024-08-27T09:40:19Z</time>
      </trkpt>
      <trkpt lat="44.88853" lon="5.942">
        <ele>1176</ele>
        <time>2024-08-27T09:40:20Z</time>
      </trkpt>
      <trkpt lat="44.88852" lon="5.942">
        <ele>1176.1</ele>
        <time>2024-08-27T09:40:21Z</time>
      </trkpt>
      <trkpt lat="44.8885" lon="5.94201">
        <ele>1176.4</ele>
        <time>2024-08-27T09:40:22Z</time>
      </trkpt>
      <trkpt lat="44.88849" lon="5.94202">
        <ele>1176.6</ele>
        <time>2024-08-27T09:40:23Z</time>
      </trkpt>
      <trkpt lat="44.88846" lon="5.94202">
        <ele>1177</ele>
        <time>2024-08-27T09:40:24Z</time>
      </trkpt>
      <trkpt lat="44.88845" lon="5.94202">
        <ele>1177.1</ele>
        <time>2024-08-27T09:40:25Z</time>
      </trkpt>
      <trkpt lat="44.88842" lon="5.94201">
        <ele>1177.5</ele>
        <time>2024-08-27T09:40:26Z</time>
      </trkpt>
      <trkpt lat="44.88841" lon="5.94201">
        <ele>1177.6</ele>
        <time>2024-08-27T09:40:27Z</time>
      </trkpt>
      <trkpt lat="44.88838" lon="5.942">
        <ele>1178.1</ele>
        <time>2024-08-27T09:40:28Z</time>
      </trkpt>
      <trkpt lat="44.88837" lon="5.942">
        <ele>1178.2</ele>
        <time>2024-08-27T09:40:29Z</time>
      </trkpt>
      <trkpt lat="44.88836" lon="5.942">
        <ele>1178.4</ele>
        <time>2024-08-27T09:40:30Z</time>
      </trkpt>
      <trkpt lat="44.88834" lon="5.942">
        <ele>1178.7</ele>
        <time>2024-08-27T09:40:31Z</time>
      </trkpt>
      <trkpt lat="44.88831" lon="5.94199">
        <ele>1179.1</ele>
        <time>2024-08-27T09:40:32Z</time>
      </trkpt>
      <trkpt lat="44.88831" lon="5.94199">
        <ele>1179.2</ele>
        <time>2024-08-27T09:40:33Z</time>
      </trkpt>
      <trkpt lat="44.88829" lon="5.94198">
        <ele>1179.4</ele>
        <time>2024-08-27T09:40:34Z</time>
      </trkpt>
      <trkpt lat="44.88827" lon="5.94197">
        <ele>1179.7</ele>
        <time>2024-08-27T09:40:35Z</time>
      </trkpt>
      <trkpt lat="44.88825" lon="5.94195">
        <ele>1180.1</ele>
        <time>2024-08-27T09:40:36Z</time>
      </trkpt>
      <trkpt lat="44.88824" lon="5.94194">
        <ele>1180.2</ele>
        <time>2024-08-27T09:40:37Z</time>
      </trkpt>
      <trkpt lat="44.88822" lon="5.94192">
        <ele>1180.6</ele>
        <time>2024-08-27T09:40:38Z</time>
      </trkpt>
      <trkpt lat="44.88821" lon="5.94192">
        <ele>1180.8</ele>
        <time>2024-08-27T09:40:39Z</time>
      </trkpt>
      <trkpt lat="44.88819" lon="5.94191">
        <ele>1181</ele>
        <time>2024-08-27T09:40:40Z</time>
      </trkpt>
      <trkpt lat="44.88818" lon="5.94189">
        <ele>1181.2</ele>
        <time>2024-08-27T09:40:41Z</time>
      </trkpt>
      <trkpt lat="44.88815" lon="5.94187">
        <ele>1181.6</ele>
        <time>2024-08-27T09:40:42Z</time>
      </trkpt>
      <trkpt lat="44.88815" lon="5.94186">
        <ele>1181.8</ele>
        <time>2024-08-27T09:40:43Z</time>
      </trkpt>
      <trkpt lat="44.88813" lon="5.94185">
        <ele>1182</ele>
        <time>2024-08-27T09:40:44Z</time>
      </trkpt>
      <trkpt lat="44.88812" lon="5.94183">
        <ele>1182.2</ele>
        <time>2024-08-27T09:40:45Z</time>
      </trkpt>
      <trkpt lat="44.88811" lon="5.94181">
        <ele>1182.4</ele>
        <time>2024-08-27T09:40:46Z</time>
      </trkpt>
      <trkpt lat="44.88809" lon="5.9418">
        <ele>1182.7</ele>
        <time>2024-08-27T09:40:47Z</time>
      </trkpt>
      <trkpt lat="44.88808" lon="5.94178">
        <ele>1182.9</ele>
        <time>2024-08-27T09:40:48Z</time>
      </trkpt>
      <trkpt lat="44.88807" lon="5.94176">
        <ele>1183.1</ele>
        <time>2024-08-27T09:40:49Z</time>
      </trkpt>
      <trkpt lat="44.88806" lon="5.94172">
        <ele>1183.5</ele>
        <time>2024-08-27T09:40:50Z</time>
      </trkpt>
      <trkpt lat="44.88805" lon="5.94171">
        <ele>1183.6</ele>
        <time>2024-08-27T09:40:51Z</time>
      </trkpt>
      <trkpt lat="44.88804" lon="5.94169">
        <ele>1183.8</ele>
        <time>2024-08-27T09:40:52Z</time>
      </trkpt>
      <trkpt lat="44.88803" lon="5.94167">
        <ele>1184</ele>
        <time>2024-08-27T09:40:53Z</time>
      </trkpt>
      <trkpt lat="44.88802" lon="5.94165">
        <ele>1184.2</ele>
        <time>2024-08-27T09:40:54Z</time>
      </trkpt>
      <trkpt lat="44.88801" lon="5.94163">
        <ele>1184.5</ele>
        <time>2024-08-27T09:40:55Z</time>
      </trkpt>
      <trkpt lat="44.888" lon="5.94161">
        <ele>1184.7</ele>
        <time>2024-08-27T09:40:56Z</time>
      </trkpt>
      <trkpt lat="44.888" lon="5.94159">
        <ele>1184.9</ele>
        <time>2024-08-27T09:40:57Z</time>
      </trkpt>
      <trkpt lat="44.88799" lon="5.94157">
        <ele>1185.1</ele>
        <time>2024-08-27T09:40:58Z</time>
      </trkpt>
      <trkpt lat="44.88798" lon="5.94155">
        <ele>1185.3</ele>
        <time>2024-08-27T09:40:59Z</time>
      </trkpt>
      <trkpt lat="44.88797" lon="5.94151">
        <ele>1185.6</ele>
        <time>2024-08-27T09:41:00Z</time>
      </trkpt>
      <trkpt lat="44.88796" lon="5.9415">
        <ele>1185.7</ele>
        <time>2024-08-27T09:41:01Z</time>
      </trkpt>
      <trkpt lat="44.88795" lon="5.94149">
        <ele>1185.9</ele>
        <time>2024-08-27T09:41:02Z</time>
      </trkpt>
      <trkpt lat="44.88794" lon="5.94147">
        <ele>1186.1</ele>
        <time>2024-08-27T09:41:03Z</time>
      </trkpt>
      <trkpt lat="44.88793" lon="5.94145">
        <ele>1186.4</ele>
        <time>2024-08-27T09:41:04Z</time>
      </trkpt>
      <trkpt lat="44.88793" lon="5.94143">
        <ele>1186.5</ele>
        <time>2024-08-27T09:41:05Z</time>
      </trkpt>
      <trkpt lat="44.88792" lon="5.94141">
        <ele>1186.7</ele>
        <time>2024-08-27T09:41:06Z</time>
      </trkpt>
      <trkpt lat="44.88791" lon="5.94139">
        <ele>1186.9</ele>
        <time>2024-08-27T09:41:07Z</time>
      </trkpt>
      <trkpt lat="44.8879" lon="5.94137">
        <ele>1187.1</ele>
        <time>2024-08-27T09:41:08Z</time>
      </trkpt>
      <trkpt lat="44.88789" lon="5.94135">
        <ele>1187.3</ele>
        <time>2024-08-27T09:41:09Z</time>
      </trkpt>
      <trkpt lat="44.88788" lon="5.94131">
        <ele>1187.7</ele>
        <time>2024-08-27T09:41:10Z</time>
      </trkpt>
      <trkpt lat="44.88787" lon="5.9413">
        <ele>1187.8</ele>
        <time>2024-08-27T09:41:11Z</time>
      </trkpt>
      <trkpt lat="44.88786" lon="5.94129">
        <ele>1188</ele>
        <time>2024-08-27T09:41:12Z</time>
      </trkpt>
      <trkpt lat="44.88785" lon="5.94128">
        <ele>1188.1</ele>
        <time>2024-08-27T09:41:13Z</time>
      </trkpt>
      <trkpt lat="44.88784" lon="5.94126">
        <ele>1188.3</ele>
        <time>2024-08-27T09:41:14Z</time>
      </trkpt>
      <trkpt lat="44.88783" lon="5.94125">
        <ele>1188.5</ele>
        <time>2024-08-27T09:41:15Z</time>
      </trkpt>
      <trkpt lat="44.88782" lon="5.94123">
        <ele>1188.7</ele>
        <time>2024-08-27T09:41:16Z</time>
      </trkpt>
      <trkpt lat="44.88781" lon="5.94122">
        <ele>1188.8</ele>
        <time>2024-08-27T09:41:17Z</time>
      </trkpt>
      <trkpt lat="44.88779" lon="5.94121">
        <ele>1189</ele>
        <time>2024-08-27T09:41:18Z</time>
      </trkpt>
      <trkpt lat="44.88778" lon="5.94119">
        <ele>1189.1</ele>
        <time>2024-08-27T09:41:19Z</time>
      </trkpt>
      <trkpt lat="44.88777" lon="5.94119">
        <ele>1189.3</ele>
        <time>2024-08-27T09:41:20Z</time>
      </trkpt>
      <trkpt lat="44.88776" lon="5.94117">
        <ele>1189.4</ele>
        <time>2024-08-27T09:41:21Z</time>
      </trkpt>
      <trkpt lat="44.88775" lon="5.94116">
        <ele>1189.6</ele>
        <time>2024-08-27T09:41:22Z</time>
      </trkpt>
      <trkpt lat="44.88773" lon="5.94115">
        <ele>1189.8</ele>
        <time>2024-08-27T09:41:23Z</time>
      </trkpt>
      <trkpt lat="44.88772" lon="5.94114">
        <ele>1190</ele>
        <time>2024-08-27T09:41:24Z</time>
      </trkpt>
      <trkpt lat="44.88771" lon="5.94112">
        <ele>1190.1</ele>
        <time>2024-08-27T09:41:25Z</time>
      </trkpt>
      <trkpt lat="44.88769" lon="5.94111">
        <ele>1190.3</ele>
        <time>2024-08-27T09:41:26Z</time>
      </trkpt>
      <trkpt lat="44.88768" lon="5.94111">
        <ele>1190.5</ele>
        <time>2024-08-27T09:41:27Z</time>
      </trkpt>
      <trkpt lat="44.88766" lon="5.9411">
        <ele>1190.7</ele>
        <time>2024-08-27T09:41:28Z</time>
      </trkpt>
      <trkpt lat="44.88765" lon="5.94109">
        <ele>1190.9</ele>
        <time>2024-08-27T09:41:29Z</time>
      </trkpt>
      <trkpt lat="44.88763" lon="5.94108">
        <ele>1191.1</ele>
        <time>2024-08-27T09:41:30Z</time>
      </trkpt>
      <trkpt lat="44.88762" lon="5.94107">
        <ele>1191.2</ele>
        <time>2024-08-27T09:41:31Z</time>
      </trkpt>
      <trkpt lat="44.88761" lon="5.94106">
        <ele>1191.4</ele>
        <time>2024-08-27T09:41:32Z</time>
      </trkpt>
      <trkpt lat="44.88759" lon="5.94104">
        <ele>1191.6</ele>
        <time>2024-08-27T09:41:33Z</time>
      </trkpt>
      <trkpt lat="44.88758" lon="5.94103">
        <ele>1191.8</ele>
        <time>2024-08-27T09:41:34Z</time>
      </trkpt>
      <trkpt lat="44.88757" lon="5.94102">
        <ele>1192</ele>
        <time>2024-08-27T09:41:35Z</time>
      </trkpt>
      <trkpt lat="44.88755" lon="5.94101">
        <ele>1192.2</ele>
        <time>2024-08-27T09:41:36Z</time>
      </trkpt>
      <trkpt lat="44.88754" lon="5.941">
        <ele>1192.5</ele>
        <time>2024-08-27T09:41:37Z</time>
      </trkpt>
      <trkpt lat="44.88751" lon="5.94097">
        <ele>1192.8</ele>
        <time>2024-08-27T09:41:38Z</time>
      </trkpt>
      <trkpt lat="44.88751" lon="5.94097">
        <ele>1192.9</ele>
        <time>2024-08-27T09:41:39Z</time>
      </trkpt>
      <trkpt lat="44.88749" lon="5.94096">
        <ele>1193.2</ele>
        <time>2024-08-27T09:41:40Z</time>
      </trkpt>
      <trkpt lat="44.88748" lon="5.94095">
        <ele>1193.4</ele>
        <time>2024-08-27T09:41:41Z</time>
      </trkpt>
      <trkpt lat="44.88746" lon="5.94094">
        <ele>1193.6</ele>
        <time>2024-08-27T09:41:42Z</time>
      </trkpt>
      <trkpt lat="44.88745" lon="5.94092">
        <ele>1193.8</ele>
        <time>2024-08-27T09:41:43Z</time>
      </trkpt>
      <trkpt lat="44.88744" lon="5.94091">
        <ele>1194</ele>
        <time>2024-08-27T09:41:44Z</time>
      </trkpt>
      <trkpt lat="44.88742" lon="5.9409">
        <ele>1194.2</ele>
        <time>2024-08-27T09:41:45Z</time>
      </trkpt>
      <trkpt lat="44.88741" lon="5.94088">
        <ele>1194.5</ele>
        <time>2024-08-27T09:41:46Z</time>
      </trkpt>
      <trkpt lat="44.88739" lon="5.94087">
        <ele>1194.7</ele>
        <time>2024-08-27T09:41:47Z</time>
      </trkpt>
      <trkpt lat="44.88738" lon="5.94086">
        <ele>1194.9</ele>
        <time>2024-08-27T09:41:48Z</time>
      </trkpt>
      <trkpt lat="44.88736" lon="5.94085">
        <ele>1195.1</ele>
        <time>2024-08-27T09:41:49Z</time>
      </trkpt>
      <trkpt lat="44.88735" lon="5.94084">
        <ele>1195.3</ele>
        <time>2024-08-27T09:41:50Z</time>
      </trkpt>
      <trkpt lat="44.88734" lon="5.94083">
        <ele>1195.5</ele>
        <time>2024-08-27T09:41:51Z</time>
      </trkpt>
      <trkpt lat="44.88733" lon="5.94082">
        <ele>1195.7</ele>
        <time>2024-08-27T09:41:52Z</time>
      </trkpt>
      <trkpt lat="44.88731" lon="5.94081">
        <ele>1195.9</ele>
        <time>2024-08-27T09:41:53Z</time>
      </trkpt>
      <trkpt lat="44.8873" lon="5.94079">
        <ele>1196.1</ele>
        <time>2024-08-27T09:41:54Z</time>
      </trkpt>
      <trkpt lat="44.88728" lon="5.94078">
        <ele>1196.4</ele>
        <time>2024-08-27T09:41:55Z</time>
      </trkpt>
      <trkpt lat="44.88727" lon="5.94077">
        <ele>1196.6</ele>
        <time>2024-08-27T09:41:56Z</time>
      </trkpt>
      <trkpt lat="44.88725" lon="5.94076">
        <ele>1196.8</ele>
        <time>2024-08-27T09:41:57Z</time>
      </trkpt>
      <trkpt lat="44.88724" lon="5.94075">
        <ele>1197</ele>
        <time>2024-08-27T09:41:58Z</time>
      </trkpt>
      <trkpt lat="44.88723" lon="5.94074">
        <ele>1197.2</ele>
        <time>2024-08-27T09:41:59Z</time>
      </trkpt>
      <trkpt lat="44.88721" lon="5.94073">
        <ele>1197.3</ele>
        <time>2024-08-27T09:42:00Z</time>
      </trkpt>
      <trkpt lat="44.8872" lon="5.94073">
        <ele>1197.5</ele>
        <time>2024-08-27T09:42:01Z</time>
      </trkpt>
      <trkpt lat="44.88718" lon="5.94071">
        <ele>1197.7</ele>
        <time>2024-08-27T09:42:02Z</time>
      </trkpt>
      <trkpt lat="44.88717" lon="5.94069">
        <ele>1198</ele>
        <time>2024-08-27T09:42:03Z</time>
      </trkpt>
      <trkpt lat="44.88716" lon="5.94068">
        <ele>1198.1</ele>
        <time>2024-08-27T09:42:04Z</time>
      </trkpt>
      <trkpt lat="44.88715" lon="5.94066">
        <ele>1198.3</ele>
        <time>2024-08-27T09:42:05Z</time>
      </trkpt>
      <trkpt lat="44.88713" lon="5.94065">
        <ele>1198.5</ele>
        <time>2024-08-27T09:42:06Z</time>
      </trkpt>
      <trkpt lat="44.88712" lon="5.94064">
        <ele>1198.7</ele>
        <time>2024-08-27T09:42:07Z</time>
      </trkpt>
      <trkpt lat="44.8871" lon="5.94063">
        <ele>1198.9</ele>
        <time>2024-08-27T09:42:08Z</time>
      </trkpt>
      <trkpt lat="44.88709" lon="5.94062">
        <ele>1199.1</ele>
        <time>2024-08-27T09:42:09Z</time>
      </trkpt>
      <trkpt lat="44.88708" lon="5.94061">
        <ele>1199.3</ele>
        <time>2024-08-27T09:42:10Z</time>
      </trkpt>
      <trkpt lat="44.88707" lon="5.94059">
        <ele>1199.5</ele>
        <time>2024-08-27T09:42:11Z</time>
      </trkpt>
      <trkpt lat="44.88705" lon="5.94057">
        <ele>1199.7</ele>
        <time>2024-08-27T09:42:12Z</time>
      </trkpt>
      <trkpt lat="44.88704" lon="5.94056">
        <ele>1199.9</ele>
        <time>2024-08-27T09:42:13Z</time>
      </trkpt>
      <trkpt lat="44.88702" lon="5.94054">
        <ele>1200.1</ele>
        <time>2024-08-27T09:42:14Z</time>
      </trkpt>
      <trkpt lat="44.88701" lon="5.94053">
        <ele>1200.3</ele>
        <time>2024-08-27T09:42:15Z</time>
      </trkpt>
      <trkpt lat="44.887" lon="5.94052">
        <ele>1200.5</ele>
        <time>2024-08-27T09:42:16Z</time>
      </trkpt>
      <trkpt lat="44.88698" lon="5.94051">
        <ele>1200.6</ele>
        <time>2024-08-27T09:42:17Z</time>
      </trkpt>
      <trkpt lat="44.88697" lon="5.94049">
        <ele>1200.8</ele>
        <time>2024-08-27T09:42:18Z</time>
      </trkpt>
      <trkpt lat="44.88696" lon="5.94048">
        <ele>1201</ele>
        <time>2024-08-27T09:42:19Z</time>
      </trkpt>
      <trkpt lat="44.88693" lon="5.94045">
        <ele>1201.4</ele>
        <time>2024-08-27T09:42:20Z</time>
      </trkpt>
      <trkpt lat="44.88693" lon="5.94045">
        <ele>1201.5</ele>
        <time>2024-08-27T09:42:21Z</time>
      </trkpt>
      <trkpt lat="44.88691" lon="5.94042">
        <ele>1201.8</ele>
        <time>2024-08-27T09:42:22Z</time>
      </trkpt>
      <trkpt lat="44.8869" lon="5.94041">
        <ele>1201.9</ele>
        <time>2024-08-27T09:42:23Z</time>
      </trkpt>
      <trkpt lat="44.88689" lon="5.9404">
        <ele>1202.1</ele>
        <time>2024-08-27T09:42:24Z</time>
      </trkpt>
      <trkpt lat="44.88687" lon="5.94038">
        <ele>1202.2</ele>
        <time>2024-08-27T09:42:25Z</time>
      </trkpt>
      <trkpt lat="44.88685" lon="5.94036">
        <ele>1202.5</ele>
        <time>2024-08-27T09:42:26Z</time>
      </trkpt>
      <trkpt lat="44.88685" lon="5.94035">
        <ele>1202.6</ele>
        <time>2024-08-27T09:42:27Z</time>
      </trkpt>
      <trkpt lat="44.88682" lon="5.94032">
        <ele>1203</ele>
        <time>2024-08-27T09:42:28Z</time>
      </trkpt>
      <trkpt lat="44.88681" lon="5.94031">
        <ele>1203.1</ele>
        <time>2024-08-27T09:42:29Z</time>
      </trkpt>
      <trkpt lat="44.88679" lon="5.94028">
        <ele>1203.4</ele>
        <time>2024-08-27T09:42:30Z</time>
      </trkpt>
      <trkpt lat="44.88679" lon="5.94027">
        <ele>1203.5</ele>
        <time>2024-08-27T09:42:31Z</time>
      </trkpt>
      <trkpt lat="44.88677" lon="5.94025">
        <ele>1203.8</ele>
        <time>2024-08-27T09:42:32Z</time>
      </trkpt>
      <trkpt lat="44.88676" lon="5.94024">
        <ele>1203.9</ele>
        <time>2024-08-27T09:42:33Z</time>
      </trkpt>
      <trkpt lat="44.88674" lon="5.94021">
        <ele>1204.2</ele>
        <time>2024-08-27T09:42:34Z</time>
      </trkpt>
      <trkpt lat="44.88673" lon="5.9402">
        <ele>1204.3</ele>
        <time>2024-08-27T09:42:35Z</time>
      </trkpt>
      <trkpt lat="44.88671" lon="5.94018">
        <ele>1204.6</ele>
        <time>2024-08-27T09:42:36Z</time>
      </trkpt>
      <trkpt lat="44.88671" lon="5.94016">
        <ele>1204.7</ele>
        <time>2024-08-27T09:42:37Z</time>
      </trkpt>
      <trkpt lat="44.88669" lon="5.94015">
        <ele>1204.9</ele>
        <time>2024-08-27T09:42:38Z</time>
      </trkpt>
      <trkpt lat="44.88668" lon="5.94013">
        <ele>1205.1</ele>
        <time>2024-08-27T09:42:39Z</time>
      </trkpt>
      <trkpt lat="44.88667" lon="5.94011">
        <ele>1205.3</ele>
        <time>2024-08-27T09:42:40Z</time>
      </trkpt>
      <trkpt lat="44.88666" lon="5.94009">
        <ele>1205.5</ele>
        <time>2024-08-27T09:42:41Z</time>
      </trkpt>
      <trkpt lat="44.88665" lon="5.94007">
        <ele>1205.7</ele>
        <time>2024-08-27T09:42:42Z</time>
      </trkpt>
      <trkpt lat="44.88664" lon="5.94005">
        <ele>1205.9</ele>
        <time>2024-08-27T09:42:43Z</time>
      </trkpt>
      <trkpt lat="44.88663" lon="5.94004">
        <ele>1206.1</ele>
        <time>2024-08-27T09:42:44Z</time>
      </trkpt>
      <trkpt lat="44.88661" lon="5.94002">
        <ele>1206.3</ele>
        <time>2024-08-27T09:42:45Z</time>
      </trkpt>
      <trkpt lat="44.8866" lon="5.94">
        <ele>1206.5</ele>
        <time>2024-08-27T09:42:46Z</time>
      </trkpt>
      <trkpt lat="44.88659" lon="5.93998">
        <ele>1206.8</ele>
        <time>2024-08-27T09:42:47Z</time>
      </trkpt>
      <trkpt lat="44.88658" lon="5.93995">
        <ele>1207.1</ele>
        <time>2024-08-27T09:42:48Z</time>
      </trkpt>
      <trkpt lat="44.88658" lon="5.93993">
        <ele>1207.2</ele>
        <time>2024-08-27T09:42:49Z</time>
      </trkpt>
      <trkpt lat="44.88657" lon="5.9399">
        <ele>1207.5</ele>
        <time>2024-08-27T09:42:50Z</time>
      </trkpt>
      <trkpt lat="44.88656" lon="5.93989">
        <ele>1207.6</ele>
        <time>2024-08-27T09:42:51Z</time>
      </trkpt>
      <trkpt lat="44.88656" lon="5.93987">
        <ele>1207.8</ele>
        <time>2024-08-27T09:42:52Z</time>
      </trkpt>
      <trkpt lat="44.88655" lon="5.93984">
        <ele>1208.1</ele>
        <time>2024-08-27T09:42:53Z</time>
      </trkpt>
      <trkpt lat="44.88654" lon="5.9398">
        <ele>1208.4</ele>
        <time>2024-08-27T09:42:54Z</time>
      </trkpt>
      <trkpt lat="44.88653" lon="5.93979">
        <ele>1208.6</ele>
        <time>2024-08-27T09:42:55Z</time>
      </trkpt>
      <trkpt lat="44.88653" lon="5.93977">
        <ele>1208.8</ele>
        <time>2024-08-27T09:42:56Z</time>
      </trkpt>
      <trkpt lat="44.88652" lon="5.93974">
        <ele>1209</ele>
        <time>2024-08-27T09:42:57Z</time>
      </trkpt>
      <trkpt lat="44.88652" lon="5.93972">
        <ele>1209.2</ele>
        <time>2024-08-27T09:42:58Z</time>
      </trkpt>
      <trkpt lat="44.88651" lon="5.9397">
        <ele>1209.4</ele>
        <time>2024-08-27T09:42:59Z</time>
      </trkpt>
      <trkpt lat="44.8865" lon="5.93968">
        <ele>1209.7</ele>
        <time>2024-08-27T09:43:00Z</time>
      </trkpt>
      <trkpt lat="44.8865" lon="5.93966">
        <ele>1209.9</ele>
        <time>2024-08-27T09:43:01Z</time>
      </trkpt>
      <trkpt lat="44.88649" lon="5.93964">
        <ele>1210</ele>
        <time>2024-08-27T09:43:02Z</time>
      </trkpt>
      <trkpt lat="44.88649" lon="5.93961">
        <ele>1210.3</ele>
        <time>2024-08-27T09:43:03Z</time>
      </trkpt>
      <trkpt lat="44.88648" lon="5.93958">
        <ele>1210.6</ele>
        <time>2024-08-27T09:43:04Z</time>
      </trkpt>
      <trkpt lat="44.88648" lon="5.93956">
        <ele>1210.7</ele>
        <time>2024-08-27T09:43:05Z</time>
      </trkpt>
      <trkpt lat="44.88647" lon="5.93953">
        <ele>1211.1</ele>
        <time>2024-08-27T09:43:06Z</time>
      </trkpt>
      <trkpt lat="44.88646" lon="5.93951">
        <ele>1211.2</ele>
        <time>2024-08-27T09:43:07Z</time>
      </trkpt>
      <trkpt lat="44.88646" lon="5.93949">
        <ele>1211.4</ele>
        <time>2024-08-27T09:43:08Z</time>
      </trkpt>
      <trkpt lat="44.88645" lon="5.93947">
        <ele>1211.6</ele>
        <time>2024-08-27T09:43:09Z</time>
      </trkpt>
      <trkpt lat="44.88645" lon="5.93945">
        <ele>1211.8</ele>
        <time>2024-08-27T09:43:10Z</time>
      </trkpt>
      <trkpt lat="44.88644" lon="5.93942">
        <ele>1212</ele>
        <time>2024-08-27T09:43:11Z</time>
      </trkpt>
      <trkpt lat="44.88644" lon="5.9394">
        <ele>1212.2</ele>
        <time>2024-08-27T09:43:12Z</time>
      </trkpt>
      <trkpt lat="44.88643" lon="5.93938">
        <ele>1212.5</ele>
        <time>2024-08-27T09:43:13Z</time>
      </trkpt>
      <trkpt lat="44.88642" lon="5.93935">
        <ele>1212.7</ele>
        <time>2024-08-27T09:43:14Z</time>
      </trkpt>
      <trkpt lat="44.88642" lon="5.93934">
        <ele>1212.8</ele>
        <time>2024-08-27T09:43:15Z</time>
      </trkpt>
      <trkpt lat="44.88641" lon="5.93932">
        <ele>1213</ele>
        <time>2024-08-27T09:43:16Z</time>
      </trkpt>
      <trkpt lat="44.8864" lon="5.9393">
        <ele>1213.2</ele>
        <time>2024-08-27T09:43:17Z</time>
      </trkpt>
      <trkpt lat="44.8864" lon="5.93928">
        <ele>1213.4</ele>
        <time>2024-08-27T09:43:18Z</time>
      </trkpt>
      <trkpt lat="44.88639" lon="5.93925">
        <ele>1213.6</ele>
        <time>2024-08-27T09:43:19Z</time>
      </trkpt>
      <trkpt lat="44.88639" lon="5.93923">
        <ele>1213.9</ele>
        <time>2024-08-27T09:43:20Z</time>
      </trkpt>
      <trkpt lat="44.88639" lon="5.9392">
        <ele>1214</ele>
        <time>2024-08-27T09:43:21Z</time>
      </trkpt>
      <trkpt lat="44.88639" lon="5.93917">
        <ele>1214.4</ele>
        <time>2024-08-27T09:43:22Z</time>
      </trkpt>
      <trkpt lat="44.88639" lon="5.93915">
        <ele>1214.5</ele>
        <time>2024-08-27T09:43:23Z</time>
      </trkpt>
      <trkpt lat="44.8864" lon="5.93911">
        <ele>1214.9</ele>
        <time>2024-08-27T09:43:24Z</time>
      </trkpt>
      <trkpt lat="44.8864" lon="5.9391">
        <ele>1215</ele>
        <time>2024-08-27T09:43:25Z</time>
      </trkpt>
      <trkpt lat="44.8864" lon="5.93905">
        <ele>1215.3</ele>
        <time>2024-08-27T09:43:26Z</time>
      </trkpt>
      <trkpt lat="44.8864" lon="5.93904">
        <ele>1215.4</ele>
        <time>2024-08-27T09:43:27Z</time>
      </trkpt>
      <trkpt lat="44.88639" lon="5.93902">
        <ele>1215.6</ele>
        <time>2024-08-27T09:43:28Z</time>
      </trkpt>
      <trkpt lat="44.88639" lon="5.93899">
        <ele>1215.8</ele>
        <time>2024-08-27T09:43:29Z</time>
      </trkpt>
      <trkpt lat="44.8864" lon="5.93895">
        <ele>1216.2</ele>
        <time>2024-08-27T09:43:30Z</time>
      </trkpt>
      <trkpt lat="44.88641" lon="5.93894">
        <ele>1216.3</ele>
        <time>2024-08-27T09:43:31Z</time>
      </trkpt>
      <trkpt lat="44.88641" lon="5.93891">
        <ele>1216.5</ele>
        <time>2024-08-27T09:43:32Z</time>
      </trkpt>
      <trkpt lat="44.88642" lon="5.9389">
        <ele>1216.7</ele>
        <time>2024-08-27T09:43:33Z</time>
      </trkpt>
      <trkpt lat="44.88643" lon="5.93888">
        <ele>1216.9</ele>
        <time>2024-08-27T09:43:34Z</time>
      </trkpt>
      <trkpt lat="44.88644" lon="5.93886">
        <ele>1217.1</ele>
        <time>2024-08-27T09:43:35Z</time>
      </trkpt>
      <trkpt lat="44.88645" lon="5.93882">
        <ele>1217.4</ele>
        <time>2024-08-27T09:43:36Z</time>
      </trkpt>
      <trkpt lat="44.88645" lon="5.9388">
        <ele>1217.5</ele>
        <time>2024-08-27T09:43:37Z</time>
      </trkpt>
      <trkpt lat="44.88645" lon="5.93876">
        <ele>1217.9</ele>
        <time>2024-08-27T09:43:38Z</time>
      </trkpt>
      <trkpt lat="44.88646" lon="5.93875">
        <ele>1218</ele>
        <time>2024-08-27T09:43:39Z</time>
      </trkpt>
      <trkpt lat="44.88646" lon="5.93871">
        <ele>1218.3</ele>
        <time>2024-08-27T09:43:40Z</time>
      </trkpt>
      <trkpt lat="44.88646" lon="5.9387">
        <ele>1218.4</ele>
        <time>2024-08-27T09:43:41Z</time>
      </trkpt>
      <trkpt lat="44.88646" lon="5.93867">
        <ele>1218.6</ele>
        <time>2024-08-27T09:43:42Z</time>
      </trkpt>
      <trkpt lat="44.88647" lon="5.93865">
        <ele>1218.9</ele>
        <time>2024-08-27T09:43:43Z</time>
      </trkpt>
      <trkpt lat="44.88647" lon="5.93861">
        <ele>1219.2</ele>
        <time>2024-08-27T09:43:44Z</time>
      </trkpt>
      <trkpt lat="44.88647" lon="5.9386">
        <ele>1219.3</ele>
        <time>2024-08-27T09:43:45Z</time>
      </trkpt>
      <trkpt lat="44.88646" lon="5.93856">
        <ele>1219.7</ele>
        <time>2024-08-27T09:43:46Z</time>
      </trkpt>
      <trkpt lat="44.88646" lon="5.93854">
        <ele>1219.8</ele>
        <time>2024-08-27T09:43:47Z</time>
      </trkpt>
      <trkpt lat="44.88645" lon="5.93852">
        <ele>1220</ele>
        <time>2024-08-27T09:43:48Z</time>
      </trkpt>
      <trkpt lat="44.88644" lon="5.9385">
        <ele>1220.2</ele>
        <time>2024-08-27T09:43:49Z</time>
      </trkpt>
      <trkpt lat="44.88643" lon="5.93848">
        <ele>1220.4</ele>
        <time>2024-08-27T09:43:50Z</time>
      </trkpt>
      <trkpt lat="44.88642" lon="5.93846">
        <ele>1220.6</ele>
        <time>2024-08-27T09:43:51Z</time>
      </trkpt>
      <trkpt lat="44.8864" lon="5.93844">
        <ele>1221</ele>
        <time>2024-08-27T09:43:52Z</time>
      </trkpt>
      <trkpt lat="44.88639" lon="5.93843">
        <ele>1221.1</ele>
        <time>2024-08-27T09:43:53Z</time>
      </trkpt>
      <trkpt lat="44.88638" lon="5.93841">
        <ele>1221.3</ele>
        <time>2024-08-27T09:43:54Z</time>
      </trkpt>
      <trkpt lat="44.88637" lon="5.9384">
        <ele>1221.5</ele>
        <time>2024-08-27T09:43:55Z</time>
      </trkpt>
      <trkpt lat="44.88636" lon="5.93839">
        <ele>1221.7</ele>
        <time>2024-08-27T09:43:56Z</time>
      </trkpt>
      <trkpt lat="44.88634" lon="5.93837">
        <ele>1221.9</ele>
        <time>2024-08-27T09:43:57Z</time>
      </trkpt>
      <trkpt lat="44.88633" lon="5.93836">
        <ele>1222.1</ele>
        <time>2024-08-27T09:43:58Z</time>
      </trkpt>
      <trkpt lat="44.88632" lon="5.93834">
        <ele>1222.3</ele>
        <time>2024-08-27T09:43:59Z</time>
      </trkpt>
      <trkpt lat="44.88631" lon="5.93833">
        <ele>1222.5</ele>
        <time>2024-08-27T09:44:00Z</time>
      </trkpt>
      <trkpt lat="44.8863" lon="5.93831">
        <ele>1222.7</ele>
        <time>2024-08-27T09:44:01Z</time>
      </trkpt>
      <trkpt lat="44.88629" lon="5.93829">
        <ele>1222.9</ele>
        <time>2024-08-27T09:44:02Z</time>
      </trkpt>
      <trkpt lat="44.88628" lon="5.93827">
        <ele>1223.1</ele>
        <time>2024-08-27T09:44:03Z</time>
      </trkpt>
      <trkpt lat="44.88627" lon="5.93825">
        <ele>1223.3</ele>
        <time>2024-08-27T09:44:04Z</time>
      </trkpt>
      <trkpt lat="44.88626" lon="5.93824">
        <ele>1223.5</ele>
        <time>2024-08-27T09:44:05Z</time>
      </trkpt>
      <trkpt lat="44.88624" lon="5.93822">
        <ele>1223.8</ele>
        <time>2024-08-27T09:44:06Z</time>
      </trkpt>
      <trkpt lat="44.88623" lon="5.93821">
        <ele>1224</ele>
        <time>2024-08-27T09:44:07Z</time>
      </trkpt>
      <trkpt lat="44.88621" lon="5.93819">
        <ele>1224.2</ele>
        <time>2024-08-27T09:44:08Z</time>
      </trkpt>
      <trkpt lat="44.8862" lon="5.93818">
        <ele>1224.4</ele>
        <time>2024-08-27T09:44:09Z</time>
      </trkpt>
      <trkpt lat="44.88619" lon="5.93817">
        <ele>1224.6</ele>
        <time>2024-08-27T09:44:10Z</time>
      </trkpt>
      <trkpt lat="44.88617" lon="5.93815">
        <ele>1224.9</ele>
        <time>2024-08-27T09:44:11Z</time>
      </trkpt>
      <trkpt lat="44.88616" lon="5.93814">
        <ele>1225.1</ele>
        <time>2024-08-27T09:44:12Z</time>
      </trkpt>
      <trkpt lat="44.88614" lon="5.93812">
        <ele>1225.3</ele>
        <time>2024-08-27T09:44:13Z</time>
      </trkpt>
      <trkpt lat="44.88613" lon="5.93811">
        <ele>1225.5</ele>
        <time>2024-08-27T09:44:14Z</time>
      </trkpt>
      <trkpt lat="44.88612" lon="5.93809">
        <ele>1225.7</ele>
        <time>2024-08-27T09:44:15Z</time>
      </trkpt>
      <trkpt lat="44.8861" lon="5.93807">
        <ele>1226.1</ele>
        <time>2024-08-27T09:44:16Z</time>
      </trkpt>
      <trkpt lat="44.88609" lon="5.93806">
        <ele>1226.2</ele>
        <time>2024-08-27T09:44:17Z</time>
      </trkpt>
      <trkpt lat="44.88608" lon="5.93804">
        <ele>1226.4</ele>
        <time>2024-08-27T09:44:18Z</time>
      </trkpt>
      <trkpt lat="44.88606" lon="5.93803">
        <ele>1226.6</ele>
        <time>2024-08-27T09:44:19Z</time>
      </trkpt>
      <trkpt lat="44.88605" lon="5.93802">
        <ele>1226.8</ele>
        <time>2024-08-27T09:44:20Z</time>
      </trkpt>
      <trkpt lat="44.88604" lon="5.93801">
        <ele>1227</ele>
        <time>2024-08-27T09:44:21Z</time>
      </trkpt>
      <trkpt lat="44.88603" lon="5.93799">
        <ele>1227.2</ele>
        <time>2024-08-27T09:44:22Z</time>
      </trkpt>
      <trkpt lat="44.88602" lon="5.93798">
        <ele>1227.4</ele>
        <time>2024-08-27T09:44:23Z</time>
      </trkpt>
      <trkpt lat="44.88601" lon="5.93796">
        <ele>1227.6</ele>
        <time>2024-08-27T09:44:24Z</time>
      </trkpt>
      <trkpt lat="44.88599" lon="5.93794">
        <ele>1227.8</ele>
        <time>2024-08-27T09:44:25Z</time>
      </trkpt>
      <trkpt lat="44.88598" lon="5.93793">
        <ele>1228</ele>
        <time>2024-08-27T09:44:26Z</time>
      </trkpt>
      <trkpt lat="44.88596" lon="5.93793">
        <ele>1228.2</ele>
        <time>2024-08-27T09:44:27Z</time>
      </trkpt>
      <trkpt lat="44.88595" lon="5.93792">
        <ele>1228.4</ele>
        <time>2024-08-27T09:44:28Z</time>
      </trkpt>
      <trkpt lat="44.88593" lon="5.93791">
        <ele>1228.6</ele>
        <time>2024-08-27T09:44:29Z</time>
      </trkpt>
      <trkpt lat="44.88592" lon="5.93789">
        <ele>1228.8</ele>
        <time>2024-08-27T09:44:30Z</time>
      </trkpt>
      <trkpt lat="44.88591" lon="5.93788">
        <ele>1229</ele>
        <time>2024-08-27T09:44:31Z</time>
      </trkpt>
      <trkpt lat="44.88589" lon="5.93786">
        <ele>1229.2</ele>
        <time>2024-08-27T09:44:32Z</time>
      </trkpt>
      <trkpt lat="44.88588" lon="5.93785">
        <ele>1229.4</ele>
        <time>2024-08-27T09:44:33Z</time>
      </trkpt>
      <trkpt lat="44.88587" lon="5.93783">
        <ele>1229.6</ele>
        <time>2024-08-27T09:44:34Z</time>
      </trkpt>
      <trkpt lat="44.88586" lon="5.93782">
        <ele>1229.8</ele>
        <time>2024-08-27T09:44:35Z</time>
      </trkpt>
      <trkpt lat="44.88585" lon="5.9378">
        <ele>1230</ele>
        <time>2024-08-27T09:44:36Z</time>
      </trkpt>
      <trkpt lat="44.88584" lon="5.93778">
        <ele>1230.2</ele>
        <time>2024-08-27T09:44:37Z</time>
      </trkpt>
      <trkpt lat="44.88582" lon="5.93775">
        <ele>1230.5</ele>
        <time>2024-08-27T09:44:38Z</time>
      </trkpt>
      <trkpt lat="44.88581" lon="5.93774">
        <ele>1230.7</ele>
        <time>2024-08-27T09:44:39Z</time>
      </trkpt>
      <trkpt lat="44.88579" lon="5.93772">
        <ele>1231</ele>
        <time>2024-08-27T09:44:40Z</time>
      </trkpt>
      <trkpt lat="44.88578" lon="5.93771">
        <ele>1231.1</ele>
        <time>2024-08-27T09:44:41Z</time>
      </trkpt>
      <trkpt lat="44.88577" lon="5.93769">
        <ele>1231.3</ele>
        <time>2024-08-27T09:44:42Z</time>
      </trkpt>
      <trkpt lat="44.88576" lon="5.93768">
        <ele>1231.5</ele>
        <time>2024-08-27T09:44:43Z</time>
      </trkpt>
      <trkpt lat="44.88575" lon="5.93766">
        <ele>1231.7</ele>
        <time>2024-08-27T09:44:44Z</time>
      </trkpt>
      <trkpt lat="44.88574" lon="5.93765">
        <ele>1231.9</ele>
        <time>2024-08-27T09:44:45Z</time>
      </trkpt>
      <trkpt lat="44.88573" lon="5.93763">
        <ele>1232.1</ele>
        <time>2024-08-27T09:44:46Z</time>
      </trkpt>
      <trkpt lat="44.88571" lon="5.93762">
        <ele>1232.3</ele>
        <time>2024-08-27T09:44:47Z</time>
      </trkpt>
      <trkpt lat="44.8857" lon="5.9376">
        <ele>1232.5</ele>
        <time>2024-08-27T09:44:48Z</time>
      </trkpt>
      <trkpt lat="44.88569" lon="5.93758">
        <ele>1232.8</ele>
        <time>2024-08-27T09:44:49Z</time>
      </trkpt>
      <trkpt lat="44.88568" lon="5.93757">
        <ele>1233</ele>
        <time>2024-08-27T09:44:50Z</time>
      </trkpt>
      <trkpt lat="44.88567" lon="5.93755">
        <ele>1233.2</ele>
        <time>2024-08-27T09:44:51Z</time>
      </trkpt>
      <trkpt lat="44.88566" lon="5.93753">
        <ele>1233.4</ele>
        <time>2024-08-27T09:44:52Z</time>
      </trkpt>
      <trkpt lat="44.88564" lon="5.93751">
        <ele>1233.6</ele>
        <time>2024-08-27T09:44:53Z</time>
      </trkpt>
      <trkpt lat="44.88563" lon="5.9375">
        <ele>1233.8</ele>
        <time>2024-08-27T09:44:54Z</time>
      </trkpt>
      <trkpt lat="44.88562" lon="5.93749">
        <ele>1234</ele>
        <time>2024-08-27T09:44:55Z</time>
      </trkpt>
      <trkpt lat="44.8856" lon="5.93746">
        <ele>1234.3</ele>
        <time>2024-08-27T09:44:56Z</time>
      </trkpt>
      <trkpt lat="44.88559" lon="5.93745">
        <ele>1234.5</ele>
        <time>2024-08-27T09:44:57Z</time>
      </trkpt>
      <trkpt lat="44.88558" lon="5.93743">
        <ele>1234.7</ele>
        <time>2024-08-27T09:44:58Z</time>
      </trkpt>
      <trkpt lat="44.88557" lon="5.93742">
        <ele>1234.9</ele>
        <time>2024-08-27T09:44:59Z</time>
      </trkpt>
      <trkpt lat="44.88555" lon="5.9374">
        <ele>1235.1</ele>
        <time>2024-08-27T09:45:00Z</time>
      </trkpt>
      <trkpt lat="44.88554" lon="5.93739">
        <ele>1235.3</ele>
        <time>2024-08-27T09:45:01Z</time>
      </trkpt>
      <trkpt lat="44.88552" lon="5.93737">
        <ele>1235.5</ele>
        <time>2024-08-27T09:45:02Z</time>
      </trkpt>
      <trkpt lat="44.88551" lon="5.93736">
        <ele>1235.7</ele>
        <time>2024-08-27T09:45:03Z</time>
      </trkpt>
      <trkpt lat="44.8855" lon="5.93734">
        <ele>1235.8</ele>
        <time>2024-08-27T09:45:04Z</time>
      </trkpt>
      <trkpt lat="44.88549" lon="5.93732">
        <ele>1236</ele>
        <time>2024-08-27T09:45:05Z</time>
      </trkpt>
      <trkpt lat="44.88548" lon="5.93731">
        <ele>1236.2</ele>
        <time>2024-08-27T09:45:06Z</time>
      </trkpt>
      <trkpt lat="44.88546" lon="5.93729">
        <ele>1236.4</ele>
        <time>2024-08-27T09:45:07Z</time>
      </trkpt>
      <trkpt lat="44.88544" lon="5.93726">
        <ele>1236.8</ele>
        <time>2024-08-27T09:45:08Z</time>
      </trkpt>
      <trkpt lat="44.88544" lon="5.93725">
        <ele>1236.9</ele>
        <time>2024-08-27T09:45:09Z</time>
      </trkpt>
      <trkpt lat="44.88542" lon="5.93722">
        <ele>1237.2</ele>
        <time>2024-08-27T09:45:10Z</time>
      </trkpt>
      <trkpt lat="44.88541" lon="5.93721">
        <ele>1237.3</ele>
        <time>2024-08-27T09:45:11Z</time>
      </trkpt>
      <trkpt lat="44.88539" lon="5.93719">
        <ele>1237.6</ele>
        <time>2024-08-27T09:45:12Z</time>
      </trkpt>
      <trkpt lat="44.88538" lon="5.93718">
        <ele>1237.7</ele>
        <time>2024-08-27T09:45:13Z</time>
      </trkpt>
      <trkpt lat="44.88537" lon="5.93716">
        <ele>1237.9</ele>
        <time>2024-08-27T09:45:14Z</time>
      </trkpt>
      <trkpt lat="44.88535" lon="5.93715">
        <ele>1238.1</ele>
        <time>2024-08-27T09:45:15Z</time>
      </trkpt>
      <trkpt lat="44.88533" lon="5.93713">
        <ele>1238.4</ele>
        <time>2024-08-27T09:45:16Z</time>
      </trkpt>
      <trkpt lat="44.88533" lon="5.93712">
        <ele>1238.5</ele>
        <time>2024-08-27T09:45:17Z</time>
      </trkpt>
      <trkpt lat="44.88531" lon="5.9371">
        <ele>1238.7</ele>
        <time>2024-08-27T09:45:18Z</time>
      </trkpt>
      <trkpt lat="44.8853" lon="5.93708">
        <ele>1238.9</ele>
        <time>2024-08-27T09:45:19Z</time>
      </trkpt>
      <trkpt lat="44.88528" lon="5.93705">
        <ele>1239.2</ele>
        <time>2024-08-27T09:45:20Z</time>
      </trkpt>
      <trkpt lat="44.88528" lon="5.93705">
        <ele>1239.2</ele>
        <time>2024-08-27T09:45:21Z</time>
      </trkpt>
      <trkpt lat="44.88525" lon="5.93702">
        <ele>1239.5</ele>
        <time>2024-08-27T09:45:22Z</time>
      </trkpt>
      <trkpt lat="44.88525" lon="5.93701">
        <ele>1239.6</ele>
        <time>2024-08-27T09:45:23Z</time>
      </trkpt>
      <trkpt lat="44.88522" lon="5.93698">
        <ele>1240</ele>
        <time>2024-08-27T09:45:24Z</time>
      </trkpt>
      <trkpt lat="44.88522" lon="5.93697">
        <ele>1240.1</ele>
        <time>2024-08-27T09:45:25Z</time>
      </trkpt>
      <trkpt lat="44.8852" lon="5.93696">
        <ele>1240.2</ele>
        <time>2024-08-27T09:45:26Z</time>
      </trkpt>
      <trkpt lat="44.88519" lon="5.93694">
        <ele>1240.4</ele>
        <time>2024-08-27T09:45:27Z</time>
      </trkpt>
      <trkpt lat="44.88518" lon="5.93693">
        <ele>1240.6</ele>
        <time>2024-08-27T09:45:28Z</time>
      </trkpt>
      <trkpt lat="44.88516" lon="5.93691">
        <ele>1240.8</ele>
        <time>2024-08-27T09:45:29Z</time>
      </trkpt>
      <trkpt lat="44.88515" lon="5.93689">
        <ele>1240.9</ele>
        <time>2024-08-27T09:45:30Z</time>
      </trkpt>
      <trkpt lat="44.88514" lon="5.93688">
        <ele>1241.1</ele>
        <time>2024-08-27T09:45:31Z</time>
      </trkpt>
      <trkpt lat="44.88511" lon="5.93685">
        <ele>1241.4</ele>
        <time>2024-08-27T09:45:32Z</time>
      </trkpt>
      <trkpt lat="44.88511" lon="5.93685">
        <ele>1241.5</ele>
        <time>2024-08-27T09:45:33Z</time>
      </trkpt>
      <trkpt lat="44.88508" lon="5.93682">
        <ele>1241.8</ele>
        <time>2024-08-27T09:45:34Z</time>
      </trkpt>
      <trkpt lat="44.88508" lon="5.93682">
        <ele>1241.9</ele>
        <time>2024-08-27T09:45:35Z</time>
      </trkpt>
      <trkpt lat="44.88506" lon="5.9368">
        <ele>1242</ele>
        <time>2024-08-27T09:45:36Z</time>
      </trkpt>
      <trkpt lat="44.88505" lon="5.93679">
        <ele>1242.2</ele>
        <time>2024-08-27T09:45:37Z</time>
      </trkpt>
      <trkpt lat="44.88503" lon="5.93676">
        <ele>1242.5</ele>
        <time>2024-08-27T09:45:38Z</time>
      </trkpt>
      <trkpt lat="44.88502" lon="5.93676">
        <ele>1242.6</ele>
        <time>2024-08-27T09:45:39Z</time>
      </trkpt>
      <trkpt lat="44.885" lon="5.93673">
        <ele>1242.8</ele>
        <time>2024-08-27T09:45:40Z</time>
      </trkpt>
      <trkpt lat="44.88499" lon="5.93673">
        <ele>1242.9</ele>
        <time>2024-08-27T09:45:41Z</time>
      </trkpt>
      <trkpt lat="44.88496" lon="5.9367">
        <ele>1243.2</ele>
        <time>2024-08-27T09:45:42Z</time>
      </trkpt>
      <trkpt lat="44.88496" lon="5.93669">
        <ele>1243.3</ele>
        <time>2024-08-27T09:45:43Z</time>
      </trkpt>
      <trkpt lat="44.88493" lon="5.93667">
        <ele>1243.6</ele>
        <time>2024-08-27T09:45:44Z</time>
      </trkpt>
      <trkpt lat="44.88493" lon="5.93666">
        <ele>1243.7</ele>
        <time>2024-08-27T09:45:45Z</time>
      </trkpt>
      <trkpt lat="44.88491" lon="5.93665">
        <ele>1243.8</ele>
        <time>2024-08-27T09:45:46Z</time>
      </trkpt>
      <trkpt lat="44.8849" lon="5.93664">
        <ele>1244</ele>
        <time>2024-08-27T09:45:47Z</time>
      </trkpt>
      <trkpt lat="44.88488" lon="5.93662">
        <ele>1244.2</ele>
        <time>2024-08-27T09:45:48Z</time>
      </trkpt>
      <trkpt lat="44.88487" lon="5.93661">
        <ele>1244.3</ele>
        <time>2024-08-27T09:45:49Z</time>
      </trkpt>
      <trkpt lat="44.88485" lon="5.9366">
        <ele>1244.5</ele>
        <time>2024-08-27T09:45:50Z</time>
      </trkpt>
      <trkpt lat="44.88484" lon="5.93659">
        <ele>1244.7</ele>
        <time>2024-08-27T09:45:51Z</time>
      </trkpt>
      <trkpt lat="44.88482" lon="5.93658">
        <ele>1244.8</ele>
        <time>2024-08-27T09:45:52Z</time>
      </trkpt>
      <trkpt lat="44.88481" lon="5.93657">
        <ele>1245</ele>
        <time>2024-08-27T09:45:53Z</time>
      </trkpt>
      <trkpt lat="44.88479" lon="5.93657">
        <ele>1245.2</ele>
        <time>2024-08-27T09:45:54Z</time>
      </trkpt>
      <trkpt lat="44.88478" lon="5.93656">
        <ele>1245.4</ele>
        <time>2024-08-27T09:45:55Z</time>
      </trkpt>
      <trkpt lat="44.88476" lon="5.93655">
        <ele>1245.5</ele>
        <time>2024-08-27T09:45:56Z</time>
      </trkpt>
      <trkpt lat="44.88475" lon="5.93654">
        <ele>1245.7</ele>
        <time>2024-08-27T09:45:57Z</time>
      </trkpt>
      <trkpt lat="44.88473" lon="5.93652">
        <ele>1245.9</ele>
        <time>2024-08-27T09:45:58Z</time>
      </trkpt>
      <trkpt lat="44.88472" lon="5.93652">
        <ele>1246.1</ele>
        <time>2024-08-27T09:45:59Z</time>
      </trkpt>
      <trkpt lat="44.8847" lon="5.93651">
        <ele>1246.3</ele>
        <time>2024-08-27T09:46:00Z</time>
      </trkpt>
      <trkpt lat="44.88469" lon="5.93649">
        <ele>1246.4</ele>
        <time>2024-08-27T09:46:01Z</time>
      </trkpt>
      <trkpt lat="44.88467" lon="5.93648">
        <ele>1246.6</ele>
        <time>2024-08-27T09:46:02Z</time>
      </trkpt>
      <trkpt lat="44.88466" lon="5.93647">
        <ele>1246.8</ele>
        <time>2024-08-27T09:46:03Z</time>
      </trkpt>
      <trkpt lat="44.88464" lon="5.93646">
        <ele>1247</ele>
        <time>2024-08-27T09:46:04Z</time>
      </trkpt>
      <trkpt lat="44.88463" lon="5.93645">
        <ele>1247.2</ele>
        <time>2024-08-27T09:46:05Z</time>
      </trkpt>
      <trkpt lat="44.88461" lon="5.93644">
        <ele>1247.4</ele>
        <time>2024-08-27T09:46:06Z</time>
      </trkpt>
      <trkpt lat="44.8846" lon="5.93643">
        <ele>1247.5</ele>
        <time>2024-08-27T09:46:07Z</time>
      </trkpt>
      <trkpt lat="44.88459" lon="5.93642">
        <ele>1247.7</ele>
        <time>2024-08-27T09:46:08Z</time>
      </trkpt>
      <trkpt lat="44.88457" lon="5.93642">
        <ele>1247.9</ele>
        <time>2024-08-27T09:46:09Z</time>
      </trkpt>
      <trkpt lat="44.88456" lon="5.93641">
        <ele>1248.1</ele>
        <time>2024-08-27T09:46:10Z</time>
      </trkpt>
      <trkpt lat="44.88454" lon="5.9364">
        <ele>1248.3</ele>
        <time>2024-08-27T09:46:11Z</time>
      </trkpt>
      <trkpt lat="44.88452" lon="5.93639">
        <ele>1248.5</ele>
        <time>2024-08-27T09:46:12Z</time>
      </trkpt>
      <trkpt lat="44.88451" lon="5.93639">
        <ele>1248.7</ele>
        <time>2024-08-27T09:46:13Z</time>
      </trkpt>
      <trkpt lat="44.88449" lon="5.93638">
        <ele>1248.9</ele>
        <time>2024-08-27T09:46:14Z</time>
      </trkpt>
      <trkpt lat="44.88447" lon="5.93637">
        <ele>1249.1</ele>
        <time>2024-08-27T09:46:15Z</time>
      </trkpt>
      <trkpt lat="44.88445" lon="5.93637">
        <ele>1249.5</ele>
        <time>2024-08-27T09:46:16Z</time>
      </trkpt>
      <trkpt lat="44.88444" lon="5.93636">
        <ele>1249.6</ele>
        <time>2024-08-27T09:46:17Z</time>
      </trkpt>
      <trkpt lat="44.88441" lon="5.93636">
        <ele>1249.9</ele>
        <time>2024-08-27T09:46:18Z</time>
      </trkpt>
      <trkpt lat="44.8844" lon="5.93636">
        <ele>1250</ele>
        <time>2024-08-27T09:46:19Z</time>
      </trkpt>
      <trkpt lat="44.88437" lon="5.93635">
        <ele>1250.3</ele>
        <time>2024-08-27T09:46:20Z</time>
      </trkpt>
      <trkpt lat="44.88436" lon="5.93635">
        <ele>1250.4</ele>
        <time>2024-08-27T09:46:21Z</time>
      </trkpt>
      <trkpt lat="44.88435" lon="5.93635">
        <ele>1250.6</ele>
        <time>2024-08-27T09:46:22Z</time>
      </trkpt>
      <trkpt lat="44.88433" lon="5.93635">
        <ele>1250.8</ele>
        <time>2024-08-27T09:46:23Z</time>
      </trkpt>
      <trkpt lat="44.88431" lon="5.93635">
        <ele>1251</ele>
        <time>2024-08-27T09:46:24Z</time>
      </trkpt>
      <trkpt lat="44.88429" lon="5.93635">
        <ele>1251.2</ele>
        <time>2024-08-27T09:46:25Z</time>
      </trkpt>
      <trkpt lat="44.88427" lon="5.93635">
        <ele>1251.5</ele>
        <time>2024-08-27T09:46:26Z</time>
      </trkpt>
      <trkpt lat="44.88426" lon="5.93634">
        <ele>1251.6</ele>
        <time>2024-08-27T09:46:27Z</time>
      </trkpt>
      <trkpt lat="44.88423" lon="5.93634">
        <ele>1251.9</ele>
        <time>2024-08-27T09:46:28Z</time>
      </trkpt>
      <trkpt lat="44.88422" lon="5.93634">
        <ele>1252</ele>
        <time>2024-08-27T09:46:29Z</time>
      </trkpt>
      <trkpt lat="44.88419" lon="5.93633">
        <ele>1252.3</ele>
        <time>2024-08-27T09:46:30Z</time>
      </trkpt>
      <trkpt lat="44.88418" lon="5.93633">
        <ele>1252.4</ele>
        <time>2024-08-27T09:46:31Z</time>
      </trkpt>
      <trkpt lat="44.88416" lon="5.93633">
        <ele>1252.5</ele>
        <time>2024-08-27T09:46:32Z</time>
      </trkpt>
      <trkpt lat="44.88415" lon="5.93633">
        <ele>1252.7</ele>
        <time>2024-08-27T09:46:33Z</time>
      </trkpt>
      <trkpt lat="44.88412" lon="5.93633">
        <ele>1253</ele>
        <time>2024-08-27T09:46:34Z</time>
      </trkpt>
      <trkpt lat="44.88411" lon="5.93633">
        <ele>1253.1</ele>
        <time>2024-08-27T09:46:35Z</time>
      </trkpt>
      <trkpt lat="44.88408" lon="5.93633">
        <ele>1253.4</ele>
        <time>2024-08-27T09:46:36Z</time>
      </trkpt>
      <trkpt lat="44.88407" lon="5.93633">
        <ele>1253.4</ele>
        <time>2024-08-27T09:46:37Z</time>
      </trkpt>
      <trkpt lat="44.88405" lon="5.93632">
        <ele>1253.7</ele>
        <time>2024-08-27T09:46:38Z</time>
      </trkpt>
      <trkpt lat="44.88404" lon="5.93632">
        <ele>1253.8</ele>
        <time>2024-08-27T09:46:39Z</time>
      </trkpt>
      <trkpt lat="44.88401" lon="5.93632">
        <ele>1254.1</ele>
        <time>2024-08-27T09:46:40Z</time>
      </trkpt>
      <trkpt lat="44.884" lon="5.93632">
        <ele>1254.2</ele>
        <time>2024-08-27T09:46:41Z</time>
      </trkpt>
      <trkpt lat="44.88398" lon="5.93633">
        <ele>1254.4</ele>
        <time>2024-08-27T09:46:42Z</time>
      </trkpt>
      <trkpt lat="44.88396" lon="5.93633">
        <ele>1254.6</ele>
        <time>2024-08-27T09:46:43Z</time>
      </trkpt>
      <trkpt lat="44.88394" lon="5.93633">
        <ele>1254.8</ele>
        <time>2024-08-27T09:46:44Z</time>
      </trkpt>
      <trkpt lat="44.88393" lon="5.93633">
        <ele>1254.9</ele>
        <time>2024-08-27T09:46:45Z</time>
      </trkpt>
      <trkpt lat="44.88391" lon="5.93633">
        <ele>1255.1</ele>
        <time>2024-08-27T09:46:46Z</time>
      </trkpt>
      <trkpt lat="44.88389" lon="5.93633">
        <ele>1255.3</ele>
        <time>2024-08-27T09:46:47Z</time>
      </trkpt>
      <trkpt lat="44.88388" lon="5.93633">
        <ele>1255.5</ele>
        <time>2024-08-27T09:46:48Z</time>
      </trkpt>
      <trkpt lat="44.88386" lon="5.93633">
        <ele>1255.7</ele>
        <time>2024-08-27T09:46:49Z</time>
      </trkpt>
      <trkpt lat="44.88384" lon="5.93634">
        <ele>1255.9</ele>
        <time>2024-08-27T09:46:50Z</time>
      </trkpt>
      <trkpt lat="44.88383" lon="5.93634">
        <ele>1256.1</ele>
        <time>2024-08-27T09:46:51Z</time>
      </trkpt>
      <trkpt lat="44.88381" lon="5.93634">
        <ele>1256.3</ele>
        <time>2024-08-27T09:46:52Z</time>
      </trkpt>
      <trkpt lat="44.88379" lon="5.93634">
        <ele>1256.5</ele>
        <time>2024-08-27T09:46:53Z</time>
      </trkpt>
      <trkpt lat="44.88377" lon="5.93635">
        <ele>1256.7</ele>
        <time>2024-08-27T09:46:54Z</time>
      </trkpt>
      <trkpt lat="44.88376" lon="5.93635">
        <ele>1256.9</ele>
        <time>2024-08-27T09:46:55Z</time>
      </trkpt>
      <trkpt lat="44.88374" lon="5.93635">
        <ele>1257.1</ele>
        <time>2024-08-27T09:46:56Z</time>
      </trkpt>
      <trkpt lat="44.88372" lon="5.93636">
        <ele>1257.3</ele>
        <time>2024-08-27T09:46:57Z</time>
      </trkpt>
      <trkpt lat="44.88371" lon="5.93636">
        <ele>1257.5</ele>
        <time>2024-08-27T09:46:58Z</time>
      </trkpt>
      <trkpt lat="44.88369" lon="5.93636">
        <ele>1257.8</ele>
        <time>2024-08-27T09:46:59Z</time>
      </trkpt>
      <trkpt lat="44.88367" lon="5.93637">
        <ele>1258</ele>
        <time>2024-08-27T09:47:00Z</time>
      </trkpt>
      <trkpt lat="44.88365" lon="5.93637">
        <ele>1258.2</ele>
        <time>2024-08-27T09:47:01Z</time>
      </trkpt>
      <trkpt lat="44.88364" lon="5.93637">
        <ele>1258.4</ele>
        <time>2024-08-27T09:47:02Z</time>
      </trkpt>
      <trkpt lat="44.88362" lon="5.93636">
        <ele>1258.7</ele>
        <time>2024-08-27T09:47:03Z</time>
      </trkpt>
      <trkpt lat="44.8836" lon="5.93636">
        <ele>1258.9</ele>
        <time>2024-08-27T09:47:04Z</time>
      </trkpt>
      <trkpt lat="44.88359" lon="5.93635">
        <ele>1259.1</ele>
        <time>2024-08-27T09:47:05Z</time>
      </trkpt>
      <trkpt lat="44.88357" lon="5.93635">
        <ele>1259.3</ele>
        <time>2024-08-27T09:47:06Z</time>
      </trkpt>
      <trkpt lat="44.88355" lon="5.93635">
        <ele>1259.5</ele>
        <time>2024-08-27T09:47:07Z</time>
      </trkpt>
      <trkpt lat="44.88354" lon="5.93634">
        <ele>1259.7</ele>
        <time>2024-08-27T09:47:08Z</time>
      </trkpt>
      <trkpt lat="44.88352" lon="5.93634">
        <ele>1260</ele>
        <time>2024-08-27T09:47:09Z</time>
      </trkpt>
      <trkpt lat="44.8835" lon="5.93632">
        <ele>1260.2</ele>
        <time>2024-08-27T09:47:10Z</time>
      </trkpt>
      <trkpt lat="44.88349" lon="5.93631">
        <ele>1260.5</ele>
        <time>2024-08-27T09:47:11Z</time>
      </trkpt>
      <trkpt lat="44.88347" lon="5.9363">
        <ele>1260.7</ele>
        <time>2024-08-27T09:47:12Z</time>
      </trkpt>
      <trkpt lat="44.88346" lon="5.93629">
        <ele>1260.9</ele>
        <time>2024-08-27T09:47:13Z</time>
      </trkpt>
      <trkpt lat="44.88343" lon="5.93627">
        <ele>1261.3</ele>
        <time>2024-08-27T09:47:14Z</time>
      </trkpt>
      <trkpt lat="44.88343" lon="5.93626">
        <ele>1261.4</ele>
        <time>2024-08-27T09:47:15Z</time>
      </trkpt>
      <trkpt lat="44.88341" lon="5.93625">
        <ele>1261.6</ele>
        <time>2024-08-27T09:47:16Z</time>
      </trkpt>
      <trkpt lat="44.8834" lon="5.93623">
        <ele>1261.8</ele>
        <time>2024-08-27T09:47:17Z</time>
      </trkpt>
      <trkpt lat="44.88339" lon="5.93621">
        <ele>1262</ele>
        <time>2024-08-27T09:47:18Z</time>
      </trkpt>
      <trkpt lat="44.88338" lon="5.93619">
        <ele>1262.2</ele>
        <time>2024-08-27T09:47:19Z</time>
      </trkpt>
      <trkpt lat="44.88337" lon="5.93618">
        <ele>1262.3</ele>
        <time>2024-08-27T09:47:20Z</time>
      </trkpt>
      <trkpt lat="44.88336" lon="5.93616">
        <ele>1262.5</ele>
        <time>2024-08-27T09:47:21Z</time>
      </trkpt>
      <trkpt lat="44.88335" lon="5.93614">
        <ele>1262.7</ele>
        <time>2024-08-27T09:47:22Z</time>
      </trkpt>
      <trkpt lat="44.88334" lon="5.93612">
        <ele>1262.9</ele>
        <time>2024-08-27T09:47:23Z</time>
      </trkpt>
      <trkpt lat="44.88331" lon="5.9361">
        <ele>1263.2</ele>
        <time>2024-08-27T09:47:24Z</time>
      </trkpt>
      <trkpt lat="44.88331" lon="5.93609">
        <ele>1263.4</ele>
        <time>2024-08-27T09:47:25Z</time>
      </trkpt>
      <trkpt lat="44.88328" lon="5.93606">
        <ele>1263.7</ele>
        <time>2024-08-27T09:47:26Z</time>
      </trkpt>
      <trkpt lat="44.88328" lon="5.93605">
        <ele>1263.8</ele>
        <time>2024-08-27T09:47:27Z</time>
      </trkpt>
      <trkpt lat="44.88325" lon="5.93602">
        <ele>1264.2</ele>
        <time>2024-08-27T09:47:28Z</time>
      </trkpt>
      <trkpt lat="44.88325" lon="5.93601">
        <ele>1264.3</ele>
        <time>2024-08-27T09:47:29Z</time>
      </trkpt>
      <trkpt lat="44.88322" lon="5.93598">
        <ele>1264.6</ele>
        <time>2024-08-27T09:47:30Z</time>
      </trkpt>
      <trkpt lat="44.88321" lon="5.93597">
        <ele>1264.7</ele>
        <time>2024-08-27T09:47:31Z</time>
      </trkpt>
      <trkpt lat="44.88319" lon="5.93596">
        <ele>1265.1</ele>
        <time>2024-08-27T09:47:32Z</time>
      </trkpt>
      <trkpt lat="44.88318" lon="5.93595">
        <ele>1265.2</ele>
        <time>2024-08-27T09:47:33Z</time>
      </trkpt>
      <trkpt lat="44.88316" lon="5.93594">
        <ele>1265.4</ele>
        <time>2024-08-27T09:47:34Z</time>
      </trkpt>
      <trkpt lat="44.88315" lon="5.93593">
        <ele>1265.5</ele>
        <time>2024-08-27T09:47:35Z</time>
      </trkpt>
      <trkpt lat="44.88314" lon="5.93592">
        <ele>1265.7</ele>
        <time>2024-08-27T09:47:36Z</time>
      </trkpt>
      <trkpt lat="44.88312" lon="5.93592">
        <ele>1265.9</ele>
        <time>2024-08-27T09:47:37Z</time>
      </trkpt>
      <trkpt lat="44.8831" lon="5.93591">
        <ele>1266.1</ele>
        <time>2024-08-27T09:47:38Z</time>
      </trkpt>
      <trkpt lat="44.88309" lon="5.93591">
        <ele>1266.3</ele>
        <time>2024-08-27T09:47:39Z</time>
      </trkpt>
      <trkpt lat="44.88307" lon="5.93591">
        <ele>1266.5</ele>
        <time>2024-08-27T09:47:40Z</time>
      </trkpt>
      <trkpt lat="44.88305" lon="5.9359">
        <ele>1266.7</ele>
        <time>2024-08-27T09:47:41Z</time>
      </trkpt>
      <trkpt lat="44.88304" lon="5.9359">
        <ele>1266.9</ele>
        <time>2024-08-27T09:47:42Z</time>
      </trkpt>
      <trkpt lat="44.88302" lon="5.9359">
        <ele>1267.1</ele>
        <time>2024-08-27T09:47:43Z</time>
      </trkpt>
      <trkpt lat="44.883" lon="5.93589">
        <ele>1267.4</ele>
        <time>2024-08-27T09:47:44Z</time>
      </trkpt>
      <trkpt lat="44.88298" lon="5.93588">
        <ele>1267.6</ele>
        <time>2024-08-27T09:47:45Z</time>
      </trkpt>
      <trkpt lat="44.88297" lon="5.93588">
        <ele>1267.8</ele>
        <time>2024-08-27T09:47:46Z</time>
      </trkpt>
      <trkpt lat="44.88295" lon="5.93587">
        <ele>1268</ele>
        <time>2024-08-27T09:47:47Z</time>
      </trkpt>
      <trkpt lat="44.88294" lon="5.93587">
        <ele>1268.1</ele>
        <time>2024-08-27T09:47:48Z</time>
      </trkpt>
      <trkpt lat="44.88292" lon="5.93587">
        <ele>1268.3</ele>
        <time>2024-08-27T09:47:49Z</time>
      </trkpt>
      <trkpt lat="44.88291" lon="5.93587">
        <ele>1268.6</ele>
        <time>2024-08-27T09:47:50Z</time>
      </trkpt>
      <trkpt lat="44.88289" lon="5.93586">
        <ele>1268.8</ele>
        <time>2024-08-27T09:47:51Z</time>
      </trkpt>
      <trkpt lat="44.88286" lon="5.93585">
        <ele>1269.1</ele>
        <time>2024-08-27T09:47:52Z</time>
      </trkpt>
      <trkpt lat="44.88285" lon="5.93584">
        <ele>1269.3</ele>
        <time>2024-08-27T09:47:53Z</time>
      </trkpt>
      <trkpt lat="44.88284" lon="5.93584">
        <ele>1269.5</ele>
        <time>2024-08-27T09:47:54Z</time>
      </trkpt>
      <trkpt lat="44.88282" lon="5.93583">
        <ele>1269.7</ele>
        <time>2024-08-27T09:47:55Z</time>
      </trkpt>
      <trkpt lat="44.8828" lon="5.93583">
        <ele>1269.9</ele>
        <time>2024-08-27T09:47:56Z</time>
      </trkpt>
      <trkpt lat="44.88279" lon="5.93583">
        <ele>1270.1</ele>
        <time>2024-08-27T09:47:57Z</time>
      </trkpt>
      <trkpt lat="44.88276" lon="5.93581">
        <ele>1270.4</ele>
        <time>2024-08-27T09:47:58Z</time>
      </trkpt>
      <trkpt lat="44.88275" lon="5.9358">
        <ele>1270.6</ele>
        <time>2024-08-27T09:47:59Z</time>
      </trkpt>
      <trkpt lat="44.88273" lon="5.93579">
        <ele>1270.9</ele>
        <time>2024-08-27T09:48:00Z</time>
      </trkpt>
      <trkpt lat="44.88272" lon="5.93578">
        <ele>1271</ele>
        <time>2024-08-27T09:48:01Z</time>
      </trkpt>
      <trkpt lat="44.88269" lon="5.93575">
        <ele>1271.4</ele>
        <time>2024-08-27T09:48:02Z</time>
      </trkpt>
      <trkpt lat="44.88269" lon="5.93574">
        <ele>1271.5</ele>
        <time>2024-08-27T09:48:03Z</time>
      </trkpt>
      <trkpt lat="44.88267" lon="5.93571">
        <ele>1271.8</ele>
        <time>2024-08-27T09:48:04Z</time>
      </trkpt>
      <trkpt lat="44.88266" lon="5.9357">
        <ele>1271.9</ele>
        <time>2024-08-27T09:48:05Z</time>
      </trkpt>
      <trkpt lat="44.88265" lon="5.93567">
        <ele>1272.2</ele>
        <time>2024-08-27T09:48:06Z</time>
      </trkpt>
      <trkpt lat="44.88264" lon="5.93566">
        <ele>1272.3</ele>
        <time>2024-08-27T09:48:07Z</time>
      </trkpt>
      <trkpt lat="44.88263" lon="5.93564">
        <ele>1272.5</ele>
        <time>2024-08-27T09:48:08Z</time>
      </trkpt>
      <trkpt lat="44.88262" lon="5.93561">
        <ele>1272.7</ele>
        <time>2024-08-27T09:48:09Z</time>
      </trkpt>
      <trkpt lat="44.88261" lon="5.93558">
        <ele>1273</ele>
        <time>2024-08-27T09:48:10Z</time>
      </trkpt>
      <trkpt lat="44.8826" lon="5.93557">
        <ele>1273.1</ele>
        <time>2024-08-27T09:48:11Z</time>
      </trkpt>
      <trkpt lat="44.88259" lon="5.93553">
        <ele>1273.4</ele>
        <time>2024-08-27T09:48:12Z</time>
      </trkpt>
      <trkpt lat="44.88259" lon="5.93552">
        <ele>1273.5</ele>
        <time>2024-08-27T09:48:13Z</time>
      </trkpt>
      <trkpt lat="44.88257" lon="5.93549">
        <ele>1273.8</ele>
        <time>2024-08-27T09:48:14Z</time>
      </trkpt>
      <trkpt lat="44.88257" lon="5.93547">
        <ele>1273.9</ele>
        <time>2024-08-27T09:48:15Z</time>
      </trkpt>
      <trkpt lat="44.88256" lon="5.93545">
        <ele>1274.1</ele>
        <time>2024-08-27T09:48:16Z</time>
      </trkpt>
      <trkpt lat="44.88255" lon="5.93543">
        <ele>1274.3</ele>
        <time>2024-08-27T09:48:17Z</time>
      </trkpt>
      <trkpt lat="44.88254" lon="5.93542">
        <ele>1274.4</ele>
        <time>2024-08-27T09:48:18Z</time>
      </trkpt>
      <trkpt lat="44.88253" lon="5.9354">
        <ele>1274.6</ele>
        <time>2024-08-27T09:48:19Z</time>
      </trkpt>
      <trkpt lat="44.88253" lon="5.93538">
        <ele>1274.8</ele>
        <time>2024-08-27T09:48:20Z</time>
      </trkpt>
      <trkpt lat="44.88252" lon="5.93536">
        <ele>1275</ele>
        <time>2024-08-27T09:48:21Z</time>
      </trkpt>
      <trkpt lat="44.88251" lon="5.93533">
        <ele>1275.2</ele>
        <time>2024-08-27T09:48:22Z</time>
      </trkpt>
      <trkpt lat="44.88251" lon="5.93531">
        <ele>1275.4</ele>
        <time>2024-08-27T09:48:23Z</time>
      </trkpt>
      <trkpt lat="44.88251" lon="5.93529">
        <ele>1275.5</ele>
        <time>2024-08-27T09:48:24Z</time>
      </trkpt>
      <trkpt lat="44.8825" lon="5.93527">
        <ele>1275.7</ele>
        <time>2024-08-27T09:48:25Z</time>
      </trkpt>
      <trkpt lat="44.8825" lon="5.93524">
        <ele>1275.9</ele>
        <time>2024-08-27T09:48:26Z</time>
      </trkpt>
      <trkpt lat="44.88249" lon="5.93522">
        <ele>1276.1</ele>
        <time>2024-08-27T09:48:27Z</time>
      </trkpt>
      <trkpt lat="44.88248" lon="5.93518">
        <ele>1276.4</ele>
        <time>2024-08-27T09:48:28Z</time>
      </trkpt>
      <trkpt lat="44.88248" lon="5.93517">
        <ele>1276.5</ele>
        <time>2024-08-27T09:48:29Z</time>
      </trkpt>
      <trkpt lat="44.88247" lon="5.93513">
        <ele>1276.8</ele>
        <time>2024-08-27T09:48:30Z</time>
      </trkpt>
      <trkpt lat="44.88247" lon="5.93512">
        <ele>1277</ele>
        <time>2024-08-27T09:48:31Z</time>
      </trkpt>
      <trkpt lat="44.88247" lon="5.93508">
        <ele>1277.3</ele>
        <time>2024-08-27T09:48:32Z</time>
      </trkpt>
      <trkpt lat="44.88247" lon="5.93507">
        <ele>1277.4</ele>
        <time>2024-08-27T09:48:33Z</time>
      </trkpt>
      <trkpt lat="44.88246" lon="5.93503">
        <ele>1277.7</ele>
        <time>2024-08-27T09:48:34Z</time>
      </trkpt>
      <trkpt lat="44.88245" lon="5.93502">
        <ele>1277.8</ele>
        <time>2024-08-27T09:48:35Z</time>
      </trkpt>
      <trkpt lat="44.88244" lon="5.93498">
        <ele>1278.1</ele>
        <time>2024-08-27T09:48:36Z</time>
      </trkpt>
      <trkpt lat="44.88244" lon="5.93497">
        <ele>1278.2</ele>
        <time>2024-08-27T09:48:37Z</time>
      </trkpt>
      <trkpt lat="44.88243" lon="5.93495">
        <ele>1278.4</ele>
        <time>2024-08-27T09:48:38Z</time>
      </trkpt>
      <trkpt lat="44.88243" lon="5.93493">
        <ele>1278.6</ele>
        <time>2024-08-27T09:48:39Z</time>
      </trkpt>
      <trkpt lat="44.88242" lon="5.93491">
        <ele>1278.8</ele>
        <time>2024-08-27T09:48:40Z</time>
      </trkpt>
      <trkpt lat="44.88242" lon="5.93488">
        <ele>1279</ele>
        <time>2024-08-27T09:48:41Z</time>
      </trkpt>
      <trkpt lat="44.88242" lon="5.93486">
        <ele>1279.2</ele>
        <time>2024-08-27T09:48:42Z</time>
      </trkpt>
      <trkpt lat="44.88242" lon="5.93483">
        <ele>1279.4</ele>
        <time>2024-08-27T09:48:43Z</time>
      </trkpt>
      <trkpt lat="44.88242" lon="5.93481">
        <ele>1279.6</ele>
        <time>2024-08-27T09:48:44Z</time>
      </trkpt>
      <trkpt lat="44.88241" lon="5.93479">
        <ele>1279.8</ele>
        <time>2024-08-27T09:48:45Z</time>
      </trkpt>
      <trkpt lat="44.88241" lon="5.93477">
        <ele>1280</ele>
        <time>2024-08-27T09:48:46Z</time>
      </trkpt>
      <trkpt lat="44.8824" lon="5.93475">
        <ele>1280.2</ele>
        <time>2024-08-27T09:48:47Z</time>
      </trkpt>
      <trkpt lat="44.88239" lon="5.93473">
        <ele>1280.4</ele>
        <time>2024-08-27T09:48:48Z</time>
      </trkpt>
      <trkpt lat="44.88238" lon="5.93471">
        <ele>1280.5</ele>
        <time>2024-08-27T09:48:49Z</time>
      </trkpt>
      <trkpt lat="44.88238" lon="5.93469">
        <ele>1280.7</ele>
        <time>2024-08-27T09:48:50Z</time>
      </trkpt>
      <trkpt lat="44.88237" lon="5.93467">
        <ele>1280.9</ele>
        <time>2024-08-27T09:48:51Z</time>
      </trkpt>
      <trkpt lat="44.88236" lon="5.93465">
        <ele>1281.1</ele>
        <time>2024-08-27T09:48:52Z</time>
      </trkpt>
      <trkpt lat="44.88235" lon="5.93463">
        <ele>1281.3</ele>
        <time>2024-08-27T09:48:53Z</time>
      </trkpt>
      <trkpt lat="44.88235" lon="5.93461">
        <ele>1281.5</ele>
        <time>2024-08-27T09:48:54Z</time>
      </trkpt>
      <trkpt lat="44.88234" lon="5.93459">
        <ele>1281.7</ele>
        <time>2024-08-27T09:48:55Z</time>
      </trkpt>
      <trkpt lat="44.88233" lon="5.93458">
        <ele>1281.9</ele>
        <time>2024-08-27T09:48:56Z</time>
      </trkpt>
      <trkpt lat="44.88232" lon="5.93456">
        <ele>1282.1</ele>
        <time>2024-08-27T09:48:57Z</time>
      </trkpt>
      <trkpt lat="44.88231" lon="5.93454">
        <ele>1282.3</ele>
        <time>2024-08-27T09:48:58Z</time>
      </trkpt>
      <trkpt lat="44.8823" lon="5.93453">
        <ele>1282.4</ele>
        <time>2024-08-27T09:48:59Z</time>
      </trkpt>
      <trkpt lat="44.88229" lon="5.93451">
        <ele>1282.6</ele>
        <time>2024-08-27T09:49:00Z</time>
      </trkpt>
      <trkpt lat="44.88228" lon="5.93449">
        <ele>1282.8</ele>
        <time>2024-08-27T09:49:01Z</time>
      </trkpt>
      <trkpt lat="44.88227" lon="5.93447">
        <ele>1283</ele>
        <time>2024-08-27T09:49:02Z</time>
      </trkpt>
      <trkpt lat="44.88226" lon="5.93446">
        <ele>1283.2</ele>
        <time>2024-08-27T09:49:03Z</time>
      </trkpt>
      <trkpt lat="44.88225" lon="5.93442">
        <ele>1283.5</ele>
        <time>2024-08-27T09:49:04Z</time>
      </trkpt>
      <trkpt lat="44.88225" lon="5.93441">
        <ele>1283.7</ele>
        <time>2024-08-27T09:49:05Z</time>
      </trkpt>
      <trkpt lat="44.88224" lon="5.93437">
        <ele>1284</ele>
        <time>2024-08-27T09:49:06Z</time>
      </trkpt>
      <trkpt lat="44.88223" lon="5.93436">
        <ele>1284.1</ele>
        <time>2024-08-27T09:49:07Z</time>
      </trkpt>
      <trkpt lat="44.88223" lon="5.93432">
        <ele>1284.4</ele>
        <time>2024-08-27T09:49:08Z</time>
      </trkpt>
      <trkpt lat="44.88223" lon="5.93431">
        <ele>1284.5</ele>
        <time>2024-08-27T09:49:09Z</time>
      </trkpt>
      <trkpt lat="44.88224" lon="5.93428">
        <ele>1284.8</ele>
        <time>2024-08-27T09:49:10Z</time>
      </trkpt>
      <trkpt lat="44.88224" lon="5.93426">
        <ele>1285</ele>
        <time>2024-08-27T09:49:11Z</time>
      </trkpt>
      <trkpt lat="44.88223" lon="5.93422">
        <ele>1285.3</ele>
        <time>2024-08-27T09:49:12Z</time>
      </trkpt>
      <trkpt lat="44.88223" lon="5.93421">
        <ele>1285.4</ele>
        <time>2024-08-27T09:49:13Z</time>
      </trkpt>
      <trkpt lat="44.88223" lon="5.93417">
        <ele>1285.8</ele>
        <time>2024-08-27T09:49:14Z</time>
      </trkpt>
      <trkpt lat="44.88223" lon="5.93415">
        <ele>1285.9</ele>
        <time>2024-08-27T09:49:15Z</time>
      </trkpt>
      <trkpt lat="44.88222" lon="5.93411">
        <ele>1286.2</ele>
        <time>2024-08-27T09:49:16Z</time>
      </trkpt>
      <trkpt lat="44.88222" lon="5.9341">
        <ele>1286.4</ele>
        <time>2024-08-27T09:49:17Z</time>
      </trkpt>
      <trkpt lat="44.88221" lon="5.93406">
        <ele>1286.7</ele>
        <time>2024-08-27T09:49:18Z</time>
      </trkpt>
      <trkpt lat="44.88221" lon="5.93405">
        <ele>1286.8</ele>
        <time>2024-08-27T09:49:19Z</time>
      </trkpt>
      <trkpt lat="44.8822" lon="5.93401">
        <ele>1287.1</ele>
        <time>2024-08-27T09:49:20Z</time>
      </trkpt>
      <trkpt lat="44.8822" lon="5.93399">
        <ele>1287.2</ele>
        <time>2024-08-27T09:49:21Z</time>
      </trkpt>
      <trkpt lat="44.8822" lon="5.93396">
        <ele>1287.6</ele>
        <time>2024-08-27T09:49:22Z</time>
      </trkpt>
      <trkpt lat="44.8822" lon="5.93394">
        <ele>1287.7</ele>
        <time>2024-08-27T09:49:23Z</time>
      </trkpt>
      <trkpt lat="44.88219" lon="5.9339">
        <ele>1288</ele>
        <time>2024-08-27T09:49:24Z</time>
      </trkpt>
      <trkpt lat="44.88219" lon="5.93389">
        <ele>1288.1</ele>
        <time>2024-08-27T09:49:25Z</time>
      </trkpt>
      <trkpt lat="44.88219" lon="5.93385">
        <ele>1288.4</ele>
        <time>2024-08-27T09:49:26Z</time>
      </trkpt>
      <trkpt lat="44.88219" lon="5.93384">
        <ele>1288.5</ele>
        <time>2024-08-27T09:49:27Z</time>
      </trkpt>
      <trkpt lat="44.88219" lon="5.9338">
        <ele>1288.9</ele>
        <time>2024-08-27T09:49:28Z</time>
      </trkpt>
      <trkpt lat="44.88219" lon="5.93378">
        <ele>1289</ele>
        <time>2024-08-27T09:49:29Z</time>
      </trkpt>
      <trkpt lat="44.88218" lon="5.93374">
        <ele>1289.3</ele>
        <time>2024-08-27T09:49:30Z</time>
      </trkpt>
      <trkpt lat="44.88218" lon="5.93373">
        <ele>1289.4</ele>
        <time>2024-08-27T09:49:31Z</time>
      </trkpt>
      <trkpt lat="44.88217" lon="5.93369">
        <ele>1289.7</ele>
        <time>2024-08-27T09:49:32Z</time>
      </trkpt>
      <trkpt lat="44.88217" lon="5.93368">
        <ele>1289.9</ele>
        <time>2024-08-27T09:49:33Z</time>
      </trkpt>
      <trkpt lat="44.88217" lon="5.93363">
        <ele>1290.2</ele>
        <time>2024-08-27T09:49:34Z</time>
      </trkpt>
      <trkpt lat="44.88217" lon="5.93362">
        <ele>1290.3</ele>
        <time>2024-08-27T09:49:35Z</time>
      </trkpt>
      <trkpt lat="44.88216" lon="5.93358">
        <ele>1290.6</ele>
        <time>2024-08-27T09:49:36Z</time>
      </trkpt>
      <trkpt lat="44.88216" lon="5.93357">
        <ele>1290.7</ele>
        <time>2024-08-27T09:49:37Z</time>
      </trkpt>
      <trkpt lat="44.88216" lon="5.93354">
        <ele>1290.9</ele>
        <time>2024-08-27T09:49:38Z</time>
      </trkpt>
      <trkpt lat="44.88215" lon="5.93352">
        <ele>1291.2</ele>
        <time>2024-08-27T09:49:39Z</time>
      </trkpt>
      <trkpt lat="44.88214" lon="5.93348">
        <ele>1291.5</ele>
        <time>2024-08-27T09:49:40Z</time>
      </trkpt>
      <trkpt lat="44.88214" lon="5.93347">
        <ele>1291.6</ele>
        <time>2024-08-27T09:49:41Z</time>
      </trkpt>
      <trkpt lat="44.88214" lon="5.93343">
        <ele>1291.9</ele>
        <time>2024-08-27T09:49:42Z</time>
      </trkpt>
      <trkpt lat="44.88213" lon="5.93342">
        <ele>1292</ele>
        <time>2024-08-27T09:49:43Z</time>
      </trkpt>
      <trkpt lat="44.88213" lon="5.93338">
        <ele>1292.3</ele>
        <time>2024-08-27T09:49:44Z</time>
      </trkpt>
      <trkpt lat="44.88213" lon="5.93336">
        <ele>1292.4</ele>
        <time>2024-08-27T09:49:45Z</time>
      </trkpt>
      <trkpt lat="44.88213" lon="5.93334">
        <ele>1292.6</ele>
        <time>2024-08-27T09:49:46Z</time>
      </trkpt>
      <trkpt lat="44.88213" lon="5.93331">
        <ele>1292.8</ele>
        <time>2024-08-27T09:49:47Z</time>
      </trkpt>
      <trkpt lat="44.88213" lon="5.93327">
        <ele>1293.2</ele>
        <time>2024-08-27T09:49:48Z</time>
      </trkpt>
      <trkpt lat="44.88213" lon="5.93326">
        <ele>1293.3</ele>
        <time>2024-08-27T09:49:49Z</time>
      </trkpt>
      <trkpt lat="44.88213" lon="5.93322">
        <ele>1293.6</ele>
        <time>2024-08-27T09:49:50Z</time>
      </trkpt>
      <trkpt lat="44.88213" lon="5.93321">
        <ele>1293.7</ele>
        <time>2024-08-27T09:49:51Z</time>
      </trkpt>
      <trkpt lat="44.88213" lon="5.93317">
        <ele>1294</ele>
        <time>2024-08-27T09:49:52Z</time>
      </trkpt>
      <trkpt lat="44.88213" lon="5.93316">
        <ele>1294.1</ele>
        <time>2024-08-27T09:49:53Z</time>
      </trkpt>
      <trkpt lat="44.88213" lon="5.93314">
        <ele>1294.3</ele>
        <time>2024-08-27T09:49:54Z</time>
      </trkpt>
      <trkpt lat="44.88213" lon="5.93311">
        <ele>1294.5</ele>
        <time>2024-08-27T09:49:55Z</time>
      </trkpt>
      <trkpt lat="44.88213" lon="5.93309">
        <ele>1294.7</ele>
        <time>2024-08-27T09:49:56Z</time>
      </trkpt>
      <trkpt lat="44.88213" lon="5.93306">
        <ele>1295</ele>
        <time>2024-08-27T09:49:57Z</time>
      </trkpt>
      <trkpt lat="44.88212" lon="5.93304">
        <ele>1295.2</ele>
        <time>2024-08-27T09:49:58Z</time>
      </trkpt>
      <trkpt lat="44.88213" lon="5.93302">
        <ele>1295.4</ele>
        <time>2024-08-27T09:49:59Z</time>
      </trkpt>
      <trkpt lat="44.88213" lon="5.93298">
        <ele>1295.7</ele>
        <time>2024-08-27T09:50:00Z</time>
      </trkpt>
      <trkpt lat="44.88213" lon="5.93297">
        <ele>1295.8</ele>
        <time>2024-08-27T09:50:01Z</time>
      </trkpt>
      <trkpt lat="44.88213" lon="5.93293">
        <ele>1296.2</ele>
        <time>2024-08-27T09:50:02Z</time>
      </trkpt>
      <trkpt lat="44.88213" lon="5.93291">
        <ele>1296.3</ele>
        <time>2024-08-27T09:50:03Z</time>
      </trkpt>
      <trkpt lat="44.88214" lon="5.93289">
        <ele>1296.5</ele>
        <time>2024-08-27T09:50:04Z</time>
      </trkpt>
      <trkpt lat="44.88214" lon="5.93286">
        <ele>1296.8</ele>
        <time>2024-08-27T09:50:05Z</time>
      </trkpt>
      <trkpt lat="44.88213" lon="5.93284">
        <ele>1297</ele>
        <time>2024-08-27T09:50:06Z</time>
      </trkpt>
      <trkpt lat="44.88213" lon="5.93282">
        <ele>1297.2</ele>
        <time>2024-08-27T09:50:07Z</time>
      </trkpt>
      <trkpt lat="44.88213" lon="5.93279">
        <ele>1297.4</ele>
        <time>2024-08-27T09:50:08Z</time>
      </trkpt>
      <trkpt lat="44.88213" lon="5.93277">
        <ele>1297.6</ele>
        <time>2024-08-27T09:50:09Z</time>
      </trkpt>
      <trkpt lat="44.88213" lon="5.93275">
        <ele>1297.8</ele>
        <time>2024-08-27T09:50:10Z</time>
      </trkpt>
      <trkpt lat="44.88213" lon="5.93272">
        <ele>1298.1</ele>
        <time>2024-08-27T09:50:11Z</time>
      </trkpt>
      <trkpt lat="44.88213" lon="5.9327">
        <ele>1298.3</ele>
        <time>2024-08-27T09:50:12Z</time>
      </trkpt>
      <trkpt lat="44.88213" lon="5.93268">
        <ele>1298.5</ele>
        <time>2024-08-27T09:50:13Z</time>
      </trkpt>
      <trkpt lat="44.88213" lon="5.93265">
        <ele>1298.7</ele>
        <time>2024-08-27T09:50:14Z</time>
      </trkpt>
      <trkpt lat="44.88212" lon="5.93263">
        <ele>1298.9</ele>
        <time>2024-08-27T09:50:15Z</time>
      </trkpt>
      <trkpt lat="44.88212" lon="5.93261">
        <ele>1299.1</ele>
        <time>2024-08-27T09:50:16Z</time>
      </trkpt>
      <trkpt lat="44.88211" lon="5.93259">
        <ele>1299.3</ele>
        <time>2024-08-27T09:50:17Z</time>
      </trkpt>
      <trkpt lat="44.88211" lon="5.93257">
        <ele>1299.5</ele>
        <time>2024-08-27T09:50:18Z</time>
      </trkpt>
      <trkpt lat="44.8821" lon="5.93255">
        <ele>1299.8</ele>
        <time>2024-08-27T09:50:19Z</time>
      </trkpt>
      <trkpt lat="44.8821" lon="5.93253">
        <ele>1300</ele>
        <time>2024-08-27T09:50:20Z</time>
      </trkpt>
      <trkpt lat="44.8821" lon="5.9325">
        <ele>1300.2</ele>
        <time>2024-08-27T09:50:21Z</time>
      </trkpt>
      <trkpt lat="44.88209" lon="5.93247">
        <ele>1300.6</ele>
        <time>2024-08-27T09:50:22Z</time>
      </trkpt>
      <trkpt lat="44.88209" lon="5.93245">
        <ele>1300.7</ele>
        <time>2024-08-27T09:50:23Z</time>
      </trkpt>
      <trkpt lat="44.88208" lon="5.93243">
        <ele>1300.9</ele>
        <time>2024-08-27T09:50:24Z</time>
      </trkpt>
      <trkpt lat="44.88207" lon="5.93241">
        <ele>1301.2</ele>
        <time>2024-08-27T09:50:25Z</time>
      </trkpt>
      <trkpt lat="44.88207" lon="5.93239">
        <ele>1301.4</ele>
        <time>2024-08-27T09:50:26Z</time>
      </trkpt>
      <trkpt lat="44.88206" lon="5.93236">
        <ele>1301.7</ele>
        <time>2024-08-27T09:50:27Z</time>
      </trkpt>
      <trkpt lat="44.88205" lon="5.93234">
        <ele>1301.9</ele>
        <time>2024-08-27T09:50:28Z</time>
      </trkpt>
      <trkpt lat="44.88204" lon="5.93233">
        <ele>1302.1</ele>
        <time>2024-08-27T09:50:29Z</time>
      </trkpt>
      <trkpt lat="44.88203" lon="5.9323">
        <ele>1302.3</ele>
        <time>2024-08-27T09:50:30Z</time>
      </trkpt>
      <trkpt lat="44.88202" lon="5.93228">
        <ele>1302.6</ele>
        <time>2024-08-27T09:50:31Z</time>
      </trkpt>
      <trkpt lat="44.882" lon="5.93227">
        <ele>1302.8</ele>
        <time>2024-08-27T09:50:32Z</time>
      </trkpt>
      <trkpt lat="44.88199" lon="5.93225">
        <ele>1303</ele>
        <time>2024-08-27T09:50:33Z</time>
      </trkpt>
      <trkpt lat="44.88198" lon="5.93224">
        <ele>1303.2</ele>
        <time>2024-08-27T09:50:34Z</time>
      </trkpt>
      <trkpt lat="44.88196" lon="5.93222">
        <ele>1303.4</ele>
        <time>2024-08-27T09:50:35Z</time>
      </trkpt>
      <trkpt lat="44.88195" lon="5.93221">
        <ele>1303.7</ele>
        <time>2024-08-27T09:50:36Z</time>
      </trkpt>
      <trkpt lat="44.88193" lon="5.9322">
        <ele>1303.9</ele>
        <time>2024-08-27T09:50:37Z</time>
      </trkpt>
      <trkpt lat="44.88191" lon="5.93219">
        <ele>1304.1</ele>
        <time>2024-08-27T09:50:38Z</time>
      </trkpt>
      <trkpt lat="44.8819" lon="5.93219">
        <ele>1304.3</ele>
        <time>2024-08-27T09:50:39Z</time>
      </trkpt>
      <trkpt lat="44.88188" lon="5.93218">
        <ele>1304.5</ele>
        <time>2024-08-27T09:50:40Z</time>
      </trkpt>
      <trkpt lat="44.88186" lon="5.93218">
        <ele>1304.7</ele>
        <time>2024-08-27T09:50:41Z</time>
      </trkpt>
      <trkpt lat="44.88184" lon="5.93217">
        <ele>1305</ele>
        <time>2024-08-27T09:50:42Z</time>
      </trkpt>
      <trkpt lat="44.88183" lon="5.93217">
        <ele>1305.2</ele>
        <time>2024-08-27T09:50:43Z</time>
      </trkpt>
      <trkpt lat="44.8818" lon="5.93218">
        <ele>1305.4</ele>
        <time>2024-08-27T09:50:44Z</time>
      </trkpt>
      <trkpt lat="44.88179" lon="5.93218">
        <ele>1305.5</ele>
        <time>2024-08-27T09:50:45Z</time>
      </trkpt>
      <trkpt lat="44.88176" lon="5.93219">
        <ele>1305.8</ele>
        <time>2024-08-27T09:50:46Z</time>
      </trkpt>
      <trkpt lat="44.88175" lon="5.93219">
        <ele>1305.9</ele>
        <time>2024-08-27T09:50:47Z</time>
      </trkpt>
      <trkpt lat="44.88173" lon="5.93221">
        <ele>1306.2</ele>
        <time>2024-08-27T09:50:48Z</time>
      </trkpt>
      <trkpt lat="44.88172" lon="5.93222">
        <ele>1306.3</ele>
        <time>2024-08-27T09:50:49Z</time>
      </trkpt>
      <trkpt lat="44.88169" lon="5.93223">
        <ele>1306.5</ele>
        <time>2024-08-27T09:50:50Z</time>
      </trkpt>
      <trkpt lat="44.88169" lon="5.93224">
        <ele>1306.6</ele>
        <time>2024-08-27T09:50:51Z</time>
      </trkpt>
      <trkpt lat="44.88166" lon="5.93226">
        <ele>1306.9</ele>
        <time>2024-08-27T09:50:52Z</time>
      </trkpt>
      <trkpt lat="44.88166" lon="5.93227">
        <ele>1307</ele>
        <time>2024-08-27T09:50:53Z</time>
      </trkpt>
      <trkpt lat="44.88164" lon="5.93228">
        <ele>1307.2</ele>
        <time>2024-08-27T09:50:54Z</time>
      </trkpt>
      <trkpt lat="44.88163" lon="5.9323">
        <ele>1307.3</ele>
        <time>2024-08-27T09:50:55Z</time>
      </trkpt>
      <trkpt lat="44.88161" lon="5.93231">
        <ele>1307.5</ele>
        <time>2024-08-27T09:50:56Z</time>
      </trkpt>
      <trkpt lat="44.8816" lon="5.93233">
        <ele>1307.7</ele>
        <time>2024-08-27T09:50:57Z</time>
      </trkpt>
      <trkpt lat="44.88158" lon="5.93236">
        <ele>1308</ele>
        <time>2024-08-27T09:50:58Z</time>
      </trkpt>
      <trkpt lat="44.88157" lon="5.93236">
        <ele>1308.1</ele>
        <time>2024-08-27T09:50:59Z</time>
      </trkpt>
      <trkpt lat="44.88154" lon="5.93239">
        <ele>1308.4</ele>
        <time>2024-08-27T09:51:00Z</time>
      </trkpt>
      <trkpt lat="44.88153" lon="5.93239">
        <ele>1308.5</ele>
        <time>2024-08-27T09:51:01Z</time>
      </trkpt>
      <trkpt lat="44.88151" lon="5.93242">
        <ele>1308.8</ele>
        <time>2024-08-27T09:51:02Z</time>
      </trkpt>
      <trkpt lat="44.8815" lon="5.93243">
        <ele>1308.9</ele>
        <time>2024-08-27T09:51:03Z</time>
      </trkpt>
      <trkpt lat="44.88149" lon="5.93244">
        <ele>1309.1</ele>
        <time>2024-08-27T09:51:04Z</time>
      </trkpt>
      <trkpt lat="44.88148" lon="5.93246">
        <ele>1309.2</ele>
        <time>2024-08-27T09:51:05Z</time>
      </trkpt>
      <trkpt lat="44.88146" lon="5.93247">
        <ele>1309.4</ele>
        <time>2024-08-27T09:51:06Z</time>
      </trkpt>
      <trkpt lat="44.88145" lon="5.93248">
        <ele>1309.6</ele>
        <time>2024-08-27T09:51:07Z</time>
      </trkpt>
      <trkpt lat="44.88143" lon="5.93251">
        <ele>1309.9</ele>
        <time>2024-08-27T09:51:08Z</time>
      </trkpt>
      <trkpt lat="44.88142" lon="5.93252">
        <ele>1310</ele>
        <time>2024-08-27T09:51:09Z</time>
      </trkpt>
      <trkpt lat="44.88141" lon="5.93253">
        <ele>1310.2</ele>
        <time>2024-08-27T09:51:10Z</time>
      </trkpt>
      <trkpt lat="44.88139" lon="5.93255">
        <ele>1310.4</ele>
        <time>2024-08-27T09:51:11Z</time>
      </trkpt>
      <trkpt lat="44.88138" lon="5.93257">
        <ele>1310.6</ele>
        <time>2024-08-27T09:51:12Z</time>
      </trkpt>
      <trkpt lat="44.88137" lon="5.93258">
        <ele>1310.7</ele>
        <time>2024-08-27T09:51:13Z</time>
      </trkpt>
      <trkpt lat="44.88136" lon="5.9326">
        <ele>1310.9</ele>
        <time>2024-08-27T09:51:14Z</time>
      </trkpt>
      <trkpt lat="44.88134" lon="5.93261">
        <ele>1311.1</ele>
        <time>2024-08-27T09:51:15Z</time>
      </trkpt>
      <trkpt lat="44.88132" lon="5.93263">
        <ele>1311.3</ele>
        <time>2024-08-27T09:51:16Z</time>
      </trkpt>
      <trkpt lat="44.88131" lon="5.93264">
        <ele>1311.5</ele>
        <time>2024-08-27T09:51:17Z</time>
      </trkpt>
      <trkpt lat="44.8813" lon="5.93265">
        <ele>1311.7</ele>
        <time>2024-08-27T09:51:18Z</time>
      </trkpt>
      <trkpt lat="44.88128" lon="5.93267">
        <ele>1311.9</ele>
        <time>2024-08-27T09:51:19Z</time>
      </trkpt>
      <trkpt lat="44.88127" lon="5.93268">
        <ele>1312.1</ele>
        <time>2024-08-27T09:51:20Z</time>
      </trkpt>
      <trkpt lat="44.88126" lon="5.9327">
        <ele>1312.3</ele>
        <time>2024-08-27T09:51:21Z</time>
      </trkpt>
      <trkpt lat="44.88124" lon="5.93271">
        <ele>1312.4</ele>
        <time>2024-08-27T09:51:22Z</time>
      </trkpt>
      <trkpt lat="44.88123" lon="5.93272">
        <ele>1312.6</ele>
        <time>2024-08-27T09:51:23Z</time>
      </trkpt>
      <trkpt lat="44.88121" lon="5.93274">
        <ele>1312.8</ele>
        <time>2024-08-27T09:51:24Z</time>
      </trkpt>
      <trkpt lat="44.8812" lon="5.93275">
        <ele>1313</ele>
        <time>2024-08-27T09:51:25Z</time>
      </trkpt>
      <trkpt lat="44.88119" lon="5.93277">
        <ele>1313.2</ele>
        <time>2024-08-27T09:51:26Z</time>
      </trkpt>
      <trkpt lat="44.88117" lon="5.93278">
        <ele>1313.3</ele>
        <time>2024-08-27T09:51:27Z</time>
      </trkpt>
      <trkpt lat="44.88116" lon="5.9328">
        <ele>1313.5</ele>
        <time>2024-08-27T09:51:28Z</time>
      </trkpt>
      <trkpt lat="44.88115" lon="5.93281">
        <ele>1313.7</ele>
        <time>2024-08-27T09:51:29Z</time>
      </trkpt>
      <trkpt lat="44.88114" lon="5.93283">
        <ele>1313.9</ele>
        <time>2024-08-27T09:51:30Z</time>
      </trkpt>
      <trkpt lat="44.88112" lon="5.93285">
        <ele>1314.1</ele>
        <time>2024-08-27T09:51:31Z</time>
      </trkpt>
      <trkpt lat="44.88111" lon="5.93286">
        <ele>1314.3</ele>
        <time>2024-08-27T09:51:32Z</time>
      </trkpt>
      <trkpt lat="44.8811" lon="5.93288">
        <ele>1314.4</ele>
        <time>2024-08-27T09:51:33Z</time>
      </trkpt>
      <trkpt lat="44.88108" lon="5.93289">
        <ele>1314.6</ele>
        <time>2024-08-27T09:51:34Z</time>
      </trkpt>
      <trkpt lat="44.88107" lon="5.93291">
        <ele>1314.8</ele>
        <time>2024-08-27T09:51:35Z</time>
      </trkpt>
      <trkpt lat="44.88105" lon="5.93293">
        <ele>1315.1</ele>
        <time>2024-08-27T09:51:36Z</time>
      </trkpt>
      <trkpt lat="44.88104" lon="5.93294">
        <ele>1315.2</ele>
        <time>2024-08-27T09:51:37Z</time>
      </trkpt>
      <trkpt lat="44.88102" lon="5.93297">
        <ele>1315.6</ele>
        <time>2024-08-27T09:51:38Z</time>
      </trkpt>
      <trkpt lat="44.88101" lon="5.93298">
        <ele>1315.7</ele>
        <time>2024-08-27T09:51:39Z</time>
      </trkpt>
      <trkpt lat="44.88099" lon="5.93301">
        <ele>1316</ele>
        <time>2024-08-27T09:51:40Z</time>
      </trkpt>
      <trkpt lat="44.88099" lon="5.93301">
        <ele>1316.1</ele>
        <time>2024-08-27T09:51:41Z</time>
      </trkpt>
      <trkpt lat="44.88097" lon="5.93303">
        <ele>1316.3</ele>
        <time>2024-08-27T09:51:42Z</time>
      </trkpt>
      <trkpt lat="44.88096" lon="5.93305">
        <ele>1316.5</ele>
        <time>2024-08-27T09:51:43Z</time>
      </trkpt>
      <trkpt lat="44.88095" lon="5.93306">
        <ele>1316.7</ele>
        <time>2024-08-27T09:51:44Z</time>
      </trkpt>
      <trkpt lat="44.88094" lon="5.93308">
        <ele>1316.9</ele>
        <time>2024-08-27T09:51:45Z</time>
      </trkpt>
      <trkpt lat="44.88093" lon="5.93309">
        <ele>1317.1</ele>
        <time>2024-08-27T09:51:46Z</time>
      </trkpt>
      <trkpt lat="44.88091" lon="5.9331">
        <ele>1317.3</ele>
        <time>2024-08-27T09:51:47Z</time>
      </trkpt>
      <trkpt lat="44.8809" lon="5.93312">
        <ele>1317.5</ele>
        <time>2024-08-27T09:51:48Z</time>
      </trkpt>
      <trkpt lat="44.88088" lon="5.93314">
        <ele>1317.8</ele>
        <time>2024-08-27T09:51:49Z</time>
      </trkpt>
      <trkpt lat="44.88087" lon="5.93315">
        <ele>1318</ele>
        <time>2024-08-27T09:51:50Z</time>
      </trkpt>
      <trkpt lat="44.88086" lon="5.93317">
        <ele>1318.2</ele>
        <time>2024-08-27T09:51:51Z</time>
      </trkpt>
      <trkpt lat="44.88084" lon="5.9332">
        <ele>1318.6</ele>
        <time>2024-08-27T09:51:52Z</time>
      </trkpt>
      <trkpt lat="44.88083" lon="5.93321">
        <ele>1318.7</ele>
        <time>2024-08-27T09:51:53Z</time>
      </trkpt>
      <trkpt lat="44.88082" lon="5.93322">
        <ele>1318.9</ele>
        <time>2024-08-27T09:51:54Z</time>
      </trkpt>
      <trkpt lat="44.88081" lon="5.93324">
        <ele>1319.1</ele>
        <time>2024-08-27T09:51:55Z</time>
      </trkpt>
      <trkpt lat="44.8808" lon="5.93326">
        <ele>1319.4</ele>
        <time>2024-08-27T09:51:56Z</time>
      </trkpt>
      <trkpt lat="44.88078" lon="5.93327">
        <ele>1319.6</ele>
        <time>2024-08-27T09:51:57Z</time>
      </trkpt>
      <trkpt lat="44.88077" lon="5.93329">
        <ele>1319.8</ele>
        <time>2024-08-27T09:51:58Z</time>
      </trkpt>
      <trkpt lat="44.88076" lon="5.9333">
        <ele>1320</ele>
        <time>2024-08-27T09:51:59Z</time>
      </trkpt>
      <trkpt lat="44.88074" lon="5.93332">
        <ele>1320.2</ele>
        <time>2024-08-27T09:52:00Z</time>
      </trkpt>
      <trkpt lat="44.88073" lon="5.93334">
        <ele>1320.5</ele>
        <time>2024-08-27T09:52:01Z</time>
      </trkpt>
      <trkpt lat="44.88072" lon="5.93335">
        <ele>1320.7</ele>
        <time>2024-08-27T09:52:02Z</time>
      </trkpt>
      <trkpt lat="44.88071" lon="5.93337">
        <ele>1320.9</ele>
        <time>2024-08-27T09:52:03Z</time>
      </trkpt>
      <trkpt lat="44.88069" lon="5.93338">
        <ele>1321.1</ele>
        <time>2024-08-27T09:52:04Z</time>
      </trkpt>
      <trkpt lat="44.88068" lon="5.9334">
        <ele>1321.3</ele>
        <time>2024-08-27T09:52:05Z</time>
      </trkpt>
      <trkpt lat="44.88067" lon="5.93342">
        <ele>1321.6</ele>
        <time>2024-08-27T09:52:06Z</time>
      </trkpt>
      <trkpt lat="44.88065" lon="5.93344">
        <ele>1321.8</ele>
        <time>2024-08-27T09:52:07Z</time>
      </trkpt>
      <trkpt lat="44.88064" lon="5.93345">
        <ele>1322</ele>
        <time>2024-08-27T09:52:08Z</time>
      </trkpt>
      <trkpt lat="44.88062" lon="5.93345">
        <ele>1322.2</ele>
        <time>2024-08-27T09:52:09Z</time>
      </trkpt>
      <trkpt lat="44.8806" lon="5.93346">
        <ele>1322.4</ele>
        <time>2024-08-27T09:52:10Z</time>
      </trkpt>
      <trkpt lat="44.88059" lon="5.93347">
        <ele>1322.6</ele>
        <time>2024-08-27T09:52:11Z</time>
      </trkpt>
      <trkpt lat="44.88057" lon="5.93347">
        <ele>1322.8</ele>
        <time>2024-08-27T09:52:12Z</time>
      </trkpt>
      <trkpt lat="44.88055" lon="5.93348">
        <ele>1323</ele>
        <time>2024-08-27T09:52:13Z</time>
      </trkpt>
      <trkpt lat="44.88054" lon="5.93349">
        <ele>1323.2</ele>
        <time>2024-08-27T09:52:14Z</time>
      </trkpt>
      <trkpt lat="44.88052" lon="5.93349">
        <ele>1323.4</ele>
        <time>2024-08-27T09:52:15Z</time>
      </trkpt>
      <trkpt lat="44.88051" lon="5.9335">
        <ele>1323.6</ele>
        <time>2024-08-27T09:52:16Z</time>
      </trkpt>
      <trkpt lat="44.88049" lon="5.9335">
        <ele>1323.8</ele>
        <time>2024-08-27T09:52:17Z</time>
      </trkpt>
      <trkpt lat="44.88046" lon="5.93351">
        <ele>1324.1</ele>
        <time>2024-08-27T09:52:18Z</time>
      </trkpt>
      <trkpt lat="44.88045" lon="5.93351">
        <ele>1324.2</ele>
        <time>2024-08-27T09:52:19Z</time>
      </trkpt>
      <trkpt lat="44.88043" lon="5.93351">
        <ele>1324.6</ele>
        <time>2024-08-27T09:52:20Z</time>
      </trkpt>
      <trkpt lat="44.88042" lon="5.93351">
        <ele>1324.7</ele>
        <time>2024-08-27T09:52:21Z</time>
      </trkpt>
      <trkpt lat="44.88039" lon="5.93352">
        <ele>1325</ele>
        <time>2024-08-27T09:52:22Z</time>
      </trkpt>
      <trkpt lat="44.88038" lon="5.93352">
        <ele>1325.1</ele>
        <time>2024-08-27T09:52:23Z</time>
      </trkpt>
      <trkpt lat="44.88036" lon="5.93353">
        <ele>1325.3</ele>
        <time>2024-08-27T09:52:24Z</time>
      </trkpt>
      <trkpt lat="44.88035" lon="5.93353">
        <ele>1325.5</ele>
        <time>2024-08-27T09:52:25Z</time>
      </trkpt>
      <trkpt lat="44.88032" lon="5.93354">
        <ele>1325.8</ele>
        <time>2024-08-27T09:52:26Z</time>
      </trkpt>
      <trkpt lat="44.88031" lon="5.93354">
        <ele>1326</ele>
        <time>2024-08-27T09:52:27Z</time>
      </trkpt>
      <trkpt lat="44.88028" lon="5.93354">
        <ele>1326.3</ele>
        <time>2024-08-27T09:52:28Z</time>
      </trkpt>
      <trkpt lat="44.88027" lon="5.93354">
        <ele>1326.4</ele>
        <time>2024-08-27T09:52:29Z</time>
      </trkpt>
      <trkpt lat="44.88025" lon="5.93355">
        <ele>1326.7</ele>
        <time>2024-08-27T09:52:30Z</time>
      </trkpt>
      <trkpt lat="44.88024" lon="5.93356">
        <ele>1326.9</ele>
        <time>2024-08-27T09:52:31Z</time>
      </trkpt>
      <trkpt lat="44.88022" lon="5.93356">
        <ele>1327.1</ele>
        <time>2024-08-27T09:52:32Z</time>
      </trkpt>
      <trkpt lat="44.8802" lon="5.93356">
        <ele>1327.4</ele>
        <time>2024-08-27T09:52:33Z</time>
      </trkpt>
      <trkpt lat="44.88019" lon="5.93357">
        <ele>1327.6</ele>
        <time>2024-08-27T09:52:34Z</time>
      </trkpt>
      <trkpt lat="44.88017" lon="5.93356">
        <ele>1327.8</ele>
        <time>2024-08-27T09:52:35Z</time>
      </trkpt>
      <trkpt lat="44.88015" lon="5.93357">
        <ele>1328</ele>
        <time>2024-08-27T09:52:36Z</time>
      </trkpt>
      <trkpt lat="44.88014" lon="5.93357">
        <ele>1328.3</ele>
        <time>2024-08-27T09:52:37Z</time>
      </trkpt>
      <trkpt lat="44.88012" lon="5.93358">
        <ele>1328.5</ele>
        <time>2024-08-27T09:52:38Z</time>
      </trkpt>
      <trkpt lat="44.8801" lon="5.93359">
        <ele>1328.8</ele>
        <time>2024-08-27T09:52:39Z</time>
      </trkpt>
      <trkpt lat="44.88008" lon="5.93359">
        <ele>1329</ele>
        <time>2024-08-27T09:52:40Z</time>
      </trkpt>
      <trkpt lat="44.88007" lon="5.93359">
        <ele>1329.2</ele>
        <time>2024-08-27T09:52:41Z</time>
      </trkpt>
      <trkpt lat="44.88004" lon="5.9336">
        <ele>1329.6</ele>
        <time>2024-08-27T09:52:42Z</time>
      </trkpt>
      <trkpt lat="44.88003" lon="5.9336">
        <ele>1329.7</ele>
        <time>2024-08-27T09:52:43Z</time>
      </trkpt>
      <trkpt lat="44.88" lon="5.9336">
        <ele>1330.1</ele>
        <time>2024-08-27T09:52:44Z</time>
      </trkpt>
      <trkpt lat="44.87999" lon="5.9336">
        <ele>1330.3</ele>
        <time>2024-08-27T09:52:45Z</time>
      </trkpt>
      <trkpt lat="44.87996" lon="5.9336">
        <ele>1330.6</ele>
        <time>2024-08-27T09:52:46Z</time>
      </trkpt>
      <trkpt lat="44.87996" lon="5.9336">
        <ele>1330.8</ele>
        <time>2024-08-27T09:52:47Z</time>
      </trkpt>
      <trkpt lat="44.87994" lon="5.9336">
        <ele>1331</ele>
        <time>2024-08-27T09:52:48Z</time>
      </trkpt>
      <trkpt lat="44.87992" lon="5.93359">
        <ele>1331.2</ele>
        <time>2024-08-27T09:52:49Z</time>
      </trkpt>
      <trkpt lat="44.87991" lon="5.93359">
        <ele>1331.4</ele>
        <time>2024-08-27T09:52:50Z</time>
      </trkpt>
      <trkpt lat="44.87989" lon="5.93358">
        <ele>1331.7</ele>
        <time>2024-08-27T09:52:51Z</time>
      </trkpt>
      <trkpt lat="44.87988" lon="5.93357">
        <ele>1331.9</ele>
        <time>2024-08-27T09:52:52Z</time>
      </trkpt>
      <trkpt lat="44.87987" lon="5.93356">
        <ele>1332.1</ele>
        <time>2024-08-27T09:52:53Z</time>
      </trkpt>
      <trkpt lat="44.87984" lon="5.93354">
        <ele>1332.4</ele>
        <time>2024-08-27T09:52:54Z</time>
      </trkpt>
      <trkpt lat="44.87983" lon="5.93353">
        <ele>1332.5</ele>
        <time>2024-08-27T09:52:55Z</time>
      </trkpt>
      <trkpt lat="44.87981" lon="5.93351">
        <ele>1332.9</ele>
        <time>2024-08-27T09:52:56Z</time>
      </trkpt>
      <trkpt lat="44.8798" lon="5.93351">
        <ele>1333</ele>
        <time>2024-08-27T09:52:57Z</time>
      </trkpt>
      <trkpt lat="44.87978" lon="5.93349">
        <ele>1333.4</ele>
        <time>2024-08-27T09:52:58Z</time>
      </trkpt>
      <trkpt lat="44.87977" lon="5.93348">
        <ele>1333.5</ele>
        <time>2024-08-27T09:52:59Z</time>
      </trkpt>
      <trkpt lat="44.87974" lon="5.93346">
        <ele>1333.8</ele>
        <time>2024-08-27T09:53:00Z</time>
      </trkpt>
      <trkpt lat="44.87973" lon="5.93346">
        <ele>1333.9</ele>
        <time>2024-08-27T09:53:01Z</time>
      </trkpt>
      <trkpt lat="44.87972" lon="5.93345">
        <ele>1334.1</ele>
        <time>2024-08-27T09:53:02Z</time>
      </trkpt>
      <trkpt lat="44.87971" lon="5.93343">
        <ele>1334.3</ele>
        <time>2024-08-27T09:53:03Z</time>
      </trkpt>
      <trkpt lat="44.87969" lon="5.93342">
        <ele>1334.5</ele>
        <time>2024-08-27T09:53:04Z</time>
      </trkpt>
      <trkpt lat="44.87968" lon="5.93341">
        <ele>1334.7</ele>
        <time>2024-08-27T09:53:05Z</time>
      </trkpt>
      <trkpt lat="44.87966" lon="5.93339">
        <ele>1334.9</ele>
        <time>2024-08-27T09:53:06Z</time>
      </trkpt>
      <trkpt lat="44.87965" lon="5.93338">
        <ele>1335.1</ele>
        <time>2024-08-27T09:53:07Z</time>
      </trkpt>
      <trkpt lat="44.87963" lon="5.93335">
        <ele>1335.4</ele>
        <time>2024-08-27T09:53:08Z</time>
      </trkpt>
      <trkpt lat="44.87962" lon="5.93334">
        <ele>1335.6</ele>
        <time>2024-08-27T09:53:09Z</time>
      </trkpt>
      <trkpt lat="44.8796" lon="5.93332">
        <ele>1335.9</ele>
        <time>2024-08-27T09:53:10Z</time>
      </trkpt>
      <trkpt lat="44.87959" lon="5.93331">
        <ele>1336</ele>
        <time>2024-08-27T09:53:11Z</time>
      </trkpt>
      <trkpt lat="44.87957" lon="5.93328">
        <ele>1336.3</ele>
        <time>2024-08-27T09:53:12Z</time>
      </trkpt>
      <trkpt lat="44.87957" lon="5.93327">
        <ele>1336.4</ele>
        <time>2024-08-27T09:53:13Z</time>
      </trkpt>
      <trkpt lat="44.87955" lon="5.93323">
        <ele>1336.8</ele>
        <time>2024-08-27T09:53:14Z</time>
      </trkpt>
      <trkpt lat="44.87955" lon="5.93322">
        <ele>1336.9</ele>
        <time>2024-08-27T09:53:15Z</time>
      </trkpt>
      <trkpt lat="44.87954" lon="5.9332">
        <ele>1337.1</ele>
        <time>2024-08-27T09:53:16Z</time>
      </trkpt>
      <trkpt lat="44.87954" lon="5.93318">
        <ele>1337.3</ele>
        <time>2024-08-27T09:53:17Z</time>
      </trkpt>
      <trkpt lat="44.87953" lon="5.93315">
        <ele>1337.5</ele>
        <time>2024-08-27T09:53:18Z</time>
      </trkpt>
      <trkpt lat="44.87953" lon="5.93313">
        <ele>1337.7</ele>
        <time>2024-08-27T09:53:19Z</time>
      </trkpt>
      <trkpt lat="44.87953" lon="5.9331">
        <ele>1338</ele>
        <time>2024-08-27T09:53:20Z</time>
      </trkpt>
      <trkpt lat="44.87953" lon="5.93308">
        <ele>1338.2</ele>
        <time>2024-08-27T09:53:21Z</time>
      </trkpt>
      <trkpt lat="44.87952" lon="5.93305">
        <ele>1338.4</ele>
        <time>2024-08-27T09:53:22Z</time>
      </trkpt>
      <trkpt lat="44.87952" lon="5.93303">
        <ele>1338.6</ele>
        <time>2024-08-27T09:53:23Z</time>
      </trkpt>
      <trkpt lat="44.87952" lon="5.933">
        <ele>1338.8</ele>
        <time>2024-08-27T09:53:24Z</time>
      </trkpt>
      <trkpt lat="44.87951" lon="5.93298">
        <ele>1339</ele>
        <time>2024-08-27T09:53:25Z</time>
      </trkpt>
      <trkpt lat="44.87951" lon="5.93296">
        <ele>1339.3</ele>
        <time>2024-08-27T09:53:26Z</time>
      </trkpt>
      <trkpt lat="44.8795" lon="5.93293">
        <ele>1339.5</ele>
        <time>2024-08-27T09:53:27Z</time>
      </trkpt>
      <trkpt lat="44.8795" lon="5.93291">
        <ele>1339.7</ele>
        <time>2024-08-27T09:53:28Z</time>
      </trkpt>
      <trkpt lat="44.87949" lon="5.93289">
        <ele>1339.9</ele>
        <time>2024-08-27T09:53:29Z</time>
      </trkpt>
      <trkpt lat="44.87949" lon="5.93287">
        <ele>1340.1</ele>
        <time>2024-08-27T09:53:30Z</time>
      </trkpt>
      <trkpt lat="44.87948" lon="5.93284">
        <ele>1340.3</ele>
        <time>2024-08-27T09:53:31Z</time>
      </trkpt>
      <trkpt lat="44.87948" lon="5.93282">
        <ele>1340.5</ele>
        <time>2024-08-27T09:53:32Z</time>
      </trkpt>
      <trkpt lat="44.87947" lon="5.9328">
        <ele>1340.7</ele>
        <time>2024-08-27T09:53:33Z</time>
      </trkpt>
      <trkpt lat="44.87946" lon="5.93278">
        <ele>1340.9</ele>
        <time>2024-08-27T09:53:34Z</time>
      </trkpt>
      <trkpt lat="44.87944" lon="5.93277">
        <ele>1341.1</ele>
        <time>2024-08-27T09:53:35Z</time>
      </trkpt>
      <trkpt lat="44.87943" lon="5.93275">
        <ele>1341.3</ele>
        <time>2024-08-27T09:53:36Z</time>
      </trkpt>
      <trkpt lat="44.87942" lon="5.93274">
        <ele>1341.5</ele>
        <time>2024-08-27T09:53:37Z</time>
      </trkpt>
      <trkpt lat="44.8794" lon="5.93272">
        <ele>1341.8</ele>
        <time>2024-08-27T09:53:38Z</time>
      </trkpt>
      <trkpt lat="44.87939" lon="5.9327">
        <ele>1342</ele>
        <time>2024-08-27T09:53:39Z</time>
      </trkpt>
      <trkpt lat="44.87938" lon="5.93269">
        <ele>1342.2</ele>
        <time>2024-08-27T09:53:40Z</time>
      </trkpt>
      <trkpt lat="44.87936" lon="5.93268">
        <ele>1342.3</ele>
        <time>2024-08-27T09:53:41Z</time>
      </trkpt>
      <trkpt lat="44.87935" lon="5.93267">
        <ele>1342.5</ele>
        <time>2024-08-27T09:53:42Z</time>
      </trkpt>
      <trkpt lat="44.87934" lon="5.93266">
        <ele>1342.7</ele>
        <time>2024-08-27T09:53:43Z</time>
      </trkpt>
      <trkpt lat="44.87932" lon="5.93264">
        <ele>1343</ele>
        <time>2024-08-27T09:53:44Z</time>
      </trkpt>
      <trkpt lat="44.87931" lon="5.93262">
        <ele>1343.2</ele>
        <time>2024-08-27T09:53:45Z</time>
      </trkpt>
      <trkpt lat="44.8793" lon="5.93261">
        <ele>1343.3</ele>
        <time>2024-08-27T09:53:46Z</time>
      </trkpt>
      <trkpt lat="44.87929" lon="5.93259">
        <ele>1343.5</ele>
        <time>2024-08-27T09:53:47Z</time>
      </trkpt>
      <trkpt lat="44.87927" lon="5.93258">
        <ele>1343.8</ele>
        <time>2024-08-27T09:53:48Z</time>
      </trkpt>
      <trkpt lat="44.87926" lon="5.93256">
        <ele>1344</ele>
        <time>2024-08-27T09:53:49Z</time>
      </trkpt>
      <trkpt lat="44.87924" lon="5.93255">
        <ele>1344.2</ele>
        <time>2024-08-27T09:53:50Z</time>
      </trkpt>
      <trkpt lat="44.87923" lon="5.93254">
        <ele>1344.4</ele>
        <time>2024-08-27T09:53:51Z</time>
      </trkpt>
      <trkpt lat="44.87922" lon="5.93252">
        <ele>1344.6</ele>
        <time>2024-08-27T09:53:52Z</time>
      </trkpt>
      <trkpt lat="44.8792" lon="5.93251">
        <ele>1344.8</ele>
        <time>2024-08-27T09:53:53Z</time>
      </trkpt>
      <trkpt lat="44.87919" lon="5.9325">
        <ele>1345</ele>
        <time>2024-08-27T09:53:54Z</time>
      </trkpt>
      <trkpt lat="44.87917" lon="5.93249">
        <ele>1345.3</ele>
        <time>2024-08-27T09:53:55Z</time>
      </trkpt>
      <trkpt lat="44.87916" lon="5.93247">
        <ele>1345.5</ele>
        <time>2024-08-27T09:53:56Z</time>
      </trkpt>
      <trkpt lat="44.87914" lon="5.93246">
        <ele>1345.7</ele>
        <time>2024-08-27T09:53:57Z</time>
      </trkpt>
      <trkpt lat="44.87913" lon="5.93245">
        <ele>1345.9</ele>
        <time>2024-08-27T09:53:58Z</time>
      </trkpt>
      <trkpt lat="44.87912" lon="5.93244">
        <ele>1346.1</ele>
        <time>2024-08-27T09:53:59Z</time>
      </trkpt>
      <trkpt lat="44.8791" lon="5.93243">
        <ele>1346.3</ele>
        <time>2024-08-27T09:54:00Z</time>
      </trkpt>
      <trkpt lat="44.87908" lon="5.93242">
        <ele>1346.5</ele>
        <time>2024-08-27T09:54:01Z</time>
      </trkpt>
      <trkpt lat="44.87907" lon="5.93242">
        <ele>1346.7</ele>
        <time>2024-08-27T09:54:02Z</time>
      </trkpt>
      <trkpt lat="44.87905" lon="5.93241">
        <ele>1346.9</ele>
        <time>2024-08-27T09:54:03Z</time>
      </trkpt>
      <trkpt lat="44.87903" lon="5.9324">
        <ele>1347.2</ele>
        <time>2024-08-27T09:54:04Z</time>
      </trkpt>
      <trkpt lat="44.87902" lon="5.9324">
        <ele>1347.4</ele>
        <time>2024-08-27T09:54:05Z</time>
      </trkpt>
      <trkpt lat="44.87899" lon="5.93239">
        <ele>1347.7</ele>
        <time>2024-08-27T09:54:06Z</time>
      </trkpt>
      <trkpt lat="44.87898" lon="5.93238">
        <ele>1347.8</ele>
        <time>2024-08-27T09:54:07Z</time>
      </trkpt>
      <trkpt lat="44.87895" lon="5.93237">
        <ele>1348.2</ele>
        <time>2024-08-27T09:54:08Z</time>
      </trkpt>
      <trkpt lat="44.87895" lon="5.93237">
        <ele>1348.3</ele>
        <time>2024-08-27T09:54:09Z</time>
      </trkpt>
      <trkpt lat="44.87893" lon="5.93236">
        <ele>1348.5</ele>
        <time>2024-08-27T09:54:10Z</time>
      </trkpt>
      <trkpt lat="44.87891" lon="5.93237">
        <ele>1348.7</ele>
        <time>2024-08-27T09:54:11Z</time>
      </trkpt>
      <trkpt lat="44.87889" lon="5.93237">
        <ele>1348.9</ele>
        <time>2024-08-27T09:54:12Z</time>
      </trkpt>
      <trkpt lat="44.87888" lon="5.93237">
        <ele>1349.2</ele>
        <time>2024-08-27T09:54:13Z</time>
      </trkpt>
      <trkpt lat="44.87886" lon="5.93237">
        <ele>1349.4</ele>
        <time>2024-08-27T09:54:14Z</time>
      </trkpt>
      <trkpt lat="44.87884" lon="5.93237">
        <ele>1349.6</ele>
        <time>2024-08-27T09:54:15Z</time>
      </trkpt>
      <trkpt lat="44.87883" lon="5.93237">
        <ele>1349.8</ele>
        <time>2024-08-27T09:54:16Z</time>
      </trkpt>
      <trkpt lat="44.87881" lon="5.93236">
        <ele>1350</ele>
        <time>2024-08-27T09:54:17Z</time>
      </trkpt>
      <trkpt lat="44.8788" lon="5.93235">
        <ele>1350.2</ele>
        <time>2024-08-27T09:54:18Z</time>
      </trkpt>
      <trkpt lat="44.87878" lon="5.93234">
        <ele>1350.5</ele>
        <time>2024-08-27T09:54:19Z</time>
      </trkpt>
      <trkpt lat="44.87877" lon="5.93233">
        <ele>1350.7</ele>
        <time>2024-08-27T09:54:20Z</time>
      </trkpt>
      <trkpt lat="44.87875" lon="5.93232">
        <ele>1350.9</ele>
        <time>2024-08-27T09:54:21Z</time>
      </trkpt>
      <trkpt lat="44.87873" lon="5.93229">
        <ele>1351.3</ele>
        <time>2024-08-27T09:54:22Z</time>
      </trkpt>
      <trkpt lat="44.87872" lon="5.93229">
        <ele>1351.4</ele>
        <time>2024-08-27T09:54:23Z</time>
      </trkpt>
      <trkpt lat="44.8787" lon="5.93226">
        <ele>1351.7</ele>
        <time>2024-08-27T09:54:24Z</time>
      </trkpt>
      <trkpt lat="44.87869" lon="5.93225">
        <ele>1351.8</ele>
        <time>2024-08-27T09:54:25Z</time>
      </trkpt>
      <trkpt lat="44.87868" lon="5.93224">
        <ele>1352.1</ele>
        <time>2024-08-27T09:54:26Z</time>
      </trkpt>
      <trkpt lat="44.87866" lon="5.93222">
        <ele>1352.3</ele>
        <time>2024-08-27T09:54:27Z</time>
      </trkpt>
      <trkpt lat="44.87865" lon="5.9322">
        <ele>1352.5</ele>
        <time>2024-08-27T09:54:28Z</time>
      </trkpt>
      <trkpt lat="44.87864" lon="5.93218">
        <ele>1352.7</ele>
        <time>2024-08-27T09:54:29Z</time>
      </trkpt>
      <trkpt lat="44.87863" lon="5.93214">
        <ele>1353.1</ele>
        <time>2024-08-27T09:54:30Z</time>
      </trkpt>
      <trkpt lat="44.87862" lon="5.93213">
        <ele>1353.2</ele>
        <time>2024-08-27T09:54:31Z</time>
      </trkpt>
      <trkpt lat="44.8786" lon="5.9321">
        <ele>1353.6</ele>
        <time>2024-08-27T09:54:32Z</time>
      </trkpt>
      <trkpt lat="44.8786" lon="5.93209">
        <ele>1353.7</ele>
        <time>2024-08-27T09:54:33Z</time>
      </trkpt>
      <trkpt lat="44.87859" lon="5.93207">
        <ele>1353.9</ele>
        <time>2024-08-27T09:54:34Z</time>
      </trkpt>
      <trkpt lat="44.87858" lon="5.93205">
        <ele>1354.1</ele>
        <time>2024-08-27T09:54:35Z</time>
      </trkpt>
      <trkpt lat="44.87857" lon="5.93202">
        <ele>1354.3</ele>
        <time>2024-08-27T09:54:36Z</time>
      </trkpt>
      <trkpt lat="44.87856" lon="5.932">
        <ele>1354.5</ele>
        <time>2024-08-27T09:54:37Z</time>
      </trkpt>
      <trkpt lat="44.87855" lon="5.93197">
        <ele>1354.9</ele>
        <time>2024-08-27T09:54:38Z</time>
      </trkpt>
      <trkpt lat="44.87854" lon="5.93196">
        <ele>1355</ele>
        <time>2024-08-27T09:54:39Z</time>
      </trkpt>
      <trkpt lat="44.87853" lon="5.93194">
        <ele>1355.2</ele>
        <time>2024-08-27T09:54:40Z</time>
      </trkpt>
      <trkpt lat="44.87852" lon="5.93192">
        <ele>1355.4</ele>
        <time>2024-08-27T09:54:41Z</time>
      </trkpt>
      <trkpt lat="44.87852" lon="5.9319">
        <ele>1355.6</ele>
        <time>2024-08-27T09:54:42Z</time>
      </trkpt>
      <trkpt lat="44.87851" lon="5.93188">
        <ele>1355.8</ele>
        <time>2024-08-27T09:54:43Z</time>
      </trkpt>
      <trkpt lat="44.8785" lon="5.93186">
        <ele>1356</ele>
        <time>2024-08-27T09:54:44Z</time>
      </trkpt>
      <trkpt lat="44.8785" lon="5.93183">
        <ele>1356.2</ele>
        <time>2024-08-27T09:54:45Z</time>
      </trkpt>
      <trkpt lat="44.87849" lon="5.93181">
        <ele>1356.5</ele>
        <time>2024-08-27T09:54:46Z</time>
      </trkpt>
      <trkpt lat="44.87849" lon="5.93179">
        <ele>1356.7</ele>
        <time>2024-08-27T09:54:47Z</time>
      </trkpt>
      <trkpt lat="44.87848" lon="5.93176">
        <ele>1356.9</ele>
        <time>2024-08-27T09:54:48Z</time>
      </trkpt>
      <trkpt lat="44.87848" lon="5.93174">
        <ele>1357.1</ele>
        <time>2024-08-27T09:54:49Z</time>
      </trkpt>
      <trkpt lat="44.87847" lon="5.93172">
        <ele>1357.3</ele>
        <time>2024-08-27T09:54:50Z</time>
      </trkpt>
      <trkpt lat="44.87846" lon="5.9317">
        <ele>1357.6</ele>
        <time>2024-08-27T09:54:51Z</time>
      </trkpt>
      <trkpt lat="44.87845" lon="5.93168">
        <ele>1357.8</ele>
        <time>2024-08-27T09:54:52Z</time>
      </trkpt>
      <trkpt lat="44.87845" lon="5.93166">
        <ele>1358</ele>
        <time>2024-08-27T09:54:53Z</time>
      </trkpt>
      <trkpt lat="44.87844" lon="5.93164">
        <ele>1358.2</ele>
        <time>2024-08-27T09:54:54Z</time>
      </trkpt>
      <trkpt lat="44.87843" lon="5.93162">
        <ele>1358.5</ele>
        <time>2024-08-27T09:54:55Z</time>
      </trkpt>
      <trkpt lat="44.87842" lon="5.9316">
        <ele>1358.7</ele>
        <time>2024-08-27T09:54:56Z</time>
      </trkpt>
      <trkpt lat="44.87841" lon="5.93157">
        <ele>1358.9</ele>
        <time>2024-08-27T09:54:57Z</time>
      </trkpt>
      <trkpt lat="44.8784" lon="5.93155">
        <ele>1359.1</ele>
        <time>2024-08-27T09:54:58Z</time>
      </trkpt>
      <trkpt lat="44.8784" lon="5.93153">
        <ele>1359.3</ele>
        <time>2024-08-27T09:54:59Z</time>
      </trkpt>
      <trkpt lat="44.87839" lon="5.93149">
        <ele>1359.6</ele>
        <time>2024-08-27T09:55:00Z</time>
      </trkpt>
      <trkpt lat="44.87838" lon="5.93148">
        <ele>1359.7</ele>
        <time>2024-08-27T09:55:01Z</time>
      </trkpt>
      <trkpt lat="44.87838" lon="5.93146">
        <ele>1360</ele>
        <time>2024-08-27T09:55:02Z</time>
      </trkpt>
      <trkpt lat="44.87837" lon="5.93143">
        <ele>1360.2</ele>
        <time>2024-08-27T09:55:03Z</time>
      </trkpt>
      <trkpt lat="44.87837" lon="5.93139">
        <ele>1360.5</ele>
        <time>2024-08-27T09:55:04Z</time>
      </trkpt>
      <trkpt lat="44.87837" lon="5.93138">
        <ele>1360.6</ele>
        <time>2024-08-27T09:55:05Z</time>
      </trkpt>
      <trkpt lat="44.87837" lon="5.93134">
        <ele>1360.9</ele>
        <time>2024-08-27T09:55:06Z</time>
      </trkpt>
      <trkpt lat="44.87837" lon="5.93133">
        <ele>1361.1</ele>
        <time>2024-08-27T09:55:07Z</time>
      </trkpt>
      <trkpt lat="44.87837" lon="5.93129">
        <ele>1361.4</ele>
        <time>2024-08-27T09:55:08Z</time>
      </trkpt>
      <trkpt lat="44.87837" lon="5.93128">
        <ele>1361.5</ele>
        <time>2024-08-27T09:55:09Z</time>
      </trkpt>
      <trkpt lat="44.87838" lon="5.93124">
        <ele>1361.8</ele>
        <time>2024-08-27T09:55:10Z</time>
      </trkpt>
      <trkpt lat="44.87838" lon="5.93123">
        <ele>1361.9</ele>
        <time>2024-08-27T09:55:11Z</time>
      </trkpt>
      <trkpt lat="44.87839" lon="5.9312">
        <ele>1362.2</ele>
        <time>2024-08-27T09:55:12Z</time>
      </trkpt>
      <trkpt lat="44.87839" lon="5.93118">
        <ele>1362.4</ele>
        <time>2024-08-27T09:55:13Z</time>
      </trkpt>
      <trkpt lat="44.8784" lon="5.93116">
        <ele>1362.6</ele>
        <time>2024-08-27T09:55:14Z</time>
      </trkpt>
      <trkpt lat="44.8784" lon="5.93113">
        <ele>1362.8</ele>
        <time>2024-08-27T09:55:15Z</time>
      </trkpt>
      <trkpt lat="44.87841" lon="5.93109">
        <ele>1363.2</ele>
        <time>2024-08-27T09:55:16Z</time>
      </trkpt>
      <trkpt lat="44.87841" lon="5.93108">
        <ele>1363.3</ele>
        <time>2024-08-27T09:55:17Z</time>
      </trkpt>
      <trkpt lat="44.87842" lon="5.93106">
        <ele>1363.5</ele>
        <time>2024-08-27T09:55:18Z</time>
      </trkpt>
      <trkpt lat="44.87842" lon="5.93104">
        <ele>1363.7</ele>
        <time>2024-08-27T09:55:19Z</time>
      </trkpt>
      <trkpt lat="44.87842" lon="5.93101">
        <ele>1363.9</ele>
        <time>2024-08-27T09:55:20Z</time>
      </trkpt>
      <trkpt lat="44.87842" lon="5.93099">
        <ele>1364.1</ele>
        <time>2024-08-27T09:55:21Z</time>
      </trkpt>
      <trkpt lat="44.87842" lon="5.93096">
        <ele>1364.3</ele>
        <time>2024-08-27T09:55:22Z</time>
      </trkpt>
      <trkpt lat="44.87842" lon="5.93094">
        <ele>1364.6</ele>
        <time>2024-08-27T09:55:23Z</time>
      </trkpt>
      <trkpt lat="44.87842" lon="5.93091">
        <ele>1364.8</ele>
        <time>2024-08-27T09:55:24Z</time>
      </trkpt>
      <trkpt lat="44.87842" lon="5.93089">
        <ele>1365</ele>
        <time>2024-08-27T09:55:25Z</time>
      </trkpt>
      <trkpt lat="44.87841" lon="5.93087">
        <ele>1365.2</ele>
        <time>2024-08-27T09:55:26Z</time>
      </trkpt>
      <trkpt lat="44.87841" lon="5.93084">
        <ele>1365.4</ele>
        <time>2024-08-27T09:55:27Z</time>
      </trkpt>
      <trkpt lat="44.8784" lon="5.93082">
        <ele>1365.7</ele>
        <time>2024-08-27T09:55:28Z</time>
      </trkpt>
      <trkpt lat="44.87839" lon="5.9308">
        <ele>1365.9</ele>
        <time>2024-08-27T09:55:29Z</time>
      </trkpt>
      <trkpt lat="44.87838" lon="5.93078">
        <ele>1366.1</ele>
        <time>2024-08-27T09:55:30Z</time>
      </trkpt>
      <trkpt lat="44.87837" lon="5.93076">
        <ele>1366.3</ele>
        <time>2024-08-27T09:55:31Z</time>
      </trkpt>
      <trkpt lat="44.87836" lon="5.93074">
        <ele>1366.5</ele>
        <time>2024-08-27T09:55:32Z</time>
      </trkpt>
      <trkpt lat="44.87835" lon="5.93072">
        <ele>1366.7</ele>
        <time>2024-08-27T09:55:33Z</time>
      </trkpt>
      <trkpt lat="44.87835" lon="5.9307">
        <ele>1366.9</ele>
        <time>2024-08-27T09:55:34Z</time>
      </trkpt>
      <trkpt lat="44.87834" lon="5.93067">
        <ele>1367.1</ele>
        <time>2024-08-27T09:55:35Z</time>
      </trkpt>
      <trkpt lat="44.87834" lon="5.93065">
        <ele>1367.3</ele>
        <time>2024-08-27T09:55:36Z</time>
      </trkpt>
      <trkpt lat="44.87833" lon="5.93063">
        <ele>1367.5</ele>
        <time>2024-08-27T09:55:37Z</time>
      </trkpt>
      <trkpt lat="44.87832" lon="5.93062">
        <ele>1367.7</ele>
        <time>2024-08-27T09:55:38Z</time>
      </trkpt>
      <trkpt lat="44.8783" lon="5.9306">
        <ele>1368</ele>
        <time>2024-08-27T09:55:39Z</time>
      </trkpt>
      <trkpt lat="44.87828" lon="5.93058">
        <ele>1368.3</ele>
        <time>2024-08-27T09:55:40Z</time>
      </trkpt>
      <trkpt lat="44.87827" lon="5.93057">
        <ele>1368.4</ele>
        <time>2024-08-27T09:55:41Z</time>
      </trkpt>
      <trkpt lat="44.87826" lon="5.93055">
        <ele>1368.7</ele>
        <time>2024-08-27T09:55:42Z</time>
      </trkpt>
      <trkpt lat="44.87825" lon="5.93053">
        <ele>1368.9</ele>
        <time>2024-08-27T09:55:43Z</time>
      </trkpt>
      <trkpt lat="44.87824" lon="5.93051">
        <ele>1369.1</ele>
        <time>2024-08-27T09:55:44Z</time>
      </trkpt>
      <trkpt lat="44.87823" lon="5.93049">
        <ele>1369.4</ele>
        <time>2024-08-27T09:55:45Z</time>
      </trkpt>
      <trkpt lat="44.87822" lon="5.93047">
        <ele>1369.6</ele>
        <time>2024-08-27T09:55:46Z</time>
      </trkpt>
      <trkpt lat="44.87821" lon="5.93045">
        <ele>1369.8</ele>
        <time>2024-08-27T09:55:47Z</time>
      </trkpt>
      <trkpt lat="44.87819" lon="5.93044">
        <ele>1370.1</ele>
        <time>2024-08-27T09:55:48Z</time>
      </trkpt>
      <trkpt lat="44.87818" lon="5.93042">
        <ele>1370.3</ele>
        <time>2024-08-27T09:55:49Z</time>
      </trkpt>
      <trkpt lat="44.87817" lon="5.9304">
        <ele>1370.6</ele>
        <time>2024-08-27T09:55:50Z</time>
      </trkpt>
      <trkpt lat="44.87816" lon="5.93039">
        <ele>1370.8</ele>
        <time>2024-08-27T09:55:51Z</time>
      </trkpt>
      <trkpt lat="44.87814" lon="5.93037">
        <ele>1371</ele>
        <time>2024-08-27T09:55:52Z</time>
      </trkpt>
      <trkpt lat="44.87813" lon="5.93035">
        <ele>1371.2</ele>
        <time>2024-08-27T09:55:53Z</time>
      </trkpt>
      <trkpt lat="44.87812" lon="5.93034">
        <ele>1371.5</ele>
        <time>2024-08-27T09:55:54Z</time>
      </trkpt>
      <trkpt lat="44.87811" lon="5.93033">
        <ele>1371.7</ele>
        <time>2024-08-27T09:55:55Z</time>
      </trkpt>
      <trkpt lat="44.87809" lon="5.93031">
        <ele>1371.9</ele>
        <time>2024-08-27T09:55:56Z</time>
      </trkpt>
      <trkpt lat="44.87808" lon="5.9303">
        <ele>1372.1</ele>
        <time>2024-08-27T09:55:57Z</time>
      </trkpt>
      <trkpt lat="44.87807" lon="5.93028">
        <ele>1372.4</ele>
        <time>2024-08-27T09:55:58Z</time>
      </trkpt>
      <trkpt lat="44.87806" lon="5.93026">
        <ele>1372.6</ele>
        <time>2024-08-27T09:55:59Z</time>
      </trkpt>
      <trkpt lat="44.87804" lon="5.93025">
        <ele>1372.9</ele>
        <time>2024-08-27T09:56:00Z</time>
      </trkpt>
      <trkpt lat="44.87803" lon="5.93023">
        <ele>1373.2</ele>
        <time>2024-08-27T09:56:01Z</time>
      </trkpt>
      <trkpt lat="44.87802" lon="5.9302">
        <ele>1373.6</ele>
        <time>2024-08-27T09:56:02Z</time>
      </trkpt>
      <trkpt lat="44.87801" lon="5.93018">
        <ele>1373.7</ele>
        <time>2024-08-27T09:56:03Z</time>
      </trkpt>
      <trkpt lat="44.878" lon="5.93016">
        <ele>1374</ele>
        <time>2024-08-27T09:56:04Z</time>
      </trkpt>
      <trkpt lat="44.87799" lon="5.93014">
        <ele>1374.2</ele>
        <time>2024-08-27T09:56:05Z</time>
      </trkpt>
      <trkpt lat="44.87798" lon="5.93012">
        <ele>1374.5</ele>
        <time>2024-08-27T09:56:06Z</time>
      </trkpt>
      <trkpt lat="44.87798" lon="5.9301">
        <ele>1374.7</ele>
        <time>2024-08-27T09:56:07Z</time>
      </trkpt>
      <trkpt lat="44.87797" lon="5.93006">
        <ele>1375.1</ele>
        <time>2024-08-27T09:56:08Z</time>
      </trkpt>
      <trkpt lat="44.87797" lon="5.93005">
        <ele>1375.2</ele>
        <time>2024-08-27T09:56:09Z</time>
      </trkpt>
      <trkpt lat="44.87796" lon="5.93001">
        <ele>1375.7</ele>
        <time>2024-08-27T09:56:10Z</time>
      </trkpt>
      <trkpt lat="44.87796" lon="5.93">
        <ele>1375.8</ele>
        <time>2024-08-27T09:56:11Z</time>
      </trkpt>
      <trkpt lat="44.87795" lon="5.92998">
        <ele>1376</ele>
        <time>2024-08-27T09:56:12Z</time>
      </trkpt>
      <trkpt lat="44.87795" lon="5.92995">
        <ele>1376.3</ele>
        <time>2024-08-27T09:56:13Z</time>
      </trkpt>
      <trkpt lat="44.87795" lon="5.92993">
        <ele>1376.5</ele>
        <time>2024-08-27T09:56:14Z</time>
      </trkpt>
      <trkpt lat="44.87795" lon="5.9299">
        <ele>1376.8</ele>
        <time>2024-08-27T09:56:15Z</time>
      </trkpt>
      <trkpt lat="44.87794" lon="5.92988">
        <ele>1377.1</ele>
        <time>2024-08-27T09:56:16Z</time>
      </trkpt>
      <trkpt lat="44.87794" lon="5.92985">
        <ele>1377.3</ele>
        <time>2024-08-27T09:56:17Z</time>
      </trkpt>
      <trkpt lat="44.87794" lon="5.92983">
        <ele>1377.5</ele>
        <time>2024-08-27T09:56:18Z</time>
      </trkpt>
      <trkpt lat="44.87794" lon="5.92981">
        <ele>1377.7</ele>
        <time>2024-08-27T09:56:19Z</time>
      </trkpt>
      <trkpt lat="44.87794" lon="5.92978">
        <ele>1378</ele>
        <time>2024-08-27T09:56:20Z</time>
      </trkpt>
      <trkpt lat="44.87794" lon="5.92976">
        <ele>1378.2</ele>
        <time>2024-08-27T09:56:21Z</time>
      </trkpt>
      <trkpt lat="44.87795" lon="5.92973">
        <ele>1378.4</ele>
        <time>2024-08-27T09:56:22Z</time>
      </trkpt>
      <trkpt lat="44.87794" lon="5.92971">
        <ele>1378.6</ele>
        <time>2024-08-27T09:56:23Z</time>
      </trkpt>
      <trkpt lat="44.87794" lon="5.92969">
        <ele>1378.8</ele>
        <time>2024-08-27T09:56:24Z</time>
      </trkpt>
      <trkpt lat="44.87794" lon="5.92967">
        <ele>1379</ele>
        <time>2024-08-27T09:56:25Z</time>
      </trkpt>
      <trkpt lat="44.87794" lon="5.92964">
        <ele>1379.2</ele>
        <time>2024-08-27T09:56:26Z</time>
      </trkpt>
      <trkpt lat="44.87795" lon="5.92962">
        <ele>1379.4</ele>
        <time>2024-08-27T09:56:27Z</time>
      </trkpt>
      <trkpt lat="44.87795" lon="5.9296">
        <ele>1379.6</ele>
        <time>2024-08-27T09:56:28Z</time>
      </trkpt>
      <trkpt lat="44.87795" lon="5.92958">
        <ele>1379.8</ele>
        <time>2024-08-27T09:56:29Z</time>
      </trkpt>
      <trkpt lat="44.87795" lon="5.92954">
        <ele>1380.1</ele>
        <time>2024-08-27T09:56:30Z</time>
      </trkpt>
      <trkpt lat="44.87795" lon="5.92952">
        <ele>1380.3</ele>
        <time>2024-08-27T09:56:31Z</time>
      </trkpt>
      <trkpt lat="44.87795" lon="5.9295">
        <ele>1380.4</ele>
        <time>2024-08-27T09:56:32Z</time>
      </trkpt>
      <trkpt lat="44.87795" lon="5.92948">
        <ele>1380.7</ele>
        <time>2024-08-27T09:56:33Z</time>
      </trkpt>
      <trkpt lat="44.87795" lon="5.92945">
        <ele>1380.8</ele>
        <time>2024-08-27T09:56:34Z</time>
      </trkpt>
      <trkpt lat="44.87796" lon="5.92943">
        <ele>1381</ele>
        <time>2024-08-27T09:56:35Z</time>
      </trkpt>
      <trkpt lat="44.87796" lon="5.92941">
        <ele>1381.2</ele>
        <time>2024-08-27T09:56:36Z</time>
      </trkpt>
      <trkpt lat="44.87796" lon="5.92938">
        <ele>1381.4</ele>
        <time>2024-08-27T09:56:37Z</time>
      </trkpt>
      <trkpt lat="44.87796" lon="5.92936">
        <ele>1381.7</ele>
        <time>2024-08-27T09:56:38Z</time>
      </trkpt>
      <trkpt lat="44.87796" lon="5.92934">
        <ele>1381.9</ele>
        <time>2024-08-27T09:56:39Z</time>
      </trkpt>
      <trkpt lat="44.87796" lon="5.92931">
        <ele>1382.1</ele>
        <time>2024-08-27T09:56:40Z</time>
      </trkpt>
      <trkpt lat="44.87796" lon="5.92929">
        <ele>1382.3</ele>
        <time>2024-08-27T09:56:41Z</time>
      </trkpt>
      <trkpt lat="44.87796" lon="5.92927">
        <ele>1382.5</ele>
        <time>2024-08-27T09:56:42Z</time>
      </trkpt>
      <trkpt lat="44.87796" lon="5.92924">
        <ele>1382.7</ele>
        <time>2024-08-27T09:56:43Z</time>
      </trkpt>
      <trkpt lat="44.87796" lon="5.92922">
        <ele>1382.9</ele>
        <time>2024-08-27T09:56:44Z</time>
      </trkpt>
      <trkpt lat="44.87796" lon="5.92919">
        <ele>1383.1</ele>
        <time>2024-08-27T09:56:45Z</time>
      </trkpt>
      <trkpt lat="44.87796" lon="5.92917">
        <ele>1383.4</ele>
        <time>2024-08-27T09:56:46Z</time>
      </trkpt>
      <trkpt lat="44.87796" lon="5.92915">
        <ele>1383.6</ele>
        <time>2024-08-27T09:56:47Z</time>
      </trkpt>
      <trkpt lat="44.87796" lon="5.92912">
        <ele>1383.8</ele>
        <time>2024-08-27T09:56:48Z</time>
      </trkpt>
      <trkpt lat="44.87795" lon="5.9291">
        <ele>1384.1</ele>
        <time>2024-08-27T09:56:49Z</time>
      </trkpt>
      <trkpt lat="44.87795" lon="5.92906">
        <ele>1384.4</ele>
        <time>2024-08-27T09:56:50Z</time>
      </trkpt>
      <trkpt lat="44.87795" lon="5.92904">
        <ele>1384.6</ele>
        <time>2024-08-27T09:56:51Z</time>
      </trkpt>
      <trkpt lat="44.87795" lon="5.929">
        <ele>1385</ele>
        <time>2024-08-27T09:56:52Z</time>
      </trkpt>
      <trkpt lat="44.87795" lon="5.92899">
        <ele>1385.1</ele>
        <time>2024-08-27T09:56:53Z</time>
      </trkpt>
      <trkpt lat="44.87795" lon="5.92895">
        <ele>1385.5</ele>
        <time>2024-08-27T09:56:54Z</time>
      </trkpt>
      <trkpt lat="44.87795" lon="5.92894">
        <ele>1385.6</ele>
        <time>2024-08-27T09:56:55Z</time>
      </trkpt>
      <trkpt lat="44.87795" lon="5.9289">
        <ele>1386</ele>
        <time>2024-08-27T09:56:56Z</time>
      </trkpt>
      <trkpt lat="44.87795" lon="5.92888">
        <ele>1386.2</ele>
        <time>2024-08-27T09:56:57Z</time>
      </trkpt>
      <trkpt lat="44.87794" lon="5.92884">
        <ele>1386.6</ele>
        <time>2024-08-27T09:56:58Z</time>
      </trkpt>
      <trkpt lat="44.87794" lon="5.92883">
        <ele>1386.7</ele>
        <time>2024-08-27T09:56:59Z</time>
      </trkpt>
      <trkpt lat="44.87793" lon="5.92881">
        <ele>1387</ele>
        <time>2024-08-27T09:57:00Z</time>
      </trkpt>
      <trkpt lat="44.87793" lon="5.92879">
        <ele>1387.2</ele>
        <time>2024-08-27T09:57:01Z</time>
      </trkpt>
      <trkpt lat="44.87792" lon="5.92877">
        <ele>1387.4</ele>
        <time>2024-08-27T09:57:02Z</time>
      </trkpt>
      <trkpt lat="44.87792" lon="5.92874">
        <ele>1387.7</ele>
        <time>2024-08-27T09:57:03Z</time>
      </trkpt>
      <trkpt lat="44.87791" lon="5.9287">
        <ele>1388.1</ele>
        <time>2024-08-27T09:57:04Z</time>
      </trkpt>
      <trkpt lat="44.87791" lon="5.92869">
        <ele>1388.2</ele>
        <time>2024-08-27T09:57:05Z</time>
      </trkpt>
      <trkpt lat="44.8779" lon="5.92867">
        <ele>1388.5</ele>
        <time>2024-08-27T09:57:06Z</time>
      </trkpt>
      <trkpt lat="44.87789" lon="5.92865">
        <ele>1388.7</ele>
        <time>2024-08-27T09:57:07Z</time>
      </trkpt>
      <trkpt lat="44.87788" lon="5.92863">
        <ele>1389</ele>
        <time>2024-08-27T09:57:08Z</time>
      </trkpt>
      <trkpt lat="44.87787" lon="5.92861">
        <ele>1389.2</ele>
        <time>2024-08-27T09:57:09Z</time>
      </trkpt>
      <trkpt lat="44.87787" lon="5.92859">
        <ele>1389.5</ele>
        <time>2024-08-27T09:57:10Z</time>
      </trkpt>
      <trkpt lat="44.87786" lon="5.92856">
        <ele>1389.7</ele>
        <time>2024-08-27T09:57:11Z</time>
      </trkpt>
      <trkpt lat="44.87785" lon="5.92854">
        <ele>1390</ele>
        <time>2024-08-27T09:57:12Z</time>
      </trkpt>
      <trkpt lat="44.87785" lon="5.92852">
        <ele>1390.2</ele>
        <time>2024-08-27T09:57:13Z</time>
      </trkpt>
      <trkpt lat="44.87784" lon="5.9285">
        <ele>1390.4</ele>
        <time>2024-08-27T09:57:14Z</time>
      </trkpt>
      <trkpt lat="44.87784" lon="5.92847">
        <ele>1390.7</ele>
        <time>2024-08-27T09:57:15Z</time>
      </trkpt>
      <trkpt lat="44.87783" lon="5.92845">
        <ele>1390.9</ele>
        <time>2024-08-27T09:57:16Z</time>
      </trkpt>
      <trkpt lat="44.87783" lon="5.92843">
        <ele>1391.2</ele>
        <time>2024-08-27T09:57:17Z</time>
      </trkpt>
      <trkpt lat="44.87783" lon="5.9284">
        <ele>1391.4</ele>
        <time>2024-08-27T09:57:18Z</time>
      </trkpt>
      <trkpt lat="44.87782" lon="5.92838">
        <ele>1391.7</ele>
        <time>2024-08-27T09:57:19Z</time>
      </trkpt>
      <trkpt lat="44.87782" lon="5.92836">
        <ele>1391.9</ele>
        <time>2024-08-27T09:57:20Z</time>
      </trkpt>
      <trkpt lat="44.87781" lon="5.92834">
        <ele>1392.2</ele>
        <time>2024-08-27T09:57:21Z</time>
      </trkpt>
      <trkpt lat="44.87781" lon="5.92831">
        <ele>1392.4</ele>
        <time>2024-08-27T09:57:22Z</time>
      </trkpt>
      <trkpt lat="44.87781" lon="5.92829">
        <ele>1392.6</ele>
        <time>2024-08-27T09:57:23Z</time>
      </trkpt>
      <trkpt lat="44.87781" lon="5.92826">
        <ele>1393</ele>
        <time>2024-08-27T09:57:24Z</time>
      </trkpt>
      <trkpt lat="44.87781" lon="5.92824">
        <ele>1393.1</ele>
        <time>2024-08-27T09:57:25Z</time>
      </trkpt>
      <trkpt lat="44.87781" lon="5.9282">
        <ele>1393.5</ele>
        <time>2024-08-27T09:57:26Z</time>
      </trkpt>
      <trkpt lat="44.87781" lon="5.92819">
        <ele>1393.6</ele>
        <time>2024-08-27T09:57:27Z</time>
      </trkpt>
      <trkpt lat="44.8778" lon="5.92816">
        <ele>1393.9</ele>
        <time>2024-08-27T09:57:28Z</time>
      </trkpt>
      <trkpt lat="44.8778" lon="5.92814">
        <ele>1394.1</ele>
        <time>2024-08-27T09:57:29Z</time>
      </trkpt>
      <trkpt lat="44.87781" lon="5.92811">
        <ele>1394.4</ele>
        <time>2024-08-27T09:57:30Z</time>
      </trkpt>
      <trkpt lat="44.87781" lon="5.92809">
        <ele>1394.6</ele>
        <time>2024-08-27T09:57:31Z</time>
      </trkpt>
      <trkpt lat="44.87781" lon="5.92805">
        <ele>1395</ele>
        <time>2024-08-27T09:57:32Z</time>
      </trkpt>
      <trkpt lat="44.87781" lon="5.92804">
        <ele>1395.1</ele>
        <time>2024-08-27T09:57:33Z</time>
      </trkpt>
      <trkpt lat="44.87781" lon="5.92801">
        <ele>1395.4</ele>
        <time>2024-08-27T09:57:34Z</time>
      </trkpt>
      <trkpt lat="44.87781" lon="5.92799">
        <ele>1395.6</ele>
        <time>2024-08-27T09:57:35Z</time>
      </trkpt>
      <trkpt lat="44.87781" lon="5.92796">
        <ele>1395.8</ele>
        <time>2024-08-27T09:57:36Z</time>
      </trkpt>
      <trkpt lat="44.87781" lon="5.92794">
        <ele>1396</ele>
        <time>2024-08-27T09:57:37Z</time>
      </trkpt>
      <trkpt lat="44.87781" lon="5.92791">
        <ele>1396.3</ele>
        <time>2024-08-27T09:57:38Z</time>
      </trkpt>
      <trkpt lat="44.87781" lon="5.92789">
        <ele>1396.5</ele>
        <time>2024-08-27T09:57:39Z</time>
      </trkpt>
      <trkpt lat="44.8778" lon="5.92787">
        <ele>1396.7</ele>
        <time>2024-08-27T09:57:40Z</time>
      </trkpt>
      <trkpt lat="44.87779" lon="5.92785">
        <ele>1397</ele>
        <time>2024-08-27T09:57:41Z</time>
      </trkpt>
      <trkpt lat="44.87779" lon="5.92782">
        <ele>1397.2</ele>
        <time>2024-08-27T09:57:42Z</time>
      </trkpt>
      <trkpt lat="44.87779" lon="5.9278">
        <ele>1397.4</ele>
        <time>2024-08-27T09:57:43Z</time>
      </trkpt>
      <trkpt lat="44.87778" lon="5.92778">
        <ele>1397.6</ele>
        <time>2024-08-27T09:57:44Z</time>
      </trkpt>
      <trkpt lat="44.87778" lon="5.92775">
        <ele>1397.9</ele>
        <time>2024-08-27T09:57:45Z</time>
      </trkpt>
      <trkpt lat="44.87778" lon="5.92773">
        <ele>1398.1</ele>
        <time>2024-08-27T09:57:46Z</time>
      </trkpt>
      <trkpt lat="44.87778" lon="5.9277">
        <ele>1398.3</ele>
        <time>2024-08-27T09:57:47Z</time>
      </trkpt>
      <trkpt lat="44.87777" lon="5.92768">
        <ele>1398.5</ele>
        <time>2024-08-27T09:57:48Z</time>
      </trkpt>
      <trkpt lat="44.87777" lon="5.92766">
        <ele>1398.8</ele>
        <time>2024-08-27T09:57:49Z</time>
      </trkpt>
      <trkpt lat="44.87777" lon="5.92763">
        <ele>1399</ele>
        <time>2024-08-27T09:57:50Z</time>
      </trkpt>
      <trkpt lat="44.87776" lon="5.92761">
        <ele>1399.2</ele>
        <time>2024-08-27T09:57:51Z</time>
      </trkpt>
      <trkpt lat="44.87776" lon="5.92758">
        <ele>1399.4</ele>
        <time>2024-08-27T09:57:52Z</time>
      </trkpt>
      <trkpt lat="44.87776" lon="5.92756">
        <ele>1399.7</ele>
        <time>2024-08-27T09:57:53Z</time>
      </trkpt>
      <trkpt lat="44.87776" lon="5.92754">
        <ele>1399.9</ele>
        <time>2024-08-27T09:57:54Z</time>
      </trkpt>
      <trkpt lat="44.87775" lon="5.92752">
        <ele>1400.1</ele>
        <time>2024-08-27T09:57:55Z</time>
      </trkpt>
      <trkpt lat="44.87774" lon="5.9275">
        <ele>1400.3</ele>
        <time>2024-08-27T09:57:56Z</time>
      </trkpt>
      <trkpt lat="44.87773" lon="5.92748">
        <ele>1400.5</ele>
        <time>2024-08-27T09:57:57Z</time>
      </trkpt>
      <trkpt lat="44.87773" lon="5.92746">
        <ele>1400.7</ele>
        <time>2024-08-27T09:57:58Z</time>
      </trkpt>
      <trkpt lat="44.87772" lon="5.92744">
        <ele>1400.9</ele>
        <time>2024-08-27T09:57:59Z</time>
      </trkpt>
      <trkpt lat="44.87771" lon="5.92742">
        <ele>1401.1</ele>
        <time>2024-08-27T09:58:00Z</time>
      </trkpt>
      <trkpt lat="44.87771" lon="5.9274">
        <ele>1401.3</ele>
        <time>2024-08-27T09:58:01Z</time>
      </trkpt>
      <trkpt lat="44.8777" lon="5.92738">
        <ele>1401.5</ele>
        <time>2024-08-27T09:58:02Z</time>
      </trkpt>
      <trkpt lat="44.8777" lon="5.92736">
        <ele>1401.7</ele>
        <time>2024-08-27T09:58:03Z</time>
      </trkpt>
      <trkpt lat="44.87769" lon="5.92734">
        <ele>1401.9</ele>
        <time>2024-08-27T09:58:04Z</time>
      </trkpt>
      <trkpt lat="44.87768" lon="5.92732">
        <ele>1402.1</ele>
        <time>2024-08-27T09:58:05Z</time>
      </trkpt>
      <trkpt lat="44.87768" lon="5.9273">
        <ele>1402.3</ele>
        <time>2024-08-27T09:58:06Z</time>
      </trkpt>
      <trkpt lat="44.87767" lon="5.92728">
        <ele>1402.5</ele>
        <time>2024-08-27T09:58:07Z</time>
      </trkpt>
      <trkpt lat="44.87766" lon="5.92726">
        <ele>1402.7</ele>
        <time>2024-08-27T09:58:08Z</time>
      </trkpt>
      <trkpt lat="44.87765" lon="5.92723">
        <ele>1402.9</ele>
        <time>2024-08-27T09:58:09Z</time>
      </trkpt>
      <trkpt lat="44.87764" lon="5.92721">
        <ele>1403.1</ele>
        <time>2024-08-27T09:58:10Z</time>
      </trkpt>
      <trkpt lat="44.87764" lon="5.9272">
        <ele>1403.3</ele>
        <time>2024-08-27T09:58:11Z</time>
      </trkpt>
      <trkpt lat="44.87763" lon="5.92718">
        <ele>1403.5</ele>
        <time>2024-08-27T09:58:12Z</time>
      </trkpt>
      <trkpt lat="44.87762" lon="5.92716">
        <ele>1403.7</ele>
        <time>2024-08-27T09:58:13Z</time>
      </trkpt>
      <trkpt lat="44.87761" lon="5.92714">
        <ele>1404</ele>
        <time>2024-08-27T09:58:14Z</time>
      </trkpt>
      <trkpt lat="44.8776" lon="5.92713">
        <ele>1404.1</ele>
        <time>2024-08-27T09:58:15Z</time>
      </trkpt>
      <trkpt lat="44.87759" lon="5.92711">
        <ele>1404.3</ele>
        <time>2024-08-27T09:58:16Z</time>
      </trkpt>
      <trkpt lat="44.87758" lon="5.92709">
        <ele>1404.6</ele>
        <time>2024-08-27T09:58:17Z</time>
      </trkpt>
      <trkpt lat="44.87757" lon="5.92707">
        <ele>1404.8</ele>
        <time>2024-08-27T09:58:18Z</time>
      </trkpt>
      <trkpt lat="44.87756" lon="5.92706">
        <ele>1405</ele>
        <time>2024-08-27T09:58:19Z</time>
      </trkpt>
      <trkpt lat="44.87755" lon="5.92704">
        <ele>1405.2</ele>
        <time>2024-08-27T09:58:20Z</time>
      </trkpt>
      <trkpt lat="44.87754" lon="5.92703">
        <ele>1405.4</ele>
        <time>2024-08-27T09:58:21Z</time>
      </trkpt>
      <trkpt lat="44.87752" lon="5.92702">
        <ele>1405.6</ele>
        <time>2024-08-27T09:58:22Z</time>
      </trkpt>
      <trkpt lat="44.87751" lon="5.92701">
        <ele>1405.8</ele>
        <time>2024-08-27T09:58:23Z</time>
      </trkpt>
      <trkpt lat="44.87749" lon="5.92701">
        <ele>1406</ele>
        <time>2024-08-27T09:58:24Z</time>
      </trkpt>
      <trkpt lat="44.87748" lon="5.92701">
        <ele>1406.2</ele>
        <time>2024-08-27T09:58:25Z</time>
      </trkpt>
      <trkpt lat="44.87747" lon="5.927">
        <ele>1406.4</ele>
        <time>2024-08-27T09:58:26Z</time>
      </trkpt>
      <trkpt lat="44.87745" lon="5.927">
        <ele>1406.6</ele>
        <time>2024-08-27T09:58:27Z</time>
      </trkpt>
      <trkpt lat="44.87744" lon="5.927">
        <ele>1406.8</ele>
        <time>2024-08-27T09:58:28Z</time>
      </trkpt>
      <trkpt lat="44.87742" lon="5.927">
        <ele>1407.1</ele>
        <time>2024-08-27T09:58:29Z</time>
      </trkpt>
      <trkpt lat="44.87741" lon="5.927">
        <ele>1407.3</ele>
        <time>2024-08-27T09:58:30Z</time>
      </trkpt>
      <trkpt lat="44.87739" lon="5.927">
        <ele>1407.5</ele>
        <time>2024-08-27T09:58:31Z</time>
      </trkpt>
      <trkpt lat="44.87738" lon="5.927">
        <ele>1407.7</ele>
        <time>2024-08-27T09:58:32Z</time>
      </trkpt>
      <trkpt lat="44.87737" lon="5.92701">
        <ele>1407.9</ele>
        <time>2024-08-27T09:58:33Z</time>
      </trkpt>
      <trkpt lat="44.87735" lon="5.927">
        <ele>1408.1</ele>
        <time>2024-08-27T09:58:34Z</time>
      </trkpt>
      <trkpt lat="44.87734" lon="5.927">
        <ele>1408.3</ele>
        <time>2024-08-27T09:58:35Z</time>
      </trkpt>
      <trkpt lat="44.87732" lon="5.927">
        <ele>1408.6</ele>
        <time>2024-08-27T09:58:36Z</time>
      </trkpt>
      <trkpt lat="44.87731" lon="5.927">
        <ele>1408.8</ele>
        <time>2024-08-27T09:58:37Z</time>
      </trkpt>
      <trkpt lat="44.87729" lon="5.92699">
        <ele>1409</ele>
        <time>2024-08-27T09:58:38Z</time>
      </trkpt>
      <trkpt lat="44.87728" lon="5.92699">
        <ele>1409.2</ele>
        <time>2024-08-27T09:58:39Z</time>
      </trkpt>
      <trkpt lat="44.87726" lon="5.92698">
        <ele>1409.5</ele>
        <time>2024-08-27T09:58:40Z</time>
      </trkpt>
      <trkpt lat="44.87725" lon="5.92698">
        <ele>1409.7</ele>
        <time>2024-08-27T09:58:41Z</time>
      </trkpt>
      <trkpt lat="44.87723" lon="5.92697">
        <ele>1409.9</ele>
        <time>2024-08-27T09:58:42Z</time>
      </trkpt>
      <trkpt lat="44.87722" lon="5.92696">
        <ele>1410.2</ele>
        <time>2024-08-27T09:58:43Z</time>
      </trkpt>
      <trkpt lat="44.8772" lon="5.92696">
        <ele>1410.4</ele>
        <time>2024-08-27T09:58:44Z</time>
      </trkpt>
      <trkpt lat="44.87719" lon="5.92695">
        <ele>1410.6</ele>
        <time>2024-08-27T09:58:45Z</time>
      </trkpt>
      <trkpt lat="44.87717" lon="5.92694">
        <ele>1410.9</ele>
        <time>2024-08-27T09:58:46Z</time>
      </trkpt>
      <trkpt lat="44.87716" lon="5.92693">
        <ele>1411.1</ele>
        <time>2024-08-27T09:58:47Z</time>
      </trkpt>
      <trkpt lat="44.87715" lon="5.92692">
        <ele>1411.4</ele>
        <time>2024-08-27T09:58:48Z</time>
      </trkpt>
      <trkpt lat="44.87713" lon="5.92691">
        <ele>1411.6</ele>
        <time>2024-08-27T09:58:49Z</time>
      </trkpt>
      <trkpt lat="44.87712" lon="5.92691">
        <ele>1411.8</ele>
        <time>2024-08-27T09:58:50Z</time>
      </trkpt>
      <trkpt lat="44.8771" lon="5.9269">
        <ele>1412</ele>
        <time>2024-08-27T09:58:51Z</time>
      </trkpt>
      <trkpt lat="44.87709" lon="5.9269">
        <ele>1412.3</ele>
        <time>2024-08-27T09:58:52Z</time>
      </trkpt>
      <trkpt lat="44.87707" lon="5.9269">
        <ele>1412.5</ele>
        <time>2024-08-27T09:58:53Z</time>
      </trkpt>
      <trkpt lat="44.87705" lon="5.9269">
        <ele>1412.7</ele>
        <time>2024-08-27T09:58:54Z</time>
      </trkpt>
      <trkpt lat="44.87704" lon="5.92691">
        <ele>1413</ele>
        <time>2024-08-27T09:58:55Z</time>
      </trkpt>
      <trkpt lat="44.87702" lon="5.92691">
        <ele>1413.2</ele>
        <time>2024-08-27T09:58:56Z</time>
      </trkpt>
      <trkpt lat="44.87701" lon="5.92692">
        <ele>1413.4</ele>
        <time>2024-08-27T09:58:57Z</time>
      </trkpt>
      <trkpt lat="44.87699" lon="5.92693">
        <ele>1413.6</ele>
        <time>2024-08-27T09:58:58Z</time>
      </trkpt>
      <trkpt lat="44.87698" lon="5.92694">
        <ele>1413.8</ele>
        <time>2024-08-27T09:58:59Z</time>
      </trkpt>
      <trkpt lat="44.87696" lon="5.92695">
        <ele>1414.1</ele>
        <time>2024-08-27T09:59:00Z</time>
      </trkpt>
      <trkpt lat="44.87695" lon="5.92696">
        <ele>1414.3</ele>
        <time>2024-08-27T09:59:01Z</time>
      </trkpt>
      <trkpt lat="44.87694" lon="5.92697">
        <ele>1414.5</ele>
        <time>2024-08-27T09:59:02Z</time>
      </trkpt>
      <trkpt lat="44.87692" lon="5.92699">
        <ele>1414.7</ele>
        <time>2024-08-27T09:59:03Z</time>
      </trkpt>
      <trkpt lat="44.87691" lon="5.927">
        <ele>1414.9</ele>
        <time>2024-08-27T09:59:04Z</time>
      </trkpt>
      <trkpt lat="44.8769" lon="5.92702">
        <ele>1415.1</ele>
        <time>2024-08-27T09:59:05Z</time>
      </trkpt>
      <trkpt lat="44.87688" lon="5.92703">
        <ele>1415.4</ele>
        <time>2024-08-27T09:59:06Z</time>
      </trkpt>
      <trkpt lat="44.87687" lon="5.92705">
        <ele>1415.6</ele>
        <time>2024-08-27T09:59:07Z</time>
      </trkpt>
      <trkpt lat="44.87686" lon="5.92706">
        <ele>1415.8</ele>
        <time>2024-08-27T09:59:08Z</time>
      </trkpt>
      <trkpt lat="44.87684" lon="5.92708">
        <ele>1416</ele>
        <time>2024-08-27T09:59:09Z</time>
      </trkpt>
      <trkpt lat="44.87683" lon="5.92709">
        <ele>1416.2</ele>
        <time>2024-08-27T09:59:10Z</time>
      </trkpt>
      <trkpt lat="44.87682" lon="5.92711">
        <ele>1416.4</ele>
        <time>2024-08-27T09:59:11Z</time>
      </trkpt>
      <trkpt lat="44.8768" lon="5.92712">
        <ele>1416.6</ele>
        <time>2024-08-27T09:59:12Z</time>
      </trkpt>
      <trkpt lat="44.87679" lon="5.92714">
        <ele>1416.8</ele>
        <time>2024-08-27T09:59:13Z</time>
      </trkpt>
      <trkpt lat="44.87678" lon="5.92716">
        <ele>1417</ele>
        <time>2024-08-27T09:59:14Z</time>
      </trkpt>
      <trkpt lat="44.87677" lon="5.92717">
        <ele>1417.2</ele>
        <time>2024-08-27T09:59:15Z</time>
      </trkpt>
      <trkpt lat="44.87675" lon="5.92719">
        <ele>1417.4</ele>
        <time>2024-08-27T09:59:16Z</time>
      </trkpt>
      <trkpt lat="44.87674" lon="5.9272">
        <ele>1417.6</ele>
        <time>2024-08-27T09:59:17Z</time>
      </trkpt>
      <trkpt lat="44.87672" lon="5.92721">
        <ele>1417.9</ele>
        <time>2024-08-27T09:59:18Z</time>
      </trkpt>
      <trkpt lat="44.87671" lon="5.92723">
        <ele>1418.1</ele>
        <time>2024-08-27T09:59:19Z</time>
      </trkpt>
      <trkpt lat="44.8767" lon="5.92724">
        <ele>1418.3</ele>
        <time>2024-08-27T09:59:20Z</time>
      </trkpt>
      <trkpt lat="44.87669" lon="5.92726">
        <ele>1418.5</ele>
        <time>2024-08-27T09:59:21Z</time>
      </trkpt>
      <trkpt lat="44.87668" lon="5.92728">
        <ele>1418.7</ele>
        <time>2024-08-27T09:59:22Z</time>
      </trkpt>
      <trkpt lat="44.87666" lon="5.9273">
        <ele>1418.9</ele>
        <time>2024-08-27T09:59:23Z</time>
      </trkpt>
      <trkpt lat="44.87665" lon="5.92733">
        <ele>1419.3</ele>
        <time>2024-08-27T09:59:24Z</time>
      </trkpt>
      <trkpt lat="44.87664" lon="5.92734">
        <ele>1419.4</ele>
        <time>2024-08-27T09:59:25Z</time>
      </trkpt>
      <trkpt lat="44.87663" lon="5.92735">
        <ele>1419.6</ele>
        <time>2024-08-27T09:59:26Z</time>
      </trkpt>
      <trkpt lat="44.87662" lon="5.92737">
        <ele>1419.8</ele>
        <time>2024-08-27T09:59:27Z</time>
      </trkpt>
      <trkpt lat="44.87661" lon="5.92739">
        <ele>1420.1</ele>
        <time>2024-08-27T09:59:28Z</time>
      </trkpt>
      <trkpt lat="44.87659" lon="5.92741">
        <ele>1420.3</ele>
        <time>2024-08-27T09:59:29Z</time>
      </trkpt>
      <trkpt lat="44.87658" lon="5.92742">
        <ele>1420.5</ele>
        <time>2024-08-27T09:59:30Z</time>
      </trkpt>
      <trkpt lat="44.87657" lon="5.92744">
        <ele>1420.8</ele>
        <time>2024-08-27T09:59:31Z</time>
      </trkpt>
      <trkpt lat="44.87655" lon="5.92747">
        <ele>1421.1</ele>
        <time>2024-08-27T09:59:32Z</time>
      </trkpt>
      <trkpt lat="44.87654" lon="5.92748">
        <ele>1421.3</ele>
        <time>2024-08-27T09:59:33Z</time>
      </trkpt>
      <trkpt lat="44.87653" lon="5.92749">
        <ele>1421.5</ele>
        <time>2024-08-27T09:59:34Z</time>
      </trkpt>
      <trkpt lat="44.87651" lon="5.92751">
        <ele>1421.7</ele>
        <time>2024-08-27T09:59:35Z</time>
      </trkpt>
      <trkpt lat="44.8765" lon="5.92752">
        <ele>1422</ele>
        <time>2024-08-27T09:59:36Z</time>
      </trkpt>
      <trkpt lat="44.87649" lon="5.92754">
        <ele>1422.2</ele>
        <time>2024-08-27T09:59:37Z</time>
      </trkpt>
      <trkpt lat="44.87647" lon="5.92755">
        <ele>1422.4</ele>
        <time>2024-08-27T09:59:38Z</time>
      </trkpt>
      <trkpt lat="44.87646" lon="5.92756">
        <ele>1422.7</ele>
        <time>2024-08-27T09:59:39Z</time>
      </trkpt>
      <trkpt lat="44.87643" lon="5.92758">
        <ele>1423</ele>
        <time>2024-08-27T09:59:40Z</time>
      </trkpt>
      <trkpt lat="44.87642" lon="5.92759">
        <ele>1423.2</ele>
        <time>2024-08-27T09:59:41Z</time>
      </trkpt>
      <trkpt lat="44.8764" lon="5.92761">
        <ele>1423.5</ele>
        <time>2024-08-27T09:59:42Z</time>
      </trkpt>
      <trkpt lat="44.87639" lon="5.92762">
        <ele>1423.7</ele>
        <time>2024-08-27T09:59:43Z</time>
      </trkpt>
      <trkpt lat="44.87636" lon="5.92763">
        <ele>1424</ele>
        <time>2024-08-27T09:59:44Z</time>
      </trkpt>
      <trkpt lat="44.87636" lon="5.92764">
        <ele>1424.1</ele>
        <time>2024-08-27T09:59:45Z</time>
      </trkpt>
      <trkpt lat="44.87633" lon="5.92766">
        <ele>1424.5</ele>
        <time>2024-08-27T09:59:46Z</time>
      </trkpt>
      <trkpt lat="44.87632" lon="5.92767">
        <ele>1424.6</ele>
        <time>2024-08-27T09:59:47Z</time>
      </trkpt>
      <trkpt lat="44.8763" lon="5.92769">
        <ele>1424.9</ele>
        <time>2024-08-27T09:59:48Z</time>
      </trkpt>
      <trkpt lat="44.87629" lon="5.9277">
        <ele>1425.1</ele>
        <time>2024-08-27T09:59:49Z</time>
      </trkpt>
      <trkpt lat="44.87626" lon="5.92772">
        <ele>1425.4</ele>
        <time>2024-08-27T09:59:50Z</time>
      </trkpt>
      <trkpt lat="44.87625" lon="5.92773">
        <ele>1425.5</ele>
        <time>2024-08-27T09:59:51Z</time>
      </trkpt>
      <trkpt lat="44.87622" lon="5.92775">
        <ele>1425.8</ele>
        <time>2024-08-27T09:59:52Z</time>
      </trkpt>
      <trkpt lat="44.87621" lon="5.92775">
        <ele>1425.9</ele>
        <time>2024-08-27T09:59:53Z</time>
      </trkpt>
      <trkpt lat="44.87619" lon="5.92777">
        <ele>1426.2</ele>
        <time>2024-08-27T09:59:54Z</time>
      </trkpt>
      <trkpt lat="44.87618" lon="5.92777">
        <ele>1426.3</ele>
        <time>2024-08-27T09:59:55Z</time>
      </trkpt>
      <trkpt lat="44.87616" lon="5.92778">
        <ele>1426.4</ele>
        <time>2024-08-27T09:59:56Z</time>
      </trkpt>
      <trkpt lat="44.87614" lon="5.92778">
        <ele>1426.5</ele>
        <time>2024-08-27T09:59:57Z</time>
      </trkpt>
      <trkpt lat="44.87613" lon="5.92779">
        <ele>1426.6</ele>
        <time>2024-08-27T09:59:58Z</time>
      </trkpt>
      <trkpt lat="44.87612" lon="5.92779">
        <ele>1426.7</ele>
        <time>2024-08-27T09:59:59Z</time>
      </trkpt>
      <trkpt lat="44.87612" lon="5.92779">
        <ele>1426.7</ele>
        <time>2024-08-27T10:00:00Z</time>
      </trkpt>
      <trkpt lat="44.87612" lon="5.92779">
        <ele>1426.8</ele>
        <time>2024-08-27T10:00:01Z</time>
      </trkpt>
      <trkpt lat="44.87612" lon="5.92779">
        <ele>1426.8</ele>
        <time>2024-08-27T10:00:02Z</time>
      </trkpt>
      <trkpt lat="44.87612" lon="5.92778">
        <ele>1426.8</ele>
        <time>2024-08-27T10:00:03Z</time>
      </trkpt>
      <trkpt lat="44.87612" lon="5.92778">
        <ele>1426.8</ele>
        <time>2024-08-27T10:00:04Z</time>
      </trkpt>
      <trkpt lat="44.87612" lon="5.92778">
        <ele>1426.8</ele>
        <time>2024-08-27T10:00:05Z</time>
      </trkpt>
      <trkpt lat="44.87612" lon="5.92777">
        <ele>1426.8</ele>
        <time>2024-08-27T10:00:06Z</time>
      </trkpt>
      <trkpt lat="44.87612" lon="5.92777">
        <ele>1426.8</ele>
        <time>2024-08-27T10:00:07Z</time>
      </trkpt>
      <trkpt lat="44.87612" lon="5.92777">
        <ele>1426.9</ele>
        <time>2024-08-27T10:00:08Z</time>
      </trkpt>
      <trkpt lat="44.87612" lon="5.92777">
        <ele>1426.9</ele>
        <time>2024-08-27T10:00:09Z</time>
      </trkpt>
      <trkpt lat="44.87611" lon="5.92778">
        <ele>1427</ele>
        <time>2024-08-27T10:00:20Z</time>
      </trkpt>
      <trkpt lat="44.8761" lon="5.92778">
        <ele>1427</ele>
        <time>2024-08-27T10:00:21Z</time>
      </trkpt>
      <trkpt lat="44.8761" lon="5.9278">
        <ele>1427.1</ele>
        <time>2024-08-27T10:00:22Z</time>
      </trkpt>
      <trkpt lat="44.8761" lon="5.92781">
        <ele>1427.1</ele>
        <time>2024-08-27T10:00:23Z</time>
      </trkpt>
      <trkpt lat="44.8761" lon="5.92782">
        <ele>1427.2</ele>
        <time>2024-08-27T10:00:24Z</time>
      </trkpt>
      <trkpt lat="44.8761" lon="5.92783">
        <ele>1427.2</ele>
        <time>2024-08-27T10:00:25Z</time>
      </trkpt>
      <trkpt lat="44.8761" lon="5.92785">
        <ele>1427.3</ele>
        <time>2024-08-27T10:00:26Z</time>
      </trkpt>
      <trkpt lat="44.8761" lon="5.92786">
        <ele>1427.3</ele>
        <time>2024-08-27T10:00:27Z</time>
      </trkpt>
      <trkpt lat="44.87611" lon="5.92786">
        <ele>1427.2</ele>
        <time>2024-08-27T10:00:28Z</time>
      </trkpt>
      <trkpt lat="44.87611" lon="5.92786">
        <ele>1427.2</ele>
        <time>2024-08-27T10:00:29Z</time>
      </trkpt>
      <trkpt lat="44.87611" lon="5.92786">
        <ele>1427.2</ele>
        <time>2024-08-27T10:00:30Z</time>
      </trkpt>
      <trkpt lat="44.87611" lon="5.92786">
        <ele>1427.2</ele>
        <time>2024-08-27T10:00:31Z</time>
      </trkpt>
      <trkpt lat="44.87611" lon="5.92786">
        <ele>1427.2</ele>
        <time>2024-08-27T10:00:32Z</time>
      </trkpt>
      <trkpt lat="44.87611" lon="5.92786">
        <ele>1427.2</ele>
        <time>2024-08-27T10:00:33Z</time>
      </trkpt>
      <trkpt lat="44.87611" lon="5.92785">
        <ele>1427.1</ele>
        <time>2024-08-27T10:00:34Z</time>
      </trkpt>
      <trkpt lat="44.87611" lon="5.92785">
        <ele>1427.1</ele>
        <time>2024-08-27T10:00:35Z</time>
      </trkpt>
      <trkpt lat="44.87611" lon="5.92784">
        <ele>1427</ele>
        <time>2024-08-27T10:00:36Z</time>
      </trkpt>
      <trkpt lat="44.87611" lon="5.92783">
        <ele>1426.9</ele>
        <time>2024-08-27T10:00:37Z</time>
      </trkpt>
      <trkpt lat="44.8761" lon="5.92783">
        <ele>1426.9</ele>
        <time>2024-08-27T10:00:38Z</time>
      </trkpt>
      <trkpt lat="44.8761" lon="5.92783">
        <ele>1426.9</ele>
        <time>2024-08-27T10:00:39Z</time>
      </trkpt>
      <trkpt lat="44.8761" lon="5.92783">
        <ele>1426.9</ele>
        <time>2024-08-27T10:00:40Z</time>
      </trkpt>
      <trkpt lat="44.8761" lon="5.92783">
        <ele>1426.9</ele>
        <time>2024-08-27T10:00:41Z</time>
      </trkpt>
      <trkpt lat="44.8761" lon="5.92783">
        <ele>1426.9</ele>
        <time>2024-08-27T10:00:42Z</time>
      </trkpt>
      <trkpt lat="44.8761" lon="5.92782">
        <ele>1426.9</ele>
        <time>2024-08-27T10:00:43Z</time>
      </trkpt>
      <trkpt lat="44.8761" lon="5.92782">
        <ele>1426.9</ele>
        <time>2024-08-27T10:00:44Z</time>
      </trkpt>
      <trkpt lat="44.8761" lon="5.92781">
        <ele>1426.8</ele>
        <time>2024-08-27T10:00:45Z</time>
      </trkpt>
      <trkpt lat="44.87609" lon="5.92779">
        <ele>1426.7</ele>
        <time>2024-08-27T10:00:46Z</time>
      </trkpt>
      <trkpt lat="44.87609" lon="5.92778">
        <ele>1426.6</ele>
        <time>2024-08-27T10:00:47Z</time>
      </trkpt>
      <trkpt lat="44.87608" lon="5.92776">
        <ele>1426.5</ele>
        <time>2024-08-27T10:00:48Z</time>
      </trkpt>
      <trkpt lat="44.87608" lon="5.92775">
        <ele>1426.4</ele>
        <time>2024-08-27T10:05:45Z</time>
      </trkpt>
      <trkpt lat="44.87607" lon="5.92774">
        <ele>1426.3</ele>
        <time>2024-08-27T10:05:46Z</time>
      </trkpt>
      <trkpt lat="44.87607" lon="5.92772">
        <ele>1426.2</ele>
        <time>2024-08-27T10:05:47Z</time>
      </trkpt>
      <trkpt lat="44.87606" lon="5.92768">
        <ele>1425.8</ele>
        <time>2024-08-27T10:05:48Z</time>
      </trkpt>
      <trkpt lat="44.87606" lon="5.92763">
        <ele>1425.5</ele>
        <time>2024-08-27T10:05:49Z</time>
      </trkpt>
      <trkpt lat="44.87606" lon="5.92759">
        <ele>1425.1</ele>
        <time>2024-08-27T10:05:50Z</time>
      </trkpt>
      <trkpt lat="44.87606" lon="5.92754">
        <ele>1424.7</ele>
        <time>2024-08-27T10:05:51Z</time>
      </trkpt>
      <trkpt lat="44.87607" lon="5.92746">
        <ele>1424.1</ele>
        <time>2024-08-27T10:05:52Z</time>
      </trkpt>
      <trkpt lat="44.87608" lon="5.9274">
        <ele>1423.4</ele>
        <time>2024-08-27T10:05:53Z</time>
      </trkpt>
      <trkpt lat="44.8761" lon="5.92732">
        <ele>1422.7</ele>
        <time>2024-08-27T10:05:54Z</time>
      </trkpt>
      <trkpt lat="44.87612" lon="5.92725">
        <ele>1422</ele>
        <time>2024-08-27T10:05:55Z</time>
      </trkpt>
      <trkpt lat="44.87614" lon="5.92717">
        <ele>1421.3</ele>
        <time>2024-08-27T10:05:56Z</time>
      </trkpt>
      <trkpt lat="44.87616" lon="5.92709">
        <ele>1420.4</ele>
        <time>2024-08-27T10:05:57Z</time>
      </trkpt>
      <trkpt lat="44.87617" lon="5.92701">
        <ele>1419.6</ele>
        <time>2024-08-27T10:05:58Z</time>
      </trkpt>
      <trkpt lat="44.87619" lon="5.92695">
        <ele>1418.9</ele>
        <time>2024-08-27T10:05:59Z</time>
      </trkpt>
      <trkpt lat="44.87621" lon="5.92689">
        <ele>1418.2</ele>
        <time>2024-08-27T10:06:00Z</time>
      </trkpt>
      <trkpt lat="44.87622" lon="5.92683">
        <ele>1417.4</ele>
        <time>2024-08-27T10:06:01Z</time>
      </trkpt>
      <trkpt lat="44.87623" lon="5.92675">
        <ele>1416.6</ele>
        <time>2024-08-27T10:06:02Z</time>
      </trkpt>
      <trkpt lat="44.87623" lon="5.92667">
        <ele>1415.7</ele>
        <time>2024-08-27T10:06:03Z</time>
      </trkpt>
      <trkpt lat="44.87622" lon="5.9266">
        <ele>1414.9</ele>
        <time>2024-08-27T10:06:04Z</time>
      </trkpt>
      <trkpt lat="44.87622" lon="5.92652">
        <ele>1414.1</ele>
        <time>2024-08-27T10:06:05Z</time>
      </trkpt>
      <trkpt lat="44.87621" lon="5.92643">
        <ele>1413.1</ele>
        <time>2024-08-27T10:06:06Z</time>
      </trkpt>
      <trkpt lat="44.87621" lon="5.92635">
        <ele>1412.1</ele>
        <time>2024-08-27T10:06:07Z</time>
      </trkpt>
      <trkpt lat="44.87622" lon="5.92626">
        <ele>1411.1</ele>
        <time>2024-08-27T10:06:08Z</time>
      </trkpt>
      <trkpt lat="44.87623" lon="5.92616">
        <ele>1410</ele>
        <time>2024-08-27T10:06:09Z</time>
      </trkpt>
      <trkpt lat="44.87623" lon="5.92606">
        <ele>1408.9</ele>
        <time>2024-08-27T10:06:10Z</time>
      </trkpt>
      <trkpt lat="44.87624" lon="5.92596">
        <ele>1408</ele>
        <time>2024-08-27T10:06:11Z</time>
      </trkpt>
      <trkpt lat="44.87622" lon="5.92587">
        <ele>1407</ele>
        <time>2024-08-27T10:06:12Z</time>
      </trkpt>
      <trkpt lat="44.87619" lon="5.92579">
        <ele>1406.1</ele>
        <time>2024-08-27T10:06:13Z</time>
      </trkpt>
      <trkpt lat="44.87616" lon="5.92571">
        <ele>1405.2</ele>
        <time>2024-08-27T10:06:14Z</time>
      </trkpt>
      <trkpt lat="44.87614" lon="5.92563">
        <ele>1404.3</ele>
        <time>2024-08-27T10:06:15Z</time>
      </trkpt>
      <trkpt lat="44.87612" lon="5.92554">
        <ele>1403.3</ele>
        <time>2024-08-27T10:06:16Z</time>
      </trkpt>
      <trkpt lat="44.8761" lon="5.92546">
        <ele>1402.4</ele>
        <time>2024-08-27T10:06:17Z</time>
      </trkpt>
      <trkpt lat="44.87606" lon="5.92539">
        <ele>1401.5</ele>
        <time>2024-08-27T10:06:18Z</time>
      </trkpt>
      <trkpt lat="44.87602" lon="5.92534">
        <ele>1400.7</ele>
        <time>2024-08-27T10:06:19Z</time>
      </trkpt>
      <trkpt lat="44.87597" lon="5.9253">
        <ele>1399.9</ele>
        <time>2024-08-27T10:06:20Z</time>
      </trkpt>
      <trkpt lat="44.87593" lon="5.92527">
        <ele>1399.3</ele>
        <time>2024-08-27T10:06:21Z</time>
      </trkpt>
      <trkpt lat="44.87589" lon="5.92525">
        <ele>1398.7</ele>
        <time>2024-08-27T10:06:22Z</time>
      </trkpt>
      <trkpt lat="44.87588" lon="5.9252">
        <ele>1398.1</ele>
        <time>2024-08-27T10:06:23Z</time>
      </trkpt>
      <trkpt lat="44.87589" lon="5.92514">
        <ele>1397.5</ele>
        <time>2024-08-27T10:06:24Z</time>
      </trkpt>
      <trkpt lat="44.87591" lon="5.92508">
        <ele>1396.8</ele>
        <time>2024-08-27T10:06:25Z</time>
      </trkpt>
      <trkpt lat="44.87595" lon="5.92504">
        <ele>1396</ele>
        <time>2024-08-27T10:06:26Z</time>
      </trkpt>
      <trkpt lat="44.87601" lon="5.92502">
        <ele>1395.1</ele>
        <time>2024-08-27T10:06:27Z</time>
      </trkpt>
      <trkpt lat="44.87607" lon="5.92501">
        <ele>1394.1</ele>
        <time>2024-08-27T10:06:28Z</time>
      </trkpt>
      <trkpt lat="44.87614" lon="5.92502">
        <ele>1393.2</ele>
        <time>2024-08-27T10:06:29Z</time>
      </trkpt>
      <trkpt lat="44.8762" lon="5.92504">
        <ele>1392.4</ele>
        <time>2024-08-27T10:06:30Z</time>
      </trkpt>
      <trkpt lat="44.87624" lon="5.92507">
        <ele>1391.7</ele>
        <time>2024-08-27T10:06:31Z</time>
      </trkpt>
      <trkpt lat="44.87628" lon="5.9251">
        <ele>1391.1</ele>
        <time>2024-08-27T10:06:32Z</time>
      </trkpt>
      <trkpt lat="44.87631" lon="5.92511">
        <ele>1390.6</ele>
        <time>2024-08-27T10:06:33Z</time>
      </trkpt>
      <trkpt lat="44.87634" lon="5.92508">
        <ele>1390.1</ele>
        <time>2024-08-27T10:06:34Z</time>
      </trkpt>
      <trkpt lat="44.87636" lon="5.92502">
        <ele>1389.5</ele>
        <time>2024-08-27T10:06:35Z</time>
      </trkpt>
      <trkpt lat="44.87637" lon="5.92495">
        <ele>1388.4</ele>
        <time>2024-08-27T10:06:36Z</time>
      </trkpt>
      <trkpt lat="44.87637" lon="5.92485">
        <ele>1387</ele>
        <time>2024-08-27T10:06:37Z</time>
      </trkpt>
      <trkpt lat="44.87637" lon="5.92474">
        <ele>1385.6</ele>
        <time>2024-08-27T10:06:38Z</time>
      </trkpt>
      <trkpt lat="44.87639" lon="5.92464">
        <ele>1384.2</ele>
        <time>2024-08-27T10:06:39Z</time>
      </trkpt>
      <trkpt lat="44.87642" lon="5.92455">
        <ele>1382.8</ele>
        <time>2024-08-27T10:06:40Z</time>
      </trkpt>
      <trkpt lat="44.87646" lon="5.92446">
        <ele>1381.5</ele>
        <time>2024-08-27T10:06:41Z</time>
      </trkpt>
      <trkpt lat="44.87648" lon="5.92437">
        <ele>1380.4</ele>
        <time>2024-08-27T10:06:42Z</time>
      </trkpt>
      <trkpt lat="44.87651" lon="5.92429">
        <ele>1379.3</ele>
        <time>2024-08-27T10:06:43Z</time>
      </trkpt>
      <trkpt lat="44.87652" lon="5.9242">
        <ele>1378.3</ele>
        <time>2024-08-27T10:06:44Z</time>
      </trkpt>
      <trkpt lat="44.87653" lon="5.92412">
        <ele>1377.8</ele>
        <time>2024-08-27T10:06:45Z</time>
      </trkpt>
      <trkpt lat="44.87653" lon="5.92405">
        <ele>1377.4</ele>
        <time>2024-08-27T10:06:46Z</time>
      </trkpt>
      <trkpt lat="44.87654" lon="5.92397">
        <ele>1377</ele>
        <time>2024-08-27T10:06:47Z</time>
      </trkpt>
      <trkpt lat="44.87653" lon="5.9239">
        <ele>1376.6</ele>
        <time>2024-08-27T10:06:48Z</time>
      </trkpt>
      <trkpt lat="44.87653" lon="5.92384">
        <ele>1376.3</ele>
        <time>2024-08-27T10:06:49Z</time>
      </trkpt>
      <trkpt lat="44.87651" lon="5.9238">
        <ele>1376.1</ele>
        <time>2024-08-27T10:06:50Z</time>
      </trkpt>
      <trkpt lat="44.8765" lon="5.92378">
        <ele>1376</ele>
        <time>2024-08-27T10:06:51Z</time>
      </trkpt>
      <trkpt lat="44.8765" lon="5.92377">
        <ele>1376</ele>
        <time>2024-08-27T10:06:52Z</time>
      </trkpt>
      <trkpt lat="44.8765" lon="5.92376">
        <ele>1375.9</ele>
        <time>2024-08-27T10:06:53Z</time>
      </trkpt>
      <trkpt lat="44.8765" lon="5.92376">
        <ele>1375.9</ele>
        <time>2024-08-27T10:06:54Z</time>
      </trkpt>
      <trkpt lat="44.8765" lon="5.92375">
        <ele>1375.9</ele>
        <time>2024-08-27T10:06:55Z</time>
      </trkpt>
      <trkpt lat="44.8765" lon="5.92374">
        <ele>1375.9</ele>
        <time>2024-08-27T10:06:56Z</time>
      </trkpt>
      <trkpt lat="44.8765" lon="5.92374">
        <ele>1375.8</ele>
        <time>2024-08-27T10:06:57Z</time>
      </trkpt>
      <trkpt lat="44.8765" lon="5.92373">
        <ele>1375.8</ele>
        <time>2024-08-27T10:06:58Z</time>
      </trkpt>
      <trkpt lat="44.8765" lon="5.92372">
        <ele>1375.8</ele>
        <time>2024-08-27T10:06:59Z</time>
      </trkpt>
      <trkpt lat="44.8765" lon="5.92371">
        <ele>1375.7</ele>
        <time>2024-08-27T10:07:00Z</time>
      </trkpt>
      <trkpt lat="44.8765" lon="5.92371">
        <ele>1375.7</ele>
        <time>2024-08-27T10:07:01Z</time>
      </trkpt>
      <trkpt lat="44.8765" lon="5.9237">
        <ele>1375.7</ele>
        <time>2024-08-27T10:07:02Z</time>
      </trkpt>
      <trkpt lat="44.8765" lon="5.92369">
        <ele>1375.7</ele>
        <time>2024-08-27T10:07:03Z</time>
      </trkpt>
      <trkpt lat="44.8765" lon="5.92369">
        <ele>1375.6</ele>
        <time>2024-08-27T10:07:17Z</time>
      </trkpt>
      <trkpt lat="44.8765" lon="5.92368">
        <ele>1375.6</ele>
        <time>2024-08-27T10:07:18Z</time>
      </trkpt>
      <trkpt lat="44.8765" lon="5.92367">
        <ele>1375.6</ele>
        <time>2024-08-27T10:07:19Z</time>
      </trkpt>
      <trkpt lat="44.87649" lon="5.92361">
        <ele>1375.4</ele>
        <time>2024-08-27T10:07:20Z</time>
      </trkpt>
      <trkpt lat="44.87649" lon="5.92353">
        <ele>1375.2</ele>
        <time>2024-08-27T10:07:21Z</time>
      </trkpt>
      <trkpt lat="44.87648" lon="5.92346">
        <ele>1375</ele>
        <time>2024-08-27T10:07:22Z</time>
      </trkpt>
      <trkpt lat="44.87646" lon="5.92339">
        <ele>1374.9</ele>
        <time>2024-08-27T10:07:23Z</time>
      </trkpt>
      <trkpt lat="44.87645" lon="5.92333">
        <ele>1374.8</ele>
        <time>2024-08-27T10:07:24Z</time>
      </trkpt>
      <trkpt lat="44.87644" lon="5.92325">
        <ele>1374.7</ele>
        <time>2024-08-27T10:07:25Z</time>
      </trkpt>
      <trkpt lat="44.87643" lon="5.9232">
        <ele>1374.7</ele>
        <time>2024-08-27T10:07:26Z</time>
      </trkpt>
      <trkpt lat="44.87643" lon="5.92319">
        <ele>1374.7</ele>
        <time>2024-08-27T10:07:27Z</time>
      </trkpt>
      <trkpt lat="44.87642" lon="5.92319">
        <ele>1374.7</ele>
        <time>2024-08-27T10:07:28Z</time>
      </trkpt>
      <trkpt lat="44.87642" lon="5.92319">
        <ele>1374.7</ele>
        <time>2024-08-27T10:07:29Z</time>
      </trkpt>
      <trkpt lat="44.87642" lon="5.92319">
        <ele>1374.7</ele>
        <time>2024-08-27T10:07:30Z</time>
      </trkpt>
      <trkpt lat="44.87642" lon="5.9232">
        <ele>1374.7</ele>
        <time>2024-08-27T10:07:31Z</time>
      </trkpt>
      <trkpt lat="44.87642" lon="5.9232">
        <ele>1374.7</ele>
        <time>2024-08-27T10:07:32Z</time>
      </trkpt>
      <trkpt lat="44.87642" lon="5.9232">
        <ele>1374.7</ele>
        <time>2024-08-27T10:07:33Z</time>
      </trkpt>
      <trkpt lat="44.87642" lon="5.9232">
        <ele>1374.7</ele>
        <time>2024-08-27T10:07:34Z</time>
      </trkpt>
      <trkpt lat="44.87642" lon="5.9232">
        <ele>1374.7</ele>
        <time>2024-08-27T10:07:35Z</time>
      </trkpt>
      <trkpt lat="44.87642" lon="5.9232">
        <ele>1374.7</ele>
        <time>2024-08-27T10:07:36Z</time>
      </trkpt>
      <trkpt lat="44.87642" lon="5.9232">
        <ele>1374.7</ele>
        <time>2024-08-27T10:07:37Z</time>
      </trkpt>
      <trkpt lat="44.87641" lon="5.9232">
        <ele>1374.7</ele>
        <time>2024-08-27T10:07:38Z</time>
      </trkpt>
      <trkpt lat="44.87641" lon="5.9232">
        <ele>1374.7</ele>
        <time>2024-08-27T10:07:39Z</time>
      </trkpt>
      <trkpt lat="44.87642" lon="5.9232">
        <ele>1374.7</ele>
        <time>2024-08-27T10:07:40Z</time>
      </trkpt>
      <trkpt lat="44.87639" lon="5.92318">
        <ele>1374.7</ele>
        <time>2024-08-27T10:08:02Z</time>
      </trkpt>
      <trkpt lat="44.87638" lon="5.92317">
        <ele>1374.7</ele>
        <time>2024-08-27T10:08:03Z</time>
      </trkpt>
      <trkpt lat="44.87637" lon="5.92316">
        <ele>1374.6</ele>
        <time>2024-08-27T10:08:04Z</time>
      </trkpt>
      <trkpt lat="44.87634" lon="5.92314">
        <ele>1374.6</ele>
        <time>2024-08-27T10:08:05Z</time>
      </trkpt>
      <trkpt lat="44.87633" lon="5.92314">
        <ele>1374.6</ele>
        <time>2024-08-27T10:08:06Z</time>
      </trkpt>
      <trkpt lat="44.8763" lon="5.92312">
        <ele>1374.6</ele>
        <time>2024-08-27T10:08:07Z</time>
      </trkpt>
      <trkpt lat="44.87629" lon="5.92312">
        <ele>1374.5</ele>
        <time>2024-08-27T10:08:08Z</time>
      </trkpt>
      <trkpt lat="44.87626" lon="5.9231">
        <ele>1374.5</ele>
        <time>2024-08-27T10:08:09Z</time>
      </trkpt>
      <trkpt lat="44.87625" lon="5.92309">
        <ele>1374.5</ele>
        <time>2024-08-27T10:08:10Z</time>
      </trkpt>
      <trkpt lat="44.87622" lon="5.92308">
        <ele>1374.4</ele>
        <time>2024-08-27T10:08:11Z</time>
      </trkpt>
      <trkpt lat="44.87621" lon="5.92308">
        <ele>1374.4</ele>
        <time>2024-08-27T10:08:12Z</time>
      </trkpt>
      <trkpt lat="44.87619" lon="5.92305">
        <ele>1374.4</ele>
        <time>2024-08-27T10:08:13Z</time>
      </trkpt>
      <trkpt lat="44.87618" lon="5.92305">
        <ele>1374.3</ele>
        <time>2024-08-27T10:08:14Z</time>
      </trkpt>
      <trkpt lat="44.87615" lon="5.92303">
        <ele>1374.3</ele>
        <time>2024-08-27T10:08:15Z</time>
      </trkpt>
      <trkpt lat="44.87614" lon="5.92303">
        <ele>1374.3</ele>
        <time>2024-08-27T10:08:16Z</time>
      </trkpt>
      <trkpt lat="44.8761" lon="5.92301">
        <ele>1374.2</ele>
        <time>2024-08-27T10:08:17Z</time>
      </trkpt>
      <trkpt lat="44.87608" lon="5.92301">
        <ele>1374.2</ele>
        <time>2024-08-27T10:08:18Z</time>
      </trkpt>
      <trkpt lat="44.87606" lon="5.923">
        <ele>1374.2</ele>
        <time>2024-08-27T10:08:19Z</time>
      </trkpt>
      <trkpt lat="44.87603" lon="5.92298">
        <ele>1374.2</ele>
        <time>2024-08-27T10:08:20Z</time>
      </trkpt>
      <trkpt lat="44.876" lon="5.92297">
        <ele>1374.1</ele>
        <time>2024-08-27T10:08:21Z</time>
      </trkpt>
      <trkpt lat="44.87597" lon="5.92296">
        <ele>1374.1</ele>
        <time>2024-08-27T10:08:22Z</time>
      </trkpt>
      <trkpt lat="44.87593" lon="5.92294">
        <ele>1374</ele>
        <time>2024-08-27T10:08:23Z</time>
      </trkpt>
      <trkpt lat="44.87589" lon="5.92292">
        <ele>1374</ele>
        <time>2024-08-27T10:08:24Z</time>
      </trkpt>
      <trkpt lat="44.87585" lon="5.9229">
        <ele>1374</ele>
        <time>2024-08-27T10:08:25Z</time>
      </trkpt>
      <trkpt lat="44.87581" lon="5.92287">
        <ele>1373.9</ele>
        <time>2024-08-27T10:08:26Z</time>
      </trkpt>
      <trkpt lat="44.87577" lon="5.92284">
        <ele>1373.8</ele>
        <time>2024-08-27T10:08:27Z</time>
      </trkpt>
      <trkpt lat="44.87573" lon="5.92282">
        <ele>1373.8</ele>
        <time>2024-08-27T10:08:28Z</time>
      </trkpt>
      <trkpt lat="44.87569" lon="5.92278">
        <ele>1373.7</ele>
        <time>2024-08-27T10:08:29Z</time>
      </trkpt>
      <trkpt lat="44.87566" lon="5.92275">
        <ele>1373.6</ele>
        <time>2024-08-27T10:08:30Z</time>
      </trkpt>
      <trkpt lat="44.87562" lon="5.92272">
        <ele>1373.4</ele>
        <time>2024-08-27T10:08:31Z</time>
      </trkpt>
      <trkpt lat="44.87558" lon="5.92268">
        <ele>1373.3</ele>
        <time>2024-08-27T10:08:32Z</time>
      </trkpt>
      <trkpt lat="44.87555" lon="5.92262">
        <ele>1373.1</ele>
        <time>2024-08-27T10:08:33Z</time>
      </trkpt>
      <trkpt lat="44.87551" lon="5.92256">
        <ele>1372.9</ele>
        <time>2024-08-27T10:08:34Z</time>
      </trkpt>
      <trkpt lat="44.87548" lon="5.92249">
        <ele>1372.8</ele>
        <time>2024-08-27T10:08:35Z</time>
      </trkpt>
      <trkpt lat="44.87545" lon="5.92242">
        <ele>1372.7</ele>
        <time>2024-08-27T10:08:36Z</time>
      </trkpt>
      <trkpt lat="44.87541" lon="5.92235">
        <ele>1372.7</ele>
        <time>2024-08-27T10:08:37Z</time>
      </trkpt>
      <trkpt lat="44.87538" lon="5.92228">
        <ele>1372.6</ele>
        <time>2024-08-27T10:08:38Z</time>
      </trkpt>
      <trkpt lat="44.87536" lon="5.9222">
        <ele>1372.6</ele>
        <time>2024-08-27T10:08:39Z</time>
      </trkpt>
      <trkpt lat="44.87533" lon="5.92213">
        <ele>1372.7</ele>
        <time>2024-08-27T10:08:40Z</time>
      </trkpt>
      <trkpt lat="44.87531" lon="5.92206">
        <ele>1372.7</ele>
        <time>2024-08-27T10:08:41Z</time>
      </trkpt>
      <trkpt lat="44.87528" lon="5.92199">
        <ele>1372.7</ele>
        <time>2024-08-27T10:08:42Z</time>
      </trkpt>
      <trkpt lat="44.87526" lon="5.92192">
        <ele>1372.7</ele>
        <time>2024-08-27T10:08:43Z</time>
      </trkpt>
      <trkpt lat="44.87524" lon="5.92185">
        <ele>1372.8</ele>
        <time>2024-08-27T10:08:44Z</time>
      </trkpt>
      <trkpt lat="44.87521" lon="5.92178">
        <ele>1372.9</ele>
        <time>2024-08-27T10:08:45Z</time>
      </trkpt>
      <trkpt lat="44.87518" lon="5.92172">
        <ele>1373.1</ele>
        <time>2024-08-27T10:08:46Z</time>
      </trkpt>
      <trkpt lat="44.87515" lon="5.92168">
        <ele>1373.2</ele>
        <time>2024-08-27T10:08:47Z</time>
      </trkpt>
      <trkpt lat="44.87512" lon="5.92164">
        <ele>1373.3</ele>
        <time>2024-08-27T10:08:48Z</time>
      </trkpt>
      <trkpt lat="44.87509" lon="5.9216">
        <ele>1373.5</ele>
        <time>2024-08-27T10:08:49Z</time>
      </trkpt>
      <trkpt lat="44.87507" lon="5.92156">
        <ele>1373.6</ele>
        <time>2024-08-27T10:08:50Z</time>
      </trkpt>
      <trkpt lat="44.87504" lon="5.92152">
        <ele>1373.7</ele>
        <time>2024-08-27T10:08:51Z</time>
      </trkpt>
      <trkpt lat="44.87502" lon="5.92148">
        <ele>1373.8</ele>
        <time>2024-08-27T10:08:52Z</time>
      </trkpt>
      <trkpt lat="44.87499" lon="5.92143">
        <ele>1373.9</ele>
        <time>2024-08-27T10:08:53Z</time>
      </trkpt>
      <trkpt lat="44.87496" lon="5.92139">
        <ele>1374</ele>
        <time>2024-08-27T10:08:54Z</time>
      </trkpt>
      <trkpt lat="44.87494" lon="5.92134">
        <ele>1374.1</ele>
        <time>2024-08-27T10:08:55Z</time>
      </trkpt>
      <trkpt lat="44.87491" lon="5.9213">
        <ele>1374.2</ele>
        <time>2024-08-27T10:08:56Z</time>
      </trkpt>
      <trkpt lat="44.87488" lon="5.92125">
        <ele>1374.3</ele>
        <time>2024-08-27T10:08:57Z</time>
      </trkpt>
      <trkpt lat="44.87485" lon="5.9212">
        <ele>1374.5</ele>
        <time>2024-08-27T10:08:58Z</time>
      </trkpt>
      <trkpt lat="44.87482" lon="5.92115">
        <ele>1374.6</ele>
        <time>2024-08-27T10:08:59Z</time>
      </trkpt>
      <trkpt lat="44.87479" lon="5.9211">
        <ele>1374.7</ele>
        <time>2024-08-27T10:09:00Z</time>
      </trkpt>
      <trkpt lat="44.87476" lon="5.92105">
        <ele>1374.8</ele>
        <time>2024-08-27T10:09:01Z</time>
      </trkpt>
      <trkpt lat="44.87473" lon="5.921">
        <ele>1375</ele>
        <time>2024-08-27T10:09:02Z</time>
      </trkpt>
      <trkpt lat="44.87469" lon="5.92096">
        <ele>1375.2</ele>
        <time>2024-08-27T10:09:03Z</time>
      </trkpt>
      <trkpt lat="44.87466" lon="5.92091">
        <ele>1375.3</ele>
        <time>2024-08-27T10:09:04Z</time>
      </trkpt>
      <trkpt lat="44.87463" lon="5.92087">
        <ele>1375.5</ele>
        <time>2024-08-27T10:09:05Z</time>
      </trkpt>
      <trkpt lat="44.8746" lon="5.92083">
        <ele>1375.7</ele>
        <time>2024-08-27T10:09:06Z</time>
      </trkpt>
      <trkpt lat="44.87457" lon="5.92079">
        <ele>1376</ele>
        <time>2024-08-27T10:09:07Z</time>
      </trkpt>
      <trkpt lat="44.87453" lon="5.92075">
        <ele>1376.2</ele>
        <time>2024-08-27T10:09:08Z</time>
      </trkpt>
      <trkpt lat="44.87451" lon="5.92071">
        <ele>1376.5</ele>
        <time>2024-08-27T10:09:09Z</time>
      </trkpt>
      <trkpt lat="44.87448" lon="5.92067">
        <ele>1376.8</ele>
        <time>2024-08-27T10:09:10Z</time>
      </trkpt>
      <trkpt lat="44.87445" lon="5.92063">
        <ele>1377.1</ele>
        <time>2024-08-27T10:09:11Z</time>
      </trkpt>
      <trkpt lat="44.87442" lon="5.92059">
        <ele>1377.4</ele>
        <time>2024-08-27T10:09:12Z</time>
      </trkpt>
      <trkpt lat="44.87439" lon="5.92055">
        <ele>1377.7</ele>
        <time>2024-08-27T10:09:13Z</time>
      </trkpt>
      <trkpt lat="44.87436" lon="5.92052">
        <ele>1377.9</ele>
        <time>2024-08-27T10:09:14Z</time>
      </trkpt>
      <trkpt lat="44.87433" lon="5.92048">
        <ele>1378.2</ele>
        <time>2024-08-27T10:09:15Z</time>
      </trkpt>
      <trkpt lat="44.8743" lon="5.92044">
        <ele>1378.5</ele>
        <time>2024-08-27T10:09:16Z</time>
      </trkpt>
      <trkpt lat="44.87426" lon="5.92041">
        <ele>1378.8</ele>
        <time>2024-08-27T10:09:17Z</time>
      </trkpt>
      <trkpt lat="44.87423" lon="5.92038">
        <ele>1379</ele>
        <time>2024-08-27T10:09:18Z</time>
      </trkpt>
      <trkpt lat="44.87419" lon="5.92035">
        <ele>1379.2</ele>
        <time>2024-08-27T10:09:19Z</time>
      </trkpt>
      <trkpt lat="44.87416" lon="5.92033">
        <ele>1379.4</ele>
        <time>2024-08-27T10:09:20Z</time>
      </trkpt>
      <trkpt lat="44.87412" lon="5.9203">
        <ele>1379.6</ele>
        <time>2024-08-27T10:09:21Z</time>
      </trkpt>
      <trkpt lat="44.87409" lon="5.92027">
        <ele>1379.7</ele>
        <time>2024-08-27T10:09:22Z</time>
      </trkpt>
      <trkpt lat="44.87406" lon="5.92024">
        <ele>1379.9</ele>
        <time>2024-08-27T10:09:23Z</time>
      </trkpt>
      <trkpt lat="44.87403" lon="5.92021">
        <ele>1380</ele>
        <time>2024-08-27T10:09:24Z</time>
      </trkpt>
      <trkpt lat="44.874" lon="5.92018">
        <ele>1380</ele>
        <time>2024-08-27T10:09:25Z</time>
      </trkpt>
      <trkpt lat="44.87397" lon="5.92015">
        <ele>1380.1</ele>
        <time>2024-08-27T10:09:26Z</time>
      </trkpt>
      <trkpt lat="44.87394" lon="5.92011">
        <ele>1380.2</ele>
        <time>2024-08-27T10:09:27Z</time>
      </trkpt>
      <trkpt lat="44.87391" lon="5.92007">
        <ele>1380.3</ele>
        <time>2024-08-27T10:09:28Z</time>
      </trkpt>
      <trkpt lat="44.87388" lon="5.92004">
        <ele>1380.4</ele>
        <time>2024-08-27T10:09:29Z</time>
      </trkpt>
      <trkpt lat="44.87385" lon="5.92001">
        <ele>1380.4</ele>
        <time>2024-08-27T10:09:30Z</time>
      </trkpt>
      <trkpt lat="44.87382" lon="5.91998">
        <ele>1380.5</ele>
        <time>2024-08-27T10:09:31Z</time>
      </trkpt>
      <trkpt lat="44.87379" lon="5.91995">
        <ele>1380.5</ele>
        <time>2024-08-27T10:09:32Z</time>
      </trkpt>
      <trkpt lat="44.87376" lon="5.91991">
        <ele>1380.5</ele>
        <time>2024-08-27T10:09:33Z</time>
      </trkpt>
      <trkpt lat="44.87373" lon="5.91988">
        <ele>1380.4</ele>
        <time>2024-08-27T10:09:34Z</time>
      </trkpt>
      <trkpt lat="44.8737" lon="5.91984">
        <ele>1380.4</ele>
        <time>2024-08-27T10:09:35Z</time>
      </trkpt>
      <trkpt lat="44.87368" lon="5.91979">
        <ele>1380.3</ele>
        <time>2024-08-27T10:09:36Z</time>
      </trkpt>
      <trkpt lat="44.87364" lon="5.91976">
        <ele>1380.2</ele>
        <time>2024-08-27T10:09:37Z</time>
      </trkpt>
      <trkpt lat="44.87361" lon="5.91972">
        <ele>1380.1</ele>
        <time>2024-08-27T10:09:38Z</time>
      </trkpt>
      <trkpt lat="44.87359" lon="5.91967">
        <ele>1380</ele>
        <time>2024-08-27T10:09:39Z</time>
      </trkpt>
      <trkpt lat="44.87357" lon="5.91961">
        <ele>1379.9</ele>
        <time>2024-08-27T10:09:40Z</time>
      </trkpt>
      <trkpt lat="44.87357" lon="5.91956">
        <ele>1379.8</ele>
        <time>2024-08-27T10:09:41Z</time>
      </trkpt>
      <trkpt lat="44.87356" lon="5.9195">
        <ele>1379.7</ele>
        <time>2024-08-27T10:09:42Z</time>
      </trkpt>
      <trkpt lat="44.87357" lon="5.91946">
        <ele>1379.6</ele>
        <time>2024-08-27T10:09:43Z</time>
      </trkpt>
      <trkpt lat="44.87357" lon="5.91943">
        <ele>1379.5</ele>
        <time>2024-08-27T10:09:44Z</time>
      </trkpt>
      <trkpt lat="44.87357" lon="5.91941">
        <ele>1379.4</ele>
        <time>2024-08-27T10:09:45Z</time>
      </trkpt>
      <trkpt lat="44.87358" lon="5.91941">
        <ele>1379.4</ele>
        <time>2024-08-27T10:09:46Z</time>
      </trkpt>
      <trkpt lat="44.87358" lon="5.9194">
        <ele>1379.4</ele>
        <time>2024-08-27T10:09:47Z</time>
      </trkpt>
      <trkpt lat="44.87358" lon="5.91939">
        <ele>1379.4</ele>
        <time>2024-08-27T10:09:48Z</time>
      </trkpt>
      <trkpt lat="44.87359" lon="5.91938">
        <ele>1379.3</ele>
        <time>2024-08-27T10:09:49Z</time>
      </trkpt>
      <trkpt lat="44.87359" lon="5.91938">
        <ele>1379.3</ele>
        <time>2024-08-27T10:09:50Z</time>
      </trkpt>
      <trkpt lat="44.87359" lon="5.91937">
        <ele>1379.3</ele>
        <time>2024-08-27T10:09:51Z</time>
      </trkpt>
      <trkpt lat="44.87359" lon="5.91936">
        <ele>1379.2</ele>
        <time>2024-08-27T10:09:52Z</time>
      </trkpt>
      <trkpt lat="44.8736" lon="5.91936">
        <ele>1379.2</ele>
        <time>2024-08-27T10:09:53Z</time>
      </trkpt>
      <trkpt lat="44.8736" lon="5.91935">
        <ele>1379.2</ele>
        <time>2024-08-27T10:09:54Z</time>
      </trkpt>
      <trkpt lat="44.8736" lon="5.91934">
        <ele>1379.2</ele>
        <time>2024-08-27T10:09:55Z</time>
      </trkpt>
      <trkpt lat="44.87361" lon="5.91934">
        <ele>1379.1</ele>
        <time>2024-08-27T10:09:56Z</time>
      </trkpt>
      <trkpt lat="44.87361" lon="5.91933">
        <ele>1379.1</ele>
        <time>2024-08-27T10:09:57Z</time>
      </trkpt>
      <trkpt lat="44.87361" lon="5.91932">
        <ele>1379.1</ele>
        <time>2024-08-27T10:10:11Z</time>
      </trkpt>
      <trkpt lat="44.87361" lon="5.91932">
        <ele>1379.1</ele>
        <time>2024-08-27T10:10:12Z</time>
      </trkpt>
      <trkpt lat="44.87362" lon="5.91931">
        <ele>1379</ele>
        <time>2024-08-27T10:10:13Z</time>
      </trkpt>
      <trkpt lat="44.87362" lon="5.91926">
        <ele>1378.8</ele>
        <time>2024-08-27T10:10:14Z</time>
      </trkpt>
      <trkpt lat="44.87363" lon="5.91921">
        <ele>1378.6</ele>
        <time>2024-08-27T10:10:15Z</time>
      </trkpt>
      <trkpt lat="44.87365" lon="5.91914">
        <ele>1378.4</ele>
        <time>2024-08-27T10:10:16Z</time>
      </trkpt>
      <trkpt lat="44.87366" lon="5.91907">
        <ele>1378.1</ele>
        <time>2024-08-27T10:10:17Z</time>
      </trkpt>
      <trkpt lat="44.87365" lon="5.919">
        <ele>1377.8</ele>
        <time>2024-08-27T10:10:18Z</time>
      </trkpt>
      <trkpt lat="44.87364" lon="5.91893">
        <ele>1377.5</ele>
        <time>2024-08-27T10:10:19Z</time>
      </trkpt>
      <trkpt lat="44.87362" lon="5.91887">
        <ele>1377.1</ele>
        <time>2024-08-27T10:10:20Z</time>
      </trkpt>
      <trkpt lat="44.8736" lon="5.9188">
        <ele>1376.7</ele>
        <time>2024-08-27T10:10:21Z</time>
      </trkpt>
      <trkpt lat="44.87358" lon="5.91872">
        <ele>1376.2</ele>
        <time>2024-08-27T10:10:22Z</time>
      </trkpt>
      <trkpt lat="44.87355" lon="5.91864">
        <ele>1375.6</ele>
        <time>2024-08-27T10:10:23Z</time>
      </trkpt>
      <trkpt lat="44.87352" lon="5.91855">
        <ele>1374.9</ele>
        <time>2024-08-27T10:10:24Z</time>
      </trkpt>
      <trkpt lat="44.87349" lon="5.91846">
        <ele>1374.2</ele>
        <time>2024-08-27T10:10:25Z</time>
      </trkpt>
      <trkpt lat="44.87345" lon="5.91836">
        <ele>1373.4</ele>
        <time>2024-08-27T10:10:26Z</time>
      </trkpt>
      <trkpt lat="44.87341" lon="5.91827">
        <ele>1372.6</ele>
        <time>2024-08-27T10:10:27Z</time>
      </trkpt>
      <trkpt lat="44.87337" lon="5.91816">
        <ele>1371.7</ele>
        <time>2024-08-27T10:10:28Z</time>
      </trkpt>
      <trkpt lat="44.87334" lon="5.91804">
        <ele>1370.8</ele>
        <time>2024-08-27T10:10:29Z</time>
      </trkpt>
      <trkpt lat="44.87331" lon="5.91792">
        <ele>1369.8</ele>
        <time>2024-08-27T10:10:30Z</time>
      </trkpt>
      <trkpt lat="44.8733" lon="5.91779">
        <ele>1368.9</ele>
        <time>2024-08-27T10:10:31Z</time>
      </trkpt>
      <trkpt lat="44.87331" lon="5.91767">
        <ele>1368.1</ele>
        <time>2024-08-27T10:10:32Z</time>
      </trkpt>
      <trkpt lat="44.87335" lon="5.91755">
        <ele>1367.2</ele>
        <time>2024-08-27T10:10:33Z</time>
      </trkpt>
      <trkpt lat="44.87341" lon="5.91745">
        <ele>1366.4</ele>
        <time>2024-08-27T10:10:34Z</time>
      </trkpt>
      <trkpt lat="44.87349" lon="5.91738">
        <ele>1365.6</ele>
        <time>2024-08-27T10:10:35Z</time>
      </trkpt>
      <trkpt lat="44.87358" lon="5.91732">
        <ele>1364.8</ele>
        <time>2024-08-27T10:10:36Z</time>
      </trkpt>
      <trkpt lat="44.87367" lon="5.91726">
        <ele>1364</ele>
        <time>2024-08-27T10:10:37Z</time>
      </trkpt>
      <trkpt lat="44.87376" lon="5.9172">
        <ele>1363.2</ele>
        <time>2024-08-27T10:10:38Z</time>
      </trkpt>
      <trkpt lat="44.87385" lon="5.91714">
        <ele>1362.4</ele>
        <time>2024-08-27T10:10:39Z</time>
      </trkpt>
      <trkpt lat="44.87394" lon="5.91707">
        <ele>1361.6</ele>
        <time>2024-08-27T10:10:40Z</time>
      </trkpt>
      <trkpt lat="44.87404" lon="5.91701">
        <ele>1360.9</ele>
        <time>2024-08-27T10:10:41Z</time>
      </trkpt>
      <trkpt lat="44.87413" lon="5.91694">
        <ele>1360.2</ele>
        <time>2024-08-27T10:10:42Z</time>
      </trkpt>
      <trkpt lat="44.87422" lon="5.91688">
        <ele>1359.6</ele>
        <time>2024-08-27T10:10:43Z</time>
      </trkpt>
      <trkpt lat="44.8743" lon="5.91682">
        <ele>1358.9</ele>
        <time>2024-08-27T10:10:44Z</time>
      </trkpt>
      <trkpt lat="44.87436" lon="5.91674">
        <ele>1358.3</ele>
        <time>2024-08-27T10:10:45Z</time>
      </trkpt>
      <trkpt lat="44.8744" lon="5.91667">
        <ele>1357.6</ele>
        <time>2024-08-27T10:10:46Z</time>
      </trkpt>
      <trkpt lat="44.8744" lon="5.91659">
        <ele>1357</ele>
        <time>2024-08-27T10:10:47Z</time>
      </trkpt>
      <trkpt lat="44.87436" lon="5.91654">
        <ele>1356.3</ele>
        <time>2024-08-27T10:10:48Z</time>
      </trkpt>
      <trkpt lat="44.8743" lon="5.91654">
        <ele>1355.5</ele>
        <time>2024-08-27T10:10:49Z</time>
      </trkpt>
      <trkpt lat="44.87423" lon="5.91658">
        <ele>1354.6</ele>
        <time>2024-08-27T10:10:50Z</time>
      </trkpt>
      <trkpt lat="44.87417" lon="5.91662">
        <ele>1353.6</ele>
        <time>2024-08-27T10:10:51Z</time>
      </trkpt>
      <trkpt lat="44.87409" lon="5.91664">
        <ele>1352.5</ele>
        <time>2024-08-27T10:10:52Z</time>
      </trkpt>
      <trkpt lat="44.87401" lon="5.91663">
        <ele>1351.3</ele>
        <time>2024-08-27T10:10:53Z</time>
      </trkpt>
      <trkpt lat="44.87392" lon="5.9166">
        <ele>1349.9</ele>
        <time>2024-08-27T10:10:54Z</time>
      </trkpt>
      <trkpt lat="44.87382" lon="5.91656">
        <ele>1348.3</ele>
        <time>2024-08-27T10:10:55Z</time>
      </trkpt>
      <trkpt lat="44.87372" lon="5.9165">
        <ele>1346.7</ele>
        <time>2024-08-27T10:10:56Z</time>
      </trkpt>
      <trkpt lat="44.87361" lon="5.91644">
        <ele>1345.1</ele>
        <time>2024-08-27T10:10:57Z</time>
      </trkpt>
      <trkpt lat="44.8735" lon="5.91638">
        <ele>1343.7</ele>
        <time>2024-08-27T10:10:58Z</time>
      </trkpt>
      <trkpt lat="44.87338" lon="5.91636">
        <ele>1342.5</ele>
        <time>2024-08-27T10:10:59Z</time>
      </trkpt>
      <trkpt lat="44.87326" lon="5.91634">
        <ele>1341.3</ele>
        <time>2024-08-27T10:11:00Z</time>
      </trkpt>
      <trkpt lat="44.87314" lon="5.91632">
        <ele>1340.3</ele>
        <time>2024-08-27T10:11:01Z</time>
      </trkpt>
      <trkpt lat="44.87302" lon="5.9163">
        <ele>1339.2</ele>
        <time>2024-08-27T10:11:02Z</time>
      </trkpt>
      <trkpt lat="44.8729" lon="5.91628">
        <ele>1338.1</ele>
        <time>2024-08-27T10:11:03Z</time>
      </trkpt>
      <trkpt lat="44.87278" lon="5.91626">
        <ele>1336.9</ele>
        <time>2024-08-27T10:11:04Z</time>
      </trkpt>
      <trkpt lat="44.87266" lon="5.91624">
        <ele>1335.5</ele>
        <time>2024-08-27T10:11:05Z</time>
      </trkpt>
      <trkpt lat="44.87253" lon="5.91623">
        <ele>1334.2</ele>
        <time>2024-08-27T10:11:06Z</time>
      </trkpt>
      <trkpt lat="44.87241" lon="5.91621">
        <ele>1332.8</ele>
        <time>2024-08-27T10:11:07Z</time>
      </trkpt>
      <trkpt lat="44.87228" lon="5.9162">
        <ele>1331.4</ele>
        <time>2024-08-27T10:11:08Z</time>
      </trkpt>
      <trkpt lat="44.87216" lon="5.9162">
        <ele>1330.2</ele>
        <time>2024-08-27T10:11:09Z</time>
      </trkpt>
      <trkpt lat="44.87205" lon="5.91619">
        <ele>1329.2</ele>
        <time>2024-08-27T10:11:10Z</time>
      </trkpt>
      <trkpt lat="44.87195" lon="5.9162">
        <ele>1328.1</ele>
        <time>2024-08-27T10:11:11Z</time>
      </trkpt>
      <trkpt lat="44.87185" lon="5.91622">
        <ele>1327</ele>
        <time>2024-08-27T10:11:12Z</time>
      </trkpt>
      <trkpt lat="44.87175" lon="5.91626">
        <ele>1325.8</ele>
        <time>2024-08-27T10:11:13Z</time>
      </trkpt>
      <trkpt lat="44.87167" lon="5.91629">
        <ele>1324.6</ele>
        <time>2024-08-27T10:11:14Z</time>
      </trkpt>
      <trkpt lat="44.87158" lon="5.9163">
        <ele>1323.5</ele>
        <time>2024-08-27T10:11:15Z</time>
      </trkpt>
      <trkpt lat="44.87149" lon="5.91628">
        <ele>1322.2</ele>
        <time>2024-08-27T10:11:16Z</time>
      </trkpt>
      <trkpt lat="44.87139" lon="5.91622">
        <ele>1320.7</ele>
        <time>2024-08-27T10:11:17Z</time>
      </trkpt>
      <trkpt lat="44.8713" lon="5.91613">
        <ele>1319.3</ele>
        <time>2024-08-27T10:11:18Z</time>
      </trkpt>
      <trkpt lat="44.8712" lon="5.91604">
        <ele>1318.1</ele>
        <time>2024-08-27T10:11:19Z</time>
      </trkpt>
      <trkpt lat="44.8711" lon="5.91596">
        <ele>1317.2</ele>
        <time>2024-08-27T10:11:20Z</time>
      </trkpt>
      <trkpt lat="44.871" lon="5.91588">
        <ele>1316.4</ele>
        <time>2024-08-27T10:11:21Z</time>
      </trkpt>
      <trkpt lat="44.8709" lon="5.91581">
        <ele>1315.8</ele>
        <time>2024-08-27T10:11:22Z</time>
      </trkpt>
      <trkpt lat="44.87079" lon="5.91573">
        <ele>1315.3</ele>
        <time>2024-08-27T10:11:23Z</time>
      </trkpt>
      <trkpt lat="44.87069" lon="5.91565">
        <ele>1314.8</ele>
        <time>2024-08-27T10:11:24Z</time>
      </trkpt>
      <trkpt lat="44.87059" lon="5.91558">
        <ele>1314.1</ele>
        <time>2024-08-27T10:11:25Z</time>
      </trkpt>
      <trkpt lat="44.87049" lon="5.91551">
        <ele>1313.2</ele>
        <time>2024-08-27T10:11:26Z</time>
      </trkpt>
      <trkpt lat="44.8704" lon="5.91545">
        <ele>1312.1</ele>
        <time>2024-08-27T10:11:27Z</time>
      </trkpt>
      <trkpt lat="44.8703" lon="5.91539">
        <ele>1311</ele>
        <time>2024-08-27T10:11:28Z</time>
      </trkpt>
      <trkpt lat="44.8702" lon="5.91531">
        <ele>1309.9</ele>
        <time>2024-08-27T10:11:29Z</time>
      </trkpt>
      <trkpt lat="44.87009" lon="5.91524">
        <ele>1308.9</ele>
        <time>2024-08-27T10:11:30Z</time>
      </trkpt>
      <trkpt lat="44.86999" lon="5.91517">
        <ele>1308</ele>
        <time>2024-08-27T10:11:31Z</time>
      </trkpt>
      <trkpt lat="44.86989" lon="5.91511">
        <ele>1307.3</ele>
        <time>2024-08-27T10:11:32Z</time>
      </trkpt>
      <trkpt lat="44.86982" lon="5.91505">
        <ele>1306.7</ele>
        <time>2024-08-27T10:11:33Z</time>
      </trkpt>
      <trkpt lat="44.86974" lon="5.91499">
        <ele>1306.2</ele>
        <time>2024-08-27T10:11:34Z</time>
      </trkpt>
      <trkpt lat="44.86966" lon="5.91493">
        <ele>1305.6</ele>
        <time>2024-08-27T10:11:35Z</time>
      </trkpt>
      <trkpt lat="44.86958" lon="5.91488">
        <ele>1305.1</ele>
        <time>2024-08-27T10:11:36Z</time>
      </trkpt>
      <trkpt lat="44.8695" lon="5.91483">
        <ele>1304.5</ele>
        <time>2024-08-27T10:11:37Z</time>
      </trkpt>
      <trkpt lat="44.86942" lon="5.91478">
        <ele>1303.9</ele>
        <time>2024-08-27T10:11:38Z</time>
      </trkpt>
      <trkpt lat="44.86933" lon="5.91472">
        <ele>1303.2</ele>
        <time>2024-08-27T10:11:39Z</time>
      </trkpt>
      <trkpt lat="44.86925" lon="5.91466">
        <ele>1302.4</ele>
        <time>2024-08-27T10:11:40Z</time>
      </trkpt>
      <trkpt lat="44.86917" lon="5.91459">
        <ele>1301.6</ele>
        <time>2024-08-27T10:11:41Z</time>
      </trkpt>
      <trkpt lat="44.86908" lon="5.91453">
        <ele>1300.8</ele>
        <time>2024-08-27T10:11:42Z</time>
      </trkpt>
      <trkpt lat="44.86899" lon="5.91446">
        <ele>1299.9</ele>
        <time>2024-08-27T10:11:43Z</time>
      </trkpt>
      <trkpt lat="44.86889" lon="5.91439">
        <ele>1298.9</ele>
        <time>2024-08-27T10:11:44Z</time>
      </trkpt>
      <trkpt lat="44.8688" lon="5.91431">
        <ele>1298</ele>
        <time>2024-08-27T10:11:45Z</time>
      </trkpt>
      <trkpt lat="44.86871" lon="5.91422">
        <ele>1297</ele>
        <time>2024-08-27T10:11:46Z</time>
      </trkpt>
      <trkpt lat="44.86862" lon="5.91413">
        <ele>1296.1</ele>
        <time>2024-08-27T10:11:47Z</time>
      </trkpt>
      <trkpt lat="44.86853" lon="5.91404">
        <ele>1295.1</ele>
        <time>2024-08-27T10:11:48Z</time>
      </trkpt>
      <trkpt lat="44.86844" lon="5.91395">
        <ele>1294</ele>
        <time>2024-08-27T10:11:49Z</time>
      </trkpt>
      <trkpt lat="44.86835" lon="5.91384">
        <ele>1292.8</ele>
        <time>2024-08-27T10:11:50Z</time>
      </trkpt>
      <trkpt lat="44.86826" lon="5.91374">
        <ele>1291.6</ele>
        <time>2024-08-27T10:11:51Z</time>
      </trkpt>
      <trkpt lat="44.86818" lon="5.91363">
        <ele>1290.4</ele>
        <time>2024-08-27T10:11:52Z</time>
      </trkpt>
      <trkpt lat="44.86811" lon="5.91352">
        <ele>1289.2</ele>
        <time>2024-08-27T10:11:53Z</time>
      </trkpt>
      <trkpt lat="44.86806" lon="5.91339">
        <ele>1288</ele>
        <time>2024-08-27T10:11:54Z</time>
      </trkpt>
      <trkpt lat="44.86802" lon="5.91323">
        <ele>1286.7</ele>
        <time>2024-08-27T10:11:55Z</time>
      </trkpt>
      <trkpt lat="44.86798" lon="5.91309">
        <ele>1285.5</ele>
        <time>2024-08-27T10:11:56Z</time>
      </trkpt>
      <trkpt lat="44.86795" lon="5.91295">
        <ele>1284.4</ele>
        <time>2024-08-27T10:11:57Z</time>
      </trkpt>
      <trkpt lat="44.86793" lon="5.91281">
        <ele>1283.3</ele>
        <time>2024-08-27T10:11:58Z</time>
      </trkpt>
      <trkpt lat="44.86793" lon="5.91267">
        <ele>1282.3</ele>
        <time>2024-08-27T10:11:59Z</time>
      </trkpt>
      <trkpt lat="44.86795" lon="5.91254">
        <ele>1281.4</ele>
        <time>2024-08-27T10:12:00Z</time>
      </trkpt>
      <trkpt lat="44.86798" lon="5.91241">
        <ele>1280.5</ele>
        <time>2024-08-27T10:12:01Z</time>
      </trkpt>
      <trkpt lat="44.86803" lon="5.91229">
        <ele>1279.7</ele>
        <time>2024-08-27T10:12:02Z</time>
      </trkpt>
      <trkpt lat="44.86811" lon="5.91219">
        <ele>1278.8</ele>
        <time>2024-08-27T10:12:03Z</time>
      </trkpt>
      <trkpt lat="44.8682" lon="5.91212">
        <ele>1277.8</ele>
        <time>2024-08-27T10:12:04Z</time>
      </trkpt>
      <trkpt lat="44.8683" lon="5.91208">
        <ele>1276.8</ele>
        <time>2024-08-27T10:12:05Z</time>
      </trkpt>
      <trkpt lat="44.8684" lon="5.91205">
        <ele>1275.7</ele>
        <time>2024-08-27T10:12:06Z</time>
      </trkpt>
      <trkpt lat="44.8685" lon="5.91203">
        <ele>1274.6</ele>
        <time>2024-08-27T10:12:07Z</time>
      </trkpt>
      <trkpt lat="44.86862" lon="5.91201">
        <ele>1273.5</ele>
        <time>2024-08-27T10:12:08Z</time>
      </trkpt>
      <trkpt lat="44.86873" lon="5.91202">
        <ele>1272.6</ele>
        <time>2024-08-27T10:12:09Z</time>
      </trkpt>
      <trkpt lat="44.86884" lon="5.91205">
        <ele>1271.5</ele>
        <time>2024-08-27T10:12:10Z</time>
      </trkpt>
      <trkpt lat="44.86895" lon="5.91208">
        <ele>1270.5</ele>
        <time>2024-08-27T10:12:11Z</time>
      </trkpt>
      <trkpt lat="44.86907" lon="5.91212">
        <ele>1269.5</ele>
        <time>2024-08-27T10:12:12Z</time>
      </trkpt>
      <trkpt lat="44.86919" lon="5.91216">
        <ele>1268.5</ele>
        <time>2024-08-27T10:12:13Z</time>
      </trkpt>
      <trkpt lat="44.86931" lon="5.91221">
        <ele>1267.6</ele>
        <time>2024-08-27T10:12:14Z</time>
      </trkpt>
      <trkpt lat="44.86943" lon="5.91226">
        <ele>1266.8</ele>
        <time>2024-08-27T10:12:15Z</time>
      </trkpt>
      <trkpt lat="44.86952" lon="5.91231">
        <ele>1266.1</ele>
        <time>2024-08-27T10:12:16Z</time>
      </trkpt>
      <trkpt lat="44.86961" lon="5.91236">
        <ele>1265.4</ele>
        <time>2024-08-27T10:12:17Z</time>
      </trkpt>
      <trkpt lat="44.86969" lon="5.9124">
        <ele>1264.7</ele>
        <time>2024-08-27T10:12:18Z</time>
      </trkpt>
      <trkpt lat="44.86976" lon="5.91243">
        <ele>1263.9</ele>
        <time>2024-08-27T10:12:19Z</time>
      </trkpt>
      <trkpt lat="44.86982" lon="5.9124">
        <ele>1263</ele>
        <time>2024-08-27T10:12:20Z</time>
      </trkpt>
      <trkpt lat="44.86989" lon="5.91233">
        <ele>1261.8</ele>
        <time>2024-08-27T10:12:21Z</time>
      </trkpt>
      <trkpt lat="44.86994" lon="5.91224">
        <ele>1260.5</ele>
        <time>2024-08-27T10:12:22Z</time>
      </trkpt>
      <trkpt lat="44.87001" lon="5.91215">
        <ele>1259.2</ele>
        <time>2024-08-27T10:12:23Z</time>
      </trkpt>
      <trkpt lat="44.87009" lon="5.91206">
        <ele>1257.9</ele>
        <time>2024-08-27T10:12:24Z</time>
      </trkpt>
      <trkpt lat="44.87017" lon="5.91197">
        <ele>1256.6</ele>
        <time>2024-08-27T10:12:25Z</time>
      </trkpt>
      <trkpt lat="44.87023" lon="5.91185">
        <ele>1255.3</ele>
        <time>2024-08-27T10:12:26Z</time>
      </trkpt>
      <trkpt lat="44.87029" lon="5.91174">
        <ele>1254.3</ele>
        <time>2024-08-27T10:12:27Z</time>
      </trkpt>
      <trkpt lat="44.87034" lon="5.91162">
        <ele>1253.4</ele>
        <time>2024-08-27T10:12:28Z</time>
      </trkpt>
      <trkpt lat="44.87037" lon="5.9115">
        <ele>1252.5</ele>
        <time>2024-08-27T10:12:29Z</time>
      </trkpt>
      <trkpt lat="44.87038" lon="5.91136">
        <ele>1251.9</ele>
        <time>2024-08-27T10:12:30Z</time>
      </trkpt>
      <trkpt lat="44.87036" lon="5.91123">
        <ele>1252</ele>
        <time>2024-08-27T10:12:31Z</time>
      </trkpt>
      <trkpt lat="44.87034" lon="5.9111">
        <ele>1251.3</ele>
        <time>2024-08-27T10:12:32Z</time>
      </trkpt>
      <trkpt lat="44.87028" lon="5.91099">
        <ele>1250.2</ele>
        <time>2024-08-27T10:12:33Z</time>
      </trkpt>
      <trkpt lat="44.87021" lon="5.91088">
        <ele>1249.1</ele>
        <time>2024-08-27T10:12:34Z</time>
      </trkpt>
      <trkpt lat="44.87013" lon="5.91078">
        <ele>1248</ele>
        <time>2024-08-27T10:12:35Z</time>
      </trkpt>
      <trkpt lat="44.87005" lon="5.91069">
        <ele>1246.8</ele>
        <time>2024-08-27T10:12:36Z</time>
      </trkpt>
      <trkpt lat="44.86996" lon="5.91061">
        <ele>1245.6</ele>
        <time>2024-08-27T10:12:37Z</time>
      </trkpt>
      <trkpt lat="44.86986" lon="5.91054">
        <ele>1244.4</ele>
        <time>2024-08-27T10:12:38Z</time>
      </trkpt>
      <trkpt lat="44.86975" lon="5.9105">
        <ele>1243.1</ele>
        <time>2024-08-27T10:12:39Z</time>
      </trkpt>
      <trkpt lat="44.86964" lon="5.91048">
        <ele>1241.8</ele>
        <time>2024-08-27T10:12:40Z</time>
      </trkpt>
      <trkpt lat="44.86953" lon="5.91048">
        <ele>1240.5</ele>
        <time>2024-08-27T10:12:41Z</time>
      </trkpt>
      <trkpt lat="44.86942" lon="5.91045">
        <ele>1239.2</ele>
        <time>2024-08-27T10:12:42Z</time>
      </trkpt>
      <trkpt lat="44.86932" lon="5.91039">
        <ele>1237.6</ele>
        <time>2024-08-27T10:12:43Z</time>
      </trkpt>
      <trkpt lat="44.86922" lon="5.9103">
        <ele>1236.1</ele>
        <time>2024-08-27T10:12:44Z</time>
      </trkpt>
      <trkpt lat="44.86913" lon="5.91019">
        <ele>1234.6</ele>
        <time>2024-08-27T10:12:45Z</time>
      </trkpt>
      <trkpt lat="44.86904" lon="5.91007">
        <ele>1233</ele>
        <time>2024-08-27T10:12:46Z</time>
      </trkpt>
      <trkpt lat="44.86894" lon="5.90994">
        <ele>1231.3</ele>
        <time>2024-08-27T10:12:47Z</time>
      </trkpt>
      <trkpt lat="44.86884" lon="5.90982">
        <ele>1229.7</ele>
        <time>2024-08-27T10:12:48Z</time>
      </trkpt>
      <trkpt lat="44.86874" lon="5.9097">
        <ele>1228.1</ele>
        <time>2024-08-27T10:12:49Z</time>
      </trkpt>
      <trkpt lat="44.86864" lon="5.90957">
        <ele>1226.4</ele>
        <time>2024-08-27T10:12:50Z</time>
      </trkpt>
      <trkpt lat="44.86854" lon="5.90945">
        <ele>1225.6</ele>
        <time>2024-08-27T10:12:51Z</time>
      </trkpt>
      <trkpt lat="44.86844" lon="5.90934">
        <ele>1225.3</ele>
        <time>2024-08-27T10:12:52Z</time>
      </trkpt>
      <trkpt lat="44.86832" lon="5.90925">
        <ele>1224</ele>
        <time>2024-08-27T10:12:53Z</time>
      </trkpt>
      <trkpt lat="44.8682" lon="5.90919">
        <ele>1222.7</ele>
        <time>2024-08-27T10:12:54Z</time>
      </trkpt>
      <trkpt lat="44.86807" lon="5.90914">
        <ele>1221.5</ele>
        <time>2024-08-27T10:12:55Z</time>
      </trkpt>
      <trkpt lat="44.86795" lon="5.90909">
        <ele>1220.4</ele>
        <time>2024-08-27T10:12:56Z</time>
      </trkpt>
      <trkpt lat="44.86783" lon="5.90904">
        <ele>1219.3</ele>
        <time>2024-08-27T10:12:57Z</time>
      </trkpt>
      <trkpt lat="44.86771" lon="5.90898">
        <ele>1218.3</ele>
        <time>2024-08-27T10:12:58Z</time>
      </trkpt>
      <trkpt lat="44.8676" lon="5.90892">
        <ele>1217.4</ele>
        <time>2024-08-27T10:12:59Z</time>
      </trkpt>
      <trkpt lat="44.86749" lon="5.90885">
        <ele>1216.5</ele>
        <time>2024-08-27T10:13:00Z</time>
      </trkpt>
      <trkpt lat="44.86738" lon="5.90878">
        <ele>1215.6</ele>
        <time>2024-08-27T10:13:01Z</time>
      </trkpt>
      <trkpt lat="44.86728" lon="5.90873">
        <ele>1214.9</ele>
        <time>2024-08-27T10:13:02Z</time>
      </trkpt>
      <trkpt lat="44.86719" lon="5.90867">
        <ele>1214.2</ele>
        <time>2024-08-27T10:13:03Z</time>
      </trkpt>
      <trkpt lat="44.86711" lon="5.90863">
        <ele>1213.7</ele>
        <time>2024-08-27T10:13:04Z</time>
      </trkpt>
      <trkpt lat="44.86705" lon="5.90859">
        <ele>1213.3</ele>
        <time>2024-08-27T10:13:05Z</time>
      </trkpt>
      <trkpt lat="44.867" lon="5.90855">
        <ele>1213</ele>
        <time>2024-08-27T10:13:06Z</time>
      </trkpt>
      <trkpt lat="44.86697" lon="5.90851">
        <ele>1212.8</ele>
        <time>2024-08-27T10:13:07Z</time>
      </trkpt>
      <trkpt lat="44.86696" lon="5.90847">
        <ele>1212.7</ele>
        <time>2024-08-27T10:13:08Z</time>
      </trkpt>
      <trkpt lat="44.86697" lon="5.90844">
        <ele>1212.3</ele>
        <time>2024-08-27T10:13:09Z</time>
      </trkpt>
      <trkpt lat="44.867" lon="5.90843">
        <ele>1212.3</ele>
        <time>2024-08-27T10:13:10Z</time>
      </trkpt>
      <trkpt lat="44.86703" lon="5.90845">
        <ele>1212.3</ele>
        <time>2024-08-27T10:13:11Z</time>
      </trkpt>
      <trkpt lat="44.86707" lon="5.90847">
        <ele>1212.3</ele>
        <time>2024-08-27T10:13:12Z</time>
      </trkpt>
      <trkpt lat="44.86708" lon="5.90847">
        <ele>1212.3</ele>
        <time>2024-08-27T10:13:13Z</time>
      </trkpt>
      <trkpt lat="44.86709" lon="5.90848">
        <ele>1212.3</ele>
        <time>2024-08-27T10:13:14Z</time>
      </trkpt>
      <trkpt lat="44.8671" lon="5.90848">
        <ele>1212.3</ele>
        <time>2024-08-27T10:13:15Z</time>
      </trkpt>
      <trkpt lat="44.8671" lon="5.90848">
        <ele>1212.3</ele>
        <time>2024-08-27T10:13:16Z</time>
      </trkpt>
      <trkpt lat="44.86711" lon="5.90848">
        <ele>1212.3</ele>
        <time>2024-08-27T10:13:17Z</time>
      </trkpt>
      <trkpt lat="44.86711" lon="5.90848">
        <ele>1212.3</ele>
        <time>2024-08-27T10:13:18Z</time>
      </trkpt>
      <trkpt lat="44.86712" lon="5.90849">
        <ele>1212.3</ele>
        <time>2024-08-27T10:13:19Z</time>
      </trkpt>
      <trkpt lat="44.86712" lon="5.90849">
        <ele>1212.3</ele>
        <time>2024-08-27T10:13:20Z</time>
      </trkpt>
      <trkpt lat="44.86713" lon="5.90849">
        <ele>1212.3</ele>
        <time>2024-08-27T10:13:21Z</time>
      </trkpt>
      <trkpt lat="44.86713" lon="5.90849">
        <ele>1212.3</ele>
        <time>2024-08-27T10:13:22Z</time>
      </trkpt>
      <trkpt lat="44.86714" lon="5.90849">
        <ele>1212.3</ele>
        <time>2024-08-27T10:13:23Z</time>
      </trkpt>
      <trkpt lat="44.86714" lon="5.90849">
        <ele>1212.3</ele>
        <time>2024-08-27T10:13:24Z</time>
      </trkpt>
      <trkpt lat="44.86715" lon="5.90849">
        <ele>1212.3</ele>
        <time>2024-08-27T10:13:25Z</time>
      </trkpt>
      <trkpt lat="44.86715" lon="5.9085">
        <ele>1212.3</ele>
        <time>2024-08-27T10:14:12Z</time>
      </trkpt>
      <trkpt lat="44.86716" lon="5.9085">
        <ele>1212.3</ele>
        <time>2024-08-27T10:14:13Z</time>
      </trkpt>
      <trkpt lat="44.86716" lon="5.9085">
        <ele>1212.3</ele>
        <time>2024-08-27T10:14:14Z</time>
      </trkpt>
      <trkpt lat="44.8672" lon="5.90851">
        <ele>1212.3</ele>
        <time>2024-08-27T10:14:15Z</time>
      </trkpt>
      <trkpt lat="44.86722" lon="5.90851">
        <ele>1212.3</ele>
        <time>2024-08-27T10:14:16Z</time>
      </trkpt>
      <trkpt lat="44.86724" lon="5.90853">
        <ele>1212.4</ele>
        <time>2024-08-27T10:14:17Z</time>
      </trkpt>
      <trkpt lat="44.86727" lon="5.90854">
        <ele>1212.4</ele>
        <time>2024-08-27T10:14:18Z</time>
      </trkpt>
      <trkpt lat="44.86731" lon="5.90856">
        <ele>1212.4</ele>
        <time>2024-08-27T10:14:19Z</time>
      </trkpt>
      <trkpt lat="44.86732" lon="5.90857">
        <ele>1212.5</ele>
        <time>2024-08-27T10:14:20Z</time>
      </trkpt>
      <trkpt lat="44.86735" lon="5.90859">
        <ele>1212.5</ele>
        <time>2024-08-27T10:14:21Z</time>
      </trkpt>
      <trkpt lat="44.86738" lon="5.90861">
        <ele>1212.5</ele>
        <time>2024-08-27T10:14:22Z</time>
      </trkpt>
      <trkpt lat="44.86742" lon="5.90863">
        <ele>1212.6</ele>
        <time>2024-08-27T10:14:23Z</time>
      </trkpt>
      <trkpt lat="44.86746" lon="5.90865">
        <ele>1212.6</ele>
        <time>2024-08-27T10:14:24Z</time>
      </trkpt>
      <trkpt lat="44.8675" lon="5.90866">
        <ele>1212.7</ele>
        <time>2024-08-27T10:14:25Z</time>
      </trkpt>
      <trkpt lat="44.86754" lon="5.90867">
        <ele>1212.7</ele>
        <time>2024-08-27T10:14:26Z</time>
      </trkpt>
      <trkpt lat="44.86759" lon="5.90867">
        <ele>1212.7</ele>
        <time>2024-08-27T10:14:27Z</time>
      </trkpt>
      <trkpt lat="44.86764" lon="5.90866">
        <ele>1212.8</ele>
        <time>2024-08-27T10:14:28Z</time>
      </trkpt>
      <trkpt lat="44.86769" lon="5.90863">
        <ele>1212.8</ele>
        <time>2024-08-27T10:14:29Z</time>
      </trkpt>
      <trkpt lat="44.86773" lon="5.9086">
        <ele>1212.9</ele>
        <time>2024-08-27T10:14:30Z</time>
      </trkpt>
      <trkpt lat="44.86778" lon="5.90856">
        <ele>1213</ele>
        <time>2024-08-27T10:14:31Z</time>
      </trkpt>
      <trkpt lat="44.86782" lon="5.90852">
        <ele>1213.1</ele>
        <time>2024-08-27T10:14:32Z</time>
      </trkpt>
      <trkpt lat="44.86787" lon="5.90848">
        <ele>1213.2</ele>
        <time>2024-08-27T10:14:33Z</time>
      </trkpt>
      <trkpt lat="44.86791" lon="5.90845">
        <ele>1213.3</ele>
        <time>2024-08-27T10:14:34Z</time>
      </trkpt>
      <trkpt lat="44.86794" lon="5.90842">
        <ele>1213.4</ele>
        <time>2024-08-27T10:14:35Z</time>
      </trkpt>
      <trkpt lat="44.86797" lon="5.90839">
        <ele>1213.5</ele>
        <time>2024-08-27T10:14:36Z</time>
      </trkpt>
      <trkpt lat="44.86801" lon="5.90836">
        <ele>1213.7</ele>
        <time>2024-08-27T10:14:37Z</time>
      </trkpt>
      <trkpt lat="44.86804" lon="5.90834">
        <ele>1213.8</ele>
        <time>2024-08-27T10:14:38Z</time>
      </trkpt>
      <trkpt lat="44.86805" lon="5.9083">
        <ele>1213.9</ele>
        <time>2024-08-27T10:14:39Z</time>
      </trkpt>
      <trkpt lat="44.86807" lon="5.90826">
        <ele>1213.9</ele>
        <time>2024-08-27T10:14:40Z</time>
      </trkpt>
      <trkpt lat="44.86809" lon="5.90823">
        <ele>1214</ele>
        <time>2024-08-27T10:14:41Z</time>
      </trkpt>
      <trkpt lat="44.86811" lon="5.90819">
        <ele>1214</ele>
        <time>2024-08-27T10:14:42Z</time>
      </trkpt>
      <trkpt lat="44.86814" lon="5.90815">
        <ele>1214.1</ele>
        <time>2024-08-27T10:14:43Z</time>
      </trkpt>
      <trkpt lat="44.86816" lon="5.9081">
        <ele>1214.1</ele>
        <time>2024-08-27T10:14:44Z</time>
      </trkpt>
      <trkpt lat="44.86818" lon="5.90804">
        <ele>1214.1</ele>
        <time>2024-08-27T10:14:45Z</time>
      </trkpt>
      <trkpt lat="44.8682" lon="5.90799">
        <ele>1214.1</ele>
        <time>2024-08-27T10:14:46Z</time>
      </trkpt>
      <trkpt lat="44.86822" lon="5.90794">
        <ele>1214.1</ele>
        <time>2024-08-27T10:14:47Z</time>
      </trkpt>
      <trkpt lat="44.86825" lon="5.90787">
        <ele>1214</ele>
        <time>2024-08-27T10:14:48Z</time>
      </trkpt>
      <trkpt lat="44.86828" lon="5.90781">
        <ele>1213.9</ele>
        <time>2024-08-27T10:14:49Z</time>
      </trkpt>
      <trkpt lat="44.86831" lon="5.90774">
        <ele>1213.8</ele>
        <time>2024-08-27T10:14:50Z</time>
      </trkpt>
      <trkpt lat="44.86834" lon="5.90766">
        <ele>1213.6</ele>
        <time>2024-08-27T10:14:51Z</time>
      </trkpt>
      <trkpt lat="44.86838" lon="5.90759">
        <ele>1213.5</ele>
        <time>2024-08-27T10:14:52Z</time>
      </trkpt>
      <trkpt lat="44.86841" lon="5.90752">
        <ele>1213.3</ele>
        <time>2024-08-27T10:14:53Z</time>
      </trkpt>
      <trkpt lat="44.86844" lon="5.90744">
        <ele>1213</ele>
        <time>2024-08-27T10:14:54Z</time>
      </trkpt>
      <trkpt lat="44.86847" lon="5.90736">
        <ele>1212.7</ele>
        <time>2024-08-27T10:14:55Z</time>
      </trkpt>
      <trkpt lat="44.86851" lon="5.90728">
        <ele>1212.4</ele>
        <time>2024-08-27T10:14:56Z</time>
      </trkpt>
      <trkpt lat="44.86854" lon="5.90719">
        <ele>1212.1</ele>
        <time>2024-08-27T10:14:57Z</time>
      </trkpt>
      <trkpt lat="44.86858" lon="5.9071">
        <ele>1211.6</ele>
        <time>2024-08-27T10:14:58Z</time>
      </trkpt>
      <trkpt lat="44.86861" lon="5.90701">
        <ele>1211.2</ele>
        <time>2024-08-27T10:14:59Z</time>
      </trkpt>
      <trkpt lat="44.86865" lon="5.90691">
        <ele>1210.6</ele>
        <time>2024-08-27T10:15:00Z</time>
      </trkpt>
      <trkpt lat="44.8687" lon="5.90682">
        <ele>1210</ele>
        <time>2024-08-27T10:15:01Z</time>
      </trkpt>
      <trkpt lat="44.86875" lon="5.90673">
        <ele>1209.4</ele>
        <time>2024-08-27T10:15:02Z</time>
      </trkpt>
      <trkpt lat="44.8688" lon="5.90664">
        <ele>1208.8</ele>
        <time>2024-08-27T10:15:03Z</time>
      </trkpt>
      <trkpt lat="44.86885" lon="5.90655">
        <ele>1208.1</ele>
        <time>2024-08-27T10:15:04Z</time>
      </trkpt>
      <trkpt lat="44.86891" lon="5.90646">
        <ele>1207.5</ele>
        <time>2024-08-27T10:15:05Z</time>
      </trkpt>
      <trkpt lat="44.86897" lon="5.90638">
        <ele>1206.8</ele>
        <time>2024-08-27T10:15:06Z</time>
      </trkpt>
      <trkpt lat="44.86904" lon="5.90628">
        <ele>1206.2</ele>
        <time>2024-08-27T10:15:07Z</time>
      </trkpt>
      <trkpt lat="44.8691" lon="5.90619">
        <ele>1205.7</ele>
        <time>2024-08-27T10:15:08Z</time>
      </trkpt>
      <trkpt lat="44.86916" lon="5.9061">
        <ele>1205.1</ele>
        <time>2024-08-27T10:15:09Z</time>
      </trkpt>
      <trkpt lat="44.86922" lon="5.906">
        <ele>1204.6</ele>
        <time>2024-08-27T10:15:10Z</time>
      </trkpt>
      <trkpt lat="44.86929" lon="5.90591">
        <ele>1204</ele>
        <time>2024-08-27T10:15:11Z</time>
      </trkpt>
      <trkpt lat="44.86936" lon="5.90583">
        <ele>1203.3</ele>
        <time>2024-08-27T10:15:12Z</time>
      </trkpt>
      <trkpt lat="44.86945" lon="5.90577">
        <ele>1202.6</ele>
        <time>2024-08-27T10:15:13Z</time>
      </trkpt>
      <trkpt lat="44.86953" lon="5.90571">
        <ele>1201.8</ele>
        <time>2024-08-27T10:15:14Z</time>
      </trkpt>
      <trkpt lat="44.86962" lon="5.90566">
        <ele>1201.1</ele>
        <time>2024-08-27T10:15:15Z</time>
      </trkpt>
      <trkpt lat="44.86972" lon="5.90562">
        <ele>1200.3</ele>
        <time>2024-08-27T10:15:16Z</time>
      </trkpt>
      <trkpt lat="44.86982" lon="5.90559">
        <ele>1199.8</ele>
        <time>2024-08-27T10:15:17Z</time>
      </trkpt>
      <trkpt lat="44.86991" lon="5.9056">
        <ele>1199.3</ele>
        <time>2024-08-27T10:15:18Z</time>
      </trkpt>
      <trkpt lat="44.87001" lon="5.90562">
        <ele>1198.8</ele>
        <time>2024-08-27T10:15:19Z</time>
      </trkpt>
      <trkpt lat="44.87011" lon="5.90565">
        <ele>1198.3</ele>
        <time>2024-08-27T10:15:20Z</time>
      </trkpt>
      <trkpt lat="44.87021" lon="5.90566">
        <ele>1197.9</ele>
        <time>2024-08-27T10:15:21Z</time>
      </trkpt>
      <trkpt lat="44.87031" lon="5.90563">
        <ele>1197.7</ele>
        <time>2024-08-27T10:15:22Z</time>
      </trkpt>
      <trkpt lat="44.8704" lon="5.90556">
        <ele>1197.5</ele>
        <time>2024-08-27T10:15:23Z</time>
      </trkpt>
      <trkpt lat="44.87047" lon="5.90547">
        <ele>1197.3</ele>
        <time>2024-08-27T10:15:24Z</time>
      </trkpt>
      <trkpt lat="44.87053" lon="5.90536">
        <ele>1197.3</ele>
        <time>2024-08-27T10:15:25Z</time>
      </trkpt>
      <trkpt lat="44.87055" lon="5.90523">
        <ele>1197.2</ele>
        <time>2024-08-27T10:15:26Z</time>
      </trkpt>
      <trkpt lat="44.87054" lon="5.9051">
        <ele>1197.1</ele>
        <time>2024-08-27T10:15:27Z</time>
      </trkpt>
      <trkpt lat="44.87051" lon="5.90499">
        <ele>1197.1</ele>
        <time>2024-08-27T10:15:28Z</time>
      </trkpt>
      <trkpt lat="44.87047" lon="5.90489">
        <ele>1197</ele>
        <time>2024-08-27T10:15:29Z</time>
      </trkpt>
      <trkpt lat="44.87043" lon="5.90479">
        <ele>1196.9</ele>
        <time>2024-08-27T10:15:30Z</time>
      </trkpt>
      <trkpt lat="44.87038" lon="5.90469">
        <ele>1196.9</ele>
        <time>2024-08-27T10:15:31Z</time>
      </trkpt>
      <trkpt lat="44.87034" lon="5.9046">
        <ele>1196.9</ele>
        <time>2024-08-27T10:15:32Z</time>
      </trkpt>
      <trkpt lat="44.87029" lon="5.90451">
        <ele>1197.1</ele>
        <time>2024-08-27T10:15:33Z</time>
      </trkpt>
      <trkpt lat="44.87025" lon="5.90443">
        <ele>1197.2</ele>
        <time>2024-08-27T10:15:34Z</time>
      </trkpt>
      <trkpt lat="44.8702" lon="5.90435">
        <ele>1197.3</ele>
        <time>2024-08-27T10:15:35Z</time>
      </trkpt>
      <trkpt lat="44.87016" lon="5.90427">
        <ele>1197.4</ele>
        <time>2024-08-27T10:15:36Z</time>
      </trkpt>
      <trkpt lat="44.87012" lon="5.90419">
        <ele>1197.5</ele>
        <time>2024-08-27T10:15:37Z</time>
      </trkpt>
      <trkpt lat="44.87009" lon="5.9041">
        <ele>1197.6</ele>
        <time>2024-08-27T10:15:38Z</time>
      </trkpt>
      <trkpt lat="44.87006" lon="5.90402">
        <ele>1197.7</ele>
        <time>2024-08-27T10:15:39Z</time>
      </trkpt>
      <trkpt lat="44.87003" lon="5.90394">
        <ele>1197.7</ele>
        <time>2024-08-27T10:15:40Z</time>
      </trkpt>
      <trkpt lat="44.87001" lon="5.90385">
        <ele>1197.7</ele>
        <time>2024-08-27T10:15:41Z</time>
      </trkpt>
      <trkpt lat="44.86999" lon="5.90377">
        <ele>1197.8</ele>
        <time>2024-08-27T10:15:42Z</time>
      </trkpt>
      <trkpt lat="44.86996" lon="5.90369">
        <ele>1197.8</ele>
        <time>2024-08-27T10:15:43Z</time>
      </trkpt>
      <trkpt lat="44.86995" lon="5.9036">
        <ele>1197.9</ele>
        <time>2024-08-27T10:15:44Z</time>
      </trkpt>
      <trkpt lat="44.86992" lon="5.90352">
        <ele>1198</ele>
        <time>2024-08-27T10:15:45Z</time>
      </trkpt>
      <trkpt lat="44.86991" lon="5.90344">
        <ele>1198</ele>
        <time>2024-08-27T10:15:46Z</time>
      </trkpt>
      <trkpt lat="44.86989" lon="5.90335">
        <ele>1198.1</ele>
        <time>2024-08-27T10:15:47Z</time>
      </trkpt>
      <trkpt lat="44.86988" lon="5.90327">
        <ele>1198.3</ele>
        <time>2024-08-27T10:15:48Z</time>
      </trkpt>
      <trkpt lat="44.86986" lon="5.90319">
        <ele>1198.4</ele>
        <time>2024-08-27T10:15:49Z</time>
      </trkpt>
      <trkpt lat="44.86985" lon="5.90311">
        <ele>1198.6</ele>
        <time>2024-08-27T10:15:50Z</time>
      </trkpt>
      <trkpt lat="44.86983" lon="5.90303">
        <ele>1198.7</ele>
        <time>2024-08-27T10:15:51Z</time>
      </trkpt>
      <trkpt lat="44.86981" lon="5.90296">
        <ele>1198.8</ele>
        <time>2024-08-27T10:15:52Z</time>
      </trkpt>
      <trkpt lat="44.8698" lon="5.90289">
        <ele>1198.9</ele>
        <time>2024-08-27T10:15:53Z</time>
      </trkpt>
      <trkpt lat="44.86978" lon="5.90282">
        <ele>1199</ele>
        <time>2024-08-27T10:15:54Z</time>
      </trkpt>
      <trkpt lat="44.86977" lon="5.90274">
        <ele>1199.1</ele>
        <time>2024-08-27T10:15:55Z</time>
      </trkpt>
      <trkpt lat="44.86976" lon="5.90266">
        <ele>1199.2</ele>
        <time>2024-08-27T10:15:56Z</time>
      </trkpt>
      <trkpt lat="44.86975" lon="5.90258">
        <ele>1199.3</ele>
        <time>2024-08-27T10:15:57Z</time>
      </trkpt>
      <trkpt lat="44.86973" lon="5.9025">
        <ele>1199.4</ele>
        <time>2024-08-27T10:15:58Z</time>
      </trkpt>
      <trkpt lat="44.86971" lon="5.90242">
        <ele>1199.4</ele>
        <time>2024-08-27T10:15:59Z</time>
      </trkpt>
      <trkpt lat="44.86969" lon="5.90234">
        <ele>1199.5</ele>
        <time>2024-08-27T10:16:00Z</time>
      </trkpt>
      <trkpt lat="44.86967" lon="5.90227">
        <ele>1199.5</ele>
        <time>2024-08-27T10:16:01Z</time>
      </trkpt>
      <trkpt lat="44.86964" lon="5.9022">
        <ele>1199.6</ele>
        <time>2024-08-27T10:16:02Z</time>
      </trkpt>
      <trkpt lat="44.8696" lon="5.90214">
        <ele>1199.7</ele>
        <time>2024-08-27T10:16:03Z</time>
      </trkpt>
      <trkpt lat="44.86956" lon="5.90208">
        <ele>1199.9</ele>
        <time>2024-08-27T10:16:04Z</time>
      </trkpt>
      <trkpt lat="44.86953" lon="5.90203">
        <ele>1200</ele>
        <time>2024-08-27T10:16:05Z</time>
      </trkpt>
      <trkpt lat="44.86949" lon="5.90198">
        <ele>1200.1</ele>
        <time>2024-08-27T10:16:06Z</time>
      </trkpt>
      <trkpt lat="44.86945" lon="5.90194">
        <ele>1200.2</ele>
        <time>2024-08-27T10:16:07Z</time>
      </trkpt>
      <trkpt lat="44.86941" lon="5.90189">
        <ele>1200.3</ele>
        <time>2024-08-27T10:16:08Z</time>
      </trkpt>
      <trkpt lat="44.86938" lon="5.90184">
        <ele>1200.4</ele>
        <time>2024-08-27T10:16:09Z</time>
      </trkpt>
      <trkpt lat="44.86934" lon="5.90179">
        <ele>1200.4</ele>
        <time>2024-08-27T10:16:10Z</time>
      </trkpt>
      <trkpt lat="44.8693" lon="5.90175">
        <ele>1200.5</ele>
        <time>2024-08-27T10:16:11Z</time>
      </trkpt>
      <trkpt lat="44.86927" lon="5.9017">
        <ele>1200.6</ele>
        <time>2024-08-27T10:16:12Z</time>
      </trkpt>
      <trkpt lat="44.86924" lon="5.90165">
        <ele>1200.7</ele>
        <time>2024-08-27T10:16:13Z</time>
      </trkpt>
      <trkpt lat="44.8692" lon="5.9016">
        <ele>1200.8</ele>
        <time>2024-08-27T10:16:14Z</time>
      </trkpt>
      <trkpt lat="44.86917" lon="5.90155">
        <ele>1200.8</ele>
        <time>2024-08-27T10:16:15Z</time>
      </trkpt>
      <trkpt lat="44.86914" lon="5.9015">
        <ele>1200.9</ele>
        <time>2024-08-27T10:16:16Z</time>
      </trkpt>
      <trkpt lat="44.86911" lon="5.90145">
        <ele>1201</ele>
        <time>2024-08-27T10:16:17Z</time>
      </trkpt>
      <trkpt lat="44.86908" lon="5.9014">
        <ele>1201.1</ele>
        <time>2024-08-27T10:16:18Z</time>
      </trkpt>
      <trkpt lat="44.86905" lon="5.90136">
        <ele>1201.1</ele>
        <time>2024-08-27T10:16:19Z</time>
      </trkpt>
      <trkpt lat="44.86902" lon="5.90132">
        <ele>1201.2</ele>
        <time>2024-08-27T10:16:20Z</time>
      </trkpt>
      <trkpt lat="44.86899" lon="5.90127">
        <ele>1201.2</ele>
        <time>2024-08-27T10:16:21Z</time>
      </trkpt>
      <trkpt lat="44.86897" lon="5.90123">
        <ele>1201.3</ele>
        <time>2024-08-27T10:16:22Z</time>
      </trkpt>
      <trkpt lat="44.86894" lon="5.90119">
        <ele>1201.3</ele>
        <time>2024-08-27T10:16:23Z</time>
      </trkpt>
      <trkpt lat="44.86892" lon="5.90114">
        <ele>1201.3</ele>
        <time>2024-08-27T10:16:24Z</time>
      </trkpt>
      <trkpt lat="44.8689" lon="5.90109">
        <ele>1201.3</ele>
        <time>2024-08-27T10:16:25Z</time>
      </trkpt>
      <trkpt lat="44.86887" lon="5.90105">
        <ele>1201.3</ele>
        <time>2024-08-27T10:16:26Z</time>
      </trkpt>
      <trkpt lat="44.86884" lon="5.901">
        <ele>1201.3</ele>
        <time>2024-08-27T10:16:27Z</time>
      </trkpt>
      <trkpt lat="44.86881" lon="5.90094">
        <ele>1201.2</ele>
        <time>2024-08-27T10:16:28Z</time>
      </trkpt>
      <trkpt lat="44.86877" lon="5.90089">
        <ele>1201.2</ele>
        <time>2024-08-27T10:16:29Z</time>
      </trkpt>
      <trkpt lat="44.86874" lon="5.90083">
        <ele>1201.1</ele>
        <time>2024-08-27T10:16:30Z</time>
      </trkpt>
      <trkpt lat="44.86871" lon="5.90077">
        <ele>1201.1</ele>
        <time>2024-08-27T10:16:31Z</time>
      </trkpt>
      <trkpt lat="44.86868" lon="5.90071">
        <ele>1201</ele>
        <time>2024-08-27T10:16:32Z</time>
      </trkpt>
      <trkpt lat="44.86864" lon="5.90065">
        <ele>1200.9</ele>
        <time>2024-08-27T10:16:33Z</time>
      </trkpt>
      <trkpt lat="44.86861" lon="5.90058">
        <ele>1200.9</ele>
        <time>2024-08-27T10:16:34Z</time>
      </trkpt>
      <trkpt lat="44.86858" lon="5.90052">
        <ele>1200.8</ele>
        <time>2024-08-27T10:16:35Z</time>
      </trkpt>
      <trkpt lat="44.86856" lon="5.90045">
        <ele>1200.7</ele>
        <time>2024-08-27T10:16:36Z</time>
      </trkpt>
      <trkpt lat="44.86853" lon="5.90038">
        <ele>1200.6</ele>
        <time>2024-08-27T10:16:37Z</time>
      </trkpt>
      <trkpt lat="44.8685" lon="5.90031">
        <ele>1200.5</ele>
        <time>2024-08-27T10:16:38Z</time>
      </trkpt>
      <trkpt lat="44.86847" lon="5.90024">
        <ele>1200.5</ele>
        <time>2024-08-27T10:16:39Z</time>
      </trkpt>
      <trkpt lat="44.86845" lon="5.90017">
        <ele>1200.3</ele>
        <time>2024-08-27T10:16:40Z</time>
      </trkpt>
      <trkpt lat="44.86841" lon="5.9001">
        <ele>1200.2</ele>
        <time>2024-08-27T10:16:41Z</time>
      </trkpt>
      <trkpt lat="44.86838" lon="5.90003">
        <ele>1200</ele>
        <time>2024-08-27T10:16:42Z</time>
      </trkpt>
      <trkpt lat="44.86834" lon="5.89995">
        <ele>1199.7</ele>
        <time>2024-08-27T10:16:43Z</time>
      </trkpt>
      <trkpt lat="44.86831" lon="5.89988">
        <ele>1199.4</ele>
        <time>2024-08-27T10:16:44Z</time>
      </trkpt>
      <trkpt lat="44.86827" lon="5.89981">
        <ele>1199.1</ele>
        <time>2024-08-27T10:16:45Z</time>
      </trkpt>
      <trkpt lat="44.86822" lon="5.89974">
        <ele>1198.8</ele>
        <time>2024-08-27T10:16:46Z</time>
      </trkpt>
      <trkpt lat="44.86817" lon="5.89968">
        <ele>1198.5</ele>
        <time>2024-08-27T10:16:47Z</time>
      </trkpt>
      <trkpt lat="44.86814" lon="5.89959">
        <ele>1198.1</ele>
        <time>2024-08-27T10:16:48Z</time>
      </trkpt>
      <trkpt lat="44.86814" lon="5.8995">
        <ele>1197.7</ele>
        <time>2024-08-27T10:16:49Z</time>
      </trkpt>
      <trkpt lat="44.86815" lon="5.89939">
        <ele>1197.2</ele>
        <time>2024-08-27T10:16:50Z</time>
      </trkpt>
      <trkpt lat="44.86816" lon="5.89929">
        <ele>1196.7</ele>
        <time>2024-08-27T10:16:51Z</time>
      </trkpt>
      <trkpt lat="44.86816" lon="5.8992">
        <ele>1196.2</ele>
        <time>2024-08-27T10:16:52Z</time>
      </trkpt>
      <trkpt lat="44.86813" lon="5.8991">
        <ele>1195.7</ele>
        <time>2024-08-27T10:16:53Z</time>
      </trkpt>
      <trkpt lat="44.86809" lon="5.89901">
        <ele>1195.2</ele>
        <time>2024-08-27T10:16:54Z</time>
      </trkpt>
      <trkpt lat="44.86808" lon="5.89892">
        <ele>1194.6</ele>
        <time>2024-08-27T10:16:55Z</time>
      </trkpt>
      <trkpt lat="44.86809" lon="5.8988">
        <ele>1194</ele>
        <time>2024-08-27T10:16:56Z</time>
      </trkpt>
      <trkpt lat="44.8681" lon="5.8987">
        <ele>1193.3</ele>
        <time>2024-08-27T10:16:57Z</time>
      </trkpt>
      <trkpt lat="44.86812" lon="5.89859">
        <ele>1192.7</ele>
        <time>2024-08-27T10:16:58Z</time>
      </trkpt>
      <trkpt lat="44.86814" lon="5.89848">
        <ele>1192.1</ele>
        <time>2024-08-27T10:16:59Z</time>
      </trkpt>
      <trkpt lat="44.86815" lon="5.89837">
        <ele>1191.4</ele>
        <time>2024-08-27T10:17:00Z</time>
      </trkpt>
      <trkpt lat="44.86817" lon="5.89825">
        <ele>1190.8</ele>
        <time>2024-08-27T10:17:01Z</time>
      </trkpt>
      <trkpt lat="44.86817" lon="5.89813">
        <ele>1190.1</ele>
        <time>2024-08-27T10:17:02Z</time>
      </trkpt>
      <trkpt lat="44.86817" lon="5.89802">
        <ele>1189.5</ele>
        <time>2024-08-27T10:17:03Z</time>
      </trkpt>
      <trkpt lat="44.86817" lon="5.89789">
        <ele>1188.8</ele>
        <time>2024-08-27T10:17:04Z</time>
      </trkpt>
      <trkpt lat="44.86815" lon="5.89777">
        <ele>1188.1</ele>
        <time>2024-08-27T10:17:05Z</time>
      </trkpt>
      <trkpt lat="44.86813" lon="5.89765">
        <ele>1187.3</ele>
        <time>2024-08-27T10:17:06Z</time>
      </trkpt>
      <trkpt lat="44.86811" lon="5.89752">
        <ele>1186.6</ele>
        <time>2024-08-27T10:17:07Z</time>
      </trkpt>
      <trkpt lat="44.8681" lon="5.89739">
        <ele>1185.8</ele>
        <time>2024-08-27T10:17:08Z</time>
      </trkpt>
      <trkpt lat="44.86808" lon="5.89725">
        <ele>1185</ele>
        <time>2024-08-27T10:17:09Z</time>
      </trkpt>
      <trkpt lat="44.86807" lon="5.89712">
        <ele>1184.2</ele>
        <time>2024-08-27T10:17:10Z</time>
      </trkpt>
      <trkpt lat="44.86806" lon="5.89698">
        <ele>1183.4</ele>
        <time>2024-08-27T10:17:11Z</time>
      </trkpt>
      <trkpt lat="44.86805" lon="5.89685">
        <ele>1182.6</ele>
        <time>2024-08-27T10:17:12Z</time>
      </trkpt>
      <trkpt lat="44.86805" lon="5.89671">
        <ele>1181.8</ele>
        <time>2024-08-27T10:17:13Z</time>
      </trkpt>
      <trkpt lat="44.86804" lon="5.89657">
        <ele>1181</ele>
        <time>2024-08-27T10:17:14Z</time>
      </trkpt>
      <trkpt lat="44.86804" lon="5.89642">
        <ele>1180.2</ele>
        <time>2024-08-27T10:17:15Z</time>
      </trkpt>
      <trkpt lat="44.86804" lon="5.89628">
        <ele>1179.3</ele>
        <time>2024-08-27T10:17:16Z</time>
      </trkpt>
      <trkpt lat="44.86804" lon="5.89613">
        <ele>1178.6</ele>
        <time>2024-08-27T10:17:17Z</time>
      </trkpt>
      <trkpt lat="44.86804" lon="5.89598">
        <ele>1177.8</ele>
        <time>2024-08-27T10:17:18Z</time>
      </trkpt>
      <trkpt lat="44.86805" lon="5.89584">
        <ele>1177</ele>
        <time>2024-08-27T10:17:19Z</time>
      </trkpt>
      <trkpt lat="44.86808" lon="5.89569">
        <ele>1176.2</ele>
        <time>2024-08-27T10:17:20Z</time>
      </trkpt>
      <trkpt lat="44.86811" lon="5.89555">
        <ele>1175.3</ele>
        <time>2024-08-27T10:17:21Z</time>
      </trkpt>
      <trkpt lat="44.86815" lon="5.89541">
        <ele>1174.4</ele>
        <time>2024-08-27T10:17:22Z</time>
      </trkpt>
      <trkpt lat="44.8682" lon="5.89527">
        <ele>1173.4</ele>
        <time>2024-08-27T10:17:23Z</time>
      </trkpt>
      <trkpt lat="44.86825" lon="5.89513">
        <ele>1172.5</ele>
        <time>2024-08-27T10:17:24Z</time>
      </trkpt>
      <trkpt lat="44.8683" lon="5.895">
        <ele>1171.6</ele>
        <time>2024-08-27T10:17:25Z</time>
      </trkpt>
      <trkpt lat="44.86837" lon="5.89487">
        <ele>1170.6</ele>
        <time>2024-08-27T10:17:26Z</time>
      </trkpt>
      <trkpt lat="44.86845" lon="5.89475">
        <ele>1169.6</ele>
        <time>2024-08-27T10:17:27Z</time>
      </trkpt>
      <trkpt lat="44.86853" lon="5.89465">
        <ele>1168.7</ele>
        <time>2024-08-27T10:17:28Z</time>
      </trkpt>
      <trkpt lat="44.86862" lon="5.89455">
        <ele>1168</ele>
        <time>2024-08-27T10:17:29Z</time>
      </trkpt>
      <trkpt lat="44.86871" lon="5.89445">
        <ele>1167.2</ele>
        <time>2024-08-27T10:17:30Z</time>
      </trkpt>
      <trkpt lat="44.86881" lon="5.89436">
        <ele>1166.5</ele>
        <time>2024-08-27T10:17:31Z</time>
      </trkpt>
      <trkpt lat="44.86892" lon="5.89429">
        <ele>1165.9</ele>
        <time>2024-08-27T10:17:32Z</time>
      </trkpt>
      <trkpt lat="44.86902" lon="5.89421">
        <ele>1165.3</ele>
        <time>2024-08-27T10:17:33Z</time>
      </trkpt>
      <trkpt lat="44.8691" lon="5.89412">
        <ele>1164.7</ele>
        <time>2024-08-27T10:17:34Z</time>
      </trkpt>
      <trkpt lat="44.86916" lon="5.89402">
        <ele>1164.2</ele>
        <time>2024-08-27T10:17:35Z</time>
      </trkpt>
      <trkpt lat="44.86918" lon="5.89391">
        <ele>1163.7</ele>
        <time>2024-08-27T10:17:36Z</time>
      </trkpt>
      <trkpt lat="44.8692" lon="5.89379">
        <ele>1163.3</ele>
        <time>2024-08-27T10:17:37Z</time>
      </trkpt>
      <trkpt lat="44.86913" lon="5.8937">
        <ele>1162.8</ele>
        <time>2024-08-27T10:17:38Z</time>
      </trkpt>
      <trkpt lat="44.86905" lon="5.89363">
        <ele>1162.3</ele>
        <time>2024-08-27T10:17:39Z</time>
      </trkpt>
      <trkpt lat="44.86898" lon="5.89358">
        <ele>1161.8</ele>
        <time>2024-08-27T10:17:40Z</time>
      </trkpt>
      <trkpt lat="44.8689" lon="5.89355">
        <ele>1161.2</ele>
        <time>2024-08-27T10:17:41Z</time>
      </trkpt>
      <trkpt lat="44.86881" lon="5.89352">
        <ele>1160.7</ele>
        <time>2024-08-27T10:17:42Z</time>
      </trkpt>
      <trkpt lat="44.86872" lon="5.8935">
        <ele>1160.1</ele>
        <time>2024-08-27T10:17:43Z</time>
      </trkpt>
      <trkpt lat="44.86862" lon="5.89347">
        <ele>1159.5</ele>
        <time>2024-08-27T10:17:44Z</time>
      </trkpt>
      <trkpt lat="44.86853" lon="5.89345">
        <ele>1158.8</ele>
        <time>2024-08-27T10:17:45Z</time>
      </trkpt>
      <trkpt lat="44.86843" lon="5.89342">
        <ele>1158.2</ele>
        <time>2024-08-27T10:17:46Z</time>
      </trkpt>
      <trkpt lat="44.86834" lon="5.89339">
        <ele>1157.5</ele>
        <time>2024-08-27T10:17:47Z</time>
      </trkpt>
      <trkpt lat="44.86824" lon="5.89335">
        <ele>1156.9</ele>
        <time>2024-08-27T10:17:48Z</time>
      </trkpt>
      <trkpt lat="44.86814" lon="5.89331">
        <ele>1156.2</ele>
        <time>2024-08-27T10:17:49Z</time>
      </trkpt>
      <trkpt lat="44.86803" lon="5.89327">
        <ele>1155.6</ele>
        <time>2024-08-27T10:17:50Z</time>
      </trkpt>
      <trkpt lat="44.86793" lon="5.89323">
        <ele>1155</ele>
        <time>2024-08-27T10:17:51Z</time>
      </trkpt>
      <trkpt lat="44.86784" lon="5.89317">
        <ele>1154.3</ele>
        <time>2024-08-27T10:17:52Z</time>
      </trkpt>
      <trkpt lat="44.86776" lon="5.89308">
        <ele>1153.6</ele>
        <time>2024-08-27T10:17:53Z</time>
      </trkpt>
      <trkpt lat="44.86769" lon="5.89298">
        <ele>1152.9</ele>
        <time>2024-08-27T10:17:54Z</time>
      </trkpt>
      <trkpt lat="44.86762" lon="5.89287">
        <ele>1152.1</ele>
        <time>2024-08-27T10:17:55Z</time>
      </trkpt>
      <trkpt lat="44.86754" lon="5.89277">
        <ele>1151.3</ele>
        <time>2024-08-27T10:17:56Z</time>
      </trkpt>
      <trkpt lat="44.86746" lon="5.89267">
        <ele>1150.6</ele>
        <time>2024-08-27T10:17:57Z</time>
      </trkpt>
      <trkpt lat="44.86738" lon="5.89257">
        <ele>1149.8</ele>
        <time>2024-08-27T10:17:58Z</time>
      </trkpt>
      <trkpt lat="44.8673" lon="5.89247">
        <ele>1149.1</ele>
        <time>2024-08-27T10:17:59Z</time>
      </trkpt>
      <trkpt lat="44.86722" lon="5.89237">
        <ele>1148.3</ele>
        <time>2024-08-27T10:18:00Z</time>
      </trkpt>
      <trkpt lat="44.86714" lon="5.89227">
        <ele>1147.6</ele>
        <time>2024-08-27T10:18:01Z</time>
      </trkpt>
      <trkpt lat="44.86705" lon="5.89219">
        <ele>1146.8</ele>
        <time>2024-08-27T10:18:02Z</time>
      </trkpt>
      <trkpt lat="44.86695" lon="5.89213">
        <ele>1146.1</ele>
        <time>2024-08-27T10:18:03Z</time>
      </trkpt>
      <trkpt lat="44.86685" lon="5.89209">
        <ele>1145.4</ele>
        <time>2024-08-27T10:18:04Z</time>
      </trkpt>
      <trkpt lat="44.86675" lon="5.89202">
        <ele>1144.7</ele>
        <time>2024-08-27T10:18:05Z</time>
      </trkpt>
      <trkpt lat="44.86666" lon="5.89193">
        <ele>1144.1</ele>
        <time>2024-08-27T10:18:06Z</time>
      </trkpt>
      <trkpt lat="44.86659" lon="5.89182">
        <ele>1143.4</ele>
        <time>2024-08-27T10:18:07Z</time>
      </trkpt>
      <trkpt lat="44.86653" lon="5.89169">
        <ele>1142.8</ele>
        <time>2024-08-27T10:18:08Z</time>
      </trkpt>
      <trkpt lat="44.86647" lon="5.89156">
        <ele>1142.2</ele>
        <time>2024-08-27T10:18:09Z</time>
      </trkpt>
      <trkpt lat="44.86643" lon="5.89143">
        <ele>1141.5</ele>
        <time>2024-08-27T10:18:10Z</time>
      </trkpt>
      <trkpt lat="44.86639" lon="5.89129">
        <ele>1140.9</ele>
        <time>2024-08-27T10:18:11Z</time>
      </trkpt>
      <trkpt lat="44.86634" lon="5.89115">
        <ele>1140.2</ele>
        <time>2024-08-27T10:18:12Z</time>
      </trkpt>
      <trkpt lat="44.8663" lon="5.89102">
        <ele>1139.6</ele>
        <time>2024-08-27T10:18:13Z</time>
      </trkpt>
      <trkpt lat="44.86626" lon="5.89089">
        <ele>1139</ele>
        <time>2024-08-27T10:18:14Z</time>
      </trkpt>
      <trkpt lat="44.86622" lon="5.89076">
        <ele>1138.3</ele>
        <time>2024-08-27T10:18:15Z</time>
      </trkpt>
      <trkpt lat="44.86619" lon="5.89062">
        <ele>1137.6</ele>
        <time>2024-08-27T10:18:16Z</time>
      </trkpt>
      <trkpt lat="44.86616" lon="5.89048">
        <ele>1137</ele>
        <time>2024-08-27T10:18:17Z</time>
      </trkpt>
      <trkpt lat="44.86614" lon="5.89033">
        <ele>1136.3</ele>
        <time>2024-08-27T10:18:18Z</time>
      </trkpt>
      <trkpt lat="44.86612" lon="5.89019">
        <ele>1135.6</ele>
        <time>2024-08-27T10:18:19Z</time>
      </trkpt>
      <trkpt lat="44.86612" lon="5.89004">
        <ele>1134.9</ele>
        <time>2024-08-27T10:18:20Z</time>
      </trkpt>
      <trkpt lat="44.86613" lon="5.88989">
        <ele>1134.1</ele>
        <time>2024-08-27T10:18:21Z</time>
      </trkpt>
      <trkpt lat="44.86615" lon="5.88974">
        <ele>1133.2</ele>
        <time>2024-08-27T10:18:22Z</time>
      </trkpt>
      <trkpt lat="44.86618" lon="5.88958">
        <ele>1132.3</ele>
        <time>2024-08-27T10:18:23Z</time>
      </trkpt>
      <trkpt lat="44.86622" lon="5.88944">
        <ele>1131.4</ele>
        <time>2024-08-27T10:18:24Z</time>
      </trkpt>
      <trkpt lat="44.86625" lon="5.8893">
        <ele>1130.5</ele>
        <time>2024-08-27T10:18:25Z</time>
      </trkpt>
      <trkpt lat="44.8663" lon="5.88917">
        <ele>1129.6</ele>
        <time>2024-08-27T10:18:26Z</time>
      </trkpt>
      <trkpt lat="44.86635" lon="5.88903">
        <ele>1128.6</ele>
        <time>2024-08-27T10:18:27Z</time>
      </trkpt>
      <trkpt lat="44.8664" lon="5.88888">
        <ele>1127.7</ele>
        <time>2024-08-27T10:18:28Z</time>
      </trkpt>
      <trkpt lat="44.86645" lon="5.88874">
        <ele>1126.8</ele>
        <time>2024-08-27T10:18:29Z</time>
      </trkpt>
      <trkpt lat="44.8665" lon="5.8886">
        <ele>1125.8</ele>
        <time>2024-08-27T10:18:30Z</time>
      </trkpt>
      <trkpt lat="44.86655" lon="5.88845">
        <ele>1124.8</ele>
        <time>2024-08-27T10:18:31Z</time>
      </trkpt>
      <trkpt lat="44.86659" lon="5.88832">
        <ele>1123.9</ele>
        <time>2024-08-27T10:18:32Z</time>
      </trkpt>
      <trkpt lat="44.86665" lon="5.88818">
        <ele>1123</ele>
        <time>2024-08-27T10:18:33Z</time>
      </trkpt>
      <trkpt lat="44.86671" lon="5.88804">
        <ele>1122.1</ele>
        <time>2024-08-27T10:18:34Z</time>
      </trkpt>
      <trkpt lat="44.86679" lon="5.88791">
        <ele>1121.2</ele>
        <time>2024-08-27T10:18:35Z</time>
      </trkpt>
      <trkpt lat="44.86687" lon="5.8878">
        <ele>1120.2</ele>
        <time>2024-08-27T10:18:36Z</time>
      </trkpt>
      <trkpt lat="44.86696" lon="5.8877">
        <ele>1119.3</ele>
        <time>2024-08-27T10:18:37Z</time>
      </trkpt>
      <trkpt lat="44.86705" lon="5.8876">
        <ele>1118.3</ele>
        <time>2024-08-27T10:18:38Z</time>
      </trkpt>
      <trkpt lat="44.86713" lon="5.88748">
        <ele>1117.4</ele>
        <time>2024-08-27T10:18:39Z</time>
      </trkpt>
      <trkpt lat="44.86719" lon="5.88733">
        <ele>1116.4</ele>
        <time>2024-08-27T10:18:40Z</time>
      </trkpt>
      <trkpt lat="44.86723" lon="5.88717">
        <ele>1115.4</ele>
        <time>2024-08-27T10:18:41Z</time>
      </trkpt>
      <trkpt lat="44.86726" lon="5.88701">
        <ele>1114.4</ele>
        <time>2024-08-27T10:18:42Z</time>
      </trkpt>
      <trkpt lat="44.8673" lon="5.88686">
        <ele>1113.5</ele>
        <time>2024-08-27T10:18:43Z</time>
      </trkpt>
      <trkpt lat="44.86735" lon="5.8867">
        <ele>1112.5</ele>
        <time>2024-08-27T10:18:44Z</time>
      </trkpt>
      <trkpt lat="44.86741" lon="5.88655">
        <ele>1111.5</ele>
        <time>2024-08-27T10:18:45Z</time>
      </trkpt>
      <trkpt lat="44.86746" lon="5.8864">
        <ele>1110.6</ele>
        <time>2024-08-27T10:18:46Z</time>
      </trkpt>
      <trkpt lat="44.86753" lon="5.88625">
        <ele>1109.6</ele>
        <time>2024-08-27T10:18:47Z</time>
      </trkpt>
      <trkpt lat="44.86759" lon="5.88611">
        <ele>1108.7</ele>
        <time>2024-08-27T10:18:48Z</time>
      </trkpt>
      <trkpt lat="44.86765" lon="5.88596">
        <ele>1107.8</ele>
        <time>2024-08-27T10:18:49Z</time>
      </trkpt>
      <trkpt lat="44.86771" lon="5.88582">
        <ele>1106.9</ele>
        <time>2024-08-27T10:18:50Z</time>
      </trkpt>
      <trkpt lat="44.86777" lon="5.88567">
        <ele>1106.1</ele>
        <time>2024-08-27T10:18:51Z</time>
      </trkpt>
      <trkpt lat="44.86782" lon="5.88553">
        <ele>1105.2</ele>
        <time>2024-08-27T10:18:52Z</time>
      </trkpt>
      <trkpt lat="44.86788" lon="5.8854">
        <ele>1104.5</ele>
        <time>2024-08-27T10:18:53Z</time>
      </trkpt>
      <trkpt lat="44.86791" lon="5.88527">
        <ele>1103.9</ele>
        <time>2024-08-27T10:18:54Z</time>
      </trkpt>
      <trkpt lat="44.8679" lon="5.88515">
        <ele>1103.2</ele>
        <time>2024-08-27T10:18:55Z</time>
      </trkpt>
      <trkpt lat="44.86787" lon="5.88503">
        <ele>1102.5</ele>
        <time>2024-08-27T10:18:56Z</time>
      </trkpt>
      <trkpt lat="44.86781" lon="5.88493">
        <ele>1101.8</ele>
        <time>2024-08-27T10:18:57Z</time>
      </trkpt>
      <trkpt lat="44.86773" lon="5.88485">
        <ele>1101</ele>
        <time>2024-08-27T10:18:58Z</time>
      </trkpt>
      <trkpt lat="44.86766" lon="5.88477">
        <ele>1100.2</ele>
        <time>2024-08-27T10:18:59Z</time>
      </trkpt>
      <trkpt lat="44.86759" lon="5.88466">
        <ele>1099.4</ele>
        <time>2024-08-27T10:19:00Z</time>
      </trkpt>
      <trkpt lat="44.86754" lon="5.88454">
        <ele>1098.5</ele>
        <time>2024-08-27T10:19:01Z</time>
      </trkpt>
      <trkpt lat="44.86751" lon="5.88439">
        <ele>1097.6</ele>
        <time>2024-08-27T10:19:02Z</time>
      </trkpt>
      <trkpt lat="44.8675" lon="5.88424">
        <ele>1096.7</ele>
        <time>2024-08-27T10:19:03Z</time>
      </trkpt>
      <trkpt lat="44.8675" lon="5.88409">
        <ele>1095.8</ele>
        <time>2024-08-27T10:19:04Z</time>
      </trkpt>
      <trkpt lat="44.86751" lon="5.88393">
        <ele>1095</ele>
        <time>2024-08-27T10:19:05Z</time>
      </trkpt>
      <trkpt lat="44.86751" lon="5.88378">
        <ele>1094</ele>
        <time>2024-08-27T10:19:06Z</time>
      </trkpt>
      <trkpt lat="44.86751" lon="5.88363">
        <ele>1093.1</ele>
        <time>2024-08-27T10:19:07Z</time>
      </trkpt>
      <trkpt lat="44.86752" lon="5.88347">
        <ele>1092.1</ele>
        <time>2024-08-27T10:19:08Z</time>
      </trkpt>
      <trkpt lat="44.86752" lon="5.8833">
        <ele>1091.1</ele>
        <time>2024-08-27T10:19:09Z</time>
      </trkpt>
      <trkpt lat="44.86753" lon="5.88314">
        <ele>1090.1</ele>
        <time>2024-08-27T10:19:10Z</time>
      </trkpt>
      <trkpt lat="44.86753" lon="5.88298">
        <ele>1089.2</ele>
        <time>2024-08-27T10:19:11Z</time>
      </trkpt>
      <trkpt lat="44.86754" lon="5.88281">
        <ele>1088.2</ele>
        <time>2024-08-27T10:19:12Z</time>
      </trkpt>
      <trkpt lat="44.86756" lon="5.88265">
        <ele>1087.2</ele>
        <time>2024-08-27T10:19:13Z</time>
      </trkpt>
      <trkpt lat="44.86758" lon="5.88249">
        <ele>1086.2</ele>
        <time>2024-08-27T10:19:14Z</time>
      </trkpt>
      <trkpt lat="44.8676" lon="5.88233">
        <ele>1085.3</ele>
        <time>2024-08-27T10:19:15Z</time>
      </trkpt>
      <trkpt lat="44.86762" lon="5.88217">
        <ele>1084.3</ele>
        <time>2024-08-27T10:19:16Z</time>
      </trkpt>
      <trkpt lat="44.86765" lon="5.88202">
        <ele>1083.4</ele>
        <time>2024-08-27T10:19:17Z</time>
      </trkpt>
      <trkpt lat="44.86769" lon="5.88186">
        <ele>1082.4</ele>
        <time>2024-08-27T10:19:18Z</time>
      </trkpt>
      <trkpt lat="44.86772" lon="5.8817">
        <ele>1081.5</ele>
        <time>2024-08-27T10:19:19Z</time>
      </trkpt>
      <trkpt lat="44.86775" lon="5.88155">
        <ele>1080.5</ele>
        <time>2024-08-27T10:19:20Z</time>
      </trkpt>
      <trkpt lat="44.86779" lon="5.88139">
        <ele>1079.6</ele>
        <time>2024-08-27T10:19:21Z</time>
      </trkpt>
      <trkpt lat="44.86783" lon="5.88123">
        <ele>1078.6</ele>
        <time>2024-08-27T10:19:22Z</time>
      </trkpt>
      <trkpt lat="44.86788" lon="5.88108">
        <ele>1077.6</ele>
        <time>2024-08-27T10:19:23Z</time>
      </trkpt>
      <trkpt lat="44.86794" lon="5.88094">
        <ele>1076.7</ele>
        <time>2024-08-27T10:19:24Z</time>
      </trkpt>
      <trkpt lat="44.86801" lon="5.8808">
        <ele>1075.7</ele>
        <time>2024-08-27T10:19:25Z</time>
      </trkpt>
      <trkpt lat="44.86807" lon="5.88065">
        <ele>1074.8</ele>
        <time>2024-08-27T10:19:26Z</time>
      </trkpt>
      <trkpt lat="44.86813" lon="5.88051">
        <ele>1073.9</ele>
        <time>2024-08-27T10:19:27Z</time>
      </trkpt>
      <trkpt lat="44.86819" lon="5.88036">
        <ele>1073</ele>
        <time>2024-08-27T10:19:28Z</time>
      </trkpt>
      <trkpt lat="44.86825" lon="5.88022">
        <ele>1072.2</ele>
        <time>2024-08-27T10:19:29Z</time>
      </trkpt>
      <trkpt lat="44.8683" lon="5.88009">
        <ele>1071.4</ele>
        <time>2024-08-27T10:19:30Z</time>
      </trkpt>
      <trkpt lat="44.86834" lon="5.87996">
        <ele>1070.6</ele>
        <time>2024-08-27T10:19:31Z</time>
      </trkpt>
      <trkpt lat="44.86834" lon="5.87984">
        <ele>1069.9</ele>
        <time>2024-08-27T10:19:32Z</time>
      </trkpt>
      <trkpt lat="44.86831" lon="5.87971">
        <ele>1069</ele>
        <time>2024-08-27T10:19:33Z</time>
      </trkpt>
      <trkpt lat="44.86826" lon="5.8796">
        <ele>1068.2</ele>
        <time>2024-08-27T10:19:34Z</time>
      </trkpt>
      <trkpt lat="44.8682" lon="5.87949">
        <ele>1067.4</ele>
        <time>2024-08-27T10:19:35Z</time>
      </trkpt>
      <trkpt lat="44.86813" lon="5.87939">
        <ele>1066.7</ele>
        <time>2024-08-27T10:19:36Z</time>
      </trkpt>
      <trkpt lat="44.86806" lon="5.87928">
        <ele>1065.9</ele>
        <time>2024-08-27T10:19:37Z</time>
      </trkpt>
      <trkpt lat="44.868" lon="5.87917">
        <ele>1065.1</ele>
        <time>2024-08-27T10:19:38Z</time>
      </trkpt>
      <trkpt lat="44.86793" lon="5.87906">
        <ele>1064.3</ele>
        <time>2024-08-27T10:19:39Z</time>
      </trkpt>
      <trkpt lat="44.86789" lon="5.87893">
        <ele>1063.5</ele>
        <time>2024-08-27T10:19:40Z</time>
      </trkpt>
      <trkpt lat="44.86786" lon="5.87879">
        <ele>1062.6</ele>
        <time>2024-08-27T10:19:41Z</time>
      </trkpt>
      <trkpt lat="44.86785" lon="5.87864">
        <ele>1061.9</ele>
        <time>2024-08-27T10:19:42Z</time>
      </trkpt>
      <trkpt lat="44.86783" lon="5.8785">
        <ele>1061.1</ele>
        <time>2024-08-27T10:19:43Z</time>
      </trkpt>
      <trkpt lat="44.86778" lon="5.87836">
        <ele>1060.4</ele>
        <time>2024-08-27T10:19:44Z</time>
      </trkpt>
      <trkpt lat="44.86773" lon="5.87823">
        <ele>1059.6</ele>
        <time>2024-08-27T10:19:45Z</time>
      </trkpt>
      <trkpt lat="44.86766" lon="5.87811">
        <ele>1058.8</ele>
        <time>2024-08-27T10:19:46Z</time>
      </trkpt>
      <trkpt lat="44.86761" lon="5.87798">
        <ele>1058</ele>
        <time>2024-08-27T10:19:47Z</time>
      </trkpt>
      <trkpt lat="44.86758" lon="5.87784">
        <ele>1057.2</ele>
        <time>2024-08-27T10:19:48Z</time>
      </trkpt>
      <trkpt lat="44.86758" lon="5.87769">
        <ele>1056.3</ele>
        <time>2024-08-27T10:19:49Z</time>
      </trkpt>
      <trkpt lat="44.86759" lon="5.87754">
        <ele>1055.4</ele>
        <time>2024-08-27T10:19:50Z</time>
      </trkpt>
      <trkpt lat="44.8676" lon="5.87739">
        <ele>1054.5</ele>
        <time>2024-08-27T10:19:51Z</time>
      </trkpt>
      <trkpt lat="44.86762" lon="5.87725">
        <ele>1053.6</ele>
        <time>2024-08-27T10:19:52Z</time>
      </trkpt>
      <trkpt lat="44.86766" lon="5.8771">
        <ele>1052.6</ele>
        <time>2024-08-27T10:19:53Z</time>
      </trkpt>
      <trkpt lat="44.8677" lon="5.87695">
        <ele>1051.6</ele>
        <time>2024-08-27T10:19:54Z</time>
      </trkpt>
      <trkpt lat="44.86773" lon="5.8768">
        <ele>1050.6</ele>
        <time>2024-08-27T10:19:55Z</time>
      </trkpt>
      <trkpt lat="44.86777" lon="5.87665">
        <ele>1049.6</ele>
        <time>2024-08-27T10:19:56Z</time>
      </trkpt>
      <trkpt lat="44.86782" lon="5.8765">
        <ele>1048.6</ele>
        <time>2024-08-27T10:19:57Z</time>
      </trkpt>
      <trkpt lat="44.86785" lon="5.87634">
        <ele>1047.6</ele>
        <time>2024-08-27T10:19:58Z</time>
      </trkpt>
      <trkpt lat="44.86789" lon="5.87619">
        <ele>1046.6</ele>
        <time>2024-08-27T10:19:59Z</time>
      </trkpt>
      <trkpt lat="44.86792" lon="5.87603">
        <ele>1045.5</ele>
        <time>2024-08-27T10:20:00Z</time>
      </trkpt>
      <trkpt lat="44.86794" lon="5.87586">
        <ele>1044.5</ele>
        <time>2024-08-27T10:20:01Z</time>
      </trkpt>
      <trkpt lat="44.86795" lon="5.8757">
        <ele>1043.6</ele>
        <time>2024-08-27T10:20:02Z</time>
      </trkpt>
      <trkpt lat="44.86795" lon="5.87553">
        <ele>1042.8</ele>
        <time>2024-08-27T10:20:03Z</time>
      </trkpt>
      <trkpt lat="44.86794" lon="5.87536">
        <ele>1041.9</ele>
        <time>2024-08-27T10:20:04Z</time>
      </trkpt>
      <trkpt lat="44.86795" lon="5.8752">
        <ele>1041.1</ele>
        <time>2024-08-27T10:20:05Z</time>
      </trkpt>
      <trkpt lat="44.868" lon="5.87506">
        <ele>1040.1</ele>
        <time>2024-08-27T10:20:06Z</time>
      </trkpt>
      <trkpt lat="44.86806" lon="5.87493">
        <ele>1039.2</ele>
        <time>2024-08-27T10:20:07Z</time>
      </trkpt>
      <trkpt lat="44.86813" lon="5.8748">
        <ele>1038.2</ele>
        <time>2024-08-27T10:20:08Z</time>
      </trkpt>
      <trkpt lat="44.8682" lon="5.87467">
        <ele>1037.2</ele>
        <time>2024-08-27T10:20:09Z</time>
      </trkpt>
      <trkpt lat="44.86826" lon="5.87454">
        <ele>1036.3</ele>
        <time>2024-08-27T10:20:10Z</time>
      </trkpt>
      <trkpt lat="44.86833" lon="5.8744">
        <ele>1035.4</ele>
        <time>2024-08-27T10:20:11Z</time>
      </trkpt>
      <trkpt lat="44.86839" lon="5.87427">
        <ele>1034.5</ele>
        <time>2024-08-27T10:20:12Z</time>
      </trkpt>
      <trkpt lat="44.86845" lon="5.87415">
        <ele>1033.7</ele>
        <time>2024-08-27T10:20:13Z</time>
      </trkpt>
      <trkpt lat="44.86852" lon="5.87405">
        <ele>1033</ele>
        <time>2024-08-27T10:20:14Z</time>
      </trkpt>
      <trkpt lat="44.8686" lon="5.87397">
        <ele>1032.2</ele>
        <time>2024-08-27T10:20:15Z</time>
      </trkpt>
      <trkpt lat="44.8687" lon="5.87393">
        <ele>1031.5</ele>
        <time>2024-08-27T10:20:16Z</time>
      </trkpt>
      <trkpt lat="44.8688" lon="5.87392">
        <ele>1030.8</ele>
        <time>2024-08-27T10:20:17Z</time>
      </trkpt>
      <trkpt lat="44.8689" lon="5.87393">
        <ele>1030.2</ele>
        <time>2024-08-27T10:20:18Z</time>
      </trkpt>
      <trkpt lat="44.86897" lon="5.87393">
        <ele>1029.8</ele>
        <time>2024-08-27T10:20:19Z</time>
      </trkpt>
      <trkpt lat="44.86903" lon="5.8739">
        <ele>1029.6</ele>
        <time>2024-08-27T10:20:20Z</time>
      </trkpt>
      <trkpt lat="44.86908" lon="5.87382">
        <ele>1029.6</ele>
        <time>2024-08-27T10:20:21Z</time>
      </trkpt>
      <trkpt lat="44.86911" lon="5.87373">
        <ele>1029.1</ele>
        <time>2024-08-27T10:20:22Z</time>
      </trkpt>
      <trkpt lat="44.86913" lon="5.87362">
        <ele>1028.5</ele>
        <time>2024-08-27T10:20:23Z</time>
      </trkpt>
      <trkpt lat="44.86913" lon="5.87351">
        <ele>1027.8</ele>
        <time>2024-08-27T10:20:24Z</time>
      </trkpt>
      <trkpt lat="44.86912" lon="5.8734">
        <ele>1027.1</ele>
        <time>2024-08-27T10:20:25Z</time>
      </trkpt>
      <trkpt lat="44.86912" lon="5.87328">
        <ele>1026.3</ele>
        <time>2024-08-27T10:20:26Z</time>
      </trkpt>
      <trkpt lat="44.86912" lon="5.87316">
        <ele>1025.6</ele>
        <time>2024-08-27T10:20:27Z</time>
      </trkpt>
      <trkpt lat="44.86912" lon="5.87304">
        <ele>1024.8</ele>
        <time>2024-08-27T10:20:28Z</time>
      </trkpt>
      <trkpt lat="44.86912" lon="5.87291">
        <ele>1024.1</ele>
        <time>2024-08-27T10:20:29Z</time>
      </trkpt>
      <trkpt lat="44.86911" lon="5.87278">
        <ele>1023.3</ele>
        <time>2024-08-27T10:20:30Z</time>
      </trkpt>
      <trkpt lat="44.86909" lon="5.87265">
        <ele>1022.5</ele>
        <time>2024-08-27T10:20:31Z</time>
      </trkpt>
      <trkpt lat="44.86907" lon="5.87252">
        <ele>1021.8</ele>
        <time>2024-08-27T10:20:32Z</time>
      </trkpt>
      <trkpt lat="44.86904" lon="5.87238">
        <ele>1021</ele>
        <time>2024-08-27T10:20:33Z</time>
      </trkpt>
      <trkpt lat="44.86901" lon="5.87225">
        <ele>1020.2</ele>
        <time>2024-08-27T10:20:34Z</time>
      </trkpt>
      <trkpt lat="44.86897" lon="5.87212">
        <ele>1019.3</ele>
        <time>2024-08-27T10:20:35Z</time>
      </trkpt>
      <trkpt lat="44.86892" lon="5.87199">
        <ele>1018.4</ele>
        <time>2024-08-27T10:20:36Z</time>
      </trkpt>
      <trkpt lat="44.86886" lon="5.87187">
        <ele>1017.5</ele>
        <time>2024-08-27T10:20:37Z</time>
      </trkpt>
      <trkpt lat="44.86879" lon="5.87176">
        <ele>1016.7</ele>
        <time>2024-08-27T10:20:38Z</time>
      </trkpt>
      <trkpt lat="44.86872" lon="5.87164">
        <ele>1015.8</ele>
        <time>2024-08-27T10:20:39Z</time>
      </trkpt>
      <trkpt lat="44.86865" lon="5.87152">
        <ele>1014.9</ele>
        <time>2024-08-27T10:20:40Z</time>
      </trkpt>
      <trkpt lat="44.86858" lon="5.87141">
        <ele>1014.1</ele>
        <time>2024-08-27T10:20:41Z</time>
      </trkpt>
      <trkpt lat="44.8685" lon="5.8713">
        <ele>1013.3</ele>
        <time>2024-08-27T10:20:42Z</time>
      </trkpt>
      <trkpt lat="44.86841" lon="5.8712">
        <ele>1012.4</ele>
        <time>2024-08-27T10:20:43Z</time>
      </trkpt>
      <trkpt lat="44.86831" lon="5.87111">
        <ele>1011.6</ele>
        <time>2024-08-27T10:20:44Z</time>
      </trkpt>
      <trkpt lat="44.86821" lon="5.87103">
        <ele>1010.8</ele>
        <time>2024-08-27T10:20:45Z</time>
      </trkpt>
      <trkpt lat="44.86811" lon="5.87095">
        <ele>1010</ele>
        <time>2024-08-27T10:20:46Z</time>
      </trkpt>
      <trkpt lat="44.86801" lon="5.87088">
        <ele>1009.3</ele>
        <time>2024-08-27T10:20:47Z</time>
      </trkpt>
      <trkpt lat="44.86791" lon="5.87082">
        <ele>1008.6</ele>
        <time>2024-08-27T10:20:48Z</time>
      </trkpt>
      <trkpt lat="44.86781" lon="5.87077">
        <ele>1007.8</ele>
        <time>2024-08-27T10:20:49Z</time>
      </trkpt>
      <trkpt lat="44.86775" lon="5.87069">
        <ele>1007</ele>
        <time>2024-08-27T10:20:50Z</time>
      </trkpt>
      <trkpt lat="44.8677" lon="5.87058">
        <ele>1006.1</ele>
        <time>2024-08-27T10:20:51Z</time>
      </trkpt>
      <trkpt lat="44.86767" lon="5.87045">
        <ele>1005.1</ele>
        <time>2024-08-27T10:20:52Z</time>
      </trkpt>
      <trkpt lat="44.86765" lon="5.87031">
        <ele>1004.2</ele>
        <time>2024-08-27T10:20:53Z</time>
      </trkpt>
      <trkpt lat="44.86763" lon="5.87017">
        <ele>1003.3</ele>
        <time>2024-08-27T10:20:54Z</time>
      </trkpt>
      <trkpt lat="44.86762" lon="5.87003">
        <ele>1002.4</ele>
        <time>2024-08-27T10:20:55Z</time>
      </trkpt>
      <trkpt lat="44.8676" lon="5.86989">
        <ele>1001.4</ele>
        <time>2024-08-27T10:20:56Z</time>
      </trkpt>
      <trkpt lat="44.86761" lon="5.86974">
        <ele>1000.6</ele>
        <time>2024-08-27T10:20:57Z</time>
      </trkpt>
      <trkpt lat="44.86763" lon="5.8696">
        <ele>999.6</ele>
        <time>2024-08-27T10:20:58Z</time>
      </trkpt>
      <trkpt lat="44.86768" lon="5.86946">
        <ele>998.7</ele>
        <time>2024-08-27T10:20:59Z</time>
      </trkpt>
      <trkpt lat="44.86773" lon="5.86933">
        <ele>997.8</ele>
        <time>2024-08-27T10:21:00Z</time>
      </trkpt>
      <trkpt lat="44.86779" lon="5.86921">
        <ele>996.9</ele>
        <time>2024-08-27T10:21:01Z</time>
      </trkpt>
      <trkpt lat="44.86786" lon="5.86909">
        <ele>995.9</ele>
        <time>2024-08-27T10:21:02Z</time>
      </trkpt>
      <trkpt lat="44.86794" lon="5.86898">
        <ele>995</ele>
        <time>2024-08-27T10:21:03Z</time>
      </trkpt>
      <trkpt lat="44.86802" lon="5.86887">
        <ele>994.1</ele>
        <time>2024-08-27T10:21:04Z</time>
      </trkpt>
      <trkpt lat="44.8681" lon="5.86876">
        <ele>993.2</ele>
        <time>2024-08-27T10:21:05Z</time>
      </trkpt>
      <trkpt lat="44.86818" lon="5.86866">
        <ele>992.3</ele>
        <time>2024-08-27T10:21:06Z</time>
      </trkpt>
      <trkpt lat="44.86826" lon="5.86855">
        <ele>991.4</ele>
        <time>2024-08-27T10:21:07Z</time>
      </trkpt>
      <trkpt lat="44.86834" lon="5.86845">
        <ele>990.5</ele>
        <time>2024-08-27T10:21:08Z</time>
      </trkpt>
      <trkpt lat="44.86843" lon="5.86834">
        <ele>989.6</ele>
        <time>2024-08-27T10:21:09Z</time>
      </trkpt>
      <trkpt lat="44.86852" lon="5.86824">
        <ele>988.7</ele>
        <time>2024-08-27T10:21:10Z</time>
      </trkpt>
      <trkpt lat="44.86861" lon="5.86814">
        <ele>987.9</ele>
        <time>2024-08-27T10:21:11Z</time>
      </trkpt>
      <trkpt lat="44.8687" lon="5.86805">
        <ele>987.1</ele>
        <time>2024-08-27T10:21:12Z</time>
      </trkpt>
      <trkpt lat="44.86879" lon="5.86795">
        <ele>986.3</ele>
        <time>2024-08-27T10:21:13Z</time>
      </trkpt>
      <trkpt lat="44.86888" lon="5.86786">
        <ele>985.5</ele>
        <time>2024-08-27T10:21:14Z</time>
      </trkpt>
      <trkpt lat="44.86898" lon="5.86777">
        <ele>984.8</ele>
        <time>2024-08-27T10:21:15Z</time>
      </trkpt>
      <trkpt lat="44.86907" lon="5.86767">
        <ele>984</ele>
        <time>2024-08-27T10:21:16Z</time>
      </trkpt>
      <trkpt lat="44.86915" lon="5.86756">
        <ele>983.2</ele>
        <time>2024-08-27T10:21:17Z</time>
      </trkpt>
      <trkpt lat="44.86923" lon="5.86745">
        <ele>982.5</ele>
        <time>2024-08-27T10:21:18Z</time>
      </trkpt>
      <trkpt lat="44.8693" lon="5.86733">
        <ele>981.8</ele>
        <time>2024-08-27T10:21:19Z</time>
      </trkpt>
      <trkpt lat="44.86939" lon="5.86723">
        <ele>981.1</ele>
        <time>2024-08-27T10:21:20Z</time>
      </trkpt>
      <trkpt lat="44.86948" lon="5.86714">
        <ele>980.4</ele>
        <time>2024-08-27T10:21:21Z</time>
      </trkpt>
      <trkpt lat="44.86957" lon="5.86706">
        <ele>979.7</ele>
        <time>2024-08-27T10:21:22Z</time>
      </trkpt>
      <trkpt lat="44.86966" lon="5.867">
        <ele>978.9</ele>
        <time>2024-08-27T10:21:23Z</time>
      </trkpt>
      <trkpt lat="44.86976" lon="5.86697">
        <ele>978</ele>
        <time>2024-08-27T10:21:24Z</time>
      </trkpt>
      <trkpt lat="44.86986" lon="5.86697">
        <ele>976.9</ele>
        <time>2024-08-27T10:21:25Z</time>
      </trkpt>
      <trkpt lat="44.86997" lon="5.86696">
        <ele>975.9</ele>
        <time>2024-08-27T10:21:26Z</time>
      </trkpt>
      <trkpt lat="44.87008" lon="5.86691">
        <ele>974.9</ele>
        <time>2024-08-27T10:21:27Z</time>
      </trkpt>
      <trkpt lat="44.87019" lon="5.86684">
        <ele>973.9</ele>
        <time>2024-08-27T10:21:28Z</time>
      </trkpt>
      <trkpt lat="44.87028" lon="5.86674">
        <ele>973</ele>
        <time>2024-08-27T10:21:29Z</time>
      </trkpt>
      <trkpt lat="44.87036" lon="5.86663">
        <ele>972.1</ele>
        <time>2024-08-27T10:21:30Z</time>
      </trkpt>
      <trkpt lat="44.87043" lon="5.8665">
        <ele>971.2</ele>
        <time>2024-08-27T10:21:31Z</time>
      </trkpt>
      <trkpt lat="44.87049" lon="5.86636">
        <ele>970.3</ele>
        <time>2024-08-27T10:21:32Z</time>
      </trkpt>
      <trkpt lat="44.87055" lon="5.86622">
        <ele>969.4</ele>
        <time>2024-08-27T10:21:33Z</time>
      </trkpt>
      <trkpt lat="44.8706" lon="5.86607">
        <ele>968.4</ele>
        <time>2024-08-27T10:21:34Z</time>
      </trkpt>
      <trkpt lat="44.87064" lon="5.86592">
        <ele>967.4</ele>
        <time>2024-08-27T10:21:35Z</time>
      </trkpt>
      <trkpt lat="44.87068" lon="5.86577">
        <ele>966.6</ele>
        <time>2024-08-27T10:21:36Z</time>
      </trkpt>
      <trkpt lat="44.87072" lon="5.86562">
        <ele>965.7</ele>
        <time>2024-08-27T10:21:37Z</time>
      </trkpt>
      <trkpt lat="44.87076" lon="5.86546">
        <ele>964.9</ele>
        <time>2024-08-27T10:21:38Z</time>
      </trkpt>
      <trkpt lat="44.87078" lon="5.8653">
        <ele>964</ele>
        <time>2024-08-27T10:21:39Z</time>
      </trkpt>
      <trkpt lat="44.87081" lon="5.86514">
        <ele>963.2</ele>
        <time>2024-08-27T10:21:40Z</time>
      </trkpt>
      <trkpt lat="44.87084" lon="5.86498">
        <ele>962.3</ele>
        <time>2024-08-27T10:21:41Z</time>
      </trkpt>
      <trkpt lat="44.8709" lon="5.86483">
        <ele>961.3</ele>
        <time>2024-08-27T10:21:42Z</time>
      </trkpt>
      <trkpt lat="44.87097" lon="5.86469">
        <ele>960.4</ele>
        <time>2024-08-27T10:21:43Z</time>
      </trkpt>
      <trkpt lat="44.87105" lon="5.86457">
        <ele>959.5</ele>
        <time>2024-08-27T10:21:44Z</time>
      </trkpt>
      <trkpt lat="44.87112" lon="5.86444">
        <ele>958.7</ele>
        <time>2024-08-27T10:21:45Z</time>
      </trkpt>
      <trkpt lat="44.8712" lon="5.86431">
        <ele>957.8</ele>
        <time>2024-08-27T10:21:46Z</time>
      </trkpt>
      <trkpt lat="44.87127" lon="5.86418">
        <ele>956.9</ele>
        <time>2024-08-27T10:21:47Z</time>
      </trkpt>
      <trkpt lat="44.87135" lon="5.86405">
        <ele>956.1</ele>
        <time>2024-08-27T10:21:48Z</time>
      </trkpt>
      <trkpt lat="44.87142" lon="5.86392">
        <ele>955.3</ele>
        <time>2024-08-27T10:21:49Z</time>
      </trkpt>
      <trkpt lat="44.8715" lon="5.8638">
        <ele>954.4</ele>
        <time>2024-08-27T10:21:50Z</time>
      </trkpt>
      <trkpt lat="44.87158" lon="5.86368">
        <ele>953.6</ele>
        <time>2024-08-27T10:21:51Z</time>
      </trkpt>
      <trkpt lat="44.87167" lon="5.86357">
        <ele>952.7</ele>
        <time>2024-08-27T10:21:52Z</time>
      </trkpt>
      <trkpt lat="44.87176" lon="5.86346">
        <ele>951.8</ele>
        <time>2024-08-27T10:21:53Z</time>
      </trkpt>
      <trkpt lat="44.87185" lon="5.86335">
        <ele>950.9</ele>
        <time>2024-08-27T10:21:54Z</time>
      </trkpt>
      <trkpt lat="44.87194" lon="5.86324">
        <ele>950</ele>
        <time>2024-08-27T10:21:55Z</time>
      </trkpt>
      <trkpt lat="44.87204" lon="5.86313">
        <ele>949</ele>
        <time>2024-08-27T10:21:56Z</time>
      </trkpt>
      <trkpt lat="44.87214" lon="5.86303">
        <ele>948.1</ele>
        <time>2024-08-27T10:21:57Z</time>
      </trkpt>
      <trkpt lat="44.87224" lon="5.86293">
        <ele>947.3</ele>
        <time>2024-08-27T10:21:58Z</time>
      </trkpt>
      <trkpt lat="44.87235" lon="5.86289">
        <ele>946.5</ele>
        <time>2024-08-27T10:21:59Z</time>
      </trkpt>
      <trkpt lat="44.87247" lon="5.86284">
        <ele>945.7</ele>
        <time>2024-08-27T10:22:00Z</time>
      </trkpt>
      <trkpt lat="44.87259" lon="5.86279">
        <ele>944.9</ele>
        <time>2024-08-27T10:22:01Z</time>
      </trkpt>
      <trkpt lat="44.87271" lon="5.86274">
        <ele>944</ele>
        <time>2024-08-27T10:22:02Z</time>
      </trkpt>
      <trkpt lat="44.87282" lon="5.86269">
        <ele>943.2</ele>
        <time>2024-08-27T10:22:03Z</time>
      </trkpt>
      <trkpt lat="44.87294" lon="5.86265">
        <ele>942.6</ele>
        <time>2024-08-27T10:22:04Z</time>
      </trkpt>
      <trkpt lat="44.87304" lon="5.86261">
        <ele>942</ele>
        <time>2024-08-27T10:22:05Z</time>
      </trkpt>
      <trkpt lat="44.87314" lon="5.86257">
        <ele>941.5</ele>
        <time>2024-08-27T10:22:06Z</time>
      </trkpt>
      <trkpt lat="44.87323" lon="5.86251">
        <ele>941</ele>
        <time>2024-08-27T10:22:07Z</time>
      </trkpt>
      <trkpt lat="44.87329" lon="5.86244">
        <ele>940.5</ele>
        <time>2024-08-27T10:22:08Z</time>
      </trkpt>
      <trkpt lat="44.87331" lon="5.86234">
        <ele>940.1</ele>
        <time>2024-08-27T10:22:09Z</time>
      </trkpt>
      <trkpt lat="44.8733" lon="5.86224">
        <ele>939.7</ele>
        <time>2024-08-27T10:22:10Z</time>
      </trkpt>
      <trkpt lat="44.87325" lon="5.86216">
        <ele>939.2</ele>
        <time>2024-08-27T10:22:11Z</time>
      </trkpt>
      <trkpt lat="44.87317" lon="5.86211">
        <ele>938.6</ele>
        <time>2024-08-27T10:22:12Z</time>
      </trkpt>
      <trkpt lat="44.8731" lon="5.86208">
        <ele>938</ele>
        <time>2024-08-27T10:22:13Z</time>
      </trkpt>
      <trkpt lat="44.87302" lon="5.86206">
        <ele>937.4</ele>
        <time>2024-08-27T10:22:14Z</time>
      </trkpt>
      <trkpt lat="44.87293" lon="5.86204">
        <ele>936.7</ele>
        <time>2024-08-27T10:22:15Z</time>
      </trkpt>
      <trkpt lat="44.87284" lon="5.86201">
        <ele>936</ele>
        <time>2024-08-27T10:22:16Z</time>
      </trkpt>
      <trkpt lat="44.87276" lon="5.86194">
        <ele>935.3</ele>
        <time>2024-08-27T10:22:17Z</time>
      </trkpt>
      <trkpt lat="44.87268" lon="5.86187">
        <ele>934.6</ele>
        <time>2024-08-27T10:22:18Z</time>
      </trkpt>
      <trkpt lat="44.8726" lon="5.86179">
        <ele>934</ele>
        <time>2024-08-27T10:22:19Z</time>
      </trkpt>
      <trkpt lat="44.87252" lon="5.86172">
        <ele>933.4</ele>
        <time>2024-08-27T10:22:20Z</time>
      </trkpt>
      <trkpt lat="44.87242" lon="5.86167">
        <ele>932.9</ele>
        <time>2024-08-27T10:22:21Z</time>
      </trkpt>
      <trkpt lat="44.87233" lon="5.86164">
        <ele>932.4</ele>
        <time>2024-08-27T10:22:22Z</time>
      </trkpt>
      <trkpt lat="44.87224" lon="5.86159">
        <ele>931.9</ele>
        <time>2024-08-27T10:22:23Z</time>
      </trkpt>
      <trkpt lat="44.87215" lon="5.86154">
        <ele>931.4</ele>
        <time>2024-08-27T10:22:24Z</time>
      </trkpt>
      <trkpt lat="44.87207" lon="5.86147">
        <ele>930.8</ele>
        <time>2024-08-27T10:22:25Z</time>
      </trkpt>
      <trkpt lat="44.87198" lon="5.8614">
        <ele>930.3</ele>
        <time>2024-08-27T10:22:26Z</time>
      </trkpt>
      <trkpt lat="44.87189" lon="5.86134">
        <ele>929.7</ele>
        <time>2024-08-27T10:22:27Z</time>
      </trkpt>
      <trkpt lat="44.8718" lon="5.86129">
        <ele>929.1</ele>
        <time>2024-08-27T10:22:28Z</time>
      </trkpt>
      <trkpt lat="44.87171" lon="5.86125">
        <ele>928.5</ele>
        <time>2024-08-27T10:22:29Z</time>
      </trkpt>
      <trkpt lat="44.87161" lon="5.86123">
        <ele>927.9</ele>
        <time>2024-08-27T10:22:30Z</time>
      </trkpt>
      <trkpt lat="44.8715" lon="5.86122">
        <ele>927.3</ele>
        <time>2024-08-27T10:22:31Z</time>
      </trkpt>
      <trkpt lat="44.8714" lon="5.86122">
        <ele>926.7</ele>
        <time>2024-08-27T10:22:32Z</time>
      </trkpt>
      <trkpt lat="44.8713" lon="5.86123">
        <ele>926.1</ele>
        <time>2024-08-27T10:22:33Z</time>
      </trkpt>
      <trkpt lat="44.87119" lon="5.86125">
        <ele>925.5</ele>
        <time>2024-08-27T10:22:34Z</time>
      </trkpt>
      <trkpt lat="44.87109" lon="5.86126">
        <ele>924.8</ele>
        <time>2024-08-27T10:22:35Z</time>
      </trkpt>
      <trkpt lat="44.87099" lon="5.86127">
        <ele>924.2</ele>
        <time>2024-08-27T10:22:36Z</time>
      </trkpt>
      <trkpt lat="44.87088" lon="5.86128">
        <ele>923.5</ele>
        <time>2024-08-27T10:22:37Z</time>
      </trkpt>
      <trkpt lat="44.87078" lon="5.86128">
        <ele>922.9</ele>
        <time>2024-08-27T10:22:38Z</time>
      </trkpt>
      <trkpt lat="44.87068" lon="5.86129">
        <ele>922.2</ele>
        <time>2024-08-27T10:22:39Z</time>
      </trkpt>
      <trkpt lat="44.87057" lon="5.86129">
        <ele>921.6</ele>
        <time>2024-08-27T10:22:40Z</time>
      </trkpt>
      <trkpt lat="44.87047" lon="5.8613">
        <ele>921</ele>
        <time>2024-08-27T10:22:41Z</time>
      </trkpt>
      <trkpt lat="44.87036" lon="5.8613">
        <ele>920.4</ele>
        <time>2024-08-27T10:22:42Z</time>
      </trkpt>
      <trkpt lat="44.87026" lon="5.8613">
        <ele>919.7</ele>
        <time>2024-08-27T10:22:43Z</time>
      </trkpt>
      <trkpt lat="44.87015" lon="5.8613">
        <ele>919.1</ele>
        <time>2024-08-27T10:22:44Z</time>
      </trkpt>
      <trkpt lat="44.87005" lon="5.8613">
        <ele>918.5</ele>
        <time>2024-08-27T10:22:45Z</time>
      </trkpt>
      <trkpt lat="44.86995" lon="5.86127">
        <ele>917.9</ele>
        <time>2024-08-27T10:22:46Z</time>
      </trkpt>
      <trkpt lat="44.86985" lon="5.86123">
        <ele>917.3</ele>
        <time>2024-08-27T10:22:47Z</time>
      </trkpt>
      <trkpt lat="44.86976" lon="5.86116">
        <ele>916.7</ele>
        <time>2024-08-27T10:22:48Z</time>
      </trkpt>
      <trkpt lat="44.86967" lon="5.86109">
        <ele>916.2</ele>
        <time>2024-08-27T10:22:49Z</time>
      </trkpt>
      <trkpt lat="44.86958" lon="5.861">
        <ele>915.6</ele>
        <time>2024-08-27T10:22:50Z</time>
      </trkpt>
      <trkpt lat="44.8695" lon="5.86092">
        <ele>915.1</ele>
        <time>2024-08-27T10:22:51Z</time>
      </trkpt>
      <trkpt lat="44.86944" lon="5.8608">
        <ele>914.6</ele>
        <time>2024-08-27T10:22:52Z</time>
      </trkpt>
      <trkpt lat="44.8694" lon="5.86066">
        <ele>914</ele>
        <time>2024-08-27T10:22:53Z</time>
      </trkpt>
      <trkpt lat="44.86938" lon="5.86052">
        <ele>913.3</ele>
        <time>2024-08-27T10:22:54Z</time>
      </trkpt>
      <trkpt lat="44.86937" lon="5.86038">
        <ele>912.7</ele>
        <time>2024-08-27T10:22:55Z</time>
      </trkpt>
      <trkpt lat="44.86938" lon="5.86023">
        <ele>912.1</ele>
        <time>2024-08-27T10:22:56Z</time>
      </trkpt>
      <trkpt lat="44.8694" lon="5.86008">
        <ele>911.5</ele>
        <time>2024-08-27T10:22:57Z</time>
      </trkpt>
      <trkpt lat="44.86943" lon="5.85994">
        <ele>910.9</ele>
        <time>2024-08-27T10:22:58Z</time>
      </trkpt>
      <trkpt lat="44.86944" lon="5.8598">
        <ele>910.3</ele>
        <time>2024-08-27T10:22:59Z</time>
      </trkpt>
      <trkpt lat="44.86946" lon="5.85965">
        <ele>909.6</ele>
        <time>2024-08-27T10:23:00Z</time>
      </trkpt>
      <trkpt lat="44.86948" lon="5.8595">
        <ele>909</ele>
        <time>2024-08-27T10:23:01Z</time>
      </trkpt>
      <trkpt lat="44.86949" lon="5.85935">
        <ele>908.3</ele>
        <time>2024-08-27T10:23:02Z</time>
      </trkpt>
      <trkpt lat="44.8695" lon="5.8592">
        <ele>907.7</ele>
        <time>2024-08-27T10:23:03Z</time>
      </trkpt>
      <trkpt lat="44.86951" lon="5.85904">
        <ele>907.1</ele>
        <time>2024-08-27T10:23:04Z</time>
      </trkpt>
      <trkpt lat="44.86951" lon="5.8589">
        <ele>906.5</ele>
        <time>2024-08-27T10:23:05Z</time>
      </trkpt>
      <trkpt lat="44.86951" lon="5.85875">
        <ele>905.9</ele>
        <time>2024-08-27T10:23:06Z</time>
      </trkpt>
      <trkpt lat="44.86948" lon="5.85861">
        <ele>905.4</ele>
        <time>2024-08-27T10:23:07Z</time>
      </trkpt>
      <trkpt lat="44.86942" lon="5.85849">
        <ele>904.8</ele>
        <time>2024-08-27T10:23:08Z</time>
      </trkpt>
      <trkpt lat="44.86935" lon="5.8584">
        <ele>904.2</ele>
        <time>2024-08-27T10:23:09Z</time>
      </trkpt>
      <trkpt lat="44.86925" lon="5.85833">
        <ele>903.5</ele>
        <time>2024-08-27T10:23:10Z</time>
      </trkpt>
      <trkpt lat="44.86915" lon="5.8583">
        <ele>903</ele>
        <time>2024-08-27T10:23:11Z</time>
      </trkpt>
      <trkpt lat="44.86905" lon="5.85828">
        <ele>902.5</ele>
        <time>2024-08-27T10:23:12Z</time>
      </trkpt>
      <trkpt lat="44.86895" lon="5.85826">
        <ele>902</ele>
        <time>2024-08-27T10:23:13Z</time>
      </trkpt>
      <trkpt lat="44.86885" lon="5.85824">
        <ele>901.3</ele>
        <time>2024-08-27T10:23:14Z</time>
      </trkpt>
      <trkpt lat="44.86875" lon="5.85823">
        <ele>900.7</ele>
        <time>2024-08-27T10:23:15Z</time>
      </trkpt>
      <trkpt lat="44.86865" lon="5.85821">
        <ele>900</ele>
        <time>2024-08-27T10:23:16Z</time>
      </trkpt>
      <trkpt lat="44.86855" lon="5.85819">
        <ele>899.4</ele>
        <time>2024-08-27T10:23:17Z</time>
      </trkpt>
      <trkpt lat="44.86845" lon="5.85817">
        <ele>898.7</ele>
        <time>2024-08-27T10:23:18Z</time>
      </trkpt>
      <trkpt lat="44.86836" lon="5.85814">
        <ele>898.1</ele>
        <time>2024-08-27T10:23:19Z</time>
      </trkpt>
      <trkpt lat="44.86826" lon="5.85811">
        <ele>897.5</ele>
        <time>2024-08-27T10:23:20Z</time>
      </trkpt>
      <trkpt lat="44.86816" lon="5.8581">
        <ele>896.8</ele>
        <time>2024-08-27T10:23:21Z</time>
      </trkpt>
      <trkpt lat="44.86806" lon="5.85807">
        <ele>896.2</ele>
        <time>2024-08-27T10:23:22Z</time>
      </trkpt>
      <trkpt lat="44.86796" lon="5.85805">
        <ele>895.6</ele>
        <time>2024-08-27T10:23:23Z</time>
      </trkpt>
      <trkpt lat="44.86787" lon="5.85803">
        <ele>894.9</ele>
        <time>2024-08-27T10:23:24Z</time>
      </trkpt>
      <trkpt lat="44.86777" lon="5.85801">
        <ele>894.2</ele>
        <time>2024-08-27T10:23:25Z</time>
      </trkpt>
      <trkpt lat="44.86767" lon="5.858">
        <ele>893.5</ele>
        <time>2024-08-27T10:23:26Z</time>
      </trkpt>
      <trkpt lat="44.86756" lon="5.858">
        <ele>892.9</ele>
        <time>2024-08-27T10:23:27Z</time>
      </trkpt>
      <trkpt lat="44.86746" lon="5.85799">
        <ele>892.2</ele>
        <time>2024-08-27T10:23:28Z</time>
      </trkpt>
      <trkpt lat="44.86735" lon="5.85798">
        <ele>891.6</ele>
        <time>2024-08-27T10:23:29Z</time>
      </trkpt>
      <trkpt lat="44.86725" lon="5.85798">
        <ele>891</ele>
        <time>2024-08-27T10:23:30Z</time>
      </trkpt>
      <trkpt lat="44.86715" lon="5.85799">
        <ele>890.5</ele>
        <time>2024-08-27T10:23:31Z</time>
      </trkpt>
      <trkpt lat="44.86705" lon="5.858">
        <ele>889.9</ele>
        <time>2024-08-27T10:23:32Z</time>
      </trkpt>
      <trkpt lat="44.86694" lon="5.85801">
        <ele>889.3</ele>
        <time>2024-08-27T10:23:33Z</time>
      </trkpt>
      <trkpt lat="44.86684" lon="5.85803">
        <ele>888.6</ele>
        <time>2024-08-27T10:23:34Z</time>
      </trkpt>
      <trkpt lat="44.86674" lon="5.85805">
        <ele>888.1</ele>
        <time>2024-08-27T10:23:35Z</time>
      </trkpt>
      <trkpt lat="44.86663" lon="5.85805">
        <ele>887.5</ele>
        <time>2024-08-27T10:23:36Z</time>
      </trkpt>
      <trkpt lat="44.86653" lon="5.85802">
        <ele>886.8</ele>
        <time>2024-08-27T10:23:37Z</time>
      </trkpt>
      <trkpt lat="44.86644" lon="5.85796">
        <ele>886.2</ele>
        <time>2024-08-27T10:23:38Z</time>
      </trkpt>
      <trkpt lat="44.86636" lon="5.85788">
        <ele>885.6</ele>
        <time>2024-08-27T10:23:39Z</time>
      </trkpt>
      <trkpt lat="44.8663" lon="5.85777">
        <ele>885</ele>
        <time>2024-08-27T10:23:40Z</time>
      </trkpt>
      <trkpt lat="44.86626" lon="5.85765">
        <ele>884.4</ele>
        <time>2024-08-27T10:23:41Z</time>
      </trkpt>
      <trkpt lat="44.86623" lon="5.85751">
        <ele>883.8</ele>
        <time>2024-08-27T10:23:42Z</time>
      </trkpt>
      <trkpt lat="44.86622" lon="5.85738">
        <ele>883.2</ele>
        <time>2024-08-27T10:23:43Z</time>
      </trkpt>
      <trkpt lat="44.86622" lon="5.85724">
        <ele>882.6</ele>
        <time>2024-08-27T10:23:44Z</time>
      </trkpt>
      <trkpt lat="44.86622" lon="5.8571">
        <ele>882</ele>
        <time>2024-08-27T10:23:45Z</time>
      </trkpt>
      <trkpt lat="44.86622" lon="5.85697">
        <ele>881.3</ele>
        <time>2024-08-27T10:23:46Z</time>
      </trkpt>
      <trkpt lat="44.86623" lon="5.85682">
        <ele>880.7</ele>
        <time>2024-08-27T10:23:47Z</time>
      </trkpt>
      <trkpt lat="44.86624" lon="5.85668">
        <ele>880.1</ele>
        <time>2024-08-27T10:23:48Z</time>
      </trkpt>
      <trkpt lat="44.86624" lon="5.85655">
        <ele>879.4</ele>
        <time>2024-08-27T10:23:49Z</time>
      </trkpt>
      <trkpt lat="44.86627" lon="5.85641">
        <ele>878.8</ele>
        <time>2024-08-27T10:23:50Z</time>
      </trkpt>
      <trkpt lat="44.8663" lon="5.85628">
        <ele>878.2</ele>
        <time>2024-08-27T10:23:51Z</time>
      </trkpt>
      <trkpt lat="44.86635" lon="5.85615">
        <ele>877.5</ele>
        <time>2024-08-27T10:23:52Z</time>
      </trkpt>
      <trkpt lat="44.86642" lon="5.85604">
        <ele>876.8</ele>
        <time>2024-08-27T10:23:53Z</time>
      </trkpt>
      <trkpt lat="44.86649" lon="5.85594">
        <ele>876.1</ele>
        <time>2024-08-27T10:23:54Z</time>
      </trkpt>
      <trkpt lat="44.86657" lon="5.85585">
        <ele>875.5</ele>
        <time>2024-08-27T10:23:55Z</time>
      </trkpt>
      <trkpt lat="44.86665" lon="5.85576">
        <ele>874.8</ele>
        <time>2024-08-27T10:23:56Z</time>
      </trkpt>
      <trkpt lat="44.86673" lon="5.85566">
        <ele>874.2</ele>
        <time>2024-08-27T10:23:57Z</time>
      </trkpt>
      <trkpt lat="44.8668" lon="5.85555">
        <ele>873.5</ele>
        <time>2024-08-27T10:23:58Z</time>
      </trkpt>
      <trkpt lat="44.86685" lon="5.85543">
        <ele>872.9</ele>
        <time>2024-08-27T10:23:59Z</time>
      </trkpt>
      <trkpt lat="44.86689" lon="5.8553">
        <ele>872.2</ele>
        <time>2024-08-27T10:24:00Z</time>
      </trkpt>
      <trkpt lat="44.86691" lon="5.85516">
        <ele>871.6</ele>
        <time>2024-08-27T10:24:01Z</time>
      </trkpt>
      <trkpt lat="44.86693" lon="5.85502">
        <ele>871</ele>
        <time>2024-08-27T10:24:02Z</time>
      </trkpt>
      <trkpt lat="44.86695" lon="5.85487">
        <ele>870.5</ele>
        <time>2024-08-27T10:24:03Z</time>
      </trkpt>
      <trkpt lat="44.86696" lon="5.85473">
        <ele>870</ele>
        <time>2024-08-27T10:24:04Z</time>
      </trkpt>
      <trkpt lat="44.867" lon="5.85459">
        <ele>869.5</ele>
        <time>2024-08-27T10:24:05Z</time>
      </trkpt>
      <trkpt lat="44.86706" lon="5.85448">
        <ele>868.9</ele>
        <time>2024-08-27T10:24:06Z</time>
      </trkpt>
      <trkpt lat="44.86714" lon="5.85441">
        <ele>868.3</ele>
        <time>2024-08-27T10:24:07Z</time>
      </trkpt>
      <trkpt lat="44.86723" lon="5.85434">
        <ele>867.6</ele>
        <time>2024-08-27T10:24:08Z</time>
      </trkpt>
      <trkpt lat="44.86732" lon="5.85428">
        <ele>867</ele>
        <time>2024-08-27T10:24:09Z</time>
      </trkpt>
      <trkpt lat="44.8674" lon="5.8542">
        <ele>866.3</ele>
        <time>2024-08-27T10:24:10Z</time>
      </trkpt>
      <trkpt lat="44.86747" lon="5.85411">
        <ele>865.7</ele>
        <time>2024-08-27T10:24:11Z</time>
      </trkpt>
      <trkpt lat="44.86754" lon="5.85399">
        <ele>865</ele>
        <time>2024-08-27T10:24:12Z</time>
      </trkpt>
      <trkpt lat="44.86759" lon="5.85387">
        <ele>864.4</ele>
        <time>2024-08-27T10:24:13Z</time>
      </trkpt>
      <trkpt lat="44.86765" lon="5.85376">
        <ele>863.9</ele>
        <time>2024-08-27T10:24:14Z</time>
      </trkpt>
      <trkpt lat="44.86772" lon="5.85366">
        <ele>863.2</ele>
        <time>2024-08-27T10:24:15Z</time>
      </trkpt>
      <trkpt lat="44.8678" lon="5.85356">
        <ele>862.6</ele>
        <time>2024-08-27T10:24:16Z</time>
      </trkpt>
      <trkpt lat="44.86788" lon="5.85346">
        <ele>862</ele>
        <time>2024-08-27T10:24:17Z</time>
      </trkpt>
      <trkpt lat="44.86794" lon="5.85335">
        <ele>861.3</ele>
        <time>2024-08-27T10:24:18Z</time>
      </trkpt>
      <trkpt lat="44.86798" lon="5.85321">
        <ele>860.7</ele>
        <time>2024-08-27T10:24:19Z</time>
      </trkpt>
      <trkpt lat="44.86799" lon="5.85306">
        <ele>860</ele>
        <time>2024-08-27T10:24:20Z</time>
      </trkpt>
      <trkpt lat="44.86798" lon="5.85292">
        <ele>859.4</ele>
        <time>2024-08-27T10:24:21Z</time>
      </trkpt>
      <trkpt lat="44.86798" lon="5.85277">
        <ele>858.7</ele>
        <time>2024-08-27T10:24:22Z</time>
      </trkpt>
      <trkpt lat="44.86798" lon="5.85263">
        <ele>858</ele>
        <time>2024-08-27T10:24:23Z</time>
      </trkpt>
      <trkpt lat="44.86799" lon="5.85248">
        <ele>857.4</ele>
        <time>2024-08-27T10:24:24Z</time>
      </trkpt>
      <trkpt lat="44.86797" lon="5.85234">
        <ele>856.8</ele>
        <time>2024-08-27T10:24:25Z</time>
      </trkpt>
      <trkpt lat="44.86794" lon="5.8522">
        <ele>856.2</ele>
        <time>2024-08-27T10:24:26Z</time>
      </trkpt>
      <trkpt lat="44.86791" lon="5.85206">
        <ele>855.7</ele>
        <time>2024-08-27T10:24:27Z</time>
      </trkpt>
      <trkpt lat="44.86787" lon="5.85193">
        <ele>855.1</ele>
        <time>2024-08-27T10:24:28Z</time>
      </trkpt>
      <trkpt lat="44.86784" lon="5.85179">
        <ele>854.5</ele>
        <time>2024-08-27T10:24:29Z</time>
      </trkpt>
      <trkpt lat="44.8678" lon="5.85166">
        <ele>853.9</ele>
        <time>2024-08-27T10:24:30Z</time>
      </trkpt>
      <trkpt lat="44.86779" lon="5.85151">
        <ele>853.3</ele>
        <time>2024-08-27T10:24:31Z</time>
      </trkpt>
      <trkpt lat="44.86778" lon="5.85136">
        <ele>852.7</ele>
        <time>2024-08-27T10:24:32Z</time>
      </trkpt>
      <trkpt lat="44.86779" lon="5.85121">
        <ele>852.1</ele>
        <time>2024-08-27T10:24:33Z</time>
      </trkpt>
      <trkpt lat="44.8678" lon="5.85107">
        <ele>851.4</ele>
        <time>2024-08-27T10:24:34Z</time>
      </trkpt>
      <trkpt lat="44.86781" lon="5.85093">
        <ele>850.7</ele>
        <time>2024-08-27T10:24:35Z</time>
      </trkpt>
      <trkpt lat="44.86782" lon="5.85079">
        <ele>849.9</ele>
        <time>2024-08-27T10:24:36Z</time>
      </trkpt>
      <trkpt lat="44.86785" lon="5.85065">
        <ele>849.3</ele>
        <time>2024-08-27T10:24:37Z</time>
      </trkpt>
      <trkpt lat="44.86787" lon="5.85051">
        <ele>848.6</ele>
        <time>2024-08-27T10:24:38Z</time>
      </trkpt>
      <trkpt lat="44.86789" lon="5.85037">
        <ele>848.1</ele>
        <time>2024-08-27T10:24:39Z</time>
      </trkpt>
      <trkpt lat="44.86792" lon="5.85023">
        <ele>847.5</ele>
        <time>2024-08-27T10:24:40Z</time>
      </trkpt>
      <trkpt lat="44.86794" lon="5.85009">
        <ele>847</ele>
        <time>2024-08-27T10:24:41Z</time>
      </trkpt>
      <trkpt lat="44.86797" lon="5.84995">
        <ele>846.4</ele>
        <time>2024-08-27T10:24:42Z</time>
      </trkpt>
      <trkpt lat="44.868" lon="5.84982">
        <ele>845.8</ele>
        <time>2024-08-27T10:24:43Z</time>
      </trkpt>
      <trkpt lat="44.86804" lon="5.84968">
        <ele>845.2</ele>
        <time>2024-08-27T10:24:44Z</time>
      </trkpt>
      <trkpt lat="44.86807" lon="5.84954">
        <ele>844.6</ele>
        <time>2024-08-27T10:24:45Z</time>
      </trkpt>
      <trkpt lat="44.86811" lon="5.84941">
        <ele>844</ele>
        <time>2024-08-27T10:24:46Z</time>
      </trkpt>
      <trkpt lat="44.86815" lon="5.84928">
        <ele>843.5</ele>
        <time>2024-08-27T10:24:47Z</time>
      </trkpt>
      <trkpt lat="44.86819" lon="5.84915">
        <ele>842.9</ele>
        <time>2024-08-27T10:24:48Z</time>
      </trkpt>
      <trkpt lat="44.86824" lon="5.84904">
        <ele>842.4</ele>
        <time>2024-08-27T10:24:49Z</time>
      </trkpt>
      <trkpt lat="44.8683" lon="5.84892">
        <ele>841.9</ele>
        <time>2024-08-27T10:24:50Z</time>
      </trkpt>
      <trkpt lat="44.86836" lon="5.84881">
        <ele>841.4</ele>
        <time>2024-08-27T10:24:51Z</time>
      </trkpt>
      <trkpt lat="44.86841" lon="5.84868">
        <ele>840.9</ele>
        <time>2024-08-27T10:24:52Z</time>
      </trkpt>
      <trkpt lat="44.86846" lon="5.84856">
        <ele>840.4</ele>
        <time>2024-08-27T10:24:53Z</time>
      </trkpt>
      <trkpt lat="44.8685" lon="5.84843">
        <ele>839.9</ele>
        <time>2024-08-27T10:24:54Z</time>
      </trkpt>
      <trkpt lat="44.86853" lon="5.84829">
        <ele>839.5</ele>
        <time>2024-08-27T10:24:55Z</time>
      </trkpt>
      <trkpt lat="44.86856" lon="5.84816">
        <ele>839</ele>
        <time>2024-08-27T10:24:56Z</time>
      </trkpt>
      <trkpt lat="44.86859" lon="5.84802">
        <ele>838.5</ele>
        <time>2024-08-27T10:24:57Z</time>
      </trkpt>
      <trkpt lat="44.86862" lon="5.84789">
        <ele>838.3</ele>
        <time>2024-08-27T10:24:58Z</time>
      </trkpt>
      <trkpt lat="44.86865" lon="5.84775">
        <ele>838.1</ele>
        <time>2024-08-27T10:24:59Z</time>
      </trkpt>
      <trkpt lat="44.86868" lon="5.84761">
        <ele>837.8</ele>
        <time>2024-08-27T10:25:00Z</time>
      </trkpt>
      <trkpt lat="44.86871" lon="5.84747">
        <ele>837.2</ele>
        <time>2024-08-27T10:25:01Z</time>
      </trkpt>
      <trkpt lat="44.86873" lon="5.84733">
        <ele>836.4</ele>
        <time>2024-08-27T10:25:02Z</time>
      </trkpt>
      <trkpt lat="44.86873" lon="5.84718">
        <ele>835.6</ele>
        <time>2024-08-27T10:25:03Z</time>
      </trkpt>
      <trkpt lat="44.86873" lon="5.84702">
        <ele>834.8</ele>
        <time>2024-08-27T10:25:04Z</time>
      </trkpt>
      <trkpt lat="44.86873" lon="5.84687">
        <ele>834</ele>
        <time>2024-08-27T10:25:05Z</time>
      </trkpt>
      <trkpt lat="44.86874" lon="5.84672">
        <ele>833.2</ele>
        <time>2024-08-27T10:25:06Z</time>
      </trkpt>
      <trkpt lat="44.86874" lon="5.84656">
        <ele>832.5</ele>
        <time>2024-08-27T10:25:07Z</time>
      </trkpt>
      <trkpt lat="44.86873" lon="5.84641">
        <ele>831.8</ele>
        <time>2024-08-27T10:25:08Z</time>
      </trkpt>
      <trkpt lat="44.86871" lon="5.84626">
        <ele>831.2</ele>
        <time>2024-08-27T10:25:09Z</time>
      </trkpt>
      <trkpt lat="44.86869" lon="5.84611">
        <ele>830.6</ele>
        <time>2024-08-27T10:25:10Z</time>
      </trkpt>
      <trkpt lat="44.86866" lon="5.84597">
        <ele>830.1</ele>
        <time>2024-08-27T10:25:11Z</time>
      </trkpt>
      <trkpt lat="44.86863" lon="5.84583">
        <ele>829.6</ele>
        <time>2024-08-27T10:25:12Z</time>
      </trkpt>
      <trkpt lat="44.86861" lon="5.84568">
        <ele>829.2</ele>
        <time>2024-08-27T10:25:13Z</time>
      </trkpt>
      <trkpt lat="44.86861" lon="5.84554">
        <ele>828.9</ele>
        <time>2024-08-27T10:25:14Z</time>
      </trkpt>
      <trkpt lat="44.86863" lon="5.8454">
        <ele>828.6</ele>
        <time>2024-08-27T10:25:15Z</time>
      </trkpt>
      <trkpt lat="44.86865" lon="5.84527">
        <ele>828.4</ele>
        <time>2024-08-27T10:25:16Z</time>
      </trkpt>
      <trkpt lat="44.86867" lon="5.84514">
        <ele>828.3</ele>
        <time>2024-08-27T10:25:17Z</time>
      </trkpt>
      <trkpt lat="44.86869" lon="5.84502">
        <ele>828.2</ele>
        <time>2024-08-27T10:25:18Z</time>
      </trkpt>
      <trkpt lat="44.86871" lon="5.84491">
        <ele>828.1</ele>
        <time>2024-08-27T10:25:19Z</time>
      </trkpt>
      <trkpt lat="44.86874" lon="5.8448">
        <ele>828.1</ele>
        <time>2024-08-27T10:25:20Z</time>
      </trkpt>
      <trkpt lat="44.86878" lon="5.8447">
        <ele>828.1</ele>
        <time>2024-08-27T10:25:21Z</time>
      </trkpt>
      <trkpt lat="44.86882" lon="5.8446">
        <ele>828.1</ele>
        <time>2024-08-27T10:25:22Z</time>
      </trkpt>
      <trkpt lat="44.86885" lon="5.8445">
        <ele>828.2</ele>
        <time>2024-08-27T10:25:23Z</time>
      </trkpt>
      <trkpt lat="44.86886" lon="5.8444">
        <ele>828.4</ele>
        <time>2024-08-27T10:25:24Z</time>
      </trkpt>
      <trkpt lat="44.86886" lon="5.84429">
        <ele>827.8</ele>
        <time>2024-08-27T10:25:25Z</time>
      </trkpt>
      <trkpt lat="44.86886" lon="5.8442">
        <ele>827.2</ele>
        <time>2024-08-27T10:25:26Z</time>
      </trkpt>
      <trkpt lat="44.86888" lon="5.84411">
        <ele>827.1</ele>
        <time>2024-08-27T10:25:27Z</time>
      </trkpt>
      <trkpt lat="44.86889" lon="5.84403">
        <ele>827.1</ele>
        <time>2024-08-27T10:25:28Z</time>
      </trkpt>
      <trkpt lat="44.86891" lon="5.84396">
        <ele>827.3</ele>
        <time>2024-08-27T10:25:29Z</time>
      </trkpt>
      <trkpt lat="44.86892" lon="5.84389">
        <ele>827.6</ele>
        <time>2024-08-27T10:25:30Z</time>
      </trkpt>
      <trkpt lat="44.86893" lon="5.84382">
        <ele>827.8</ele>
        <time>2024-08-27T10:25:31Z</time>
      </trkpt>
      <trkpt lat="44.86894" lon="5.84376">
        <ele>828.1</ele>
        <time>2024-08-27T10:25:32Z</time>
      </trkpt>
      <trkpt lat="44.86894" lon="5.8437">
        <ele>828.3</ele>
        <time>2024-08-27T10:25:33Z</time>
      </trkpt>
      <trkpt lat="44.86895" lon="5.84364">
        <ele>828.5</ele>
        <time>2024-08-27T10:25:34Z</time>
      </trkpt>
      <trkpt lat="44.86895" lon="5.84358">
        <ele>828.7</ele>
        <time>2024-08-27T10:25:35Z</time>
      </trkpt>
      <trkpt lat="44.86895" lon="5.84353">
        <ele>829</ele>
        <time>2024-08-27T10:25:36Z</time>
      </trkpt>
      <trkpt lat="44.86895" lon="5.84347">
        <ele>829.2</ele>
        <time>2024-08-27T10:25:37Z</time>
      </trkpt>
      <trkpt lat="44.86895" lon="5.84342">
        <ele>829.4</ele>
        <time>2024-08-27T10:25:38Z</time>
      </trkpt>
      <trkpt lat="44.86895" lon="5.84337">
        <ele>829.6</ele>
        <time>2024-08-27T10:25:39Z</time>
      </trkpt>
      <trkpt lat="44.86895" lon="5.84331">
        <ele>829.9</ele>
        <time>2024-08-27T10:25:40Z</time>
      </trkpt>
      <trkpt lat="44.86895" lon="5.84326">
        <ele>830.1</ele>
        <time>2024-08-27T10:25:41Z</time>
      </trkpt>
      <trkpt lat="44.86895" lon="5.84321">
        <ele>830.4</ele>
        <time>2024-08-27T10:25:42Z</time>
      </trkpt>
      <trkpt lat="44.86896" lon="5.84316">
        <ele>830.6</ele>
        <time>2024-08-27T10:25:43Z</time>
      </trkpt>
      <trkpt lat="44.86896" lon="5.84311">
        <ele>830.8</ele>
        <time>2024-08-27T10:25:44Z</time>
      </trkpt>
      <trkpt lat="44.86897" lon="5.84307">
        <ele>831</ele>
        <time>2024-08-27T10:25:45Z</time>
      </trkpt>
      <trkpt lat="44.86898" lon="5.84302">
        <ele>831.3</ele>
        <time>2024-08-27T10:25:46Z</time>
      </trkpt>
      <trkpt lat="44.86899" lon="5.84298">
        <ele>831.5</ele>
        <time>2024-08-27T10:25:47Z</time>
      </trkpt>
      <trkpt lat="44.869" lon="5.84294">
        <ele>831.7</ele>
        <time>2024-08-27T10:25:48Z</time>
      </trkpt>
      <trkpt lat="44.86901" lon="5.8429">
        <ele>831.9</ele>
        <time>2024-08-27T10:25:49Z</time>
      </trkpt>
      <trkpt lat="44.86902" lon="5.84286">
        <ele>832.1</ele>
        <time>2024-08-27T10:25:50Z</time>
      </trkpt>
      <trkpt lat="44.86903" lon="5.84282">
        <ele>832.3</ele>
        <time>2024-08-27T10:25:51Z</time>
      </trkpt>
      <trkpt lat="44.86904" lon="5.84278">
        <ele>832.5</ele>
        <time>2024-08-27T10:25:52Z</time>
      </trkpt>
      <trkpt lat="44.86905" lon="5.84274">
        <ele>832.7</ele>
        <time>2024-08-27T10:25:53Z</time>
      </trkpt>
      <trkpt lat="44.86907" lon="5.84271">
        <ele>832.9</ele>
        <time>2024-08-27T10:25:54Z</time>
      </trkpt>
      <trkpt lat="44.86909" lon="5.84266">
        <ele>833.2</ele>
        <time>2024-08-27T10:25:55Z</time>
      </trkpt>
      <trkpt lat="44.8691" lon="5.84265">
        <ele>833.3</ele>
        <time>2024-08-27T10:25:56Z</time>
      </trkpt>
      <trkpt lat="44.86911" lon="5.84261">
        <ele>833.5</ele>
        <time>2024-08-27T10:25:57Z</time>
      </trkpt>
      <trkpt lat="44.86913" lon="5.84258">
        <ele>833.7</ele>
        <time>2024-08-27T10:25:58Z</time>
      </trkpt>
      <trkpt lat="44.86915" lon="5.84255">
        <ele>833.9</ele>
        <time>2024-08-27T10:25:59Z</time>
      </trkpt>
      <trkpt lat="44.86917" lon="5.84252">
        <ele>834</ele>
        <time>2024-08-27T10:26:00Z</time>
      </trkpt>
      <trkpt lat="44.86918" lon="5.84249">
        <ele>834.2</ele>
        <time>2024-08-27T10:26:01Z</time>
      </trkpt>
      <trkpt lat="44.86921" lon="5.84246">
        <ele>834.4</ele>
        <time>2024-08-27T10:26:02Z</time>
      </trkpt>
      <trkpt lat="44.86923" lon="5.84244">
        <ele>834.6</ele>
        <time>2024-08-27T10:26:03Z</time>
      </trkpt>
      <trkpt lat="44.86925" lon="5.84241">
        <ele>834.7</ele>
        <time>2024-08-27T10:26:04Z</time>
      </trkpt>
      <trkpt lat="44.86927" lon="5.84238">
        <ele>834.9</ele>
        <time>2024-08-27T10:26:05Z</time>
      </trkpt>
      <trkpt lat="44.8693" lon="5.84236">
        <ele>835</ele>
        <time>2024-08-27T10:26:06Z</time>
      </trkpt>
      <trkpt lat="44.86932" lon="5.84233">
        <ele>835.2</ele>
        <time>2024-08-27T10:26:07Z</time>
      </trkpt>
      <trkpt lat="44.86934" lon="5.84231">
        <ele>835.3</ele>
        <time>2024-08-27T10:26:08Z</time>
      </trkpt>
      <trkpt lat="44.86937" lon="5.84229">
        <ele>835.5</ele>
        <time>2024-08-27T10:26:09Z</time>
      </trkpt>
      <trkpt lat="44.8694" lon="5.84227">
        <ele>835.6</ele>
        <time>2024-08-27T10:26:10Z</time>
      </trkpt>
      <trkpt lat="44.86942" lon="5.84225">
        <ele>835.7</ele>
        <time>2024-08-27T10:26:11Z</time>
      </trkpt>
      <trkpt lat="44.86945" lon="5.84223">
        <ele>835.9</ele>
        <time>2024-08-27T10:26:12Z</time>
      </trkpt>
      <trkpt lat="44.86947" lon="5.84221">
        <ele>836</ele>
        <time>2024-08-27T10:26:13Z</time>
      </trkpt>
      <trkpt lat="44.8695" lon="5.84219">
        <ele>836.1</ele>
        <time>2024-08-27T10:26:14Z</time>
      </trkpt>
      <trkpt lat="44.86952" lon="5.84216">
        <ele>836.3</ele>
        <time>2024-08-27T10:26:15Z</time>
      </trkpt>
      <trkpt lat="44.86955" lon="5.84214">
        <ele>836.4</ele>
        <time>2024-08-27T10:26:16Z</time>
      </trkpt>
      <trkpt lat="44.86957" lon="5.84212">
        <ele>836.5</ele>
        <time>2024-08-27T10:26:17Z</time>
      </trkpt>
      <trkpt lat="44.8696" lon="5.84209">
        <ele>836.7</ele>
        <time>2024-08-27T10:26:18Z</time>
      </trkpt>
      <trkpt lat="44.86961" lon="5.84208">
        <ele>836.8</ele>
        <time>2024-08-27T10:26:19Z</time>
      </trkpt>
      <trkpt lat="44.86962" lon="5.84207">
        <ele>836.9</ele>
        <time>2024-08-27T10:26:20Z</time>
      </trkpt>
      <trkpt lat="44.86963" lon="5.84207">
        <ele>836.9</ele>
        <time>2024-08-27T10:26:21Z</time>
      </trkpt>
      <trkpt lat="44.86963" lon="5.84206">
        <ele>836.9</ele>
        <time>2024-08-27T10:26:22Z</time>
      </trkpt>
      <trkpt lat="44.86963" lon="5.84206">
        <ele>836.9</ele>
        <time>2024-08-27T10:26:23Z</time>
      </trkpt>
      <trkpt lat="44.86963" lon="5.84205">
        <ele>836.9</ele>
        <time>2024-08-27T10:26:24Z</time>
      </trkpt>
      <trkpt lat="44.86964" lon="5.84205">
        <ele>837</ele>
        <time>2024-08-27T10:26:25Z</time>
      </trkpt>
      <trkpt lat="44.86964" lon="5.84205">
        <ele>837</ele>
        <time>2024-08-27T10:26:26Z</time>
      </trkpt>
      <trkpt lat="44.86964" lon="5.84204">
        <ele>837</ele>
        <time>2024-08-27T10:26:27Z</time>
      </trkpt>
      <trkpt lat="44.86965" lon="5.84204">
        <ele>837</ele>
        <time>2024-08-27T10:26:28Z</time>
      </trkpt>
      <trkpt lat="44.86965" lon="5.84203">
        <ele>837</ele>
        <time>2024-08-27T10:26:29Z</time>
      </trkpt>
      <trkpt lat="44.86965" lon="5.84203">
        <ele>837.1</ele>
        <time>2024-08-27T10:26:30Z</time>
      </trkpt>
      <trkpt lat="44.86965" lon="5.84203">
        <ele>837.1</ele>
        <time>2024-08-27T10:26:31Z</time>
      </trkpt>
      <trkpt lat="44.86966" lon="5.84202">
        <ele>837.1</ele>
        <time>2024-08-27T10:26:32Z</time>
      </trkpt>
      <trkpt lat="44.86966" lon="5.84202">
        <ele>837.1</ele>
        <time>2024-08-27T10:27:03Z</time>
      </trkpt>
      <trkpt lat="44.86966" lon="5.84201">
        <ele>837.1</ele>
        <time>2024-08-27T10:27:04Z</time>
      </trkpt>
      <trkpt lat="44.86967" lon="5.84201">
        <ele>837.2</ele>
        <time>2024-08-27T10:27:05Z</time>
      </trkpt>
      <trkpt lat="44.86969" lon="5.84197">
        <ele>837.4</ele>
        <time>2024-08-27T10:27:06Z</time>
      </trkpt>
      <trkpt lat="44.8697" lon="5.84196">
        <ele>837.4</ele>
        <time>2024-08-27T10:27:07Z</time>
      </trkpt>
      <trkpt lat="44.86973" lon="5.84193">
        <ele>837.6</ele>
        <time>2024-08-27T10:27:08Z</time>
      </trkpt>
      <trkpt lat="44.86975" lon="5.84191">
        <ele>837.7</ele>
        <time>2024-08-27T10:27:09Z</time>
      </trkpt>
      <trkpt lat="44.86978" lon="5.84189">
        <ele>837.9</ele>
        <time>2024-08-27T10:27:10Z</time>
      </trkpt>
      <trkpt lat="44.86981" lon="5.84186">
        <ele>838.1</ele>
        <time>2024-08-27T10:27:11Z</time>
      </trkpt>
      <trkpt lat="44.86983" lon="5.84184">
        <ele>838.2</ele>
        <time>2024-08-27T10:27:12Z</time>
      </trkpt>
      <trkpt lat="44.86986" lon="5.84181">
        <ele>838.4</ele>
        <time>2024-08-27T10:27:13Z</time>
      </trkpt>
      <trkpt lat="44.86989" lon="5.84178">
        <ele>838.5</ele>
        <time>2024-08-27T10:27:14Z</time>
      </trkpt>
      <trkpt lat="44.86991" lon="5.84175">
        <ele>838.7</ele>
        <time>2024-08-27T10:27:15Z</time>
      </trkpt>
      <trkpt lat="44.86993" lon="5.84172">
        <ele>838.9</ele>
        <time>2024-08-27T10:27:16Z</time>
      </trkpt>
      <trkpt lat="44.86996" lon="5.84169">
        <ele>839</ele>
        <time>2024-08-27T10:27:17Z</time>
      </trkpt>
      <trkpt lat="44.86998" lon="5.84165">
        <ele>839.2</ele>
        <time>2024-08-27T10:27:18Z</time>
      </trkpt>
      <trkpt lat="44.87" lon="5.84162">
        <ele>839.4</ele>
        <time>2024-08-27T10:27:19Z</time>
      </trkpt>
      <trkpt lat="44.87002" lon="5.84158">
        <ele>839.5</ele>
        <time>2024-08-27T10:27:20Z</time>
      </trkpt>
      <trkpt lat="44.87004" lon="5.84154">
        <ele>839.7</ele>
        <time>2024-08-27T10:27:21Z</time>
      </trkpt>
      <trkpt lat="44.87005" lon="5.84151">
        <ele>839.8</ele>
        <time>2024-08-27T10:27:22Z</time>
      </trkpt>
      <trkpt lat="44.87007" lon="5.84147">
        <ele>839.9</ele>
        <time>2024-08-27T10:27:23Z</time>
      </trkpt>
      <trkpt lat="44.87008" lon="5.84143">
        <ele>840.1</ele>
        <time>2024-08-27T10:27:24Z</time>
      </trkpt>
      <trkpt lat="44.87009" lon="5.84138">
        <ele>840.3</ele>
        <time>2024-08-27T10:27:25Z</time>
      </trkpt>
      <trkpt lat="44.8701" lon="5.84134">
        <ele>840.4</ele>
        <time>2024-08-27T10:27:26Z</time>
      </trkpt>
      <trkpt lat="44.87011" lon="5.84129">
        <ele>840.6</ele>
        <time>2024-08-27T10:27:27Z</time>
      </trkpt>
      <trkpt lat="44.87012" lon="5.84125">
        <ele>840.7</ele>
        <time>2024-08-27T10:27:28Z</time>
      </trkpt>
      <trkpt lat="44.87013" lon="5.8412">
        <ele>840.9</ele>
        <time>2024-08-27T10:27:29Z</time>
      </trkpt>
      <trkpt lat="44.87013" lon="5.84115">
        <ele>841.1</ele>
        <time>2024-08-27T10:27:30Z</time>
      </trkpt>
      <trkpt lat="44.87014" lon="5.84111">
        <ele>841.2</ele>
        <time>2024-08-27T10:27:31Z</time>
      </trkpt>
      <trkpt lat="44.87014" lon="5.84106">
        <ele>841.4</ele>
        <time>2024-08-27T10:27:32Z</time>
      </trkpt>
      <trkpt lat="44.87015" lon="5.84101">
        <ele>841.5</ele>
        <time>2024-08-27T10:27:33Z</time>
      </trkpt>
      <trkpt lat="44.87015" lon="5.84097">
        <ele>841.7</ele>
        <time>2024-08-27T10:27:34Z</time>
      </trkpt>
      <trkpt lat="44.87015" lon="5.84092">
        <ele>841.9</ele>
        <time>2024-08-27T10:27:35Z</time>
      </trkpt>
      <trkpt lat="44.87015" lon="5.84087">
        <ele>842</ele>
        <time>2024-08-27T10:27:36Z</time>
      </trkpt>
      <trkpt lat="44.87016" lon="5.84082">
        <ele>842.2</ele>
        <time>2024-08-27T10:27:37Z</time>
      </trkpt>
      <trkpt lat="44.87016" lon="5.84078">
        <ele>842.4</ele>
        <time>2024-08-27T10:27:38Z</time>
      </trkpt>
      <trkpt lat="44.87016" lon="5.84073">
        <ele>842.6</ele>
        <time>2024-08-27T10:27:39Z</time>
      </trkpt>
      <trkpt lat="44.87016" lon="5.84069">
        <ele>842.7</ele>
        <time>2024-08-27T10:27:40Z</time>
      </trkpt>
      <trkpt lat="44.87016" lon="5.84064">
        <ele>842.9</ele>
        <time>2024-08-27T10:27:41Z</time>
      </trkpt>
      <trkpt lat="44.87016" lon="5.8406">
        <ele>843.1</ele>
        <time>2024-08-27T10:27:42Z</time>
      </trkpt>
      <trkpt lat="44.87016" lon="5.84055">
        <ele>843.3</ele>
        <time>2024-08-27T10:27:43Z</time>
      </trkpt>
      <trkpt lat="44.87016" lon="5.84051">
        <ele>843.4</ele>
        <time>2024-08-27T10:27:44Z</time>
      </trkpt>
      <trkpt lat="44.87016" lon="5.84047">
        <ele>843.6</ele>
        <time>2024-08-27T10:27:45Z</time>
      </trkpt>
      <trkpt lat="44.87017" lon="5.84043">
        <ele>843.8</ele>
        <time>2024-08-27T10:27:46Z</time>
      </trkpt>
      <trkpt lat="44.87017" lon="5.84039">
        <ele>843.9</ele>
        <time>2024-08-27T10:27:47Z</time>
      </trkpt>
      <trkpt lat="44.87017" lon="5.84034">
        <ele>844.1</ele>
        <time>2024-08-27T10:27:48Z</time>
      </trkpt>
      <trkpt lat="44.87017" lon="5.8403">
        <ele>844.3</ele>
        <time>2024-08-27T10:27:49Z</time>
      </trkpt>
      <trkpt lat="44.87018" lon="5.84026">
        <ele>844.5</ele>
        <time>2024-08-27T10:27:50Z</time>
      </trkpt>
      <trkpt lat="44.87018" lon="5.84022">
        <ele>844.6</ele>
        <time>2024-08-27T10:27:51Z</time>
      </trkpt>
      <trkpt lat="44.87019" lon="5.84018">
        <ele>844.8</ele>
        <time>2024-08-27T10:27:52Z</time>
      </trkpt>
      <trkpt lat="44.8702" lon="5.84014">
        <ele>845</ele>
        <time>2024-08-27T10:27:53Z</time>
      </trkpt>
      <trkpt lat="44.87021" lon="5.8401">
        <ele>845.1</ele>
        <time>2024-08-27T10:27:54Z</time>
      </trkpt>
      <trkpt lat="44.87022" lon="5.84006">
        <ele>845.3</ele>
        <time>2024-08-27T10:27:55Z</time>
      </trkpt>
      <trkpt lat="44.87024" lon="5.84002">
        <ele>845.5</ele>
        <time>2024-08-27T10:27:56Z</time>
      </trkpt>
      <trkpt lat="44.87025" lon="5.83999">
        <ele>845.7</ele>
        <time>2024-08-27T10:27:57Z</time>
      </trkpt>
      <trkpt lat="44.87027" lon="5.83994">
        <ele>846</ele>
        <time>2024-08-27T10:27:58Z</time>
      </trkpt>
      <trkpt lat="44.87028" lon="5.83992">
        <ele>846.1</ele>
        <time>2024-08-27T10:27:59Z</time>
      </trkpt>
      <trkpt lat="44.87031" lon="5.83988">
        <ele>846.3</ele>
        <time>2024-08-27T10:28:00Z</time>
      </trkpt>
      <trkpt lat="44.87032" lon="5.83987">
        <ele>846.4</ele>
        <time>2024-08-27T10:28:01Z</time>
      </trkpt>
      <trkpt lat="44.87035" lon="5.83983">
        <ele>846.6</ele>
        <time>2024-08-27T10:28:02Z</time>
      </trkpt>
      <trkpt lat="44.87036" lon="5.83982">
        <ele>846.7</ele>
        <time>2024-08-27T10:28:03Z</time>
      </trkpt>
      <trkpt lat="44.8704" lon="5.8398">
        <ele>847</ele>
        <time>2024-08-27T10:28:04Z</time>
      </trkpt>
      <trkpt lat="44.87045" lon="5.83979">
        <ele>847.3</ele>
        <time>2024-08-27T10:28:05Z</time>
      </trkpt>
      <trkpt lat="44.8705" lon="5.83977">
        <ele>847.5</ele>
        <time>2024-08-27T10:28:06Z</time>
      </trkpt>
      <trkpt lat="44.87053" lon="5.83975">
        <ele>847.7</ele>
        <time>2024-08-27T10:28:07Z</time>
      </trkpt>
      <trkpt lat="44.87057" lon="5.83974">
        <ele>847.9</ele>
        <time>2024-08-27T10:28:08Z</time>
      </trkpt>
      <trkpt lat="44.8706" lon="5.83973">
        <ele>848.1</ele>
        <time>2024-08-27T10:28:09Z</time>
      </trkpt>
      <trkpt lat="44.87063" lon="5.83971">
        <ele>848.2</ele>
        <time>2024-08-27T10:28:10Z</time>
      </trkpt>
      <trkpt lat="44.87067" lon="5.8397">
        <ele>848.4</ele>
        <time>2024-08-27T10:28:11Z</time>
      </trkpt>
      <trkpt lat="44.8707" lon="5.83968">
        <ele>848.5</ele>
        <time>2024-08-27T10:28:12Z</time>
      </trkpt>
      <trkpt lat="44.87073" lon="5.83967">
        <ele>848.7</ele>
        <time>2024-08-27T10:28:13Z</time>
      </trkpt>
      <trkpt lat="44.87076" lon="5.83965">
        <ele>848.8</ele>
        <time>2024-08-27T10:28:14Z</time>
      </trkpt>
      <trkpt lat="44.87079" lon="5.83963">
        <ele>848.9</ele>
        <time>2024-08-27T10:28:15Z</time>
      </trkpt>
      <trkpt lat="44.87082" lon="5.83962">
        <ele>849</ele>
        <time>2024-08-27T10:28:16Z</time>
      </trkpt>
      <trkpt lat="44.87085" lon="5.8396">
        <ele>849.2</ele>
        <time>2024-08-27T10:28:17Z</time>
      </trkpt>
      <trkpt lat="44.87088" lon="5.83958">
        <ele>849.3</ele>
        <time>2024-08-27T10:28:18Z</time>
      </trkpt>
      <trkpt lat="44.87091" lon="5.83956">
        <ele>849.4</ele>
        <time>2024-08-27T10:28:19Z</time>
      </trkpt>
      <trkpt lat="44.87094" lon="5.83955">
        <ele>849.5</ele>
        <time>2024-08-27T10:28:20Z</time>
      </trkpt>
      <trkpt lat="44.87097" lon="5.83953">
        <ele>849.6</ele>
        <time>2024-08-27T10:28:21Z</time>
      </trkpt>
      <trkpt lat="44.871" lon="5.83951">
        <ele>849.7</ele>
        <time>2024-08-27T10:28:22Z</time>
      </trkpt>
      <trkpt lat="44.87103" lon="5.83949">
        <ele>849.8</ele>
        <time>2024-08-27T10:28:23Z</time>
      </trkpt>
      <trkpt lat="44.87106" lon="5.83947">
        <ele>849.9</ele>
        <time>2024-08-27T10:28:24Z</time>
      </trkpt>
      <trkpt lat="44.8711" lon="5.83946">
        <ele>850</ele>
        <time>2024-08-27T10:28:25Z</time>
      </trkpt>
      <trkpt lat="44.87113" lon="5.83944">
        <ele>850.1</ele>
        <time>2024-08-27T10:28:26Z</time>
      </trkpt>
      <trkpt lat="44.87117" lon="5.83942">
        <ele>850.2</ele>
        <time>2024-08-27T10:28:27Z</time>
      </trkpt>
      <trkpt lat="44.8712" lon="5.8394">
        <ele>850.3</ele>
        <time>2024-08-27T10:28:28Z</time>
      </trkpt>
      <trkpt lat="44.87124" lon="5.83939">
        <ele>850.4</ele>
        <time>2024-08-27T10:28:29Z</time>
      </trkpt>
      <trkpt lat="44.87127" lon="5.83937">
        <ele>850.5</ele>
        <time>2024-08-27T10:28:30Z</time>
      </trkpt>
      <trkpt lat="44.8713" lon="5.83936">
        <ele>850.5</ele>
        <time>2024-08-27T10:28:31Z</time>
      </trkpt>
      <trkpt lat="44.87134" lon="5.83934">
        <ele>850.6</ele>
        <time>2024-08-27T10:28:32Z</time>
      </trkpt>
      <trkpt lat="44.87138" lon="5.83932">
        <ele>850.7</ele>
        <time>2024-08-27T10:28:33Z</time>
      </trkpt>
      <trkpt lat="44.87142" lon="5.8393">
        <ele>850.8</ele>
        <time>2024-08-27T10:28:34Z</time>
      </trkpt>
      <trkpt lat="44.87147" lon="5.83928">
        <ele>850.9</ele>
        <time>2024-08-27T10:28:35Z</time>
      </trkpt>
      <trkpt lat="44.87151" lon="5.83926">
        <ele>850.9</ele>
        <time>2024-08-27T10:28:36Z</time>
      </trkpt>
      <trkpt lat="44.87155" lon="5.83924">
        <ele>851</ele>
        <time>2024-08-27T10:28:37Z</time>
      </trkpt>
      <trkpt lat="44.8716" lon="5.83923">
        <ele>851.1</ele>
        <time>2024-08-27T10:28:38Z</time>
      </trkpt>
      <trkpt lat="44.87164" lon="5.83922">
        <ele>851.2</ele>
        <time>2024-08-27T10:28:39Z</time>
      </trkpt>
      <trkpt lat="44.87169" lon="5.83921">
        <ele>851.3</ele>
        <time>2024-08-27T10:28:40Z</time>
      </trkpt>
      <trkpt lat="44.87174" lon="5.83919">
        <ele>851.3</ele>
        <time>2024-08-27T10:28:41Z</time>
      </trkpt>
      <trkpt lat="44.87178" lon="5.83918">
        <ele>851.4</ele>
        <time>2024-08-27T10:28:42Z</time>
      </trkpt>
      <trkpt lat="44.87182" lon="5.83916">
        <ele>851.5</ele>
        <time>2024-08-27T10:28:43Z</time>
      </trkpt>
      <trkpt lat="44.87186" lon="5.83914">
        <ele>851.5</ele>
        <time>2024-08-27T10:28:44Z</time>
      </trkpt>
      <trkpt lat="44.8719" lon="5.83912">
        <ele>851.6</ele>
        <time>2024-08-27T10:28:45Z</time>
      </trkpt>
      <trkpt lat="44.87195" lon="5.8391">
        <ele>851.6</ele>
        <time>2024-08-27T10:28:46Z</time>
      </trkpt>
      <trkpt lat="44.87199" lon="5.83908">
        <ele>851.7</ele>
        <time>2024-08-27T10:28:47Z</time>
      </trkpt>
      <trkpt lat="44.87203" lon="5.83906">
        <ele>851.7</ele>
        <time>2024-08-27T10:28:48Z</time>
      </trkpt>
      <trkpt lat="44.87208" lon="5.83904">
        <ele>851.8</ele>
        <time>2024-08-27T10:28:49Z</time>
      </trkpt>
      <trkpt lat="44.87212" lon="5.83902">
        <ele>851.8</ele>
        <time>2024-08-27T10:28:50Z</time>
      </trkpt>
      <trkpt lat="44.87217" lon="5.839">
        <ele>851.9</ele>
        <time>2024-08-27T10:28:51Z</time>
      </trkpt>
      <trkpt lat="44.87221" lon="5.83898">
        <ele>851.9</ele>
        <time>2024-08-27T10:28:52Z</time>
      </trkpt>
      <trkpt lat="44.87225" lon="5.83895">
        <ele>852</ele>
        <time>2024-08-27T10:28:53Z</time>
      </trkpt>
      <trkpt lat="44.8723" lon="5.83893">
        <ele>852</ele>
        <time>2024-08-27T10:28:54Z</time>
      </trkpt>
      <trkpt lat="44.87234" lon="5.83891">
        <ele>852</ele>
        <time>2024-08-27T10:28:55Z</time>
      </trkpt>
      <trkpt lat="44.87238" lon="5.83889">
        <ele>852.1</ele>
        <time>2024-08-27T10:28:56Z</time>
      </trkpt>
      <trkpt lat="44.87242" lon="5.83887">
        <ele>852.1</ele>
        <time>2024-08-27T10:28:57Z</time>
      </trkpt>
      <trkpt lat="44.87247" lon="5.83884">
        <ele>852.1</ele>
        <time>2024-08-27T10:28:58Z</time>
      </trkpt>
      <trkpt lat="44.87252" lon="5.83882">
        <ele>852.1</ele>
        <time>2024-08-27T10:28:59Z</time>
      </trkpt>
      <trkpt lat="44.87256" lon="5.8388">
        <ele>852.1</ele>
        <time>2024-08-27T10:29:00Z</time>
      </trkpt>
      <trkpt lat="44.87262" lon="5.83877">
        <ele>852.1</ele>
        <time>2024-08-27T10:29:01Z</time>
      </trkpt>
      <trkpt lat="44.87267" lon="5.83875">
        <ele>852.1</ele>
        <time>2024-08-27T10:29:02Z</time>
      </trkpt>
      <trkpt lat="44.87272" lon="5.83873">
        <ele>852.1</ele>
        <time>2024-08-27T10:29:03Z</time>
      </trkpt>
      <trkpt lat="44.87277" lon="5.83871">
        <ele>852.1</ele>
        <time>2024-08-27T10:29:04Z</time>
      </trkpt>
      <trkpt lat="44.87282" lon="5.83869">
        <ele>852</ele>
        <time>2024-08-27T10:29:05Z</time>
      </trkpt>
      <trkpt lat="44.87288" lon="5.83868">
        <ele>852</ele>
        <time>2024-08-27T10:29:06Z</time>
      </trkpt>
      <trkpt lat="44.87294" lon="5.83867">
        <ele>852</ele>
        <time>2024-08-27T10:29:07Z</time>
      </trkpt>
      <trkpt lat="44.87299" lon="5.83865">
        <ele>852</ele>
        <time>2024-08-27T10:29:08Z</time>
      </trkpt>
      <trkpt lat="44.87305" lon="5.83864">
        <ele>852</ele>
        <time>2024-08-27T10:29:09Z</time>
      </trkpt>
      <trkpt lat="44.87311" lon="5.83864">
        <ele>852</ele>
        <time>2024-08-27T10:29:10Z</time>
      </trkpt>
      <trkpt lat="44.87316" lon="5.83863">
        <ele>852</ele>
        <time>2024-08-27T10:29:11Z</time>
      </trkpt>
      <trkpt lat="44.87322" lon="5.83863">
        <ele>852</ele>
        <time>2024-08-27T10:29:12Z</time>
      </trkpt>
      <trkpt lat="44.87329" lon="5.83864">
        <ele>851.9</ele>
        <time>2024-08-27T10:29:13Z</time>
      </trkpt>
      <trkpt lat="44.87333" lon="5.83863">
        <ele>851.9</ele>
        <time>2024-08-27T10:29:14Z</time>
      </trkpt>
      <trkpt lat="44.8734" lon="5.83864">
        <ele>851.9</ele>
        <time>2024-08-27T10:29:15Z</time>
      </trkpt>
      <trkpt lat="44.87346" lon="5.83865">
        <ele>851.9</ele>
        <time>2024-08-27T10:29:16Z</time>
      </trkpt>
      <trkpt lat="44.87353" lon="5.83865">
        <ele>851.8</ele>
        <time>2024-08-27T10:29:17Z</time>
      </trkpt>
      <trkpt lat="44.8736" lon="5.83865">
        <ele>851.8</ele>
        <time>2024-08-27T10:29:18Z</time>
      </trkpt>
      <trkpt lat="44.87367" lon="5.83865">
        <ele>851.7</ele>
        <time>2024-08-27T10:29:19Z</time>
      </trkpt>
      <trkpt lat="44.87373" lon="5.83867">
        <ele>851.6</ele>
        <time>2024-08-27T10:29:20Z</time>
      </trkpt>
      <trkpt lat="44.87379" lon="5.83868">
        <ele>851.5</ele>
        <time>2024-08-27T10:29:21Z</time>
      </trkpt>
      <trkpt lat="44.87385" lon="5.83868">
        <ele>851.4</ele>
        <time>2024-08-27T10:29:22Z</time>
      </trkpt>
      <trkpt lat="44.87392" lon="5.8387">
        <ele>851.3</ele>
        <time>2024-08-27T10:29:23Z</time>
      </trkpt>
      <trkpt lat="44.874" lon="5.83871">
        <ele>851.2</ele>
        <time>2024-08-27T10:29:24Z</time>
      </trkpt>
      <trkpt lat="44.87407" lon="5.83872">
        <ele>851.2</ele>
        <time>2024-08-27T10:29:25Z</time>
      </trkpt>
      <trkpt lat="44.87413" lon="5.83872">
        <ele>851.1</ele>
        <time>2024-08-27T10:29:26Z</time>
      </trkpt>
      <trkpt lat="44.87419" lon="5.83873">
        <ele>851.1</ele>
        <time>2024-08-27T10:29:27Z</time>
      </trkpt>
      <trkpt lat="44.87426" lon="5.83871">
        <ele>851</ele>
        <time>2024-08-27T10:29:28Z</time>
      </trkpt>
      <trkpt lat="44.87432" lon="5.83871">
        <ele>851</ele>
        <time>2024-08-27T10:29:29Z</time>
      </trkpt>
      <trkpt lat="44.87439" lon="5.83869">
        <ele>851</ele>
        <time>2024-08-27T10:29:30Z</time>
      </trkpt>
      <trkpt lat="44.87447" lon="5.83868">
        <ele>851</ele>
        <time>2024-08-27T10:29:31Z</time>
      </trkpt>
      <trkpt lat="44.87454" lon="5.83864">
        <ele>851</ele>
        <time>2024-08-27T10:29:32Z</time>
      </trkpt>
      <trkpt lat="44.8746" lon="5.83859">
        <ele>851</ele>
        <time>2024-08-27T10:29:33Z</time>
      </trkpt>
      <trkpt lat="44.87467" lon="5.83855">
        <ele>851</ele>
        <time>2024-08-27T10:29:34Z</time>
      </trkpt>
      <trkpt lat="44.87473" lon="5.83851">
        <ele>851.1</ele>
        <time>2024-08-27T10:29:35Z</time>
      </trkpt>
      <trkpt lat="44.87478" lon="5.83846">
        <ele>851.1</ele>
        <time>2024-08-27T10:29:36Z</time>
      </trkpt>
      <trkpt lat="44.87483" lon="5.83839">
        <ele>851.1</ele>
        <time>2024-08-27T10:29:37Z</time>
      </trkpt>
      <trkpt lat="44.87488" lon="5.83833">
        <ele>851.2</ele>
        <time>2024-08-27T10:29:38Z</time>
      </trkpt>
      <trkpt lat="44.87493" lon="5.83827">
        <ele>851.2</ele>
        <time>2024-08-27T10:29:39Z</time>
      </trkpt>
      <trkpt lat="44.87498" lon="5.83822">
        <ele>851.3</ele>
        <time>2024-08-27T10:29:40Z</time>
      </trkpt>
      <trkpt lat="44.87503" lon="5.83816">
        <ele>851.3</ele>
        <time>2024-08-27T10:29:41Z</time>
      </trkpt>
      <trkpt lat="44.87508" lon="5.83811">
        <ele>851.4</ele>
        <time>2024-08-27T10:29:42Z</time>
      </trkpt>
      <trkpt lat="44.87513" lon="5.83805">
        <ele>851.4</ele>
        <time>2024-08-27T10:29:43Z</time>
      </trkpt>
      <trkpt lat="44.87517" lon="5.838">
        <ele>851.5</ele>
        <time>2024-08-27T10:29:44Z</time>
      </trkpt>
      <trkpt lat="44.87522" lon="5.83795">
        <ele>851.5</ele>
        <time>2024-08-27T10:29:45Z</time>
      </trkpt>
      <trkpt lat="44.87528" lon="5.8379">
        <ele>851.6</ele>
        <time>2024-08-27T10:29:46Z</time>
      </trkpt>
      <trkpt lat="44.87533" lon="5.83785">
        <ele>851.6</ele>
        <time>2024-08-27T10:29:47Z</time>
      </trkpt>
      <trkpt lat="44.87538" lon="5.8378">
        <ele>851.7</ele>
        <time>2024-08-27T10:29:48Z</time>
      </trkpt>
      <trkpt lat="44.87542" lon="5.83776">
        <ele>851.8</ele>
        <time>2024-08-27T10:29:49Z</time>
      </trkpt>
      <trkpt lat="44.87547" lon="5.83771">
        <ele>851.9</ele>
        <time>2024-08-27T10:29:50Z</time>
      </trkpt>
      <trkpt lat="44.87551" lon="5.83766">
        <ele>851.9</ele>
        <time>2024-08-27T10:29:51Z</time>
      </trkpt>
      <trkpt lat="44.87555" lon="5.83761">
        <ele>852</ele>
        <time>2024-08-27T10:29:52Z</time>
      </trkpt>
      <trkpt lat="44.8756" lon="5.83757">
        <ele>852.1</ele>
        <time>2024-08-27T10:29:53Z</time>
      </trkpt>
      <trkpt lat="44.87565" lon="5.83753">
        <ele>852.2</ele>
        <time>2024-08-27T10:29:54Z</time>
      </trkpt>
      <trkpt lat="44.87569" lon="5.83748">
        <ele>852.2</ele>
        <time>2024-08-27T10:29:55Z</time>
      </trkpt>
      <trkpt lat="44.87574" lon="5.83744">
        <ele>852.3</ele>
        <time>2024-08-27T10:29:56Z</time>
      </trkpt>
      <trkpt lat="44.87578" lon="5.8374">
        <ele>852.3</ele>
        <time>2024-08-27T10:29:57Z</time>
      </trkpt>
      <trkpt lat="44.87582" lon="5.83736">
        <ele>852.4</ele>
        <time>2024-08-27T10:29:58Z</time>
      </trkpt>
      <trkpt lat="44.87587" lon="5.83731">
        <ele>852.4</ele>
        <time>2024-08-27T10:29:59Z</time>
      </trkpt>
      <trkpt lat="44.87591" lon="5.83727">
        <ele>852.4</ele>
        <time>2024-08-27T10:30:00Z</time>
      </trkpt>
      <trkpt lat="44.87596" lon="5.83723">
        <ele>852.4</ele>
        <time>2024-08-27T10:30:01Z</time>
      </trkpt>
      <trkpt lat="44.876" lon="5.83718">
        <ele>852.5</ele>
        <time>2024-08-27T10:30:02Z</time>
      </trkpt>
      <trkpt lat="44.87605" lon="5.83714">
        <ele>852.5</ele>
        <time>2024-08-27T10:30:03Z</time>
      </trkpt>
      <trkpt lat="44.87609" lon="5.83709">
        <ele>852.4</ele>
        <time>2024-08-27T10:30:04Z</time>
      </trkpt>
      <trkpt lat="44.87613" lon="5.83704">
        <ele>852.4</ele>
        <time>2024-08-27T10:30:05Z</time>
      </trkpt>
      <trkpt lat="44.87617" lon="5.83698">
        <ele>852.5</ele>
        <time>2024-08-27T10:30:06Z</time>
      </trkpt>
      <trkpt lat="44.8762" lon="5.83693">
        <ele>852.5</ele>
        <time>2024-08-27T10:30:07Z</time>
      </trkpt>
      <trkpt lat="44.87624" lon="5.83687">
        <ele>852.5</ele>
        <time>2024-08-27T10:30:08Z</time>
      </trkpt>
      <trkpt lat="44.87627" lon="5.83681">
        <ele>852.5</ele>
        <time>2024-08-27T10:30:09Z</time>
      </trkpt>
      <trkpt lat="44.87631" lon="5.83674">
        <ele>852.5</ele>
        <time>2024-08-27T10:30:10Z</time>
      </trkpt>
      <trkpt lat="44.87634" lon="5.83668">
        <ele>852.5</ele>
        <time>2024-08-27T10:30:11Z</time>
      </trkpt>
      <trkpt lat="44.87637" lon="5.83661">
        <ele>852.5</ele>
        <time>2024-08-27T10:30:12Z</time>
      </trkpt>
      <trkpt lat="44.87639" lon="5.83654">
        <ele>852.5</ele>
        <time>2024-08-27T10:30:13Z</time>
      </trkpt>
      <trkpt lat="44.87641" lon="5.83647">
        <ele>852.5</ele>
        <time>2024-08-27T10:30:14Z</time>
      </trkpt>
      <trkpt lat="44.87643" lon="5.8364">
        <ele>852.5</ele>
        <time>2024-08-27T10:30:15Z</time>
      </trkpt>
      <trkpt lat="44.87646" lon="5.83632">
        <ele>852.5</ele>
        <time>2024-08-27T10:30:16Z</time>
      </trkpt>
      <trkpt lat="44.87647" lon="5.83625">
        <ele>852.5</ele>
        <time>2024-08-27T10:30:17Z</time>
      </trkpt>
      <trkpt lat="44.87648" lon="5.83617">
        <ele>852.5</ele>
        <time>2024-08-27T10:30:18Z</time>
      </trkpt>
      <trkpt lat="44.87648" lon="5.83609">
        <ele>852.5</ele>
        <time>2024-08-27T10:30:19Z</time>
      </trkpt>
      <trkpt lat="44.87648" lon="5.83601">
        <ele>852.5</ele>
        <time>2024-08-27T10:30:20Z</time>
      </trkpt>
      <trkpt lat="44.87648" lon="5.83593">
        <ele>852.4</ele>
        <time>2024-08-27T10:30:21Z</time>
      </trkpt>
      <trkpt lat="44.87647" lon="5.83585">
        <ele>852.4</ele>
        <time>2024-08-27T10:30:22Z</time>
      </trkpt>
      <trkpt lat="44.87646" lon="5.83577">
        <ele>852.4</ele>
        <time>2024-08-27T10:30:23Z</time>
      </trkpt>
      <trkpt lat="44.87644" lon="5.8357">
        <ele>852.3</ele>
        <time>2024-08-27T10:30:24Z</time>
      </trkpt>
      <trkpt lat="44.87644" lon="5.83562">
        <ele>852.3</ele>
        <time>2024-08-27T10:30:25Z</time>
      </trkpt>
      <trkpt lat="44.87647" lon="5.83557">
        <ele>853.8</ele>
        <time>2024-08-27T10:30:26Z</time>
      </trkpt>
      <trkpt lat="44.8765" lon="5.83554">
        <ele>855.8</ele>
        <time>2024-08-27T10:30:27Z</time>
      </trkpt>
      <trkpt lat="44.87654" lon="5.83555">
        <ele>857.7</ele>
        <time>2024-08-27T10:30:28Z</time>
      </trkpt>
      <trkpt lat="44.87657" lon="5.83556">
        <ele>859.4</ele>
        <time>2024-08-27T10:30:29Z</time>
      </trkpt>
      <trkpt lat="44.87658" lon="5.83556">
        <ele>859.8</ele>
        <time>2024-08-27T10:30:30Z</time>
      </trkpt>
      <trkpt lat="44.8766" lon="5.83559">
        <ele>860.4</ele>
        <time>2024-08-27T10:30:31Z</time>
      </trkpt>
      <trkpt lat="44.87661" lon="5.8356">
        <ele>860.4</ele>
        <time>2024-08-27T10:30:32Z</time>
      </trkpt>
      <trkpt lat="44.87665" lon="5.83562">
        <ele>860.5</ele>
        <time>2024-08-27T10:30:33Z</time>
      </trkpt>
      <trkpt lat="44.87666" lon="5.83563">
        <ele>860.5</ele>
        <time>2024-08-27T10:30:34Z</time>
      </trkpt>
      <trkpt lat="44.87669" lon="5.83566">
        <ele>860.5</ele>
        <time>2024-08-27T10:30:35Z</time>
      </trkpt>
      <trkpt lat="44.8767" lon="5.83567">
        <ele>860.6</ele>
        <time>2024-08-27T10:30:36Z</time>
      </trkpt>
      <trkpt lat="44.87673" lon="5.8357">
        <ele>860.6</ele>
        <time>2024-08-27T10:30:37Z</time>
      </trkpt>
      <trkpt lat="44.87673" lon="5.83571">
        <ele>860.7</ele>
        <time>2024-08-27T10:30:38Z</time>
      </trkpt>
      <trkpt lat="44.87676" lon="5.83574">
        <ele>860.7</ele>
        <time>2024-08-27T10:30:39Z</time>
      </trkpt>
      <trkpt lat="44.87677" lon="5.83575">
        <ele>860.7</ele>
        <time>2024-08-27T10:30:40Z</time>
      </trkpt>
      <trkpt lat="44.8768" lon="5.83578">
        <ele>861.3</ele>
        <time>2024-08-27T10:30:41Z</time>
      </trkpt>
      <trkpt lat="44.87681" lon="5.83579">
        <ele>861.7</ele>
        <time>2024-08-27T10:30:42Z</time>
      </trkpt>
      <trkpt lat="44.87684" lon="5.83582">
        <ele>862</ele>
        <time>2024-08-27T10:30:43Z</time>
      </trkpt>
      <trkpt lat="44.87685" lon="5.83583">
        <ele>862</ele>
        <time>2024-08-27T10:30:44Z</time>
      </trkpt>
      <trkpt lat="44.87688" lon="5.83587">
        <ele>862</ele>
        <time>2024-08-27T10:30:45Z</time>
      </trkpt>
      <trkpt lat="44.87688" lon="5.83588">
        <ele>862</ele>
        <time>2024-08-27T10:30:46Z</time>
      </trkpt>
      <trkpt lat="44.8769" lon="5.83593">
        <ele>862.1</ele>
        <time>2024-08-27T10:30:47Z</time>
      </trkpt>
      <trkpt lat="44.87691" lon="5.83595">
        <ele>862.1</ele>
        <time>2024-08-27T10:30:48Z</time>
      </trkpt>
      <trkpt lat="44.87693" lon="5.836">
        <ele>862.1</ele>
        <time>2024-08-27T10:30:49Z</time>
      </trkpt>
      <trkpt lat="44.87693" lon="5.83601">
        <ele>862.1</ele>
        <time>2024-08-27T10:30:50Z</time>
      </trkpt>
      <trkpt lat="44.87695" lon="5.83605">
        <ele>862.1</ele>
        <time>2024-08-27T10:30:51Z</time>
      </trkpt>
      <trkpt lat="44.87696" lon="5.8361">
        <ele>862.1</ele>
        <time>2024-08-27T10:30:52Z</time>
      </trkpt>
      <trkpt lat="44.87696" lon="5.83612">
        <ele>862.1</ele>
        <time>2024-08-27T10:30:53Z</time>
      </trkpt>
      <trkpt lat="44.87697" lon="5.83616">
        <ele>862.1</ele>
        <time>2024-08-27T10:30:54Z</time>
      </trkpt>
      <trkpt lat="44.87698" lon="5.83619">
        <ele>862.1</ele>
        <time>2024-08-27T10:30:55Z</time>
      </trkpt>
      <trkpt lat="44.87699" lon="5.83625">
        <ele>862</ele>
        <time>2024-08-27T10:30:56Z</time>
      </trkpt>
      <trkpt lat="44.877" lon="5.83626">
        <ele>862</ele>
        <time>2024-08-27T10:30:57Z</time>
      </trkpt>
      <trkpt lat="44.87701" lon="5.8363">
        <ele>862</ele>
        <time>2024-08-27T10:30:58Z</time>
      </trkpt>
      <trkpt lat="44.87703" lon="5.83635">
        <ele>862</ele>
        <time>2024-08-27T10:30:59Z</time>
      </trkpt>
      <trkpt lat="44.87703" lon="5.83637">
        <ele>862.1</ele>
        <time>2024-08-27T10:31:00Z</time>
      </trkpt>
      <trkpt lat="44.87704" lon="5.83641">
        <ele>862.2</ele>
        <time>2024-08-27T10:31:01Z</time>
      </trkpt>
      <trkpt lat="44.87705" lon="5.83646">
        <ele>862.4</ele>
        <time>2024-08-27T10:31:02Z</time>
      </trkpt>
      <trkpt lat="44.87706" lon="5.83648">
        <ele>862.4</ele>
        <time>2024-08-27T10:31:03Z</time>
      </trkpt>
      <trkpt lat="44.87707" lon="5.83652">
        <ele>862.5</ele>
        <time>2024-08-27T10:31:04Z</time>
      </trkpt>
      <trkpt lat="44.87708" lon="5.83657">
        <ele>862.7</ele>
        <time>2024-08-27T10:31:05Z</time>
      </trkpt>
      <trkpt lat="44.87708" lon="5.83659">
        <ele>862.7</ele>
        <time>2024-08-27T10:31:06Z</time>
      </trkpt>
      <trkpt lat="44.87709" lon="5.83663">
        <ele>862.8</ele>
        <time>2024-08-27T10:31:07Z</time>
      </trkpt>
      <trkpt lat="44.87709" lon="5.83667">
        <ele>863</ele>
        <time>2024-08-27T10:31:08Z</time>
      </trkpt>
      <trkpt lat="44.8771" lon="5.83671">
        <ele>863.1</ele>
        <time>2024-08-27T10:31:09Z</time>
      </trkpt>
      <trkpt lat="44.8771" lon="5.83675">
        <ele>863.2</ele>
        <time>2024-08-27T10:31:10Z</time>
      </trkpt>
      <trkpt lat="44.87711" lon="5.83679">
        <ele>863.4</ele>
        <time>2024-08-27T10:31:11Z</time>
      </trkpt>
      <trkpt lat="44.87712" lon="5.83682">
        <ele>863.5</ele>
        <time>2024-08-27T10:31:12Z</time>
      </trkpt>
      <trkpt lat="44.87712" lon="5.83687">
        <ele>863.6</ele>
        <time>2024-08-27T10:31:13Z</time>
      </trkpt>
      <trkpt lat="44.87713" lon="5.83691">
        <ele>863.8</ele>
        <time>2024-08-27T10:31:14Z</time>
      </trkpt>
      <trkpt lat="44.87714" lon="5.83695">
        <ele>863.9</ele>
        <time>2024-08-27T10:31:15Z</time>
      </trkpt>
      <trkpt lat="44.87715" lon="5.83699">
        <ele>864.1</ele>
        <time>2024-08-27T10:31:16Z</time>
      </trkpt>
      <trkpt lat="44.87716" lon="5.83703">
        <ele>864.2</ele>
        <time>2024-08-27T10:31:17Z</time>
      </trkpt>
      <trkpt lat="44.87716" lon="5.83707">
        <ele>864.4</ele>
        <time>2024-08-27T10:31:18Z</time>
      </trkpt>
      <trkpt lat="44.87717" lon="5.83711">
        <ele>864.5</ele>
        <time>2024-08-27T10:31:19Z</time>
      </trkpt>
      <trkpt lat="44.87717" lon="5.83715">
        <ele>864.7</ele>
        <time>2024-08-27T10:31:20Z</time>
      </trkpt>
      <trkpt lat="44.87717" lon="5.83719">
        <ele>864.8</ele>
        <time>2024-08-27T10:31:21Z</time>
      </trkpt>
      <trkpt lat="44.87717" lon="5.83723">
        <ele>865</ele>
        <time>2024-08-27T10:31:22Z</time>
      </trkpt>
      <trkpt lat="44.87717" lon="5.83727">
        <ele>865.1</ele>
        <time>2024-08-27T10:31:23Z</time>
      </trkpt>
      <trkpt lat="44.87716" lon="5.83732">
        <ele>865.4</ele>
        <time>2024-08-27T10:31:24Z</time>
      </trkpt>
      <trkpt lat="44.87716" lon="5.83734">
        <ele>865.4</ele>
        <time>2024-08-27T10:31:25Z</time>
      </trkpt>
      <trkpt lat="44.87715" lon="5.83738">
        <ele>865.7</ele>
        <time>2024-08-27T10:31:26Z</time>
      </trkpt>
      <trkpt lat="44.87714" lon="5.8374">
        <ele>865.7</ele>
        <time>2024-08-27T10:31:27Z</time>
      </trkpt>
      <trkpt lat="44.87713" lon="5.83744">
        <ele>866</ele>
        <time>2024-08-27T10:31:28Z</time>
      </trkpt>
      <trkpt lat="44.87713" lon="5.83746">
        <ele>866</ele>
        <time>2024-08-27T10:31:29Z</time>
      </trkpt>
      <trkpt lat="44.87712" lon="5.8375">
        <ele>866.2</ele>
        <time>2024-08-27T10:31:30Z</time>
      </trkpt>
      <trkpt lat="44.87711" lon="5.83752">
        <ele>866.3</ele>
        <time>2024-08-27T10:31:31Z</time>
      </trkpt>
      <trkpt lat="44.8771" lon="5.83756">
        <ele>866.5</ele>
        <time>2024-08-27T10:31:32Z</time>
      </trkpt>
      <trkpt lat="44.8771" lon="5.83758">
        <ele>866.6</ele>
        <time>2024-08-27T10:31:33Z</time>
      </trkpt>
      <trkpt lat="44.87708" lon="5.83762">
        <ele>866.9</ele>
        <time>2024-08-27T10:31:34Z</time>
      </trkpt>
      <trkpt lat="44.87708" lon="5.83764">
        <ele>866.9</ele>
        <time>2024-08-27T10:31:35Z</time>
      </trkpt>
      <trkpt lat="44.87707" lon="5.83769">
        <ele>867.2</ele>
        <time>2024-08-27T10:31:36Z</time>
      </trkpt>
      <trkpt lat="44.87706" lon="5.8377">
        <ele>867.2</ele>
        <time>2024-08-27T10:31:37Z</time>
      </trkpt>
      <trkpt lat="44.87705" lon="5.83775">
        <ele>867.4</ele>
        <time>2024-08-27T10:31:38Z</time>
      </trkpt>
      <trkpt lat="44.87704" lon="5.83776">
        <ele>867.5</ele>
        <time>2024-08-27T10:31:39Z</time>
      </trkpt>
      <trkpt lat="44.87703" lon="5.83781">
        <ele>867.7</ele>
        <time>2024-08-27T10:31:40Z</time>
      </trkpt>
      <trkpt lat="44.87703" lon="5.83783">
        <ele>867.7</ele>
        <time>2024-08-27T10:31:41Z</time>
      </trkpt>
      <trkpt lat="44.87701" lon="5.83787">
        <ele>867.9</ele>
        <time>2024-08-27T10:31:42Z</time>
      </trkpt>
      <trkpt lat="44.87701" lon="5.83789">
        <ele>867.9</ele>
        <time>2024-08-27T10:31:43Z</time>
      </trkpt>
      <trkpt lat="44.877" lon="5.83793">
        <ele>868</ele>
        <time>2024-08-27T10:31:44Z</time>
      </trkpt>
      <trkpt lat="44.87698" lon="5.83798">
        <ele>868.1</ele>
        <time>2024-08-27T10:31:45Z</time>
      </trkpt>
      <trkpt lat="44.87698" lon="5.838">
        <ele>868.2</ele>
        <time>2024-08-27T10:31:46Z</time>
      </trkpt>
      <trkpt lat="44.87697" lon="5.83805">
        <ele>868.3</ele>
        <time>2024-08-27T10:31:47Z</time>
      </trkpt>
      <trkpt lat="44.87696" lon="5.83807">
        <ele>868.4</ele>
        <time>2024-08-27T10:31:48Z</time>
      </trkpt>
      <trkpt lat="44.87695" lon="5.83812">
        <ele>868.5</ele>
        <time>2024-08-27T10:31:49Z</time>
      </trkpt>
      <trkpt lat="44.87694" lon="5.83814">
        <ele>868.5</ele>
        <time>2024-08-27T10:31:50Z</time>
      </trkpt>
      <trkpt lat="44.87693" lon="5.83819">
        <ele>868.7</ele>
        <time>2024-08-27T10:31:51Z</time>
      </trkpt>
      <trkpt lat="44.87693" lon="5.83821">
        <ele>868.7</ele>
        <time>2024-08-27T10:31:52Z</time>
      </trkpt>
      <trkpt lat="44.87692" lon="5.83825">
        <ele>868.8</ele>
        <time>2024-08-27T10:31:53Z</time>
      </trkpt>
      <trkpt lat="44.87692" lon="5.83829">
        <ele>868.9</ele>
        <time>2024-08-27T10:31:54Z</time>
      </trkpt>
      <trkpt lat="44.87691" lon="5.83833">
        <ele>869</ele>
        <time>2024-08-27T10:31:55Z</time>
      </trkpt>
      <trkpt lat="44.8769" lon="5.83836">
        <ele>869.1</ele>
        <time>2024-08-27T10:31:56Z</time>
      </trkpt>
      <trkpt lat="44.8769" lon="5.8384">
        <ele>869.2</ele>
        <time>2024-08-27T10:31:57Z</time>
      </trkpt>
      <trkpt lat="44.8769" lon="5.83844">
        <ele>869.3</ele>
        <time>2024-08-27T10:31:58Z</time>
      </trkpt>
      <trkpt lat="44.87689" lon="5.8385">
        <ele>869.5</ele>
        <time>2024-08-27T10:31:59Z</time>
      </trkpt>
      <trkpt lat="44.87689" lon="5.83852">
        <ele>869.5</ele>
        <time>2024-08-27T10:32:00Z</time>
      </trkpt>
      <trkpt lat="44.87689" lon="5.83856">
        <ele>869.6</ele>
        <time>2024-08-27T10:32:01Z</time>
      </trkpt>
      <trkpt lat="44.87688" lon="5.8386">
        <ele>869.7</ele>
        <time>2024-08-27T10:32:02Z</time>
      </trkpt>
      <trkpt lat="44.87688" lon="5.83864">
        <ele>869.8</ele>
        <time>2024-08-27T10:32:03Z</time>
      </trkpt>
      <trkpt lat="44.87688" lon="5.83868">
        <ele>869.9</ele>
        <time>2024-08-27T10:32:04Z</time>
      </trkpt>
      <trkpt lat="44.87688" lon="5.83871">
        <ele>870</ele>
        <time>2024-08-27T10:32:05Z</time>
      </trkpt>
      <trkpt lat="44.87688" lon="5.83875">
        <ele>870.1</ele>
        <time>2024-08-27T10:32:06Z</time>
      </trkpt>
      <trkpt lat="44.87688" lon="5.8388">
        <ele>870.2</ele>
        <time>2024-08-27T10:32:07Z</time>
      </trkpt>
      <trkpt lat="44.87688" lon="5.83881">
        <ele>870.3</ele>
        <time>2024-08-27T10:32:08Z</time>
      </trkpt>
      <trkpt lat="44.87688" lon="5.83882">
        <ele>870.3</ele>
        <time>2024-08-27T10:32:09Z</time>
      </trkpt>
      <trkpt lat="44.87688" lon="5.83882">
        <ele>870.3</ele>
        <time>2024-08-27T10:32:10Z</time>
      </trkpt>
      <trkpt lat="44.87688" lon="5.83882">
        <ele>870.3</ele>
        <time>2024-08-27T10:32:11Z</time>
      </trkpt>
      <trkpt lat="44.87689" lon="5.83882">
        <ele>870.3</ele>
        <time>2024-08-27T10:32:12Z</time>
      </trkpt>
      <trkpt lat="44.87689" lon="5.83882">
        <ele>870.3</ele>
        <time>2024-08-27T10:32:13Z</time>
      </trkpt>
      <trkpt lat="44.87689" lon="5.83882">
        <ele>870.3</ele>
        <time>2024-08-27T10:32:14Z</time>
      </trkpt>
      <trkpt lat="44.87689" lon="5.83882">
        <ele>870.4</ele>
        <time>2024-08-27T10:32:15Z</time>
      </trkpt>
      <trkpt lat="44.8769" lon="5.83882">
        <ele>870.4</ele>
        <time>2024-08-27T10:32:16Z</time>
      </trkpt>
      <trkpt lat="44.8769" lon="5.83882">
        <ele>870.4</ele>
        <time>2024-08-27T10:32:17Z</time>
      </trkpt>
      <trkpt lat="44.8769" lon="5.83882">
        <ele>870.4</ele>
        <time>2024-08-27T10:32:18Z</time>
      </trkpt>
      <trkpt lat="44.8769" lon="5.83882">
        <ele>870.4</ele>
        <time>2024-08-27T10:32:19Z</time>
      </trkpt>
      <trkpt lat="44.8769" lon="5.83882">
        <ele>870.4</ele>
        <time>2024-08-27T10:32:29Z</time>
      </trkpt>
      <trkpt lat="44.87691" lon="5.83882">
        <ele>870.4</ele>
        <time>2024-08-27T10:32:30Z</time>
      </trkpt>
      <trkpt lat="44.87691" lon="5.83882">
        <ele>870.4</ele>
        <time>2024-08-27T10:32:31Z</time>
      </trkpt>
      <trkpt lat="44.87691" lon="5.83882">
        <ele>870.4</ele>
        <time>2024-08-27T10:32:32Z</time>
      </trkpt>
      <trkpt lat="44.87691" lon="5.83882">
        <ele>870.4</ele>
        <time>2024-08-27T10:32:33Z</time>
      </trkpt>
      <trkpt lat="44.87691" lon="5.83881">
        <ele>870.4</ele>
        <time>2024-08-27T10:32:34Z</time>
      </trkpt>
      <trkpt lat="44.87692" lon="5.83881">
        <ele>870.4</ele>
        <time>2024-08-27T10:32:35Z</time>
      </trkpt>
      <trkpt lat="44.87692" lon="5.83881">
        <ele>870.4</ele>
        <time>2024-08-27T10:32:36Z</time>
      </trkpt>
      <trkpt lat="44.87692" lon="5.83881">
        <ele>870.5</ele>
        <time>2024-08-27T10:32:37Z</time>
      </trkpt>
      <trkpt lat="44.87692" lon="5.83881">
        <ele>870.5</ele>
        <time>2024-08-27T10:32:38Z</time>
      </trkpt>
      <trkpt lat="44.87692" lon="5.83881">
        <ele>870.5</ele>
        <time>2024-08-27T10:32:39Z</time>
      </trkpt>
      <trkpt lat="44.87693" lon="5.83881">
        <ele>870.5</ele>
        <time>2024-08-27T10:32:40Z</time>
      </trkpt>
      <trkpt lat="44.87693" lon="5.83881">
        <ele>870.5</ele>
        <time>2024-08-27T10:32:41Z</time>
      </trkpt>
      <trkpt lat="44.87693" lon="5.83881">
        <ele>870.5</ele>
        <time>2024-08-27T10:32:42Z</time>
      </trkpt>
      <trkpt lat="44.87693" lon="5.83881">
        <ele>870.5</ele>
        <time>2024-08-27T10:32:43Z</time>
      </trkpt>
      <trkpt lat="44.87693" lon="5.83881">
        <ele>870.5</ele>
        <time>2024-08-27T10:32:44Z</time>
      </trkpt>
      <trkpt lat="44.87694" lon="5.83881">
        <ele>870.5</ele>
        <time>2024-08-27T10:32:45Z</time>
      </trkpt>
      <trkpt lat="44.87694" lon="5.83881">
        <ele>870.5</ele>
        <time>2024-08-27T10:32:46Z</time>
      </trkpt>
      <trkpt lat="44.87694" lon="5.83881">
        <ele>870.5</ele>
        <time>2024-08-27T10:32:47Z</time>
      </trkpt>
      <trkpt lat="44.87694" lon="5.83881">
        <ele>870.5</ele>
        <time>2024-08-27T10:32:48Z</time>
      </trkpt>
      <trkpt lat="44.87694" lon="5.83881">
        <ele>870.5</ele>
        <time>2024-08-27T10:32:49Z</time>
      </trkpt>
      <trkpt lat="44.87695" lon="5.83881">
        <ele>870.6</ele>
        <time>2024-08-27T10:34:14Z</time>
      </trkpt>
      <trkpt lat="44.87695" lon="5.8388">
        <ele>870.6</ele>
        <time>2024-08-27T10:34:15Z</time>
      </trkpt>
      <trkpt lat="44.87695" lon="5.8388">
        <ele>870.6</ele>
        <time>2024-08-27T10:34:16Z</time>
      </trkpt>
      <trkpt lat="44.87694" lon="5.83875">
        <ele>870.4</ele>
        <time>2024-08-27T10:34:17Z</time>
      </trkpt>
      <trkpt lat="44.87694" lon="5.83873">
        <ele>870.3</ele>
        <time>2024-08-27T10:34:18Z</time>
      </trkpt>
      <trkpt lat="44.87694" lon="5.83868">
        <ele>870.2</ele>
        <time>2024-08-27T10:34:19Z</time>
      </trkpt>
      <trkpt lat="44.87694" lon="5.83863">
        <ele>870.1</ele>
        <time>2024-08-27T10:34:20Z</time>
      </trkpt>
      <trkpt lat="44.87694" lon="5.83858">
        <ele>869.9</ele>
        <time>2024-08-27T10:34:21Z</time>
      </trkpt>
      <trkpt lat="44.87694" lon="5.83853">
        <ele>869.8</ele>
        <time>2024-08-27T10:34:22Z</time>
      </trkpt>
      <trkpt lat="44.87694" lon="5.83846">
        <ele>869.6</ele>
        <time>2024-08-27T10:34:23Z</time>
      </trkpt>
      <trkpt lat="44.87695" lon="5.8384">
        <ele>869.5</ele>
        <time>2024-08-27T10:34:24Z</time>
      </trkpt>
      <trkpt lat="44.87696" lon="5.83833">
        <ele>869.3</ele>
        <time>2024-08-27T10:34:25Z</time>
      </trkpt>
      <trkpt lat="44.87697" lon="5.83826">
        <ele>869.1</ele>
        <time>2024-08-27T10:34:26Z</time>
      </trkpt>
      <trkpt lat="44.87698" lon="5.83819">
        <ele>868.9</ele>
        <time>2024-08-27T10:34:27Z</time>
      </trkpt>
      <trkpt lat="44.87699" lon="5.83812">
        <ele>868.7</ele>
        <time>2024-08-27T10:34:28Z</time>
      </trkpt>
      <trkpt lat="44.87701" lon="5.83805">
        <ele>868.5</ele>
        <time>2024-08-27T10:34:29Z</time>
      </trkpt>
      <trkpt lat="44.87703" lon="5.83798">
        <ele>868.3</ele>
        <time>2024-08-27T10:34:30Z</time>
      </trkpt>
      <trkpt lat="44.87705" lon="5.8379">
        <ele>868.1</ele>
        <time>2024-08-27T10:34:31Z</time>
      </trkpt>
      <trkpt lat="44.87707" lon="5.83782">
        <ele>867.9</ele>
        <time>2024-08-27T10:34:32Z</time>
      </trkpt>
      <trkpt lat="44.87709" lon="5.83775">
        <ele>867.7</ele>
        <time>2024-08-27T10:34:33Z</time>
      </trkpt>
      <trkpt lat="44.87711" lon="5.83766">
        <ele>867.4</ele>
        <time>2024-08-27T10:34:34Z</time>
      </trkpt>
      <trkpt lat="44.87713" lon="5.83758">
        <ele>867</ele>
        <time>2024-08-27T10:34:35Z</time>
      </trkpt>
      <trkpt lat="44.87716" lon="5.83748">
        <ele>866.5</ele>
        <time>2024-08-27T10:34:36Z</time>
      </trkpt>
      <trkpt lat="44.87718" lon="5.83739">
        <ele>866</ele>
        <time>2024-08-27T10:34:37Z</time>
      </trkpt>
      <trkpt lat="44.8772" lon="5.83729">
        <ele>865.5</ele>
        <time>2024-08-27T10:34:38Z</time>
      </trkpt>
      <trkpt lat="44.87721" lon="5.83718">
        <ele>865</ele>
        <time>2024-08-27T10:34:39Z</time>
      </trkpt>
      <trkpt lat="44.8772" lon="5.83706">
        <ele>864.5</ele>
        <time>2024-08-27T10:34:40Z</time>
      </trkpt>
      <trkpt lat="44.87718" lon="5.83695">
        <ele>864.1</ele>
        <time>2024-08-27T10:34:41Z</time>
      </trkpt>
      <trkpt lat="44.87716" lon="5.83684">
        <ele>863.7</ele>
        <time>2024-08-27T10:34:42Z</time>
      </trkpt>
      <trkpt lat="44.87713" lon="5.83673">
        <ele>863.3</ele>
        <time>2024-08-27T10:34:43Z</time>
      </trkpt>
      <trkpt lat="44.87711" lon="5.83662">
        <ele>862.9</ele>
        <time>2024-08-27T10:34:44Z</time>
      </trkpt>
      <trkpt lat="44.87708" lon="5.83651">
        <ele>862.6</ele>
        <time>2024-08-27T10:34:45Z</time>
      </trkpt>
      <trkpt lat="44.87706" lon="5.8364">
        <ele>862.2</ele>
        <time>2024-08-27T10:34:46Z</time>
      </trkpt>
      <trkpt lat="44.87703" lon="5.83629">
        <ele>862</ele>
        <time>2024-08-27T10:34:47Z</time>
      </trkpt>
      <trkpt lat="44.877" lon="5.83618">
        <ele>862.1</ele>
        <time>2024-08-27T10:34:48Z</time>
      </trkpt>
      <trkpt lat="44.87697" lon="5.83607">
        <ele>862.1</ele>
        <time>2024-08-27T10:34:49Z</time>
      </trkpt>
      <trkpt lat="44.87693" lon="5.83596">
        <ele>862.1</ele>
        <time>2024-08-27T10:34:50Z</time>
      </trkpt>
      <trkpt lat="44.87688" lon="5.83586">
        <ele>862</ele>
        <time>2024-08-27T10:34:51Z</time>
      </trkpt>
      <trkpt lat="44.87681" lon="5.83576">
        <ele>861.4</ele>
        <time>2024-08-27T10:34:52Z</time>
      </trkpt>
      <trkpt lat="44.87675" lon="5.83568">
        <ele>860.7</ele>
        <time>2024-08-27T10:34:53Z</time>
      </trkpt>
      <trkpt lat="44.87667" lon="5.83561">
        <ele>860.5</ele>
        <time>2024-08-27T10:34:54Z</time>
      </trkpt>
      <trkpt lat="44.87659" lon="5.83555">
        <ele>860.1</ele>
        <time>2024-08-27T10:34:55Z</time>
      </trkpt>
      <trkpt lat="44.87652" lon="5.83551">
        <ele>856.5</ele>
        <time>2024-08-27T10:34:56Z</time>
      </trkpt>
      <trkpt lat="44.87646" lon="5.83548">
        <ele>853.6</ele>
        <time>2024-08-27T10:34:57Z</time>
      </trkpt>
      <trkpt lat="44.87641" lon="5.83544">
        <ele>852.2</ele>
        <time>2024-08-27T10:34:58Z</time>
      </trkpt>
      <trkpt lat="44.87637" lon="5.83538">
        <ele>852.1</ele>
        <time>2024-08-27T10:34:59Z</time>
      </trkpt>
      <trkpt lat="44.87633" lon="5.8353">
        <ele>852.1</ele>
        <time>2024-08-27T10:35:00Z</time>
      </trkpt>
      <trkpt lat="44.87629" lon="5.83523">
        <ele>852</ele>
        <time>2024-08-27T10:35:01Z</time>
      </trkpt>
      <trkpt lat="44.87625" lon="5.83515">
        <ele>851.9</ele>
        <time>2024-08-27T10:35:02Z</time>
      </trkpt>
      <trkpt lat="44.87621" lon="5.83508">
        <ele>851.8</ele>
        <time>2024-08-27T10:35:03Z</time>
      </trkpt>
      <trkpt lat="44.87616" lon="5.83501">
        <ele>851.7</ele>
        <time>2024-08-27T10:35:04Z</time>
      </trkpt>
      <trkpt lat="44.87611" lon="5.83494">
        <ele>851.6</ele>
        <time>2024-08-27T10:35:05Z</time>
      </trkpt>
      <trkpt lat="44.87607" lon="5.83486">
        <ele>851.6</ele>
        <time>2024-08-27T10:35:06Z</time>
      </trkpt>
      <trkpt lat="44.87602" lon="5.83478">
        <ele>851.4</ele>
        <time>2024-08-27T10:35:07Z</time>
      </trkpt>
      <trkpt lat="44.87598" lon="5.83469">
        <ele>851.3</ele>
        <time>2024-08-27T10:35:08Z</time>
      </trkpt>
      <trkpt lat="44.87594" lon="5.83461">
        <ele>851.2</ele>
        <time>2024-08-27T10:35:09Z</time>
      </trkpt>
      <trkpt lat="44.87591" lon="5.83452">
        <ele>851.1</ele>
        <time>2024-08-27T10:35:10Z</time>
      </trkpt>
      <trkpt lat="44.87587" lon="5.83443">
        <ele>850.9</ele>
        <time>2024-08-27T10:35:11Z</time>
      </trkpt>
      <trkpt lat="44.87584" lon="5.83433">
        <ele>850.8</ele>
        <time>2024-08-27T10:35:12Z</time>
      </trkpt>
      <trkpt lat="44.87582" lon="5.83423">
        <ele>850.6</ele>
        <time>2024-08-27T10:35:13Z</time>
      </trkpt>
      <trkpt lat="44.87581" lon="5.83412">
        <ele>850.5</ele>
        <time>2024-08-27T10:35:14Z</time>
      </trkpt>
      <trkpt lat="44.8758" lon="5.83402">
        <ele>850.3</ele>
        <time>2024-08-27T10:35:15Z</time>
      </trkpt>
      <trkpt lat="44.87579" lon="5.83391">
        <ele>850.1</ele>
        <time>2024-08-27T10:35:16Z</time>
      </trkpt>
      <trkpt lat="44.8758" lon="5.8338">
        <ele>850</ele>
        <time>2024-08-27T10:35:17Z</time>
      </trkpt>
      <trkpt lat="44.87581" lon="5.8337">
        <ele>849.9</ele>
        <time>2024-08-27T10:35:18Z</time>
      </trkpt>
      <trkpt lat="44.87582" lon="5.83359">
        <ele>849.7</ele>
        <time>2024-08-27T10:35:19Z</time>
      </trkpt>
      <trkpt lat="44.87585" lon="5.83348">
        <ele>849.5</ele>
        <time>2024-08-27T10:35:20Z</time>
      </trkpt>
      <trkpt lat="44.87588" lon="5.83338">
        <ele>849.3</ele>
        <time>2024-08-27T10:35:21Z</time>
      </trkpt>
      <trkpt lat="44.87592" lon="5.83327">
        <ele>849.1</ele>
        <time>2024-08-27T10:35:22Z</time>
      </trkpt>
      <trkpt lat="44.87596" lon="5.83317">
        <ele>848.9</ele>
        <time>2024-08-27T10:35:23Z</time>
      </trkpt>
      <trkpt lat="44.876" lon="5.83308">
        <ele>848.7</ele>
        <time>2024-08-27T10:35:24Z</time>
      </trkpt>
      <trkpt lat="44.87605" lon="5.83299">
        <ele>848.6</ele>
        <time>2024-08-27T10:35:25Z</time>
      </trkpt>
      <trkpt lat="44.8761" lon="5.8329">
        <ele>848.5</ele>
        <time>2024-08-27T10:35:26Z</time>
      </trkpt>
      <trkpt lat="44.87614" lon="5.83282">
        <ele>848.4</ele>
        <time>2024-08-27T10:35:27Z</time>
      </trkpt>
      <trkpt lat="44.87619" lon="5.83273">
        <ele>848.4</ele>
        <time>2024-08-27T10:35:28Z</time>
      </trkpt>
      <trkpt lat="44.87624" lon="5.83264">
        <ele>848.3</ele>
        <time>2024-08-27T10:35:29Z</time>
      </trkpt>
      <trkpt lat="44.87629" lon="5.83256">
        <ele>848.3</ele>
        <time>2024-08-27T10:35:30Z</time>
      </trkpt>
      <trkpt lat="44.87634" lon="5.83247">
        <ele>848.3</ele>
        <time>2024-08-27T10:35:31Z</time>
      </trkpt>
      <trkpt lat="44.87639" lon="5.83238">
        <ele>848.3</ele>
        <time>2024-08-27T10:35:32Z</time>
      </trkpt>
      <trkpt lat="44.87643" lon="5.83229">
        <ele>848.3</ele>
        <time>2024-08-27T10:35:33Z</time>
      </trkpt>
      <trkpt lat="44.87648" lon="5.8322">
        <ele>848.4</ele>
        <time>2024-08-27T10:35:34Z</time>
      </trkpt>
      <trkpt lat="44.87652" lon="5.83211">
        <ele>848.4</ele>
        <time>2024-08-27T10:35:35Z</time>
      </trkpt>
      <trkpt lat="44.87656" lon="5.83202">
        <ele>848.4</ele>
        <time>2024-08-27T10:35:36Z</time>
      </trkpt>
      <trkpt lat="44.8766" lon="5.83193">
        <ele>848.4</ele>
        <time>2024-08-27T10:35:37Z</time>
      </trkpt>
      <trkpt lat="44.87663" lon="5.83185">
        <ele>848.4</ele>
        <time>2024-08-27T10:35:38Z</time>
      </trkpt>
      <trkpt lat="44.87667" lon="5.83176">
        <ele>848.4</ele>
        <time>2024-08-27T10:35:39Z</time>
      </trkpt>
      <trkpt lat="44.8767" lon="5.83168">
        <ele>848.4</ele>
        <time>2024-08-27T10:35:40Z</time>
      </trkpt>
      <trkpt lat="44.87674" lon="5.83159">
        <ele>848.4</ele>
        <time>2024-08-27T10:35:41Z</time>
      </trkpt>
      <trkpt lat="44.87677" lon="5.83151">
        <ele>848.5</ele>
        <time>2024-08-27T10:35:42Z</time>
      </trkpt>
      <trkpt lat="44.8768" lon="5.83142">
        <ele>848.5</ele>
        <time>2024-08-27T10:35:43Z</time>
      </trkpt>
      <trkpt lat="44.87684" lon="5.83134">
        <ele>848.5</ele>
        <time>2024-08-27T10:35:44Z</time>
      </trkpt>
      <trkpt lat="44.87687" lon="5.83126">
        <ele>848.5</ele>
        <time>2024-08-27T10:35:45Z</time>
      </trkpt>
      <trkpt lat="44.87691" lon="5.83118">
        <ele>848.4</ele>
        <time>2024-08-27T10:35:46Z</time>
      </trkpt>
      <trkpt lat="44.87694" lon="5.8311">
        <ele>848.4</ele>
        <time>2024-08-27T10:35:47Z</time>
      </trkpt>
      <trkpt lat="44.87698" lon="5.83102">
        <ele>848.4</ele>
        <time>2024-08-27T10:35:48Z</time>
      </trkpt>
      <trkpt lat="44.87702" lon="5.83095">
        <ele>848.4</ele>
        <time>2024-08-27T10:35:49Z</time>
      </trkpt>
      <trkpt lat="44.87706" lon="5.83087">
        <ele>848.3</ele>
        <time>2024-08-27T10:35:50Z</time>
      </trkpt>
      <trkpt lat="44.8771" lon="5.83079">
        <ele>848.3</ele>
        <time>2024-08-27T10:35:51Z</time>
      </trkpt>
      <trkpt lat="44.87714" lon="5.83072">
        <ele>848.2</ele>
        <time>2024-08-27T10:35:52Z</time>
      </trkpt>
      <trkpt lat="44.87718" lon="5.83064">
        <ele>848.1</ele>
        <time>2024-08-27T10:35:53Z</time>
      </trkpt>
      <trkpt lat="44.87722" lon="5.83057">
        <ele>848</ele>
        <time>2024-08-27T10:35:54Z</time>
      </trkpt>
      <trkpt lat="44.87726" lon="5.83049">
        <ele>847.9</ele>
        <time>2024-08-27T10:35:55Z</time>
      </trkpt>
      <trkpt lat="44.87731" lon="5.83041">
        <ele>847.8</ele>
        <time>2024-08-27T10:35:56Z</time>
      </trkpt>
      <trkpt lat="44.87735" lon="5.83034">
        <ele>847.7</ele>
        <time>2024-08-27T10:35:57Z</time>
      </trkpt>
      <trkpt lat="44.87739" lon="5.83026">
        <ele>847.6</ele>
        <time>2024-08-27T10:35:58Z</time>
      </trkpt>
      <trkpt lat="44.87743" lon="5.83019">
        <ele>847.6</ele>
        <time>2024-08-27T10:35:59Z</time>
      </trkpt>
      <trkpt lat="44.87747" lon="5.83012">
        <ele>847.5</ele>
        <time>2024-08-27T10:36:00Z</time>
      </trkpt>
      <trkpt lat="44.87751" lon="5.83004">
        <ele>847.5</ele>
        <time>2024-08-27T10:36:01Z</time>
      </trkpt>
      <trkpt lat="44.87755" lon="5.82997">
        <ele>847.4</ele>
        <time>2024-08-27T10:36:02Z</time>
      </trkpt>
      <trkpt lat="44.87759" lon="5.82989">
        <ele>847.4</ele>
        <time>2024-08-27T10:36:03Z</time>
      </trkpt>
      <trkpt lat="44.87763" lon="5.82981">
        <ele>847.3</ele>
        <time>2024-08-27T10:36:04Z</time>
      </trkpt>
      <trkpt lat="44.87767" lon="5.82972">
        <ele>847.3</ele>
        <time>2024-08-27T10:36:05Z</time>
      </trkpt>
      <trkpt lat="44.87771" lon="5.82964">
        <ele>847.3</ele>
        <time>2024-08-27T10:36:06Z</time>
      </trkpt>
      <trkpt lat="44.87774" lon="5.82956">
        <ele>847.3</ele>
        <time>2024-08-27T10:36:07Z</time>
      </trkpt>
      <trkpt lat="44.87778" lon="5.82948">
        <ele>847.3</ele>
        <time>2024-08-27T10:36:08Z</time>
      </trkpt>
      <trkpt lat="44.87782" lon="5.8294">
        <ele>847.4</ele>
        <time>2024-08-27T10:36:09Z</time>
      </trkpt>
      <trkpt lat="44.87785" lon="5.82932">
        <ele>847.4</ele>
        <time>2024-08-27T10:36:10Z</time>
      </trkpt>
      <trkpt lat="44.87789" lon="5.82924">
        <ele>847.4</ele>
        <time>2024-08-27T10:36:11Z</time>
      </trkpt>
      <trkpt lat="44.87793" lon="5.82915">
        <ele>847.4</ele>
        <time>2024-08-27T10:36:12Z</time>
      </trkpt>
      <trkpt lat="44.87797" lon="5.82907">
        <ele>847.4</ele>
        <time>2024-08-27T10:36:13Z</time>
      </trkpt>
      <trkpt lat="44.87801" lon="5.82899">
        <ele>847.4</ele>
        <time>2024-08-27T10:36:14Z</time>
      </trkpt>
      <trkpt lat="44.87805" lon="5.82891">
        <ele>847.4</ele>
        <time>2024-08-27T10:36:15Z</time>
      </trkpt>
      <trkpt lat="44.87808" lon="5.82884">
        <ele>847.4</ele>
        <time>2024-08-27T10:36:16Z</time>
      </trkpt>
      <trkpt lat="44.87812" lon="5.82876">
        <ele>847.4</ele>
        <time>2024-08-27T10:36:17Z</time>
      </trkpt>
      <trkpt lat="44.87816" lon="5.82868">
        <ele>847.4</ele>
        <time>2024-08-27T10:36:18Z</time>
      </trkpt>
      <trkpt lat="44.8782" lon="5.82861">
        <ele>847.4</ele>
        <time>2024-08-27T10:36:19Z</time>
      </trkpt>
      <trkpt lat="44.87825" lon="5.82853">
        <ele>847.4</ele>
        <time>2024-08-27T10:36:20Z</time>
      </trkpt>
      <trkpt lat="44.87829" lon="5.82845">
        <ele>847.4</ele>
        <time>2024-08-27T10:36:21Z</time>
      </trkpt>
      <trkpt lat="44.87832" lon="5.82837">
        <ele>847.4</ele>
        <time>2024-08-27T10:36:22Z</time>
      </trkpt>
      <trkpt lat="44.87836" lon="5.8283">
        <ele>847.4</ele>
        <time>2024-08-27T10:36:23Z</time>
      </trkpt>
      <trkpt lat="44.8784" lon="5.82822">
        <ele>847.4</ele>
        <time>2024-08-27T10:36:24Z</time>
      </trkpt>
      <trkpt lat="44.87843" lon="5.82815">
        <ele>847.3</ele>
        <time>2024-08-27T10:36:25Z</time>
      </trkpt>
      <trkpt lat="44.87846" lon="5.82809">
        <ele>847.3</ele>
        <time>2024-08-27T10:36:26Z</time>
      </trkpt>
      <trkpt lat="44.87849" lon="5.82802">
        <ele>847.3</ele>
        <time>2024-08-27T10:36:27Z</time>
      </trkpt>
      <trkpt lat="44.87852" lon="5.82797">
        <ele>847.2</ele>
        <time>2024-08-27T10:36:28Z</time>
      </trkpt>
      <trkpt lat="44.87858" lon="5.82794">
        <ele>847.4</ele>
        <time>2024-08-27T10:36:29Z</time>
      </trkpt>
      <trkpt lat="44.87863" lon="5.82793">
        <ele>847.6</ele>
        <time>2024-08-27T10:36:30Z</time>
      </trkpt>
      <trkpt lat="44.87869" lon="5.82793">
        <ele>847.8</ele>
        <time>2024-08-27T10:36:31Z</time>
      </trkpt>
      <trkpt lat="44.87874" lon="5.82794">
        <ele>848</ele>
        <time>2024-08-27T10:36:32Z</time>
      </trkpt>
      <trkpt lat="44.8788" lon="5.82795">
        <ele>848.1</ele>
        <time>2024-08-27T10:36:33Z</time>
      </trkpt>
      <trkpt lat="44.87886" lon="5.82795">
        <ele>848.3</ele>
        <time>2024-08-27T10:36:34Z</time>
      </trkpt>
      <trkpt lat="44.87891" lon="5.82795">
        <ele>848.4</ele>
        <time>2024-08-27T10:36:35Z</time>
      </trkpt>
      <trkpt lat="44.87897" lon="5.82795">
        <ele>848.5</ele>
        <time>2024-08-27T10:36:36Z</time>
      </trkpt>
      <trkpt lat="44.87903" lon="5.82796">
        <ele>848.5</ele>
        <time>2024-08-27T10:36:37Z</time>
      </trkpt>
      <trkpt lat="44.87909" lon="5.82796">
        <ele>848.5</ele>
        <time>2024-08-27T10:36:38Z</time>
      </trkpt>
      <trkpt lat="44.87914" lon="5.82798">
        <ele>848.5</ele>
        <time>2024-08-27T10:36:39Z</time>
      </trkpt>
      <trkpt lat="44.8792" lon="5.828">
        <ele>848.5</ele>
        <time>2024-08-27T10:36:40Z</time>
      </trkpt>
      <trkpt lat="44.87924" lon="5.82803">
        <ele>848.5</ele>
        <time>2024-08-27T10:36:41Z</time>
      </trkpt>
      <trkpt lat="44.87929" lon="5.82805">
        <ele>848.5</ele>
        <time>2024-08-27T10:36:42Z</time>
      </trkpt>
      <trkpt lat="44.87933" lon="5.82809">
        <ele>848.6</ele>
        <time>2024-08-27T10:36:43Z</time>
      </trkpt>
      <trkpt lat="44.87937" lon="5.82812">
        <ele>848.6</ele>
        <time>2024-08-27T10:36:44Z</time>
      </trkpt>
      <trkpt lat="44.87941" lon="5.82816">
        <ele>848.6</ele>
        <time>2024-08-27T10:36:45Z</time>
      </trkpt>
      <trkpt lat="44.87945" lon="5.82819">
        <ele>848.6</ele>
        <time>2024-08-27T10:36:46Z</time>
      </trkpt>
      <trkpt lat="44.87948" lon="5.82823">
        <ele>848.7</ele>
        <time>2024-08-27T10:36:47Z</time>
      </trkpt>
      <trkpt lat="44.87951" lon="5.82826">
        <ele>848.7</ele>
        <time>2024-08-27T10:36:48Z</time>
      </trkpt>
      <trkpt lat="44.87955" lon="5.8283">
        <ele>848.7</ele>
        <time>2024-08-27T10:36:49Z</time>
      </trkpt>
      <trkpt lat="44.87958" lon="5.82834">
        <ele>848.8</ele>
        <time>2024-08-27T10:36:50Z</time>
      </trkpt>
      <trkpt lat="44.87961" lon="5.82838">
        <ele>848.8</ele>
        <time>2024-08-27T10:36:51Z</time>
      </trkpt>
      <trkpt lat="44.87964" lon="5.82842">
        <ele>848.9</ele>
        <time>2024-08-27T10:36:52Z</time>
      </trkpt>
      <trkpt lat="44.87967" lon="5.82846">
        <ele>848.9</ele>
        <time>2024-08-27T10:36:53Z</time>
      </trkpt>
      <trkpt lat="44.8797" lon="5.82851">
        <ele>848.9</ele>
        <time>2024-08-27T10:36:54Z</time>
      </trkpt>
      <trkpt lat="44.87972" lon="5.82856">
        <ele>849</ele>
        <time>2024-08-27T10:36:55Z</time>
      </trkpt>
      <trkpt lat="44.87974" lon="5.82861">
        <ele>849.1</ele>
        <time>2024-08-27T10:36:56Z</time>
      </trkpt>
      <trkpt lat="44.87977" lon="5.82866">
        <ele>849.1</ele>
        <time>2024-08-27T10:36:57Z</time>
      </trkpt>
      <trkpt lat="44.87979" lon="5.82869">
        <ele>849.2</ele>
        <time>2024-08-27T10:36:58Z</time>
      </trkpt>
      <trkpt lat="44.87981" lon="5.82873">
        <ele>849.2</ele>
        <time>2024-08-27T10:36:59Z</time>
      </trkpt>
      <trkpt lat="44.87983" lon="5.82877">
        <ele>849.2</ele>
        <time>2024-08-27T10:37:00Z</time>
      </trkpt>
      <trkpt lat="44.87985" lon="5.82881">
        <ele>849.3</ele>
        <time>2024-08-27T10:37:01Z</time>
      </trkpt>
      <trkpt lat="44.87988" lon="5.82884">
        <ele>849.3</ele>
        <time>2024-08-27T10:37:02Z</time>
      </trkpt>
      <trkpt lat="44.8799" lon="5.82889">
        <ele>849.4</ele>
        <time>2024-08-27T10:37:03Z</time>
      </trkpt>
      <trkpt lat="44.87992" lon="5.82894">
        <ele>849.4</ele>
        <time>2024-08-27T10:37:04Z</time>
      </trkpt>
      <trkpt lat="44.87995" lon="5.82899">
        <ele>849.5</ele>
        <time>2024-08-27T10:37:05Z</time>
      </trkpt>
      <trkpt lat="44.87997" lon="5.82904">
        <ele>849.5</ele>
        <time>2024-08-27T10:37:06Z</time>
      </trkpt>
      <trkpt lat="44.88" lon="5.82908">
        <ele>849.5</ele>
        <time>2024-08-27T10:37:07Z</time>
      </trkpt>
      <trkpt lat="44.88003" lon="5.82912">
        <ele>849.6</ele>
        <time>2024-08-27T10:37:08Z</time>
      </trkpt>
      <trkpt lat="44.88006" lon="5.82916">
        <ele>849.6</ele>
        <time>2024-08-27T10:37:09Z</time>
      </trkpt>
      <trkpt lat="44.88008" lon="5.8292">
        <ele>849.6</ele>
        <time>2024-08-27T10:37:10Z</time>
      </trkpt>
      <trkpt lat="44.8801" lon="5.82925">
        <ele>849.7</ele>
        <time>2024-08-27T10:37:11Z</time>
      </trkpt>
      <trkpt lat="44.88012" lon="5.82929">
        <ele>849.7</ele>
        <time>2024-08-27T10:37:12Z</time>
      </trkpt>
      <trkpt lat="44.88014" lon="5.82934">
        <ele>849.8</ele>
        <time>2024-08-27T10:37:13Z</time>
      </trkpt>
      <trkpt lat="44.88017" lon="5.82937">
        <ele>849.8</ele>
        <time>2024-08-27T10:37:14Z</time>
      </trkpt>
      <trkpt lat="44.88021" lon="5.82939">
        <ele>849.8</ele>
        <time>2024-08-27T10:37:15Z</time>
      </trkpt>
      <trkpt lat="44.88025" lon="5.82942">
        <ele>849.9</ele>
        <time>2024-08-27T10:37:16Z</time>
      </trkpt>
      <trkpt lat="44.88029" lon="5.82945">
        <ele>849.9</ele>
        <time>2024-08-27T10:37:17Z</time>
      </trkpt>
      <trkpt lat="44.88032" lon="5.82948">
        <ele>850</ele>
        <time>2024-08-27T10:37:18Z</time>
      </trkpt>
      <trkpt lat="44.88036" lon="5.82951">
        <ele>850</ele>
        <time>2024-08-27T10:37:19Z</time>
      </trkpt>
      <trkpt lat="44.88039" lon="5.82954">
        <ele>850</ele>
        <time>2024-08-27T10:37:20Z</time>
      </trkpt>
      <trkpt lat="44.88042" lon="5.82958">
        <ele>850.1</ele>
        <time>2024-08-27T10:37:21Z</time>
      </trkpt>
      <trkpt lat="44.88045" lon="5.82961">
        <ele>850.1</ele>
        <time>2024-08-27T10:37:22Z</time>
      </trkpt>
      <trkpt lat="44.88049" lon="5.82964">
        <ele>850.2</ele>
        <time>2024-08-27T10:37:23Z</time>
      </trkpt>
      <trkpt lat="44.88056" lon="5.82963">
        <ele>850.3</ele>
        <time>2024-08-27T10:37:24Z</time>
      </trkpt>
      <trkpt lat="44.88061" lon="5.82964">
        <ele>850.4</ele>
        <time>2024-08-27T10:37:25Z</time>
      </trkpt>
      <trkpt lat="44.88066" lon="5.82967">
        <ele>850.4</ele>
        <time>2024-08-27T10:37:26Z</time>
      </trkpt>
      <trkpt lat="44.88072" lon="5.82969">
        <ele>850.5</ele>
        <time>2024-08-27T10:37:27Z</time>
      </trkpt>
      <trkpt lat="44.88078" lon="5.82971">
        <ele>850.6</ele>
        <time>2024-08-27T10:37:28Z</time>
      </trkpt>
      <trkpt lat="44.88083" lon="5.82975">
        <ele>850.6</ele>
        <time>2024-08-27T10:37:29Z</time>
      </trkpt>
      <trkpt lat="44.88089" lon="5.82978">
        <ele>850.6</ele>
        <time>2024-08-27T10:37:30Z</time>
      </trkpt>
      <trkpt lat="44.88095" lon="5.82981">
        <ele>850.6</ele>
        <time>2024-08-27T10:37:31Z</time>
      </trkpt>
      <trkpt lat="44.88101" lon="5.82985">
        <ele>850.6</ele>
        <time>2024-08-27T10:37:32Z</time>
      </trkpt>
      <trkpt lat="44.88107" lon="5.82988">
        <ele>850.6</ele>
        <time>2024-08-27T10:37:33Z</time>
      </trkpt>
      <trkpt lat="44.88113" lon="5.82992">
        <ele>850.6</ele>
        <time>2024-08-27T10:37:34Z</time>
      </trkpt>
      <trkpt lat="44.88118" lon="5.82997">
        <ele>850.5</ele>
        <time>2024-08-27T10:37:35Z</time>
      </trkpt>
      <trkpt lat="44.88124" lon="5.83003">
        <ele>850.5</ele>
        <time>2024-08-27T10:37:36Z</time>
      </trkpt>
      <trkpt lat="44.88129" lon="5.83009">
        <ele>850.5</ele>
        <time>2024-08-27T10:37:37Z</time>
      </trkpt>
      <trkpt lat="44.88134" lon="5.83016">
        <ele>850.4</ele>
        <time>2024-08-27T10:37:38Z</time>
      </trkpt>
      <trkpt lat="44.88139" lon="5.83023">
        <ele>850.4</ele>
        <time>2024-08-27T10:37:39Z</time>
      </trkpt>
      <trkpt lat="44.88144" lon="5.83031">
        <ele>850.4</ele>
        <time>2024-08-27T10:37:40Z</time>
      </trkpt>
      <trkpt lat="44.88148" lon="5.83038">
        <ele>850.4</ele>
        <time>2024-08-27T10:37:41Z</time>
      </trkpt>
      <trkpt lat="44.88153" lon="5.83045">
        <ele>850.4</ele>
        <time>2024-08-27T10:37:42Z</time>
      </trkpt>
      <trkpt lat="44.88157" lon="5.83053">
        <ele>850.4</ele>
        <time>2024-08-27T10:37:43Z</time>
      </trkpt>
      <trkpt lat="44.88162" lon="5.83061">
        <ele>850.4</ele>
        <time>2024-08-27T10:37:44Z</time>
      </trkpt>
      <trkpt lat="44.88166" lon="5.83068">
        <ele>850.4</ele>
        <time>2024-08-27T10:37:45Z</time>
      </trkpt>
      <trkpt lat="44.88171" lon="5.83075">
        <ele>850.4</ele>
        <time>2024-08-27T10:37:46Z</time>
      </trkpt>
      <trkpt lat="44.88176" lon="5.83083">
        <ele>850.3</ele>
        <time>2024-08-27T10:37:47Z</time>
      </trkpt>
      <trkpt lat="44.88181" lon="5.8309">
        <ele>850.3</ele>
        <time>2024-08-27T10:37:48Z</time>
      </trkpt>
      <trkpt lat="44.88185" lon="5.83098">
        <ele>850.2</ele>
        <time>2024-08-27T10:37:49Z</time>
      </trkpt>
      <trkpt lat="44.88189" lon="5.83105">
        <ele>850.2</ele>
        <time>2024-08-27T10:37:50Z</time>
      </trkpt>
      <trkpt lat="44.88194" lon="5.83112">
        <ele>850.1</ele>
        <time>2024-08-27T10:37:51Z</time>
      </trkpt>
      <trkpt lat="44.88199" lon="5.83118">
        <ele>850.1</ele>
        <time>2024-08-27T10:37:52Z</time>
      </trkpt>
      <trkpt lat="44.88203" lon="5.83123">
        <ele>850</ele>
        <time>2024-08-27T10:37:53Z</time>
      </trkpt>
      <trkpt lat="44.88207" lon="5.83131">
        <ele>850</ele>
        <time>2024-08-27T10:37:54Z</time>
      </trkpt>
      <trkpt lat="44.88213" lon="5.83139">
        <ele>850</ele>
        <time>2024-08-27T10:37:55Z</time>
      </trkpt>
      <trkpt lat="44.88218" lon="5.83147">
        <ele>850</ele>
        <time>2024-08-27T10:37:56Z</time>
      </trkpt>
      <trkpt lat="44.88223" lon="5.83154">
        <ele>850</ele>
        <time>2024-08-27T10:37:57Z</time>
      </trkpt>
      <trkpt lat="44.88228" lon="5.83162">
        <ele>850</ele>
        <time>2024-08-27T10:37:58Z</time>
      </trkpt>
      <trkpt lat="44.88233" lon="5.83168">
        <ele>850</ele>
        <time>2024-08-27T10:37:59Z</time>
      </trkpt>
      <trkpt lat="44.88238" lon="5.83175">
        <ele>850</ele>
        <time>2024-08-27T10:38:00Z</time>
      </trkpt>
      <trkpt lat="44.88243" lon="5.83182">
        <ele>850</ele>
        <time>2024-08-27T10:38:01Z</time>
      </trkpt>
      <trkpt lat="44.88247" lon="5.83189">
        <ele>850</ele>
        <time>2024-08-27T10:38:02Z</time>
      </trkpt>
      <trkpt lat="44.88252" lon="5.83197">
        <ele>850</ele>
        <time>2024-08-27T10:38:03Z</time>
      </trkpt>
      <trkpt lat="44.88257" lon="5.83204">
        <ele>850</ele>
        <time>2024-08-27T10:38:04Z</time>
      </trkpt>
      <trkpt lat="44.88262" lon="5.83211">
        <ele>849.9</ele>
        <time>2024-08-27T10:38:05Z</time>
      </trkpt>
      <trkpt lat="44.88267" lon="5.83219">
        <ele>849.9</ele>
        <time>2024-08-27T10:38:06Z</time>
      </trkpt>
      <trkpt lat="44.88271" lon="5.83226">
        <ele>849.9</ele>
        <time>2024-08-27T10:38:07Z</time>
      </trkpt>
      <trkpt lat="44.88277" lon="5.83234">
        <ele>849.8</ele>
        <time>2024-08-27T10:38:08Z</time>
      </trkpt>
      <trkpt lat="44.88282" lon="5.83241">
        <ele>849.8</ele>
        <time>2024-08-27T10:38:09Z</time>
      </trkpt>
      <trkpt lat="44.88286" lon="5.83249">
        <ele>849.7</ele>
        <time>2024-08-27T10:38:10Z</time>
      </trkpt>
      <trkpt lat="44.88291" lon="5.83257">
        <ele>849.7</ele>
        <time>2024-08-27T10:38:11Z</time>
      </trkpt>
      <trkpt lat="44.88296" lon="5.83265">
        <ele>849.6</ele>
        <time>2024-08-27T10:38:12Z</time>
      </trkpt>
      <trkpt lat="44.88301" lon="5.83273">
        <ele>849.5</ele>
        <time>2024-08-27T10:38:13Z</time>
      </trkpt>
      <trkpt lat="44.88307" lon="5.8328">
        <ele>849.5</ele>
        <time>2024-08-27T10:38:14Z</time>
      </trkpt>
      <trkpt lat="44.88313" lon="5.83288">
        <ele>849.5</ele>
        <time>2024-08-27T10:38:15Z</time>
      </trkpt>
      <trkpt lat="44.88318" lon="5.83296">
        <ele>849.5</ele>
        <time>2024-08-27T10:38:16Z</time>
      </trkpt>
      <trkpt lat="44.88323" lon="5.83304">
        <ele>849.5</ele>
        <time>2024-08-27T10:38:17Z</time>
      </trkpt>
      <trkpt lat="44.88327" lon="5.83311">
        <ele>849.5</ele>
        <time>2024-08-27T10:38:18Z</time>
      </trkpt>
      <trkpt lat="44.88331" lon="5.83318">
        <ele>849.5</ele>
        <time>2024-08-27T10:38:19Z</time>
      </trkpt>
      <trkpt lat="44.88336" lon="5.83326">
        <ele>849.5</ele>
        <time>2024-08-27T10:38:20Z</time>
      </trkpt>
      <trkpt lat="44.8834" lon="5.83334">
        <ele>849.6</ele>
        <time>2024-08-27T10:38:21Z</time>
      </trkpt>
      <trkpt lat="44.88344" lon="5.83342">
        <ele>849.6</ele>
        <time>2024-08-27T10:38:22Z</time>
      </trkpt>
      <trkpt lat="44.88348" lon="5.8335">
        <ele>849.7</ele>
        <time>2024-08-27T10:38:23Z</time>
      </trkpt>
      <trkpt lat="44.88352" lon="5.83359">
        <ele>849.7</ele>
        <time>2024-08-27T10:38:24Z</time>
      </trkpt>
      <trkpt lat="44.88356" lon="5.83368">
        <ele>849.8</ele>
        <time>2024-08-27T10:38:25Z</time>
      </trkpt>
      <trkpt lat="44.88359" lon="5.83377">
        <ele>849.8</ele>
        <time>2024-08-27T10:38:26Z</time>
      </trkpt>
      <trkpt lat="44.88363" lon="5.83385">
        <ele>849.9</ele>
        <time>2024-08-27T10:38:27Z</time>
      </trkpt>
      <trkpt lat="44.88367" lon="5.83394">
        <ele>849.9</ele>
        <time>2024-08-27T10:38:28Z</time>
      </trkpt>
      <trkpt lat="44.88371" lon="5.83403">
        <ele>850</ele>
        <time>2024-08-27T10:38:29Z</time>
      </trkpt>
      <trkpt lat="44.88375" lon="5.83411">
        <ele>850.1</ele>
        <time>2024-08-27T10:38:30Z</time>
      </trkpt>
      <trkpt lat="44.88378" lon="5.8342">
        <ele>850.2</ele>
        <time>2024-08-27T10:38:31Z</time>
      </trkpt>
      <trkpt lat="44.88382" lon="5.83428">
        <ele>850.2</ele>
        <time>2024-08-27T10:38:32Z</time>
      </trkpt>
      <trkpt lat="44.88385" lon="5.83437">
        <ele>850.3</ele>
        <time>2024-08-27T10:38:33Z</time>
      </trkpt>
      <trkpt lat="44.88388" lon="5.83445">
        <ele>850.3</ele>
        <time>2024-08-27T10:38:34Z</time>
      </trkpt>
      <trkpt lat="44.88392" lon="5.83453">
        <ele>850.3</ele>
        <time>2024-08-27T10:38:35Z</time>
      </trkpt>
      <trkpt lat="44.88395" lon="5.83461">
        <ele>850.4</ele>
        <time>2024-08-27T10:38:36Z</time>
      </trkpt>
      <trkpt lat="44.88399" lon="5.8347">
        <ele>850.4</ele>
        <time>2024-08-27T10:38:37Z</time>
      </trkpt>
      <trkpt lat="44.88403" lon="5.83477">
        <ele>850.4</ele>
        <time>2024-08-27T10:38:38Z</time>
      </trkpt>
      <trkpt lat="44.88406" lon="5.83486">
        <ele>850.5</ele>
        <time>2024-08-27T10:38:39Z</time>
      </trkpt>
      <trkpt lat="44.8841" lon="5.83495">
        <ele>850.5</ele>
        <time>2024-08-27T10:38:40Z</time>
      </trkpt>
      <trkpt lat="44.88414" lon="5.83503">
        <ele>850.6</ele>
        <time>2024-08-27T10:38:41Z</time>
      </trkpt>
      <trkpt lat="44.88417" lon="5.83511">
        <ele>850.6</ele>
        <time>2024-08-27T10:38:42Z</time>
      </trkpt>
      <trkpt lat="44.8842" lon="5.83519">
        <ele>850.6</ele>
        <time>2024-08-27T10:38:43Z</time>
      </trkpt>
      <trkpt lat="44.88424" lon="5.83527">
        <ele>850.7</ele>
        <time>2024-08-27T10:38:44Z</time>
      </trkpt>
      <trkpt lat="44.88428" lon="5.83535">
        <ele>850.7</ele>
        <time>2024-08-27T10:38:45Z</time>
      </trkpt>
      <trkpt lat="44.88432" lon="5.83543">
        <ele>850.7</ele>
        <time>2024-08-27T10:38:46Z</time>
      </trkpt>
      <trkpt lat="44.88436" lon="5.8355">
        <ele>850.7</ele>
        <time>2024-08-27T10:38:47Z</time>
      </trkpt>
      <trkpt lat="44.8844" lon="5.83557">
        <ele>850.6</ele>
        <time>2024-08-27T10:38:48Z</time>
      </trkpt>
      <trkpt lat="44.88445" lon="5.83565">
        <ele>850.6</ele>
        <time>2024-08-27T10:38:49Z</time>
      </trkpt>
      <trkpt lat="44.8845" lon="5.83572">
        <ele>850.5</ele>
        <time>2024-08-27T10:38:50Z</time>
      </trkpt>
      <trkpt lat="44.88456" lon="5.83578">
        <ele>850.3</ele>
        <time>2024-08-27T10:38:51Z</time>
      </trkpt>
      <trkpt lat="44.88462" lon="5.83585">
        <ele>850.2</ele>
        <time>2024-08-27T10:38:52Z</time>
      </trkpt>
      <trkpt lat="44.88467" lon="5.83593">
        <ele>850</ele>
        <time>2024-08-27T10:38:53Z</time>
      </trkpt>
      <trkpt lat="44.88472" lon="5.836">
        <ele>849.7</ele>
        <time>2024-08-27T10:38:54Z</time>
      </trkpt>
      <trkpt lat="44.88478" lon="5.83608">
        <ele>849.5</ele>
        <time>2024-08-27T10:38:55Z</time>
      </trkpt>
      <trkpt lat="44.88484" lon="5.83616">
        <ele>849.3</ele>
        <time>2024-08-27T10:38:56Z</time>
      </trkpt>
      <trkpt lat="44.88489" lon="5.83624">
        <ele>849</ele>
        <time>2024-08-27T10:38:57Z</time>
      </trkpt>
      <trkpt lat="44.88495" lon="5.83632">
        <ele>848.8</ele>
        <time>2024-08-27T10:38:58Z</time>
      </trkpt>
      <trkpt lat="44.88501" lon="5.8364">
        <ele>848.5</ele>
        <time>2024-08-27T10:38:59Z</time>
      </trkpt>
      <trkpt lat="44.88506" lon="5.83648">
        <ele>848.3</ele>
        <time>2024-08-27T10:39:00Z</time>
      </trkpt>
      <trkpt lat="44.88512" lon="5.83655">
        <ele>848.1</ele>
        <time>2024-08-27T10:39:01Z</time>
      </trkpt>
      <trkpt lat="44.88518" lon="5.83664">
        <ele>847.9</ele>
        <time>2024-08-27T10:39:02Z</time>
      </trkpt>
      <trkpt lat="44.88524" lon="5.83672">
        <ele>847.7</ele>
        <time>2024-08-27T10:39:03Z</time>
      </trkpt>
      <trkpt lat="44.88529" lon="5.8368">
        <ele>847.5</ele>
        <time>2024-08-27T10:39:04Z</time>
      </trkpt>
      <trkpt lat="44.88535" lon="5.83688">
        <ele>847.3</ele>
        <time>2024-08-27T10:39:05Z</time>
      </trkpt>
      <trkpt lat="44.88541" lon="5.83697">
        <ele>847.1</ele>
        <time>2024-08-27T10:39:06Z</time>
      </trkpt>
      <trkpt lat="44.88547" lon="5.83705">
        <ele>846.9</ele>
        <time>2024-08-27T10:39:07Z</time>
      </trkpt>
      <trkpt lat="44.88553" lon="5.83714">
        <ele>846.8</ele>
        <time>2024-08-27T10:39:08Z</time>
      </trkpt>
      <trkpt lat="44.88558" lon="5.83722">
        <ele>846.7</ele>
        <time>2024-08-27T10:39:09Z</time>
      </trkpt>
      <trkpt lat="44.88564" lon="5.8373">
        <ele>846.7</ele>
        <time>2024-08-27T10:39:10Z</time>
      </trkpt>
      <trkpt lat="44.8857" lon="5.83738">
        <ele>846.7</ele>
        <time>2024-08-27T10:39:11Z</time>
      </trkpt>
      <trkpt lat="44.88576" lon="5.83746">
        <ele>846.7</ele>
        <time>2024-08-27T10:39:12Z</time>
      </trkpt>
      <trkpt lat="44.88581" lon="5.83753">
        <ele>846.7</ele>
        <time>2024-08-27T10:39:13Z</time>
      </trkpt>
      <trkpt lat="44.88587" lon="5.8376">
        <ele>846.7</ele>
        <time>2024-08-27T10:39:14Z</time>
      </trkpt>
      <trkpt lat="44.88595" lon="5.83764">
        <ele>846.7</ele>
        <time>2024-08-27T10:39:15Z</time>
      </trkpt>
      <trkpt lat="44.88603" lon="5.8377">
        <ele>846.7</ele>
        <time>2024-08-27T10:39:16Z</time>
      </trkpt>
      <trkpt lat="44.88609" lon="5.83774">
        <ele>846.7</ele>
        <time>2024-08-27T10:39:17Z</time>
      </trkpt>
      <trkpt lat="44.88617" lon="5.83777">
        <ele>846.7</ele>
        <time>2024-08-27T10:39:18Z</time>
      </trkpt>
      <trkpt lat="44.88625" lon="5.83778">
        <ele>846.6</ele>
        <time>2024-08-27T10:39:19Z</time>
      </trkpt>
      <trkpt lat="44.88633" lon="5.83779">
        <ele>846.6</ele>
        <time>2024-08-27T10:39:20Z</time>
      </trkpt>
      <trkpt lat="44.8864" lon="5.8378">
        <ele>846.5</ele>
        <time>2024-08-27T10:39:21Z</time>
      </trkpt>
      <trkpt lat="44.88648" lon="5.83781">
        <ele>846.4</ele>
        <time>2024-08-27T10:39:22Z</time>
      </trkpt>
      <trkpt lat="44.88655" lon="5.83782">
        <ele>846.4</ele>
        <time>2024-08-27T10:39:23Z</time>
      </trkpt>
      <trkpt lat="44.88663" lon="5.83784">
        <ele>846.3</ele>
        <time>2024-08-27T10:39:24Z</time>
      </trkpt>
      <trkpt lat="44.88671" lon="5.83786">
        <ele>846.2</ele>
        <time>2024-08-27T10:39:25Z</time>
      </trkpt>
      <trkpt lat="44.88679" lon="5.83788">
        <ele>846.2</ele>
        <time>2024-08-27T10:39:26Z</time>
      </trkpt>
      <trkpt lat="44.88687" lon="5.8379">
        <ele>846.1</ele>
        <time>2024-08-27T10:39:27Z</time>
      </trkpt>
      <trkpt lat="44.88695" lon="5.83793">
        <ele>846.1</ele>
        <time>2024-08-27T10:39:28Z</time>
      </trkpt>
      <trkpt lat="44.88703" lon="5.83794">
        <ele>846</ele>
        <time>2024-08-27T10:39:29Z</time>
      </trkpt>
      <trkpt lat="44.8871" lon="5.83794">
        <ele>846</ele>
        <time>2024-08-27T10:39:30Z</time>
      </trkpt>
      <trkpt lat="44.88718" lon="5.83795">
        <ele>845.9</ele>
        <time>2024-08-27T10:39:31Z</time>
      </trkpt>
      <trkpt lat="44.88726" lon="5.83796">
        <ele>845.9</ele>
        <time>2024-08-27T10:39:32Z</time>
      </trkpt>
      <trkpt lat="44.88734" lon="5.83796">
        <ele>845.8</ele>
        <time>2024-08-27T10:39:33Z</time>
      </trkpt>
      <trkpt lat="44.88741" lon="5.83795">
        <ele>845.8</ele>
        <time>2024-08-27T10:39:34Z</time>
      </trkpt>
      <trkpt lat="44.88749" lon="5.83794">
        <ele>845.7</ele>
        <time>2024-08-27T10:39:35Z</time>
      </trkpt>
      <trkpt lat="44.88757" lon="5.83791">
        <ele>845.7</ele>
        <time>2024-08-27T10:39:36Z</time>
      </trkpt>
      <trkpt lat="44.88764" lon="5.8379">
        <ele>845.6</ele>
        <time>2024-08-27T10:39:37Z</time>
      </trkpt>
      <trkpt lat="44.88772" lon="5.83787">
        <ele>845.6</ele>
        <time>2024-08-27T10:39:38Z</time>
      </trkpt>
      <trkpt lat="44.88779" lon="5.83785">
        <ele>845.6</ele>
        <time>2024-08-27T10:39:39Z</time>
      </trkpt>
      <trkpt lat="44.88787" lon="5.83782">
        <ele>845.6</ele>
        <time>2024-08-27T10:39:40Z</time>
      </trkpt>
      <trkpt lat="44.88794" lon="5.8378">
        <ele>845.6</ele>
        <time>2024-08-27T10:39:41Z</time>
      </trkpt>
      <trkpt lat="44.88801" lon="5.83777">
        <ele>845.5</ele>
        <time>2024-08-27T10:39:42Z</time>
      </trkpt>
      <trkpt lat="44.88808" lon="5.83775">
        <ele>845.5</ele>
        <time>2024-08-27T10:39:43Z</time>
      </trkpt>
      <trkpt lat="44.88816" lon="5.83772">
        <ele>845.4</ele>
        <time>2024-08-27T10:39:44Z</time>
      </trkpt>
      <trkpt lat="44.88823" lon="5.8377">
        <ele>845.4</ele>
        <time>2024-08-27T10:39:45Z</time>
      </trkpt>
      <trkpt lat="44.8883" lon="5.83767">
        <ele>845.4</ele>
        <time>2024-08-27T10:39:46Z</time>
      </trkpt>
      <trkpt lat="44.88837" lon="5.83765">
        <ele>845.3</ele>
        <time>2024-08-27T10:39:47Z</time>
      </trkpt>
      <trkpt lat="44.88845" lon="5.83762">
        <ele>845.3</ele>
        <time>2024-08-27T10:39:48Z</time>
      </trkpt>
      <trkpt lat="44.88852" lon="5.8376">
        <ele>845.3</ele>
        <time>2024-08-27T10:39:49Z</time>
      </trkpt>
      <trkpt lat="44.88859" lon="5.83757">
        <ele>845.2</ele>
        <time>2024-08-27T10:39:50Z</time>
      </trkpt>
      <trkpt lat="44.88866" lon="5.83755">
        <ele>845.2</ele>
        <time>2024-08-27T10:39:51Z</time>
      </trkpt>
      <trkpt lat="44.88873" lon="5.83752">
        <ele>845.2</ele>
        <time>2024-08-27T10:39:52Z</time>
      </trkpt>
      <trkpt lat="44.88881" lon="5.8375">
        <ele>845.1</ele>
        <time>2024-08-27T10:39:53Z</time>
      </trkpt>
      <trkpt lat="44.88888" lon="5.83747">
        <ele>845.1</ele>
        <time>2024-08-27T10:39:54Z</time>
      </trkpt>
      <trkpt lat="44.88895" lon="5.83745">
        <ele>845.1</ele>
        <time>2024-08-27T10:39:55Z</time>
      </trkpt>
      <trkpt lat="44.88901" lon="5.83742">
        <ele>845</ele>
        <time>2024-08-27T10:39:56Z</time>
      </trkpt>
      <trkpt lat="44.88908" lon="5.83738">
        <ele>845</ele>
        <time>2024-08-27T10:39:57Z</time>
      </trkpt>
      <trkpt lat="44.88915" lon="5.83734">
        <ele>844.9</ele>
        <time>2024-08-27T10:39:58Z</time>
      </trkpt>
      <trkpt lat="44.88921" lon="5.8373">
        <ele>844.8</ele>
        <time>2024-08-27T10:39:59Z</time>
      </trkpt>
      <trkpt lat="44.88927" lon="5.83725">
        <ele>844.6</ele>
        <time>2024-08-27T10:40:00Z</time>
      </trkpt>
      <trkpt lat="44.88933" lon="5.8372">
        <ele>844.5</ele>
        <time>2024-08-27T10:40:01Z</time>
      </trkpt>
      <trkpt lat="44.88939" lon="5.83713">
        <ele>844.3</ele>
        <time>2024-08-27T10:40:02Z</time>
      </trkpt>
      <trkpt lat="44.88944" lon="5.83706">
        <ele>844.2</ele>
        <time>2024-08-27T10:40:03Z</time>
      </trkpt>
      <trkpt lat="44.88949" lon="5.83698">
        <ele>844.1</ele>
        <time>2024-08-27T10:40:04Z</time>
      </trkpt>
      <trkpt lat="44.88954" lon="5.8369">
        <ele>843.9</ele>
        <time>2024-08-27T10:40:05Z</time>
      </trkpt>
      <trkpt lat="44.88959" lon="5.83681">
        <ele>843.8</ele>
        <time>2024-08-27T10:40:06Z</time>
      </trkpt>
      <trkpt lat="44.88964" lon="5.83672">
        <ele>843.6</ele>
        <time>2024-08-27T10:40:07Z</time>
      </trkpt>
      <trkpt lat="44.88968" lon="5.83663">
        <ele>843.5</ele>
        <time>2024-08-27T10:40:08Z</time>
      </trkpt>
      <trkpt lat="44.88972" lon="5.83655">
        <ele>843.4</ele>
        <time>2024-08-27T10:40:09Z</time>
      </trkpt>
      <trkpt lat="44.88977" lon="5.83646">
        <ele>843.2</ele>
        <time>2024-08-27T10:40:10Z</time>
      </trkpt>
      <trkpt lat="44.88982" lon="5.83638">
        <ele>843.1</ele>
        <time>2024-08-27T10:40:11Z</time>
      </trkpt>
      <trkpt lat="44.88987" lon="5.83631">
        <ele>843</ele>
        <time>2024-08-27T10:40:12Z</time>
      </trkpt>
      <trkpt lat="44.88993" lon="5.83624">
        <ele>842.9</ele>
        <time>2024-08-27T10:40:13Z</time>
      </trkpt>
      <trkpt lat="44.89" lon="5.83618">
        <ele>842.9</ele>
        <time>2024-08-27T10:40:14Z</time>
      </trkpt>
      <trkpt lat="44.89006" lon="5.83613">
        <ele>842.8</ele>
        <time>2024-08-27T10:40:15Z</time>
      </trkpt>
      <trkpt lat="44.89013" lon="5.83609">
        <ele>842.8</ele>
        <time>2024-08-27T10:40:16Z</time>
      </trkpt>
      <trkpt lat="44.8902" lon="5.83606">
        <ele>842.8</ele>
        <time>2024-08-27T10:40:17Z</time>
      </trkpt>
      <trkpt lat="44.89027" lon="5.83604">
        <ele>842.9</ele>
        <time>2024-08-27T10:40:18Z</time>
      </trkpt>
      <trkpt lat="44.89034" lon="5.83602">
        <ele>842.9</ele>
        <time>2024-08-27T10:40:19Z</time>
      </trkpt>
      <trkpt lat="44.89041" lon="5.83602">
        <ele>843</ele>
        <time>2024-08-27T10:40:20Z</time>
      </trkpt>
      <trkpt lat="44.89049" lon="5.83602">
        <ele>843.1</ele>
        <time>2024-08-27T10:40:21Z</time>
      </trkpt>
      <trkpt lat="44.89055" lon="5.83602">
        <ele>843.2</ele>
        <time>2024-08-27T10:40:22Z</time>
      </trkpt>
      <trkpt lat="44.89062" lon="5.83604">
        <ele>843.3</ele>
        <time>2024-08-27T10:40:23Z</time>
      </trkpt>
      <trkpt lat="44.89068" lon="5.83606">
        <ele>843.4</ele>
        <time>2024-08-27T10:40:24Z</time>
      </trkpt>
      <trkpt lat="44.89074" lon="5.83608">
        <ele>843.5</ele>
        <time>2024-08-27T10:40:25Z</time>
      </trkpt>
      <trkpt lat="44.8908" lon="5.83612">
        <ele>843.7</ele>
        <time>2024-08-27T10:40:26Z</time>
      </trkpt>
      <trkpt lat="44.89086" lon="5.83616">
        <ele>843.8</ele>
        <time>2024-08-27T10:40:27Z</time>
      </trkpt>
      <trkpt lat="44.89091" lon="5.8362">
        <ele>843.9</ele>
        <time>2024-08-27T10:40:28Z</time>
      </trkpt>
      <trkpt lat="44.89097" lon="5.83625">
        <ele>844</ele>
        <time>2024-08-27T10:40:29Z</time>
      </trkpt>
      <trkpt lat="44.89102" lon="5.8363">
        <ele>844.1</ele>
        <time>2024-08-27T10:40:30Z</time>
      </trkpt>
      <trkpt lat="44.89106" lon="5.83635">
        <ele>844.1</ele>
        <time>2024-08-27T10:40:31Z</time>
      </trkpt>
      <trkpt lat="44.89111" lon="5.83641">
        <ele>844.1</ele>
        <time>2024-08-27T10:40:32Z</time>
      </trkpt>
      <trkpt lat="44.89114" lon="5.83647">
        <ele>844.1</ele>
        <time>2024-08-27T10:40:33Z</time>
      </trkpt>
      <trkpt lat="44.89118" lon="5.83654">
        <ele>844.1</ele>
        <time>2024-08-27T10:40:34Z</time>
      </trkpt>
      <trkpt lat="44.89121" lon="5.83661">
        <ele>844.1</ele>
        <time>2024-08-27T10:40:35Z</time>
      </trkpt>
      <trkpt lat="44.89124" lon="5.83669">
        <ele>844</ele>
        <time>2024-08-27T10:40:36Z</time>
      </trkpt>
      <trkpt lat="44.89127" lon="5.83677">
        <ele>844</ele>
        <time>2024-08-27T10:40:37Z</time>
      </trkpt>
      <trkpt lat="44.8913" lon="5.83685">
        <ele>843.9</ele>
        <time>2024-08-27T10:40:38Z</time>
      </trkpt>
      <trkpt lat="44.89131" lon="5.83694">
        <ele>843.7</ele>
        <time>2024-08-27T10:40:39Z</time>
      </trkpt>
      <trkpt lat="44.89132" lon="5.83703">
        <ele>843.6</ele>
        <time>2024-08-27T10:40:40Z</time>
      </trkpt>
      <trkpt lat="44.89133" lon="5.83713">
        <ele>843.2</ele>
        <time>2024-08-27T10:40:41Z</time>
      </trkpt>
      <trkpt lat="44.89133" lon="5.83723">
        <ele>842.9</ele>
        <time>2024-08-27T10:40:42Z</time>
      </trkpt>
      <trkpt lat="44.89132" lon="5.83733">
        <ele>842.4</ele>
        <time>2024-08-27T10:40:43Z</time>
      </trkpt>
      <trkpt lat="44.89131" lon="5.83744">
        <ele>842</ele>
        <time>2024-08-27T10:40:44Z</time>
      </trkpt>
      <trkpt lat="44.89129" lon="5.83755">
        <ele>841.4</ele>
        <time>2024-08-27T10:40:45Z</time>
      </trkpt>
      <trkpt lat="44.89126" lon="5.83767">
        <ele>840.8</ele>
        <time>2024-08-27T10:40:46Z</time>
      </trkpt>
      <trkpt lat="44.89122" lon="5.83778">
        <ele>840.3</ele>
        <time>2024-08-27T10:40:47Z</time>
      </trkpt>
      <trkpt lat="44.89117" lon="5.8379">
        <ele>839.7</ele>
        <time>2024-08-27T10:40:48Z</time>
      </trkpt>
      <trkpt lat="44.89112" lon="5.838">
        <ele>839.1</ele>
        <time>2024-08-27T10:40:49Z</time>
      </trkpt>
      <trkpt lat="44.89105" lon="5.8381">
        <ele>838.5</ele>
        <time>2024-08-27T10:40:50Z</time>
      </trkpt>
      <trkpt lat="44.89099" lon="5.83821">
        <ele>837.8</ele>
        <time>2024-08-27T10:40:51Z</time>
      </trkpt>
      <trkpt lat="44.89092" lon="5.83831">
        <ele>837.2</ele>
        <time>2024-08-27T10:40:52Z</time>
      </trkpt>
      <trkpt lat="44.89086" lon="5.83842">
        <ele>836.5</ele>
        <time>2024-08-27T10:40:53Z</time>
      </trkpt>
      <trkpt lat="44.89079" lon="5.83852">
        <ele>835.8</ele>
        <time>2024-08-27T10:40:54Z</time>
      </trkpt>
      <trkpt lat="44.89072" lon="5.83863">
        <ele>835.1</ele>
        <time>2024-08-27T10:40:55Z</time>
      </trkpt>
      <trkpt lat="44.89066" lon="5.83875">
        <ele>834.3</ele>
        <time>2024-08-27T10:40:56Z</time>
      </trkpt>
      <trkpt lat="44.89059" lon="5.83885">
        <ele>833.7</ele>
        <time>2024-08-27T10:40:57Z</time>
      </trkpt>
      <trkpt lat="44.89051" lon="5.83896">
        <ele>832.9</ele>
        <time>2024-08-27T10:40:58Z</time>
      </trkpt>
      <trkpt lat="44.89044" lon="5.83908">
        <ele>832.2</ele>
        <time>2024-08-27T10:40:59Z</time>
      </trkpt>
      <trkpt lat="44.89035" lon="5.83921">
        <ele>831.3</ele>
        <time>2024-08-27T10:41:00Z</time>
      </trkpt>
      <trkpt lat="44.89028" lon="5.83935">
        <ele>830.5</ele>
        <time>2024-08-27T10:41:01Z</time>
      </trkpt>
      <trkpt lat="44.89024" lon="5.83949">
        <ele>829.9</ele>
        <time>2024-08-27T10:41:02Z</time>
      </trkpt>
      <trkpt lat="44.89023" lon="5.83961">
        <ele>829.3</ele>
        <time>2024-08-27T10:41:03Z</time>
      </trkpt>
      <trkpt lat="44.89017" lon="5.83976">
        <ele>828.4</ele>
        <time>2024-08-27T10:41:04Z</time>
      </trkpt>
      <trkpt lat="44.89014" lon="5.83988">
        <ele>827.8</ele>
        <time>2024-08-27T10:41:05Z</time>
      </trkpt>
      <trkpt lat="44.89011" lon="5.84002">
        <ele>827.1</ele>
        <time>2024-08-27T10:41:06Z</time>
      </trkpt>
      <trkpt lat="44.89005" lon="5.84016">
        <ele>826.3</ele>
        <time>2024-08-27T10:41:07Z</time>
      </trkpt>
      <trkpt lat="44.88999" lon="5.84028">
        <ele>825.6</ele>
        <time>2024-08-27T10:41:08Z</time>
      </trkpt>
      <trkpt lat="44.88993" lon="5.8404">
        <ele>824.8</ele>
        <time>2024-08-27T10:41:09Z</time>
      </trkpt>
      <trkpt lat="44.88986" lon="5.84053">
        <ele>824.1</ele>
        <time>2024-08-27T10:41:10Z</time>
      </trkpt>
      <trkpt lat="44.88979" lon="5.84064">
        <ele>823.4</ele>
        <time>2024-08-27T10:41:11Z</time>
      </trkpt>
      <trkpt lat="44.88971" lon="5.84077">
        <ele>822.6</ele>
        <time>2024-08-27T10:41:12Z</time>
      </trkpt>
      <trkpt lat="44.88963" lon="5.84089">
        <ele>821.8</ele>
        <time>2024-08-27T10:41:13Z</time>
      </trkpt>
      <trkpt lat="44.88956" lon="5.841">
        <ele>821.2</ele>
        <time>2024-08-27T10:41:14Z</time>
      </trkpt>
      <trkpt lat="44.88949" lon="5.84112">
        <ele>820.4</ele>
        <time>2024-08-27T10:41:15Z</time>
      </trkpt>
      <trkpt lat="44.88942" lon="5.84123">
        <ele>819.7</ele>
        <time>2024-08-27T10:41:16Z</time>
      </trkpt>
      <trkpt lat="44.88937" lon="5.84134">
        <ele>819.1</ele>
        <time>2024-08-27T10:41:17Z</time>
      </trkpt>
      <trkpt lat="44.8893" lon="5.84145">
        <ele>818.4</ele>
        <time>2024-08-27T10:41:18Z</time>
      </trkpt>
      <trkpt lat="44.88924" lon="5.84157">
        <ele>817.7</ele>
        <time>2024-08-27T10:41:19Z</time>
      </trkpt>
      <trkpt lat="44.88918" lon="5.84168">
        <ele>817.1</ele>
        <time>2024-08-27T10:41:20Z</time>
      </trkpt>
      <trkpt lat="44.88911" lon="5.84179">
        <ele>816.4</ele>
        <time>2024-08-27T10:41:21Z</time>
      </trkpt>
      <trkpt lat="44.88905" lon="5.84191">
        <ele>815.6</ele>
        <time>2024-08-27T10:41:22Z</time>
      </trkpt>
      <trkpt lat="44.88899" lon="5.84203">
        <ele>814.9</ele>
        <time>2024-08-27T10:41:23Z</time>
      </trkpt>
      <trkpt lat="44.88891" lon="5.84215">
        <ele>814.1</ele>
        <time>2024-08-27T10:41:24Z</time>
      </trkpt>
      <trkpt lat="44.88884" lon="5.84226">
        <ele>813.3</ele>
        <time>2024-08-27T10:41:25Z</time>
      </trkpt>
      <trkpt lat="44.88877" lon="5.84238">
        <ele>812.6</ele>
        <time>2024-08-27T10:41:26Z</time>
      </trkpt>
      <trkpt lat="44.88869" lon="5.84249">
        <ele>811.8</ele>
        <time>2024-08-27T10:41:27Z</time>
      </trkpt>
      <trkpt lat="44.88861" lon="5.84261">
        <ele>811.1</ele>
        <time>2024-08-27T10:41:28Z</time>
      </trkpt>
      <trkpt lat="44.88853" lon="5.84273">
        <ele>810.3</ele>
        <time>2024-08-27T10:41:29Z</time>
      </trkpt>
      <trkpt lat="44.88846" lon="5.84283">
        <ele>809.6</ele>
        <time>2024-08-27T10:41:30Z</time>
      </trkpt>
      <trkpt lat="44.88838" lon="5.84294">
        <ele>808.9</ele>
        <time>2024-08-27T10:41:31Z</time>
      </trkpt>
      <trkpt lat="44.88831" lon="5.84305">
        <ele>808.2</ele>
        <time>2024-08-27T10:41:32Z</time>
      </trkpt>
      <trkpt lat="44.88822" lon="5.84317">
        <ele>807.5</ele>
        <time>2024-08-27T10:41:33Z</time>
      </trkpt>
      <trkpt lat="44.88814" lon="5.84328">
        <ele>806.7</ele>
        <time>2024-08-27T10:41:34Z</time>
      </trkpt>
      <trkpt lat="44.88806" lon="5.84339">
        <ele>806</ele>
        <time>2024-08-27T10:41:35Z</time>
      </trkpt>
      <trkpt lat="44.88798" lon="5.8435">
        <ele>805.2</ele>
        <time>2024-08-27T10:41:36Z</time>
      </trkpt>
      <trkpt lat="44.8879" lon="5.84362">
        <ele>804.4</ele>
        <time>2024-08-27T10:41:37Z</time>
      </trkpt>
      <trkpt lat="44.88782" lon="5.84373">
        <ele>803.7</ele>
        <time>2024-08-27T10:41:38Z</time>
      </trkpt>
      <trkpt lat="44.88775" lon="5.84383">
        <ele>803.1</ele>
        <time>2024-08-27T10:41:39Z</time>
      </trkpt>
      <trkpt lat="44.88768" lon="5.84395">
        <ele>802.3</ele>
        <time>2024-08-27T10:41:40Z</time>
      </trkpt>
      <trkpt lat="44.88762" lon="5.84408">
        <ele>801.7</ele>
        <time>2024-08-27T10:41:41Z</time>
      </trkpt>
      <trkpt lat="44.88755" lon="5.84421">
        <ele>801</ele>
        <time>2024-08-27T10:41:42Z</time>
      </trkpt>
      <trkpt lat="44.8875" lon="5.84434">
        <ele>800.3</ele>
        <time>2024-08-27T10:41:43Z</time>
      </trkpt>
      <trkpt lat="44.88744" lon="5.84448">
        <ele>799.6</ele>
        <time>2024-08-27T10:41:44Z</time>
      </trkpt>
      <trkpt lat="44.88739" lon="5.84461">
        <ele>798.9</ele>
        <time>2024-08-27T10:41:45Z</time>
      </trkpt>
      <trkpt lat="44.88735" lon="5.84474">
        <ele>798.3</ele>
        <time>2024-08-27T10:41:46Z</time>
      </trkpt>
      <trkpt lat="44.8873" lon="5.84487">
        <ele>797.6</ele>
        <time>2024-08-27T10:41:47Z</time>
      </trkpt>
      <trkpt lat="44.88724" lon="5.845">
        <ele>796.8</ele>
        <time>2024-08-27T10:41:48Z</time>
      </trkpt>
      <trkpt lat="44.88717" lon="5.84512">
        <ele>796.1</ele>
        <time>2024-08-27T10:41:49Z</time>
      </trkpt>
      <trkpt lat="44.88709" lon="5.84523">
        <ele>795.4</ele>
        <time>2024-08-27T10:41:50Z</time>
      </trkpt>
      <trkpt lat="44.88701" lon="5.84533">
        <ele>794.7</ele>
        <time>2024-08-27T10:41:51Z</time>
      </trkpt>
      <trkpt lat="44.88692" lon="5.84542">
        <ele>794</ele>
        <time>2024-08-27T10:41:52Z</time>
      </trkpt>
      <trkpt lat="44.88681" lon="5.84548">
        <ele>793.4</ele>
        <time>2024-08-27T10:41:53Z</time>
      </trkpt>
      <trkpt lat="44.88671" lon="5.84554">
        <ele>792.8</ele>
        <time>2024-08-27T10:41:54Z</time>
      </trkpt>
      <trkpt lat="44.8866" lon="5.8456">
        <ele>792.1</ele>
        <time>2024-08-27T10:41:55Z</time>
      </trkpt>
      <trkpt lat="44.8865" lon="5.84567">
        <ele>791.4</ele>
        <time>2024-08-27T10:41:56Z</time>
      </trkpt>
      <trkpt lat="44.88641" lon="5.84576">
        <ele>790.7</ele>
        <time>2024-08-27T10:41:57Z</time>
      </trkpt>
      <trkpt lat="44.88633" lon="5.84585">
        <ele>790</ele>
        <time>2024-08-27T10:41:58Z</time>
      </trkpt>
      <trkpt lat="44.88625" lon="5.84595">
        <ele>789.3</ele>
        <time>2024-08-27T10:41:59Z</time>
      </trkpt>
      <trkpt lat="44.88619" lon="5.84607">
        <ele>788.5</ele>
        <time>2024-08-27T10:42:00Z</time>
      </trkpt>
      <trkpt lat="44.88614" lon="5.84621">
        <ele>787.8</ele>
        <time>2024-08-27T10:42:01Z</time>
      </trkpt>
      <trkpt lat="44.8861" lon="5.84636">
        <ele>787.1</ele>
        <time>2024-08-27T10:42:02Z</time>
      </trkpt>
      <trkpt lat="44.88607" lon="5.84651">
        <ele>786.4</ele>
        <time>2024-08-27T10:42:03Z</time>
      </trkpt>
      <trkpt lat="44.88608" lon="5.84663">
        <ele>785.9</ele>
        <time>2024-08-27T10:42:04Z</time>
      </trkpt>
      <trkpt lat="44.88609" lon="5.84678">
        <ele>785.1</ele>
        <time>2024-08-27T10:42:05Z</time>
      </trkpt>
      <trkpt lat="44.88611" lon="5.84695">
        <ele>784.4</ele>
        <time>2024-08-27T10:42:06Z</time>
      </trkpt>
      <trkpt lat="44.88615" lon="5.84709">
        <ele>783.6</ele>
        <time>2024-08-27T10:42:07Z</time>
      </trkpt>
      <trkpt lat="44.88618" lon="5.84724">
        <ele>782.9</ele>
        <time>2024-08-27T10:42:08Z</time>
      </trkpt>
      <trkpt lat="44.88622" lon="5.84739">
        <ele>782.1</ele>
        <time>2024-08-27T10:42:09Z</time>
      </trkpt>
      <trkpt lat="44.88626" lon="5.84752">
        <ele>781.4</ele>
        <time>2024-08-27T10:42:10Z</time>
      </trkpt>
      <trkpt lat="44.88633" lon="5.84765">
        <ele>780.6</ele>
        <time>2024-08-27T10:42:11Z</time>
      </trkpt>
      <trkpt lat="44.88641" lon="5.84776">
        <ele>779.9</ele>
        <time>2024-08-27T10:42:12Z</time>
      </trkpt>
      <trkpt lat="44.88647" lon="5.84789">
        <ele>779.3</ele>
        <time>2024-08-27T10:42:13Z</time>
      </trkpt>
      <trkpt lat="44.88654" lon="5.84801">
        <ele>778.6</ele>
        <time>2024-08-27T10:42:14Z</time>
      </trkpt>
      <trkpt lat="44.8866" lon="5.84814">
        <ele>777.9</ele>
        <time>2024-08-27T10:42:15Z</time>
      </trkpt>
      <trkpt lat="44.88667" lon="5.84827">
        <ele>777.1</ele>
        <time>2024-08-27T10:42:16Z</time>
      </trkpt>
      <trkpt lat="44.8867" lon="5.84842">
        <ele>776.5</ele>
        <time>2024-08-27T10:42:17Z</time>
      </trkpt>
      <trkpt lat="44.88674" lon="5.84856">
        <ele>775.8</ele>
        <time>2024-08-27T10:42:18Z</time>
      </trkpt>
      <trkpt lat="44.88677" lon="5.84871">
        <ele>775.1</ele>
        <time>2024-08-27T10:42:19Z</time>
      </trkpt>
      <trkpt lat="44.88679" lon="5.84886">
        <ele>774.5</ele>
        <time>2024-08-27T10:42:20Z</time>
      </trkpt>
      <trkpt lat="44.88681" lon="5.84901">
        <ele>773.9</ele>
        <time>2024-08-27T10:42:21Z</time>
      </trkpt>
      <trkpt lat="44.88682" lon="5.84916">
        <ele>773.2</ele>
        <time>2024-08-27T10:42:22Z</time>
      </trkpt>
      <trkpt lat="44.88683" lon="5.84931">
        <ele>772.6</ele>
        <time>2024-08-27T10:42:23Z</time>
      </trkpt>
      <trkpt lat="44.88686" lon="5.84946">
        <ele>771.9</ele>
        <time>2024-08-27T10:42:24Z</time>
      </trkpt>
      <trkpt lat="44.88688" lon="5.8496">
        <ele>771.3</ele>
        <time>2024-08-27T10:42:25Z</time>
      </trkpt>
      <trkpt lat="44.8869" lon="5.84974">
        <ele>770.6</ele>
        <time>2024-08-27T10:42:26Z</time>
      </trkpt>
      <trkpt lat="44.88693" lon="5.84989">
        <ele>770</ele>
        <time>2024-08-27T10:42:27Z</time>
      </trkpt>
      <trkpt lat="44.88696" lon="5.85005">
        <ele>769.2</ele>
        <time>2024-08-27T10:42:28Z</time>
      </trkpt>
      <trkpt lat="44.88694" lon="5.85021">
        <ele>768.4</ele>
        <time>2024-08-27T10:42:29Z</time>
      </trkpt>
      <trkpt lat="44.88698" lon="5.85031">
        <ele>767.9</ele>
        <time>2024-08-27T10:42:30Z</time>
      </trkpt>
      <trkpt lat="44.88702" lon="5.85045">
        <ele>767.2</ele>
        <time>2024-08-27T10:42:31Z</time>
      </trkpt>
      <trkpt lat="44.88706" lon="5.85059">
        <ele>766.5</ele>
        <time>2024-08-27T10:42:32Z</time>
      </trkpt>
      <trkpt lat="44.88711" lon="5.85073">
        <ele>765.8</ele>
        <time>2024-08-27T10:42:33Z</time>
      </trkpt>
      <trkpt lat="44.88714" lon="5.85088">
        <ele>765</ele>
        <time>2024-08-27T10:42:34Z</time>
      </trkpt>
      <trkpt lat="44.88718" lon="5.85101">
        <ele>764.3</ele>
        <time>2024-08-27T10:42:35Z</time>
      </trkpt>
      <trkpt lat="44.88723" lon="5.85114">
        <ele>763.7</ele>
        <time>2024-08-27T10:42:36Z</time>
      </trkpt>
      <trkpt lat="44.88727" lon="5.85128">
        <ele>763</ele>
        <time>2024-08-27T10:42:37Z</time>
      </trkpt>
      <trkpt lat="44.88732" lon="5.85141">
        <ele>762.4</ele>
        <time>2024-08-27T10:42:38Z</time>
      </trkpt>
      <trkpt lat="44.88737" lon="5.85154">
        <ele>761.7</ele>
        <time>2024-08-27T10:42:39Z</time>
      </trkpt>
      <trkpt lat="44.88743" lon="5.85166">
        <ele>761</ele>
        <time>2024-08-27T10:42:40Z</time>
      </trkpt>
      <trkpt lat="44.88751" lon="5.85177">
        <ele>760.3</ele>
        <time>2024-08-27T10:42:41Z</time>
      </trkpt>
      <trkpt lat="44.8876" lon="5.85186">
        <ele>759.7</ele>
        <time>2024-08-27T10:42:42Z</time>
      </trkpt>
      <trkpt lat="44.88769" lon="5.85194">
        <ele>759</ele>
        <time>2024-08-27T10:42:43Z</time>
      </trkpt>
      <trkpt lat="44.88778" lon="5.85201">
        <ele>758.4</ele>
        <time>2024-08-27T10:42:44Z</time>
      </trkpt>
      <trkpt lat="44.88788" lon="5.85207">
        <ele>757.8</ele>
        <time>2024-08-27T10:42:45Z</time>
      </trkpt>
      <trkpt lat="44.88798" lon="5.85212">
        <ele>757.2</ele>
        <time>2024-08-27T10:42:46Z</time>
      </trkpt>
      <trkpt lat="44.88807" lon="5.85216">
        <ele>756.6</ele>
        <time>2024-08-27T10:42:47Z</time>
      </trkpt>
      <trkpt lat="44.88818" lon="5.85221">
        <ele>755.9</ele>
        <time>2024-08-27T10:42:48Z</time>
      </trkpt>
      <trkpt lat="44.88829" lon="5.85225">
        <ele>755.1</ele>
        <time>2024-08-27T10:42:49Z</time>
      </trkpt>
      <trkpt lat="44.8884" lon="5.8523">
        <ele>754.4</ele>
        <time>2024-08-27T10:42:50Z</time>
      </trkpt>
      <trkpt lat="44.88851" lon="5.85235">
        <ele>753.6</ele>
        <time>2024-08-27T10:42:51Z</time>
      </trkpt>
      <trkpt lat="44.88863" lon="5.8524">
        <ele>752.8</ele>
        <time>2024-08-27T10:42:52Z</time>
      </trkpt>
      <trkpt lat="44.88874" lon="5.85246">
        <ele>751.9</ele>
        <time>2024-08-27T10:42:53Z</time>
      </trkpt>
      <trkpt lat="44.88885" lon="5.85252">
        <ele>751.1</ele>
        <time>2024-08-27T10:42:54Z</time>
      </trkpt>
      <trkpt lat="44.88896" lon="5.85259">
        <ele>750.2</ele>
        <time>2024-08-27T10:42:55Z</time>
      </trkpt>
      <trkpt lat="44.88907" lon="5.85267">
        <ele>749.4</ele>
        <time>2024-08-27T10:42:56Z</time>
      </trkpt>
      <trkpt lat="44.88918" lon="5.85275">
        <ele>748.6</ele>
        <time>2024-08-27T10:42:57Z</time>
      </trkpt>
      <trkpt lat="44.88928" lon="5.85285">
        <ele>747.8</ele>
        <time>2024-08-27T10:42:58Z</time>
      </trkpt>
      <trkpt lat="44.88937" lon="5.85294">
        <ele>747.1</ele>
        <time>2024-08-27T10:42:59Z</time>
      </trkpt>
      <trkpt lat="44.88946" lon="5.85302">
        <ele>746.4</ele>
        <time>2024-08-27T10:43:00Z</time>
      </trkpt>
      <trkpt lat="44.88956" lon="5.85309">
        <ele>745.6</ele>
        <time>2024-08-27T10:43:01Z</time>
      </trkpt>
      <trkpt lat="44.88967" lon="5.85315">
        <ele>744.9</ele>
        <time>2024-08-27T10:43:02Z</time>
      </trkpt>
      <trkpt lat="44.88978" lon="5.8532">
        <ele>744.1</ele>
        <time>2024-08-27T10:43:03Z</time>
      </trkpt>
      <trkpt lat="44.8899" lon="5.85323">
        <ele>743.4</ele>
        <time>2024-08-27T10:43:04Z</time>
      </trkpt>
      <trkpt lat="44.89001" lon="5.85326">
        <ele>742.8</ele>
        <time>2024-08-27T10:43:05Z</time>
      </trkpt>
      <trkpt lat="44.89011" lon="5.85329">
        <ele>742.2</ele>
        <time>2024-08-27T10:43:06Z</time>
      </trkpt>
      <trkpt lat="44.89021" lon="5.85334">
        <ele>741.6</ele>
        <time>2024-08-27T10:43:07Z</time>
      </trkpt>
      <trkpt lat="44.89032" lon="5.85339">
        <ele>740.9</ele>
        <time>2024-08-27T10:43:08Z</time>
      </trkpt>
      <trkpt lat="44.89042" lon="5.85347">
        <ele>740.2</ele>
        <time>2024-08-27T10:43:09Z</time>
      </trkpt>
      <trkpt lat="44.89051" lon="5.85355">
        <ele>739.4</ele>
        <time>2024-08-27T10:43:10Z</time>
      </trkpt>
      <trkpt lat="44.89059" lon="5.85366">
        <ele>738.7</ele>
        <time>2024-08-27T10:43:11Z</time>
      </trkpt>
      <trkpt lat="44.89065" lon="5.85379">
        <ele>737.9</ele>
        <time>2024-08-27T10:43:12Z</time>
      </trkpt>
      <trkpt lat="44.8907" lon="5.85394">
        <ele>737.1</ele>
        <time>2024-08-27T10:43:13Z</time>
      </trkpt>
      <trkpt lat="44.89075" lon="5.85409">
        <ele>736.3</ele>
        <time>2024-08-27T10:43:14Z</time>
      </trkpt>
      <trkpt lat="44.89079" lon="5.85424">
        <ele>735.5</ele>
        <time>2024-08-27T10:43:15Z</time>
      </trkpt>
      <trkpt lat="44.89083" lon="5.85438">
        <ele>734.8</ele>
        <time>2024-08-27T10:43:16Z</time>
      </trkpt>
      <trkpt lat="44.89087" lon="5.85453">
        <ele>734.1</ele>
        <time>2024-08-27T10:43:17Z</time>
      </trkpt>
      <trkpt lat="44.89093" lon="5.85467">
        <ele>733.3</ele>
        <time>2024-08-27T10:43:18Z</time>
      </trkpt>
      <trkpt lat="44.89099" lon="5.8548">
        <ele>732.6</ele>
        <time>2024-08-27T10:43:19Z</time>
      </trkpt>
      <trkpt lat="44.89107" lon="5.85491">
        <ele>731.9</ele>
        <time>2024-08-27T10:43:20Z</time>
      </trkpt>
      <trkpt lat="44.89115" lon="5.85502">
        <ele>731.2</ele>
        <time>2024-08-27T10:43:21Z</time>
      </trkpt>
      <trkpt lat="44.89125" lon="5.8551">
        <ele>730.5</ele>
        <time>2024-08-27T10:43:22Z</time>
      </trkpt>
      <trkpt lat="44.89135" lon="5.85516">
        <ele>729.9</ele>
        <time>2024-08-27T10:43:23Z</time>
      </trkpt>
      <trkpt lat="44.89146" lon="5.8552">
        <ele>729.2</ele>
        <time>2024-08-27T10:43:24Z</time>
      </trkpt>
      <trkpt lat="44.89157" lon="5.85524">
        <ele>728.6</ele>
        <time>2024-08-27T10:43:25Z</time>
      </trkpt>
      <trkpt lat="44.89168" lon="5.85528">
        <ele>727.9</ele>
        <time>2024-08-27T10:43:26Z</time>
      </trkpt>
      <trkpt lat="44.89178" lon="5.85534">
        <ele>727.1</ele>
        <time>2024-08-27T10:43:27Z</time>
      </trkpt>
      <trkpt lat="44.89188" lon="5.85541">
        <ele>726.4</ele>
        <time>2024-08-27T10:43:28Z</time>
      </trkpt>
      <trkpt lat="44.89198" lon="5.8555">
        <ele>725.8</ele>
        <time>2024-08-27T10:43:29Z</time>
      </trkpt>
      <trkpt lat="44.89206" lon="5.85559">
        <ele>725.1</ele>
        <time>2024-08-27T10:43:30Z</time>
      </trkpt>
      <trkpt lat="44.89215" lon="5.85568">
        <ele>724.4</ele>
        <time>2024-08-27T10:43:31Z</time>
      </trkpt>
      <trkpt lat="44.89223" lon="5.85578">
        <ele>723.6</ele>
        <time>2024-08-27T10:43:32Z</time>
      </trkpt>
      <trkpt lat="44.89231" lon="5.85589">
        <ele>722.9</ele>
        <time>2024-08-27T10:43:33Z</time>
      </trkpt>
      <trkpt lat="44.89239" lon="5.85599">
        <ele>722.1</ele>
        <time>2024-08-27T10:43:34Z</time>
      </trkpt>
      <trkpt lat="44.89247" lon="5.8561">
        <ele>721.4</ele>
        <time>2024-08-27T10:43:35Z</time>
      </trkpt>
      <trkpt lat="44.89254" lon="5.85623">
        <ele>720.7</ele>
        <time>2024-08-27T10:43:36Z</time>
      </trkpt>
      <trkpt lat="44.8926" lon="5.85636">
        <ele>719.9</ele>
        <time>2024-08-27T10:43:37Z</time>
      </trkpt>
      <trkpt lat="44.89265" lon="5.8565">
        <ele>719</ele>
        <time>2024-08-27T10:43:38Z</time>
      </trkpt>
      <trkpt lat="44.8927" lon="5.85665">
        <ele>718.2</ele>
        <time>2024-08-27T10:43:39Z</time>
      </trkpt>
      <trkpt lat="44.89275" lon="5.85679">
        <ele>717.4</ele>
        <time>2024-08-27T10:43:40Z</time>
      </trkpt>
      <trkpt lat="44.89283" lon="5.85692">
        <ele>716.8</ele>
        <time>2024-08-27T10:43:41Z</time>
      </trkpt>
      <trkpt lat="44.89291" lon="5.85702">
        <ele>716.2</ele>
        <time>2024-08-27T10:43:42Z</time>
      </trkpt>
      <trkpt lat="44.893" lon="5.85711">
        <ele>715.6</ele>
        <time>2024-08-27T10:43:43Z</time>
      </trkpt>
      <trkpt lat="44.8931" lon="5.85719">
        <ele>714.9</ele>
        <time>2024-08-27T10:43:44Z</time>
      </trkpt>
      <trkpt lat="44.89319" lon="5.85726">
        <ele>714.3</ele>
        <time>2024-08-27T10:43:45Z</time>
      </trkpt>
      <trkpt lat="44.89329" lon="5.85732">
        <ele>713.6</ele>
        <time>2024-08-27T10:43:46Z</time>
      </trkpt>
      <trkpt lat="44.89339" lon="5.85739">
        <ele>712.9</ele>
        <time>2024-08-27T10:43:47Z</time>
      </trkpt>
      <trkpt lat="44.89349" lon="5.85745">
        <ele>712.3</ele>
        <time>2024-08-27T10:43:48Z</time>
      </trkpt>
      <trkpt lat="44.8936" lon="5.85751">
        <ele>711.7</ele>
        <time>2024-08-27T10:43:49Z</time>
      </trkpt>
      <trkpt lat="44.89369" lon="5.85759">
        <ele>711.1</ele>
        <time>2024-08-27T10:43:50Z</time>
      </trkpt>
      <trkpt lat="44.89378" lon="5.85769">
        <ele>710.3</ele>
        <time>2024-08-27T10:43:51Z</time>
      </trkpt>
      <trkpt lat="44.89385" lon="5.85781">
        <ele>709.6</ele>
        <time>2024-08-27T10:43:52Z</time>
      </trkpt>
      <trkpt lat="44.89392" lon="5.85793">
        <ele>708.8</ele>
        <time>2024-08-27T10:43:53Z</time>
      </trkpt>
      <trkpt lat="44.894" lon="5.85806">
        <ele>708.1</ele>
        <time>2024-08-27T10:43:54Z</time>
      </trkpt>
      <trkpt lat="44.89407" lon="5.85818">
        <ele>707.5</ele>
        <time>2024-08-27T10:43:55Z</time>
      </trkpt>
      <trkpt lat="44.89414" lon="5.85831">
        <ele>706.9</ele>
        <time>2024-08-27T10:43:56Z</time>
      </trkpt>
      <trkpt lat="44.89421" lon="5.85843">
        <ele>706.3</ele>
        <time>2024-08-27T10:43:57Z</time>
      </trkpt>
      <trkpt lat="44.89429" lon="5.85855">
        <ele>705.9</ele>
        <time>2024-08-27T10:43:58Z</time>
      </trkpt>
      <trkpt lat="44.89437" lon="5.85866">
        <ele>705.6</ele>
        <time>2024-08-27T10:43:59Z</time>
      </trkpt>
      <trkpt lat="44.89444" lon="5.85876">
        <ele>705.6</ele>
        <time>2024-08-27T10:44:00Z</time>
      </trkpt>
      <trkpt lat="44.89452" lon="5.85885">
        <ele>705.6</ele>
        <time>2024-08-27T10:44:01Z</time>
      </trkpt>
      <trkpt lat="44.89461" lon="5.85892">
        <ele>705.7</ele>
        <time>2024-08-27T10:44:02Z</time>
      </trkpt>
      <trkpt lat="44.8947" lon="5.85897">
        <ele>705.8</ele>
        <time>2024-08-27T10:44:03Z</time>
      </trkpt>
      <trkpt lat="44.89478" lon="5.85901">
        <ele>705.9</ele>
        <time>2024-08-27T10:44:04Z</time>
      </trkpt>
      <trkpt lat="44.89486" lon="5.85904">
        <ele>706</ele>
        <time>2024-08-27T10:44:05Z</time>
      </trkpt>
      <trkpt lat="44.89494" lon="5.85906">
        <ele>706.1</ele>
        <time>2024-08-27T10:44:06Z</time>
      </trkpt>
      <trkpt lat="44.89502" lon="5.85907">
        <ele>706.1</ele>
        <time>2024-08-27T10:44:07Z</time>
      </trkpt>
      <trkpt lat="44.8951" lon="5.85909">
        <ele>706.2</ele>
        <time>2024-08-27T10:44:08Z</time>
      </trkpt>
      <trkpt lat="44.89518" lon="5.8591">
        <ele>706.2</ele>
        <time>2024-08-27T10:44:09Z</time>
      </trkpt>
      <trkpt lat="44.89527" lon="5.85911">
        <ele>706.2</ele>
        <time>2024-08-27T10:44:10Z</time>
      </trkpt>
      <trkpt lat="44.89535" lon="5.85911">
        <ele>706.2</ele>
        <time>2024-08-27T10:44:11Z</time>
      </trkpt>
      <trkpt lat="44.89544" lon="5.85912">
        <ele>706.1</ele>
        <time>2024-08-27T10:44:12Z</time>
      </trkpt>
      <trkpt lat="44.89552" lon="5.85913">
        <ele>706</ele>
        <time>2024-08-27T10:44:13Z</time>
      </trkpt>
      <trkpt lat="44.8956" lon="5.85917">
        <ele>706</ele>
        <time>2024-08-27T10:44:14Z</time>
      </trkpt>
      <trkpt lat="44.89568" lon="5.85922">
        <ele>705.9</ele>
        <time>2024-08-27T10:44:15Z</time>
      </trkpt>
      <trkpt lat="44.89575" lon="5.85928">
        <ele>705.8</ele>
        <time>2024-08-27T10:44:16Z</time>
      </trkpt>
      <trkpt lat="44.89583" lon="5.85934">
        <ele>705.8</ele>
        <time>2024-08-27T10:44:17Z</time>
      </trkpt>
      <trkpt lat="44.89591" lon="5.85939">
        <ele>705.7</ele>
        <time>2024-08-27T10:44:18Z</time>
      </trkpt>
      <trkpt lat="44.89599" lon="5.85942">
        <ele>705.7</ele>
        <time>2024-08-27T10:44:19Z</time>
      </trkpt>
      <trkpt lat="44.89608" lon="5.85945">
        <ele>705.6</ele>
        <time>2024-08-27T10:44:20Z</time>
      </trkpt>
      <trkpt lat="44.89616" lon="5.85948">
        <ele>705.5</ele>
        <time>2024-08-27T10:44:21Z</time>
      </trkpt>
      <trkpt lat="44.89624" lon="5.85953">
        <ele>705.4</ele>
        <time>2024-08-27T10:44:22Z</time>
      </trkpt>
      <trkpt lat="44.89631" lon="5.8596">
        <ele>705.3</ele>
        <time>2024-08-27T10:44:23Z</time>
      </trkpt>
      <trkpt lat="44.89637" lon="5.85968">
        <ele>705.1</ele>
        <time>2024-08-27T10:44:24Z</time>
      </trkpt>
      <trkpt lat="44.89643" lon="5.85977">
        <ele>705</ele>
        <time>2024-08-27T10:44:25Z</time>
      </trkpt>
      <trkpt lat="44.89648" lon="5.85987">
        <ele>704.8</ele>
        <time>2024-08-27T10:44:26Z</time>
      </trkpt>
      <trkpt lat="44.89652" lon="5.85999">
        <ele>704.7</ele>
        <time>2024-08-27T10:44:27Z</time>
      </trkpt>
      <trkpt lat="44.89654" lon="5.86011">
        <ele>704.5</ele>
        <time>2024-08-27T10:44:28Z</time>
      </trkpt>
      <trkpt lat="44.89655" lon="5.86023">
        <ele>704.4</ele>
        <time>2024-08-27T10:44:29Z</time>
      </trkpt>
      <trkpt lat="44.89658" lon="5.86035">
        <ele>704.3</ele>
        <time>2024-08-27T10:44:30Z</time>
      </trkpt>
      <trkpt lat="44.8966" lon="5.86047">
        <ele>704.2</ele>
        <time>2024-08-27T10:44:31Z</time>
      </trkpt>
      <trkpt lat="44.89661" lon="5.86059">
        <ele>704.1</ele>
        <time>2024-08-27T10:44:32Z</time>
      </trkpt>
      <trkpt lat="44.89662" lon="5.8607">
        <ele>704</ele>
        <time>2024-08-27T10:44:33Z</time>
      </trkpt>
      <trkpt lat="44.89664" lon="5.86081">
        <ele>704</ele>
        <time>2024-08-27T10:44:34Z</time>
      </trkpt>
      <trkpt lat="44.89667" lon="5.86092">
        <ele>704</ele>
        <time>2024-08-27T10:44:35Z</time>
      </trkpt>
      <trkpt lat="44.89672" lon="5.86103">
        <ele>704</ele>
        <time>2024-08-27T10:44:36Z</time>
      </trkpt>
      <trkpt lat="44.89676" lon="5.86113">
        <ele>704</ele>
        <time>2024-08-27T10:44:37Z</time>
      </trkpt>
      <trkpt lat="44.89681" lon="5.86122">
        <ele>704</ele>
        <time>2024-08-27T10:44:38Z</time>
      </trkpt>
      <trkpt lat="44.89686" lon="5.8613">
        <ele>704</ele>
        <time>2024-08-27T10:44:39Z</time>
      </trkpt>
      <trkpt lat="44.89691" lon="5.86138">
        <ele>704</ele>
        <time>2024-08-27T10:44:40Z</time>
      </trkpt>
      <trkpt lat="44.89697" lon="5.86147">
        <ele>703.9</ele>
        <time>2024-08-27T10:44:41Z</time>
      </trkpt>
      <trkpt lat="44.89702" lon="5.86156">
        <ele>703.8</ele>
        <time>2024-08-27T10:44:42Z</time>
      </trkpt>
      <trkpt lat="44.89707" lon="5.86165">
        <ele>703.7</ele>
        <time>2024-08-27T10:44:43Z</time>
      </trkpt>
      <trkpt lat="44.89711" lon="5.86174">
        <ele>703.6</ele>
        <time>2024-08-27T10:44:44Z</time>
      </trkpt>
      <trkpt lat="44.89715" lon="5.86184">
        <ele>703.4</ele>
        <time>2024-08-27T10:44:45Z</time>
      </trkpt>
      <trkpt lat="44.8972" lon="5.86193">
        <ele>703.3</ele>
        <time>2024-08-27T10:44:46Z</time>
      </trkpt>
      <trkpt lat="44.89725" lon="5.86201">
        <ele>703.1</ele>
        <time>2024-08-27T10:44:47Z</time>
      </trkpt>
      <trkpt lat="44.89728" lon="5.8621">
        <ele>703</ele>
        <time>2024-08-27T10:44:48Z</time>
      </trkpt>
      <trkpt lat="44.89733" lon="5.86218">
        <ele>702.8</ele>
        <time>2024-08-27T10:44:49Z</time>
      </trkpt>
      <trkpt lat="44.8974" lon="5.86225">
        <ele>702.6</ele>
        <time>2024-08-27T10:44:50Z</time>
      </trkpt>
      <trkpt lat="44.89746" lon="5.86231">
        <ele>702.4</ele>
        <time>2024-08-27T10:44:51Z</time>
      </trkpt>
      <trkpt lat="44.89752" lon="5.86238">
        <ele>702.3</ele>
        <time>2024-08-27T10:44:52Z</time>
      </trkpt>
      <trkpt lat="44.89759" lon="5.86244">
        <ele>702.1</ele>
        <time>2024-08-27T10:44:53Z</time>
      </trkpt>
      <trkpt lat="44.89765" lon="5.86251">
        <ele>701.9</ele>
        <time>2024-08-27T10:44:54Z</time>
      </trkpt>
      <trkpt lat="44.89771" lon="5.86259">
        <ele>701.7</ele>
        <time>2024-08-27T10:44:55Z</time>
      </trkpt>
      <trkpt lat="44.89778" lon="5.86266">
        <ele>701.5</ele>
        <time>2024-08-27T10:44:56Z</time>
      </trkpt>
      <trkpt lat="44.89785" lon="5.86273">
        <ele>701.3</ele>
        <time>2024-08-27T10:44:57Z</time>
      </trkpt>
      <trkpt lat="44.89793" lon="5.8628">
        <ele>701.1</ele>
        <time>2024-08-27T10:44:58Z</time>
      </trkpt>
      <trkpt lat="44.898" lon="5.86288">
        <ele>700.8</ele>
        <time>2024-08-27T10:44:59Z</time>
      </trkpt>
      <trkpt lat="44.89807" lon="5.86296">
        <ele>700.5</ele>
        <time>2024-08-27T10:45:00Z</time>
      </trkpt>
      <trkpt lat="44.89814" lon="5.86305">
        <ele>700.2</ele>
        <time>2024-08-27T10:45:01Z</time>
      </trkpt>
      <trkpt lat="44.89818" lon="5.86316">
        <ele>699.9</ele>
        <time>2024-08-27T10:45:02Z</time>
      </trkpt>
      <trkpt lat="44.89821" lon="5.86329">
        <ele>699.5</ele>
        <time>2024-08-27T10:45:03Z</time>
      </trkpt>
      <trkpt lat="44.8982" lon="5.86343">
        <ele>699.1</ele>
        <time>2024-08-27T10:45:04Z</time>
      </trkpt>
      <trkpt lat="44.89817" lon="5.86355">
        <ele>698.7</ele>
        <time>2024-08-27T10:45:05Z</time>
      </trkpt>
      <trkpt lat="44.89812" lon="5.86366">
        <ele>698.3</ele>
        <time>2024-08-27T10:45:06Z</time>
      </trkpt>
      <trkpt lat="44.89804" lon="5.86375">
        <ele>697.9</ele>
        <time>2024-08-27T10:45:07Z</time>
      </trkpt>
      <trkpt lat="44.89796" lon="5.86381">
        <ele>697.6</ele>
        <time>2024-08-27T10:45:08Z</time>
      </trkpt>
      <trkpt lat="44.89788" lon="5.86388">
        <ele>697.2</ele>
        <time>2024-08-27T10:45:09Z</time>
      </trkpt>
      <trkpt lat="44.89779" lon="5.86395">
        <ele>696.8</ele>
        <time>2024-08-27T10:45:10Z</time>
      </trkpt>
      <trkpt lat="44.89772" lon="5.86402">
        <ele>696.5</ele>
        <time>2024-08-27T10:45:11Z</time>
      </trkpt>
      <trkpt lat="44.89764" lon="5.86409">
        <ele>696.1</ele>
        <time>2024-08-27T10:45:12Z</time>
      </trkpt>
      <trkpt lat="44.89757" lon="5.86419">
        <ele>695.7</ele>
        <time>2024-08-27T10:45:13Z</time>
      </trkpt>
      <trkpt lat="44.89751" lon="5.8643">
        <ele>695.3</ele>
        <time>2024-08-27T10:45:14Z</time>
      </trkpt>
      <trkpt lat="44.89747" lon="5.86441">
        <ele>694.9</ele>
        <time>2024-08-27T10:45:15Z</time>
      </trkpt>
      <trkpt lat="44.89743" lon="5.86453">
        <ele>694.6</ele>
        <time>2024-08-27T10:45:16Z</time>
      </trkpt>
      <trkpt lat="44.89739" lon="5.86464">
        <ele>694.2</ele>
        <time>2024-08-27T10:45:17Z</time>
      </trkpt>
      <trkpt lat="44.89734" lon="5.86476">
        <ele>693.8</ele>
        <time>2024-08-27T10:45:18Z</time>
      </trkpt>
      <trkpt lat="44.8973" lon="5.86487">
        <ele>693.4</ele>
        <time>2024-08-27T10:45:19Z</time>
      </trkpt>
      <trkpt lat="44.89725" lon="5.86499">
        <ele>693</ele>
        <time>2024-08-27T10:45:20Z</time>
      </trkpt>
      <trkpt lat="44.89721" lon="5.86512">
        <ele>692.5</ele>
        <time>2024-08-27T10:45:21Z</time>
      </trkpt>
      <trkpt lat="44.89715" lon="5.86523">
        <ele>692.1</ele>
        <time>2024-08-27T10:45:22Z</time>
      </trkpt>
      <trkpt lat="44.89709" lon="5.86534">
        <ele>691.7</ele>
        <time>2024-08-27T10:45:23Z</time>
      </trkpt>
      <trkpt lat="44.89702" lon="5.86545">
        <ele>691.2</ele>
        <time>2024-08-27T10:45:24Z</time>
      </trkpt>
      <trkpt lat="44.89695" lon="5.86555">
        <ele>690.8</ele>
        <time>2024-08-27T10:45:25Z</time>
      </trkpt>
      <trkpt lat="44.89688" lon="5.86564">
        <ele>690.5</ele>
        <time>2024-08-27T10:45:26Z</time>
      </trkpt>
      <trkpt lat="44.8968" lon="5.86573">
        <ele>690.1</ele>
        <time>2024-08-27T10:45:27Z</time>
      </trkpt>
      <trkpt lat="44.89671" lon="5.86583">
        <ele>689.7</ele>
        <time>2024-08-27T10:45:28Z</time>
      </trkpt>
      <trkpt lat="44.89664" lon="5.86592">
        <ele>689.3</ele>
        <time>2024-08-27T10:45:29Z</time>
      </trkpt>
      <trkpt lat="44.89656" lon="5.86602">
        <ele>688.9</ele>
        <time>2024-08-27T10:45:30Z</time>
      </trkpt>
      <trkpt lat="44.89649" lon="5.86612">
        <ele>688.6</ele>
        <time>2024-08-27T10:45:31Z</time>
      </trkpt>
      <trkpt lat="44.89641" lon="5.86622">
        <ele>688.2</ele>
        <time>2024-08-27T10:45:32Z</time>
      </trkpt>
      <trkpt lat="44.89635" lon="5.86634">
        <ele>687.7</ele>
        <time>2024-08-27T10:45:33Z</time>
      </trkpt>
      <trkpt lat="44.89629" lon="5.86645">
        <ele>687.3</ele>
        <time>2024-08-27T10:45:34Z</time>
      </trkpt>
      <trkpt lat="44.89623" lon="5.86657">
        <ele>686.9</ele>
        <time>2024-08-27T10:45:35Z</time>
      </trkpt>
      <trkpt lat="44.89618" lon="5.86669">
        <ele>686.5</ele>
        <time>2024-08-27T10:45:36Z</time>
      </trkpt>
      <trkpt lat="44.89613" lon="5.86681">
        <ele>686.1</ele>
        <time>2024-08-27T10:45:37Z</time>
      </trkpt>
      <trkpt lat="44.89607" lon="5.86692">
        <ele>685.7</ele>
        <time>2024-08-27T10:45:38Z</time>
      </trkpt>
      <trkpt lat="44.89601" lon="5.86703">
        <ele>685.3</ele>
        <time>2024-08-27T10:45:39Z</time>
      </trkpt>
      <trkpt lat="44.89594" lon="5.86712">
        <ele>684.9</ele>
        <time>2024-08-27T10:45:40Z</time>
      </trkpt>
      <trkpt lat="44.89586" lon="5.86721">
        <ele>684.4</ele>
        <time>2024-08-27T10:45:41Z</time>
      </trkpt>
      <trkpt lat="44.89578" lon="5.86728">
        <ele>684</ele>
        <time>2024-08-27T10:45:42Z</time>
      </trkpt>
      <trkpt lat="44.89568" lon="5.86733">
        <ele>683.6</ele>
        <time>2024-08-27T10:45:43Z</time>
      </trkpt>
      <trkpt lat="44.89559" lon="5.86738">
        <ele>683.2</ele>
        <time>2024-08-27T10:45:44Z</time>
      </trkpt>
      <trkpt lat="44.89549" lon="5.86742">
        <ele>682.8</ele>
        <time>2024-08-27T10:45:45Z</time>
      </trkpt>
      <trkpt lat="44.8954" lon="5.86746">
        <ele>682.4</ele>
        <time>2024-08-27T10:45:46Z</time>
      </trkpt>
      <trkpt lat="44.89531" lon="5.86752">
        <ele>682</ele>
        <time>2024-08-27T10:45:47Z</time>
      </trkpt>
      <trkpt lat="44.89523" lon="5.8676">
        <ele>681.7</ele>
        <time>2024-08-27T10:45:48Z</time>
      </trkpt>
      <trkpt lat="44.89516" lon="5.86769">
        <ele>681.3</ele>
        <time>2024-08-27T10:45:49Z</time>
      </trkpt>
      <trkpt lat="44.89509" lon="5.86779">
        <ele>680.9</ele>
        <time>2024-08-27T10:45:50Z</time>
      </trkpt>
      <trkpt lat="44.89502" lon="5.86788">
        <ele>680.5</ele>
        <time>2024-08-27T10:45:51Z</time>
      </trkpt>
      <trkpt lat="44.89494" lon="5.86796">
        <ele>680.1</ele>
        <time>2024-08-27T10:45:52Z</time>
      </trkpt>
      <trkpt lat="44.89485" lon="5.86803">
        <ele>679.8</ele>
        <time>2024-08-27T10:45:53Z</time>
      </trkpt>
      <trkpt lat="44.89477" lon="5.86811">
        <ele>679.5</ele>
        <time>2024-08-27T10:45:54Z</time>
      </trkpt>
      <trkpt lat="44.89469" lon="5.86818">
        <ele>679.3</ele>
        <time>2024-08-27T10:45:55Z</time>
      </trkpt>
      <trkpt lat="44.89461" lon="5.86826">
        <ele>679</ele>
        <time>2024-08-27T10:45:56Z</time>
      </trkpt>
      <trkpt lat="44.89454" lon="5.86834">
        <ele>678.8</ele>
        <time>2024-08-27T10:45:57Z</time>
      </trkpt>
      <trkpt lat="44.89448" lon="5.86845">
        <ele>678.6</ele>
        <time>2024-08-27T10:45:58Z</time>
      </trkpt>
      <trkpt lat="44.89445" lon="5.86857">
        <ele>678.4</ele>
        <time>2024-08-27T10:45:59Z</time>
      </trkpt>
      <trkpt lat="44.89447" lon="5.86867">
        <ele>678.3</ele>
        <time>2024-08-27T10:46:00Z</time>
      </trkpt>
      <trkpt lat="44.89452" lon="5.86877">
        <ele>678.3</ele>
        <time>2024-08-27T10:46:01Z</time>
      </trkpt>
      <trkpt lat="44.89456" lon="5.86884">
        <ele>678.2</ele>
        <time>2024-08-27T10:46:02Z</time>
      </trkpt>
      <trkpt lat="44.8946" lon="5.86892">
        <ele>678.1</ele>
        <time>2024-08-27T10:46:03Z</time>
      </trkpt>
      <trkpt lat="44.89465" lon="5.86898">
        <ele>678</ele>
        <time>2024-08-27T10:46:04Z</time>
      </trkpt>
      <trkpt lat="44.89471" lon="5.86899">
        <ele>677.9</ele>
        <time>2024-08-27T10:46:05Z</time>
      </trkpt>
      <trkpt lat="44.89476" lon="5.86899">
        <ele>677.9</ele>
        <time>2024-08-27T10:46:06Z</time>
      </trkpt>
      <trkpt lat="44.89482" lon="5.86898">
        <ele>677.9</ele>
        <time>2024-08-27T10:46:07Z</time>
      </trkpt>
      <trkpt lat="44.89485" lon="5.86897">
        <ele>677.9</ele>
        <time>2024-08-27T10:46:08Z</time>
      </trkpt>
      <trkpt lat="44.89486" lon="5.86896">
        <ele>677.9</ele>
        <time>2024-08-27T10:46:09Z</time>
      </trkpt>
      <trkpt lat="44.89486" lon="5.86892">
        <ele>677.8</ele>
        <time>2024-08-27T10:46:10Z</time>
      </trkpt>
      <trkpt lat="44.89486" lon="5.86891">
        <ele>677.8</ele>
        <time>2024-08-27T10:46:11Z</time>
      </trkpt>
      <trkpt lat="44.89487" lon="5.86889">
        <ele>677.8</ele>
        <time>2024-08-27T10:46:12Z</time>
      </trkpt>
      <trkpt lat="44.89487" lon="5.86889">
        <ele>677.8</ele>
        <time>2024-08-27T10:46:13Z</time>
      </trkpt>
      <trkpt lat="44.89487" lon="5.86889">
        <ele>677.8</ele>
        <time>2024-08-27T10:46:14Z</time>
      </trkpt>
      <trkpt lat="44.89487" lon="5.8689">
        <ele>677.8</ele>
        <time>2024-08-27T10:46:15Z</time>
      </trkpt>
      <trkpt lat="44.89486" lon="5.8689">
        <ele>677.8</ele>
        <time>2024-08-27T10:46:16Z</time>
      </trkpt>
      <trkpt lat="44.89486" lon="5.8689">
        <ele>677.8</ele>
        <time>2024-08-27T10:46:17Z</time>
      </trkpt>
      <trkpt lat="44.89486" lon="5.86891">
        <ele>677.8</ele>
        <time>2024-08-27T10:46:18Z</time>
      </trkpt>
      <trkpt lat="44.89486" lon="5.86891">
        <ele>677.8</ele>
        <time>2024-08-27T10:46:19Z</time>
      </trkpt>
      <trkpt lat="44.89486" lon="5.86891">
        <ele>677.8</ele>
        <time>2024-08-27T10:46:20Z</time>
      </trkpt>
      <trkpt lat="44.89486" lon="5.86891">
        <ele>677.8</ele>
        <time>2024-08-27T10:46:21Z</time>
      </trkpt>
      <trkpt lat="44.89487" lon="5.86891">
        <ele>677.8</ele>
        <time>2024-08-27T10:46:22Z</time>
      </trkpt>
      <trkpt lat="44.89487" lon="5.86891">
        <ele>677.8</ele>
        <time>2024-08-27T10:46:23Z</time>
      </trkpt>
      <trkpt lat="44.89487" lon="5.86891">
        <ele>677.8</ele>
        <time>2024-08-27T10:46:24Z</time>
      </trkpt>
      <trkpt lat="44.89487" lon="5.86891">
        <ele>677.8</ele>
        <time>2024-08-27T10:46:25Z</time>
      </trkpt>
      <trkpt lat="44.89486" lon="5.86892">
        <ele>677.8</ele>
        <time>2024-08-27T10:46:26Z</time>
      </trkpt>
      <trkpt lat="44.89487" lon="5.86892">
        <ele>677.8</ele>
        <time>2024-08-27T10:46:27Z</time>
      </trkpt>
      <trkpt lat="44.89487" lon="5.86892">
        <ele>677.8</ele>
        <time>2024-08-27T10:46:28Z</time>
      </trkpt>
      <trkpt lat="44.89487" lon="5.86891">
        <ele>677.8</ele>
        <time>2024-08-27T10:46:29Z</time>
      </trkpt>
      <trkpt lat="44.89487" lon="5.86891">
        <ele>677.8</ele>
        <time>2024-08-27T10:46:30Z</time>
      </trkpt>
    </trkseg>
  </trk>
</gpx>